<?xml version='1.0' encoding='UTF-8'?><gpx version="1.1" creator="JPX - https://github.com/jenetics/jpx" xmlns="http://www.topografix.com/GPX/1/1"><trk><trkseg><trkpt lat="43.6748329" lon="12.6505244"><ele>249.0</ele><time>2026-04-11T06:50:06.461Z</time></trkpt><trkpt lat="43.67483" lon="12.6504088"><ele>249.0</ele><time>2026-04-11T06:52:02.462Z</time></trkpt><trkpt lat="43.6747732" lon="12.6503626"><ele>249.0</ele><time>2026-04-11T06:52:07.461Z</time></trkpt><trkpt lat="43.6747061" lon="12.6503126"><ele>249.0</ele><time>2026-04-11T06:52:14.461Z</time></trkpt><trkpt lat="43.6746448" lon="12.650265"><ele>249.0</ele><time>2026-04-11T06:52:19.461Z</time></trkpt><trkpt lat="43.6745794" lon="12.6502195"><ele>249.0</ele><time>2026-04-11T06:52:23.461Z</time></trkpt><trkpt lat="43.6745119" lon="12.6501497"><ele>245.6</ele><time>2026-04-11T06:52:41.461Z</time></trkpt><trkpt lat="43.6743936" lon="12.6500702"><ele>242.2</ele><time>2026-04-11T06:52:43.461Z</time></trkpt><trkpt lat="43.6743191" lon="12.6500081"><ele>238.79999999999998</ele><time>2026-04-11T06:52:44.461Z</time></trkpt><trkpt lat="43.6742492" lon="12.6499415"><ele>235.39999999999998</ele><time>2026-04-11T06:52:45.461Z</time></trkpt><trkpt lat="43.674178" lon="12.6498959"><ele>232.0</ele><time>2026-04-11T06:52:46.461Z</time></trkpt><trkpt lat="43.6741022" lon="12.6498681"><ele>231.99999999999997</ele><time>2026-04-11T06:52:47.462Z</time></trkpt><trkpt lat="43.6740281" lon="12.6498791"><ele>232.0</ele><time>2026-04-11T06:52:48.461Z</time></trkpt><trkpt lat="43.6739608" lon="12.6499237"><ele>232.0</ele><time>2026-04-11T06:52:49.461Z</time></trkpt><trkpt lat="43.6739122" lon="12.650022"><ele>232.0</ele><time>2026-04-11T06:52:50.461Z</time></trkpt><trkpt lat="43.6738688" lon="12.6501245"><ele>231.99999999999997</ele><time>2026-04-11T06:52:51.461Z</time></trkpt><trkpt lat="43.673824" lon="12.6501908"><ele>232.0</ele><time>2026-04-11T06:52:52.461Z</time></trkpt><trkpt lat="43.6737615" lon="12.6502247"><ele>232.0</ele><time>2026-04-11T06:52:53.462Z</time></trkpt><trkpt lat="43.6736823" lon="12.650113"><ele>232.0</ele><time>2026-04-11T06:52:55.462Z</time></trkpt><trkpt lat="43.6736695" lon="12.6499955"><ele>232.0</ele><time>2026-04-11T06:52:56.461Z</time></trkpt><trkpt lat="43.6736554" lon="12.6498402"><ele>232.0</ele><time>2026-04-11T06:52:57.461Z</time></trkpt><trkpt lat="43.6736326" lon="12.6496585"><ele>232.0</ele><time>2026-04-11T06:52:58.461Z</time></trkpt><trkpt lat="43.6736035" lon="12.6494801"><ele>230.0</ele><time>2026-04-11T06:52:59.462Z</time></trkpt><trkpt lat="43.6735713" lon="12.6493228"><ele>228.0</ele><time>2026-04-11T06:53:00.462Z</time></trkpt><trkpt lat="43.6735398" lon="12.6491698"><ele>226.0</ele><time>2026-04-11T06:53:01.461Z</time></trkpt><trkpt lat="43.6735048" lon="12.6490274"><ele>224.0</ele><time>2026-04-11T06:53:02.461Z</time></trkpt><trkpt lat="43.6734778" lon="12.6488888"><ele>222.0</ele><time>2026-04-11T06:53:03.461Z</time></trkpt><trkpt lat="43.6734688" lon="12.6487619"><ele>222.0</ele><time>2026-04-11T06:53:04.462Z</time></trkpt><trkpt lat="43.6734922" lon="12.648648"><ele>222.0</ele><time>2026-04-11T06:53:05.461Z</time></trkpt><trkpt lat="43.6735467" lon="12.6485367"><ele>222.0</ele><time>2026-04-11T06:53:06.461Z</time></trkpt><trkpt lat="43.6736187" lon="12.6484292"><ele>222.0</ele><time>2026-04-11T06:53:07.462Z</time></trkpt><trkpt lat="43.6736845" lon="12.6483209"><ele>222.0</ele><time>2026-04-11T06:53:08.461Z</time></trkpt><trkpt lat="43.6737417" lon="12.6482168"><ele>219.2</ele><time>2026-04-11T06:53:09.462Z</time></trkpt><trkpt lat="43.6737873" lon="12.6481349"><ele>216.39999999999998</ele><time>2026-04-11T06:53:10.461Z</time></trkpt><trkpt lat="43.6738535" lon="12.6480204"><ele>213.60000000000002</ele><time>2026-04-11T06:53:12.461Z</time></trkpt><trkpt lat="43.6738874" lon="12.6479293"><ele>210.8</ele><time>2026-04-11T06:53:21.461Z</time></trkpt><trkpt lat="43.6738478" lon="12.6478366"><ele>208.0</ele><time>2026-04-11T06:53:23.461Z</time></trkpt><trkpt lat="43.6737109" lon="12.6478098"><ele>208.0</ele><time>2026-04-11T06:53:25.462Z</time></trkpt><trkpt lat="43.673625" lon="12.6478025"><ele>208.0</ele><time>2026-04-11T06:53:26.461Z</time></trkpt><trkpt lat="43.6735246" lon="12.6477872"><ele>208.0</ele><time>2026-04-11T06:53:27.461Z</time></trkpt><trkpt lat="43.6734161" lon="12.6477648"><ele>208.0</ele><time>2026-04-11T06:53:28.461Z</time></trkpt><trkpt lat="43.6733176" lon="12.6477212"><ele>208.0</ele><time>2026-04-11T06:53:29.461Z</time></trkpt><trkpt lat="43.6732392" lon="12.6476342"><ele>207.0</ele><time>2026-04-11T06:53:30.461Z</time></trkpt><trkpt lat="43.6731785" lon="12.6475067"><ele>206.0</ele><time>2026-04-11T06:53:31.461Z</time></trkpt><trkpt lat="43.6731468" lon="12.64734"><ele>205.0</ele><time>2026-04-11T06:53:32.461Z</time></trkpt><trkpt lat="43.6731365" lon="12.6471392"><ele>204.0</ele><time>2026-04-11T06:53:33.461Z</time></trkpt><trkpt lat="43.6731342" lon="12.6469252"><ele>202.66666666666669</ele><time>2026-04-11T06:53:34.462Z</time></trkpt><trkpt lat="43.6731331" lon="12.6466941"><ele>201.33333333333334</ele><time>2026-04-11T06:53:35.461Z</time></trkpt><trkpt lat="43.6731324" lon="12.646452"><ele>200.0</ele><time>2026-04-11T06:53:36.461Z</time></trkpt><trkpt lat="43.673134" lon="12.6462335"><ele>200.25</ele><time>2026-04-11T06:53:37.461Z</time></trkpt><trkpt lat="43.673136" lon="12.6460314"><ele>200.5</ele><time>2026-04-11T06:53:38.461Z</time></trkpt><trkpt lat="43.6731412" lon="12.6458475"><ele>200.75</ele><time>2026-04-11T06:53:39.462Z</time></trkpt><trkpt lat="43.6731473" lon="12.6456991"><ele>201.0</ele><time>2026-04-11T06:53:40.461Z</time></trkpt><trkpt lat="43.6731562" lon="12.6455838"><ele>201.0</ele><time>2026-04-11T06:53:41.462Z</time></trkpt><trkpt lat="43.6731716" lon="12.6454353"><ele>201.0</ele><time>2026-04-11T06:53:43.461Z</time></trkpt><trkpt lat="43.6731928" lon="12.6453282"><ele>201.0</ele><time>2026-04-11T06:53:52.462Z</time></trkpt><trkpt lat="43.6732127" lon="12.6451725"><ele>201.0</ele><time>2026-04-11T06:53:54.462Z</time></trkpt><trkpt lat="43.6732227" lon="12.645051"><ele>201.0</ele><time>2026-04-11T06:53:55.461Z</time></trkpt><trkpt lat="43.6732369" lon="12.6449024"><ele>199.66666666666669</ele><time>2026-04-11T06:53:56.462Z</time></trkpt><trkpt lat="43.6732624" lon="12.6447268"><ele>198.33333333333334</ele><time>2026-04-11T06:53:57.461Z</time></trkpt><trkpt lat="43.6732903" lon="12.6445146"><ele>197.0</ele><time>2026-04-11T06:53:58.461Z</time></trkpt><trkpt lat="43.6733186" lon="12.6442905"><ele>196.5</ele><time>2026-04-11T06:53:59.461Z</time></trkpt><trkpt lat="43.6733449" lon="12.6440808"><ele>196.0</ele><time>2026-04-11T06:54:00.462Z</time></trkpt><trkpt lat="43.6733734" lon="12.6438913"><ele>195.5</ele><time>2026-04-11T06:54:01.461Z</time></trkpt><trkpt lat="43.6733971" lon="12.6437229"><ele>195.0</ele><time>2026-04-11T06:54:02.463Z</time></trkpt><trkpt lat="43.6734149" lon="12.6435768"><ele>196.0</ele><time>2026-04-11T06:54:03.463Z</time></trkpt><trkpt lat="43.6734332" lon="12.6434496"><ele>197.0</ele><time>2026-04-11T06:54:04.461Z</time></trkpt><trkpt lat="43.6734564" lon="12.6433418"><ele>198.0</ele><time>2026-04-11T06:54:05.461Z</time></trkpt><trkpt lat="43.6734999" lon="12.6432594"><ele>199.0</ele><time>2026-04-11T06:54:06.461Z</time></trkpt><trkpt lat="43.6735625" lon="12.6432045"><ele>200.0</ele><time>2026-04-11T06:54:07.461Z</time></trkpt><trkpt lat="43.6736399" lon="12.6431871"><ele>201.0</ele><time>2026-04-11T06:54:08.461Z</time></trkpt><trkpt lat="43.6737116" lon="12.6432119"><ele>202.33333333333334</ele><time>2026-04-11T06:54:09.461Z</time></trkpt><trkpt lat="43.6737717" lon="12.6432609"><ele>203.66666666666669</ele><time>2026-04-11T06:54:10.461Z</time></trkpt><trkpt lat="43.6738318" lon="12.6433113"><ele>205.0</ele><time>2026-04-11T06:54:11.461Z</time></trkpt><trkpt lat="43.6738916" lon="12.6433532"><ele>206.33333333333334</ele><time>2026-04-11T06:54:12.461Z</time></trkpt><trkpt lat="43.6739564" lon="12.6433978"><ele>207.66666666666669</ele><time>2026-04-11T06:54:13.461Z</time></trkpt><trkpt lat="43.6740426" lon="12.643449"><ele>209.0</ele><time>2026-04-11T06:54:14.462Z</time></trkpt><trkpt lat="43.6741494" lon="12.6435308"><ele>209.0</ele><time>2026-04-11T06:54:15.462Z</time></trkpt><trkpt lat="43.6742756" lon="12.6436266"><ele>209.0</ele><time>2026-04-11T06:54:16.46Z</time></trkpt><trkpt lat="43.6744097" lon="12.6437371"><ele>209.0</ele><time>2026-04-11T06:54:17.46Z</time></trkpt><trkpt lat="43.674553" lon="12.6438506"><ele>206.66666666666669</ele><time>2026-04-11T06:54:18.46Z</time></trkpt><trkpt lat="43.6747118" lon="12.6439458"><ele>204.33333333333331</ele><time>2026-04-11T06:54:19.461Z</time></trkpt><trkpt lat="43.674879" lon="12.6440382"><ele>202.0</ele><time>2026-04-11T06:54:20.46Z</time></trkpt><trkpt lat="43.6750492" lon="12.6441357"><ele>202.0</ele><time>2026-04-11T06:54:21.461Z</time></trkpt><trkpt lat="43.6752211" lon="12.644236"><ele>202.0</ele><time>2026-04-11T06:54:22.461Z</time></trkpt><trkpt lat="43.6753934" lon="12.6443375"><ele>202.0</ele><time>2026-04-11T06:54:23.461Z</time></trkpt><trkpt lat="43.6755669" lon="12.6444388"><ele>202.33333333333331</ele><time>2026-04-11T06:54:24.46Z</time></trkpt><trkpt lat="43.6757257" lon="12.6445301"><ele>202.66666666666669</ele><time>2026-04-11T06:54:25.461Z</time></trkpt><trkpt lat="43.67587" lon="12.6446136"><ele>203.0</ele><time>2026-04-11T06:54:26.461Z</time></trkpt><trkpt lat="43.676009" lon="12.6446906"><ele>202.75</ele><time>2026-04-11T06:54:27.46Z</time></trkpt><trkpt lat="43.6761311" lon="12.6447642"><ele>202.5</ele><time>2026-04-11T06:54:28.46Z</time></trkpt><trkpt lat="43.6762446" lon="12.6448301"><ele>202.25</ele><time>2026-04-11T06:54:29.46Z</time></trkpt><trkpt lat="43.6763495" lon="12.6448908"><ele>202.0</ele><time>2026-04-11T06:54:30.46Z</time></trkpt><trkpt lat="43.6764473" lon="12.6449457"><ele>202.0</ele><time>2026-04-11T06:54:31.461Z</time></trkpt><trkpt lat="43.676539" lon="12.6449972"><ele>202.0</ele><time>2026-04-11T06:54:32.46Z</time></trkpt><trkpt lat="43.6766275" lon="12.6450471"><ele>202.0</ele><time>2026-04-11T06:54:33.46Z</time></trkpt><trkpt lat="43.676712" lon="12.6450964"><ele>202.0</ele><time>2026-04-11T06:54:34.46Z</time></trkpt><trkpt lat="43.6767963" lon="12.6451551"><ele>202.0</ele><time>2026-04-11T06:54:35.46Z</time></trkpt><trkpt lat="43.6768729" lon="12.645207"><ele>201.85714285714286</ele><time>2026-04-11T06:54:36.461Z</time></trkpt><trkpt lat="43.6769477" lon="12.6452197"><ele>201.71428571428572</ele><time>2026-04-11T06:54:37.46Z</time></trkpt><trkpt lat="43.6770108" lon="12.6452144"><ele>201.57142857142856</ele><time>2026-04-11T06:54:38.46Z</time></trkpt><trkpt lat="43.6770729" lon="12.6451724"><ele>201.42857142857144</ele><time>2026-04-11T06:54:39.46Z</time></trkpt><trkpt lat="43.6771343" lon="12.6451077"><ele>201.2857142857143</ele><time>2026-04-11T06:54:40.46Z</time></trkpt><trkpt lat="43.6771958" lon="12.6450474"><ele>201.14285714285714</ele><time>2026-04-11T06:54:41.46Z</time></trkpt><trkpt lat="43.6772529" lon="12.6449886"><ele>201.0</ele><time>2026-04-11T06:54:42.46Z</time></trkpt><trkpt lat="43.677303" lon="12.6449292"><ele>201.0</ele><time>2026-04-11T06:54:43.46Z</time></trkpt><trkpt lat="43.6773553" lon="12.6448687"><ele>201.0</ele><time>2026-04-11T06:54:44.46Z</time></trkpt><trkpt lat="43.6774156" lon="12.644811"><ele>201.0</ele><time>2026-04-11T06:54:45.46Z</time></trkpt><trkpt lat="43.6774705" lon="12.644751"><ele>201.0</ele><time>2026-04-11T06:54:46.46Z</time></trkpt><trkpt lat="43.67756" lon="12.644649"><ele>201.0</ele><time>2026-04-11T06:54:48.462Z</time></trkpt><trkpt lat="43.6776308" lon="12.6445718"><ele>201.0</ele><time>2026-04-11T06:54:50.461Z</time></trkpt><trkpt lat="43.6777151" lon="12.6444928"><ele>201.20000000000002</ele><time>2026-04-11T06:54:52.46Z</time></trkpt><trkpt lat="43.6777697" lon="12.6444342"><ele>201.4</ele><time>2026-04-11T06:54:53.462Z</time></trkpt><trkpt lat="43.6778424" lon="12.6443704"><ele>201.6</ele><time>2026-04-11T06:54:54.46Z</time></trkpt><trkpt lat="43.6779295" lon="12.6443076"><ele>201.8</ele><time>2026-04-11T06:54:55.46Z</time></trkpt><trkpt lat="43.6780175" lon="12.6442363"><ele>202.0</ele><time>2026-04-11T06:54:56.46Z</time></trkpt><trkpt lat="43.6781134" lon="12.644183"><ele>202.0</ele><time>2026-04-11T06:54:57.46Z</time></trkpt><trkpt lat="43.6782185" lon="12.6441312"><ele>202.0</ele><time>2026-04-11T06:54:58.46Z</time></trkpt><trkpt lat="43.6783233" lon="12.6440845"><ele>202.0</ele><time>2026-04-11T06:54:59.46Z</time></trkpt><trkpt lat="43.6784319" lon="12.6440549"><ele>202.0</ele><time>2026-04-11T06:55:00.46Z</time></trkpt><trkpt lat="43.6785431" lon="12.6440311"><ele>202.0</ele><time>2026-04-11T06:55:01.461Z</time></trkpt><trkpt lat="43.6786578" lon="12.6440137"><ele>202.0</ele><time>2026-04-11T06:55:02.46Z</time></trkpt><trkpt lat="43.6787822" lon="12.6439916"><ele>202.0</ele><time>2026-04-11T06:55:03.461Z</time></trkpt><trkpt lat="43.6789054" lon="12.6439773"><ele>202.0</ele><time>2026-04-11T06:55:04.461Z</time></trkpt><trkpt lat="43.6790266" lon="12.6439596"><ele>202.0</ele><time>2026-04-11T06:55:05.461Z</time></trkpt><trkpt lat="43.6791424" lon="12.6439451"><ele>202.0</ele><time>2026-04-11T06:55:06.46Z</time></trkpt><trkpt lat="43.6792457" lon="12.6439262"><ele>202.0</ele><time>2026-04-11T06:55:07.461Z</time></trkpt><trkpt lat="43.6793457" lon="12.64391"><ele>202.0</ele><time>2026-04-11T06:55:08.46Z</time></trkpt><trkpt lat="43.6794538" lon="12.6438999"><ele>202.0</ele><time>2026-04-11T06:55:09.46Z</time></trkpt><trkpt lat="43.6795681" lon="12.6438892"><ele>202.0</ele><time>2026-04-11T06:55:10.46Z</time></trkpt><trkpt lat="43.6797358" lon="12.6438446"><ele>202.0</ele><time>2026-04-11T06:55:11.46Z</time></trkpt><trkpt lat="43.6799146" lon="12.6438152"><ele>202.0</ele><time>2026-04-11T06:55:12.461Z</time></trkpt><trkpt lat="43.6800997" lon="12.6437936"><ele>202.0</ele><time>2026-04-11T06:55:13.46Z</time></trkpt><trkpt lat="43.6803106" lon="12.643756"><ele>202.0</ele><time>2026-04-11T06:55:14.461Z</time></trkpt><trkpt lat="43.6805587" lon="12.6435976"><ele>202.0</ele><time>2026-04-11T06:55:15.461Z</time></trkpt><trkpt lat="43.6807875" lon="12.6435043"><ele>202.0</ele><time>2026-04-11T06:55:16.46Z</time></trkpt><trkpt lat="43.6809945" lon="12.6434126"><ele>202.0</ele><time>2026-04-11T06:55:17.461Z</time></trkpt><trkpt lat="43.6811892" lon="12.6433252"><ele>202.0</ele><time>2026-04-11T06:55:18.462Z</time></trkpt><trkpt lat="43.681376" lon="12.6432528"><ele>202.33333333333331</ele><time>2026-04-11T06:55:19.46Z</time></trkpt><trkpt lat="43.6815504" lon="12.6432092"><ele>202.66666666666669</ele><time>2026-04-11T06:55:20.46Z</time></trkpt><trkpt lat="43.6817132" lon="12.6431764"><ele>203.0</ele><time>2026-04-11T06:55:21.462Z</time></trkpt><trkpt lat="43.6818682" lon="12.6431462"><ele>202.5</ele><time>2026-04-11T06:55:22.46Z</time></trkpt><trkpt lat="43.6820178" lon="12.6431223"><ele>202.0</ele><time>2026-04-11T06:55:23.46Z</time></trkpt><trkpt lat="43.6821692" lon="12.6431058"><ele>201.5</ele><time>2026-04-11T06:55:24.461Z</time></trkpt><trkpt lat="43.6823157" lon="12.6430995"><ele>201.0</ele><time>2026-04-11T06:55:25.461Z</time></trkpt><trkpt lat="43.6824403" lon="12.6431018"><ele>201.0</ele><time>2026-04-11T06:55:26.46Z</time></trkpt><trkpt lat="43.6825458" lon="12.6431034"><ele>201.0</ele><time>2026-04-11T06:55:27.46Z</time></trkpt><trkpt lat="43.6826271" lon="12.6431048"><ele>201.0</ele><time>2026-04-11T06:55:28.46Z</time></trkpt><trkpt lat="43.6826945" lon="12.6431029"><ele>201.0</ele><time>2026-04-11T06:55:29.46Z</time></trkpt><trkpt lat="43.6828188" lon="12.6430889"><ele>201.0</ele><time>2026-04-11T06:55:31.46Z</time></trkpt><trkpt lat="43.6828822" lon="12.6430735"><ele>201.0</ele><time>2026-04-11T06:55:32.462Z</time></trkpt><trkpt lat="43.6829453" lon="12.6430275"><ele>200.8</ele><time>2026-04-11T06:55:33.462Z</time></trkpt><trkpt lat="43.6830006" lon="12.6429448"><ele>200.60000000000002</ele><time>2026-04-11T06:55:34.461Z</time></trkpt><trkpt lat="43.6830619" lon="12.6428409"><ele>200.4</ele><time>2026-04-11T06:55:35.46Z</time></trkpt><trkpt lat="43.6831372" lon="12.6427407"><ele>200.2</ele><time>2026-04-11T06:55:36.46Z</time></trkpt><trkpt lat="43.6832309" lon="12.6426679"><ele>200.0</ele><time>2026-04-11T06:55:37.462Z</time></trkpt><trkpt lat="43.683337" lon="12.6426127"><ele>200.5</ele><time>2026-04-11T06:55:38.46Z</time></trkpt><trkpt lat="43.6834295" lon="12.6425241"><ele>201.0</ele><time>2026-04-11T06:55:39.461Z</time></trkpt><trkpt lat="43.6835193" lon="12.6423966"><ele>201.5</ele><time>2026-04-11T06:55:40.461Z</time></trkpt><trkpt lat="43.6836065" lon="12.6422301"><ele>202.0</ele><time>2026-04-11T06:55:41.46Z</time></trkpt><trkpt lat="43.6836952" lon="12.6420545"><ele>202.25</ele><time>2026-04-11T06:55:42.46Z</time></trkpt><trkpt lat="43.6837766" lon="12.6418851"><ele>202.5</ele><time>2026-04-11T06:55:43.46Z</time></trkpt><trkpt lat="43.6838616" lon="12.6417433"><ele>202.75</ele><time>2026-04-11T06:55:44.46Z</time></trkpt><trkpt lat="43.6839447" lon="12.6416116"><ele>203.0</ele><time>2026-04-11T06:55:45.461Z</time></trkpt><trkpt lat="43.6840279" lon="12.6414778"><ele>203.0</ele><time>2026-04-11T06:55:46.46Z</time></trkpt><trkpt lat="43.6841176" lon="12.6413421"><ele>203.0</ele><time>2026-04-11T06:55:47.46Z</time></trkpt><trkpt lat="43.6842119" lon="12.6412019"><ele>203.0</ele><time>2026-04-11T06:55:48.462Z</time></trkpt><trkpt lat="43.6843061" lon="12.6410527"><ele>203.0</ele><time>2026-04-11T06:55:49.46Z</time></trkpt><trkpt lat="43.6843934" lon="12.6409092"><ele>204.0</ele><time>2026-04-11T06:55:50.46Z</time></trkpt><trkpt lat="43.6844665" lon="12.6407732"><ele>205.0</ele><time>2026-04-11T06:55:51.46Z</time></trkpt><trkpt lat="43.684531" lon="12.6406293"><ele>206.0</ele><time>2026-04-11T06:55:52.46Z</time></trkpt><trkpt lat="43.6845919" lon="12.6404723"><ele>207.0</ele><time>2026-04-11T06:55:53.46Z</time></trkpt><trkpt lat="43.6846525" lon="12.6403108"><ele>207.6</ele><time>2026-04-11T06:55:54.46Z</time></trkpt><trkpt lat="43.6847146" lon="12.6401545"><ele>208.2</ele><time>2026-04-11T06:55:55.461Z</time></trkpt><trkpt lat="43.6847716" lon="12.6400167"><ele>208.8</ele><time>2026-04-11T06:55:56.46Z</time></trkpt><trkpt lat="43.6848261" lon="12.6398939"><ele>209.4</ele><time>2026-04-11T06:55:57.46Z</time></trkpt><trkpt lat="43.6848632" lon="12.6397785"><ele>210.0</ele><time>2026-04-11T06:55:58.46Z</time></trkpt><trkpt lat="43.684865" lon="12.6396652"><ele>210.0</ele><time>2026-04-11T06:55:59.46Z</time></trkpt><trkpt lat="43.6848336" lon="12.6395732"><ele>210.0</ele><time>2026-04-11T06:56:00.46Z</time></trkpt><trkpt lat="43.6847736" lon="12.6394981"><ele>210.0</ele><time>2026-04-11T06:56:01.46Z</time></trkpt><trkpt lat="43.6846917" lon="12.6394261"><ele>210.0</ele><time>2026-04-11T06:56:02.46Z</time></trkpt><trkpt lat="43.684595" lon="12.6393365"><ele>210.0</ele><time>2026-04-11T06:56:03.46Z</time></trkpt><trkpt lat="43.6844726" lon="12.6392503"><ele>213.0</ele><time>2026-04-11T06:56:04.46Z</time></trkpt><trkpt lat="43.6843307" lon="12.6391681"><ele>216.0</ele><time>2026-04-11T06:56:05.46Z</time></trkpt><trkpt lat="43.6841752" lon="12.6390987"><ele>219.0</ele><time>2026-04-11T06:56:06.462Z</time></trkpt><trkpt lat="43.6840055" lon="12.6390527"><ele>219.0</ele><time>2026-04-11T06:56:07.461Z</time></trkpt><trkpt lat="43.6838246" lon="12.6390222"><ele>219.0</ele><time>2026-04-11T06:56:08.46Z</time></trkpt><trkpt lat="43.683641" lon="12.6390044"><ele>219.0</ele><time>2026-04-11T06:56:09.461Z</time></trkpt><trkpt lat="43.6834551" lon="12.6389831"><ele>220.0</ele><time>2026-04-11T06:56:10.46Z</time></trkpt><trkpt lat="43.6832651" lon="12.6389498"><ele>221.0</ele><time>2026-04-11T06:56:11.461Z</time></trkpt><trkpt lat="43.6830763" lon="12.6389083"><ele>222.0</ele><time>2026-04-11T06:56:12.46Z</time></trkpt><trkpt lat="43.682911" lon="12.6388544"><ele>221.66666666666669</ele><time>2026-04-11T06:56:13.461Z</time></trkpt><trkpt lat="43.6827601" lon="12.6387882"><ele>221.33333333333334</ele><time>2026-04-11T06:56:14.461Z</time></trkpt><trkpt lat="43.6826228" lon="12.6387058"><ele>221.0</ele><time>2026-04-11T06:56:15.46Z</time></trkpt><trkpt lat="43.6824975" lon="12.6385713"><ele>224.0</ele><time>2026-04-11T06:56:16.46Z</time></trkpt><trkpt lat="43.6823963" lon="12.6384609"><ele>227.00000000000003</ele><time>2026-04-11T06:56:17.46Z</time></trkpt><trkpt lat="43.6823149" lon="12.6383585"><ele>230.00000000000003</ele><time>2026-04-11T06:56:18.461Z</time></trkpt><trkpt lat="43.6822588" lon="12.638252"><ele>233.0</ele><time>2026-04-11T06:56:19.46Z</time></trkpt><trkpt lat="43.6822369" lon="12.6381379"><ele>236.0</ele><time>2026-04-11T06:56:20.461Z</time></trkpt><trkpt lat="43.6822513" lon="12.6380147"><ele>236.0</ele><time>2026-04-11T06:56:21.46Z</time></trkpt><trkpt lat="43.6822855" lon="12.6378838"><ele>236.0</ele><time>2026-04-11T06:56:22.461Z</time></trkpt><trkpt lat="43.6823564" lon="12.6377406"><ele>236.0</ele><time>2026-04-11T06:56:23.46Z</time></trkpt><trkpt lat="43.6824518" lon="12.6375767"><ele>236.0</ele><time>2026-04-11T06:56:24.46Z</time></trkpt><trkpt lat="43.6825221" lon="12.6373871"><ele>240.0</ele><time>2026-04-11T06:56:25.461Z</time></trkpt><trkpt lat="43.6825631" lon="12.6371759"><ele>244.0</ele><time>2026-04-11T06:56:26.46Z</time></trkpt><trkpt lat="43.6826008" lon="12.6369373"><ele>248.0</ele><time>2026-04-11T06:56:27.46Z</time></trkpt><trkpt lat="43.6826399" lon="12.6366752"><ele>249.33333333333334</ele><time>2026-04-11T06:56:28.46Z</time></trkpt><trkpt lat="43.682661" lon="12.6364239"><ele>250.66666666666669</ele><time>2026-04-11T06:56:29.46Z</time></trkpt><trkpt lat="43.6826629" lon="12.636186"><ele>252.0</ele><time>2026-04-11T06:56:30.46Z</time></trkpt><trkpt lat="43.6826487" lon="12.6359635"><ele>254.25</ele><time>2026-04-11T06:56:31.461Z</time></trkpt><trkpt lat="43.6826219" lon="12.6357696"><ele>256.5</ele><time>2026-04-11T06:56:32.46Z</time></trkpt><trkpt lat="43.6825884" lon="12.6355964"><ele>258.75</ele><time>2026-04-11T06:56:33.46Z</time></trkpt><trkpt lat="43.682536" lon="12.6354518"><ele>261.0</ele><time>2026-04-11T06:56:34.46Z</time></trkpt><trkpt lat="43.6824631" lon="12.6353315"><ele>264.2</ele><time>2026-04-11T06:56:35.461Z</time></trkpt><trkpt lat="43.6823712" lon="12.6352296"><ele>267.40000000000003</ele><time>2026-04-11T06:56:36.46Z</time></trkpt><trkpt lat="43.6822735" lon="12.6351681"><ele>270.6</ele><time>2026-04-11T06:56:37.461Z</time></trkpt><trkpt lat="43.6821769" lon="12.6351574"><ele>273.8</ele><time>2026-04-11T06:56:38.46Z</time></trkpt><trkpt lat="43.6820765" lon="12.6352171"><ele>277.0</ele><time>2026-04-11T06:56:39.46Z</time></trkpt><trkpt lat="43.6819845" lon="12.6352999"><ele>272.0</ele><time>2026-04-11T06:56:40.46Z</time></trkpt><trkpt lat="43.6818895" lon="12.6354041"><ele>267.0</ele><time>2026-04-11T06:56:41.46Z</time></trkpt><trkpt lat="43.6817919" lon="12.6354921"><ele>262.0</ele><time>2026-04-11T06:56:42.461Z</time></trkpt><trkpt lat="43.6816673" lon="12.6355396"><ele>257.0</ele><time>2026-04-11T06:56:43.46Z</time></trkpt><trkpt lat="43.6815291" lon="12.635553"><ele>257.0</ele><time>2026-04-11T06:56:44.461Z</time></trkpt><trkpt lat="43.6813718" lon="12.6355318"><ele>257.0</ele><time>2026-04-11T06:56:45.46Z</time></trkpt><trkpt lat="43.6811916" lon="12.6354983"><ele>257.0</ele><time>2026-04-11T06:56:46.46Z</time></trkpt><trkpt lat="43.6809874" lon="12.6354795"><ele>260.33333333333337</ele><time>2026-04-11T06:56:47.46Z</time></trkpt><trkpt lat="43.6808196" lon="12.635473"><ele>263.6666666666667</ele><time>2026-04-11T06:56:48.461Z</time></trkpt><trkpt lat="43.6806573" lon="12.6354992"><ele>267.0</ele><time>2026-04-11T06:56:49.46Z</time></trkpt><trkpt lat="43.6804919" lon="12.6355651"><ele>267.0</ele><time>2026-04-11T06:56:50.46Z</time></trkpt><trkpt lat="43.6803191" lon="12.6356514"><ele>267.0</ele><time>2026-04-11T06:56:51.46Z</time></trkpt><trkpt lat="43.6801648" lon="12.6357064"><ele>267.0</ele><time>2026-04-11T06:56:52.461Z</time></trkpt><trkpt lat="43.6799995" lon="12.6357267"><ele>271.0</ele><time>2026-04-11T06:56:53.46Z</time></trkpt><trkpt lat="43.6798188" lon="12.6357062"><ele>275.0</ele><time>2026-04-11T06:56:54.461Z</time></trkpt><trkpt lat="43.6796308" lon="12.6356762"><ele>279.0</ele><time>2026-04-11T06:56:55.46Z</time></trkpt><trkpt lat="43.6794757" lon="12.6356593"><ele>281.0</ele><time>2026-04-11T06:56:56.46Z</time></trkpt><trkpt lat="43.6793437" lon="12.6356424"><ele>283.0</ele><time>2026-04-11T06:56:57.461Z</time></trkpt><trkpt lat="43.6792338" lon="12.6356084"><ele>285.0</ele><time>2026-04-11T06:56:58.46Z</time></trkpt><trkpt lat="43.6791451" lon="12.6355452"><ele>287.0</ele><time>2026-04-11T06:56:59.46Z</time></trkpt><trkpt lat="43.6790577" lon="12.6354318"><ele>289.0</ele><time>2026-04-11T06:57:00.46Z</time></trkpt><trkpt lat="43.6789712" lon="12.6352731"><ele>291.0</ele><time>2026-04-11T06:57:01.46Z</time></trkpt><trkpt lat="43.6788858" lon="12.6350899"><ele>293.0</ele><time>2026-04-11T06:57:02.461Z</time></trkpt><trkpt lat="43.6788275" lon="12.6349086"><ele>295.0</ele><time>2026-04-11T06:57:03.46Z</time></trkpt><trkpt lat="43.6788087" lon="12.6347183"><ele>295.0</ele><time>2026-04-11T06:57:04.46Z</time></trkpt><trkpt lat="43.6788124" lon="12.6345055"><ele>295.0</ele><time>2026-04-11T06:57:05.46Z</time></trkpt><trkpt lat="43.6787834" lon="12.6342912"><ele>295.0</ele><time>2026-04-11T06:57:06.46Z</time></trkpt><trkpt lat="43.6787222" lon="12.6340678"><ele>296.3333333333333</ele><time>2026-04-11T06:57:07.46Z</time></trkpt><trkpt lat="43.6786384" lon="12.6338218"><ele>297.6666666666667</ele><time>2026-04-11T06:57:08.46Z</time></trkpt><trkpt lat="43.6785611" lon="12.6336051"><ele>299.0</ele><time>2026-04-11T06:57:09.46Z</time></trkpt><trkpt lat="43.6784995" lon="12.6334079"><ele>299.0</ele><time>2026-04-11T06:57:10.461Z</time></trkpt><trkpt lat="43.6784595" lon="12.6332163"><ele>299.0</ele><time>2026-04-11T06:57:11.46Z</time></trkpt><trkpt lat="43.6784398" lon="12.6330354"><ele>299.0</ele><time>2026-04-11T06:57:12.46Z</time></trkpt><trkpt lat="43.6784503" lon="12.6328685"><ele>299.0</ele><time>2026-04-11T06:57:13.46Z</time></trkpt><trkpt lat="43.6784688" lon="12.6326996"><ele>299.0</ele><time>2026-04-11T06:57:14.46Z</time></trkpt><trkpt lat="43.6785909" lon="12.6325131"><ele>299.0</ele><time>2026-04-11T06:57:15.46Z</time></trkpt><trkpt lat="43.6786644" lon="12.6323528"><ele>299.0</ele><time>2026-04-11T06:57:16.46Z</time></trkpt><trkpt lat="43.6787364" lon="12.6322143"><ele>299.0</ele><time>2026-04-11T06:57:17.461Z</time></trkpt><trkpt lat="43.6788078" lon="12.6320934"><ele>301.5</ele><time>2026-04-11T06:57:18.46Z</time></trkpt><trkpt lat="43.6788917" lon="12.6319812"><ele>304.0</ele><time>2026-04-11T06:57:19.46Z</time></trkpt><trkpt lat="43.6789886" lon="12.6318827"><ele>306.5</ele><time>2026-04-11T06:57:20.461Z</time></trkpt><trkpt lat="43.6790962" lon="12.631802"><ele>309.0</ele><time>2026-04-11T06:57:21.46Z</time></trkpt><trkpt lat="43.6792087" lon="12.6317411"><ele>309.0</ele><time>2026-04-11T06:57:22.46Z</time></trkpt><trkpt lat="43.6793345" lon="12.6316954"><ele>309.0</ele><time>2026-04-11T06:57:23.461Z</time></trkpt><trkpt lat="43.6794507" lon="12.6316489"><ele>309.0</ele><time>2026-04-11T06:57:24.461Z</time></trkpt><trkpt lat="43.6795629" lon="12.6315959"><ele>309.0</ele><time>2026-04-11T06:57:25.46Z</time></trkpt><trkpt lat="43.6796698" lon="12.6315308"><ele>311.79999999999995</ele><time>2026-04-11T06:57:26.46Z</time></trkpt><trkpt lat="43.6797626" lon="12.6314646"><ele>314.59999999999997</ele><time>2026-04-11T06:57:27.46Z</time></trkpt><trkpt lat="43.6798558" lon="12.6313934"><ele>317.4</ele><time>2026-04-11T06:57:28.461Z</time></trkpt><trkpt lat="43.6799585" lon="12.6313339"><ele>320.2</ele><time>2026-04-11T06:57:29.461Z</time></trkpt><trkpt lat="43.6800601" lon="12.6312966"><ele>323.0</ele><time>2026-04-11T06:57:30.46Z</time></trkpt><trkpt lat="43.6801595" lon="12.6312704"><ele>323.0</ele><time>2026-04-11T06:57:31.46Z</time></trkpt><trkpt lat="43.6802575" lon="12.6312494"><ele>323.0</ele><time>2026-04-11T06:57:32.461Z</time></trkpt><trkpt lat="43.6803549" lon="12.6312298"><ele>323.0</ele><time>2026-04-11T06:57:33.46Z</time></trkpt><trkpt lat="43.6804515" lon="12.6311932"><ele>323.0</ele><time>2026-04-11T06:57:34.46Z</time></trkpt><trkpt lat="43.6805393" lon="12.6311381"><ele>323.0</ele><time>2026-04-11T06:57:35.46Z</time></trkpt><trkpt lat="43.6806011" lon="12.6310393"><ele>321.75</ele><time>2026-04-11T06:57:36.461Z</time></trkpt><trkpt lat="43.6806293" lon="12.6309099"><ele>320.5</ele><time>2026-04-11T06:57:37.461Z</time></trkpt><trkpt lat="43.6806185" lon="12.6307596"><ele>319.25</ele><time>2026-04-11T06:57:38.46Z</time></trkpt><trkpt lat="43.6805916" lon="12.6306115"><ele>318.0</ele><time>2026-04-11T06:57:39.46Z</time></trkpt><trkpt lat="43.6805543" lon="12.6304191"><ele>320.0</ele><time>2026-04-11T06:57:40.461Z</time></trkpt><trkpt lat="43.6805217" lon="12.630191"><ele>322.0</ele><time>2026-04-11T06:57:41.46Z</time></trkpt><trkpt lat="43.6804545" lon="12.6299828"><ele>324.0</ele><time>2026-04-11T06:57:42.46Z</time></trkpt><trkpt lat="43.6803546" lon="12.6297946"><ele>324.0</ele><time>2026-04-11T06:57:43.461Z</time></trkpt><trkpt lat="43.6802782" lon="12.6296366"><ele>324.0</ele><time>2026-04-11T06:57:44.46Z</time></trkpt><trkpt lat="43.6802338" lon="12.6294797"><ele>324.0</ele><time>2026-04-11T06:57:45.461Z</time></trkpt><trkpt lat="43.6802408" lon="12.6293161"><ele>324.0</ele><time>2026-04-11T06:57:46.461Z</time></trkpt><trkpt lat="43.680269" lon="12.629158"><ele>326.25</ele><time>2026-04-11T06:57:47.46Z</time></trkpt><trkpt lat="43.6802688" lon="12.629016"><ele>328.5</ele><time>2026-04-11T06:57:48.461Z</time></trkpt><trkpt lat="43.6802301" lon="12.6288704"><ele>330.75</ele><time>2026-04-11T06:57:49.46Z</time></trkpt><trkpt lat="43.680155" lon="12.6287229"><ele>333.0</ele><time>2026-04-11T06:57:50.46Z</time></trkpt><trkpt lat="43.6801009" lon="12.6285711"><ele>334.2</ele><time>2026-04-11T06:57:51.461Z</time></trkpt><trkpt lat="43.6801055" lon="12.6284149"><ele>335.4</ele><time>2026-04-11T06:57:52.46Z</time></trkpt><trkpt lat="43.6801504" lon="12.6282918"><ele>336.59999999999997</ele><time>2026-04-11T06:57:53.46Z</time></trkpt><trkpt lat="43.6802404" lon="12.6282066"><ele>337.79999999999995</ele><time>2026-04-11T06:57:54.461Z</time></trkpt><trkpt lat="43.6803516" lon="12.6281385"><ele>339.0</ele><time>2026-04-11T06:57:55.461Z</time></trkpt><trkpt lat="43.6804427" lon="12.6280629"><ele>339.8333333333333</ele><time>2026-04-11T06:57:56.461Z</time></trkpt><trkpt lat="43.6804989" lon="12.627963"><ele>340.6666666666667</ele><time>2026-04-11T06:57:57.46Z</time></trkpt><trkpt lat="43.6805067" lon="12.627868"><ele>341.5</ele><time>2026-04-11T06:57:58.461Z</time></trkpt><trkpt lat="43.6804631" lon="12.6277901"><ele>342.33333333333337</ele><time>2026-04-11T06:57:59.46Z</time></trkpt><trkpt lat="43.6804061" lon="12.6277326"><ele>343.1666666666667</ele><time>2026-04-11T06:58:00.46Z</time></trkpt><trkpt lat="43.6803121" lon="12.6277338"><ele>344.0</ele><time>2026-04-11T06:58:01.46Z</time></trkpt><trkpt lat="43.6801167" lon="12.62776"><ele>347.0</ele><time>2026-04-11T06:58:02.46Z</time></trkpt><trkpt lat="43.6799389" lon="12.6277195"><ele>350.0</ele><time>2026-04-11T06:58:03.461Z</time></trkpt><trkpt lat="43.6797246" lon="12.6276552"><ele>353.0</ele><time>2026-04-11T06:58:04.46Z</time></trkpt><trkpt lat="43.6795297" lon="12.6275851"><ele>353.59999999999997</ele><time>2026-04-11T06:58:05.46Z</time></trkpt><trkpt lat="43.6793789" lon="12.627524"><ele>354.2</ele><time>2026-04-11T06:58:06.46Z</time></trkpt><trkpt lat="43.6792727" lon="12.6274542"><ele>354.8</ele><time>2026-04-11T06:58:07.461Z</time></trkpt><trkpt lat="43.6792089" lon="12.6273631"><ele>355.4</ele><time>2026-04-11T06:58:08.46Z</time></trkpt><trkpt lat="43.6791978" lon="12.6272503"><ele>356.0</ele><time>2026-04-11T06:58:09.46Z</time></trkpt><trkpt lat="43.6792362" lon="12.6271349"><ele>356.0</ele><time>2026-04-11T06:58:10.46Z</time></trkpt><trkpt lat="43.6793199" lon="12.6270595"><ele>356.0</ele><time>2026-04-11T06:58:11.46Z</time></trkpt><trkpt lat="43.679443" lon="12.6270217"><ele>356.0</ele><time>2026-04-11T06:58:12.461Z</time></trkpt><trkpt lat="43.6795999" lon="12.6270169"><ele>356.0</ele><time>2026-04-11T06:58:13.461Z</time></trkpt><trkpt lat="43.6797655" lon="12.6270266"><ele>355.4</ele><time>2026-04-11T06:58:14.46Z</time></trkpt><trkpt lat="43.6798961" lon="12.6270376"><ele>354.8</ele><time>2026-04-11T06:58:15.461Z</time></trkpt><trkpt lat="43.6800085" lon="12.6270363"><ele>354.2</ele><time>2026-04-11T06:58:16.46Z</time></trkpt><trkpt lat="43.6800965" lon="12.6269942"><ele>353.59999999999997</ele><time>2026-04-11T06:58:17.46Z</time></trkpt><trkpt lat="43.6801527" lon="12.6269136"><ele>353.0</ele><time>2026-04-11T06:58:18.46Z</time></trkpt><trkpt lat="43.6801642" lon="12.6268256"><ele>357.4</ele><time>2026-04-11T06:58:19.46Z</time></trkpt><trkpt lat="43.6801763" lon="12.6267397"><ele>361.79999999999995</ele><time>2026-04-11T06:58:20.46Z</time></trkpt><trkpt lat="43.6800777" lon="12.626666"><ele>366.2</ele><time>2026-04-11T06:58:21.46Z</time></trkpt><trkpt lat="43.6799549" lon="12.626637"><ele>370.6</ele><time>2026-04-11T06:58:22.461Z</time></trkpt><trkpt lat="43.6798138" lon="12.6265953"><ele>375.0</ele><time>2026-04-11T06:58:23.46Z</time></trkpt><trkpt lat="43.6796421" lon="12.6265623"><ele>375.0</ele><time>2026-04-11T06:58:24.46Z</time></trkpt><trkpt lat="43.6794627" lon="12.6265305"><ele>375.0</ele><time>2026-04-11T06:58:25.461Z</time></trkpt><trkpt lat="43.6792388" lon="12.6264947"><ele>375.0</ele><time>2026-04-11T06:58:26.46Z</time></trkpt><trkpt lat="43.6790341" lon="12.6264751"><ele>375.6666666666667</ele><time>2026-04-11T06:58:27.461Z</time></trkpt><trkpt lat="43.6788411" lon="12.6264866"><ele>376.33333333333337</ele><time>2026-04-11T06:58:28.461Z</time></trkpt><trkpt lat="43.6786638" lon="12.6265357"><ele>377.0</ele><time>2026-04-11T06:58:29.461Z</time></trkpt><trkpt lat="43.6785017" lon="12.626581"><ele>378.40000000000003</ele><time>2026-04-11T06:58:30.46Z</time></trkpt><trkpt lat="43.6783536" lon="12.6266367"><ele>379.8</ele><time>2026-04-11T06:58:31.46Z</time></trkpt><trkpt lat="43.6782559" lon="12.6266731"><ele>381.2</ele><time>2026-04-11T06:58:32.46Z</time></trkpt><trkpt lat="43.6781748" lon="12.6266275"><ele>382.6</ele><time>2026-04-11T06:58:33.46Z</time></trkpt><trkpt lat="43.6781544" lon="12.6265344"><ele>384.0</ele><time>2026-04-11T06:58:34.46Z</time></trkpt><trkpt lat="43.6781619" lon="12.6263619"><ele>384.0</ele><time>2026-04-11T06:58:36.46Z</time></trkpt><trkpt lat="43.6782003" lon="12.6262616"><ele>384.0</ele><time>2026-04-11T06:58:37.461Z</time></trkpt><trkpt lat="43.6782417" lon="12.6261843"><ele>384.0</ele><time>2026-04-11T06:58:38.46Z</time></trkpt><trkpt lat="43.6783347" lon="12.6261589"><ele>384.0</ele><time>2026-04-11T06:58:40.461Z</time></trkpt><trkpt lat="43.6784119" lon="12.6262822"><ele>384.0</ele><time>2026-04-11T06:58:42.46Z</time></trkpt><trkpt lat="43.6784703" lon="12.6263152"><ele>384.0</ele><time>2026-04-11T06:58:43.46Z</time></trkpt><trkpt lat="43.678535" lon="12.6263051"><ele>382.25</ele><time>2026-04-11T06:58:44.46Z</time></trkpt><trkpt lat="43.6786147" lon="12.6262532"><ele>380.5</ele><time>2026-04-11T06:58:45.461Z</time></trkpt><trkpt lat="43.6787069" lon="12.6262053"><ele>378.75</ele><time>2026-04-11T06:58:46.46Z</time></trkpt><trkpt lat="43.6788604" lon="12.6261084"><ele>377.0</ele><time>2026-04-11T06:58:47.461Z</time></trkpt><trkpt lat="43.6790089" lon="12.6260379"><ele>385.33333333333337</ele><time>2026-04-11T06:58:48.461Z</time></trkpt><trkpt lat="43.6791796" lon="12.6259493"><ele>393.6666666666667</ele><time>2026-04-11T06:58:49.461Z</time></trkpt><trkpt lat="43.6793722" lon="12.6258894"><ele>402.0</ele><time>2026-04-11T06:58:50.46Z</time></trkpt><trkpt lat="43.6795463" lon="12.6258213"><ele>402.0</ele><time>2026-04-11T06:58:51.46Z</time></trkpt><trkpt lat="43.679707" lon="12.6257365"><ele>402.0</ele><time>2026-04-11T06:58:52.46Z</time></trkpt><trkpt lat="43.6798645" lon="12.6256112"><ele>402.0</ele><time>2026-04-11T06:58:53.46Z</time></trkpt><trkpt lat="43.6800184" lon="12.6254973"><ele>402.0</ele><time>2026-04-11T06:58:54.46Z</time></trkpt><trkpt lat="43.6801736" lon="12.6253851"><ele>402.0</ele><time>2026-04-11T06:58:55.46Z</time></trkpt><trkpt lat="43.680313" lon="12.6253183"><ele>402.0</ele><time>2026-04-11T06:58:56.462Z</time></trkpt><trkpt lat="43.68042" lon="12.6252707"><ele>402.0</ele><time>2026-04-11T06:58:57.46Z</time></trkpt><trkpt lat="43.6805095" lon="12.6252456"><ele>406.6</ele><time>2026-04-11T06:58:58.46Z</time></trkpt><trkpt lat="43.680586" lon="12.625205"><ele>411.20000000000005</ele><time>2026-04-11T06:58:59.461Z</time></trkpt><trkpt lat="43.6805184" lon="12.6251249"><ele>415.8</ele><time>2026-04-11T06:59:00.46Z</time></trkpt><trkpt lat="43.6804163" lon="12.6250776"><ele>420.4</ele><time>2026-04-11T06:59:02.46Z</time></trkpt><trkpt lat="43.6803395" lon="12.6250864"><ele>425.0</ele><time>2026-04-11T06:59:03.461Z</time></trkpt><trkpt lat="43.6802169" lon="12.6251149"><ele>425.3333333333333</ele><time>2026-04-11T06:59:04.46Z</time></trkpt><trkpt lat="43.6800713" lon="12.6251493"><ele>425.66666666666663</ele><time>2026-04-11T06:59:05.461Z</time></trkpt><trkpt lat="43.679909" lon="12.6251914"><ele>426.0</ele><time>2026-04-11T06:59:06.46Z</time></trkpt><trkpt lat="43.6797637" lon="12.6252339"><ele>426.0</ele><time>2026-04-11T06:59:07.461Z</time></trkpt><trkpt lat="43.6796263" lon="12.6252708"><ele>426.0</ele><time>2026-04-11T06:59:08.46Z</time></trkpt><trkpt lat="43.6795243" lon="12.6252897"><ele>426.0</ele><time>2026-04-11T06:59:09.46Z</time></trkpt><trkpt lat="43.6794532" lon="12.6252642"><ele>426.0</ele><time>2026-04-11T06:59:10.46Z</time></trkpt><trkpt lat="43.6794402" lon="12.6251497"><ele>426.0</ele><time>2026-04-11T06:59:11.46Z</time></trkpt><trkpt lat="43.6794746" lon="12.6249618"><ele>426.0</ele><time>2026-04-11T06:59:13.46Z</time></trkpt><trkpt lat="43.6795546" lon="12.6248542"><ele>426.0</ele><time>2026-04-11T06:59:14.461Z</time></trkpt><trkpt lat="43.6796537" lon="12.6247399"><ele>426.0</ele><time>2026-04-11T06:59:15.461Z</time></trkpt><trkpt lat="43.6797652" lon="12.6246112"><ele>426.0</ele><time>2026-04-11T06:59:16.46Z</time></trkpt><trkpt lat="43.6798841" lon="12.6244455"><ele>428.0</ele><time>2026-04-11T06:59:17.46Z</time></trkpt><trkpt lat="43.6800036" lon="12.6242513"><ele>430.0</ele><time>2026-04-11T06:59:18.461Z</time></trkpt><trkpt lat="43.6801166" lon="12.6240344"><ele>432.0</ele><time>2026-04-11T06:59:19.461Z</time></trkpt><trkpt lat="43.6802238" lon="12.6237958"><ele>443.33333333333337</ele><time>2026-04-11T06:59:20.462Z</time></trkpt><trkpt lat="43.6803045" lon="12.6235657"><ele>454.6666666666667</ele><time>2026-04-11T06:59:21.461Z</time></trkpt><trkpt lat="43.6803646" lon="12.6233345"><ele>466.0</ele><time>2026-04-11T06:59:22.461Z</time></trkpt><trkpt lat="43.6804142" lon="12.6230836"><ele>466.0</ele><time>2026-04-11T06:59:23.46Z</time></trkpt><trkpt lat="43.6804727" lon="12.6228337"><ele>466.0</ele><time>2026-04-11T06:59:24.46Z</time></trkpt><trkpt lat="43.6805468" lon="12.6225766"><ele>466.0</ele><time>2026-04-11T06:59:25.46Z</time></trkpt><trkpt lat="43.6806236" lon="12.6223543"><ele>464.0</ele><time>2026-04-11T06:59:26.46Z</time></trkpt><trkpt lat="43.6806849" lon="12.6221564"><ele>462.0</ele><time>2026-04-11T06:59:27.461Z</time></trkpt><trkpt lat="43.6807158" lon="12.6219526"><ele>460.0</ele><time>2026-04-11T06:59:28.461Z</time></trkpt><trkpt lat="43.6807131" lon="12.6217367"><ele>459.0</ele><time>2026-04-11T06:59:29.46Z</time></trkpt><trkpt lat="43.6807" lon="12.6215455"><ele>458.0</ele><time>2026-04-11T06:59:30.461Z</time></trkpt><trkpt lat="43.6806969" lon="12.6213745"><ele>457.0</ele><time>2026-04-11T06:59:31.461Z</time></trkpt><trkpt lat="43.6807195" lon="12.6212368"><ele>456.0</ele><time>2026-04-11T06:59:32.461Z</time></trkpt><trkpt lat="43.6807728" lon="12.6211281"><ele>455.4</ele><time>2026-04-11T06:59:33.46Z</time></trkpt><trkpt lat="43.6808395" lon="12.6210517"><ele>454.8</ele><time>2026-04-11T06:59:34.46Z</time></trkpt><trkpt lat="43.6809294" lon="12.6209965"><ele>454.19999999999993</ele><time>2026-04-11T06:59:35.461Z</time></trkpt><trkpt lat="43.681038" lon="12.6209565"><ele>453.59999999999997</ele><time>2026-04-11T06:59:36.46Z</time></trkpt><trkpt lat="43.6811668" lon="12.6209087"><ele>453.0</ele><time>2026-04-11T06:59:37.46Z</time></trkpt><trkpt lat="43.6813099" lon="12.6208517"><ele>458.33333333333337</ele><time>2026-04-11T06:59:38.46Z</time></trkpt><trkpt lat="43.6814626" lon="12.6207877"><ele>463.6666666666667</ele><time>2026-04-11T06:59:39.461Z</time></trkpt><trkpt lat="43.6816323" lon="12.6207037"><ele>469.0</ele><time>2026-04-11T06:59:40.46Z</time></trkpt><trkpt lat="43.6817979" lon="12.620615"><ele>471.25</ele><time>2026-04-11T06:59:41.46Z</time></trkpt><trkpt lat="43.6819416" lon="12.6205577"><ele>473.5</ele><time>2026-04-11T06:59:42.46Z</time></trkpt><trkpt lat="43.6820803" lon="12.6205242"><ele>475.75</ele><time>2026-04-11T06:59:43.461Z</time></trkpt><trkpt lat="43.6822223" lon="12.6205034"><ele>478.0</ele><time>2026-04-11T06:59:44.46Z</time></trkpt><trkpt lat="43.6823572" lon="12.6205442"><ele>478.0</ele><time>2026-04-11T06:59:45.461Z</time></trkpt><trkpt lat="43.682472" lon="12.6205736"><ele>477.99999999999994</ele><time>2026-04-11T06:59:46.46Z</time></trkpt><trkpt lat="43.682563" lon="12.6206195"><ele>477.99999999999994</ele><time>2026-04-11T06:59:47.461Z</time></trkpt><trkpt lat="43.6826269" lon="12.6207055"><ele>478.0</ele><time>2026-04-11T06:59:48.46Z</time></trkpt><trkpt lat="43.682655" lon="12.6208442"><ele>478.0</ele><time>2026-04-11T06:59:49.46Z</time></trkpt><trkpt lat="43.6827033" lon="12.621005"><ele>478.75</ele><time>2026-04-11T06:59:50.461Z</time></trkpt><trkpt lat="43.6827601" lon="12.6211912"><ele>479.5</ele><time>2026-04-11T06:59:51.46Z</time></trkpt><trkpt lat="43.6828187" lon="12.6213646"><ele>480.25</ele><time>2026-04-11T06:59:52.461Z</time></trkpt><trkpt lat="43.6828754" lon="12.6215177"><ele>481.0</ele><time>2026-04-11T06:59:53.461Z</time></trkpt><trkpt lat="43.6829376" lon="12.6216535"><ele>481.00000000000006</ele><time>2026-04-11T06:59:54.46Z</time></trkpt><trkpt lat="43.6830104" lon="12.6217554"><ele>481.0</ele><time>2026-04-11T06:59:55.461Z</time></trkpt><trkpt lat="43.6830737" lon="12.6218023"><ele>481.0</ele><time>2026-04-11T06:59:56.46Z</time></trkpt><trkpt lat="43.6831364" lon="12.6218146"><ele>481.0</ele><time>2026-04-11T06:59:57.461Z</time></trkpt><trkpt lat="43.6832014" lon="12.6217978"><ele>481.00000000000006</ele><time>2026-04-11T06:59:58.461Z</time></trkpt><trkpt lat="43.6832835" lon="12.6217645"><ele>481.0</ele><time>2026-04-11T06:59:59.46Z</time></trkpt><trkpt lat="43.6833868" lon="12.6217221"><ele>481.0</ele><time>2026-04-11T07:00:00.46Z</time></trkpt><trkpt lat="43.6835116" lon="12.6216636"><ele>481.0</ele><time>2026-04-11T07:00:01.46Z</time></trkpt><trkpt lat="43.6836526" lon="12.6215771"><ele>481.0</ele><time>2026-04-11T07:00:02.46Z</time></trkpt><trkpt lat="43.6838108" lon="12.6214753"><ele>485.0</ele><time>2026-04-11T07:00:03.459Z</time></trkpt><trkpt lat="43.6839752" lon="12.621369"><ele>489.0</ele><time>2026-04-11T07:00:04.459Z</time></trkpt><trkpt lat="43.6841284" lon="12.6212663"><ele>493.0</ele><time>2026-04-11T07:00:05.459Z</time></trkpt><trkpt lat="43.6842783" lon="12.6211655"><ele>491.6666666666667</ele><time>2026-04-11T07:00:06.459Z</time></trkpt><trkpt lat="43.6844242" lon="12.6210718"><ele>490.33333333333337</ele><time>2026-04-11T07:00:07.459Z</time></trkpt><trkpt lat="43.6845722" lon="12.6209854"><ele>489.0</ele><time>2026-04-11T07:00:08.459Z</time></trkpt><trkpt lat="43.6847114" lon="12.6209154"><ele>489.0</ele><time>2026-04-11T07:00:09.459Z</time></trkpt><trkpt lat="43.6848484" lon="12.6208559"><ele>489.0</ele><time>2026-04-11T07:00:10.459Z</time></trkpt><trkpt lat="43.6849963" lon="12.6208119"><ele>489.0</ele><time>2026-04-11T07:00:11.459Z</time></trkpt><trkpt lat="43.685152" lon="12.6207951"><ele>486.75</ele><time>2026-04-11T07:00:12.459Z</time></trkpt><trkpt lat="43.6853004" lon="12.6208057"><ele>484.5</ele><time>2026-04-11T07:00:13.459Z</time></trkpt><trkpt lat="43.685438" lon="12.6208152"><ele>482.25</ele><time>2026-04-11T07:00:14.459Z</time></trkpt><trkpt lat="43.6855628" lon="12.620808"><ele>480.0</ele><time>2026-04-11T07:00:15.46Z</time></trkpt><trkpt lat="43.6856836" lon="12.6207566"><ele>480.0</ele><time>2026-04-11T07:00:16.459Z</time></trkpt><trkpt lat="43.6858088" lon="12.6206626"><ele>480.0</ele><time>2026-04-11T07:00:17.46Z</time></trkpt><trkpt lat="43.685938" lon="12.6205347"><ele>480.0</ele><time>2026-04-11T07:00:18.46Z</time></trkpt><trkpt lat="43.6860561" lon="12.6204038"><ele>483.0</ele><time>2026-04-11T07:00:19.459Z</time></trkpt><trkpt lat="43.6861621" lon="12.6202826"><ele>486.0</ele><time>2026-04-11T07:00:20.459Z</time></trkpt><trkpt lat="43.6862666" lon="12.62017"><ele>489.0</ele><time>2026-04-11T07:00:21.459Z</time></trkpt><trkpt lat="43.6863688" lon="12.6200564"><ele>492.0</ele><time>2026-04-11T07:00:22.46Z</time></trkpt><trkpt lat="43.686461" lon="12.6199403"><ele>492.0</ele><time>2026-04-11T07:00:23.459Z</time></trkpt><trkpt lat="43.6865475" lon="12.6197942"><ele>492.0</ele><time>2026-04-11T07:00:24.46Z</time></trkpt><trkpt lat="43.6866263" lon="12.6196075"><ele>492.0</ele><time>2026-04-11T07:00:25.46Z</time></trkpt><trkpt lat="43.6867066" lon="12.6193856"><ele>492.33333333333337</ele><time>2026-04-11T07:00:26.459Z</time></trkpt><trkpt lat="43.6868014" lon="12.6191492"><ele>492.6666666666667</ele><time>2026-04-11T07:00:27.459Z</time></trkpt><trkpt lat="43.6869215" lon="12.6189171"><ele>493.0</ele><time>2026-04-11T07:00:28.459Z</time></trkpt><trkpt lat="43.6870259" lon="12.6187131"><ele>499.0</ele><time>2026-04-11T07:00:29.46Z</time></trkpt><trkpt lat="43.6871366" lon="12.6185246"><ele>505.0</ele><time>2026-04-11T07:00:30.459Z</time></trkpt><trkpt lat="43.6872294" lon="12.6183343"><ele>511.0</ele><time>2026-04-11T07:00:31.459Z</time></trkpt><trkpt lat="43.6873061" lon="12.6181503"><ele>511.0</ele><time>2026-04-11T07:00:32.46Z</time></trkpt><trkpt lat="43.6873675" lon="12.6179658"><ele>511.0</ele><time>2026-04-11T07:00:33.459Z</time></trkpt><trkpt lat="43.6874267" lon="12.6178061"><ele>511.0</ele><time>2026-04-11T07:00:34.46Z</time></trkpt><trkpt lat="43.6875089" lon="12.6176712"><ele>511.0</ele><time>2026-04-11T07:00:35.459Z</time></trkpt><trkpt lat="43.6876184" lon="12.6175755"><ele>511.6</ele><time>2026-04-11T07:00:36.459Z</time></trkpt><trkpt lat="43.6877197" lon="12.6175069"><ele>512.2</ele><time>2026-04-11T07:00:37.459Z</time></trkpt><trkpt lat="43.6877948" lon="12.6174232"><ele>512.8</ele><time>2026-04-11T07:00:38.459Z</time></trkpt><trkpt lat="43.6878316" lon="12.6173108"><ele>513.4</ele><time>2026-04-11T07:00:39.459Z</time></trkpt><trkpt lat="43.6878238" lon="12.6171767"><ele>514.0</ele><time>2026-04-11T07:00:40.46Z</time></trkpt><trkpt lat="43.6878082" lon="12.6170282"><ele>514.5</ele><time>2026-04-11T07:00:41.459Z</time></trkpt><trkpt lat="43.687776" lon="12.6168689"><ele>515.0</ele><time>2026-04-11T07:00:42.46Z</time></trkpt><trkpt lat="43.6877794" lon="12.6167107"><ele>515.5</ele><time>2026-04-11T07:00:43.459Z</time></trkpt><trkpt lat="43.6878093" lon="12.6165373"><ele>516.0</ele><time>2026-04-11T07:00:44.459Z</time></trkpt><trkpt lat="43.6878636" lon="12.6163396"><ele>514.25</ele><time>2026-04-11T07:00:45.459Z</time></trkpt><trkpt lat="43.6879188" lon="12.6161277"><ele>512.5</ele><time>2026-04-11T07:00:46.459Z</time></trkpt><trkpt lat="43.687954" lon="12.6159402"><ele>510.75</ele><time>2026-04-11T07:00:47.46Z</time></trkpt><trkpt lat="43.688" lon="12.6157904"><ele>509.0</ele><time>2026-04-11T07:00:48.459Z</time></trkpt><trkpt lat="43.6880675" lon="12.615687"><ele>509.0</ele><time>2026-04-11T07:00:49.459Z</time></trkpt><trkpt lat="43.6881673" lon="12.6155922"><ele>509.0</ele><time>2026-04-11T07:00:50.46Z</time></trkpt><trkpt lat="43.6882961" lon="12.615494"><ele>509.0</ele><time>2026-04-11T07:00:51.459Z</time></trkpt><trkpt lat="43.6884325" lon="12.6153892"><ele>509.0</ele><time>2026-04-11T07:00:52.459Z</time></trkpt><trkpt lat="43.6886169" lon="12.6152383"><ele>504.3333333333333</ele><time>2026-04-11T07:00:53.459Z</time></trkpt><trkpt lat="43.6887897" lon="12.6151262"><ele>499.66666666666663</ele><time>2026-04-11T07:00:54.459Z</time></trkpt><trkpt lat="43.6889507" lon="12.6150146"><ele>495.0</ele><time>2026-04-11T07:00:55.461Z</time></trkpt><trkpt lat="43.6890909" lon="12.6149197"><ele>495.0</ele><time>2026-04-11T07:00:56.459Z</time></trkpt><trkpt lat="43.6892258" lon="12.6148484"><ele>495.0</ele><time>2026-04-11T07:00:57.459Z</time></trkpt><trkpt lat="43.6893654" lon="12.6148052"><ele>495.0</ele><time>2026-04-11T07:00:58.459Z</time></trkpt><trkpt lat="43.6895094" lon="12.6147733"><ele>495.0</ele><time>2026-04-11T07:00:59.46Z</time></trkpt><trkpt lat="43.6896756" lon="12.6147508"><ele>495.0</ele><time>2026-04-11T07:01:00.459Z</time></trkpt><trkpt lat="43.6898384" lon="12.6146978"><ele>495.0</ele><time>2026-04-11T07:01:01.46Z</time></trkpt><trkpt lat="43.6900028" lon="12.6146266"><ele>495.0</ele><time>2026-04-11T07:01:02.459Z</time></trkpt><trkpt lat="43.6901244" lon="12.6145142"><ele>494.8</ele><time>2026-04-11T07:01:03.46Z</time></trkpt><trkpt lat="43.6902441" lon="12.6144362"><ele>494.6</ele><time>2026-04-11T07:01:04.459Z</time></trkpt><trkpt lat="43.6903523" lon="12.6143893"><ele>494.4</ele><time>2026-04-11T07:01:05.459Z</time></trkpt><trkpt lat="43.6904452" lon="12.614389"><ele>494.2</ele><time>2026-04-11T07:01:06.46Z</time></trkpt><trkpt lat="43.6905219" lon="12.6144414"><ele>494.0</ele><time>2026-04-11T07:01:07.459Z</time></trkpt><trkpt lat="43.6905881" lon="12.6145329"><ele>493.99999999999994</ele><time>2026-04-11T07:01:08.459Z</time></trkpt><trkpt lat="43.6906601" lon="12.6146017"><ele>494.0</ele><time>2026-04-11T07:01:09.459Z</time></trkpt><trkpt lat="43.6907386" lon="12.6146219"><ele>494.0</ele><time>2026-04-11T07:01:10.459Z</time></trkpt><trkpt lat="43.6908004" lon="12.6145822"><ele>494.0</ele><time>2026-04-11T07:01:11.46Z</time></trkpt><trkpt lat="43.6908626" lon="12.6144989"><ele>493.99999999999994</ele><time>2026-04-11T07:01:12.46Z</time></trkpt><trkpt lat="43.6909329" lon="12.6143831"><ele>494.0</ele><time>2026-04-11T07:01:13.459Z</time></trkpt><trkpt lat="43.6910166" lon="12.6142627"><ele>491.5</ele><time>2026-04-11T07:01:14.46Z</time></trkpt><trkpt lat="43.691103" lon="12.614167"><ele>489.0</ele><time>2026-04-11T07:01:15.459Z</time></trkpt><trkpt lat="43.6912035" lon="12.6140924"><ele>486.5</ele><time>2026-04-11T07:01:16.46Z</time></trkpt><trkpt lat="43.6913209" lon="12.6140237"><ele>484.0</ele><time>2026-04-11T07:01:17.459Z</time></trkpt><trkpt lat="43.691457" lon="12.6139481"><ele>484.0</ele><time>2026-04-11T07:01:18.459Z</time></trkpt><trkpt lat="43.6916136" lon="12.6138669"><ele>484.0</ele><time>2026-04-11T07:01:19.459Z</time></trkpt><trkpt lat="43.6917924" lon="12.613778"><ele>484.0</ele><time>2026-04-11T07:01:20.46Z</time></trkpt><trkpt lat="43.6919668" lon="12.6137071"><ele>483.25</ele><time>2026-04-11T07:01:21.46Z</time></trkpt><trkpt lat="43.6921273" lon="12.6136454"><ele>482.5</ele><time>2026-04-11T07:01:22.46Z</time></trkpt><trkpt lat="43.692267" lon="12.613587"><ele>481.75</ele><time>2026-04-11T07:01:23.459Z</time></trkpt><trkpt lat="43.6923653" lon="12.6135243"><ele>481.0</ele><time>2026-04-11T07:01:24.46Z</time></trkpt><trkpt lat="43.6924307" lon="12.6134446"><ele>481.00000000000006</ele><time>2026-04-11T07:01:25.459Z</time></trkpt><trkpt lat="43.6924533" lon="12.6133582"><ele>481.0</ele><time>2026-04-11T07:01:26.46Z</time></trkpt><trkpt lat="43.6924366" lon="12.613251"><ele>481.0</ele><time>2026-04-11T07:01:27.46Z</time></trkpt><trkpt lat="43.6923876" lon="12.6131306"><ele>481.0</ele><time>2026-04-11T07:01:28.46Z</time></trkpt><trkpt lat="43.6923626" lon="12.6130184"><ele>481.00000000000006</ele><time>2026-04-11T07:01:29.459Z</time></trkpt><trkpt lat="43.6923625" lon="12.6129021"><ele>481.0</ele><time>2026-04-11T07:01:30.46Z</time></trkpt><trkpt lat="43.6923913" lon="12.6128146"><ele>481.0</ele><time>2026-04-11T07:01:31.459Z</time></trkpt><trkpt lat="43.692511" lon="12.6127916"><ele>481.0</ele><time>2026-04-11T07:01:33.459Z</time></trkpt><trkpt lat="43.6925901" lon="12.6128287"><ele>481.0</ele><time>2026-04-11T07:01:34.461Z</time></trkpt><trkpt lat="43.6926704" lon="12.6128351"><ele>481.0</ele><time>2026-04-11T07:01:35.459Z</time></trkpt><trkpt lat="43.6927635" lon="12.6127975"><ele>481.0</ele><time>2026-04-11T07:01:36.459Z</time></trkpt><trkpt lat="43.6928809" lon="12.6127244"><ele>485.20000000000005</ele><time>2026-04-11T07:01:37.461Z</time></trkpt><trkpt lat="43.6929936" lon="12.6126468"><ele>489.40000000000003</ele><time>2026-04-11T07:01:38.459Z</time></trkpt><trkpt lat="43.6930797" lon="12.6125764"><ele>493.6</ele><time>2026-04-11T07:01:39.46Z</time></trkpt><trkpt lat="43.6931417" lon="12.6124826"><ele>497.8</ele><time>2026-04-11T07:01:40.46Z</time></trkpt><trkpt lat="43.6931693" lon="12.6123681"><ele>502.0</ele><time>2026-04-11T07:01:41.459Z</time></trkpt><trkpt lat="43.6931694" lon="12.612225"><ele>502.0</ele><time>2026-04-11T07:01:42.46Z</time></trkpt><trkpt lat="43.6931937" lon="12.6120813"><ele>502.0</ele><time>2026-04-11T07:01:43.459Z</time></trkpt><trkpt lat="43.6932521" lon="12.6119097"><ele>502.0</ele><time>2026-04-11T07:01:44.459Z</time></trkpt><trkpt lat="43.6933132" lon="12.6117013"><ele>502.0</ele><time>2026-04-11T07:01:45.46Z</time></trkpt><trkpt lat="43.6933743" lon="12.6114638"><ele>506.33333333333337</ele><time>2026-04-11T07:01:46.46Z</time></trkpt><trkpt lat="43.6934263" lon="12.6111951"><ele>510.66666666666663</ele><time>2026-04-11T07:01:47.46Z</time></trkpt><trkpt lat="43.6934756" lon="12.6109"><ele>515.0</ele><time>2026-04-11T07:01:48.459Z</time></trkpt><trkpt lat="43.6935175" lon="12.6105832"><ele>516.3333333333333</ele><time>2026-04-11T07:01:49.459Z</time></trkpt><trkpt lat="43.693546" lon="12.6102805"><ele>517.6666666666666</ele><time>2026-04-11T07:01:50.46Z</time></trkpt><trkpt lat="43.6935638" lon="12.6100135"><ele>519.0</ele><time>2026-04-11T07:01:51.46Z</time></trkpt><trkpt lat="43.6935701" lon="12.6098017"><ele>519.0</ele><time>2026-04-11T07:01:52.46Z</time></trkpt><trkpt lat="43.6935707" lon="12.6096126"><ele>519.0</ele><time>2026-04-11T07:01:53.459Z</time></trkpt><trkpt lat="43.693556" lon="12.60942"><ele>519.0</ele><time>2026-04-11T07:01:54.459Z</time></trkpt><trkpt lat="43.6935251" lon="12.6092151"><ele>519.0</ele><time>2026-04-11T07:01:55.46Z</time></trkpt><trkpt lat="43.6934902" lon="12.6089939"><ele>520.6666666666666</ele><time>2026-04-11T07:01:56.459Z</time></trkpt><trkpt lat="43.6934542" lon="12.6087611"><ele>522.3333333333333</ele><time>2026-04-11T07:01:57.459Z</time></trkpt><trkpt lat="43.6934167" lon="12.6085365"><ele>524.0</ele><time>2026-04-11T07:01:58.459Z</time></trkpt><trkpt lat="43.6933795" lon="12.6083304"><ele>527.25</ele><time>2026-04-11T07:01:59.459Z</time></trkpt><trkpt lat="43.6933341" lon="12.6081397"><ele>530.5</ele><time>2026-04-11T07:02:00.459Z</time></trkpt><trkpt lat="43.6932816" lon="12.6079727"><ele>533.75</ele><time>2026-04-11T07:02:01.459Z</time></trkpt><trkpt lat="43.6932217" lon="12.607822"><ele>537.0</ele><time>2026-04-11T07:02:02.459Z</time></trkpt><trkpt lat="43.6931645" lon="12.6077059"><ele>538.3333333333334</ele><time>2026-04-11T07:02:03.459Z</time></trkpt><trkpt lat="43.6931085" lon="12.6076036"><ele>539.6666666666666</ele><time>2026-04-11T07:02:04.461Z</time></trkpt><trkpt lat="43.6930561" lon="12.6075055"><ele>541.0</ele><time>2026-04-11T07:02:05.459Z</time></trkpt><trkpt lat="43.6930211" lon="12.6074"><ele>542.3333333333333</ele><time>2026-04-11T07:02:06.46Z</time></trkpt><trkpt lat="43.6930223" lon="12.6072869"><ele>543.6666666666666</ele><time>2026-04-11T07:02:07.46Z</time></trkpt><trkpt lat="43.6930606" lon="12.6071828"><ele>545.0</ele><time>2026-04-11T07:02:08.459Z</time></trkpt><trkpt lat="43.6931164" lon="12.6070669"><ele>541.25</ele><time>2026-04-11T07:02:09.459Z</time></trkpt><trkpt lat="43.6932243" lon="12.6069727"><ele>537.5</ele><time>2026-04-11T07:02:10.459Z</time></trkpt><trkpt lat="43.6933361" lon="12.6068538"><ele>533.75</ele><time>2026-04-11T07:02:11.459Z</time></trkpt><trkpt lat="43.6934651" lon="12.6067417"><ele>530.0</ele><time>2026-04-11T07:02:12.459Z</time></trkpt><trkpt lat="43.6935843" lon="12.6066008"><ele>530.0</ele><time>2026-04-11T07:02:13.46Z</time></trkpt><trkpt lat="43.6936967" lon="12.6064247"><ele>530.0</ele><time>2026-04-11T07:02:14.46Z</time></trkpt><trkpt lat="43.6937675" lon="12.6062262"><ele>530.0</ele><time>2026-04-11T07:02:15.46Z</time></trkpt><trkpt lat="43.6938431" lon="12.6060515"><ele>530.0</ele><time>2026-04-11T07:02:16.459Z</time></trkpt><trkpt lat="43.6939188" lon="12.6058818"><ele>530.0</ele><time>2026-04-11T07:02:17.459Z</time></trkpt><trkpt lat="43.6939947" lon="12.6057145"><ele>530.0</ele><time>2026-04-11T07:02:18.459Z</time></trkpt><trkpt lat="43.6940629" lon="12.6055632"><ele>530.0</ele><time>2026-04-11T07:02:19.461Z</time></trkpt><trkpt lat="43.6941282" lon="12.6054285"><ele>530.8</ele><time>2026-04-11T07:02:20.459Z</time></trkpt><trkpt lat="43.6941931" lon="12.6053172"><ele>531.6</ele><time>2026-04-11T07:02:21.459Z</time></trkpt><trkpt lat="43.6942717" lon="12.6052459"><ele>532.4</ele><time>2026-04-11T07:02:22.459Z</time></trkpt><trkpt lat="43.6943514" lon="12.6052316"><ele>533.2</ele><time>2026-04-11T07:02:23.459Z</time></trkpt><trkpt lat="43.6944313" lon="12.6052291"><ele>534.0</ele><time>2026-04-11T07:02:24.46Z</time></trkpt><trkpt lat="43.6945008" lon="12.6053674"><ele>534.0</ele><time>2026-04-11T07:02:25.46Z</time></trkpt><trkpt lat="43.6945994" lon="12.6054468"><ele>534.0</ele><time>2026-04-11T07:02:26.459Z</time></trkpt><trkpt lat="43.6947223" lon="12.605484"><ele>534.0</ele><time>2026-04-11T07:02:27.459Z</time></trkpt><trkpt lat="43.6948583" lon="12.6054722"><ele>534.0</ele><time>2026-04-11T07:02:28.46Z</time></trkpt><trkpt lat="43.6950182" lon="12.6053971"><ele>528.25</ele><time>2026-04-11T07:02:29.459Z</time></trkpt><trkpt lat="43.6951565" lon="12.6052996"><ele>522.5</ele><time>2026-04-11T07:02:30.46Z</time></trkpt><trkpt lat="43.6952896" lon="12.6052155"><ele>516.75</ele><time>2026-04-11T07:02:31.459Z</time></trkpt><trkpt lat="43.6954247" lon="12.6051599"><ele>511.0</ele><time>2026-04-11T07:02:32.459Z</time></trkpt><trkpt lat="43.6955683" lon="12.6051456"><ele>510.5</ele><time>2026-04-11T07:02:33.459Z</time></trkpt><trkpt lat="43.6957289" lon="12.6051662"><ele>510.0</ele><time>2026-04-11T07:02:34.459Z</time></trkpt><trkpt lat="43.6958851" lon="12.6052118"><ele>509.5</ele><time>2026-04-11T07:02:35.459Z</time></trkpt><trkpt lat="43.6960062" lon="12.6052631"><ele>509.0</ele><time>2026-04-11T07:02:36.459Z</time></trkpt><trkpt lat="43.6961188" lon="12.6053113"><ele>511.25</ele><time>2026-04-11T07:02:37.46Z</time></trkpt><trkpt lat="43.6962182" lon="12.6053246"><ele>513.5</ele><time>2026-04-11T07:02:38.459Z</time></trkpt><trkpt lat="43.6963389" lon="12.6053156"><ele>515.75</ele><time>2026-04-11T07:02:39.459Z</time></trkpt><trkpt lat="43.6964764" lon="12.6052271"><ele>518.0</ele><time>2026-04-11T07:02:40.46Z</time></trkpt><trkpt lat="43.6966575" lon="12.6050393"><ele>518.0</ele><time>2026-04-11T07:02:41.459Z</time></trkpt><trkpt lat="43.6968312" lon="12.6048636"><ele>518.0</ele><time>2026-04-11T07:02:42.459Z</time></trkpt><trkpt lat="43.6969969" lon="12.60469"><ele>518.0</ele><time>2026-04-11T07:02:43.461Z</time></trkpt><trkpt lat="43.6971445" lon="12.6045139"><ele>515.3333333333333</ele><time>2026-04-11T07:02:44.46Z</time></trkpt><trkpt lat="43.6972778" lon="12.6043502"><ele>512.6666666666666</ele><time>2026-04-11T07:02:45.459Z</time></trkpt><trkpt lat="43.697395" lon="12.6042039"><ele>510.0</ele><time>2026-04-11T07:02:46.46Z</time></trkpt><trkpt lat="43.697507" lon="12.6040728"><ele>510.0</ele><time>2026-04-11T07:02:47.46Z</time></trkpt><trkpt lat="43.6976258" lon="12.6039661"><ele>510.0</ele><time>2026-04-11T07:02:48.459Z</time></trkpt><trkpt lat="43.6977669" lon="12.6038855"><ele>510.0</ele><time>2026-04-11T07:02:49.459Z</time></trkpt><trkpt lat="43.6979277" lon="12.6038281"><ele>508.0</ele><time>2026-04-11T07:02:50.459Z</time></trkpt><trkpt lat="43.6980977" lon="12.6037753"><ele>506.0</ele><time>2026-04-11T07:02:51.46Z</time></trkpt><trkpt lat="43.6982562" lon="12.6037235"><ele>504.0</ele><time>2026-04-11T07:02:52.459Z</time></trkpt><trkpt lat="43.698395" lon="12.6036698"><ele>502.75</ele><time>2026-04-11T07:02:53.459Z</time></trkpt><trkpt lat="43.6985068" lon="12.6036047"><ele>501.5</ele><time>2026-04-11T07:02:54.46Z</time></trkpt><trkpt lat="43.6986017" lon="12.6035345"><ele>500.25</ele><time>2026-04-11T07:02:55.459Z</time></trkpt><trkpt lat="43.6986801" lon="12.6034346"><ele>499.0</ele><time>2026-04-11T07:02:56.46Z</time></trkpt><trkpt lat="43.6987468" lon="12.603298"><ele>499.0</ele><time>2026-04-11T07:02:57.459Z</time></trkpt><trkpt lat="43.6988104" lon="12.6031353"><ele>499.0</ele><time>2026-04-11T07:02:58.459Z</time></trkpt><trkpt lat="43.6988696" lon="12.6029762"><ele>499.0</ele><time>2026-04-11T07:02:59.46Z</time></trkpt><trkpt lat="43.6989292" lon="12.6028563"><ele>499.0</ele><time>2026-04-11T07:03:00.46Z</time></trkpt><trkpt lat="43.6990007" lon="12.6027663"><ele>499.25</ele><time>2026-04-11T07:03:01.459Z</time></trkpt><trkpt lat="43.6990779" lon="12.6026847"><ele>499.5</ele><time>2026-04-11T07:03:02.459Z</time></trkpt><trkpt lat="43.699213" lon="12.6026696"><ele>499.75</ele><time>2026-04-11T07:03:03.459Z</time></trkpt><trkpt lat="43.6993446" lon="12.6026774"><ele>500.0</ele><time>2026-04-11T07:03:04.46Z</time></trkpt><trkpt lat="43.699469" lon="12.602678"><ele>500.0</ele><time>2026-04-11T07:03:05.459Z</time></trkpt><trkpt lat="43.6995884" lon="12.6027021"><ele>500.0</ele><time>2026-04-11T07:03:06.46Z</time></trkpt><trkpt lat="43.6996952" lon="12.6027499"><ele>500.0</ele><time>2026-04-11T07:03:07.46Z</time></trkpt><trkpt lat="43.6997945" lon="12.6028308"><ele>500.0</ele><time>2026-04-11T07:03:08.459Z</time></trkpt><trkpt lat="43.699902" lon="12.6029006"><ele>495.75</ele><time>2026-04-11T07:03:09.459Z</time></trkpt><trkpt lat="43.7000236" lon="12.6029323"><ele>491.5</ele><time>2026-04-11T07:03:10.46Z</time></trkpt><trkpt lat="43.7001555" lon="12.6029446"><ele>487.25</ele><time>2026-04-11T07:03:11.459Z</time></trkpt><trkpt lat="43.7003061" lon="12.6029336"><ele>483.0</ele><time>2026-04-11T07:03:12.459Z</time></trkpt><trkpt lat="43.7004496" lon="12.6029119"><ele>485.5</ele><time>2026-04-11T07:03:13.459Z</time></trkpt><trkpt lat="43.7005786" lon="12.6028362"><ele>488.0</ele><time>2026-04-11T07:03:14.459Z</time></trkpt><trkpt lat="43.7007139" lon="12.602771"><ele>490.5</ele><time>2026-04-11T07:03:15.46Z</time></trkpt><trkpt lat="43.7008574" lon="12.6026555"><ele>493.0</ele><time>2026-04-11T07:03:16.459Z</time></trkpt><trkpt lat="43.7010044" lon="12.6025969"><ele>490.0</ele><time>2026-04-11T07:03:17.459Z</time></trkpt><trkpt lat="43.7011519" lon="12.6025582"><ele>487.0</ele><time>2026-04-11T07:03:18.459Z</time></trkpt><trkpt lat="43.7012964" lon="12.6025544"><ele>484.0</ele><time>2026-04-11T07:03:19.459Z</time></trkpt><trkpt lat="43.701445" lon="12.6025478"><ele>481.0</ele><time>2026-04-11T07:03:20.459Z</time></trkpt><trkpt lat="43.7016049" lon="12.6025754"><ele>481.0</ele><time>2026-04-11T07:03:21.459Z</time></trkpt><trkpt lat="43.701743" lon="12.6025695"><ele>481.0</ele><time>2026-04-11T07:03:22.461Z</time></trkpt><trkpt lat="43.701855" lon="12.6025446"><ele>481.0</ele><time>2026-04-11T07:03:23.459Z</time></trkpt><trkpt lat="43.7019618" lon="12.6025078"><ele>481.0</ele><time>2026-04-11T07:03:24.459Z</time></trkpt><trkpt lat="43.7020528" lon="12.6024475"><ele>474.75</ele><time>2026-04-11T07:03:25.46Z</time></trkpt><trkpt lat="43.7021315" lon="12.6023395"><ele>468.5</ele><time>2026-04-11T07:03:26.459Z</time></trkpt><trkpt lat="43.7022047" lon="12.6021998"><ele>462.25</ele><time>2026-04-11T07:03:27.459Z</time></trkpt><trkpt lat="43.7022724" lon="12.6020366"><ele>456.0</ele><time>2026-04-11T07:03:28.459Z</time></trkpt><trkpt lat="43.7023241" lon="12.6018624"><ele>456.0</ele><time>2026-04-11T07:03:29.459Z</time></trkpt><trkpt lat="43.7023501" lon="12.6017039"><ele>456.0</ele><time>2026-04-11T07:03:30.459Z</time></trkpt><trkpt lat="43.7023517" lon="12.6015599"><ele>456.0</ele><time>2026-04-11T07:03:31.459Z</time></trkpt><trkpt lat="43.702322" lon="12.601418"><ele>456.0</ele><time>2026-04-11T07:03:32.459Z</time></trkpt><trkpt lat="43.7022877" lon="12.6012812"><ele>456.0</ele><time>2026-04-11T07:03:33.459Z</time></trkpt><trkpt lat="43.7022654" lon="12.6011353"><ele>457.20000000000005</ele><time>2026-04-11T07:03:34.46Z</time></trkpt><trkpt lat="43.7022999" lon="12.600993"><ele>458.40000000000003</ele><time>2026-04-11T07:03:35.459Z</time></trkpt><trkpt lat="43.7023248" lon="12.600856"><ele>459.6</ele><time>2026-04-11T07:03:36.46Z</time></trkpt><trkpt lat="43.7023885" lon="12.6007423"><ele>460.8</ele><time>2026-04-11T07:03:37.46Z</time></trkpt><trkpt lat="43.7024822" lon="12.6006675"><ele>462.0</ele><time>2026-04-11T07:03:38.459Z</time></trkpt><trkpt lat="43.7025607" lon="12.6006213"><ele>462.0</ele><time>2026-04-11T07:03:39.459Z</time></trkpt><trkpt lat="43.7026789" lon="12.6005464"><ele>462.0</ele><time>2026-04-11T07:03:41.459Z</time></trkpt><trkpt lat="43.7027597" lon="12.6005132"><ele>462.0</ele><time>2026-04-11T07:03:42.459Z</time></trkpt><trkpt lat="43.7028699" lon="12.6004435"><ele>462.0</ele><time>2026-04-11T07:03:43.46Z</time></trkpt><trkpt lat="43.7029916" lon="12.6003728"><ele>457.0</ele><time>2026-04-11T07:03:44.46Z</time></trkpt><trkpt lat="43.7031585" lon="12.600348"><ele>452.0</ele><time>2026-04-11T07:03:45.459Z</time></trkpt><trkpt lat="43.7033498" lon="12.6003466"><ele>447.0</ele><time>2026-04-11T07:03:46.459Z</time></trkpt><trkpt lat="43.703519" lon="12.6003357"><ele>448.66666666666663</ele><time>2026-04-11T07:03:47.459Z</time></trkpt><trkpt lat="43.7036867" lon="12.6003817"><ele>450.3333333333333</ele><time>2026-04-11T07:03:48.459Z</time></trkpt><trkpt lat="43.7038641" lon="12.6004755"><ele>452.0</ele><time>2026-04-11T07:03:49.459Z</time></trkpt><trkpt lat="43.704028" lon="12.6005801"><ele>452.0</ele><time>2026-04-11T07:03:50.46Z</time></trkpt><trkpt lat="43.7041689" lon="12.6006703"><ele>452.0</ele><time>2026-04-11T07:03:51.46Z</time></trkpt><trkpt lat="43.7042928" lon="12.6007509"><ele>452.0</ele><time>2026-04-11T07:03:52.459Z</time></trkpt><trkpt lat="43.7044084" lon="12.600809"><ele>452.0</ele><time>2026-04-11T07:03:53.46Z</time></trkpt><trkpt lat="43.7045168" lon="12.6008178"><ele>453.6</ele><time>2026-04-11T07:03:54.459Z</time></trkpt><trkpt lat="43.7045968" lon="12.6007762"><ele>455.20000000000005</ele><time>2026-04-11T07:03:55.46Z</time></trkpt><trkpt lat="43.7046501" lon="12.6006967"><ele>456.8</ele><time>2026-04-11T07:03:56.459Z</time></trkpt><trkpt lat="43.7046651" lon="12.6005872"><ele>458.4</ele><time>2026-04-11T07:03:57.459Z</time></trkpt><trkpt lat="43.7046402" lon="12.600458"><ele>460.0</ele><time>2026-04-11T07:03:58.459Z</time></trkpt><trkpt lat="43.7045899" lon="12.6003062"><ele>460.0</ele><time>2026-04-11T07:03:59.459Z</time></trkpt><trkpt lat="43.704568" lon="12.6001441"><ele>460.0</ele><time>2026-04-11T07:04:00.46Z</time></trkpt><trkpt lat="43.7045873" lon="12.5999684"><ele>460.0</ele><time>2026-04-11T07:04:01.46Z</time></trkpt><trkpt lat="43.7046457" lon="12.5998036"><ele>460.0</ele><time>2026-04-11T07:04:02.459Z</time></trkpt><trkpt lat="43.7047151" lon="12.5996388"><ele>460.0</ele><time>2026-04-11T07:04:03.459Z</time></trkpt><trkpt lat="43.7048787" lon="12.5995571"><ele>460.0</ele><time>2026-04-11T07:04:04.459Z</time></trkpt><trkpt lat="43.7050245" lon="12.5995213"><ele>460.0</ele><time>2026-04-11T07:04:05.46Z</time></trkpt><trkpt lat="43.7051515" lon="12.5995019"><ele>460.2</ele><time>2026-04-11T07:04:06.459Z</time></trkpt><trkpt lat="43.7052777" lon="12.5994854"><ele>460.4</ele><time>2026-04-11T07:04:07.459Z</time></trkpt><trkpt lat="43.7053686" lon="12.599436"><ele>460.6</ele><time>2026-04-11T07:04:08.46Z</time></trkpt><trkpt lat="43.7054372" lon="12.5993524"><ele>460.8</ele><time>2026-04-11T07:04:09.46Z</time></trkpt><trkpt lat="43.7054655" lon="12.5992489"><ele>461.0</ele><time>2026-04-11T07:04:10.46Z</time></trkpt><trkpt lat="43.7054423" lon="12.5991385"><ele>461.0</ele><time>2026-04-11T07:04:11.459Z</time></trkpt><trkpt lat="43.7053796" lon="12.5990183"><ele>461.0</ele><time>2026-04-11T07:04:12.459Z</time></trkpt><trkpt lat="43.7052789" lon="12.5988826"><ele>461.0</ele><time>2026-04-11T07:04:13.459Z</time></trkpt><trkpt lat="43.7051581" lon="12.5987205"><ele>461.0</ele><time>2026-04-11T07:04:14.461Z</time></trkpt><trkpt lat="43.70503" lon="12.5985475"><ele>462.0</ele><time>2026-04-11T07:04:15.459Z</time></trkpt><trkpt lat="43.7049014" lon="12.5984063"><ele>463.0</ele><time>2026-04-11T07:04:16.46Z</time></trkpt><trkpt lat="43.7047684" lon="12.5982872"><ele>464.0</ele><time>2026-04-11T07:04:17.459Z</time></trkpt><trkpt lat="43.7046304" lon="12.5981989"><ele>464.0</ele><time>2026-04-11T07:04:18.46Z</time></trkpt><trkpt lat="43.7044922" lon="12.5981564"><ele>464.0</ele><time>2026-04-11T07:04:19.459Z</time></trkpt><trkpt lat="43.7043546" lon="12.5981472"><ele>464.0</ele><time>2026-04-11T07:04:20.459Z</time></trkpt><trkpt lat="43.7042211" lon="12.5981203"><ele>464.0</ele><time>2026-04-11T07:04:21.459Z</time></trkpt><trkpt lat="43.7041031" lon="12.5980421"><ele>463.3333333333333</ele><time>2026-04-11T07:04:22.461Z</time></trkpt><trkpt lat="43.7039842" lon="12.597931"><ele>462.66666666666663</ele><time>2026-04-11T07:04:23.459Z</time></trkpt><trkpt lat="43.7038978" lon="12.5977207"><ele>462.0</ele><time>2026-04-11T07:04:24.46Z</time></trkpt><trkpt lat="43.7037936" lon="12.5975177"><ele>462.0</ele><time>2026-04-11T07:04:25.459Z</time></trkpt><trkpt lat="43.7037093" lon="12.5973157"><ele>462.0</ele><time>2026-04-11T07:04:26.459Z</time></trkpt><trkpt lat="43.7036423" lon="12.5971151"><ele>462.0</ele><time>2026-04-11T07:04:27.459Z</time></trkpt><trkpt lat="43.7035879" lon="12.5969215"><ele>465.75</ele><time>2026-04-11T07:04:28.46Z</time></trkpt><trkpt lat="43.7035268" lon="12.5967515"><ele>469.5</ele><time>2026-04-11T07:04:29.459Z</time></trkpt><trkpt lat="43.7034454" lon="12.596614"><ele>473.25</ele><time>2026-04-11T07:04:30.459Z</time></trkpt><trkpt lat="43.7033516" lon="12.5964933"><ele>477.0</ele><time>2026-04-11T07:04:31.459Z</time></trkpt><trkpt lat="43.7032563" lon="12.5963784"><ele>477.0</ele><time>2026-04-11T07:04:32.459Z</time></trkpt><trkpt lat="43.7031814" lon="12.5962583"><ele>477.0</ele><time>2026-04-11T07:04:33.459Z</time></trkpt><trkpt lat="43.7031155" lon="12.596115"><ele>477.0</ele><time>2026-04-11T07:04:34.459Z</time></trkpt><trkpt lat="43.703114" lon="12.5959053"><ele>477.0</ele><time>2026-04-11T07:04:35.459Z</time></trkpt><trkpt lat="43.7031016" lon="12.5956999"><ele>474.5</ele><time>2026-04-11T07:04:36.459Z</time></trkpt><trkpt lat="43.7031264" lon="12.5954879"><ele>472.0</ele><time>2026-04-11T07:04:37.459Z</time></trkpt><trkpt lat="43.703179" lon="12.5953045"><ele>469.5</ele><time>2026-04-11T07:04:38.459Z</time></trkpt><trkpt lat="43.7032195" lon="12.5951303"><ele>467.0</ele><time>2026-04-11T07:04:39.46Z</time></trkpt><trkpt lat="43.7032389" lon="12.5949238"><ele>467.0</ele><time>2026-04-11T07:04:40.46Z</time></trkpt><trkpt lat="43.7032323" lon="12.5947044"><ele>467.0</ele><time>2026-04-11T07:04:41.46Z</time></trkpt><trkpt lat="43.7032171" lon="12.594504"><ele>467.0</ele><time>2026-04-11T07:04:42.459Z</time></trkpt><trkpt lat="43.7032242" lon="12.5943126"><ele>467.0</ele><time>2026-04-11T07:04:43.46Z</time></trkpt><trkpt lat="43.7032665" lon="12.5941417"><ele>469.66666666666663</ele><time>2026-04-11T07:04:44.46Z</time></trkpt><trkpt lat="43.7033414" lon="12.5939778"><ele>472.33333333333337</ele><time>2026-04-11T07:04:45.459Z</time></trkpt><trkpt lat="43.7034531" lon="12.5938314"><ele>475.0</ele><time>2026-04-11T07:04:46.459Z</time></trkpt><trkpt lat="43.7035841" lon="12.5936705"><ele>475.6666666666667</ele><time>2026-04-11T07:04:47.46Z</time></trkpt><trkpt lat="43.7037663" lon="12.5935266"><ele>476.33333333333337</ele><time>2026-04-11T07:04:48.46Z</time></trkpt><trkpt lat="43.7039638" lon="12.5933388"><ele>477.0</ele><time>2026-04-11T07:04:49.46Z</time></trkpt><trkpt lat="43.704159" lon="12.5931569"><ele>477.0</ele><time>2026-04-11T07:04:50.459Z</time></trkpt><trkpt lat="43.7043341" lon="12.5930035"><ele>477.0</ele><time>2026-04-11T07:04:51.459Z</time></trkpt><trkpt lat="43.7044949" lon="12.5928684"><ele>477.0</ele><time>2026-04-11T07:04:52.459Z</time></trkpt><trkpt lat="43.7046345" lon="12.5927395"><ele>474.5</ele><time>2026-04-11T07:04:53.459Z</time></trkpt><trkpt lat="43.7047445" lon="12.5926045"><ele>472.0</ele><time>2026-04-11T07:04:54.459Z</time></trkpt><trkpt lat="43.7048324" lon="12.5924557"><ele>469.5</ele><time>2026-04-11T07:04:55.46Z</time></trkpt><trkpt lat="43.7048951" lon="12.5922816"><ele>467.0</ele><time>2026-04-11T07:04:56.459Z</time></trkpt><trkpt lat="43.7049176" lon="12.5921072"><ele>468.5</ele><time>2026-04-11T07:04:57.459Z</time></trkpt><trkpt lat="43.7048993" lon="12.5919277"><ele>470.0</ele><time>2026-04-11T07:04:58.459Z</time></trkpt><trkpt lat="43.7048539" lon="12.5917418"><ele>471.5</ele><time>2026-04-11T07:04:59.46Z</time></trkpt><trkpt lat="43.7047848" lon="12.5915467"><ele>473.0</ele><time>2026-04-11T07:05:00.459Z</time></trkpt><trkpt lat="43.7047395" lon="12.5913315"><ele>473.3333333333333</ele><time>2026-04-11T07:05:01.459Z</time></trkpt><trkpt lat="43.7047299" lon="12.5911262"><ele>473.66666666666663</ele><time>2026-04-11T07:05:02.46Z</time></trkpt><trkpt lat="43.7047558" lon="12.5909087"><ele>474.0</ele><time>2026-04-11T07:05:03.459Z</time></trkpt><trkpt lat="43.7048127" lon="12.5907044"><ele>474.0</ele><time>2026-04-11T07:05:04.459Z</time></trkpt><trkpt lat="43.704897" lon="12.5905445"><ele>474.0</ele><time>2026-04-11T07:05:05.459Z</time></trkpt><trkpt lat="43.7050212" lon="12.5904123"><ele>474.0</ele><time>2026-04-11T07:05:06.459Z</time></trkpt><trkpt lat="43.7051762" lon="12.5903105"><ele>473.25</ele><time>2026-04-11T07:05:07.459Z</time></trkpt><trkpt lat="43.705319" lon="12.590241"><ele>472.5</ele><time>2026-04-11T07:05:08.459Z</time></trkpt><trkpt lat="43.7054495" lon="12.5901568"><ele>471.75</ele><time>2026-04-11T07:05:09.46Z</time></trkpt><trkpt lat="43.7055629" lon="12.5900333"><ele>471.0</ele><time>2026-04-11T07:05:10.459Z</time></trkpt><trkpt lat="43.7056597" lon="12.5898628"><ele>471.0</ele><time>2026-04-11T07:05:11.46Z</time></trkpt><trkpt lat="43.7057543" lon="12.5896713"><ele>471.0</ele><time>2026-04-11T07:05:12.459Z</time></trkpt><trkpt lat="43.705844" lon="12.5895064"><ele>471.0</ele><time>2026-04-11T07:05:13.459Z</time></trkpt><trkpt lat="43.7059172" lon="12.5893572"><ele>471.0</ele><time>2026-04-11T07:05:14.459Z</time></trkpt><trkpt lat="43.7059619" lon="12.589199"><ele>474.0</ele><time>2026-04-11T07:05:15.459Z</time></trkpt><trkpt lat="43.7059693" lon="12.5890114"><ele>477.0</ele><time>2026-04-11T07:05:16.46Z</time></trkpt><trkpt lat="43.7059454" lon="12.5887929"><ele>480.0</ele><time>2026-04-11T07:05:17.459Z</time></trkpt><trkpt lat="43.7059094" lon="12.5885472"><ele>480.0</ele><time>2026-04-11T07:05:18.459Z</time></trkpt><trkpt lat="43.7058879" lon="12.5882881"><ele>480.0</ele><time>2026-04-11T07:05:19.46Z</time></trkpt><trkpt lat="43.7058844" lon="12.5880467"><ele>480.0</ele><time>2026-04-11T07:05:20.459Z</time></trkpt><trkpt lat="43.7058694" lon="12.5878184"><ele>480.0</ele><time>2026-04-11T07:05:21.459Z</time></trkpt><trkpt lat="43.7058227" lon="12.5876126"><ele>480.0</ele><time>2026-04-11T07:05:22.46Z</time></trkpt><trkpt lat="43.7057579" lon="12.587441"><ele>480.0</ele><time>2026-04-11T07:05:23.459Z</time></trkpt><trkpt lat="43.7056684" lon="12.5873095"><ele>480.0</ele><time>2026-04-11T07:05:24.461Z</time></trkpt><trkpt lat="43.7055509" lon="12.5872016"><ele>480.0</ele><time>2026-04-11T07:05:25.459Z</time></trkpt><trkpt lat="43.7054311" lon="12.5870937"><ele>480.0</ele><time>2026-04-11T07:05:26.459Z</time></trkpt><trkpt lat="43.7053415" lon="12.5869443"><ele>480.0</ele><time>2026-04-11T07:05:27.459Z</time></trkpt><trkpt lat="43.7052705" lon="12.5867434"><ele>480.0</ele><time>2026-04-11T07:05:28.459Z</time></trkpt><trkpt lat="43.705209" lon="12.5865088"><ele>482.33333333333337</ele><time>2026-04-11T07:05:29.459Z</time></trkpt><trkpt lat="43.7051331" lon="12.5862463"><ele>484.6666666666667</ele><time>2026-04-11T07:05:30.459Z</time></trkpt><trkpt lat="43.7050648" lon="12.5859918"><ele>487.0</ele><time>2026-04-11T07:05:31.459Z</time></trkpt><trkpt lat="43.705012" lon="12.5857547"><ele>487.0</ele><time>2026-04-11T07:05:32.459Z</time></trkpt><trkpt lat="43.704983" lon="12.5855262"><ele>487.0</ele><time>2026-04-11T07:05:33.459Z</time></trkpt><trkpt lat="43.7049883" lon="12.5852956"><ele>487.0</ele><time>2026-04-11T07:05:34.46Z</time></trkpt><trkpt lat="43.705012" lon="12.5850851"><ele>487.0</ele><time>2026-04-11T07:05:35.459Z</time></trkpt><trkpt lat="43.705011" lon="12.5848862"><ele>487.0</ele><time>2026-04-11T07:05:36.459Z</time></trkpt><trkpt lat="43.7049833" lon="12.584685"><ele>487.0</ele><time>2026-04-11T07:05:37.459Z</time></trkpt><trkpt lat="43.7049153" lon="12.5844884"><ele>487.0</ele><time>2026-04-11T07:05:38.46Z</time></trkpt><trkpt lat="43.7048396" lon="12.5842975"><ele>486.25</ele><time>2026-04-11T07:05:39.46Z</time></trkpt><trkpt lat="43.7047964" lon="12.5841072"><ele>485.5</ele><time>2026-04-11T07:05:40.459Z</time></trkpt><trkpt lat="43.7047845" lon="12.5839038"><ele>484.75</ele><time>2026-04-11T07:05:41.459Z</time></trkpt><trkpt lat="43.7048186" lon="12.5836969"><ele>484.0</ele><time>2026-04-11T07:05:42.459Z</time></trkpt><trkpt lat="43.704894" lon="12.5834938"><ele>486.0</ele><time>2026-04-11T07:05:43.46Z</time></trkpt><trkpt lat="43.7050023" lon="12.5832796"><ele>488.0</ele><time>2026-04-11T07:05:44.459Z</time></trkpt><trkpt lat="43.7050959" lon="12.5830767"><ele>490.0</ele><time>2026-04-11T07:05:45.46Z</time></trkpt><trkpt lat="43.7051651" lon="12.5828689"><ele>492.33333333333337</ele><time>2026-04-11T07:05:46.459Z</time></trkpt><trkpt lat="43.7052125" lon="12.582642"><ele>494.66666666666663</ele><time>2026-04-11T07:05:47.46Z</time></trkpt><trkpt lat="43.7052389" lon="12.5824029"><ele>497.0</ele><time>2026-04-11T07:05:48.459Z</time></trkpt><trkpt lat="43.7052472" lon="12.5821603"><ele>496.75</ele><time>2026-04-11T07:05:49.459Z</time></trkpt><trkpt lat="43.7052305" lon="12.5819441"><ele>496.5</ele><time>2026-04-11T07:05:50.46Z</time></trkpt><trkpt lat="43.705199" lon="12.5817467"><ele>496.25</ele><time>2026-04-11T07:05:51.459Z</time></trkpt><trkpt lat="43.7051544" lon="12.5815721"><ele>496.0</ele><time>2026-04-11T07:05:52.459Z</time></trkpt><trkpt lat="43.7051043" lon="12.5814039"><ele>496.0</ele><time>2026-04-11T07:05:53.459Z</time></trkpt><trkpt lat="43.7050589" lon="12.5812299"><ele>496.0</ele><time>2026-04-11T07:05:54.459Z</time></trkpt><trkpt lat="43.7050262" lon="12.5810538"><ele>496.0</ele><time>2026-04-11T07:05:55.46Z</time></trkpt><trkpt lat="43.7050102" lon="12.5808785"><ele>496.0</ele><time>2026-04-11T07:05:56.46Z</time></trkpt><trkpt lat="43.7050044" lon="12.5807136"><ele>494.5</ele><time>2026-04-11T07:05:57.459Z</time></trkpt><trkpt lat="43.7050071" lon="12.5805548"><ele>493.0</ele><time>2026-04-11T07:05:58.46Z</time></trkpt><trkpt lat="43.7050162" lon="12.5803977"><ele>491.5</ele><time>2026-04-11T07:05:59.46Z</time></trkpt><trkpt lat="43.7050268" lon="12.5802408"><ele>490.0</ele><time>2026-04-11T07:06:00.46Z</time></trkpt><trkpt lat="43.7050363" lon="12.5800837"><ele>490.0</ele><time>2026-04-11T07:06:01.459Z</time></trkpt><trkpt lat="43.7050457" lon="12.5799248"><ele>490.0</ele><time>2026-04-11T07:06:02.46Z</time></trkpt><trkpt lat="43.7050565" lon="12.579767"><ele>490.0</ele><time>2026-04-11T07:06:03.459Z</time></trkpt><trkpt lat="43.7050636" lon="12.5796021"><ele>490.0</ele><time>2026-04-11T07:06:04.459Z</time></trkpt><trkpt lat="43.7050591" lon="12.5794327"><ele>489.25</ele><time>2026-04-11T07:06:05.459Z</time></trkpt><trkpt lat="43.7050316" lon="12.5792622"><ele>488.5</ele><time>2026-04-11T07:06:06.459Z</time></trkpt><trkpt lat="43.7049854" lon="12.5790947"><ele>487.75</ele><time>2026-04-11T07:06:07.459Z</time></trkpt><trkpt lat="43.7049319" lon="12.5789313"><ele>487.0</ele><time>2026-04-11T07:06:08.46Z</time></trkpt><trkpt lat="43.7048818" lon="12.5787802"><ele>485.75</ele><time>2026-04-11T07:06:09.459Z</time></trkpt><trkpt lat="43.704824" lon="12.5786445"><ele>484.5</ele><time>2026-04-11T07:06:10.46Z</time></trkpt><trkpt lat="43.704752" lon="12.5785319"><ele>483.25</ele><time>2026-04-11T07:06:11.46Z</time></trkpt><trkpt lat="43.7046468" lon="12.5784523"><ele>482.0</ele><time>2026-04-11T07:06:12.461Z</time></trkpt><trkpt lat="43.7045286" lon="12.5784212"><ele>486.0</ele><time>2026-04-11T07:06:13.459Z</time></trkpt><trkpt lat="43.7043997" lon="12.5784471"><ele>490.0</ele><time>2026-04-11T07:06:14.459Z</time></trkpt><trkpt lat="43.7042506" lon="12.5785276"><ele>494.0</ele><time>2026-04-11T07:06:15.459Z</time></trkpt><trkpt lat="43.7041147" lon="12.5786133"><ele>498.0</ele><time>2026-04-11T07:06:16.459Z</time></trkpt><trkpt lat="43.7039781" lon="12.5786731"><ele>497.66666666666663</ele><time>2026-04-11T07:06:17.459Z</time></trkpt><trkpt lat="43.7038309" lon="12.5786926"><ele>497.3333333333333</ele><time>2026-04-11T07:06:18.46Z</time></trkpt><trkpt lat="43.7036735" lon="12.5786938"><ele>497.0</ele><time>2026-04-11T07:06:19.459Z</time></trkpt><trkpt lat="43.7035078" lon="12.5786618"><ele>497.0</ele><time>2026-04-11T07:06:20.459Z</time></trkpt><trkpt lat="43.7033649" lon="12.578625"><ele>497.00000000000006</ele><time>2026-04-11T07:06:21.459Z</time></trkpt><trkpt lat="43.7032482" lon="12.5785936"><ele>497.00000000000006</ele><time>2026-04-11T07:06:22.459Z</time></trkpt><trkpt lat="43.7031604" lon="12.578567"><ele>497.0</ele><time>2026-04-11T07:06:23.459Z</time></trkpt><trkpt lat="43.7030889" lon="12.5785433"><ele>497.0</ele><time>2026-04-11T07:06:24.459Z</time></trkpt><trkpt lat="43.703" lon="12.5785525"><ele>496.99999999999994</ele><time>2026-04-11T07:06:26.46Z</time></trkpt><trkpt lat="43.7029805" lon="12.5786552"><ele>497.0</ele><time>2026-04-11T07:06:28.459Z</time></trkpt><trkpt lat="43.7029829" lon="12.5787492"><ele>497.0</ele><time>2026-04-11T07:06:29.46Z</time></trkpt><trkpt lat="43.7029819" lon="12.5788674"><ele>497.0</ele><time>2026-04-11T07:06:30.459Z</time></trkpt><trkpt lat="43.7029715" lon="12.5790037"><ele>496.99999999999994</ele><time>2026-04-11T07:06:31.459Z</time></trkpt><trkpt lat="43.7029476" lon="12.5791359"><ele>497.0</ele><time>2026-04-11T07:06:32.459Z</time></trkpt><trkpt lat="43.7029224" lon="12.5792641"><ele>496.16666666666663</ele><time>2026-04-11T07:06:33.459Z</time></trkpt><trkpt lat="43.7028854" lon="12.5793948"><ele>495.3333333333333</ele><time>2026-04-11T07:06:34.46Z</time></trkpt><trkpt lat="43.7028371" lon="12.5795068"><ele>494.5</ele><time>2026-04-11T07:06:35.459Z</time></trkpt><trkpt lat="43.7027978" lon="12.5796006"><ele>493.66666666666663</ele><time>2026-04-11T07:06:36.459Z</time></trkpt><trkpt lat="43.7027782" lon="12.5796891"><ele>492.8333333333333</ele><time>2026-04-11T07:06:37.459Z</time></trkpt><trkpt lat="43.7027744" lon="12.5797863"><ele>492.0</ele><time>2026-04-11T07:06:38.46Z</time></trkpt><trkpt lat="43.7027939" lon="12.5798761"><ele>495.20000000000005</ele><time>2026-04-11T07:06:39.459Z</time></trkpt><trkpt lat="43.7028448" lon="12.579935"><ele>498.40000000000003</ele><time>2026-04-11T07:06:40.459Z</time></trkpt><trkpt lat="43.702921" lon="12.5799696"><ele>501.59999999999997</ele><time>2026-04-11T07:06:41.46Z</time></trkpt><trkpt lat="43.7030051" lon="12.5799721"><ele>504.79999999999995</ele><time>2026-04-11T07:06:42.46Z</time></trkpt><trkpt lat="43.7031107" lon="12.5799044"><ele>508.0</ele><time>2026-04-11T07:06:43.459Z</time></trkpt><trkpt lat="43.7032331" lon="12.5798284"><ele>508.0</ele><time>2026-04-11T07:06:44.459Z</time></trkpt><trkpt lat="43.7033785" lon="12.5796799"><ele>508.0</ele><time>2026-04-11T07:06:45.459Z</time></trkpt><trkpt lat="43.7035198" lon="12.5795635"><ele>508.0</ele><time>2026-04-11T07:06:46.46Z</time></trkpt><trkpt lat="43.7036812" lon="12.5794583"><ele>506.25</ele><time>2026-04-11T07:06:47.459Z</time></trkpt><trkpt lat="43.7038438" lon="12.579385"><ele>504.5</ele><time>2026-04-11T07:06:48.46Z</time></trkpt><trkpt lat="43.7039735" lon="12.5793291"><ele>502.75</ele><time>2026-04-11T07:06:49.459Z</time></trkpt><trkpt lat="43.7040938" lon="12.5792829"><ele>501.0</ele><time>2026-04-11T07:06:50.46Z</time></trkpt><trkpt lat="43.7042035" lon="12.5792646"><ele>501.0</ele><time>2026-04-11T07:06:51.46Z</time></trkpt><trkpt lat="43.7042953" lon="12.5792643"><ele>501.0</ele><time>2026-04-11T07:06:52.459Z</time></trkpt><trkpt lat="43.7043832" lon="12.5792952"><ele>501.0</ele><time>2026-04-11T07:06:53.459Z</time></trkpt><trkpt lat="43.7044453" lon="12.5794474"><ele>501.0</ele><time>2026-04-11T07:06:54.459Z</time></trkpt><trkpt lat="43.704491" lon="12.5795613"><ele>501.0</ele><time>2026-04-11T07:06:55.46Z</time></trkpt><trkpt lat="43.7045249" lon="12.5796726"><ele>499.1666666666667</ele><time>2026-04-11T07:06:56.459Z</time></trkpt><trkpt lat="43.7044719" lon="12.5797487"><ele>497.33333333333337</ele><time>2026-04-11T07:06:57.46Z</time></trkpt><trkpt lat="43.7043848" lon="12.5798154"><ele>495.5</ele><time>2026-04-11T07:06:59.46Z</time></trkpt><trkpt lat="43.7042935" lon="12.5797003"><ele>493.6666666666667</ele><time>2026-04-11T07:07:01.459Z</time></trkpt><trkpt lat="43.7042401" lon="12.5796424"><ele>491.83333333333337</ele><time>2026-04-11T07:07:02.459Z</time></trkpt><trkpt lat="43.7041742" lon="12.5796218"><ele>490.0</ele><time>2026-04-11T07:07:03.46Z</time></trkpt><trkpt lat="43.7040108" lon="12.5797231"><ele>495.8</ele><time>2026-04-11T07:07:05.459Z</time></trkpt><trkpt lat="43.7039216" lon="12.5798225"><ele>501.6</ele><time>2026-04-11T07:07:06.459Z</time></trkpt><trkpt lat="43.7038363" lon="12.579936"><ele>507.4</ele><time>2026-04-11T07:07:07.459Z</time></trkpt><trkpt lat="43.7037646" lon="12.5800387"><ele>513.2</ele><time>2026-04-11T07:07:08.458Z</time></trkpt><trkpt lat="43.7036878" lon="12.5801519"><ele>519.0</ele><time>2026-04-11T07:07:09.458Z</time></trkpt><trkpt lat="43.7036092" lon="12.5802734"><ele>522.5</ele><time>2026-04-11T07:07:10.458Z</time></trkpt><trkpt lat="43.7035225" lon="12.5804019"><ele>526.0</ele><time>2026-04-11T07:07:11.458Z</time></trkpt><trkpt lat="43.7034248" lon="12.5805282"><ele>529.5</ele><time>2026-04-11T07:07:12.458Z</time></trkpt><trkpt lat="43.7033023" lon="12.5806403"><ele>533.0</ele><time>2026-04-11T07:07:13.458Z</time></trkpt><trkpt lat="43.7031615" lon="12.5807547"><ele>533.0</ele><time>2026-04-11T07:07:14.458Z</time></trkpt><trkpt lat="43.7030125" lon="12.5808985"><ele>533.0</ele><time>2026-04-11T07:07:15.458Z</time></trkpt><trkpt lat="43.702876" lon="12.5810328"><ele>533.0</ele><time>2026-04-11T07:07:16.458Z</time></trkpt><trkpt lat="43.7027496" lon="12.5811271"><ele>538.25</ele><time>2026-04-11T07:07:17.459Z</time></trkpt><trkpt lat="43.7026151" lon="12.5811975"><ele>543.5</ele><time>2026-04-11T07:07:18.459Z</time></trkpt><trkpt lat="43.7024785" lon="12.5812545"><ele>548.75</ele><time>2026-04-11T07:07:19.458Z</time></trkpt><trkpt lat="43.7023429" lon="12.5813064"><ele>554.0</ele><time>2026-04-11T07:07:20.458Z</time></trkpt><trkpt lat="43.7022206" lon="12.5813472"><ele>554.0</ele><time>2026-04-11T07:07:21.458Z</time></trkpt><trkpt lat="43.7021108" lon="12.5813906"><ele>554.0</ele><time>2026-04-11T07:07:22.459Z</time></trkpt><trkpt lat="43.7020119" lon="12.5814412"><ele>554.0</ele><time>2026-04-11T07:07:23.458Z</time></trkpt><trkpt lat="43.7019342" lon="12.5815071"><ele>554.0</ele><time>2026-04-11T07:07:24.458Z</time></trkpt><trkpt lat="43.7018779" lon="12.5816083"><ele>554.0</ele><time>2026-04-11T07:07:25.459Z</time></trkpt><trkpt lat="43.7018372" lon="12.5817472"><ele>553.25</ele><time>2026-04-11T07:07:26.459Z</time></trkpt><trkpt lat="43.701807" lon="12.5819057"><ele>552.5</ele><time>2026-04-11T07:07:27.458Z</time></trkpt><trkpt lat="43.701766" lon="12.5820773"><ele>551.75</ele><time>2026-04-11T07:07:28.458Z</time></trkpt><trkpt lat="43.7017266" lon="12.5822682"><ele>551.0</ele><time>2026-04-11T07:07:29.458Z</time></trkpt><trkpt lat="43.7016944" lon="12.5824791"><ele>551.0</ele><time>2026-04-11T07:07:30.458Z</time></trkpt><trkpt lat="43.7016431" lon="12.5826864"><ele>551.0</ele><time>2026-04-11T07:07:31.458Z</time></trkpt><trkpt lat="43.7015695" lon="12.5829026"><ele>551.0</ele><time>2026-04-11T07:07:32.458Z</time></trkpt><trkpt lat="43.7015044" lon="12.5830893"><ele>554.0</ele><time>2026-04-11T07:07:33.458Z</time></trkpt><trkpt lat="43.7014359" lon="12.5832583"><ele>557.0</ele><time>2026-04-11T07:07:34.458Z</time></trkpt><trkpt lat="43.7013455" lon="12.5834233"><ele>560.0</ele><time>2026-04-11T07:07:35.458Z</time></trkpt><trkpt lat="43.70123" lon="12.5835807"><ele>561.5</ele><time>2026-04-11T07:07:36.458Z</time></trkpt><trkpt lat="43.7011314" lon="12.5837006"><ele>563.0</ele><time>2026-04-11T07:07:37.458Z</time></trkpt><trkpt lat="43.7010464" lon="12.5838092"><ele>564.5</ele><time>2026-04-11T07:07:38.458Z</time></trkpt><trkpt lat="43.7009729" lon="12.5839213"><ele>566.0</ele><time>2026-04-11T07:07:39.458Z</time></trkpt><trkpt lat="43.7009066" lon="12.584045"><ele>565.6</ele><time>2026-04-11T07:07:40.458Z</time></trkpt><trkpt lat="43.7008492" lon="12.5841583"><ele>565.2</ele><time>2026-04-11T07:07:41.458Z</time></trkpt><trkpt lat="43.7008107" lon="12.5842712"><ele>564.8</ele><time>2026-04-11T07:07:42.458Z</time></trkpt><trkpt lat="43.7007895" lon="12.5843956"><ele>564.4</ele><time>2026-04-11T07:07:43.458Z</time></trkpt><trkpt lat="43.7007868" lon="12.5845251"><ele>564.0</ele><time>2026-04-11T07:07:44.458Z</time></trkpt><trkpt lat="43.7007932" lon="12.5846557"><ele>564.0</ele><time>2026-04-11T07:07:45.46Z</time></trkpt><trkpt lat="43.7007958" lon="12.584783"><ele>564.0</ele><time>2026-04-11T07:07:46.458Z</time></trkpt><trkpt lat="43.7008046" lon="12.5848951"><ele>564.0</ele><time>2026-04-11T07:07:47.458Z</time></trkpt><trkpt lat="43.7008235" lon="12.5849843"><ele>564.0</ele><time>2026-04-11T07:07:48.458Z</time></trkpt><trkpt lat="43.7008814" lon="12.5851021"><ele>564.0</ele><time>2026-04-11T07:07:50.458Z</time></trkpt><trkpt lat="43.7009735" lon="12.5851427"><ele>564.0</ele><time>2026-04-11T07:07:52.458Z</time></trkpt><trkpt lat="43.701105" lon="12.5851049"><ele>565.3333333333334</ele><time>2026-04-11T07:07:54.458Z</time></trkpt><trkpt lat="43.7011876" lon="12.5850733"><ele>566.6666666666666</ele><time>2026-04-11T07:07:55.458Z</time></trkpt><trkpt lat="43.7012751" lon="12.5850377"><ele>568.0</ele><time>2026-04-11T07:07:56.459Z</time></trkpt><trkpt lat="43.7013527" lon="12.5850056"><ele>569.3333333333333</ele><time>2026-04-11T07:07:57.459Z</time></trkpt><trkpt lat="43.70142" lon="12.5849789"><ele>570.6666666666666</ele><time>2026-04-11T07:07:58.458Z</time></trkpt><trkpt lat="43.7015243" lon="12.5849316"><ele>572.0</ele><time>2026-04-11T07:08:00.46Z</time></trkpt><trkpt lat="43.7015835" lon="12.584884"><ele>572.0</ele><time>2026-04-11T07:08:24.459Z</time></trkpt><trkpt lat="43.7014883" lon="12.5849337"><ele>572.0</ele><time>2026-04-11T07:08:32.459Z</time></trkpt><trkpt lat="43.7013693" lon="12.5849956"><ele>572.0</ele><time>2026-04-11T07:08:34.458Z</time></trkpt><trkpt lat="43.701296" lon="12.5850255"><ele>572.0</ele><time>2026-04-11T07:08:35.459Z</time></trkpt><trkpt lat="43.7012132" lon="12.5850623"><ele>572.0</ele><time>2026-04-11T07:08:36.458Z</time></trkpt><trkpt lat="43.7011437" lon="12.5850972"><ele>570.6666666666666</ele><time>2026-04-11T07:08:37.458Z</time></trkpt><trkpt lat="43.701078" lon="12.5851277"><ele>569.3333333333333</ele><time>2026-04-11T07:08:38.458Z</time></trkpt><trkpt lat="43.7010157" lon="12.5851464"><ele>568.0</ele><time>2026-04-11T07:08:39.458Z</time></trkpt><trkpt lat="43.7009151" lon="12.5851166"><ele>566.6666666666666</ele><time>2026-04-11T07:08:41.458Z</time></trkpt><trkpt lat="43.7008497" lon="12.5850348"><ele>565.3333333333334</ele><time>2026-04-11T07:08:43.459Z</time></trkpt><trkpt lat="43.7008155" lon="12.5849189"><ele>564.0</ele><time>2026-04-11T07:08:45.458Z</time></trkpt><trkpt lat="43.700803" lon="12.5847691"><ele>564.0</ele><time>2026-04-11T07:08:47.458Z</time></trkpt><trkpt lat="43.7007901" lon="12.5846023"><ele>564.0</ele><time>2026-04-11T07:08:49.458Z</time></trkpt><trkpt lat="43.7007834" lon="12.584425"><ele>564.0</ele><time>2026-04-11T07:08:51.458Z</time></trkpt><trkpt lat="43.7007986" lon="12.5843308"><ele>564.0</ele><time>2026-04-11T07:08:52.458Z</time></trkpt><trkpt lat="43.7008333" lon="12.5842315"><ele>564.0</ele><time>2026-04-11T07:08:53.458Z</time></trkpt><trkpt lat="43.7008731" lon="12.5841394"><ele>564.2857142857143</ele><time>2026-04-11T07:08:54.458Z</time></trkpt><trkpt lat="43.7009145" lon="12.5840552"><ele>564.5714285714286</ele><time>2026-04-11T07:08:55.459Z</time></trkpt><trkpt lat="43.7009562" lon="12.5839728"><ele>564.8571428571429</ele><time>2026-04-11T07:08:56.458Z</time></trkpt><trkpt lat="43.701001" lon="12.5838929"><ele>565.1428571428571</ele><time>2026-04-11T07:08:57.458Z</time></trkpt><trkpt lat="43.7010475" lon="12.5838185"><ele>565.4285714285714</ele><time>2026-04-11T07:08:58.458Z</time></trkpt><trkpt lat="43.7010991" lon="12.5837555"><ele>565.7142857142858</ele><time>2026-04-11T07:08:59.458Z</time></trkpt><trkpt lat="43.7011531" lon="12.5836985"><ele>566.0</ele><time>2026-04-11T07:09:00.459Z</time></trkpt><trkpt lat="43.7012087" lon="12.5836468"><ele>564.8</ele><time>2026-04-11T07:09:01.458Z</time></trkpt><trkpt lat="43.7012594" lon="12.5835784"><ele>563.6</ele><time>2026-04-11T07:09:02.459Z</time></trkpt><trkpt lat="43.7013208" lon="12.5834992"><ele>562.4</ele><time>2026-04-11T07:09:03.458Z</time></trkpt><trkpt lat="43.701379" lon="12.5833884"><ele>561.2</ele><time>2026-04-11T07:09:04.459Z</time></trkpt><trkpt lat="43.7014426" lon="12.5832507"><ele>560.0</ele><time>2026-04-11T07:09:05.458Z</time></trkpt><trkpt lat="43.701501" lon="12.5831278"><ele>560.0</ele><time>2026-04-11T07:09:06.459Z</time></trkpt><trkpt lat="43.7015518" lon="12.5829994"><ele>560.0</ele><time>2026-04-11T07:09:07.458Z</time></trkpt><trkpt lat="43.701596" lon="12.5828741"><ele>560.0</ele><time>2026-04-11T07:09:08.458Z</time></trkpt><trkpt lat="43.7016333" lon="12.5827507"><ele>560.0</ele><time>2026-04-11T07:09:09.458Z</time></trkpt><trkpt lat="43.7016613" lon="12.5826262"><ele>560.0</ele><time>2026-04-11T07:09:10.459Z</time></trkpt><trkpt lat="43.7016868" lon="12.5825058"><ele>558.5</ele><time>2026-04-11T07:09:11.458Z</time></trkpt><trkpt lat="43.7017108" lon="12.5823892"><ele>557.0</ele><time>2026-04-11T07:09:12.458Z</time></trkpt><trkpt lat="43.7017326" lon="12.582275"><ele>555.5</ele><time>2026-04-11T07:09:13.458Z</time></trkpt><trkpt lat="43.7017542" lon="12.5821642"><ele>554.0</ele><time>2026-04-11T07:09:14.458Z</time></trkpt><trkpt lat="43.7017748" lon="12.5820533"><ele>552.5</ele><time>2026-04-11T07:09:15.459Z</time></trkpt><trkpt lat="43.7017943" lon="12.5819457"><ele>551.0</ele><time>2026-04-11T07:09:16.458Z</time></trkpt><trkpt lat="43.7018127" lon="12.5818457"><ele>551.5</ele><time>2026-04-11T07:09:17.458Z</time></trkpt><trkpt lat="43.7018305" lon="12.5817602"><ele>552.0</ele><time>2026-04-11T07:09:18.458Z</time></trkpt><trkpt lat="43.701858" lon="12.5816509"><ele>552.5</ele><time>2026-04-11T07:09:20.459Z</time></trkpt><trkpt lat="43.7018989" lon="12.5815342"><ele>553.0</ele><time>2026-04-11T07:09:22.458Z</time></trkpt><trkpt lat="43.7019497" lon="12.5814734"><ele>553.5</ele><time>2026-04-11T07:09:23.459Z</time></trkpt><trkpt lat="43.7020655" lon="12.5814223"><ele>554.0</ele><time>2026-04-11T07:09:25.458Z</time></trkpt><trkpt lat="43.7021875" lon="12.5813794"><ele>554.0</ele><time>2026-04-11T07:09:27.458Z</time></trkpt><trkpt lat="43.7022511" lon="12.5813552"><ele>554.0</ele><time>2026-04-11T07:09:28.458Z</time></trkpt><trkpt lat="43.7023187" lon="12.5813349"><ele>554.0</ele><time>2026-04-11T07:09:29.458Z</time></trkpt><trkpt lat="43.7023886" lon="12.58131"><ele>554.0</ele><time>2026-04-11T07:09:30.458Z</time></trkpt><trkpt lat="43.7024655" lon="12.5812862"><ele>554.0</ele><time>2026-04-11T07:09:31.458Z</time></trkpt><trkpt lat="43.7025483" lon="12.5812584"><ele>554.0</ele><time>2026-04-11T07:09:32.459Z</time></trkpt><trkpt lat="43.7026357" lon="12.5812177"><ele>549.8</ele><time>2026-04-11T07:09:33.458Z</time></trkpt><trkpt lat="43.7027267" lon="12.5811646"><ele>545.5999999999999</ele><time>2026-04-11T07:09:34.459Z</time></trkpt><trkpt lat="43.7028184" lon="12.5810963"><ele>541.4</ele><time>2026-04-11T07:09:35.458Z</time></trkpt><trkpt lat="43.7029076" lon="12.5810099"><ele>537.1999999999999</ele><time>2026-04-11T07:09:36.458Z</time></trkpt><trkpt lat="43.703" lon="12.5809153"><ele>533.0</ele><time>2026-04-11T07:09:37.458Z</time></trkpt><trkpt lat="43.7031033" lon="12.5808237"><ele>533.0</ele><time>2026-04-11T07:09:38.459Z</time></trkpt><trkpt lat="43.7032169" lon="12.5807297"><ele>533.0</ele><time>2026-04-11T07:09:39.458Z</time></trkpt><trkpt lat="43.7033283" lon="12.5806194"><ele>533.0</ele><time>2026-04-11T07:09:40.458Z</time></trkpt><trkpt lat="43.7034349" lon="12.5804975"><ele>533.0</ele><time>2026-04-11T07:09:41.459Z</time></trkpt><trkpt lat="43.7035347" lon="12.5803663"><ele>529.5</ele><time>2026-04-11T07:09:42.458Z</time></trkpt><trkpt lat="43.7036255" lon="12.5802415"><ele>526.0</ele><time>2026-04-11T07:09:43.458Z</time></trkpt><trkpt lat="43.7037104" lon="12.5801184"><ele>522.5</ele><time>2026-04-11T07:09:44.459Z</time></trkpt><trkpt lat="43.7037886" lon="12.5800054"><ele>519.0</ele><time>2026-04-11T07:09:45.459Z</time></trkpt><trkpt lat="43.7038599" lon="12.5799017"><ele>519.0</ele><time>2026-04-11T07:09:46.458Z</time></trkpt><trkpt lat="43.7039285" lon="12.5798053"><ele>519.0</ele><time>2026-04-11T07:09:47.458Z</time></trkpt><trkpt lat="43.7039913" lon="12.5797296"><ele>519.0</ele><time>2026-04-11T07:09:48.458Z</time></trkpt><trkpt lat="43.7040511" lon="12.5796688"><ele>519.0</ele><time>2026-04-11T07:09:49.458Z</time></trkpt><trkpt lat="43.7041072" lon="12.5796242"><ele>519.0</ele><time>2026-04-11T07:09:50.458Z</time></trkpt><trkpt lat="43.7042201" lon="12.5796386"><ele>519.0</ele><time>2026-04-11T07:09:52.458Z</time></trkpt><trkpt lat="43.7043093" lon="12.579738"><ele>519.0</ele><time>2026-04-11T07:09:54.458Z</time></trkpt><trkpt lat="43.7043952" lon="12.5798196"><ele>519.0</ele><time>2026-04-11T07:09:56.458Z</time></trkpt><trkpt lat="43.704475" lon="12.5797765"><ele>519.0</ele><time>2026-04-11T07:09:58.458Z</time></trkpt><trkpt lat="43.7045185" lon="12.5796723"><ele>519.0</ele><time>2026-04-11T07:10:00.458Z</time></trkpt><trkpt lat="43.7045168" lon="12.5795666"><ele>519.0</ele><time>2026-04-11T07:10:01.458Z</time></trkpt><trkpt lat="43.7044664" lon="12.5794566"><ele>519.0</ele><time>2026-04-11T07:10:02.458Z</time></trkpt><trkpt lat="43.704421" lon="12.5793687"><ele>516.0</ele><time>2026-04-11T07:10:03.458Z</time></trkpt><trkpt lat="43.7043604" lon="12.5793095"><ele>513.0</ele><time>2026-04-11T07:10:04.458Z</time></trkpt><trkpt lat="43.7042856" lon="12.5792709"><ele>510.0</ele><time>2026-04-11T07:10:05.458Z</time></trkpt><trkpt lat="43.7041951" lon="12.5792644"><ele>507.0</ele><time>2026-04-11T07:10:06.458Z</time></trkpt><trkpt lat="43.7040928" lon="12.5792783"><ele>504.0</ele><time>2026-04-11T07:10:07.459Z</time></trkpt><trkpt lat="43.7040004" lon="12.5793095"><ele>501.0</ele><time>2026-04-11T07:10:08.459Z</time></trkpt><trkpt lat="43.7039131" lon="12.5793393"><ele>501.0</ele><time>2026-04-11T07:10:09.458Z</time></trkpt><trkpt lat="43.7038294" lon="12.5793691"><ele>501.0</ele><time>2026-04-11T07:10:10.458Z</time></trkpt><trkpt lat="43.703748" lon="12.5794003"><ele>501.0</ele><time>2026-04-11T07:10:11.458Z</time></trkpt><trkpt lat="43.7036695" lon="12.5794378"><ele>501.0</ele><time>2026-04-11T07:10:12.459Z</time></trkpt><trkpt lat="43.7035922" lon="12.5794893"><ele>501.0</ele><time>2026-04-11T07:10:13.458Z</time></trkpt><trkpt lat="43.7035163" lon="12.5795439"><ele>501.0</ele><time>2026-04-11T07:10:14.458Z</time></trkpt><trkpt lat="43.7034251" lon="12.5796144"><ele>502.4</ele><time>2026-04-11T07:10:15.459Z</time></trkpt><trkpt lat="43.7033299" lon="12.5796938"><ele>503.8</ele><time>2026-04-11T07:10:16.458Z</time></trkpt><trkpt lat="43.7032454" lon="12.579776"><ele>505.19999999999993</ele><time>2026-04-11T07:10:17.458Z</time></trkpt><trkpt lat="43.703165" lon="12.5798479"><ele>506.59999999999997</ele><time>2026-04-11T07:10:18.458Z</time></trkpt><trkpt lat="43.7030898" lon="12.5799016"><ele>508.0</ele><time>2026-04-11T07:10:19.459Z</time></trkpt><trkpt lat="43.7030257" lon="12.579938"><ele>508.0</ele><time>2026-04-11T07:10:20.459Z</time></trkpt><trkpt lat="43.7029143" lon="12.5799636"><ele>507.99999999999994</ele><time>2026-04-11T07:10:22.458Z</time></trkpt><trkpt lat="43.7028174" lon="12.579917"><ele>507.99999999999994</ele><time>2026-04-11T07:10:24.46Z</time></trkpt><trkpt lat="43.7027688" lon="12.5798131"><ele>508.0</ele><time>2026-04-11T07:10:26.46Z</time></trkpt><trkpt lat="43.7027785" lon="12.5796884"><ele>508.0</ele><time>2026-04-11T07:10:28.458Z</time></trkpt><trkpt lat="43.702835" lon="12.5795355"><ele>505.33333333333337</ele><time>2026-04-11T07:10:30.458Z</time></trkpt><trkpt lat="43.7028694" lon="12.5794541"><ele>502.6666666666667</ele><time>2026-04-11T07:10:31.458Z</time></trkpt><trkpt lat="43.7029033" lon="12.579369"><ele>500.0</ele><time>2026-04-11T07:10:32.459Z</time></trkpt><trkpt lat="43.7029331" lon="12.5792756"><ele>497.33333333333337</ele><time>2026-04-11T07:10:33.458Z</time></trkpt><trkpt lat="43.7029572" lon="12.5791548"><ele>494.6666666666667</ele><time>2026-04-11T07:10:34.459Z</time></trkpt><trkpt lat="43.7029809" lon="12.5790133"><ele>492.0</ele><time>2026-04-11T07:10:35.458Z</time></trkpt><trkpt lat="43.702996" lon="12.5789024"><ele>492.0</ele><time>2026-04-11T07:10:36.458Z</time></trkpt><trkpt lat="43.7030022" lon="12.5788085"><ele>492.0</ele><time>2026-04-11T07:10:37.458Z</time></trkpt><trkpt lat="43.7030081" lon="12.5786882"><ele>492.0</ele><time>2026-04-11T07:10:39.46Z</time></trkpt><trkpt lat="43.7030544" lon="12.5786079"><ele>492.0</ele><time>2026-04-11T07:10:41.459Z</time></trkpt><trkpt lat="43.7031849" lon="12.5786137"><ele>492.0</ele><time>2026-04-11T07:10:43.459Z</time></trkpt><trkpt lat="43.7032682" lon="12.5786424"><ele>492.0</ele><time>2026-04-11T07:10:44.459Z</time></trkpt><trkpt lat="43.7033792" lon="12.5786711"><ele>492.0</ele><time>2026-04-11T07:10:45.458Z</time></trkpt><trkpt lat="43.7034994" lon="12.5787017"><ele>492.0</ele><time>2026-04-11T07:10:46.459Z</time></trkpt><trkpt lat="43.7036256" lon="12.578734"><ele>492.0</ele><time>2026-04-11T07:10:47.458Z</time></trkpt><trkpt lat="43.703749" lon="12.5787554"><ele>492.0</ele><time>2026-04-11T07:10:48.458Z</time></trkpt><trkpt lat="43.7038731" lon="12.578741"><ele>493.20000000000005</ele><time>2026-04-11T07:10:49.459Z</time></trkpt><trkpt lat="43.7039877" lon="12.57871"><ele>494.40000000000003</ele><time>2026-04-11T07:10:50.459Z</time></trkpt><trkpt lat="43.7040855" lon="12.5786576"><ele>495.59999999999997</ele><time>2026-04-11T07:10:51.458Z</time></trkpt><trkpt lat="43.704176" lon="12.5786098"><ele>496.79999999999995</ele><time>2026-04-11T07:10:52.458Z</time></trkpt><trkpt lat="43.7042623" lon="12.5785601"><ele>498.0</ele><time>2026-04-11T07:10:53.459Z</time></trkpt><trkpt lat="43.7043535" lon="12.5785101"><ele>494.79999999999995</ele><time>2026-04-11T07:10:54.458Z</time></trkpt><trkpt lat="43.7044458" lon="12.5784651"><ele>491.59999999999997</ele><time>2026-04-11T07:10:55.458Z</time></trkpt><trkpt lat="43.7045407" lon="12.5784478"><ele>488.40000000000003</ele><time>2026-04-11T07:10:56.458Z</time></trkpt><trkpt lat="43.7046346" lon="12.5784761"><ele>485.20000000000005</ele><time>2026-04-11T07:10:57.458Z</time></trkpt><trkpt lat="43.7047171" lon="12.5785388"><ele>482.0</ele><time>2026-04-11T07:10:58.459Z</time></trkpt><trkpt lat="43.704783" lon="12.5786346"><ele>483.0</ele><time>2026-04-11T07:10:59.458Z</time></trkpt><trkpt lat="43.7048337" lon="12.5787517"><ele>484.00000000000006</ele><time>2026-04-11T07:11:00.458Z</time></trkpt><trkpt lat="43.7048766" lon="12.5788665"><ele>485.00000000000006</ele><time>2026-04-11T07:11:01.458Z</time></trkpt><trkpt lat="43.7049218" lon="12.5789867"><ele>486.0</ele><time>2026-04-11T07:11:02.459Z</time></trkpt><trkpt lat="43.7049681" lon="12.5791173"><ele>487.0</ele><time>2026-04-11T07:11:03.458Z</time></trkpt><trkpt lat="43.7050092" lon="12.5792633"><ele>487.0</ele><time>2026-04-11T07:11:04.46Z</time></trkpt><trkpt lat="43.7050295" lon="12.5794158"><ele>487.0</ele><time>2026-04-11T07:11:05.458Z</time></trkpt><trkpt lat="43.70503" lon="12.5795732"><ele>487.0</ele><time>2026-04-11T07:11:06.458Z</time></trkpt><trkpt lat="43.7050238" lon="12.5797373"><ele>487.0</ele><time>2026-04-11T07:11:07.458Z</time></trkpt><trkpt lat="43.7050148" lon="12.5799053"><ele>487.75</ele><time>2026-04-11T07:11:08.458Z</time></trkpt><trkpt lat="43.7050032" lon="12.580073"><ele>488.5</ele><time>2026-04-11T07:11:09.458Z</time></trkpt><trkpt lat="43.7049927" lon="12.5802393"><ele>489.25</ele><time>2026-04-11T07:11:10.458Z</time></trkpt><trkpt lat="43.7049886" lon="12.5804101"><ele>490.0</ele><time>2026-04-11T07:11:11.459Z</time></trkpt><trkpt lat="43.7049825" lon="12.5805832"><ele>490.0</ele><time>2026-04-11T07:11:12.458Z</time></trkpt><trkpt lat="43.7049804" lon="12.5807554"><ele>490.0</ele><time>2026-04-11T07:11:13.46Z</time></trkpt><trkpt lat="43.7049895" lon="12.5809299"><ele>490.0</ele><time>2026-04-11T07:11:14.458Z</time></trkpt><trkpt lat="43.7050123" lon="12.581095"><ele>490.0</ele><time>2026-04-11T07:11:15.458Z</time></trkpt><trkpt lat="43.7050444" lon="12.5812498"><ele>491.2</ele><time>2026-04-11T07:11:16.458Z</time></trkpt><trkpt lat="43.7050849" lon="12.5813969"><ele>492.4</ele><time>2026-04-11T07:11:17.459Z</time></trkpt><trkpt lat="43.7051283" lon="12.5815359"><ele>493.6</ele><time>2026-04-11T07:11:18.459Z</time></trkpt><trkpt lat="43.7051671" lon="12.5816724"><ele>494.8</ele><time>2026-04-11T07:11:19.458Z</time></trkpt><trkpt lat="43.7051937" lon="12.5818101"><ele>496.0</ele><time>2026-04-11T07:11:20.459Z</time></trkpt><trkpt lat="43.7052114" lon="12.5819647"><ele>496.25</ele><time>2026-04-11T07:11:21.46Z</time></trkpt><trkpt lat="43.7052234" lon="12.5821273"><ele>496.5</ele><time>2026-04-11T07:11:22.458Z</time></trkpt><trkpt lat="43.7052304" lon="12.5823024"><ele>496.75</ele><time>2026-04-11T07:11:23.459Z</time></trkpt><trkpt lat="43.7052263" lon="12.5824654"><ele>497.0</ele><time>2026-04-11T07:11:24.458Z</time></trkpt><trkpt lat="43.7052063" lon="12.5826079"><ele>497.0</ele><time>2026-04-11T07:11:25.458Z</time></trkpt><trkpt lat="43.7051829" lon="12.5827419"><ele>497.0</ele><time>2026-04-11T07:11:26.459Z</time></trkpt><trkpt lat="43.7051499" lon="12.5828762"><ele>497.0</ele><time>2026-04-11T07:11:27.46Z</time></trkpt><trkpt lat="43.7051063" lon="12.583029"><ele>497.0</ele><time>2026-04-11T07:11:28.458Z</time></trkpt><trkpt lat="43.7050379" lon="12.5832116"><ele>495.25</ele><time>2026-04-11T07:11:29.458Z</time></trkpt><trkpt lat="43.7049432" lon="12.5833872"><ele>493.5</ele><time>2026-04-11T07:11:30.458Z</time></trkpt><trkpt lat="43.7048493" lon="12.5835471"><ele>491.75</ele><time>2026-04-11T07:11:31.458Z</time></trkpt><trkpt lat="43.7047879" lon="12.5837147"><ele>490.0</ele><time>2026-04-11T07:11:32.459Z</time></trkpt><trkpt lat="43.7047604" lon="12.5838998"><ele>489.0</ele><time>2026-04-11T07:11:33.458Z</time></trkpt><trkpt lat="43.7047738" lon="12.5840981"><ele>488.0</ele><time>2026-04-11T07:11:34.458Z</time></trkpt><trkpt lat="43.7048338" lon="12.5843101"><ele>487.0</ele><time>2026-04-11T07:11:35.458Z</time></trkpt><trkpt lat="43.7049176" lon="12.5845246"><ele>487.0</ele><time>2026-04-11T07:11:36.458Z</time></trkpt><trkpt lat="43.7049707" lon="12.5847206"><ele>487.0</ele><time>2026-04-11T07:11:37.459Z</time></trkpt><trkpt lat="43.7049818" lon="12.5849234"><ele>487.0</ele><time>2026-04-11T07:11:38.458Z</time></trkpt><trkpt lat="43.7049609" lon="12.5851393"><ele>487.0</ele><time>2026-04-11T07:11:39.458Z</time></trkpt><trkpt lat="43.7049474" lon="12.5853613"><ele>487.0</ele><time>2026-04-11T07:11:40.458Z</time></trkpt><trkpt lat="43.7049702" lon="12.5855999"><ele>487.0</ele><time>2026-04-11T07:11:41.459Z</time></trkpt><trkpt lat="43.705018" lon="12.5858601"><ele>487.0</ele><time>2026-04-11T07:11:42.458Z</time></trkpt><trkpt lat="43.7050796" lon="12.5861326"><ele>487.0</ele><time>2026-04-11T07:11:43.458Z</time></trkpt><trkpt lat="43.705138" lon="12.5863874"><ele>487.0</ele><time>2026-04-11T07:11:44.458Z</time></trkpt><trkpt lat="43.7051973" lon="12.5866199"><ele>484.6666666666667</ele><time>2026-04-11T07:11:45.458Z</time></trkpt><trkpt lat="43.7052578" lon="12.5868191"><ele>482.33333333333337</ele><time>2026-04-11T07:11:46.458Z</time></trkpt><trkpt lat="43.7053376" lon="12.5869926"><ele>480.0</ele><time>2026-04-11T07:11:47.458Z</time></trkpt><trkpt lat="43.7054479" lon="12.5871349"><ele>480.0</ele><time>2026-04-11T07:11:48.458Z</time></trkpt><trkpt lat="43.7055762" lon="12.5872526"><ele>480.0</ele><time>2026-04-11T07:11:49.458Z</time></trkpt><trkpt lat="43.7056864" lon="12.5873728"><ele>480.0</ele><time>2026-04-11T07:11:50.458Z</time></trkpt><trkpt lat="43.7057597" lon="12.5875202"><ele>480.0</ele><time>2026-04-11T07:11:51.458Z</time></trkpt><trkpt lat="43.7058097" lon="12.5876975"><ele>481.0</ele><time>2026-04-11T07:11:52.458Z</time></trkpt><trkpt lat="43.7058417" lon="12.5878922"><ele>482.0</ele><time>2026-04-11T07:11:53.458Z</time></trkpt><trkpt lat="43.705852" lon="12.5880893"><ele>483.0</ele><time>2026-04-11T07:11:54.459Z</time></trkpt><trkpt lat="43.7058546" lon="12.5882726"><ele>484.0</ele><time>2026-04-11T07:11:55.459Z</time></trkpt><trkpt lat="43.7058652" lon="12.5884432"><ele>484.0</ele><time>2026-04-11T07:11:56.458Z</time></trkpt><trkpt lat="43.7058933" lon="12.5886119"><ele>484.0</ele><time>2026-04-11T07:11:57.459Z</time></trkpt><trkpt lat="43.705921" lon="12.5887847"><ele>484.0</ele><time>2026-04-11T07:11:58.458Z</time></trkpt><trkpt lat="43.7059389" lon="12.5889524"><ele>484.0</ele><time>2026-04-11T07:11:59.459Z</time></trkpt><trkpt lat="43.7059423" lon="12.5891129"><ele>483.0</ele><time>2026-04-11T07:12:00.459Z</time></trkpt><trkpt lat="43.7059242" lon="12.5892617"><ele>482.0</ele><time>2026-04-11T07:12:01.459Z</time></trkpt><trkpt lat="43.7058711" lon="12.589394"><ele>481.0</ele><time>2026-04-11T07:12:02.459Z</time></trkpt><trkpt lat="43.7057973" lon="12.5895202"><ele>480.0</ele><time>2026-04-11T07:12:03.458Z</time></trkpt><trkpt lat="43.7057216" lon="12.5896684"><ele>477.75</ele><time>2026-04-11T07:12:04.458Z</time></trkpt><trkpt lat="43.7056492" lon="12.5898254"><ele>475.5</ele><time>2026-04-11T07:12:05.458Z</time></trkpt><trkpt lat="43.7055726" lon="12.5899658"><ele>473.25</ele><time>2026-04-11T07:12:06.458Z</time></trkpt><trkpt lat="43.7054821" lon="12.5900761"><ele>471.0</ele><time>2026-04-11T07:12:07.458Z</time></trkpt><trkpt lat="43.7053885" lon="12.5901458"><ele>471.0</ele><time>2026-04-11T07:12:08.458Z</time></trkpt><trkpt lat="43.7053071" lon="12.5901857"><ele>471.0</ele><time>2026-04-11T07:12:09.458Z</time></trkpt><trkpt lat="43.7052353" lon="12.590229"><ele>471.0</ele><time>2026-04-11T07:12:10.458Z</time></trkpt><trkpt lat="43.7051958" lon="12.590364"><ele>471.0</ele><time>2026-04-11T07:12:12.459Z</time></trkpt><trkpt lat="43.7052727" lon="12.5904745"><ele>471.0</ele><time>2026-04-11T07:12:14.459Z</time></trkpt><trkpt lat="43.7053458" lon="12.5904933"><ele>471.0</ele><time>2026-04-11T07:12:15.458Z</time></trkpt><trkpt lat="43.7054505" lon="12.5904818"><ele>471.0</ele><time>2026-04-11T07:12:16.458Z</time></trkpt><trkpt lat="43.7055431" lon="12.5904638"><ele>471.0</ele><time>2026-04-11T07:12:17.458Z</time></trkpt><trkpt lat="43.7056352" lon="12.5904403"><ele>471.0</ele><time>2026-04-11T07:12:18.458Z</time></trkpt><trkpt lat="43.7057285" lon="12.5903636"><ele>471.0</ele><time>2026-04-11T07:12:19.458Z</time></trkpt><trkpt lat="43.7058078" lon="12.5902953"><ele>471.0</ele><time>2026-04-11T07:12:20.458Z</time></trkpt><trkpt lat="43.705876" lon="12.5901989"><ele>471.0</ele><time>2026-04-11T07:12:21.459Z</time></trkpt><trkpt lat="43.705937" lon="12.5901004"><ele>471.0</ele><time>2026-04-11T07:12:22.458Z</time></trkpt><trkpt lat="43.7059984" lon="12.5900035"><ele>471.0</ele><time>2026-04-11T07:12:23.458Z</time></trkpt><trkpt lat="43.7060609" lon="12.5899103"><ele>471.0</ele><time>2026-04-11T07:12:24.458Z</time></trkpt><trkpt lat="43.7061177" lon="12.5898175"><ele>465.8</ele><time>2026-04-11T07:12:25.458Z</time></trkpt><trkpt lat="43.7061686" lon="12.5897271"><ele>460.6</ele><time>2026-04-11T07:12:26.458Z</time></trkpt><trkpt lat="43.7062296" lon="12.5896136"><ele>455.4</ele><time>2026-04-11T07:12:27.458Z</time></trkpt><trkpt lat="43.706293" lon="12.5894627"><ele>450.2</ele><time>2026-04-11T07:12:28.46Z</time></trkpt><trkpt lat="43.7063463" lon="12.5892864"><ele>445.0</ele><time>2026-04-11T07:12:29.458Z</time></trkpt><trkpt lat="43.7063737" lon="12.5890736"><ele>445.0</ele><time>2026-04-11T07:12:30.459Z</time></trkpt><trkpt lat="43.7063786" lon="12.5888276"><ele>445.0</ele><time>2026-04-11T07:12:31.458Z</time></trkpt><trkpt lat="43.7063822" lon="12.5886085"><ele>445.0</ele><time>2026-04-11T07:12:32.458Z</time></trkpt><trkpt lat="43.7063944" lon="12.5883985"><ele>446.6666666666667</ele><time>2026-04-11T07:12:33.459Z</time></trkpt><trkpt lat="43.7064092" lon="12.5881889"><ele>448.33333333333337</ele><time>2026-04-11T07:12:34.459Z</time></trkpt><trkpt lat="43.7064346" lon="12.5879663"><ele>450.0</ele><time>2026-04-11T07:12:35.459Z</time></trkpt><trkpt lat="43.7064687" lon="12.5877632"><ele>450.5</ele><time>2026-04-11T07:12:36.459Z</time></trkpt><trkpt lat="43.7065027" lon="12.5875789"><ele>451.0</ele><time>2026-04-11T07:12:37.458Z</time></trkpt><trkpt lat="43.7065375" lon="12.5874183"><ele>451.5</ele><time>2026-04-11T07:12:38.458Z</time></trkpt><trkpt lat="43.7065786" lon="12.5872756"><ele>452.0</ele><time>2026-04-11T07:12:39.458Z</time></trkpt><trkpt lat="43.7066457" lon="12.5871563"><ele>452.0</ele><time>2026-04-11T07:12:40.458Z</time></trkpt><trkpt lat="43.7067517" lon="12.5870594"><ele>452.0</ele><time>2026-04-11T07:12:41.458Z</time></trkpt><trkpt lat="43.7068798" lon="12.5870099"><ele>452.0</ele><time>2026-04-11T07:12:42.458Z</time></trkpt><trkpt lat="43.7070144" lon="12.586994"><ele>452.0</ele><time>2026-04-11T07:12:43.458Z</time></trkpt><trkpt lat="43.7071507" lon="12.5869965"><ele>449.75</ele><time>2026-04-11T07:12:44.459Z</time></trkpt><trkpt lat="43.7072849" lon="12.5870272"><ele>447.5</ele><time>2026-04-11T07:12:45.458Z</time></trkpt><trkpt lat="43.7074247" lon="12.5870836"><ele>445.25</ele><time>2026-04-11T07:12:46.458Z</time></trkpt><trkpt lat="43.7075729" lon="12.5871438"><ele>443.0</ele><time>2026-04-11T07:12:47.458Z</time></trkpt><trkpt lat="43.7077268" lon="12.5872018"><ele>444.66666666666663</ele><time>2026-04-11T07:12:48.459Z</time></trkpt><trkpt lat="43.707882" lon="12.5872642"><ele>446.33333333333337</ele><time>2026-04-11T07:12:49.458Z</time></trkpt><trkpt lat="43.7080385" lon="12.5873391"><ele>448.0</ele><time>2026-04-11T07:12:50.458Z</time></trkpt><trkpt lat="43.7082048" lon="12.5874521"><ele>448.0</ele><time>2026-04-11T07:12:51.458Z</time></trkpt><trkpt lat="43.7083886" lon="12.587593"><ele>448.0</ele><time>2026-04-11T07:12:52.458Z</time></trkpt><trkpt lat="43.7085802" lon="12.5877534"><ele>448.0</ele><time>2026-04-11T07:12:53.458Z</time></trkpt><trkpt lat="43.7087522" lon="12.5879088"><ele>444.33333333333337</ele><time>2026-04-11T07:12:54.458Z</time></trkpt><trkpt lat="43.708918" lon="12.5880599"><ele>440.66666666666663</ele><time>2026-04-11T07:12:55.458Z</time></trkpt><trkpt lat="43.7090774" lon="12.5882011"><ele>437.0</ele><time>2026-04-11T07:12:56.458Z</time></trkpt><trkpt lat="43.7092263" lon="12.5883326"><ele>437.0</ele><time>2026-04-11T07:12:57.458Z</time></trkpt><trkpt lat="43.7093713" lon="12.5884486"><ele>437.0</ele><time>2026-04-11T07:12:58.458Z</time></trkpt><trkpt lat="43.7095113" lon="12.5885373"><ele>437.0</ele><time>2026-04-11T07:12:59.459Z</time></trkpt><trkpt lat="43.7096623" lon="12.5885841"><ele>436.0</ele><time>2026-04-11T07:13:00.458Z</time></trkpt><trkpt lat="43.7098314" lon="12.5885894"><ele>435.0</ele><time>2026-04-11T07:13:01.458Z</time></trkpt><trkpt lat="43.7100221" lon="12.5885538"><ele>434.0</ele><time>2026-04-11T07:13:02.458Z</time></trkpt><trkpt lat="43.7102234" lon="12.5884964"><ele>434.3333333333333</ele><time>2026-04-11T07:13:03.459Z</time></trkpt><trkpt lat="43.7104031" lon="12.5884436"><ele>434.66666666666663</ele><time>2026-04-11T07:13:04.459Z</time></trkpt><trkpt lat="43.710575" lon="12.588403"><ele>435.0</ele><time>2026-04-11T07:13:05.458Z</time></trkpt><trkpt lat="43.7107325" lon="12.5883904"><ele>435.0</ele><time>2026-04-11T07:13:06.459Z</time></trkpt><trkpt lat="43.7108784" lon="12.5884233"><ele>435.0</ele><time>2026-04-11T07:13:07.458Z</time></trkpt><trkpt lat="43.7110334" lon="12.5885051"><ele>435.0</ele><time>2026-04-11T07:13:08.458Z</time></trkpt><trkpt lat="43.7111764" lon="12.5886043"><ele>435.75</ele><time>2026-04-11T07:13:09.458Z</time></trkpt><trkpt lat="43.7112844" lon="12.5887031"><ele>436.5</ele><time>2026-04-11T07:13:10.459Z</time></trkpt><trkpt lat="43.7113649" lon="12.5888195"><ele>437.25</ele><time>2026-04-11T07:13:11.458Z</time></trkpt><trkpt lat="43.7114074" lon="12.5889629"><ele>438.0</ele><time>2026-04-11T07:13:12.458Z</time></trkpt><trkpt lat="43.7114204" lon="12.5891298"><ele>438.0</ele><time>2026-04-11T07:13:13.458Z</time></trkpt><trkpt lat="43.7114386" lon="12.5892921"><ele>437.99999999999994</ele><time>2026-04-11T07:13:14.458Z</time></trkpt><trkpt lat="43.7114854" lon="12.5894327"><ele>437.99999999999994</ele><time>2026-04-11T07:13:15.458Z</time></trkpt><trkpt lat="43.7115545" lon="12.5895378"><ele>438.0</ele><time>2026-04-11T07:13:16.458Z</time></trkpt><trkpt lat="43.7116351" lon="12.5896059"><ele>438.0</ele><time>2026-04-11T07:13:17.458Z</time></trkpt><trkpt lat="43.7117284" lon="12.589635"><ele>435.0</ele><time>2026-04-11T07:13:18.459Z</time></trkpt><trkpt lat="43.7118525" lon="12.589627"><ele>432.0</ele><time>2026-04-11T07:13:19.458Z</time></trkpt><trkpt lat="43.7119959" lon="12.5895978"><ele>429.0</ele><time>2026-04-11T07:13:20.458Z</time></trkpt><trkpt lat="43.7121527" lon="12.5895831"><ele>426.0</ele><time>2026-04-11T07:13:21.459Z</time></trkpt><trkpt lat="43.7123181" lon="12.5896167"><ele>426.0</ele><time>2026-04-11T07:13:22.458Z</time></trkpt><trkpt lat="43.7125039" lon="12.5896953"><ele>426.0</ele><time>2026-04-11T07:13:23.458Z</time></trkpt><trkpt lat="43.712677" lon="12.5897884"><ele>426.0</ele><time>2026-04-11T07:13:24.458Z</time></trkpt><trkpt lat="43.7128521" lon="12.5898773"><ele>427.33333333333337</ele><time>2026-04-11T07:13:25.458Z</time></trkpt><trkpt lat="43.7130295" lon="12.5899763"><ele>428.6666666666667</ele><time>2026-04-11T07:13:26.458Z</time></trkpt><trkpt lat="43.7132023" lon="12.59009"><ele>430.0</ele><time>2026-04-11T07:13:27.459Z</time></trkpt><trkpt lat="43.7133751" lon="12.5902097"><ele>430.0</ele><time>2026-04-11T07:13:28.458Z</time></trkpt><trkpt lat="43.7135513" lon="12.590322"><ele>430.0</ele><time>2026-04-11T07:13:29.459Z</time></trkpt><trkpt lat="43.7137144" lon="12.5904276"><ele>430.0</ele><time>2026-04-11T07:13:30.458Z</time></trkpt><trkpt lat="43.7138641" lon="12.5905307"><ele>429.33333333333337</ele><time>2026-04-11T07:13:31.458Z</time></trkpt><trkpt lat="43.7140071" lon="12.5906262"><ele>428.66666666666663</ele><time>2026-04-11T07:13:32.458Z</time></trkpt><trkpt lat="43.714147" lon="12.5907249"><ele>428.0</ele><time>2026-04-11T07:13:33.458Z</time></trkpt><trkpt lat="43.7142885" lon="12.5908381"><ele>431.0</ele><time>2026-04-11T07:13:34.458Z</time></trkpt><trkpt lat="43.7144338" lon="12.5909534"><ele>434.0</ele><time>2026-04-11T07:13:35.459Z</time></trkpt><trkpt lat="43.7145735" lon="12.5910634"><ele>437.0</ele><time>2026-04-11T07:13:36.459Z</time></trkpt><trkpt lat="43.7146972" lon="12.5911759"><ele>437.0</ele><time>2026-04-11T07:13:37.458Z</time></trkpt><trkpt lat="43.7147805" lon="12.5913223"><ele>437.0</ele><time>2026-04-11T07:13:38.459Z</time></trkpt><trkpt lat="43.7148472" lon="12.5914959"><ele>437.0</ele><time>2026-04-11T07:13:39.458Z</time></trkpt><trkpt lat="43.7149012" lon="12.59168"><ele>437.0</ele><time>2026-04-11T07:13:40.459Z</time></trkpt><trkpt lat="43.7149617" lon="12.591882"><ele>433.0</ele><time>2026-04-11T07:13:41.458Z</time></trkpt><trkpt lat="43.7150515" lon="12.5920778"><ele>429.0</ele><time>2026-04-11T07:13:42.458Z</time></trkpt><trkpt lat="43.7151377" lon="12.5922497"><ele>425.0</ele><time>2026-04-11T07:13:43.459Z</time></trkpt><trkpt lat="43.7152192" lon="12.592413"><ele>428.5</ele><time>2026-04-11T07:13:44.458Z</time></trkpt><trkpt lat="43.7153064" lon="12.5925526"><ele>432.0</ele><time>2026-04-11T07:13:45.458Z</time></trkpt><trkpt lat="43.7153951" lon="12.5926688"><ele>435.5</ele><time>2026-04-11T07:13:46.459Z</time></trkpt><trkpt lat="43.7154821" lon="12.5927554"><ele>439.0</ele><time>2026-04-11T07:13:47.458Z</time></trkpt><trkpt lat="43.7155742" lon="12.5927961"><ele>439.0</ele><time>2026-04-11T07:13:48.459Z</time></trkpt><trkpt lat="43.7156655" lon="12.592813"><ele>439.0</ele><time>2026-04-11T07:13:49.458Z</time></trkpt><trkpt lat="43.7157549" lon="12.5927601"><ele>439.0</ele><time>2026-04-11T07:13:50.458Z</time></trkpt><trkpt lat="43.7158712" lon="12.5926672"><ele>439.0</ele><time>2026-04-11T07:13:51.458Z</time></trkpt><trkpt lat="43.7159951" lon="12.5926583"><ele>439.0</ele><time>2026-04-11T07:13:52.458Z</time></trkpt><trkpt lat="43.7161188" lon="12.5927043"><ele>438.25</ele><time>2026-04-11T07:13:53.458Z</time></trkpt><trkpt lat="43.7162376" lon="12.5927565"><ele>437.5</ele><time>2026-04-11T07:13:54.458Z</time></trkpt><trkpt lat="43.7163688" lon="12.5928045"><ele>436.75</ele><time>2026-04-11T07:13:55.458Z</time></trkpt><trkpt lat="43.7165294" lon="12.5928277"><ele>436.0</ele><time>2026-04-11T07:13:56.458Z</time></trkpt><trkpt lat="43.7166968" lon="12.5928319"><ele>436.0</ele><time>2026-04-11T07:13:57.458Z</time></trkpt><trkpt lat="43.7168505" lon="12.5928307"><ele>436.0</ele><time>2026-04-11T07:13:58.458Z</time></trkpt><trkpt lat="43.7170029" lon="12.5928254"><ele>436.0</ele><time>2026-04-11T07:13:59.458Z</time></trkpt><trkpt lat="43.7171439" lon="12.5928205"><ele>436.0</ele><time>2026-04-11T07:14:00.459Z</time></trkpt><trkpt lat="43.7172694" lon="12.5928439"><ele>432.20000000000005</ele><time>2026-04-11T07:14:01.458Z</time></trkpt><trkpt lat="43.7173759" lon="12.592901"><ele>428.40000000000003</ele><time>2026-04-11T07:14:02.459Z</time></trkpt><trkpt lat="43.7174543" lon="12.5929972"><ele>424.6</ele><time>2026-04-11T07:14:03.458Z</time></trkpt><trkpt lat="43.7175001" lon="12.5931154"><ele>420.8</ele><time>2026-04-11T07:14:04.46Z</time></trkpt><trkpt lat="43.7175334" lon="12.5932352"><ele>417.0</ele><time>2026-04-11T07:14:05.458Z</time></trkpt><trkpt lat="43.7175553" lon="12.593334"><ele>417.0</ele><time>2026-04-11T07:14:06.459Z</time></trkpt><trkpt lat="43.717613" lon="12.5934405"><ele>417.0</ele><time>2026-04-11T07:14:08.458Z</time></trkpt><trkpt lat="43.7176784" lon="12.5933792"><ele>417.0</ele><time>2026-04-11T07:14:10.458Z</time></trkpt><trkpt lat="43.7176985" lon="12.593285"><ele>417.0</ele><time>2026-04-11T07:14:11.458Z</time></trkpt><trkpt lat="43.7176972" lon="12.5931566"><ele>417.0</ele><time>2026-04-11T07:14:12.458Z</time></trkpt><trkpt lat="43.7177042" lon="12.5929948"><ele>417.66666666666663</ele><time>2026-04-11T07:14:13.458Z</time></trkpt><trkpt lat="43.717676" lon="12.5928079"><ele>418.3333333333333</ele><time>2026-04-11T07:14:14.458Z</time></trkpt><trkpt lat="43.7176227" lon="12.5925718"><ele>419.0</ele><time>2026-04-11T07:14:15.458Z</time></trkpt><trkpt lat="43.7175935" lon="12.5923142"><ele>419.0</ele><time>2026-04-11T07:14:16.459Z</time></trkpt><trkpt lat="43.7175847" lon="12.5920478"><ele>419.0</ele><time>2026-04-11T07:14:17.458Z</time></trkpt><trkpt lat="43.7175784" lon="12.5918147"><ele>419.0</ele><time>2026-04-11T07:14:18.458Z</time></trkpt><trkpt lat="43.7175786" lon="12.5916026"><ele>418.6</ele><time>2026-04-11T07:14:19.459Z</time></trkpt><trkpt lat="43.717567" lon="12.5914097"><ele>418.2</ele><time>2026-04-11T07:14:20.458Z</time></trkpt><trkpt lat="43.7175489" lon="12.5912555"><ele>417.8</ele><time>2026-04-11T07:14:21.458Z</time></trkpt><trkpt lat="43.7175405" lon="12.5911156"><ele>417.40000000000003</ele><time>2026-04-11T07:14:22.459Z</time></trkpt><trkpt lat="43.7175537" lon="12.5909934"><ele>417.0</ele><time>2026-04-11T07:14:23.458Z</time></trkpt><trkpt lat="43.7175765" lon="12.5908732"><ele>415.6</ele><time>2026-04-11T07:14:24.458Z</time></trkpt><trkpt lat="43.7175934" lon="12.5907548"><ele>414.20000000000005</ele><time>2026-04-11T07:14:25.458Z</time></trkpt><trkpt lat="43.7176059" lon="12.5906328"><ele>412.8</ele><time>2026-04-11T07:14:26.458Z</time></trkpt><trkpt lat="43.717621" lon="12.5905072"><ele>411.4</ele><time>2026-04-11T07:14:27.459Z</time></trkpt><trkpt lat="43.7176286" lon="12.5903783"><ele>410.0</ele><time>2026-04-11T07:14:28.458Z</time></trkpt><trkpt lat="43.7176253" lon="12.590239"><ele>409.0</ele><time>2026-04-11T07:14:29.459Z</time></trkpt><trkpt lat="43.7176216" lon="12.5900899"><ele>408.0</ele><time>2026-04-11T07:14:30.458Z</time></trkpt><trkpt lat="43.7176283" lon="12.5899273"><ele>407.0</ele><time>2026-04-11T07:14:31.459Z</time></trkpt><trkpt lat="43.7176428" lon="12.589741"><ele>406.0</ele><time>2026-04-11T07:14:32.458Z</time></trkpt><trkpt lat="43.7176755" lon="12.5895604"><ele>404.5</ele><time>2026-04-11T07:14:33.458Z</time></trkpt><trkpt lat="43.7177215" lon="12.5893928"><ele>403.0</ele><time>2026-04-11T07:14:34.458Z</time></trkpt><trkpt lat="43.7177562" lon="12.5892172"><ele>401.5</ele><time>2026-04-11T07:14:35.458Z</time></trkpt><trkpt lat="43.7177752" lon="12.5890175"><ele>400.0</ele><time>2026-04-11T07:14:36.458Z</time></trkpt><trkpt lat="43.7177819" lon="12.5888178"><ele>393.25</ele><time>2026-04-11T07:14:37.458Z</time></trkpt><trkpt lat="43.7177838" lon="12.5886291"><ele>386.5</ele><time>2026-04-11T07:14:38.459Z</time></trkpt><trkpt lat="43.7177889" lon="12.5884496"><ele>379.75</ele><time>2026-04-11T07:14:39.459Z</time></trkpt><trkpt lat="43.7178099" lon="12.5882707"><ele>373.0</ele><time>2026-04-11T07:14:40.458Z</time></trkpt><trkpt lat="43.7178586" lon="12.5881057"><ele>373.0</ele><time>2026-04-11T07:14:41.459Z</time></trkpt><trkpt lat="43.7179389" lon="12.5879385"><ele>373.0</ele><time>2026-04-11T07:14:42.458Z</time></trkpt><trkpt lat="43.7180346" lon="12.5877794"><ele>373.0</ele><time>2026-04-11T07:14:43.458Z</time></trkpt><trkpt lat="43.7181289" lon="12.5876091"><ele>374.0</ele><time>2026-04-11T07:14:44.458Z</time></trkpt><trkpt lat="43.7182279" lon="12.5874383"><ele>375.0</ele><time>2026-04-11T07:14:45.458Z</time></trkpt><trkpt lat="43.7183284" lon="12.587275"><ele>376.0</ele><time>2026-04-11T07:14:46.458Z</time></trkpt><trkpt lat="43.7184399" lon="12.5871292"><ele>376.0</ele><time>2026-04-11T07:14:47.458Z</time></trkpt><trkpt lat="43.7185659" lon="12.5870192"><ele>376.0</ele><time>2026-04-11T07:14:48.458Z</time></trkpt><trkpt lat="43.7187123" lon="12.5869322"><ele>376.0</ele><time>2026-04-11T07:14:49.458Z</time></trkpt><trkpt lat="43.7188696" lon="12.5868722"><ele>375.5</ele><time>2026-04-11T07:14:50.458Z</time></trkpt><trkpt lat="43.7190141" lon="12.5868291"><ele>375.0</ele><time>2026-04-11T07:14:51.459Z</time></trkpt><trkpt lat="43.7191529" lon="12.5867839"><ele>374.5</ele><time>2026-04-11T07:14:52.458Z</time></trkpt><trkpt lat="43.7192801" lon="12.5867424"><ele>374.0</ele><time>2026-04-11T07:14:53.458Z</time></trkpt><trkpt lat="43.7194015" lon="12.5866744"><ele>370.33333333333337</ele><time>2026-04-11T07:14:54.459Z</time></trkpt><trkpt lat="43.7195146" lon="12.5865621"><ele>366.6666666666667</ele><time>2026-04-11T07:14:55.458Z</time></trkpt><trkpt lat="43.719617" lon="12.5864135"><ele>363.0</ele><time>2026-04-11T07:14:56.458Z</time></trkpt><trkpt lat="43.7197359" lon="12.586261"><ele>365.3333333333333</ele><time>2026-04-11T07:14:57.458Z</time></trkpt><trkpt lat="43.7198607" lon="12.5861263"><ele>367.66666666666663</ele><time>2026-04-11T07:14:58.458Z</time></trkpt><trkpt lat="43.7199995" lon="12.5860225"><ele>370.0</ele><time>2026-04-11T07:14:59.458Z</time></trkpt><trkpt lat="43.7201449" lon="12.5859761"><ele>369.3333333333333</ele><time>2026-04-11T07:15:00.458Z</time></trkpt><trkpt lat="43.7203033" lon="12.5859692"><ele>368.6666666666667</ele><time>2026-04-11T07:15:01.459Z</time></trkpt><trkpt lat="43.7204654" lon="12.5859722"><ele>368.0</ele><time>2026-04-11T07:15:02.458Z</time></trkpt><trkpt lat="43.7206149" lon="12.5859738"><ele>368.0</ele><time>2026-04-11T07:15:03.458Z</time></trkpt><trkpt lat="43.7207567" lon="12.5859659"><ele>368.0</ele><time>2026-04-11T07:15:04.458Z</time></trkpt><trkpt lat="43.7208821" lon="12.5859117"><ele>368.0</ele><time>2026-04-11T07:15:05.458Z</time></trkpt><trkpt lat="43.7209886" lon="12.5858105"><ele>368.0</ele><time>2026-04-11T07:15:06.458Z</time></trkpt><trkpt lat="43.7210801" lon="12.5856583"><ele>369.0</ele><time>2026-04-11T07:15:07.458Z</time></trkpt><trkpt lat="43.7211498" lon="12.5854617"><ele>370.0</ele><time>2026-04-11T07:15:08.459Z</time></trkpt><trkpt lat="43.7212038" lon="12.5852724"><ele>371.0</ele><time>2026-04-11T07:15:09.458Z</time></trkpt><trkpt lat="43.7212606" lon="12.5851189"><ele>372.0</ele><time>2026-04-11T07:15:10.459Z</time></trkpt><trkpt lat="43.7213328" lon="12.5850032"><ele>372.0</ele><time>2026-04-11T07:15:11.459Z</time></trkpt><trkpt lat="43.7214256" lon="12.5849101"><ele>372.0</ele><time>2026-04-11T07:15:12.458Z</time></trkpt><trkpt lat="43.7215255" lon="12.5848624"><ele>372.0</ele><time>2026-04-11T07:15:13.459Z</time></trkpt><trkpt lat="43.7216674" lon="12.5848265"><ele>372.0</ele><time>2026-04-11T07:15:14.458Z</time></trkpt><trkpt lat="43.7218128" lon="12.584784"><ele>373.3333333333333</ele><time>2026-04-11T07:15:15.458Z</time></trkpt><trkpt lat="43.721974" lon="12.5847669"><ele>374.66666666666663</ele><time>2026-04-11T07:15:16.458Z</time></trkpt><trkpt lat="43.7221564" lon="12.5847595"><ele>376.0</ele><time>2026-04-11T07:15:17.459Z</time></trkpt><trkpt lat="43.7223499" lon="12.5847517"><ele>376.0</ele><time>2026-04-11T07:15:18.458Z</time></trkpt><trkpt lat="43.7225283" lon="12.5847551"><ele>376.0</ele><time>2026-04-11T07:15:19.458Z</time></trkpt><trkpt lat="43.7226985" lon="12.5847482"><ele>376.0</ele><time>2026-04-11T07:15:20.459Z</time></trkpt><trkpt lat="43.7228789" lon="12.5847105"><ele>375.3333333333333</ele><time>2026-04-11T07:15:21.458Z</time></trkpt><trkpt lat="43.7230645" lon="12.5846612"><ele>374.6666666666667</ele><time>2026-04-11T07:15:22.46Z</time></trkpt><trkpt lat="43.7232512" lon="12.5846208"><ele>374.0</ele><time>2026-04-11T07:15:23.458Z</time></trkpt><trkpt lat="43.7234205" lon="12.5845866"><ele>371.75</ele><time>2026-04-11T07:15:24.459Z</time></trkpt><trkpt lat="43.7235758" lon="12.5845564"><ele>369.5</ele><time>2026-04-11T07:15:25.458Z</time></trkpt><trkpt lat="43.7237124" lon="12.5845273"><ele>367.25</ele><time>2026-04-11T07:15:26.458Z</time></trkpt><trkpt lat="43.7238394" lon="12.5844827"><ele>365.0</ele><time>2026-04-11T07:15:27.458Z</time></trkpt><trkpt lat="43.7239423" lon="12.5843998"><ele>365.0</ele><time>2026-04-11T07:15:28.458Z</time></trkpt><trkpt lat="43.7240306" lon="12.5842631"><ele>365.0</ele><time>2026-04-11T07:15:29.458Z</time></trkpt><trkpt lat="43.7241171" lon="12.5840878"><ele>365.0</ele><time>2026-04-11T07:15:30.458Z</time></trkpt><trkpt lat="43.7242156" lon="12.583897"><ele>365.0</ele><time>2026-04-11T07:15:31.459Z</time></trkpt><trkpt lat="43.7243104" lon="12.5837266"><ele>365.0</ele><time>2026-04-11T07:15:32.458Z</time></trkpt><trkpt lat="43.7244071" lon="12.5835845"><ele>365.0</ele><time>2026-04-11T07:15:33.458Z</time></trkpt><trkpt lat="43.7245151" lon="12.5834719"><ele>365.0</ele><time>2026-04-11T07:15:34.458Z</time></trkpt><trkpt lat="43.7246425" lon="12.5833966"><ele>367.5</ele><time>2026-04-11T07:15:35.458Z</time></trkpt><trkpt lat="43.7247804" lon="12.5833545"><ele>370.0</ele><time>2026-04-11T07:15:36.458Z</time></trkpt><trkpt lat="43.7248987" lon="12.5833182"><ele>372.5</ele><time>2026-04-11T07:15:37.458Z</time></trkpt><trkpt lat="43.7250057" lon="12.5832803"><ele>375.0</ele><time>2026-04-11T07:15:38.459Z</time></trkpt><trkpt lat="43.7251133" lon="12.5832125"><ele>375.0</ele><time>2026-04-11T07:15:39.458Z</time></trkpt><trkpt lat="43.7252277" lon="12.583108"><ele>375.0</ele><time>2026-04-11T07:15:40.458Z</time></trkpt><trkpt lat="43.7253516" lon="12.5829828"><ele>375.0</ele><time>2026-04-11T07:15:41.458Z</time></trkpt><trkpt lat="43.7254878" lon="12.5828374"><ele>378.66666666666663</ele><time>2026-04-11T07:15:42.458Z</time></trkpt><trkpt lat="43.7256268" lon="12.5826677"><ele>382.3333333333333</ele><time>2026-04-11T07:15:43.458Z</time></trkpt><trkpt lat="43.7257602" lon="12.5824645"><ele>386.0</ele><time>2026-04-11T07:15:44.458Z</time></trkpt><trkpt lat="43.7258623" lon="12.5822657"><ele>386.0</ele><time>2026-04-11T07:15:45.458Z</time></trkpt><trkpt lat="43.7259474" lon="12.5820887"><ele>386.0</ele><time>2026-04-11T07:15:46.458Z</time></trkpt><trkpt lat="43.7260183" lon="12.581943"><ele>386.0</ele><time>2026-04-11T07:15:47.459Z</time></trkpt><trkpt lat="43.7260833" lon="12.5818287"><ele>386.0</ele><time>2026-04-11T07:15:48.458Z</time></trkpt><trkpt lat="43.7261614" lon="12.5817545"><ele>385.6</ele><time>2026-04-11T07:15:49.458Z</time></trkpt><trkpt lat="43.7262541" lon="12.5817253"><ele>385.20000000000005</ele><time>2026-04-11T07:15:50.458Z</time></trkpt><trkpt lat="43.7263419" lon="12.5817516"><ele>384.79999999999995</ele><time>2026-04-11T07:15:51.458Z</time></trkpt><trkpt lat="43.7264223" lon="12.5818358"><ele>384.4</ele><time>2026-04-11T07:15:52.459Z</time></trkpt><trkpt lat="43.7265049" lon="12.5819408"><ele>384.0</ele><time>2026-04-11T07:15:53.458Z</time></trkpt><trkpt lat="43.7265989" lon="12.5820011"><ele>384.0</ele><time>2026-04-11T07:15:54.458Z</time></trkpt><trkpt lat="43.7267112" lon="12.5820176"><ele>384.0</ele><time>2026-04-11T07:15:55.458Z</time></trkpt><trkpt lat="43.7268362" lon="12.581991"><ele>384.0</ele><time>2026-04-11T07:15:56.458Z</time></trkpt><trkpt lat="43.7269702" lon="12.5819262"><ele>384.0</ele><time>2026-04-11T07:15:57.459Z</time></trkpt><trkpt lat="43.7271003" lon="12.581859"><ele>384.25</ele><time>2026-04-11T07:15:58.458Z</time></trkpt><trkpt lat="43.7272232" lon="12.5818066"><ele>384.5</ele><time>2026-04-11T07:15:59.458Z</time></trkpt><trkpt lat="43.7273498" lon="12.5817875"><ele>384.75</ele><time>2026-04-11T07:16:00.459Z</time></trkpt><trkpt lat="43.7274854" lon="12.5817903"><ele>385.0</ele><time>2026-04-11T07:16:01.458Z</time></trkpt><trkpt lat="43.7276268" lon="12.5818003"><ele>384.0</ele><time>2026-04-11T07:16:02.458Z</time></trkpt><trkpt lat="43.7277793" lon="12.5818274"><ele>383.0</ele><time>2026-04-11T07:16:03.458Z</time></trkpt><trkpt lat="43.7279363" lon="12.581878"><ele>382.0</ele><time>2026-04-11T07:16:04.46Z</time></trkpt><trkpt lat="43.7280891" lon="12.5819454"><ele>382.0</ele><time>2026-04-11T07:16:05.459Z</time></trkpt><trkpt lat="43.728223" lon="12.5819942"><ele>382.0</ele><time>2026-04-11T07:16:06.458Z</time></trkpt><trkpt lat="43.7283376" lon="12.5820276"><ele>382.0</ele><time>2026-04-11T07:16:07.458Z</time></trkpt><trkpt lat="43.7284415" lon="12.5820333"><ele>382.0</ele><time>2026-04-11T07:16:08.458Z</time></trkpt><trkpt lat="43.7285442" lon="12.5820015"><ele>385.5</ele><time>2026-04-11T07:16:09.458Z</time></trkpt><trkpt lat="43.7286365" lon="12.5819481"><ele>389.0</ele><time>2026-04-11T07:16:10.459Z</time></trkpt><trkpt lat="43.7287203" lon="12.5818554"><ele>392.5</ele><time>2026-04-11T07:16:11.459Z</time></trkpt><trkpt lat="43.7287813" lon="12.5817262"><ele>396.0</ele><time>2026-04-11T07:16:12.458Z</time></trkpt><trkpt lat="43.7288237" lon="12.5815455"><ele>396.0</ele><time>2026-04-11T07:16:13.458Z</time></trkpt><trkpt lat="43.728859" lon="12.5813222"><ele>396.0</ele><time>2026-04-11T07:16:14.458Z</time></trkpt><trkpt lat="43.728903" lon="12.5810628"><ele>396.0</ele><time>2026-04-11T07:16:15.459Z</time></trkpt><trkpt lat="43.7289358" lon="12.5808115"><ele>396.66666666666663</ele><time>2026-04-11T07:16:16.458Z</time></trkpt><trkpt lat="43.7289593" lon="12.5805774"><ele>397.3333333333333</ele><time>2026-04-11T07:16:17.458Z</time></trkpt><trkpt lat="43.7289773" lon="12.5803539"><ele>398.0</ele><time>2026-04-11T07:16:18.459Z</time></trkpt><trkpt lat="43.7289864" lon="12.5801362"><ele>395.66666666666663</ele><time>2026-04-11T07:16:19.458Z</time></trkpt><trkpt lat="43.7289722" lon="12.579929"><ele>393.33333333333337</ele><time>2026-04-11T07:16:20.458Z</time></trkpt><trkpt lat="43.7289237" lon="12.5797272"><ele>391.0</ele><time>2026-04-11T07:16:21.457Z</time></trkpt><trkpt lat="43.7288687" lon="12.5795272"><ele>388.6</ele><time>2026-04-11T07:16:22.457Z</time></trkpt><trkpt lat="43.7288302" lon="12.5793552"><ele>386.20000000000005</ele><time>2026-04-11T07:16:23.458Z</time></trkpt><trkpt lat="43.7288069" lon="12.5792079"><ele>383.79999999999995</ele><time>2026-04-11T07:16:24.457Z</time></trkpt><trkpt lat="43.7288063" lon="12.5790862"><ele>381.4</ele><time>2026-04-11T07:16:25.457Z</time></trkpt><trkpt lat="43.72884" lon="12.5789915"><ele>379.0</ele><time>2026-04-11T07:16:26.457Z</time></trkpt><trkpt lat="43.7289063" lon="12.5789378"><ele>379.0</ele><time>2026-04-11T07:16:27.457Z</time></trkpt><trkpt lat="43.7289881" lon="12.5789444"><ele>379.0</ele><time>2026-04-11T07:16:28.458Z</time></trkpt><trkpt lat="43.7290833" lon="12.5790118"><ele>379.0</ele><time>2026-04-11T07:16:29.458Z</time></trkpt><trkpt lat="43.7291746" lon="12.5790916"><ele>379.0</ele><time>2026-04-11T07:16:30.457Z</time></trkpt><trkpt lat="43.7292929" lon="12.5791727"><ele>379.0</ele><time>2026-04-11T07:16:31.458Z</time></trkpt><trkpt lat="43.7294272" lon="12.5792002"><ele>377.66666666666663</ele><time>2026-04-11T07:16:32.457Z</time></trkpt><trkpt lat="43.7295481" lon="12.5791684"><ele>376.3333333333333</ele><time>2026-04-11T07:16:33.457Z</time></trkpt><trkpt lat="43.729688" lon="12.5791079"><ele>375.0</ele><time>2026-04-11T07:16:34.457Z</time></trkpt><trkpt lat="43.7298659" lon="12.5790432"><ele>375.0</ele><time>2026-04-11T07:16:35.457Z</time></trkpt><trkpt lat="43.7300096" lon="12.5789846"><ele>375.0</ele><time>2026-04-11T07:16:36.457Z</time></trkpt><trkpt lat="43.7301341" lon="12.5789392"><ele>375.0</ele><time>2026-04-11T07:16:37.457Z</time></trkpt><trkpt lat="43.7302373" lon="12.5789056"><ele>375.0</ele><time>2026-04-11T07:16:38.458Z</time></trkpt><trkpt lat="43.7303223" lon="12.5789083"><ele>371.0</ele><time>2026-04-11T07:16:39.457Z</time></trkpt><trkpt lat="43.7303878" lon="12.578957"><ele>367.0</ele><time>2026-04-11T07:16:40.457Z</time></trkpt><trkpt lat="43.7304359" lon="12.5790305"><ele>363.0</ele><time>2026-04-11T07:16:41.457Z</time></trkpt><trkpt lat="43.7304859" lon="12.5791428"><ele>359.0</ele><time>2026-04-11T07:16:42.458Z</time></trkpt><trkpt lat="43.7304964" lon="12.5793453"><ele>355.0</ele><time>2026-04-11T07:16:43.457Z</time></trkpt><trkpt lat="43.730557" lon="12.579498"><ele>358.75</ele><time>2026-04-11T07:16:44.457Z</time></trkpt><trkpt lat="43.7306437" lon="12.5796279"><ele>362.5</ele><time>2026-04-11T07:16:45.457Z</time></trkpt><trkpt lat="43.730763" lon="12.579734"><ele>366.25</ele><time>2026-04-11T07:16:46.457Z</time></trkpt><trkpt lat="43.7309006" lon="12.5797911"><ele>370.0</ele><time>2026-04-11T07:16:47.457Z</time></trkpt><trkpt lat="43.7310096" lon="12.5798508"><ele>366.8</ele><time>2026-04-11T07:16:48.457Z</time></trkpt><trkpt lat="43.7310941" lon="12.5799247"><ele>363.6</ele><time>2026-04-11T07:16:49.458Z</time></trkpt><trkpt lat="43.7311682" lon="12.5800298"><ele>360.4</ele><time>2026-04-11T07:16:50.457Z</time></trkpt><trkpt lat="43.7312123" lon="12.5801546"><ele>357.2</ele><time>2026-04-11T07:16:51.457Z</time></trkpt><trkpt lat="43.731225" lon="12.5803026"><ele>354.0</ele><time>2026-04-11T07:16:52.458Z</time></trkpt><trkpt lat="43.7312273" lon="12.5804829"><ele>354.0</ele><time>2026-04-11T07:16:53.457Z</time></trkpt><trkpt lat="43.7312427" lon="12.5806427"><ele>354.0</ele><time>2026-04-11T07:16:54.457Z</time></trkpt><trkpt lat="43.731284" lon="12.5807635"><ele>354.0</ele><time>2026-04-11T07:16:55.458Z</time></trkpt><trkpt lat="43.7313484" lon="12.5808495"><ele>354.0</ele><time>2026-04-11T07:16:56.457Z</time></trkpt><trkpt lat="43.7314324" lon="12.5809224"><ele>354.0</ele><time>2026-04-11T07:16:57.458Z</time></trkpt><trkpt lat="43.7315601" lon="12.5809409"><ele>354.0</ele><time>2026-04-11T07:16:58.457Z</time></trkpt><trkpt lat="43.7316854" lon="12.5809727"><ele>354.0</ele><time>2026-04-11T07:16:59.457Z</time></trkpt><trkpt lat="43.7318194" lon="12.5809669"><ele>354.0</ele><time>2026-04-11T07:17:00.457Z</time></trkpt><trkpt lat="43.7319395" lon="12.5809154"><ele>354.0</ele><time>2026-04-11T07:17:01.457Z</time></trkpt><trkpt lat="43.7320558" lon="12.5808059"><ele>355.3333333333333</ele><time>2026-04-11T07:17:02.457Z</time></trkpt><trkpt lat="43.7321732" lon="12.5806588"><ele>356.66666666666663</ele><time>2026-04-11T07:17:03.457Z</time></trkpt><trkpt lat="43.7322709" lon="12.5804995"><ele>358.0</ele><time>2026-04-11T07:17:04.458Z</time></trkpt><trkpt lat="43.7323471" lon="12.5803359"><ele>354.5</ele><time>2026-04-11T07:17:05.458Z</time></trkpt><trkpt lat="43.7324154" lon="12.5801945"><ele>351.0</ele><time>2026-04-11T07:17:06.458Z</time></trkpt><trkpt lat="43.732487" lon="12.58009"><ele>347.5</ele><time>2026-04-11T07:17:07.458Z</time></trkpt><trkpt lat="43.7325908" lon="12.5800068"><ele>344.0</ele><time>2026-04-11T07:17:08.458Z</time></trkpt><trkpt lat="43.7327174" lon="12.5799392"><ele>344.5</ele><time>2026-04-11T07:17:09.457Z</time></trkpt><trkpt lat="43.7328516" lon="12.579913"><ele>345.0</ele><time>2026-04-11T07:17:10.457Z</time></trkpt><trkpt lat="43.7329767" lon="12.5799047"><ele>345.5</ele><time>2026-04-11T07:17:11.457Z</time></trkpt><trkpt lat="43.7330951" lon="12.5799576"><ele>346.0</ele><time>2026-04-11T07:17:12.457Z</time></trkpt><trkpt lat="43.7332026" lon="12.5800247"><ele>346.0</ele><time>2026-04-11T07:17:13.458Z</time></trkpt><trkpt lat="43.7333018" lon="12.5801127"><ele>346.0</ele><time>2026-04-11T07:17:14.457Z</time></trkpt><trkpt lat="43.7334063" lon="12.5801809"><ele>346.0</ele><time>2026-04-11T07:17:15.457Z</time></trkpt><trkpt lat="43.7335128" lon="12.580226"><ele>346.0</ele><time>2026-04-11T07:17:16.458Z</time></trkpt><trkpt lat="43.733658" lon="12.5802045"><ele>348.0</ele><time>2026-04-11T07:17:17.459Z</time></trkpt><trkpt lat="43.7338106" lon="12.580203"><ele>350.0</ele><time>2026-04-11T07:17:18.457Z</time></trkpt><trkpt lat="43.733966" lon="12.5802259"><ele>352.0</ele><time>2026-04-11T07:17:19.457Z</time></trkpt><trkpt lat="43.7341153" lon="12.5802801"><ele>352.0</ele><time>2026-04-11T07:17:20.458Z</time></trkpt><trkpt lat="43.7342528" lon="12.5803366"><ele>352.0</ele><time>2026-04-11T07:17:21.457Z</time></trkpt><trkpt lat="43.7343768" lon="12.5803726"><ele>352.0</ele><time>2026-04-11T07:17:22.457Z</time></trkpt><trkpt lat="43.734516" lon="12.5803725"><ele>352.0</ele><time>2026-04-11T07:17:23.457Z</time></trkpt><trkpt lat="43.7346712" lon="12.5803513"><ele>355.66666666666663</ele><time>2026-04-11T07:17:24.457Z</time></trkpt><trkpt lat="43.7348332" lon="12.580329"><ele>359.3333333333333</ele><time>2026-04-11T07:17:25.457Z</time></trkpt><trkpt lat="43.7349963" lon="12.5803039"><ele>363.0</ele><time>2026-04-11T07:17:26.459Z</time></trkpt><trkpt lat="43.7351584" lon="12.5802765"><ele>360.5</ele><time>2026-04-11T07:17:27.457Z</time></trkpt><trkpt lat="43.7352869" lon="12.5802601"><ele>358.0</ele><time>2026-04-11T07:17:28.457Z</time></trkpt><trkpt lat="43.7354212" lon="12.580263"><ele>355.5</ele><time>2026-04-11T07:17:29.457Z</time></trkpt><trkpt lat="43.7355498" lon="12.5802762"><ele>353.0</ele><time>2026-04-11T07:17:30.457Z</time></trkpt><trkpt lat="43.7356498" lon="12.5803518"><ele>352.75</ele><time>2026-04-11T07:17:31.457Z</time></trkpt><trkpt lat="43.7357599" lon="12.5804811"><ele>352.5</ele><time>2026-04-11T07:17:32.457Z</time></trkpt><trkpt lat="43.7358469" lon="12.5806008"><ele>352.25</ele><time>2026-04-11T07:17:33.458Z</time></trkpt><trkpt lat="43.735922" lon="12.5807162"><ele>352.0</ele><time>2026-04-11T07:17:34.458Z</time></trkpt><trkpt lat="43.7359973" lon="12.5807943"><ele>353.5</ele><time>2026-04-11T07:17:35.457Z</time></trkpt><trkpt lat="43.7361011" lon="12.580842"><ele>355.0</ele><time>2026-04-11T07:17:36.457Z</time></trkpt><trkpt lat="43.7362318" lon="12.5808644"><ele>356.5</ele><time>2026-04-11T07:17:37.457Z</time></trkpt><trkpt lat="43.7363747" lon="12.5808792"><ele>358.0</ele><time>2026-04-11T07:17:38.457Z</time></trkpt><trkpt lat="43.7365183" lon="12.5808745"><ele>358.0</ele><time>2026-04-11T07:17:39.458Z</time></trkpt><trkpt lat="43.7366566" lon="12.5807863"><ele>358.0</ele><time>2026-04-11T07:17:40.458Z</time></trkpt><trkpt lat="43.7367891" lon="12.5807029"><ele>358.0</ele><time>2026-04-11T07:17:41.457Z</time></trkpt><trkpt lat="43.7369046" lon="12.5806037"><ele>358.0</ele><time>2026-04-11T07:17:42.457Z</time></trkpt><trkpt lat="43.7369995" lon="12.5804831"><ele>358.25</ele><time>2026-04-11T07:17:43.458Z</time></trkpt><trkpt lat="43.7370748" lon="12.5803667"><ele>358.5</ele><time>2026-04-11T07:17:44.458Z</time></trkpt><trkpt lat="43.7371616" lon="12.5802682"><ele>358.75</ele><time>2026-04-11T07:17:45.458Z</time></trkpt><trkpt lat="43.7372299" lon="12.580206"><ele>359.0</ele><time>2026-04-11T07:17:46.457Z</time></trkpt><trkpt lat="43.7373985" lon="12.5802985"><ele>359.0</ele><time>2026-04-11T07:17:48.457Z</time></trkpt><trkpt lat="43.7375095" lon="12.5803875"><ele>359.0</ele><time>2026-04-11T07:17:49.459Z</time></trkpt><trkpt lat="43.7376256" lon="12.5805014"><ele>359.0</ele><time>2026-04-11T07:17:50.457Z</time></trkpt><trkpt lat="43.737743" lon="12.5805931"><ele>359.0</ele><time>2026-04-11T07:17:51.457Z</time></trkpt><trkpt lat="43.7378725" lon="12.5806474"><ele>356.4</ele><time>2026-04-11T07:17:52.457Z</time></trkpt><trkpt lat="43.7379892" lon="12.5806699"><ele>353.79999999999995</ele><time>2026-04-11T07:17:53.457Z</time></trkpt><trkpt lat="43.7380894" lon="12.5806544"><ele>351.20000000000005</ele><time>2026-04-11T07:17:54.457Z</time></trkpt><trkpt lat="43.7381695" lon="12.5805894"><ele>348.6</ele><time>2026-04-11T07:17:55.457Z</time></trkpt><trkpt lat="43.7382367" lon="12.5804712"><ele>346.0</ele><time>2026-04-11T07:17:56.458Z</time></trkpt><trkpt lat="43.7383054" lon="12.5803202"><ele>344.25</ele><time>2026-04-11T07:17:57.457Z</time></trkpt><trkpt lat="43.7383822" lon="12.5801873"><ele>342.5</ele><time>2026-04-11T07:17:58.457Z</time></trkpt><trkpt lat="43.7384706" lon="12.5800598"><ele>340.75</ele><time>2026-04-11T07:17:59.457Z</time></trkpt><trkpt lat="43.7385628" lon="12.5799534"><ele>339.0</ele><time>2026-04-11T07:18:00.458Z</time></trkpt><trkpt lat="43.7386504" lon="12.5798686"><ele>338.79999999999995</ele><time>2026-04-11T07:18:01.458Z</time></trkpt><trkpt lat="43.738744" lon="12.5798148"><ele>338.59999999999997</ele><time>2026-04-11T07:18:02.457Z</time></trkpt><trkpt lat="43.7388457" lon="12.5797946"><ele>338.4</ele><time>2026-04-11T07:18:03.457Z</time></trkpt><trkpt lat="43.738939" lon="12.5798047"><ele>338.2</ele><time>2026-04-11T07:18:04.457Z</time></trkpt><trkpt lat="43.7390224" lon="12.579823"><ele>338.0</ele><time>2026-04-11T07:18:05.459Z</time></trkpt><trkpt lat="43.739095" lon="12.5798674"><ele>338.0</ele><time>2026-04-11T07:18:06.457Z</time></trkpt><trkpt lat="43.7391529" lon="12.5799315"><ele>338.0</ele><time>2026-04-11T07:18:07.457Z</time></trkpt><trkpt lat="43.7391937" lon="12.5800648"><ele>338.0</ele><time>2026-04-11T07:18:08.457Z</time></trkpt><trkpt lat="43.739252" lon="12.5801665"><ele>338.0</ele><time>2026-04-11T07:18:09.458Z</time></trkpt><trkpt lat="43.7393394" lon="12.5802521"><ele>338.0</ele><time>2026-04-11T07:18:10.457Z</time></trkpt><trkpt lat="43.7394602" lon="12.5803307"><ele>333.33333333333337</ele><time>2026-04-11T07:18:11.457Z</time></trkpt><trkpt lat="43.7395927" lon="12.580405"><ele>328.6666666666667</ele><time>2026-04-11T07:18:12.458Z</time></trkpt><trkpt lat="43.739795" lon="12.5805064"><ele>324.0</ele><time>2026-04-11T07:18:13.457Z</time></trkpt><trkpt lat="43.739983" lon="12.5806154"><ele>324.0</ele><time>2026-04-11T07:18:14.457Z</time></trkpt><trkpt lat="43.7401711" lon="12.5807215"><ele>324.0</ele><time>2026-04-11T07:18:15.457Z</time></trkpt><trkpt lat="43.7403448" lon="12.5808323"><ele>324.0</ele><time>2026-04-11T07:18:16.457Z</time></trkpt><trkpt lat="43.7404947" lon="12.5809392"><ele>323.25</ele><time>2026-04-11T07:18:17.457Z</time></trkpt><trkpt lat="43.7406247" lon="12.5810486"><ele>322.5</ele><time>2026-04-11T07:18:18.457Z</time></trkpt><trkpt lat="43.7407339" lon="12.5811791"><ele>321.75</ele><time>2026-04-11T07:18:19.458Z</time></trkpt><trkpt lat="43.7408238" lon="12.5813441"><ele>321.0</ele><time>2026-04-11T07:18:20.457Z</time></trkpt><trkpt lat="43.7408939" lon="12.5815028"><ele>321.0</ele><time>2026-04-11T07:18:21.458Z</time></trkpt><trkpt lat="43.7409718" lon="12.5816282"><ele>321.0</ele><time>2026-04-11T07:18:22.458Z</time></trkpt><trkpt lat="43.7410623" lon="12.5817101"><ele>321.0</ele><time>2026-04-11T07:18:23.458Z</time></trkpt><trkpt lat="43.7411802" lon="12.5817683"><ele>321.0</ele><time>2026-04-11T07:18:24.457Z</time></trkpt><trkpt lat="43.7413122" lon="12.5818004"><ele>322.75</ele><time>2026-04-11T07:18:25.457Z</time></trkpt><trkpt lat="43.7414424" lon="12.5818073"><ele>324.5</ele><time>2026-04-11T07:18:26.457Z</time></trkpt><trkpt lat="43.7415697" lon="12.5817825"><ele>326.25</ele><time>2026-04-11T07:18:27.457Z</time></trkpt><trkpt lat="43.7417035" lon="12.5817107"><ele>328.0</ele><time>2026-04-11T07:18:28.458Z</time></trkpt><trkpt lat="43.7418425" lon="12.5816115"><ele>327.75</ele><time>2026-04-11T07:18:29.459Z</time></trkpt><trkpt lat="43.7419783" lon="12.5815413"><ele>327.5</ele><time>2026-04-11T07:18:30.457Z</time></trkpt><trkpt lat="43.7421267" lon="12.5815147"><ele>327.25</ele><time>2026-04-11T07:18:31.457Z</time></trkpt><trkpt lat="43.7422763" lon="12.581523"><ele>327.0</ele><time>2026-04-11T07:18:32.457Z</time></trkpt><trkpt lat="43.7424239" lon="12.5815545"><ele>327.0</ele><time>2026-04-11T07:18:33.457Z</time></trkpt><trkpt lat="43.7425759" lon="12.5816055"><ele>327.0</ele><time>2026-04-11T07:18:34.457Z</time></trkpt><trkpt lat="43.7427234" lon="12.5816878"><ele>327.0</ele><time>2026-04-11T07:18:35.457Z</time></trkpt><trkpt lat="43.7428432" lon="12.5817975"><ele>328.0</ele><time>2026-04-11T07:18:36.457Z</time></trkpt><trkpt lat="43.7429561" lon="12.5819015"><ele>329.0</ele><time>2026-04-11T07:18:37.457Z</time></trkpt><trkpt lat="43.7430556" lon="12.5819996"><ele>330.0</ele><time>2026-04-11T07:18:38.457Z</time></trkpt><trkpt lat="43.7431438" lon="12.5820894"><ele>331.0</ele><time>2026-04-11T07:18:39.458Z</time></trkpt><trkpt lat="43.7432154" lon="12.5821866"><ele>327.8</ele><time>2026-04-11T07:18:40.458Z</time></trkpt><trkpt lat="43.7432652" lon="12.5822985"><ele>324.6</ele><time>2026-04-11T07:18:41.458Z</time></trkpt><trkpt lat="43.7432918" lon="12.5824261"><ele>321.4</ele><time>2026-04-11T07:18:42.457Z</time></trkpt><trkpt lat="43.7432976" lon="12.5825851"><ele>318.2</ele><time>2026-04-11T07:18:43.457Z</time></trkpt><trkpt lat="43.7432942" lon="12.5827606"><ele>315.0</ele><time>2026-04-11T07:18:44.458Z</time></trkpt><trkpt lat="43.743274" lon="12.5830118"><ele>314.3333333333333</ele><time>2026-04-11T07:18:45.458Z</time></trkpt><trkpt lat="43.7432576" lon="12.5832306"><ele>313.66666666666663</ele><time>2026-04-11T07:18:46.458Z</time></trkpt><trkpt lat="43.7432369" lon="12.5834412"><ele>313.0</ele><time>2026-04-11T07:18:47.457Z</time></trkpt><trkpt lat="43.743216" lon="12.5836299"><ele>311.0</ele><time>2026-04-11T07:18:48.458Z</time></trkpt><trkpt lat="43.7431977" lon="12.5838064"><ele>309.0</ele><time>2026-04-11T07:18:49.458Z</time></trkpt><trkpt lat="43.7431951" lon="12.583973"><ele>307.0</ele><time>2026-04-11T07:18:50.457Z</time></trkpt><trkpt lat="43.7432097" lon="12.5841438"><ele>305.0</ele><time>2026-04-11T07:18:51.457Z</time></trkpt><trkpt lat="43.7432409" lon="12.5843235"><ele>305.0</ele><time>2026-04-11T07:18:52.457Z</time></trkpt><trkpt lat="43.7432827" lon="12.5844983"><ele>305.0</ele><time>2026-04-11T07:18:53.457Z</time></trkpt><trkpt lat="43.7433262" lon="12.5846431"><ele>305.0</ele><time>2026-04-11T07:18:54.457Z</time></trkpt><trkpt lat="43.7433763" lon="12.5847553"><ele>305.0</ele><time>2026-04-11T07:18:55.457Z</time></trkpt><trkpt lat="43.7434535" lon="12.5848315"><ele>305.0</ele><time>2026-04-11T07:18:56.458Z</time></trkpt><trkpt lat="43.7435434" lon="12.5848826"><ele>302.5</ele><time>2026-04-11T07:18:57.458Z</time></trkpt><trkpt lat="43.7436111" lon="12.5849384"><ele>300.0</ele><time>2026-04-11T07:18:58.458Z</time></trkpt><trkpt lat="43.7436503" lon="12.5850268"><ele>297.5</ele><time>2026-04-11T07:18:59.457Z</time></trkpt><trkpt lat="43.743643" lon="12.5851326"><ele>295.0</ele><time>2026-04-11T07:19:00.458Z</time></trkpt><trkpt lat="43.7435958" lon="12.5852009"><ele>292.5</ele><time>2026-04-11T07:19:01.458Z</time></trkpt><trkpt lat="43.7435244" lon="12.5852257"><ele>290.0</ele><time>2026-04-11T07:19:02.458Z</time></trkpt><trkpt lat="43.7434274" lon="12.5852185"><ele>290.0</ele><time>2026-04-11T07:19:03.458Z</time></trkpt><trkpt lat="43.7433074" lon="12.5851517"><ele>290.0</ele><time>2026-04-11T07:19:04.457Z</time></trkpt><trkpt lat="43.743188" lon="12.5850826"><ele>290.0</ele><time>2026-04-11T07:19:05.457Z</time></trkpt><trkpt lat="43.7430768" lon="12.5849896"><ele>290.0</ele><time>2026-04-11T07:19:06.457Z</time></trkpt><trkpt lat="43.7429722" lon="12.5848774"><ele>290.0</ele><time>2026-04-11T07:19:07.457Z</time></trkpt><trkpt lat="43.7428665" lon="12.5847634"><ele>290.0</ele><time>2026-04-11T07:19:08.457Z</time></trkpt><trkpt lat="43.7427683" lon="12.5846329"><ele>290.0</ele><time>2026-04-11T07:19:09.458Z</time></trkpt><trkpt lat="43.7426818" lon="12.5845205"><ele>290.0</ele><time>2026-04-11T07:19:10.457Z</time></trkpt><trkpt lat="43.7426057" lon="12.5844148"><ele>288.75</ele><time>2026-04-11T07:19:11.457Z</time></trkpt><trkpt lat="43.7425243" lon="12.5843296"><ele>287.5</ele><time>2026-04-11T07:19:12.457Z</time></trkpt><trkpt lat="43.742397" lon="12.5843407"><ele>286.25</ele><time>2026-04-11T07:19:13.459Z</time></trkpt><trkpt lat="43.7422894" lon="12.5843656"><ele>285.0</ele><time>2026-04-11T07:19:14.458Z</time></trkpt><trkpt lat="43.7421689" lon="12.5844499"><ele>281.0</ele><time>2026-04-11T07:19:15.457Z</time></trkpt><trkpt lat="43.7420354" lon="12.5845852"><ele>277.0</ele><time>2026-04-11T07:19:16.457Z</time></trkpt><trkpt lat="43.741875" lon="12.5847364"><ele>273.0</ele><time>2026-04-11T07:19:17.457Z</time></trkpt><trkpt lat="43.7417298" lon="12.5848756"><ele>271.25</ele><time>2026-04-11T07:19:18.457Z</time></trkpt><trkpt lat="43.7415964" lon="12.5850051"><ele>269.5</ele><time>2026-04-11T07:19:19.457Z</time></trkpt><trkpt lat="43.741483" lon="12.5851081"><ele>267.75</ele><time>2026-04-11T07:19:20.457Z</time></trkpt><trkpt lat="43.7413859" lon="12.5852037"><ele>266.0</ele><time>2026-04-11T07:19:21.459Z</time></trkpt><trkpt lat="43.7413098" lon="12.5853243"><ele>264.0</ele><time>2026-04-11T07:19:22.457Z</time></trkpt><trkpt lat="43.7412547" lon="12.5854742"><ele>262.0</ele><time>2026-04-11T07:19:23.458Z</time></trkpt><trkpt lat="43.7412273" lon="12.5856366"><ele>260.0</ele><time>2026-04-11T07:19:24.458Z</time></trkpt><trkpt lat="43.7412301" lon="12.5857935"><ele>258.0</ele><time>2026-04-11T07:19:25.457Z</time></trkpt><trkpt lat="43.7412708" lon="12.5859629"><ele>258.0</ele><time>2026-04-11T07:19:26.457Z</time></trkpt><trkpt lat="43.7413382" lon="12.5861579"><ele>258.0</ele><time>2026-04-11T07:19:27.458Z</time></trkpt><trkpt lat="43.7414137" lon="12.586384"><ele>258.0</ele><time>2026-04-11T07:19:28.457Z</time></trkpt><trkpt lat="43.7414947" lon="12.5866359"><ele>255.33333333333331</ele><time>2026-04-11T07:19:29.458Z</time></trkpt><trkpt lat="43.7415764" lon="12.5868787"><ele>252.66666666666666</ele><time>2026-04-11T07:19:30.458Z</time></trkpt><trkpt lat="43.7416575" lon="12.5871105"><ele>250.0</ele><time>2026-04-11T07:19:31.458Z</time></trkpt><trkpt lat="43.7417379" lon="12.5873233"><ele>246.5</ele><time>2026-04-11T07:19:32.457Z</time></trkpt><trkpt lat="43.7418147" lon="12.5875086"><ele>243.0</ele><time>2026-04-11T07:19:33.457Z</time></trkpt><trkpt lat="43.7418857" lon="12.5876732"><ele>239.5</ele><time>2026-04-11T07:19:34.458Z</time></trkpt><trkpt lat="43.7419464" lon="12.5878093"><ele>236.0</ele><time>2026-04-11T07:19:35.458Z</time></trkpt><trkpt lat="43.7419964" lon="12.5879218"><ele>233.0</ele><time>2026-04-11T07:19:36.458Z</time></trkpt><trkpt lat="43.7420593" lon="12.5880258"><ele>230.00000000000003</ele><time>2026-04-11T07:19:37.458Z</time></trkpt><trkpt lat="43.7421268" lon="12.5880964"><ele>227.00000000000003</ele><time>2026-04-11T07:19:38.459Z</time></trkpt><trkpt lat="43.7422111" lon="12.5881354"><ele>224.0</ele><time>2026-04-11T07:19:39.457Z</time></trkpt><trkpt lat="43.7422916" lon="12.5881516"><ele>221.0</ele><time>2026-04-11T07:19:40.458Z</time></trkpt><trkpt lat="43.742369" lon="12.5880593"><ele>221.0</ele><time>2026-04-11T07:19:41.458Z</time></trkpt><trkpt lat="43.7424031" lon="12.587964"><ele>221.00000000000003</ele><time>2026-04-11T07:19:42.457Z</time></trkpt><trkpt lat="43.7424033" lon="12.5878498"><ele>221.00000000000003</ele><time>2026-04-11T07:19:43.457Z</time></trkpt><trkpt lat="43.742368" lon="12.5877241"><ele>221.0</ele><time>2026-04-11T07:19:44.457Z</time></trkpt><trkpt lat="43.7423287" lon="12.5875928"><ele>221.0</ele><time>2026-04-11T07:19:45.457Z</time></trkpt><trkpt lat="43.7423211" lon="12.587444"><ele>223.25</ele><time>2026-04-11T07:19:46.457Z</time></trkpt><trkpt lat="43.7423501" lon="12.5872793"><ele>225.5</ele><time>2026-04-11T07:19:47.457Z</time></trkpt><trkpt lat="43.7424254" lon="12.5871219"><ele>227.75</ele><time>2026-04-11T07:19:48.459Z</time></trkpt><trkpt lat="43.7425217" lon="12.5869927"><ele>230.0</ele><time>2026-04-11T07:19:49.458Z</time></trkpt><trkpt lat="43.7426241" lon="12.5868983"><ele>230.0</ele><time>2026-04-11T07:19:50.457Z</time></trkpt><trkpt lat="43.742733" lon="12.5868443"><ele>230.0</ele><time>2026-04-11T07:19:51.457Z</time></trkpt><trkpt lat="43.7428497" lon="12.5868525"><ele>230.0</ele><time>2026-04-11T07:19:52.458Z</time></trkpt><trkpt lat="43.7429975" lon="12.5868916"><ele>230.0</ele><time>2026-04-11T07:19:53.457Z</time></trkpt><trkpt lat="43.7431368" lon="12.5869338"><ele>230.0</ele><time>2026-04-11T07:19:54.458Z</time></trkpt><trkpt lat="43.7432755" lon="12.586998"><ele>230.0</ele><time>2026-04-11T07:19:55.457Z</time></trkpt><trkpt lat="43.7434184" lon="12.5870707"><ele>230.0</ele><time>2026-04-11T07:19:56.458Z</time></trkpt><trkpt lat="43.7435435" lon="12.5871308"><ele>230.0</ele><time>2026-04-11T07:19:57.457Z</time></trkpt><trkpt lat="43.7436139" lon="12.5872477"><ele>224.0</ele><time>2026-04-11T07:19:58.458Z</time></trkpt><trkpt lat="43.7436592" lon="12.5874327"><ele>218.0</ele><time>2026-04-11T07:19:59.457Z</time></trkpt><trkpt lat="43.743712" lon="12.5875994"><ele>212.0</ele><time>2026-04-11T07:20:00.457Z</time></trkpt><trkpt lat="43.7437572" lon="12.5877466"><ele>206.0</ele><time>2026-04-11T07:20:01.457Z</time></trkpt><trkpt lat="43.7438067" lon="12.5878626"><ele>203.0</ele><time>2026-04-11T07:20:02.458Z</time></trkpt><trkpt lat="43.7438861" lon="12.5879409"><ele>200.0</ele><time>2026-04-11T07:20:03.458Z</time></trkpt><trkpt lat="43.7439851" lon="12.5879738"><ele>197.0</ele><time>2026-04-11T07:20:04.457Z</time></trkpt><trkpt lat="43.7441325" lon="12.5879842"><ele>194.0</ele><time>2026-04-11T07:20:05.458Z</time></trkpt><trkpt lat="43.7442924" lon="12.5879995"><ele>193.0</ele><time>2026-04-11T07:20:06.457Z</time></trkpt><trkpt lat="43.7444455" lon="12.5880324"><ele>192.0</ele><time>2026-04-11T07:20:07.458Z</time></trkpt><trkpt lat="43.744583" lon="12.5880748"><ele>191.0</ele><time>2026-04-11T07:20:08.457Z</time></trkpt><trkpt lat="43.7447166" lon="12.5880931"><ele>190.0</ele><time>2026-04-11T07:20:09.457Z</time></trkpt><trkpt lat="43.7448566" lon="12.5880559"><ele>190.0</ele><time>2026-04-11T07:20:10.457Z</time></trkpt><trkpt lat="43.7450099" lon="12.5880194"><ele>190.0</ele><time>2026-04-11T07:20:11.457Z</time></trkpt><trkpt lat="43.7451541" lon="12.5879703"><ele>190.0</ele><time>2026-04-11T07:20:12.457Z</time></trkpt><trkpt lat="43.7453015" lon="12.5878776"><ele>190.0</ele><time>2026-04-11T07:20:13.458Z</time></trkpt><trkpt lat="43.7454674" lon="12.5877347"><ele>190.0</ele><time>2026-04-11T07:20:14.458Z</time></trkpt><trkpt lat="43.7456444" lon="12.5875781"><ele>190.0</ele><time>2026-04-11T07:20:15.457Z</time></trkpt><trkpt lat="43.7458067" lon="12.5874355"><ele>190.0</ele><time>2026-04-11T07:20:16.457Z</time></trkpt><trkpt lat="43.7459607" lon="12.5873111"><ele>190.0</ele><time>2026-04-11T07:20:17.458Z</time></trkpt><trkpt lat="43.7461105" lon="12.5872077"><ele>190.0</ele><time>2026-04-11T07:20:18.457Z</time></trkpt><trkpt lat="43.7462571" lon="12.5871187"><ele>189.5</ele><time>2026-04-11T07:20:19.457Z</time></trkpt><trkpt lat="43.7463854" lon="12.5871065"><ele>189.0</ele><time>2026-04-11T07:20:20.457Z</time></trkpt><trkpt lat="43.7465255" lon="12.5870917"><ele>188.5</ele><time>2026-04-11T07:20:21.457Z</time></trkpt><trkpt lat="43.7466773" lon="12.5870751"><ele>188.0</ele><time>2026-04-11T07:20:22.457Z</time></trkpt><trkpt lat="43.7468402" lon="12.5870523"><ele>188.0</ele><time>2026-04-11T07:20:23.457Z</time></trkpt><trkpt lat="43.7470145" lon="12.587031"><ele>188.0</ele><time>2026-04-11T07:20:24.457Z</time></trkpt><trkpt lat="43.747193" lon="12.5869978"><ele>188.0</ele><time>2026-04-11T07:20:25.457Z</time></trkpt><trkpt lat="43.747367" lon="12.5869436"><ele>192.0</ele><time>2026-04-11T07:20:26.458Z</time></trkpt><trkpt lat="43.7475376" lon="12.5868793"><ele>196.0</ele><time>2026-04-11T07:20:27.457Z</time></trkpt><trkpt lat="43.747708" lon="12.5868028"><ele>200.0</ele><time>2026-04-11T07:20:28.458Z</time></trkpt><trkpt lat="43.7478772" lon="12.5867073"><ele>200.0</ele><time>2026-04-11T07:20:29.458Z</time></trkpt><trkpt lat="43.7480339" lon="12.5866188"><ele>200.0</ele><time>2026-04-11T07:20:30.457Z</time></trkpt><trkpt lat="43.7481776" lon="12.5865402"><ele>200.0</ele><time>2026-04-11T07:20:31.457Z</time></trkpt><trkpt lat="43.7483116" lon="12.5864917"><ele>200.0</ele><time>2026-04-11T07:20:32.457Z</time></trkpt><trkpt lat="43.7484455" lon="12.5864496"><ele>200.0</ele><time>2026-04-11T07:20:33.458Z</time></trkpt><trkpt lat="43.7486006" lon="12.5864663"><ele>200.0</ele><time>2026-04-11T07:20:34.457Z</time></trkpt><trkpt lat="43.748821" lon="12.5864973"><ele>199.0</ele><time>2026-04-11T07:20:35.458Z</time></trkpt><trkpt lat="43.7489973" lon="12.5865142"><ele>198.0</ele><time>2026-04-11T07:20:36.457Z</time></trkpt><trkpt lat="43.7491656" lon="12.58653"><ele>197.0</ele><time>2026-04-11T07:20:37.457Z</time></trkpt><trkpt lat="43.7493057" lon="12.5865397"><ele>196.16666666666669</ele><time>2026-04-11T07:20:38.457Z</time></trkpt><trkpt lat="43.7494219" lon="12.5865452"><ele>195.33333333333334</ele><time>2026-04-11T07:20:39.457Z</time></trkpt><trkpt lat="43.7495121" lon="12.5865428"><ele>194.5</ele><time>2026-04-11T07:20:40.457Z</time></trkpt><trkpt lat="43.7495775" lon="12.5865472"><ele>193.66666666666669</ele><time>2026-04-11T07:20:41.457Z</time></trkpt><trkpt lat="43.7496466" lon="12.5865913"><ele>192.83333333333334</ele><time>2026-04-11T07:20:44.457Z</time></trkpt><trkpt lat="43.7495823" lon="12.5866901"><ele>192.0</ele><time>2026-04-11T07:20:56.457Z</time></trkpt><trkpt lat="43.7495094" lon="12.5866847"><ele>192.0</ele><time>2026-04-11T07:20:57.458Z</time></trkpt><trkpt lat="43.7494121" lon="12.586677"><ele>192.0</ele><time>2026-04-11T07:20:58.458Z</time></trkpt><trkpt lat="43.7492973" lon="12.586694"><ele>192.0</ele><time>2026-04-11T07:20:59.457Z</time></trkpt><trkpt lat="43.7491671" lon="12.5867284"><ele>192.0</ele><time>2026-04-11T07:21:00.457Z</time></trkpt><trkpt lat="43.7490474" lon="12.5867723"><ele>193.0</ele><time>2026-04-11T07:21:01.457Z</time></trkpt><trkpt lat="43.7489565" lon="12.5868383"><ele>194.0</ele><time>2026-04-11T07:21:02.457Z</time></trkpt><trkpt lat="43.7488749" lon="12.5869191"><ele>195.0</ele><time>2026-04-11T07:21:03.457Z</time></trkpt><trkpt lat="43.7488037" lon="12.5870305"><ele>196.0</ele><time>2026-04-11T07:21:04.458Z</time></trkpt><trkpt lat="43.7487385" lon="12.5871977"><ele>197.0</ele><time>2026-04-11T07:21:05.457Z</time></trkpt><trkpt lat="43.7486688" lon="12.5874087"><ele>194.0</ele><time>2026-04-11T07:21:06.458Z</time></trkpt><trkpt lat="43.7486037" lon="12.5876435"><ele>191.0</ele><time>2026-04-11T07:21:07.457Z</time></trkpt><trkpt lat="43.7485411" lon="12.5878899"><ele>188.0</ele><time>2026-04-11T07:21:08.457Z</time></trkpt><trkpt lat="43.7484868" lon="12.5881178"><ele>188.0</ele><time>2026-04-11T07:21:09.457Z</time></trkpt><trkpt lat="43.7484369" lon="12.5883146"><ele>188.0</ele><time>2026-04-11T07:21:10.457Z</time></trkpt><trkpt lat="43.7484048" lon="12.5884938"><ele>188.0</ele><time>2026-04-11T07:21:11.457Z</time></trkpt><trkpt lat="43.7483885" lon="12.5886571"><ele>188.0</ele><time>2026-04-11T07:21:12.457Z</time></trkpt><trkpt lat="43.748395" lon="12.5888134"><ele>192.0</ele><time>2026-04-11T07:21:13.457Z</time></trkpt><trkpt lat="43.7484282" lon="12.588962"><ele>196.0</ele><time>2026-04-11T07:21:14.457Z</time></trkpt><trkpt lat="43.7484861" lon="12.5890912"><ele>200.0</ele><time>2026-04-11T07:21:15.457Z</time></trkpt><trkpt lat="43.7485714" lon="12.5891965"><ele>204.0</ele><time>2026-04-11T07:21:16.457Z</time></trkpt><trkpt lat="43.7486841" lon="12.5892734"><ele>204.33333333333331</ele><time>2026-04-11T07:21:17.457Z</time></trkpt><trkpt lat="43.7488277" lon="12.5893313"><ele>204.66666666666666</ele><time>2026-04-11T07:21:18.457Z</time></trkpt><trkpt lat="43.7489926" lon="12.5893731"><ele>205.0</ele><time>2026-04-11T07:21:19.457Z</time></trkpt><trkpt lat="43.7491539" lon="12.5894133"><ele>205.0</ele><time>2026-04-11T07:21:20.457Z</time></trkpt><trkpt lat="43.7493055" lon="12.5894209"><ele>205.0</ele><time>2026-04-11T07:21:21.457Z</time></trkpt><trkpt lat="43.749444" lon="12.5893672"><ele>205.0</ele><time>2026-04-11T07:21:22.457Z</time></trkpt><trkpt lat="43.7495726" lon="12.589246"><ele>205.4</ele><time>2026-04-11T07:21:23.457Z</time></trkpt><trkpt lat="43.7496692" lon="12.5891304"><ele>205.8</ele><time>2026-04-11T07:21:24.457Z</time></trkpt><trkpt lat="43.7497673" lon="12.5890337"><ele>206.2</ele><time>2026-04-11T07:21:25.457Z</time></trkpt><trkpt lat="43.7498626" lon="12.5889775"><ele>206.6</ele><time>2026-04-11T07:21:26.457Z</time></trkpt><trkpt lat="43.7499512" lon="12.5889849"><ele>207.0</ele><time>2026-04-11T07:21:27.457Z</time></trkpt><trkpt lat="43.7500177" lon="12.5890512"><ele>207.0</ele><time>2026-04-11T07:21:28.458Z</time></trkpt><trkpt lat="43.7500507" lon="12.5891542"><ele>207.0</ele><time>2026-04-11T07:21:29.457Z</time></trkpt><trkpt lat="43.7500302" lon="12.5892646"><ele>207.0</ele><time>2026-04-11T07:21:30.457Z</time></trkpt><trkpt lat="43.7499734" lon="12.5893661"><ele>207.0</ele><time>2026-04-11T07:21:31.459Z</time></trkpt><trkpt lat="43.7498814" lon="12.5894533"><ele>207.0</ele><time>2026-04-11T07:21:32.457Z</time></trkpt><trkpt lat="43.7497646" lon="12.5895508"><ele>213.33333333333331</ele><time>2026-04-11T07:21:33.458Z</time></trkpt><trkpt lat="43.7496299" lon="12.5896821"><ele>219.66666666666666</ele><time>2026-04-11T07:21:34.457Z</time></trkpt><trkpt lat="43.7494912" lon="12.589812"><ele>226.0</ele><time>2026-04-11T07:21:35.458Z</time></trkpt><trkpt lat="43.7493589" lon="12.5899074"><ele>226.33333333333331</ele><time>2026-04-11T07:21:36.457Z</time></trkpt><trkpt lat="43.749223" lon="12.5899702"><ele>226.66666666666669</ele><time>2026-04-11T07:21:37.458Z</time></trkpt><trkpt lat="43.7490623" lon="12.5899958"><ele>227.0</ele><time>2026-04-11T07:21:38.458Z</time></trkpt><trkpt lat="43.7488802" lon="12.5900096"><ele>227.0</ele><time>2026-04-11T07:21:39.457Z</time></trkpt><trkpt lat="43.7486754" lon="12.5900392"><ele>227.0</ele><time>2026-04-11T07:21:40.457Z</time></trkpt><trkpt lat="43.7484971" lon="12.5900547"><ele>227.0</ele><time>2026-04-11T07:21:41.457Z</time></trkpt><trkpt lat="43.7483315" lon="12.5900726"><ele>227.66666666666669</ele><time>2026-04-11T07:21:42.457Z</time></trkpt><trkpt lat="43.7481782" lon="12.5900994"><ele>228.33333333333331</ele><time>2026-04-11T07:21:43.457Z</time></trkpt><trkpt lat="43.7480217" lon="12.5901617"><ele>229.0</ele><time>2026-04-11T07:21:44.457Z</time></trkpt><trkpt lat="43.7478565" lon="12.5902634"><ele>237.33333333333331</ele><time>2026-04-11T07:21:45.458Z</time></trkpt><trkpt lat="43.7476764" lon="12.5904084"><ele>245.66666666666669</ele><time>2026-04-11T07:21:46.457Z</time></trkpt><trkpt lat="43.7474837" lon="12.590541"><ele>254.0</ele><time>2026-04-11T07:21:47.457Z</time></trkpt><trkpt lat="43.7472989" lon="12.5906487"><ele>254.0</ele><time>2026-04-11T07:21:48.457Z</time></trkpt><trkpt lat="43.7471301" lon="12.5907399"><ele>254.0</ele><time>2026-04-11T07:21:49.457Z</time></trkpt><trkpt lat="43.7469827" lon="12.5908001"><ele>254.0</ele><time>2026-04-11T07:21:50.458Z</time></trkpt><trkpt lat="43.7468462" lon="12.5908137"><ele>253.25</ele><time>2026-04-11T07:21:51.458Z</time></trkpt><trkpt lat="43.7467118" lon="12.5907701"><ele>252.5</ele><time>2026-04-11T07:21:52.458Z</time></trkpt><trkpt lat="43.7465685" lon="12.5906811"><ele>251.75</ele><time>2026-04-11T07:21:53.458Z</time></trkpt><trkpt lat="43.7464455" lon="12.5905934"><ele>251.0</ele><time>2026-04-11T07:21:54.457Z</time></trkpt><trkpt lat="43.7463308" lon="12.5905236"><ele>251.0</ele><time>2026-04-11T07:21:55.457Z</time></trkpt><trkpt lat="43.7462183" lon="12.5904897"><ele>251.00000000000003</ele><time>2026-04-11T07:21:56.457Z</time></trkpt><trkpt lat="43.7461097" lon="12.5905108"><ele>251.00000000000003</ele><time>2026-04-11T07:21:57.457Z</time></trkpt><trkpt lat="43.7460237" lon="12.5905877"><ele>251.0</ele><time>2026-04-11T07:21:58.457Z</time></trkpt><trkpt lat="43.7459529" lon="12.590717"><ele>251.0</ele><time>2026-04-11T07:21:59.457Z</time></trkpt><trkpt lat="43.745905" lon="12.5908933"><ele>251.75</ele><time>2026-04-11T07:22:00.457Z</time></trkpt><trkpt lat="43.7458687" lon="12.5910991"><ele>252.5</ele><time>2026-04-11T07:22:01.457Z</time></trkpt><trkpt lat="43.7458519" lon="12.5912802"><ele>253.25</ele><time>2026-04-11T07:22:02.457Z</time></trkpt><trkpt lat="43.7458576" lon="12.5914466"><ele>254.0</ele><time>2026-04-11T07:22:03.457Z</time></trkpt><trkpt lat="43.7458981" lon="12.5915909"><ele>254.0</ele><time>2026-04-11T07:22:04.457Z</time></trkpt><trkpt lat="43.7459741" lon="12.5917111"><ele>254.0</ele><time>2026-04-11T07:22:05.457Z</time></trkpt><trkpt lat="43.7460813" lon="12.5917883"><ele>254.0</ele><time>2026-04-11T07:22:06.457Z</time></trkpt><trkpt lat="43.7462214" lon="12.5918208"><ele>254.0</ele><time>2026-04-11T07:22:07.458Z</time></trkpt><trkpt lat="43.7463859" lon="12.5918315"><ele>257.0</ele><time>2026-04-11T07:22:08.457Z</time></trkpt><trkpt lat="43.7465902" lon="12.591823"><ele>260.0</ele><time>2026-04-11T07:22:09.459Z</time></trkpt><trkpt lat="43.7467876" lon="12.591841"><ele>263.0</ele><time>2026-04-11T07:22:10.457Z</time></trkpt><trkpt lat="43.7469631" lon="12.5918717"><ele>263.6666666666667</ele><time>2026-04-11T07:22:11.457Z</time></trkpt><trkpt lat="43.7471277" lon="12.5919295"><ele>264.3333333333333</ele><time>2026-04-11T07:22:12.457Z</time></trkpt><trkpt lat="43.7472902" lon="12.5920108"><ele>265.0</ele><time>2026-04-11T07:22:13.458Z</time></trkpt><trkpt lat="43.7474467" lon="12.5921278"><ele>265.0</ele><time>2026-04-11T07:22:14.458Z</time></trkpt><trkpt lat="43.7476009" lon="12.5922948"><ele>265.0</ele><time>2026-04-11T07:22:15.457Z</time></trkpt><trkpt lat="43.7477332" lon="12.5924462"><ele>265.0</ele><time>2026-04-11T07:22:16.458Z</time></trkpt><trkpt lat="43.7478779" lon="12.5925749"><ele>267.0</ele><time>2026-04-11T07:22:17.457Z</time></trkpt><trkpt lat="43.7480461" lon="12.5926988"><ele>269.0</ele><time>2026-04-11T07:22:18.458Z</time></trkpt><trkpt lat="43.7482422" lon="12.5927835"><ele>271.0</ele><time>2026-04-11T07:22:19.457Z</time></trkpt><trkpt lat="43.7484001" lon="12.5928908"><ele>271.0</ele><time>2026-04-11T07:22:20.458Z</time></trkpt><trkpt lat="43.7485425" lon="12.5930208"><ele>271.0</ele><time>2026-04-11T07:22:21.46Z</time></trkpt><trkpt lat="43.7486741" lon="12.5931672"><ele>271.0</ele><time>2026-04-11T07:22:22.457Z</time></trkpt><trkpt lat="43.7487908" lon="12.5933274"><ele>273.3333333333333</ele><time>2026-04-11T07:22:23.457Z</time></trkpt><trkpt lat="43.7488877" lon="12.5935001"><ele>275.6666666666667</ele><time>2026-04-11T07:22:24.457Z</time></trkpt><trkpt lat="43.7489532" lon="12.5936856"><ele>278.0</ele><time>2026-04-11T07:22:25.458Z</time></trkpt><trkpt lat="43.7489965" lon="12.5938965"><ele>278.0</ele><time>2026-04-11T07:22:26.458Z</time></trkpt><trkpt lat="43.7490053" lon="12.5941306"><ele>278.0</ele><time>2026-04-11T07:22:27.457Z</time></trkpt><trkpt lat="43.7489785" lon="12.5943971"><ele>278.0</ele><time>2026-04-11T07:22:28.458Z</time></trkpt><trkpt lat="43.7489351" lon="12.5946882"><ele>281.5</ele><time>2026-04-11T07:22:29.458Z</time></trkpt><trkpt lat="43.7488831" lon="12.5950105"><ele>285.0</ele><time>2026-04-11T07:22:30.457Z</time></trkpt><trkpt lat="43.7488321" lon="12.5953525"><ele>285.6666666666667</ele><time>2026-04-11T07:22:31.458Z</time></trkpt><trkpt lat="43.7487848" lon="12.595657"><ele>286.33333333333337</ele><time>2026-04-11T07:22:32.457Z</time></trkpt><trkpt lat="43.7487381" lon="12.595938"><ele>287.0</ele><time>2026-04-11T07:22:33.457Z</time></trkpt><trkpt lat="43.7486924" lon="12.5961945"><ele>287.33333333333337</ele><time>2026-04-11T07:22:34.457Z</time></trkpt><trkpt lat="43.7486385" lon="12.5964214"><ele>287.6666666666667</ele><time>2026-04-11T07:22:35.458Z</time></trkpt><trkpt lat="43.748567" lon="12.596616"><ele>288.0</ele><time>2026-04-11T07:22:36.459Z</time></trkpt><trkpt lat="43.7484672" lon="12.5967975"><ele>288.3333333333333</ele><time>2026-04-11T07:22:37.457Z</time></trkpt><trkpt lat="43.7483425" lon="12.5969796"><ele>288.66666666666663</ele><time>2026-04-11T07:22:38.458Z</time></trkpt><trkpt lat="43.7482218" lon="12.5971909"><ele>289.0</ele><time>2026-04-11T07:22:39.458Z</time></trkpt><trkpt lat="43.7481083" lon="12.5974407"><ele>294.0</ele><time>2026-04-11T07:22:40.457Z</time></trkpt><trkpt lat="43.7480099" lon="12.5976675"><ele>299.0</ele><time>2026-04-11T07:22:41.457Z</time></trkpt><trkpt lat="43.7479121" lon="12.597862"><ele>304.0</ele><time>2026-04-11T07:22:42.457Z</time></trkpt><trkpt lat="43.747806" lon="12.5980138"><ele>305.0</ele><time>2026-04-11T07:22:43.457Z</time></trkpt><trkpt lat="43.7476927" lon="12.5981137"><ele>306.0</ele><time>2026-04-11T07:22:44.458Z</time></trkpt><trkpt lat="43.7475686" lon="12.5981622"><ele>307.0</ele><time>2026-04-11T07:22:45.457Z</time></trkpt><trkpt lat="43.7474283" lon="12.5981639"><ele>308.0</ele><time>2026-04-11T07:22:46.457Z</time></trkpt><trkpt lat="43.7472732" lon="12.5981365"><ele>308.0</ele><time>2026-04-11T07:22:47.458Z</time></trkpt><trkpt lat="43.7471143" lon="12.5981108"><ele>308.0</ele><time>2026-04-11T07:22:48.458Z</time></trkpt><trkpt lat="43.7469814" lon="12.5980938"><ele>308.0</ele><time>2026-04-11T07:22:49.458Z</time></trkpt><trkpt lat="43.7468608" lon="12.5980885"><ele>308.0</ele><time>2026-04-11T07:22:50.457Z</time></trkpt><trkpt lat="43.7467522" lon="12.5981161"><ele>310.25</ele><time>2026-04-11T07:22:51.458Z</time></trkpt><trkpt lat="43.7466508" lon="12.5981935"><ele>312.5</ele><time>2026-04-11T07:22:52.459Z</time></trkpt><trkpt lat="43.7465706" lon="12.5983321"><ele>314.75</ele><time>2026-04-11T07:22:53.457Z</time></trkpt><trkpt lat="43.7465062" lon="12.5985145"><ele>317.0</ele><time>2026-04-11T07:22:54.457Z</time></trkpt><trkpt lat="43.7464452" lon="12.5987366"><ele>319.0</ele><time>2026-04-11T07:22:55.458Z</time></trkpt><trkpt lat="43.7463717" lon="12.5989799"><ele>321.0</ele><time>2026-04-11T07:22:56.458Z</time></trkpt><trkpt lat="43.7462943" lon="12.5992428"><ele>323.0</ele><time>2026-04-11T07:22:57.457Z</time></trkpt><trkpt lat="43.7462294" lon="12.5994762"><ele>326.33333333333337</ele><time>2026-04-11T07:22:58.458Z</time></trkpt><trkpt lat="43.7461826" lon="12.5996928"><ele>329.6666666666667</ele><time>2026-04-11T07:22:59.457Z</time></trkpt><trkpt lat="43.7461578" lon="12.5999254"><ele>333.0</ele><time>2026-04-11T07:23:00.457Z</time></trkpt><trkpt lat="43.746155" lon="12.6001796"><ele>336.3333333333333</ele><time>2026-04-11T07:23:01.457Z</time></trkpt><trkpt lat="43.7461647" lon="12.6004484"><ele>339.66666666666663</ele><time>2026-04-11T07:23:02.457Z</time></trkpt><trkpt lat="43.7461704" lon="12.6006904"><ele>343.0</ele><time>2026-04-11T07:23:03.457Z</time></trkpt><trkpt lat="43.7461677" lon="12.6009166"><ele>343.0</ele><time>2026-04-11T07:23:04.457Z</time></trkpt><trkpt lat="43.7461545" lon="12.6011433"><ele>343.0</ele><time>2026-04-11T07:23:05.457Z</time></trkpt><trkpt lat="43.7461241" lon="12.6013774"><ele>343.0</ele><time>2026-04-11T07:23:06.457Z</time></trkpt><trkpt lat="43.7460687" lon="12.6016117"><ele>339.3333333333333</ele><time>2026-04-11T07:23:07.457Z</time></trkpt><trkpt lat="43.7459964" lon="12.6018554"><ele>335.6666666666667</ele><time>2026-04-11T07:23:08.458Z</time></trkpt><trkpt lat="43.7459344" lon="12.6021009"><ele>332.0</ele><time>2026-04-11T07:23:09.457Z</time></trkpt><trkpt lat="43.7458489" lon="12.602339"><ele>332.0</ele><time>2026-04-11T07:23:10.458Z</time></trkpt><trkpt lat="43.7457891" lon="12.6025581"><ele>332.0</ele><time>2026-04-11T07:23:11.457Z</time></trkpt><trkpt lat="43.7457517" lon="12.602755"><ele>332.0</ele><time>2026-04-11T07:23:12.457Z</time></trkpt><trkpt lat="43.7457476" lon="12.6029475"><ele>334.6666666666667</ele><time>2026-04-11T07:23:13.457Z</time></trkpt><trkpt lat="43.7457865" lon="12.6031571"><ele>337.3333333333333</ele><time>2026-04-11T07:23:14.457Z</time></trkpt><trkpt lat="43.745824" lon="12.6033692"><ele>340.0</ele><time>2026-04-11T07:23:15.458Z</time></trkpt><trkpt lat="43.7458564" lon="12.6035587"><ele>341.0</ele><time>2026-04-11T07:23:16.457Z</time></trkpt><trkpt lat="43.7458587" lon="12.6037669"><ele>342.0</ele><time>2026-04-11T07:23:17.457Z</time></trkpt><trkpt lat="43.7458329" lon="12.6039738"><ele>343.0</ele><time>2026-04-11T07:23:18.457Z</time></trkpt><trkpt lat="43.7457875" lon="12.604169"><ele>343.0</ele><time>2026-04-11T07:23:19.457Z</time></trkpt><trkpt lat="43.7457728" lon="12.6043597"><ele>343.0</ele><time>2026-04-11T07:23:20.457Z</time></trkpt><trkpt lat="43.7457907" lon="12.6045683"><ele>343.0</ele><time>2026-04-11T07:23:21.457Z</time></trkpt><trkpt lat="43.7458445" lon="12.6047885"><ele>345.66666666666663</ele><time>2026-04-11T07:23:22.457Z</time></trkpt><trkpt lat="43.7459049" lon="12.6050017"><ele>348.3333333333333</ele><time>2026-04-11T07:23:23.457Z</time></trkpt><trkpt lat="43.74595" lon="12.6052066"><ele>351.0</ele><time>2026-04-11T07:23:24.457Z</time></trkpt><trkpt lat="43.7459822" lon="12.605408"><ele>352.75</ele><time>2026-04-11T07:23:25.457Z</time></trkpt><trkpt lat="43.7459601" lon="12.6055982"><ele>354.5</ele><time>2026-04-11T07:23:26.458Z</time></trkpt><trkpt lat="43.7459185" lon="12.6058031"><ele>356.25</ele><time>2026-04-11T07:23:27.458Z</time></trkpt><trkpt lat="43.7458915" lon="12.6060102"><ele>358.0</ele><time>2026-04-11T07:23:28.457Z</time></trkpt><trkpt lat="43.7458726" lon="12.6062332"><ele>359.3333333333333</ele><time>2026-04-11T07:23:29.457Z</time></trkpt><trkpt lat="43.7458447" lon="12.6064712"><ele>360.6666666666667</ele><time>2026-04-11T07:23:30.458Z</time></trkpt><trkpt lat="43.7458171" lon="12.6066982"><ele>362.0</ele><time>2026-04-11T07:23:31.458Z</time></trkpt><trkpt lat="43.7458019" lon="12.6069012"><ele>364.25</ele><time>2026-04-11T07:23:32.457Z</time></trkpt><trkpt lat="43.7458099" lon="12.6071035"><ele>366.5</ele><time>2026-04-11T07:23:33.457Z</time></trkpt><trkpt lat="43.7458448" lon="12.6073003"><ele>368.75</ele><time>2026-04-11T07:23:34.458Z</time></trkpt><trkpt lat="43.7459133" lon="12.6074822"><ele>371.0</ele><time>2026-04-11T07:23:35.457Z</time></trkpt><trkpt lat="43.7460172" lon="12.6076249"><ele>364.6666666666667</ele><time>2026-04-11T07:23:36.457Z</time></trkpt><trkpt lat="43.7461442" lon="12.6077269"><ele>358.3333333333333</ele><time>2026-04-11T07:23:37.458Z</time></trkpt><trkpt lat="43.7462674" lon="12.6078093"><ele>352.0</ele><time>2026-04-11T07:23:38.458Z</time></trkpt><trkpt lat="43.7464418" lon="12.6077658"><ele>352.0</ele><time>2026-04-11T07:23:39.457Z</time></trkpt><trkpt lat="43.7465851" lon="12.6077634"><ele>352.0</ele><time>2026-04-11T07:23:40.457Z</time></trkpt><trkpt lat="43.7467061" lon="12.6077439"><ele>352.0</ele><time>2026-04-11T07:23:41.457Z</time></trkpt><trkpt lat="43.7468177" lon="12.6077728"><ele>352.0</ele><time>2026-04-11T07:23:42.457Z</time></trkpt><trkpt lat="43.7469141" lon="12.607847"><ele>352.0</ele><time>2026-04-11T07:23:43.457Z</time></trkpt><trkpt lat="43.7470109" lon="12.6079233"><ele>352.0</ele><time>2026-04-11T07:23:44.457Z</time></trkpt><trkpt lat="43.7470382" lon="12.6081046"><ele>352.0</ele><time>2026-04-11T07:23:45.457Z</time></trkpt><trkpt lat="43.7470777" lon="12.6082899"><ele>352.0</ele><time>2026-04-11T07:23:46.459Z</time></trkpt><trkpt lat="43.7471281" lon="12.6084919"><ele>359.3333333333333</ele><time>2026-04-11T07:23:47.458Z</time></trkpt><trkpt lat="43.7472005" lon="12.6086971"><ele>366.6666666666667</ele><time>2026-04-11T07:23:48.458Z</time></trkpt><trkpt lat="43.7473046" lon="12.6088858"><ele>374.0</ele><time>2026-04-11T07:23:49.457Z</time></trkpt><trkpt lat="43.747437" lon="12.6090315"><ele>374.0</ele><time>2026-04-11T07:23:50.458Z</time></trkpt><trkpt lat="43.7475645" lon="12.6091351"><ele>374.0</ele><time>2026-04-11T07:23:51.458Z</time></trkpt><trkpt lat="43.74768" lon="12.6092282"><ele>374.0</ele><time>2026-04-11T07:23:52.457Z</time></trkpt><trkpt lat="43.7477832" lon="12.6093402"><ele>374.0</ele><time>2026-04-11T07:23:53.457Z</time></trkpt><trkpt lat="43.7478689" lon="12.6094817"><ele>370.5</ele><time>2026-04-11T07:23:54.457Z</time></trkpt><trkpt lat="43.7479248" lon="12.6096421"><ele>367.0</ele><time>2026-04-11T07:23:55.457Z</time></trkpt><trkpt lat="43.7479521" lon="12.6098391"><ele>363.5</ele><time>2026-04-11T07:23:56.458Z</time></trkpt><trkpt lat="43.7479584" lon="12.6100669"><ele>360.0</ele><time>2026-04-11T07:23:57.457Z</time></trkpt><trkpt lat="43.7479622" lon="12.6103223"><ele>363.0</ele><time>2026-04-11T07:23:58.458Z</time></trkpt><trkpt lat="43.7479656" lon="12.6105883"><ele>366.0</ele><time>2026-04-11T07:23:59.457Z</time></trkpt><trkpt lat="43.7479771" lon="12.6108305"><ele>369.0</ele><time>2026-04-11T07:24:00.457Z</time></trkpt><trkpt lat="43.747978" lon="12.6110442"><ele>371.79999999999995</ele><time>2026-04-11T07:24:01.458Z</time></trkpt><trkpt lat="43.7479753" lon="12.6112235"><ele>374.59999999999997</ele><time>2026-04-11T07:24:02.457Z</time></trkpt><trkpt lat="43.747977" lon="12.6113853"><ele>377.4</ele><time>2026-04-11T07:24:03.457Z</time></trkpt><trkpt lat="43.7479817" lon="12.6114827"><ele>380.2</ele><time>2026-04-11T07:24:05.457Z</time></trkpt><trkpt lat="43.7480456" lon="12.6114762"><ele>383.0</ele><time>2026-04-11T07:24:08.457Z</time></trkpt><trkpt lat="43.7481402" lon="12.6115104"><ele>383.0</ele><time>2026-04-11T07:24:10.457Z</time></trkpt><trkpt lat="43.7482282" lon="12.6115257"><ele>383.0</ele><time>2026-04-11T07:24:11.457Z</time></trkpt><trkpt lat="43.748316" lon="12.6115349"><ele>383.0</ele><time>2026-04-11T07:24:12.457Z</time></trkpt><trkpt lat="43.7484331" lon="12.6115613"><ele>383.0</ele><time>2026-04-11T07:24:13.458Z</time></trkpt><trkpt lat="43.74854" lon="12.6115955"><ele>383.0</ele><time>2026-04-11T07:24:14.458Z</time></trkpt><trkpt lat="43.7486452" lon="12.6116377"><ele>382.4</ele><time>2026-04-11T07:24:15.458Z</time></trkpt><trkpt lat="43.7487471" lon="12.6116862"><ele>381.79999999999995</ele><time>2026-04-11T07:24:16.457Z</time></trkpt><trkpt lat="43.7488392" lon="12.6117509"><ele>381.2</ele><time>2026-04-11T07:24:17.457Z</time></trkpt><trkpt lat="43.7489215" lon="12.611806"><ele>380.6</ele><time>2026-04-11T07:24:18.458Z</time></trkpt><trkpt lat="43.7489986" lon="12.6118684"><ele>380.0</ele><time>2026-04-11T07:24:19.457Z</time></trkpt><trkpt lat="43.7490643" lon="12.6119166"><ele>380.0</ele><time>2026-04-11T07:24:20.457Z</time></trkpt><trkpt lat="43.749185" lon="12.6119617"><ele>380.0</ele><time>2026-04-11T07:24:22.458Z</time></trkpt><trkpt lat="43.7492508" lon="12.6119643"><ele>380.0</ele><time>2026-04-11T07:24:23.457Z</time></trkpt><trkpt lat="43.7493779" lon="12.6119548"><ele>380.0</ele><time>2026-04-11T07:24:25.457Z</time></trkpt><trkpt lat="43.7494406" lon="12.6119344"><ele>380.0</ele><time>2026-04-11T07:24:27.458Z</time></trkpt><trkpt lat="43.7495065" lon="12.6118347"><ele>380.83333333333337</ele><time>2026-04-11T07:24:35.457Z</time></trkpt><trkpt lat="43.7495909" lon="12.6117439"><ele>381.6666666666667</ele><time>2026-04-11T07:24:37.457Z</time></trkpt><trkpt lat="43.7496592" lon="12.6117092"><ele>382.5</ele><time>2026-04-11T07:24:39.457Z</time></trkpt><trkpt lat="43.7497219" lon="12.6116993"><ele>383.33333333333337</ele><time>2026-04-11T07:24:41.457Z</time></trkpt><trkpt lat="43.7497968" lon="12.6117081"><ele>384.1666666666667</ele><time>2026-04-11T07:24:43.457Z</time></trkpt><trkpt lat="43.7499097" lon="12.6117289"><ele>385.0</ele><time>2026-04-11T07:24:45.457Z</time></trkpt><trkpt lat="43.7500008" lon="12.6117348"><ele>385.0</ele><time>2026-04-11T07:24:47.457Z</time></trkpt><trkpt lat="43.7500806" lon="12.6117324"><ele>385.0</ele><time>2026-04-11T07:24:49.457Z</time></trkpt><trkpt lat="43.7501609" lon="12.6117211"><ele>385.0</ele><time>2026-04-11T07:24:51.457Z</time></trkpt><trkpt lat="43.750262" lon="12.6117091"><ele>385.0</ele><time>2026-04-11T07:24:53.457Z</time></trkpt><trkpt lat="43.7503845" lon="12.6117075"><ele>385.0</ele><time>2026-04-11T07:24:55.457Z</time></trkpt><trkpt lat="43.7504972" lon="12.6117319"><ele>386.4</ele><time>2026-04-11T07:24:57.457Z</time></trkpt><trkpt lat="43.7505927" lon="12.6117711"><ele>387.8</ele><time>2026-04-11T07:24:59.457Z</time></trkpt><trkpt lat="43.7506716" lon="12.6118168"><ele>389.20000000000005</ele><time>2026-04-11T07:25:01.458Z</time></trkpt><trkpt lat="43.7507689" lon="12.6118985"><ele>390.6</ele><time>2026-04-11T07:25:03.457Z</time></trkpt><trkpt lat="43.7508309" lon="12.611956"><ele>392.0</ele><time>2026-04-11T07:25:04.458Z</time></trkpt><trkpt lat="43.750925" lon="12.6120451"><ele>392.0</ele><time>2026-04-11T07:25:06.458Z</time></trkpt><trkpt lat="43.7509942" lon="12.6121401"><ele>392.0</ele><time>2026-04-11T07:25:08.458Z</time></trkpt><trkpt lat="43.7510563" lon="12.6122828"><ele>392.0</ele><time>2026-04-11T07:25:10.457Z</time></trkpt><trkpt lat="43.7510837" lon="12.612364"><ele>392.0</ele><time>2026-04-11T07:25:11.458Z</time></trkpt><trkpt lat="43.7511612" lon="12.6124958"><ele>392.0</ele><time>2026-04-11T07:25:13.458Z</time></trkpt><trkpt lat="43.7512597" lon="12.6126126"><ele>390.8</ele><time>2026-04-11T07:25:15.457Z</time></trkpt><trkpt lat="43.7513238" lon="12.6126673"><ele>389.6</ele><time>2026-04-11T07:25:16.457Z</time></trkpt><trkpt lat="43.7514175" lon="12.6127632"><ele>388.40000000000003</ele><time>2026-04-11T07:25:18.457Z</time></trkpt><trkpt lat="43.7515112" lon="12.6128764"><ele>387.20000000000005</ele><time>2026-04-11T07:25:20.457Z</time></trkpt><trkpt lat="43.7515507" lon="12.6129511"><ele>386.0</ele><time>2026-04-11T07:25:21.457Z</time></trkpt><trkpt lat="43.7515944" lon="12.613033"><ele>385.99999999999994</ele><time>2026-04-11T07:25:22.458Z</time></trkpt><trkpt lat="43.7516469" lon="12.6131107"><ele>386.0</ele><time>2026-04-11T07:25:23.458Z</time></trkpt><trkpt lat="43.7516997" lon="12.6131979"><ele>386.0</ele><time>2026-04-11T07:25:24.457Z</time></trkpt><trkpt lat="43.7517517" lon="12.6132861"><ele>386.0</ele><time>2026-04-11T07:25:25.457Z</time></trkpt><trkpt lat="43.7518019" lon="12.6133735"><ele>385.99999999999994</ele><time>2026-04-11T07:25:26.457Z</time></trkpt><trkpt lat="43.7518568" lon="12.6134469"><ele>386.0</ele><time>2026-04-11T07:25:27.457Z</time></trkpt><trkpt lat="43.751912" lon="12.6135065"><ele>384.3333333333333</ele><time>2026-04-11T07:25:28.457Z</time></trkpt><trkpt lat="43.7520103" lon="12.613611"><ele>382.66666666666663</ele><time>2026-04-11T07:25:30.457Z</time></trkpt><trkpt lat="43.7520667" lon="12.613653"><ele>381.0</ele><time>2026-04-11T07:25:31.458Z</time></trkpt><trkpt lat="43.752128" lon="12.6136824"><ele>379.3333333333333</ele><time>2026-04-11T07:25:32.457Z</time></trkpt><trkpt lat="43.7521912" lon="12.6137024"><ele>377.66666666666663</ele><time>2026-04-11T07:25:33.457Z</time></trkpt><trkpt lat="43.7522611" lon="12.6137087"><ele>376.0</ele><time>2026-04-11T07:25:34.457Z</time></trkpt><trkpt lat="43.7523247" lon="12.6137109"><ele>376.0</ele><time>2026-04-11T07:25:35.457Z</time></trkpt><trkpt lat="43.7524383" lon="12.6136982"><ele>376.0</ele><time>2026-04-11T07:25:37.457Z</time></trkpt><trkpt lat="43.7525413" lon="12.6136541"><ele>376.0</ele><time>2026-04-11T07:25:39.457Z</time></trkpt><trkpt lat="43.7526253" lon="12.6135889"><ele>376.0</ele><time>2026-04-11T07:25:41.457Z</time></trkpt><trkpt lat="43.752686" lon="12.6134956"><ele>376.0</ele><time>2026-04-11T07:25:43.457Z</time></trkpt><trkpt lat="43.7527474" lon="12.6133816"><ele>373.4</ele><time>2026-04-11T07:25:45.457Z</time></trkpt><trkpt lat="43.7527941" lon="12.613323"><ele>370.8</ele><time>2026-04-11T07:25:46.457Z</time></trkpt><trkpt lat="43.7528447" lon="12.6132632"><ele>368.2</ele><time>2026-04-11T07:25:47.458Z</time></trkpt><trkpt lat="43.7529332" lon="12.6131442"><ele>365.59999999999997</ele><time>2026-04-11T07:25:49.457Z</time></trkpt><trkpt lat="43.7530186" lon="12.6130251"><ele>363.0</ele><time>2026-04-11T07:25:51.457Z</time></trkpt><trkpt lat="43.7530785" lon="12.6129046"><ele>363.1666666666667</ele><time>2026-04-11T07:25:53.458Z</time></trkpt><trkpt lat="43.753125" lon="12.6128009"><ele>363.3333333333333</ele><time>2026-04-11T07:25:55.458Z</time></trkpt><trkpt lat="43.7531564" lon="12.6127096"><ele>363.5</ele><time>2026-04-11T07:25:57.457Z</time></trkpt><trkpt lat="43.753181" lon="12.6126236"><ele>363.66666666666663</ele><time>2026-04-11T07:25:59.458Z</time></trkpt><trkpt lat="43.7532131" lon="12.6125017"><ele>363.8333333333333</ele><time>2026-04-11T07:26:02.457Z</time></trkpt><trkpt lat="43.7532787" lon="12.6123858"><ele>364.0</ele><time>2026-04-11T07:26:04.457Z</time></trkpt><trkpt lat="43.7533221" lon="12.6123017"><ele>364.0</ele><time>2026-04-11T07:26:05.458Z</time></trkpt><trkpt lat="43.7533772" lon="12.6122028"><ele>364.0</ele><time>2026-04-11T07:26:06.457Z</time></trkpt><trkpt lat="43.753442" lon="12.6121085"><ele>364.0</ele><time>2026-04-11T07:26:07.457Z</time></trkpt><trkpt lat="43.7535069" lon="12.6120187"><ele>364.0</ele><time>2026-04-11T07:26:08.458Z</time></trkpt><trkpt lat="43.7535657" lon="12.6119505"><ele>364.0</ele><time>2026-04-11T07:26:09.457Z</time></trkpt><trkpt lat="43.7536323" lon="12.611904"><ele>364.0</ele><time>2026-04-11T07:26:10.458Z</time></trkpt><trkpt lat="43.7537184" lon="12.6118704"><ele>361.0</ele><time>2026-04-11T07:26:11.457Z</time></trkpt><trkpt lat="43.7538089" lon="12.6118648"><ele>358.0</ele><time>2026-04-11T07:26:12.458Z</time></trkpt><trkpt lat="43.7538892" lon="12.6118732"><ele>355.0</ele><time>2026-04-11T07:26:13.457Z</time></trkpt><trkpt lat="43.7539672" lon="12.6118864"><ele>352.0</ele><time>2026-04-11T07:26:14.457Z</time></trkpt><trkpt lat="43.7540458" lon="12.6119073"><ele>349.0</ele><time>2026-04-11T07:26:15.457Z</time></trkpt><trkpt lat="43.7541278" lon="12.6119223"><ele>346.0</ele><time>2026-04-11T07:26:16.457Z</time></trkpt><trkpt lat="43.7542138" lon="12.6119303"><ele>346.0</ele><time>2026-04-11T07:26:17.457Z</time></trkpt><trkpt lat="43.7543039" lon="12.6119337"><ele>346.0</ele><time>2026-04-11T07:26:18.457Z</time></trkpt><trkpt lat="43.7543953" lon="12.6119224"><ele>346.0</ele><time>2026-04-11T07:26:19.457Z</time></trkpt><trkpt lat="43.7544886" lon="12.6118955"><ele>346.0</ele><time>2026-04-11T07:26:20.459Z</time></trkpt><trkpt lat="43.7545832" lon="12.6118554"><ele>346.0</ele><time>2026-04-11T07:26:21.457Z</time></trkpt><trkpt lat="43.7546825" lon="12.6118019"><ele>345.6</ele><time>2026-04-11T07:26:22.458Z</time></trkpt><trkpt lat="43.7547883" lon="12.6117385"><ele>345.20000000000005</ele><time>2026-04-11T07:26:23.457Z</time></trkpt><trkpt lat="43.7548838" lon="12.6116687"><ele>344.79999999999995</ele><time>2026-04-11T07:26:24.457Z</time></trkpt><trkpt lat="43.7549761" lon="12.6115979"><ele>344.4</ele><time>2026-04-11T07:26:25.458Z</time></trkpt><trkpt lat="43.7550675" lon="12.6115279"><ele>344.0</ele><time>2026-04-11T07:26:26.457Z</time></trkpt><trkpt lat="43.7551591" lon="12.6114649"><ele>342.4</ele><time>2026-04-11T07:26:27.458Z</time></trkpt><trkpt lat="43.7552522" lon="12.6114153"><ele>340.79999999999995</ele><time>2026-04-11T07:26:28.457Z</time></trkpt><trkpt lat="43.7553445" lon="12.6113882"><ele>339.20000000000005</ele><time>2026-04-11T07:26:29.457Z</time></trkpt><trkpt lat="43.7554345" lon="12.6113723"><ele>337.6</ele><time>2026-04-11T07:26:30.457Z</time></trkpt><trkpt lat="43.7555122" lon="12.6113584"><ele>336.0</ele><time>2026-04-11T07:26:31.457Z</time></trkpt><trkpt lat="43.7556179" lon="12.6113689"><ele>336.0</ele><time>2026-04-11T07:26:33.457Z</time></trkpt><trkpt lat="43.7556714" lon="12.6114195"><ele>336.0</ele><time>2026-04-11T07:26:35.457Z</time></trkpt><trkpt lat="43.7557416" lon="12.6114585"><ele>336.0</ele><time>2026-04-11T07:26:37.458Z</time></trkpt><trkpt lat="43.7558174" lon="12.6114418"><ele>336.0</ele><time>2026-04-11T07:26:38.458Z</time></trkpt><trkpt lat="43.75591" lon="12.6114021"><ele>336.0</ele><time>2026-04-11T07:26:39.457Z</time></trkpt><trkpt lat="43.7560241" lon="12.6113592"><ele>336.0</ele><time>2026-04-11T07:26:40.458Z</time></trkpt><trkpt lat="43.7561486" lon="12.611294"><ele>334.0</ele><time>2026-04-11T07:26:41.457Z</time></trkpt><trkpt lat="43.7563016" lon="12.611193"><ele>332.0</ele><time>2026-04-11T07:26:42.459Z</time></trkpt><trkpt lat="43.7564681" lon="12.6110849"><ele>330.0</ele><time>2026-04-11T07:26:43.457Z</time></trkpt><trkpt lat="43.7566454" lon="12.6109664"><ele>332.25</ele><time>2026-04-11T07:26:44.458Z</time></trkpt><trkpt lat="43.756795" lon="12.6108719"><ele>334.5</ele><time>2026-04-11T07:26:45.457Z</time></trkpt><trkpt lat="43.7569319" lon="12.61078"><ele>336.75</ele><time>2026-04-11T07:26:46.458Z</time></trkpt><trkpt lat="43.7570499" lon="12.6107021"><ele>339.0</ele><time>2026-04-11T07:26:47.458Z</time></trkpt><trkpt lat="43.7571547" lon="12.6106322"><ele>339.0</ele><time>2026-04-11T07:26:48.458Z</time></trkpt><trkpt lat="43.7572567" lon="12.6105562"><ele>339.0</ele><time>2026-04-11T07:26:49.458Z</time></trkpt><trkpt lat="43.757364" lon="12.6104672"><ele>339.0</ele><time>2026-04-11T07:26:50.458Z</time></trkpt><trkpt lat="43.7574654" lon="12.6103462"><ele>339.0</ele><time>2026-04-11T07:26:51.458Z</time></trkpt><trkpt lat="43.7575775" lon="12.6101998"><ele>340.3333333333333</ele><time>2026-04-11T07:26:52.458Z</time></trkpt><trkpt lat="43.7577012" lon="12.6100284"><ele>341.66666666666663</ele><time>2026-04-11T07:26:53.457Z</time></trkpt><trkpt lat="43.7578328" lon="12.6098375"><ele>343.0</ele><time>2026-04-11T07:26:54.458Z</time></trkpt><trkpt lat="43.7579657" lon="12.6096452"><ele>346.3333333333333</ele><time>2026-04-11T07:26:55.457Z</time></trkpt><trkpt lat="43.7580875" lon="12.6094572"><ele>349.6666666666667</ele><time>2026-04-11T07:26:56.458Z</time></trkpt><trkpt lat="43.7581985" lon="12.6092875"><ele>353.0</ele><time>2026-04-11T07:26:57.458Z</time></trkpt><trkpt lat="43.7582894" lon="12.6091458"><ele>353.0</ele><time>2026-04-11T07:26:58.457Z</time></trkpt><trkpt lat="43.7583664" lon="12.6090277"><ele>353.0</ele><time>2026-04-11T07:26:59.457Z</time></trkpt><trkpt lat="43.7584331" lon="12.6089307"><ele>353.0</ele><time>2026-04-11T07:27:00.457Z</time></trkpt><trkpt lat="43.7584899" lon="12.6088529"><ele>353.0</ele><time>2026-04-11T07:27:01.457Z</time></trkpt><trkpt lat="43.7585394" lon="12.6087824"><ele>353.0</ele><time>2026-04-11T07:27:02.458Z</time></trkpt><trkpt lat="43.758585" lon="12.6087145"><ele>353.0</ele><time>2026-04-11T07:27:03.458Z</time></trkpt><trkpt lat="43.7586355" lon="12.6086361"><ele>355.0</ele><time>2026-04-11T07:27:04.457Z</time></trkpt><trkpt lat="43.7586986" lon="12.6085436"><ele>357.0</ele><time>2026-04-11T07:27:05.457Z</time></trkpt><trkpt lat="43.7587726" lon="12.6084341"><ele>359.0</ele><time>2026-04-11T07:27:06.458Z</time></trkpt><trkpt lat="43.7588522" lon="12.6083205"><ele>361.0</ele><time>2026-04-11T07:27:07.457Z</time></trkpt><trkpt lat="43.7589391" lon="12.6082142"><ele>363.0</ele><time>2026-04-11T07:27:08.457Z</time></trkpt><trkpt lat="43.7590374" lon="12.608126"><ele>363.0</ele><time>2026-04-11T07:27:09.458Z</time></trkpt><trkpt lat="43.7591387" lon="12.6080586"><ele>363.0</ele><time>2026-04-11T07:27:10.457Z</time></trkpt><trkpt lat="43.7592454" lon="12.6080105"><ele>363.0</ele><time>2026-04-11T07:27:11.457Z</time></trkpt><trkpt lat="43.759355" lon="12.6079799"><ele>363.0</ele><time>2026-04-11T07:27:12.457Z</time></trkpt><trkpt lat="43.7594708" lon="12.607966"><ele>365.75</ele><time>2026-04-11T07:27:13.457Z</time></trkpt><trkpt lat="43.7595882" lon="12.6079821"><ele>368.5</ele><time>2026-04-11T07:27:14.457Z</time></trkpt><trkpt lat="43.7597098" lon="12.6080211"><ele>371.25</ele><time>2026-04-11T07:27:15.458Z</time></trkpt><trkpt lat="43.759826" lon="12.608082"><ele>374.0</ele><time>2026-04-11T07:27:16.457Z</time></trkpt><trkpt lat="43.7599318" lon="12.6081651"><ele>374.0</ele><time>2026-04-11T07:27:17.457Z</time></trkpt><trkpt lat="43.7600263" lon="12.6082748"><ele>374.0</ele><time>2026-04-11T07:27:18.458Z</time></trkpt><trkpt lat="43.760116" lon="12.6083856"><ele>374.0</ele><time>2026-04-11T07:27:19.457Z</time></trkpt><trkpt lat="43.7602028" lon="12.608499"><ele>374.0</ele><time>2026-04-11T07:27:20.458Z</time></trkpt><trkpt lat="43.7602877" lon="12.6086074"><ele>372.25</ele><time>2026-04-11T07:27:21.457Z</time></trkpt><trkpt lat="43.7603842" lon="12.6086931"><ele>370.5</ele><time>2026-04-11T07:27:22.457Z</time></trkpt><trkpt lat="43.7604946" lon="12.6087357"><ele>368.75</ele><time>2026-04-11T07:27:23.459Z</time></trkpt><trkpt lat="43.7606019" lon="12.6087301"><ele>367.0</ele><time>2026-04-11T07:27:24.458Z</time></trkpt><trkpt lat="43.760726" lon="12.6086713"><ele>371.0</ele><time>2026-04-11T07:27:25.458Z</time></trkpt><trkpt lat="43.7608646" lon="12.6085792"><ele>375.0</ele><time>2026-04-11T07:27:26.458Z</time></trkpt><trkpt lat="43.7610182" lon="12.6084792"><ele>379.0</ele><time>2026-04-11T07:27:27.458Z</time></trkpt><trkpt lat="43.761244" lon="12.6083093"><ele>379.0</ele><time>2026-04-11T07:27:28.457Z</time></trkpt><trkpt lat="43.7614467" lon="12.6081665"><ele>379.0</ele><time>2026-04-11T07:27:29.457Z</time></trkpt><trkpt lat="43.7616865" lon="12.6080203"><ele>379.0</ele><time>2026-04-11T07:27:30.457Z</time></trkpt><trkpt lat="43.7618916" lon="12.6078728"><ele>379.0</ele><time>2026-04-11T07:27:31.458Z</time></trkpt><trkpt lat="43.7620795" lon="12.6077398"><ele>379.0</ele><time>2026-04-11T07:27:32.457Z</time></trkpt><trkpt lat="43.7622638" lon="12.6076075"><ele>383.66666666666663</ele><time>2026-04-11T07:27:33.457Z</time></trkpt><trkpt lat="43.762399" lon="12.6075113"><ele>388.3333333333333</ele><time>2026-04-11T07:27:34.457Z</time></trkpt><trkpt lat="43.7625426" lon="12.607408"><ele>393.0</ele><time>2026-04-11T07:27:35.458Z</time></trkpt><trkpt lat="43.7626833" lon="12.6073148"><ele>393.0</ele><time>2026-04-11T07:27:36.457Z</time></trkpt><trkpt lat="43.7628185" lon="12.607222"><ele>393.0</ele><time>2026-04-11T07:27:37.457Z</time></trkpt><trkpt lat="43.7629498" lon="12.6071204"><ele>393.0</ele><time>2026-04-11T07:27:38.458Z</time></trkpt><trkpt lat="43.7630819" lon="12.607024"><ele>393.5</ele><time>2026-04-11T07:27:39.458Z</time></trkpt><trkpt lat="43.7632158" lon="12.606932"><ele>394.0</ele><time>2026-04-11T07:27:40.458Z</time></trkpt><trkpt lat="43.7633547" lon="12.6068608"><ele>394.5</ele><time>2026-04-11T07:27:41.457Z</time></trkpt><trkpt lat="43.7634982" lon="12.6068161"><ele>395.0</ele><time>2026-04-11T07:27:42.458Z</time></trkpt><trkpt lat="43.7636461" lon="12.6067904"><ele>395.0</ele><time>2026-04-11T07:27:43.458Z</time></trkpt><trkpt lat="43.7637865" lon="12.6067877"><ele>395.0</ele><time>2026-04-11T07:27:44.458Z</time></trkpt><trkpt lat="43.7639132" lon="12.606797"><ele>395.0</ele><time>2026-04-11T07:27:45.457Z</time></trkpt><trkpt lat="43.7640411" lon="12.6068308"><ele>395.0</ele><time>2026-04-11T07:27:46.458Z</time></trkpt><trkpt lat="43.7641709" lon="12.6068827"><ele>395.0</ele><time>2026-04-11T07:27:47.458Z</time></trkpt><trkpt lat="43.7642932" lon="12.6069656"><ele>395.0</ele><time>2026-04-11T07:27:48.457Z</time></trkpt><trkpt lat="43.7644165" lon="12.6070515"><ele>395.0</ele><time>2026-04-11T07:27:49.457Z</time></trkpt><trkpt lat="43.7645355" lon="12.6071582"><ele>395.0</ele><time>2026-04-11T07:27:50.458Z</time></trkpt><trkpt lat="43.7646575" lon="12.6072605"><ele>397.25</ele><time>2026-04-11T07:27:51.457Z</time></trkpt><trkpt lat="43.7647887" lon="12.6073608"><ele>399.5</ele><time>2026-04-11T07:27:52.457Z</time></trkpt><trkpt lat="43.7649225" lon="12.6074735"><ele>401.75</ele><time>2026-04-11T07:27:53.457Z</time></trkpt><trkpt lat="43.7650381" lon="12.6075695"><ele>404.0</ele><time>2026-04-11T07:27:54.458Z</time></trkpt><trkpt lat="43.7651507" lon="12.6076398"><ele>403.5</ele><time>2026-04-11T07:27:55.457Z</time></trkpt><trkpt lat="43.7652697" lon="12.6076682"><ele>403.0</ele><time>2026-04-11T07:27:56.458Z</time></trkpt><trkpt lat="43.7653849" lon="12.6076459"><ele>402.5</ele><time>2026-04-11T07:27:57.457Z</time></trkpt><trkpt lat="43.7654916" lon="12.6075695"><ele>402.0</ele><time>2026-04-11T07:27:58.457Z</time></trkpt><trkpt lat="43.7655991" lon="12.6074642"><ele>402.0</ele><time>2026-04-11T07:27:59.456Z</time></trkpt><trkpt lat="43.7657077" lon="12.6073537"><ele>402.0</ele><time>2026-04-11T07:28:00.456Z</time></trkpt><trkpt lat="43.7658171" lon="12.6072312"><ele>402.0</ele><time>2026-04-11T07:28:01.456Z</time></trkpt><trkpt lat="43.7659306" lon="12.607118"><ele>402.0</ele><time>2026-04-11T07:28:02.456Z</time></trkpt><trkpt lat="43.7660482" lon="12.6070019"><ele>403.75</ele><time>2026-04-11T07:28:03.456Z</time></trkpt><trkpt lat="43.766175" lon="12.6068871"><ele>405.5</ele><time>2026-04-11T07:28:04.456Z</time></trkpt><trkpt lat="43.766302" lon="12.6067706"><ele>407.25</ele><time>2026-04-11T07:28:05.456Z</time></trkpt><trkpt lat="43.7664274" lon="12.6066691"><ele>409.0</ele><time>2026-04-11T07:28:06.456Z</time></trkpt><trkpt lat="43.7665622" lon="12.6065856"><ele>409.0</ele><time>2026-04-11T07:28:07.456Z</time></trkpt><trkpt lat="43.7667108" lon="12.6065244"><ele>409.0</ele><time>2026-04-11T07:28:08.457Z</time></trkpt><trkpt lat="43.7668825" lon="12.6064938"><ele>409.0</ele><time>2026-04-11T07:28:09.456Z</time></trkpt><trkpt lat="43.7670771" lon="12.6064841"><ele>411.0</ele><time>2026-04-11T07:28:10.456Z</time></trkpt><trkpt lat="43.7672893" lon="12.606469"><ele>413.0</ele><time>2026-04-11T07:28:11.456Z</time></trkpt><trkpt lat="43.7674865" lon="12.6064562"><ele>415.0</ele><time>2026-04-11T07:28:12.457Z</time></trkpt><trkpt lat="43.767666" lon="12.6064448"><ele>416.25</ele><time>2026-04-11T07:28:13.456Z</time></trkpt><trkpt lat="43.7678267" lon="12.6064317"><ele>417.5</ele><time>2026-04-11T07:28:14.457Z</time></trkpt><trkpt lat="43.7679678" lon="12.6064211"><ele>418.75</ele><time>2026-04-11T07:28:15.457Z</time></trkpt><trkpt lat="43.7680922" lon="12.60641"><ele>420.0</ele><time>2026-04-11T07:28:16.456Z</time></trkpt><trkpt lat="43.7682063" lon="12.6063996"><ele>420.0</ele><time>2026-04-11T07:28:17.457Z</time></trkpt><trkpt lat="43.7683086" lon="12.6063712"><ele>420.0</ele><time>2026-04-11T07:28:18.457Z</time></trkpt><trkpt lat="43.7683851" lon="12.6063044"><ele>420.0</ele><time>2026-04-11T07:28:19.457Z</time></trkpt><trkpt lat="43.76843" lon="12.6062187"><ele>420.0</ele><time>2026-04-11T07:28:20.457Z</time></trkpt><trkpt lat="43.7684605" lon="12.6061201"><ele>420.0</ele><time>2026-04-11T07:28:21.456Z</time></trkpt><trkpt lat="43.7684746" lon="12.6059858"><ele>420.0</ele><time>2026-04-11T07:28:22.456Z</time></trkpt><trkpt lat="43.7684595" lon="12.6058176"><ele>420.66666666666663</ele><time>2026-04-11T07:28:23.456Z</time></trkpt><trkpt lat="43.7684296" lon="12.6056076"><ele>421.3333333333333</ele><time>2026-04-11T07:28:24.456Z</time></trkpt><trkpt lat="43.7684108" lon="12.6053541"><ele>422.0</ele><time>2026-04-11T07:28:25.456Z</time></trkpt><trkpt lat="43.7683962" lon="12.6050762"><ele>422.0</ele><time>2026-04-11T07:28:26.456Z</time></trkpt><trkpt lat="43.7683733" lon="12.6047765"><ele>422.0</ele><time>2026-04-11T07:28:27.456Z</time></trkpt><trkpt lat="43.7683546" lon="12.6045265"><ele>422.0</ele><time>2026-04-11T07:28:28.457Z</time></trkpt><trkpt lat="43.7683374" lon="12.6043086"><ele>420.25</ele><time>2026-04-11T07:28:29.456Z</time></trkpt><trkpt lat="43.7683267" lon="12.6041132"><ele>418.5</ele><time>2026-04-11T07:28:30.456Z</time></trkpt><trkpt lat="43.7683236" lon="12.603941"><ele>416.75</ele><time>2026-04-11T07:28:31.457Z</time></trkpt><trkpt lat="43.7683267" lon="12.6037892"><ele>415.0</ele><time>2026-04-11T07:28:32.457Z</time></trkpt><trkpt lat="43.7683253" lon="12.6036677"><ele>415.0</ele><time>2026-04-11T07:28:33.456Z</time></trkpt><trkpt lat="43.7683219" lon="12.6035687"><ele>415.0</ele><time>2026-04-11T07:28:34.456Z</time></trkpt><trkpt lat="43.7683213" lon="12.603446"><ele>415.0</ele><time>2026-04-11T07:28:36.456Z</time></trkpt><trkpt lat="43.7682803" lon="12.6033726"><ele>415.0</ele><time>2026-04-11T07:28:43.456Z</time></trkpt><trkpt lat="43.7682936" lon="12.6035104"><ele>415.0</ele><time>2026-04-11T07:28:46.456Z</time></trkpt><trkpt lat="43.768297" lon="12.6037026"><ele>415.00000000000006</ele><time>2026-04-11T07:28:48.457Z</time></trkpt><trkpt lat="43.7683038" lon="12.6038202"><ele>415.0</ele><time>2026-04-11T07:28:49.457Z</time></trkpt><trkpt lat="43.7683088" lon="12.603942"><ele>415.0</ele><time>2026-04-11T07:28:50.456Z</time></trkpt><trkpt lat="43.768312" lon="12.604057"><ele>415.0</ele><time>2026-04-11T07:28:51.456Z</time></trkpt><trkpt lat="43.768317" lon="12.6041463"><ele>415.00000000000006</ele><time>2026-04-11T07:28:52.457Z</time></trkpt><trkpt lat="43.7683228" lon="12.6042346"><ele>415.0</ele><time>2026-04-11T07:28:53.456Z</time></trkpt><trkpt lat="43.7683568" lon="12.6043554"><ele>415.0</ele><time>2026-04-11T07:28:54.457Z</time></trkpt><trkpt lat="43.7684058" lon="12.6044946"><ele>415.0</ele><time>2026-04-11T07:28:55.456Z</time></trkpt><trkpt lat="43.7684432" lon="12.6046159"><ele>415.0</ele><time>2026-04-11T07:28:56.456Z</time></trkpt><trkpt lat="43.7684735" lon="12.6047389"><ele>415.0</ele><time>2026-04-11T07:28:57.456Z</time></trkpt><trkpt lat="43.768507" lon="12.6048837"><ele>415.0</ele><time>2026-04-11T07:28:58.456Z</time></trkpt><trkpt lat="43.7685385" lon="12.6050324"><ele>412.5</ele><time>2026-04-11T07:28:59.457Z</time></trkpt><trkpt lat="43.7686093" lon="12.6052176"><ele>410.0</ele><time>2026-04-11T07:29:00.456Z</time></trkpt><trkpt lat="43.7686725" lon="12.6053687"><ele>407.5</ele><time>2026-04-11T07:29:01.456Z</time></trkpt><trkpt lat="43.7687466" lon="12.6055103"><ele>405.0</ele><time>2026-04-11T07:29:02.458Z</time></trkpt><trkpt lat="43.7688305" lon="12.6056199"><ele>405.0</ele><time>2026-04-11T07:29:03.457Z</time></trkpt><trkpt lat="43.7689229" lon="12.6057032"><ele>405.0</ele><time>2026-04-11T07:29:04.456Z</time></trkpt><trkpt lat="43.7690423" lon="12.6057772"><ele>405.0</ele><time>2026-04-11T07:29:05.456Z</time></trkpt><trkpt lat="43.7691843" lon="12.6058543"><ele>405.0</ele><time>2026-04-11T07:29:06.456Z</time></trkpt><trkpt lat="43.7693447" lon="12.6059249"><ele>399.0</ele><time>2026-04-11T07:29:07.458Z</time></trkpt><trkpt lat="43.7694967" lon="12.605993"><ele>393.0</ele><time>2026-04-11T07:29:08.456Z</time></trkpt><trkpt lat="43.7696465" lon="12.6060598"><ele>387.0</ele><time>2026-04-11T07:29:09.456Z</time></trkpt><trkpt lat="43.7697911" lon="12.6061241"><ele>387.5</ele><time>2026-04-11T07:29:10.456Z</time></trkpt><trkpt lat="43.769921" lon="12.606187"><ele>388.0</ele><time>2026-04-11T07:29:11.456Z</time></trkpt><trkpt lat="43.7700375" lon="12.6062357"><ele>388.5</ele><time>2026-04-11T07:29:12.456Z</time></trkpt><trkpt lat="43.7701424" lon="12.6062576"><ele>389.0</ele><time>2026-04-11T07:29:13.457Z</time></trkpt><trkpt lat="43.7702453" lon="12.6062386"><ele>389.0</ele><time>2026-04-11T07:29:14.456Z</time></trkpt><trkpt lat="43.7703578" lon="12.6061875"><ele>389.0</ele><time>2026-04-11T07:29:15.456Z</time></trkpt><trkpt lat="43.7704828" lon="12.6061295"><ele>389.0</ele><time>2026-04-11T07:29:16.457Z</time></trkpt><trkpt lat="43.7706002" lon="12.6060981"><ele>389.0</ele><time>2026-04-11T07:29:17.456Z</time></trkpt><trkpt lat="43.7707166" lon="12.6060672"><ele>387.0</ele><time>2026-04-11T07:29:18.456Z</time></trkpt><trkpt lat="43.7708245" lon="12.6060062"><ele>385.0</ele><time>2026-04-11T07:29:19.457Z</time></trkpt><trkpt lat="43.7709136" lon="12.6059225"><ele>383.0</ele><time>2026-04-11T07:29:20.456Z</time></trkpt><trkpt lat="43.7709943" lon="12.6058368"><ele>381.0</ele><time>2026-04-11T07:29:21.456Z</time></trkpt><trkpt lat="43.7710684" lon="12.6057502"><ele>379.0</ele><time>2026-04-11T07:29:22.456Z</time></trkpt><trkpt lat="43.771154" lon="12.6056698"><ele>378.79999999999995</ele><time>2026-04-11T07:29:23.456Z</time></trkpt><trkpt lat="43.7712492" lon="12.6055997"><ele>378.59999999999997</ele><time>2026-04-11T07:29:24.457Z</time></trkpt><trkpt lat="43.7713553" lon="12.6055416"><ele>378.4</ele><time>2026-04-11T07:29:25.456Z</time></trkpt><trkpt lat="43.7714614" lon="12.6054874"><ele>378.2</ele><time>2026-04-11T07:29:26.456Z</time></trkpt><trkpt lat="43.7715626" lon="12.6054333"><ele>378.0</ele><time>2026-04-11T07:29:27.456Z</time></trkpt><trkpt lat="43.7716596" lon="12.6053769"><ele>374.2</ele><time>2026-04-11T07:29:28.456Z</time></trkpt><trkpt lat="43.7717559" lon="12.6053205"><ele>370.4</ele><time>2026-04-11T07:29:29.457Z</time></trkpt><trkpt lat="43.7718482" lon="12.6052654"><ele>366.59999999999997</ele><time>2026-04-11T07:29:30.456Z</time></trkpt><trkpt lat="43.7719332" lon="12.6052168"><ele>362.79999999999995</ele><time>2026-04-11T07:29:31.456Z</time></trkpt><trkpt lat="43.77202" lon="12.605174"><ele>359.0</ele><time>2026-04-11T07:29:32.456Z</time></trkpt><trkpt lat="43.7721085" lon="12.6051509"><ele>357.83333333333337</ele><time>2026-04-11T07:29:33.456Z</time></trkpt><trkpt lat="43.7721965" lon="12.6051503"><ele>356.6666666666667</ele><time>2026-04-11T07:29:34.457Z</time></trkpt><trkpt lat="43.7722769" lon="12.6051752"><ele>355.5</ele><time>2026-04-11T07:29:35.457Z</time></trkpt><trkpt lat="43.7723554" lon="12.6051954"><ele>354.3333333333333</ele><time>2026-04-11T07:29:36.456Z</time></trkpt><trkpt lat="43.7724305" lon="12.6051873"><ele>353.16666666666663</ele><time>2026-04-11T07:29:37.457Z</time></trkpt><trkpt lat="43.772496" lon="12.6051606"><ele>352.0</ele><time>2026-04-11T07:29:38.457Z</time></trkpt><trkpt lat="43.7725612" lon="12.6051229"><ele>352.0</ele><time>2026-04-11T07:29:39.457Z</time></trkpt><trkpt lat="43.7726173" lon="12.6050493"><ele>352.0</ele><time>2026-04-11T07:29:40.456Z</time></trkpt><trkpt lat="43.7726646" lon="12.6049396"><ele>352.0</ele><time>2026-04-11T07:29:41.456Z</time></trkpt><trkpt lat="43.7727021" lon="12.6048066"><ele>352.0</ele><time>2026-04-11T07:29:42.456Z</time></trkpt><trkpt lat="43.7727312" lon="12.6046878"><ele>352.0</ele><time>2026-04-11T07:29:43.456Z</time></trkpt><trkpt lat="43.7727552" lon="12.6045967"><ele>352.0</ele><time>2026-04-11T07:29:44.456Z</time></trkpt><trkpt lat="43.7728043" lon="12.6044634"><ele>347.8</ele><time>2026-04-11T07:29:46.456Z</time></trkpt><trkpt lat="43.7728971" lon="12.6044331"><ele>343.6</ele><time>2026-04-11T07:29:48.456Z</time></trkpt><trkpt lat="43.7729959" lon="12.6045618"><ele>339.40000000000003</ele><time>2026-04-11T07:29:50.456Z</time></trkpt><trkpt lat="43.7730554" lon="12.6046785"><ele>335.20000000000005</ele><time>2026-04-11T07:29:51.457Z</time></trkpt><trkpt lat="43.7731193" lon="12.6048077"><ele>331.0</ele><time>2026-04-11T07:29:52.457Z</time></trkpt><trkpt lat="43.7731916" lon="12.6049303"><ele>331.0</ele><time>2026-04-11T07:29:53.457Z</time></trkpt><trkpt lat="43.7732688" lon="12.6050529"><ele>331.0</ele><time>2026-04-11T07:29:54.456Z</time></trkpt><trkpt lat="43.7733486" lon="12.6051824"><ele>331.0</ele><time>2026-04-11T07:29:55.456Z</time></trkpt><trkpt lat="43.7734382" lon="12.6053219"><ele>331.0</ele><time>2026-04-11T07:29:56.456Z</time></trkpt><trkpt lat="43.7735267" lon="12.6054677"><ele>326.75</ele><time>2026-04-11T07:29:57.456Z</time></trkpt><trkpt lat="43.7735977" lon="12.605596"><ele>322.5</ele><time>2026-04-11T07:29:58.456Z</time></trkpt><trkpt lat="43.7736677" lon="12.6057254"><ele>318.25</ele><time>2026-04-11T07:29:59.457Z</time></trkpt><trkpt lat="43.7737435" lon="12.6058582"><ele>314.0</ele><time>2026-04-11T07:30:00.456Z</time></trkpt><trkpt lat="43.7738321" lon="12.6059778"><ele>314.0</ele><time>2026-04-11T07:30:01.456Z</time></trkpt><trkpt lat="43.7739443" lon="12.6060788"><ele>314.0</ele><time>2026-04-11T07:30:02.457Z</time></trkpt><trkpt lat="43.7740704" lon="12.6061712"><ele>314.0</ele><time>2026-04-11T07:30:03.457Z</time></trkpt><trkpt lat="43.774187" lon="12.6062571"><ele>314.0</ele><time>2026-04-11T07:30:04.456Z</time></trkpt><trkpt lat="43.7743002" lon="12.6063483"><ele>312.2</ele><time>2026-04-11T07:30:05.456Z</time></trkpt><trkpt lat="43.7744003" lon="12.6064656"><ele>310.4</ele><time>2026-04-11T07:30:06.456Z</time></trkpt><trkpt lat="43.7744826" lon="12.6065798"><ele>308.6</ele><time>2026-04-11T07:30:07.456Z</time></trkpt><trkpt lat="43.7745497" lon="12.6066785"><ele>306.8</ele><time>2026-04-11T07:30:08.456Z</time></trkpt><trkpt lat="43.774596" lon="12.6067703"><ele>305.0</ele><time>2026-04-11T07:30:09.456Z</time></trkpt><trkpt lat="43.7746294" lon="12.6068759"><ele>305.0</ele><time>2026-04-11T07:30:10.456Z</time></trkpt><trkpt lat="43.7746595" lon="12.6069826"><ele>305.0</ele><time>2026-04-11T07:30:11.456Z</time></trkpt><trkpt lat="43.7747032" lon="12.6070664"><ele>305.0</ele><time>2026-04-11T07:30:12.456Z</time></trkpt><trkpt lat="43.7747707" lon="12.6071327"><ele>305.0</ele><time>2026-04-11T07:30:13.456Z</time></trkpt><trkpt lat="43.7748596" lon="12.6071934"><ele>305.0</ele><time>2026-04-11T07:30:14.456Z</time></trkpt><trkpt lat="43.7749692" lon="12.6072545"><ele>304.6666666666667</ele><time>2026-04-11T07:30:15.456Z</time></trkpt><trkpt lat="43.7750991" lon="12.6073055"><ele>304.3333333333333</ele><time>2026-04-11T07:30:16.457Z</time></trkpt><trkpt lat="43.7752664" lon="12.6073393"><ele>304.0</ele><time>2026-04-11T07:30:17.456Z</time></trkpt><trkpt lat="43.7754235" lon="12.607357"><ele>304.0</ele><time>2026-04-11T07:30:18.457Z</time></trkpt><trkpt lat="43.7755745" lon="12.6073671"><ele>304.0</ele><time>2026-04-11T07:30:19.456Z</time></trkpt><trkpt lat="43.7757143" lon="12.6073773"><ele>304.0</ele><time>2026-04-11T07:30:20.457Z</time></trkpt><trkpt lat="43.7758427" lon="12.6073958"><ele>304.0</ele><time>2026-04-11T07:30:21.457Z</time></trkpt><trkpt lat="43.7759556" lon="12.6074332"><ele>302.0</ele><time>2026-04-11T07:30:22.456Z</time></trkpt><trkpt lat="43.7760673" lon="12.6075041"><ele>300.0</ele><time>2026-04-11T07:30:23.457Z</time></trkpt><trkpt lat="43.7761807" lon="12.6076078"><ele>298.0</ele><time>2026-04-11T07:30:24.456Z</time></trkpt><trkpt lat="43.7762792" lon="12.6077023"><ele>296.0</ele><time>2026-04-11T07:30:25.456Z</time></trkpt><trkpt lat="43.7763648" lon="12.6077925"><ele>296.57142857142856</ele><time>2026-04-11T07:30:26.457Z</time></trkpt><trkpt lat="43.7764357" lon="12.6078726"><ele>297.1428571428571</ele><time>2026-04-11T07:30:27.456Z</time></trkpt><trkpt lat="43.7764849" lon="12.6079506"><ele>297.71428571428567</ele><time>2026-04-11T07:30:28.456Z</time></trkpt><trkpt lat="43.7765121" lon="12.6080321"><ele>298.2857142857143</ele><time>2026-04-11T07:30:29.457Z</time></trkpt><trkpt lat="43.776518" lon="12.6081234"><ele>298.85714285714283</ele><time>2026-04-11T07:30:30.458Z</time></trkpt><trkpt lat="43.7765006" lon="12.6082138"><ele>299.4285714285714</ele><time>2026-04-11T07:30:31.456Z</time></trkpt><trkpt lat="43.7764663" lon="12.6082995"><ele>300.0</ele><time>2026-04-11T07:30:32.456Z</time></trkpt><trkpt lat="43.7764241" lon="12.6083804"><ele>300.0</ele><time>2026-04-11T07:30:33.457Z</time></trkpt><trkpt lat="43.7763611" lon="12.6085091"><ele>300.0</ele><time>2026-04-11T07:30:35.457Z</time></trkpt><trkpt lat="43.7763881" lon="12.6086708"><ele>300.0</ele><time>2026-04-11T07:30:37.457Z</time></trkpt><trkpt lat="43.7764538" lon="12.6087718"><ele>300.0</ele><time>2026-04-11T07:30:38.456Z</time></trkpt><trkpt lat="43.7765654" lon="12.6089158"><ele>295.6666666666667</ele><time>2026-04-11T07:30:39.457Z</time></trkpt><trkpt lat="43.7766886" lon="12.6090842"><ele>291.33333333333337</ele><time>2026-04-11T07:30:40.456Z</time></trkpt><trkpt lat="43.7768015" lon="12.6092442"><ele>287.0</ele><time>2026-04-11T07:30:41.456Z</time></trkpt><trkpt lat="43.776914" lon="12.6094006"><ele>284.0</ele><time>2026-04-11T07:30:42.456Z</time></trkpt><trkpt lat="43.7770285" lon="12.6095384"><ele>281.0</ele><time>2026-04-11T07:30:43.456Z</time></trkpt><trkpt lat="43.7771359" lon="12.6096599"><ele>278.0</ele><time>2026-04-11T07:30:44.456Z</time></trkpt><trkpt lat="43.7772267" lon="12.6097608"><ele>275.0</ele><time>2026-04-11T07:30:45.458Z</time></trkpt><trkpt lat="43.7772961" lon="12.6098519"><ele>275.0</ele><time>2026-04-11T07:30:46.458Z</time></trkpt><trkpt lat="43.7773522" lon="12.609961"><ele>275.0</ele><time>2026-04-11T07:30:47.456Z</time></trkpt><trkpt lat="43.7774017" lon="12.6100826"><ele>275.0</ele><time>2026-04-11T07:30:48.456Z</time></trkpt><trkpt lat="43.7774492" lon="12.6102052"><ele>275.0</ele><time>2026-04-11T07:30:49.457Z</time></trkpt><trkpt lat="43.7775023" lon="12.6103243"><ele>275.0</ele><time>2026-04-11T07:30:50.456Z</time></trkpt><trkpt lat="43.7775532" lon="12.6104392"><ele>271.4</ele><time>2026-04-11T07:30:51.456Z</time></trkpt><trkpt lat="43.7776118" lon="12.6105502"><ele>267.8</ele><time>2026-04-11T07:30:52.456Z</time></trkpt><trkpt lat="43.7776795" lon="12.6106658"><ele>264.2</ele><time>2026-04-11T07:30:53.456Z</time></trkpt><trkpt lat="43.7777573" lon="12.610777"><ele>260.6</ele><time>2026-04-11T07:30:54.457Z</time></trkpt><trkpt lat="43.7778408" lon="12.610885"><ele>257.0</ele><time>2026-04-11T07:30:55.456Z</time></trkpt><trkpt lat="43.7779313" lon="12.6109882"><ele>256.0</ele><time>2026-04-11T07:30:56.457Z</time></trkpt><trkpt lat="43.7780302" lon="12.6110844"><ele>255.0</ele><time>2026-04-11T07:30:57.456Z</time></trkpt><trkpt lat="43.778135" lon="12.6111715"><ele>254.0</ele><time>2026-04-11T07:30:58.456Z</time></trkpt><trkpt lat="43.7782399" lon="12.6112503"><ele>253.0</ele><time>2026-04-11T07:30:59.456Z</time></trkpt><trkpt lat="43.7783457" lon="12.6113252"><ele>251.8</ele><time>2026-04-11T07:31:00.456Z</time></trkpt><trkpt lat="43.7784503" lon="12.6113933"><ele>250.60000000000002</ele><time>2026-04-11T07:31:01.456Z</time></trkpt><trkpt lat="43.7785465" lon="12.6114622"><ele>249.39999999999998</ele><time>2026-04-11T07:31:02.456Z</time></trkpt><trkpt lat="43.7786303" lon="12.6115393"><ele>248.2</ele><time>2026-04-11T07:31:03.456Z</time></trkpt><trkpt lat="43.7786958" lon="12.6116284"><ele>247.0</ele><time>2026-04-11T07:31:04.457Z</time></trkpt><trkpt lat="43.7787457" lon="12.6117297"><ele>245.0</ele><time>2026-04-11T07:31:05.456Z</time></trkpt><trkpt lat="43.7787876" lon="12.6118465"><ele>243.0</ele><time>2026-04-11T07:31:06.456Z</time></trkpt><trkpt lat="43.7788324" lon="12.6119887"><ele>241.0</ele><time>2026-04-11T07:31:07.457Z</time></trkpt><trkpt lat="43.7788731" lon="12.6121224"><ele>239.0</ele><time>2026-04-11T07:31:08.456Z</time></trkpt><trkpt lat="43.7789286" lon="12.6122428"><ele>237.0</ele><time>2026-04-11T07:31:09.456Z</time></trkpt><trkpt lat="43.7789814" lon="12.6123455"><ele>236.6</ele><time>2026-04-11T07:31:10.456Z</time></trkpt><trkpt lat="43.7790336" lon="12.6124373"><ele>236.2</ele><time>2026-04-11T07:31:11.457Z</time></trkpt><trkpt lat="43.7790743" lon="12.6125349"><ele>235.8</ele><time>2026-04-11T07:31:12.456Z</time></trkpt><trkpt lat="43.7791067" lon="12.6126516"><ele>235.4</ele><time>2026-04-11T07:31:13.457Z</time></trkpt><trkpt lat="43.7791299" lon="12.6127947"><ele>235.0</ele><time>2026-04-11T07:31:14.456Z</time></trkpt><trkpt lat="43.7791455" lon="12.6129509"><ele>233.25</ele><time>2026-04-11T07:31:15.456Z</time></trkpt><trkpt lat="43.7791634" lon="12.6131015"><ele>231.5</ele><time>2026-04-11T07:31:16.456Z</time></trkpt><trkpt lat="43.7791948" lon="12.6132446"><ele>229.75</ele><time>2026-04-11T07:31:17.456Z</time></trkpt><trkpt lat="43.7792428" lon="12.6133845"><ele>228.0</ele><time>2026-04-11T07:31:18.456Z</time></trkpt><trkpt lat="43.7793032" lon="12.6135286"><ele>226.5</ele><time>2026-04-11T07:31:19.456Z</time></trkpt><trkpt lat="43.7793755" lon="12.6136774"><ele>225.0</ele><time>2026-04-11T07:31:20.456Z</time></trkpt><trkpt lat="43.7794483" lon="12.613816"><ele>223.5</ele><time>2026-04-11T07:31:21.457Z</time></trkpt><trkpt lat="43.7795188" lon="12.6139406"><ele>222.0</ele><time>2026-04-11T07:31:22.456Z</time></trkpt><trkpt lat="43.7795883" lon="12.614051"><ele>222.0</ele><time>2026-04-11T07:31:23.458Z</time></trkpt><trkpt lat="43.7796642" lon="12.6141448"><ele>222.0</ele><time>2026-04-11T07:31:24.457Z</time></trkpt><trkpt lat="43.7797466" lon="12.6142288"><ele>222.0</ele><time>2026-04-11T07:31:25.457Z</time></trkpt><trkpt lat="43.7798383" lon="12.6143021"><ele>222.0</ele><time>2026-04-11T07:31:26.456Z</time></trkpt><trkpt lat="43.7799454" lon="12.6143745"><ele>222.0</ele><time>2026-04-11T07:31:27.456Z</time></trkpt><trkpt lat="43.7800637" lon="12.6144572"><ele>218.0</ele><time>2026-04-11T07:31:28.457Z</time></trkpt><trkpt lat="43.7801996" lon="12.6145425"><ele>214.0</ele><time>2026-04-11T07:31:29.456Z</time></trkpt><trkpt lat="43.7803512" lon="12.6146379"><ele>210.0</ele><time>2026-04-11T07:31:30.457Z</time></trkpt><trkpt lat="43.7805071" lon="12.6147334"><ele>210.0</ele><time>2026-04-11T07:31:31.458Z</time></trkpt><trkpt lat="43.7806471" lon="12.6148154"><ele>210.0</ele><time>2026-04-11T07:31:32.456Z</time></trkpt><trkpt lat="43.7807746" lon="12.6148871"><ele>210.0</ele><time>2026-04-11T07:31:33.456Z</time></trkpt><trkpt lat="43.7808933" lon="12.6149439"><ele>210.0</ele><time>2026-04-11T07:31:34.457Z</time></trkpt><trkpt lat="43.7809997" lon="12.6149989"><ele>206.5</ele><time>2026-04-11T07:31:35.457Z</time></trkpt><trkpt lat="43.7810972" lon="12.615078"><ele>203.0</ele><time>2026-04-11T07:31:36.456Z</time></trkpt><trkpt lat="43.7811946" lon="12.615191"><ele>199.5</ele><time>2026-04-11T07:31:37.456Z</time></trkpt><trkpt lat="43.7812777" lon="12.6153131"><ele>196.0</ele><time>2026-04-11T07:31:38.456Z</time></trkpt><trkpt lat="43.7813416" lon="12.6154362"><ele>196.0</ele><time>2026-04-11T07:31:39.456Z</time></trkpt><trkpt lat="43.7813959" lon="12.6155668"><ele>196.0</ele><time>2026-04-11T07:31:40.456Z</time></trkpt><trkpt lat="43.7814383" lon="12.6157075"><ele>196.0</ele><time>2026-04-11T07:31:41.458Z</time></trkpt><trkpt lat="43.7814647" lon="12.6158728"><ele>196.0</ele><time>2026-04-11T07:31:42.458Z</time></trkpt><trkpt lat="43.7814725" lon="12.6160517"><ele>194.5</ele><time>2026-04-11T07:31:43.456Z</time></trkpt><trkpt lat="43.7814762" lon="12.6162239"><ele>193.0</ele><time>2026-04-11T07:31:44.457Z</time></trkpt><trkpt lat="43.7814823" lon="12.6163809"><ele>191.5</ele><time>2026-04-11T07:31:45.457Z</time></trkpt><trkpt lat="43.781491" lon="12.6165277"><ele>190.0</ele><time>2026-04-11T07:31:46.456Z</time></trkpt><trkpt lat="43.7815169" lon="12.6166751"><ele>190.0</ele><time>2026-04-11T07:31:47.456Z</time></trkpt><trkpt lat="43.7815535" lon="12.6168345"><ele>190.0</ele><time>2026-04-11T07:31:48.457Z</time></trkpt><trkpt lat="43.781599" lon="12.6170135"><ele>190.0</ele><time>2026-04-11T07:31:49.456Z</time></trkpt><trkpt lat="43.7816541" lon="12.6171937"><ele>190.0</ele><time>2026-04-11T07:31:50.456Z</time></trkpt><trkpt lat="43.7817119" lon="12.6173698"><ele>186.75</ele><time>2026-04-11T07:31:51.456Z</time></trkpt><trkpt lat="43.7817702" lon="12.6175463"><ele>183.5</ele><time>2026-04-11T07:31:52.456Z</time></trkpt><trkpt lat="43.7818291" lon="12.6177152"><ele>180.25</ele><time>2026-04-11T07:31:53.456Z</time></trkpt><trkpt lat="43.7818878" lon="12.6178747"><ele>177.0</ele><time>2026-04-11T07:31:54.457Z</time></trkpt><trkpt lat="43.7819458" lon="12.6180244"><ele>175.33333333333334</ele><time>2026-04-11T07:31:55.456Z</time></trkpt><trkpt lat="43.7819952" lon="12.6181601"><ele>173.66666666666666</ele><time>2026-04-11T07:31:56.456Z</time></trkpt><trkpt lat="43.7820396" lon="12.6182634"><ele>172.0</ele><time>2026-04-11T07:31:57.457Z</time></trkpt><trkpt lat="43.7820929" lon="12.6183329"><ele>170.33333333333331</ele><time>2026-04-11T07:31:58.456Z</time></trkpt><trkpt lat="43.7821594" lon="12.6183608"><ele>168.66666666666666</ele><time>2026-04-11T07:31:59.456Z</time></trkpt><trkpt lat="43.7822385" lon="12.6183518"><ele>167.0</ele><time>2026-04-11T07:32:00.456Z</time></trkpt><trkpt lat="43.7823313" lon="12.6183144"><ele>167.0</ele><time>2026-04-11T07:32:01.457Z</time></trkpt><trkpt lat="43.7824283" lon="12.6182657"><ele>167.0</ele><time>2026-04-11T07:32:02.456Z</time></trkpt><trkpt lat="43.7825212" lon="12.6182179"><ele>167.0</ele><time>2026-04-11T07:32:03.456Z</time></trkpt><trkpt lat="43.7826147" lon="12.618167"><ele>167.0</ele><time>2026-04-11T07:32:04.456Z</time></trkpt><trkpt lat="43.7827074" lon="12.6181134"><ele>167.0</ele><time>2026-04-11T07:32:05.457Z</time></trkpt><trkpt lat="43.7827975" lon="12.6180622"><ele>165.8</ele><time>2026-04-11T07:32:06.456Z</time></trkpt><trkpt lat="43.7828866" lon="12.6180225"><ele>164.6</ele><time>2026-04-11T07:32:07.456Z</time></trkpt><trkpt lat="43.7829777" lon="12.6179993"><ele>163.4</ele><time>2026-04-11T07:32:08.457Z</time></trkpt><trkpt lat="43.7830787" lon="12.6180012"><ele>162.20000000000002</ele><time>2026-04-11T07:32:09.458Z</time></trkpt><trkpt lat="43.7831917" lon="12.6180263"><ele>161.0</ele><time>2026-04-11T07:32:10.456Z</time></trkpt><trkpt lat="43.7833041" lon="12.6180708"><ele>161.0</ele><time>2026-04-11T07:32:11.457Z</time></trkpt><trkpt lat="43.7834175" lon="12.6181392"><ele>161.0</ele><time>2026-04-11T07:32:12.456Z</time></trkpt><trkpt lat="43.7835094" lon="12.6182176"><ele>161.0</ele><time>2026-04-11T07:32:13.456Z</time></trkpt><trkpt lat="43.783584" lon="12.6182859"><ele>161.0</ele><time>2026-04-11T07:32:14.456Z</time></trkpt><trkpt lat="43.7836512" lon="12.6183433"><ele>161.0</ele><time>2026-04-11T07:32:15.456Z</time></trkpt><trkpt lat="43.7837306" lon="12.6183694"><ele>158.20000000000002</ele><time>2026-04-11T07:32:16.456Z</time></trkpt><trkpt lat="43.7838118" lon="12.6183598"><ele>155.4</ele><time>2026-04-11T07:32:17.456Z</time></trkpt><trkpt lat="43.7838902" lon="12.6183083"><ele>152.6</ele><time>2026-04-11T07:32:18.456Z</time></trkpt><trkpt lat="43.7839763" lon="12.6182125"><ele>149.8</ele><time>2026-04-11T07:32:19.456Z</time></trkpt><trkpt lat="43.7840721" lon="12.6180824"><ele>147.0</ele><time>2026-04-11T07:32:20.457Z</time></trkpt><trkpt lat="43.7841586" lon="12.6179541"><ele>147.0</ele><time>2026-04-11T07:32:21.457Z</time></trkpt><trkpt lat="43.7842567" lon="12.6178315"><ele>147.0</ele><time>2026-04-11T07:32:22.456Z</time></trkpt><trkpt lat="43.784374" lon="12.6177168"><ele>147.0</ele><time>2026-04-11T07:32:23.456Z</time></trkpt><trkpt lat="43.7845039" lon="12.6176111"><ele>147.0</ele><time>2026-04-11T07:32:24.457Z</time></trkpt><trkpt lat="43.784627" lon="12.6175299"><ele>145.5</ele><time>2026-04-11T07:32:25.457Z</time></trkpt><trkpt lat="43.7847474" lon="12.6174567"><ele>144.0</ele><time>2026-04-11T07:32:26.456Z</time></trkpt><trkpt lat="43.7848669" lon="12.6173895"><ele>142.5</ele><time>2026-04-11T07:32:27.456Z</time></trkpt><trkpt lat="43.7849912" lon="12.6173304"><ele>141.0</ele><time>2026-04-11T07:32:28.456Z</time></trkpt><trkpt lat="43.78512" lon="12.6172687"><ele>140.0</ele><time>2026-04-11T07:32:29.456Z</time></trkpt><trkpt lat="43.7852481" lon="12.6172067"><ele>139.0</ele><time>2026-04-11T07:32:30.456Z</time></trkpt><trkpt lat="43.7853677" lon="12.6171504"><ele>138.0</ele><time>2026-04-11T07:32:31.457Z</time></trkpt><trkpt lat="43.7854752" lon="12.6170938"><ele>137.0</ele><time>2026-04-11T07:32:32.457Z</time></trkpt><trkpt lat="43.7855643" lon="12.6170473"><ele>137.0</ele><time>2026-04-11T07:32:33.456Z</time></trkpt><trkpt lat="43.7856407" lon="12.6170197"><ele>137.0</ele><time>2026-04-11T07:32:34.457Z</time></trkpt><trkpt lat="43.7857334" lon="12.6170866"><ele>137.0</ele><time>2026-04-11T07:32:36.456Z</time></trkpt><trkpt lat="43.7857596" lon="12.617243"><ele>137.0</ele><time>2026-04-11T07:32:38.456Z</time></trkpt><trkpt lat="43.7857728" lon="12.6173486"><ele>137.0</ele><time>2026-04-11T07:32:39.456Z</time></trkpt><trkpt lat="43.7857949" lon="12.6175083"><ele>137.0</ele><time>2026-04-11T07:32:40.456Z</time></trkpt><trkpt lat="43.785837" lon="12.6176805"><ele>137.0</ele><time>2026-04-11T07:32:41.456Z</time></trkpt><trkpt lat="43.7858943" lon="12.6178661"><ele>137.0</ele><time>2026-04-11T07:32:42.456Z</time></trkpt><trkpt lat="43.7859505" lon="12.6180297"><ele>137.0</ele><time>2026-04-11T07:32:43.456Z</time></trkpt><trkpt lat="43.7859978" lon="12.6181767"><ele>136.5</ele><time>2026-04-11T07:32:44.458Z</time></trkpt><trkpt lat="43.786043" lon="12.6183076"><ele>136.0</ele><time>2026-04-11T07:32:45.456Z</time></trkpt><trkpt lat="43.7860963" lon="12.618419"><ele>135.5</ele><time>2026-04-11T07:32:46.456Z</time></trkpt><trkpt lat="43.7861627" lon="12.6184906"><ele>135.0</ele><time>2026-04-11T07:32:47.456Z</time></trkpt><trkpt lat="43.7862403" lon="12.6185176"><ele>134.5</ele><time>2026-04-11T07:32:48.456Z</time></trkpt><trkpt lat="43.7863191" lon="12.6185211"><ele>134.0</ele><time>2026-04-11T07:32:49.456Z</time></trkpt><trkpt lat="43.786381" lon="12.6185481"><ele>131.75</ele><time>2026-04-11T07:32:50.456Z</time></trkpt><trkpt lat="43.7864419" lon="12.6187122"><ele>129.5</ele><time>2026-04-11T07:32:52.456Z</time></trkpt><trkpt lat="43.7864351" lon="12.6188469"><ele>127.25</ele><time>2026-04-11T07:32:53.456Z</time></trkpt><trkpt lat="43.7864152" lon="12.6190203"><ele>125.0</ele><time>2026-04-11T07:32:54.457Z</time></trkpt><trkpt lat="43.7863861" lon="12.6192353"><ele>125.0</ele><time>2026-04-11T07:32:55.457Z</time></trkpt><trkpt lat="43.7863532" lon="12.6194361"><ele>125.0</ele><time>2026-04-11T07:32:56.456Z</time></trkpt><trkpt lat="43.7863259" lon="12.6196267"><ele>125.0</ele><time>2026-04-11T07:32:57.456Z</time></trkpt><trkpt lat="43.7863098" lon="12.6198081"><ele>125.0</ele><time>2026-04-11T07:32:58.456Z</time></trkpt><trkpt lat="43.7862953" lon="12.6199787"><ele>123.6</ele><time>2026-04-11T07:32:59.456Z</time></trkpt><trkpt lat="43.7862826" lon="12.6201386"><ele>122.2</ele><time>2026-04-11T07:33:00.456Z</time></trkpt><trkpt lat="43.7862771" lon="12.6202854"><ele>120.80000000000001</ele><time>2026-04-11T07:33:01.458Z</time></trkpt><trkpt lat="43.7862881" lon="12.6204298"><ele>119.4</ele><time>2026-04-11T07:33:02.456Z</time></trkpt><trkpt lat="43.7863127" lon="12.6205718"><ele>118.0</ele><time>2026-04-11T07:33:03.456Z</time></trkpt><trkpt lat="43.7863503" lon="12.620702"><ele>117.00000000000001</ele><time>2026-04-11T07:33:04.456Z</time></trkpt><trkpt lat="43.7863988" lon="12.6208138"><ele>116.0</ele><time>2026-04-11T07:33:05.456Z</time></trkpt><trkpt lat="43.7864541" lon="12.620907"><ele>115.0</ele><time>2026-04-11T07:33:06.456Z</time></trkpt><trkpt lat="43.7865048" lon="12.620995"><ele>114.0</ele><time>2026-04-11T07:33:07.456Z</time></trkpt><trkpt lat="43.7865409" lon="12.6210836"><ele>113.00000000000001</ele><time>2026-04-11T07:33:08.456Z</time></trkpt><trkpt lat="43.786552" lon="12.6211877"><ele>112.0</ele><time>2026-04-11T07:33:09.456Z</time></trkpt><trkpt lat="43.7865262" lon="12.6212906"><ele>111.19999999999999</ele><time>2026-04-11T07:33:10.457Z</time></trkpt><trkpt lat="43.7864678" lon="12.6213683"><ele>110.39999999999999</ele><time>2026-04-11T07:33:11.457Z</time></trkpt><trkpt lat="43.7863748" lon="12.6214189"><ele>109.60000000000001</ele><time>2026-04-11T07:33:12.456Z</time></trkpt><trkpt lat="43.7862719" lon="12.6214399"><ele>108.80000000000001</ele><time>2026-04-11T07:33:13.457Z</time></trkpt><trkpt lat="43.7861706" lon="12.6214352"><ele>108.0</ele><time>2026-04-11T07:33:14.456Z</time></trkpt><trkpt lat="43.7860737" lon="12.6214109"><ele>108.80000000000001</ele><time>2026-04-11T07:33:15.458Z</time></trkpt><trkpt lat="43.78599" lon="12.6213739"><ele>109.60000000000001</ele><time>2026-04-11T07:33:16.456Z</time></trkpt><trkpt lat="43.785915" lon="12.6213439"><ele>110.39999999999999</ele><time>2026-04-11T07:33:17.457Z</time></trkpt><trkpt lat="43.7858503" lon="12.6213455"><ele>111.19999999999999</ele><time>2026-04-11T07:33:18.456Z</time></trkpt><trkpt lat="43.7857714" lon="12.6214409"><ele>112.0</ele><time>2026-04-11T07:33:20.456Z</time></trkpt><trkpt lat="43.785782" lon="12.6216067"><ele>112.0</ele><time>2026-04-11T07:33:22.456Z</time></trkpt><trkpt lat="43.7858321" lon="12.6216794"><ele>111.99999999999999</ele><time>2026-04-11T07:33:23.457Z</time></trkpt><trkpt lat="43.7859182" lon="12.6217483"><ele>111.99999999999999</ele><time>2026-04-11T07:33:24.456Z</time></trkpt><trkpt lat="43.7860363" lon="12.6218131"><ele>112.0</ele><time>2026-04-11T07:33:25.457Z</time></trkpt><trkpt lat="43.7861623" lon="12.6218962"><ele>112.0</ele><time>2026-04-11T07:33:26.456Z</time></trkpt><trkpt lat="43.7862804" lon="12.6219998"><ele>111.39999999999999</ele><time>2026-04-11T07:33:27.457Z</time></trkpt><trkpt lat="43.7863783" lon="12.6221044"><ele>110.79999999999998</ele><time>2026-04-11T07:33:28.456Z</time></trkpt><trkpt lat="43.7864663" lon="12.6222045"><ele>110.2</ele><time>2026-04-11T07:33:29.457Z</time></trkpt><trkpt lat="43.7865374" lon="12.6223038"><ele>109.6</ele><time>2026-04-11T07:33:30.457Z</time></trkpt><trkpt lat="43.7865918" lon="12.6224254"><ele>109.0</ele><time>2026-04-11T07:33:31.456Z</time></trkpt><trkpt lat="43.7866229" lon="12.6225368"><ele>109.0</ele><time>2026-04-11T07:33:32.456Z</time></trkpt><trkpt lat="43.7866473" lon="12.6226413"><ele>109.0</ele><time>2026-04-11T07:33:33.457Z</time></trkpt><trkpt lat="43.7866544" lon="12.6227298"><ele>109.0</ele><time>2026-04-11T07:33:34.456Z</time></trkpt><trkpt lat="43.7866445" lon="12.6228433"><ele>109.0</ele><time>2026-04-11T07:33:35.458Z</time></trkpt><trkpt lat="43.786612" lon="12.6229987"><ele>109.0</ele><time>2026-04-11T07:33:36.456Z</time></trkpt><trkpt lat="43.7865816" lon="12.6232051"><ele>110.66666666666667</ele><time>2026-04-11T07:33:37.457Z</time></trkpt><trkpt lat="43.7865735" lon="12.6234601"><ele>112.33333333333334</ele><time>2026-04-11T07:33:38.457Z</time></trkpt><trkpt lat="43.7865856" lon="12.6236799"><ele>114.0</ele><time>2026-04-11T07:33:39.457Z</time></trkpt><trkpt lat="43.7866072" lon="12.6238769"><ele>113.75</ele><time>2026-04-11T07:33:40.456Z</time></trkpt><trkpt lat="43.7866256" lon="12.6240593"><ele>113.5</ele><time>2026-04-11T07:33:41.457Z</time></trkpt><trkpt lat="43.7866265" lon="12.6242366"><ele>113.25</ele><time>2026-04-11T07:33:42.458Z</time></trkpt><trkpt lat="43.7865962" lon="12.624396"><ele>113.0</ele><time>2026-04-11T07:33:43.456Z</time></trkpt><trkpt lat="43.7865266" lon="12.6245585"><ele>113.0</ele><time>2026-04-11T07:33:44.456Z</time></trkpt><trkpt lat="43.786418" lon="12.6247158"><ele>113.0</ele><time>2026-04-11T07:33:45.456Z</time></trkpt><trkpt lat="43.7862856" lon="12.6248805"><ele>113.0</ele><time>2026-04-11T07:33:46.457Z</time></trkpt><trkpt lat="43.7861378" lon="12.6250597"><ele>116.0</ele><time>2026-04-11T07:33:47.457Z</time></trkpt><trkpt lat="43.7860013" lon="12.6252232"><ele>119.0</ele><time>2026-04-11T07:33:48.456Z</time></trkpt><trkpt lat="43.7858811" lon="12.6253693"><ele>122.0</ele><time>2026-04-11T07:33:49.456Z</time></trkpt><trkpt lat="43.7857715" lon="12.6254961"><ele>122.0</ele><time>2026-04-11T07:33:50.457Z</time></trkpt><trkpt lat="43.7856767" lon="12.6256094"><ele>121.99999999999999</ele><time>2026-04-11T07:33:51.457Z</time></trkpt><trkpt lat="43.785591" lon="12.6257051"><ele>121.99999999999999</ele><time>2026-04-11T07:33:52.456Z</time></trkpt><trkpt lat="43.7855176" lon="12.6257872"><ele>122.0</ele><time>2026-04-11T07:33:53.456Z</time></trkpt><trkpt lat="43.7854431" lon="12.6258566"><ele>122.0</ele><time>2026-04-11T07:33:54.458Z</time></trkpt><trkpt lat="43.7853684" lon="12.6259081"><ele>121.99999999999999</ele><time>2026-04-11T07:33:55.456Z</time></trkpt><trkpt lat="43.7852998" lon="12.6259602"><ele>122.0</ele><time>2026-04-11T07:33:56.456Z</time></trkpt><trkpt lat="43.7852651" lon="12.6260437"><ele>122.0</ele><time>2026-04-11T07:33:57.456Z</time></trkpt><trkpt lat="43.7852634" lon="12.6261369"><ele>122.0</ele><time>2026-04-11T07:33:58.457Z</time></trkpt><trkpt lat="43.7852946" lon="12.626235"><ele>121.99999999999999</ele><time>2026-04-11T07:33:59.457Z</time></trkpt><trkpt lat="43.7853519" lon="12.626343"><ele>122.0</ele><time>2026-04-11T07:34:00.456Z</time></trkpt><trkpt lat="43.7854077" lon="12.6264848"><ele>122.0</ele><time>2026-04-11T07:34:01.456Z</time></trkpt><trkpt lat="43.7854244" lon="12.6266556"><ele>122.0</ele><time>2026-04-11T07:34:02.456Z</time></trkpt><trkpt lat="43.7853982" lon="12.626833"><ele>122.0</ele><time>2026-04-11T07:34:03.456Z</time></trkpt><trkpt lat="43.7853356" lon="12.6270286"><ele>122.0</ele><time>2026-04-11T07:34:04.456Z</time></trkpt><trkpt lat="43.7852514" lon="12.627252"><ele>122.66666666666666</ele><time>2026-04-11T07:34:05.457Z</time></trkpt><trkpt lat="43.7851718" lon="12.627488"><ele>123.33333333333334</ele><time>2026-04-11T07:34:06.457Z</time></trkpt><trkpt lat="43.7850902" lon="12.6277387"><ele>124.0</ele><time>2026-04-11T07:34:07.456Z</time></trkpt><trkpt lat="43.7850235" lon="12.6279331"><ele>124.0</ele><time>2026-04-11T07:34:08.456Z</time></trkpt><trkpt lat="43.7849633" lon="12.6281065"><ele>124.0</ele><time>2026-04-11T07:34:09.456Z</time></trkpt><trkpt lat="43.7849072" lon="12.628262"><ele>124.0</ele><time>2026-04-11T07:34:10.456Z</time></trkpt><trkpt lat="43.7848554" lon="12.6284078"><ele>124.0</ele><time>2026-04-11T07:34:11.456Z</time></trkpt><trkpt lat="43.7848042" lon="12.6285564"><ele>123.5</ele><time>2026-04-11T07:34:12.457Z</time></trkpt><trkpt lat="43.7847496" lon="12.6287142"><ele>123.0</ele><time>2026-04-11T07:34:13.456Z</time></trkpt><trkpt lat="43.7846922" lon="12.6288801"><ele>122.5</ele><time>2026-04-11T07:34:14.456Z</time></trkpt><trkpt lat="43.7846301" lon="12.629035"><ele>122.0</ele><time>2026-04-11T07:34:15.456Z</time></trkpt><trkpt lat="43.7845705" lon="12.6291783"><ele>122.0</ele><time>2026-04-11T07:34:16.456Z</time></trkpt><trkpt lat="43.7844891" lon="12.6293142"><ele>122.0</ele><time>2026-04-11T07:34:17.457Z</time></trkpt><trkpt lat="43.7843939" lon="12.6294454"><ele>122.0</ele><time>2026-04-11T07:34:18.457Z</time></trkpt><trkpt lat="43.7842916" lon="12.6295864"><ele>122.0</ele><time>2026-04-11T07:34:19.456Z</time></trkpt><trkpt lat="43.7841798" lon="12.629732"><ele>122.66666666666666</ele><time>2026-04-11T07:34:20.456Z</time></trkpt><trkpt lat="43.7840736" lon="12.6298916"><ele>123.33333333333334</ele><time>2026-04-11T07:34:21.456Z</time></trkpt><trkpt lat="43.7839836" lon="12.6300534"><ele>124.0</ele><time>2026-04-11T07:34:22.457Z</time></trkpt><trkpt lat="43.7839028" lon="12.6302278"><ele>124.25</ele><time>2026-04-11T07:34:23.457Z</time></trkpt><trkpt lat="43.783834" lon="12.6303958"><ele>124.5</ele><time>2026-04-11T07:34:24.457Z</time></trkpt><trkpt lat="43.7837746" lon="12.6305543"><ele>124.75</ele><time>2026-04-11T07:34:25.457Z</time></trkpt><trkpt lat="43.7837261" lon="12.6307041"><ele>125.0</ele><time>2026-04-11T07:34:26.456Z</time></trkpt><trkpt lat="43.7836876" lon="12.6308475"><ele>125.0</ele><time>2026-04-11T07:34:27.456Z</time></trkpt><trkpt lat="43.7836497" lon="12.6309885"><ele>125.0</ele><time>2026-04-11T07:34:28.456Z</time></trkpt><trkpt lat="43.7836086" lon="12.6311276"><ele>125.0</ele><time>2026-04-11T07:34:29.457Z</time></trkpt><trkpt lat="43.7835696" lon="12.6312693"><ele>125.0</ele><time>2026-04-11T07:34:30.457Z</time></trkpt><trkpt lat="43.7835379" lon="12.6314045"><ele>125.0</ele><time>2026-04-11T07:34:31.457Z</time></trkpt><trkpt lat="43.7835099" lon="12.6315226"><ele>125.25</ele><time>2026-04-11T07:34:32.456Z</time></trkpt><trkpt lat="43.7834845" lon="12.6316375"><ele>125.5</ele><time>2026-04-11T07:34:33.456Z</time></trkpt><trkpt lat="43.7834527" lon="12.6317781"><ele>125.75</ele><time>2026-04-11T07:34:34.456Z</time></trkpt><trkpt lat="43.7833871" lon="12.6319382"><ele>126.0</ele><time>2026-04-11T07:34:35.456Z</time></trkpt><trkpt lat="43.7833018" lon="12.6320925"><ele>125.0</ele><time>2026-04-11T07:34:36.456Z</time></trkpt><trkpt lat="43.783208" lon="12.6322685"><ele>124.0</ele><time>2026-04-11T07:34:37.457Z</time></trkpt><trkpt lat="43.783104" lon="12.6324615"><ele>123.0</ele><time>2026-04-11T07:34:38.456Z</time></trkpt><trkpt lat="43.7830031" lon="12.6326288"><ele>123.0</ele><time>2026-04-11T07:34:39.456Z</time></trkpt><trkpt lat="43.7829029" lon="12.6327805"><ele>123.0</ele><time>2026-04-11T07:34:40.457Z</time></trkpt><trkpt lat="43.7828112" lon="12.6329222"><ele>123.0</ele><time>2026-04-11T07:34:41.458Z</time></trkpt><trkpt lat="43.7827314" lon="12.6330519"><ele>123.0</ele><time>2026-04-11T07:34:42.456Z</time></trkpt><trkpt lat="43.7826651" lon="12.6331814"><ele>123.4</ele><time>2026-04-11T07:34:43.456Z</time></trkpt><trkpt lat="43.7826103" lon="12.6333098"><ele>123.80000000000001</ele><time>2026-04-11T07:34:44.457Z</time></trkpt><trkpt lat="43.7825606" lon="12.6334278"><ele>124.2</ele><time>2026-04-11T07:34:45.457Z</time></trkpt><trkpt lat="43.7825141" lon="12.63354"><ele>124.6</ele><time>2026-04-11T07:34:46.456Z</time></trkpt><trkpt lat="43.7824613" lon="12.6336347"><ele>125.0</ele><time>2026-04-11T07:34:47.456Z</time></trkpt><trkpt lat="43.7823904" lon="12.6337172"><ele>125.2</ele><time>2026-04-11T07:34:48.456Z</time></trkpt><trkpt lat="43.782311" lon="12.633794"><ele>125.4</ele><time>2026-04-11T07:34:49.456Z</time></trkpt><trkpt lat="43.7822228" lon="12.6338621"><ele>125.6</ele><time>2026-04-11T07:34:50.457Z</time></trkpt><trkpt lat="43.7821236" lon="12.6339226"><ele>125.8</ele><time>2026-04-11T07:34:51.457Z</time></trkpt><trkpt lat="43.7820114" lon="12.6339888"><ele>126.0</ele><time>2026-04-11T07:34:52.456Z</time></trkpt><trkpt lat="43.7818978" lon="12.6340478"><ele>126.16666666666667</ele><time>2026-04-11T07:34:53.457Z</time></trkpt><trkpt lat="43.7817939" lon="12.6340749"><ele>126.33333333333334</ele><time>2026-04-11T07:34:54.456Z</time></trkpt><trkpt lat="43.7816947" lon="12.6340636"><ele>126.5</ele><time>2026-04-11T07:34:55.456Z</time></trkpt><trkpt lat="43.781602" lon="12.6340318"><ele>126.66666666666667</ele><time>2026-04-11T07:34:56.457Z</time></trkpt><trkpt lat="43.7815346" lon="12.6340039"><ele>126.83333333333334</ele><time>2026-04-11T07:34:57.456Z</time></trkpt><trkpt lat="43.781464" lon="12.6339602"><ele>127.0</ele><time>2026-04-11T07:34:59.456Z</time></trkpt><trkpt lat="43.7813604" lon="12.6338757"><ele>127.0</ele><time>2026-04-11T07:35:01.456Z</time></trkpt><trkpt lat="43.7812895" lon="12.6338359"><ele>127.0</ele><time>2026-04-11T07:35:02.457Z</time></trkpt><trkpt lat="43.7812197" lon="12.6337907"><ele>127.0</ele><time>2026-04-11T07:35:03.456Z</time></trkpt><trkpt lat="43.7811556" lon="12.6337529"><ele>127.0</ele><time>2026-04-11T07:35:04.457Z</time></trkpt><trkpt lat="43.7810862" lon="12.6337442"><ele>127.0</ele><time>2026-04-11T07:35:05.457Z</time></trkpt><trkpt lat="43.7810249" lon="12.633779"><ele>127.0</ele><time>2026-04-11T07:35:06.457Z</time></trkpt><trkpt lat="43.7809691" lon="12.6338219"><ele>127.0</ele><time>2026-04-11T07:35:07.456Z</time></trkpt><trkpt lat="43.7808782" lon="12.6337895"><ele>127.39999999999999</ele><time>2026-04-11T07:35:09.456Z</time></trkpt><trkpt lat="43.7808452" lon="12.6336683"><ele>127.79999999999998</ele><time>2026-04-11T07:35:11.456Z</time></trkpt><trkpt lat="43.7808455" lon="12.6335133"><ele>128.2</ele><time>2026-04-11T07:35:13.456Z</time></trkpt><trkpt lat="43.7808632" lon="12.6333551"><ele>128.6</ele><time>2026-04-11T07:35:15.456Z</time></trkpt><trkpt lat="43.7808769" lon="12.6332205"><ele>129.0</ele><time>2026-04-11T07:35:17.456Z</time></trkpt><trkpt lat="43.780889" lon="12.6331186"><ele>131.8</ele><time>2026-04-11T07:35:19.456Z</time></trkpt><trkpt lat="43.7808707" lon="12.6330239"><ele>134.60000000000002</ele><time>2026-04-11T07:35:22.457Z</time></trkpt><trkpt lat="43.780861" lon="12.6331697"><ele>137.4</ele><time>2026-04-11T07:35:47.457Z</time></trkpt><trkpt lat="43.7808438" lon="12.6333166"><ele>140.20000000000002</ele><time>2026-04-11T07:35:49.457Z</time></trkpt><trkpt lat="43.7808413" lon="12.6334081"><ele>143.0</ele><time>2026-04-11T07:35:50.456Z</time></trkpt><trkpt lat="43.7808349" lon="12.6335754"><ele>140.20000000000002</ele><time>2026-04-11T07:35:52.456Z</time></trkpt><trkpt lat="43.7808416" lon="12.6337404"><ele>137.4</ele><time>2026-04-11T07:35:54.456Z</time></trkpt><trkpt lat="43.7809319" lon="12.6338356"><ele>134.60000000000002</ele><time>2026-04-11T07:35:56.457Z</time></trkpt><trkpt lat="43.7809963" lon="12.6338328"><ele>131.8</ele><time>2026-04-11T07:35:57.456Z</time></trkpt><trkpt lat="43.781111" lon="12.6337826"><ele>129.0</ele><time>2026-04-11T07:35:59.456Z</time></trkpt><trkpt lat="43.7811768" lon="12.6337879"><ele>128.66666666666666</ele><time>2026-04-11T07:36:00.456Z</time></trkpt><trkpt lat="43.7812409" lon="12.6338201"><ele>128.33333333333334</ele><time>2026-04-11T07:36:01.456Z</time></trkpt><trkpt lat="43.7813017" lon="12.6338628"><ele>128.0</ele><time>2026-04-11T07:36:02.456Z</time></trkpt><trkpt lat="43.7813618" lon="12.6339066"><ele>127.66666666666667</ele><time>2026-04-11T07:36:03.457Z</time></trkpt><trkpt lat="43.781421" lon="12.6339487"><ele>127.33333333333334</ele><time>2026-04-11T07:36:04.456Z</time></trkpt><trkpt lat="43.781478" lon="12.6339911"><ele>127.0</ele><time>2026-04-11T07:36:05.456Z</time></trkpt><trkpt lat="43.7815891" lon="12.6340622"><ele>127.00000000000001</ele><time>2026-04-11T07:36:07.457Z</time></trkpt><trkpt lat="43.7816969" lon="12.6341066"><ele>127.0</ele><time>2026-04-11T07:36:09.456Z</time></trkpt><trkpt lat="43.7817599" lon="12.6341104"><ele>127.0</ele><time>2026-04-11T07:36:10.456Z</time></trkpt><trkpt lat="43.781823" lon="12.6340952"><ele>127.0</ele><time>2026-04-11T07:36:11.456Z</time></trkpt><trkpt lat="43.7818926" lon="12.6340633"><ele>127.00000000000001</ele><time>2026-04-11T07:36:12.457Z</time></trkpt><trkpt lat="43.7819642" lon="12.6340197"><ele>127.0</ele><time>2026-04-11T07:36:13.456Z</time></trkpt><trkpt lat="43.7820273" lon="12.6339756"><ele>127.0</ele><time>2026-04-11T07:36:14.456Z</time></trkpt><trkpt lat="43.7820848" lon="12.6339387"><ele>127.0</ele><time>2026-04-11T07:36:15.456Z</time></trkpt><trkpt lat="43.7821681" lon="12.6339643"><ele>127.0</ele><time>2026-04-11T07:36:17.456Z</time></trkpt><trkpt lat="43.7821287" lon="12.6340758"><ele>127.0</ele><time>2026-04-11T07:36:19.456Z</time></trkpt><trkpt lat="43.7820638" lon="12.634129"><ele>127.0</ele><time>2026-04-11T07:36:20.457Z</time></trkpt><trkpt lat="43.7820015" lon="12.6341723"><ele>127.0</ele><time>2026-04-11T07:36:21.456Z</time></trkpt><trkpt lat="43.7819458" lon="12.6342143"><ele>127.0</ele><time>2026-04-11T07:36:22.456Z</time></trkpt><trkpt lat="43.7818421" lon="12.6343157"><ele>127.00000000000001</ele><time>2026-04-11T07:36:24.456Z</time></trkpt><trkpt lat="43.7817725" lon="12.6343649"><ele>127.0</ele><time>2026-04-11T07:36:25.456Z</time></trkpt><trkpt lat="43.7816986" lon="12.6344004"><ele>127.0</ele><time>2026-04-11T07:36:26.456Z</time></trkpt><trkpt lat="43.7816362" lon="12.6344465"><ele>127.0</ele><time>2026-04-11T07:36:27.456Z</time></trkpt><trkpt lat="43.7815894" lon="12.6345117"><ele>127.00000000000001</ele><time>2026-04-11T07:36:28.456Z</time></trkpt><trkpt lat="43.7815904" lon="12.6346747"><ele>127.0</ele><time>2026-04-11T07:36:30.456Z</time></trkpt><trkpt lat="43.7816475" lon="12.6347686"><ele>124.19999999999999</ele><time>2026-04-11T07:36:31.456Z</time></trkpt><trkpt lat="43.7817257" lon="12.6348726"><ele>121.39999999999999</ele><time>2026-04-11T07:36:32.456Z</time></trkpt><trkpt lat="43.7817846" lon="12.6349835"><ele>118.60000000000001</ele><time>2026-04-11T07:36:33.456Z</time></trkpt><trkpt lat="43.7818071" lon="12.6350832"><ele>115.80000000000001</ele><time>2026-04-11T07:36:34.456Z</time></trkpt><trkpt lat="43.7817946" lon="12.6351884"><ele>113.0</ele><time>2026-04-11T07:36:35.456Z</time></trkpt><trkpt lat="43.7817498" lon="12.6353097"><ele>110.25</ele><time>2026-04-11T07:36:36.456Z</time></trkpt><trkpt lat="43.7816782" lon="12.6354564"><ele>107.5</ele><time>2026-04-11T07:36:37.456Z</time></trkpt><trkpt lat="43.7815966" lon="12.6356439"><ele>104.75</ele><time>2026-04-11T07:36:38.457Z</time></trkpt><trkpt lat="43.7815217" lon="12.6358071"><ele>102.0</ele><time>2026-04-11T07:36:39.456Z</time></trkpt><trkpt lat="43.7814458" lon="12.6359393"><ele>102.0</ele><time>2026-04-11T07:36:40.456Z</time></trkpt><trkpt lat="43.7813638" lon="12.6360295"><ele>102.0</ele><time>2026-04-11T07:36:41.456Z</time></trkpt><trkpt lat="43.7812821" lon="12.6360806"><ele>102.0</ele><time>2026-04-11T07:36:42.456Z</time></trkpt><trkpt lat="43.7812068" lon="12.636119"><ele>102.0</ele><time>2026-04-11T07:36:43.456Z</time></trkpt><trkpt lat="43.7811421" lon="12.6361834"><ele>102.0</ele><time>2026-04-11T07:36:44.456Z</time></trkpt><trkpt lat="43.7810701" lon="12.6362747"><ele>101.6</ele><time>2026-04-11T07:36:45.456Z</time></trkpt><trkpt lat="43.7809896" lon="12.6363696"><ele>101.19999999999999</ele><time>2026-04-11T07:36:46.456Z</time></trkpt><trkpt lat="43.7809048" lon="12.6364586"><ele>100.8</ele><time>2026-04-11T07:36:47.457Z</time></trkpt><trkpt lat="43.7808235" lon="12.6365348"><ele>100.4</ele><time>2026-04-11T07:36:48.456Z</time></trkpt><trkpt lat="43.780748" lon="12.6365985"><ele>100.0</ele><time>2026-04-11T07:36:49.457Z</time></trkpt><trkpt lat="43.7806821" lon="12.636655"><ele>100.00000000000001</ele><time>2026-04-11T07:36:50.457Z</time></trkpt><trkpt lat="43.7806338" lon="12.6367148"><ele>100.0</ele><time>2026-04-11T07:36:51.456Z</time></trkpt><trkpt lat="43.7805987" lon="12.6368026"><ele>100.0</ele><time>2026-04-11T07:36:52.457Z</time></trkpt><trkpt lat="43.7805994" lon="12.6369085"><ele>100.0</ele><time>2026-04-11T07:36:53.456Z</time></trkpt><trkpt lat="43.7806318" lon="12.6370174"><ele>100.00000000000001</ele><time>2026-04-11T07:36:54.456Z</time></trkpt><trkpt lat="43.7806751" lon="12.6371306"><ele>100.0</ele><time>2026-04-11T07:36:55.456Z</time></trkpt><trkpt lat="43.7806887" lon="12.6372243"><ele>100.16666666666667</ele><time>2026-04-11T07:36:56.456Z</time></trkpt><trkpt lat="43.780682" lon="12.6373238"><ele>100.33333333333334</ele><time>2026-04-11T07:36:57.456Z</time></trkpt><trkpt lat="43.7806387" lon="12.6374006"><ele>100.5</ele><time>2026-04-11T07:36:58.457Z</time></trkpt><trkpt lat="43.780573" lon="12.6374407"><ele>100.66666666666666</ele><time>2026-04-11T07:36:59.457Z</time></trkpt><trkpt lat="43.7804864" lon="12.6374493"><ele>100.83333333333333</ele><time>2026-04-11T07:37:00.456Z</time></trkpt><trkpt lat="43.7803803" lon="12.6374381"><ele>101.0</ele><time>2026-04-11T07:37:01.458Z</time></trkpt><trkpt lat="43.7802759" lon="12.6374154"><ele>105.25</ele><time>2026-04-11T07:37:02.456Z</time></trkpt><trkpt lat="43.7801655" lon="12.6373645"><ele>109.5</ele><time>2026-04-11T07:37:03.457Z</time></trkpt><trkpt lat="43.7800501" lon="12.6372874"><ele>113.75</ele><time>2026-04-11T07:37:04.456Z</time></trkpt><trkpt lat="43.77995" lon="12.6372104"><ele>118.0</ele><time>2026-04-11T07:37:05.456Z</time></trkpt><trkpt lat="43.7798665" lon="12.6371565"><ele>118.00000000000001</ele><time>2026-04-11T07:37:06.457Z</time></trkpt><trkpt lat="43.7797911" lon="12.6371486"><ele>118.0</ele><time>2026-04-11T07:37:07.456Z</time></trkpt><trkpt lat="43.7797303" lon="12.6371909"><ele>118.0</ele><time>2026-04-11T07:37:08.457Z</time></trkpt><trkpt lat="43.7797006" lon="12.6372721"><ele>118.0</ele><time>2026-04-11T07:37:09.457Z</time></trkpt><trkpt lat="43.7796911" lon="12.6373897"><ele>118.00000000000001</ele><time>2026-04-11T07:37:10.456Z</time></trkpt><trkpt lat="43.7796937" lon="12.6375486"><ele>118.0</ele><time>2026-04-11T07:37:11.457Z</time></trkpt><trkpt lat="43.7796745" lon="12.6377292"><ele>118.25</ele><time>2026-04-11T07:37:12.457Z</time></trkpt><trkpt lat="43.779625" lon="12.6379165"><ele>118.5</ele><time>2026-04-11T07:37:13.457Z</time></trkpt><trkpt lat="43.77957" lon="12.6380658"><ele>118.75</ele><time>2026-04-11T07:37:14.456Z</time></trkpt><trkpt lat="43.7795107" lon="12.6381837"><ele>119.0</ele><time>2026-04-11T07:37:15.457Z</time></trkpt><trkpt lat="43.7794389" lon="12.638289"><ele>119.0</ele><time>2026-04-11T07:37:16.456Z</time></trkpt><trkpt lat="43.7793575" lon="12.6383799"><ele>119.0</ele><time>2026-04-11T07:37:17.456Z</time></trkpt><trkpt lat="43.7792701" lon="12.6384416"><ele>119.0</ele><time>2026-04-11T07:37:18.457Z</time></trkpt><trkpt lat="43.7791811" lon="12.6384805"><ele>119.0</ele><time>2026-04-11T07:37:19.456Z</time></trkpt><trkpt lat="43.7790887" lon="12.638458"><ele>119.0</ele><time>2026-04-11T07:37:20.456Z</time></trkpt><trkpt lat="43.779" lon="12.6384154"><ele>126.25</ele><time>2026-04-11T07:37:21.456Z</time></trkpt><trkpt lat="43.7789076" lon="12.6384292"><ele>133.5</ele><time>2026-04-11T07:37:22.456Z</time></trkpt><trkpt lat="43.7788057" lon="12.6384911"><ele>140.75</ele><time>2026-04-11T07:37:23.456Z</time></trkpt><trkpt lat="43.7786844" lon="12.6385911"><ele>148.0</ele><time>2026-04-11T07:37:24.456Z</time></trkpt><trkpt lat="43.7785453" lon="12.638718"><ele>152.66666666666669</ele><time>2026-04-11T07:37:25.456Z</time></trkpt><trkpt lat="43.7783908" lon="12.638889"><ele>157.33333333333334</ele><time>2026-04-11T07:37:26.456Z</time></trkpt><trkpt lat="43.7782622" lon="12.6390272"><ele>162.0</ele><time>2026-04-11T07:37:27.456Z</time></trkpt><trkpt lat="43.7781327" lon="12.63914"><ele>162.0</ele><time>2026-04-11T07:37:28.458Z</time></trkpt><trkpt lat="43.7779792" lon="12.6392287"><ele>162.0</ele><time>2026-04-11T07:37:29.457Z</time></trkpt><trkpt lat="43.7778001" lon="12.6393186"><ele>162.0</ele><time>2026-04-11T07:37:30.457Z</time></trkpt><trkpt lat="43.7775912" lon="12.6394284"><ele>167.0</ele><time>2026-04-11T07:37:31.456Z</time></trkpt><trkpt lat="43.7773664" lon="12.6395454"><ele>172.0</ele><time>2026-04-11T07:37:32.456Z</time></trkpt><trkpt lat="43.777194" lon="12.6396368"><ele>177.0</ele><time>2026-04-11T07:37:33.456Z</time></trkpt><trkpt lat="43.7770416" lon="12.639715"><ele>177.0</ele><time>2026-04-11T07:37:34.456Z</time></trkpt><trkpt lat="43.7769026" lon="12.6397735"><ele>177.0</ele><time>2026-04-11T07:37:35.457Z</time></trkpt><trkpt lat="43.776753" lon="12.6398099"><ele>177.0</ele><time>2026-04-11T07:37:36.456Z</time></trkpt><trkpt lat="43.7765754" lon="12.6398059"><ele>180.0</ele><time>2026-04-11T07:37:37.456Z</time></trkpt><trkpt lat="43.7763755" lon="12.6398139"><ele>183.0</ele><time>2026-04-11T07:37:38.456Z</time></trkpt><trkpt lat="43.7762081" lon="12.6398385"><ele>186.0</ele><time>2026-04-11T07:37:39.457Z</time></trkpt><trkpt lat="43.7760647" lon="12.6398559"><ele>187.75</ele><time>2026-04-11T07:37:40.456Z</time></trkpt><trkpt lat="43.7759458" lon="12.6398399"><ele>189.5</ele><time>2026-04-11T07:37:41.456Z</time></trkpt><trkpt lat="43.7758267" lon="12.6397842"><ele>191.25</ele><time>2026-04-11T07:37:42.456Z</time></trkpt><trkpt lat="43.7756883" lon="12.6397012"><ele>193.0</ele><time>2026-04-11T07:37:43.457Z</time></trkpt><trkpt lat="43.7755316" lon="12.6395904"><ele>193.0</ele><time>2026-04-11T07:37:44.456Z</time></trkpt><trkpt lat="43.7753693" lon="12.6394422"><ele>193.0</ele><time>2026-04-11T07:37:45.457Z</time></trkpt><trkpt lat="43.7752556" lon="12.6393022"><ele>193.0</ele><time>2026-04-11T07:37:46.456Z</time></trkpt><trkpt lat="43.7751782" lon="12.6391544"><ele>195.5</ele><time>2026-04-11T07:37:47.456Z</time></trkpt><trkpt lat="43.7751132" lon="12.6390314"><ele>198.0</ele><time>2026-04-11T07:37:48.456Z</time></trkpt><trkpt lat="43.7750202" lon="12.6389469"><ele>200.5</ele><time>2026-04-11T07:37:49.456Z</time></trkpt><trkpt lat="43.7749004" lon="12.6388929"><ele>203.0</ele><time>2026-04-11T07:37:50.456Z</time></trkpt><trkpt lat="43.7747481" lon="12.6388274"><ele>203.0</ele><time>2026-04-11T07:37:51.456Z</time></trkpt><trkpt lat="43.7745945" lon="12.638732"><ele>203.0</ele><time>2026-04-11T07:37:52.457Z</time></trkpt><trkpt lat="43.7744797" lon="12.6386551"><ele>203.0</ele><time>2026-04-11T07:37:53.457Z</time></trkpt><trkpt lat="43.7743742" lon="12.6386109"><ele>203.0</ele><time>2026-04-11T07:37:54.456Z</time></trkpt><trkpt lat="43.7742815" lon="12.6386205"><ele>205.50000000000003</ele><time>2026-04-11T07:37:55.457Z</time></trkpt><trkpt lat="43.7742083" lon="12.6386871"><ele>208.0</ele><time>2026-04-11T07:37:56.456Z</time></trkpt><trkpt lat="43.7741567" lon="12.6388026"><ele>210.5</ele><time>2026-04-11T07:37:57.456Z</time></trkpt><trkpt lat="43.7741223" lon="12.6389289"><ele>213.0</ele><time>2026-04-11T07:37:58.456Z</time></trkpt><trkpt lat="43.7740692" lon="12.6390011"><ele>215.50000000000003</ele><time>2026-04-11T07:37:59.456Z</time></trkpt><trkpt lat="43.7739859" lon="12.6390501"><ele>218.0</ele><time>2026-04-11T07:38:00.457Z</time></trkpt><trkpt lat="43.7738663" lon="12.639075"><ele>218.0</ele><time>2026-04-11T07:38:01.456Z</time></trkpt><trkpt lat="43.7737513" lon="12.6390796"><ele>218.0</ele><time>2026-04-11T07:38:02.456Z</time></trkpt><trkpt lat="43.7736693" lon="12.6390387"><ele>218.0</ele><time>2026-04-11T07:38:03.456Z</time></trkpt><trkpt lat="43.7736209" lon="12.6389543"><ele>218.0</ele><time>2026-04-11T07:38:04.457Z</time></trkpt><trkpt lat="43.7735872" lon="12.6388255"><ele>218.0</ele><time>2026-04-11T07:38:05.457Z</time></trkpt><trkpt lat="43.7735396" lon="12.6386782"><ele>222.5</ele><time>2026-04-11T07:38:06.457Z</time></trkpt><trkpt lat="43.7734555" lon="12.6385505"><ele>227.0</ele><time>2026-04-11T07:38:07.457Z</time></trkpt><trkpt lat="43.7733396" lon="12.6384419"><ele>231.5</ele><time>2026-04-11T07:38:08.456Z</time></trkpt><trkpt lat="43.7731809" lon="12.638337"><ele>236.0</ele><time>2026-04-11T07:38:09.456Z</time></trkpt><trkpt lat="43.7729998" lon="12.6382409"><ele>236.0</ele><time>2026-04-11T07:38:10.455Z</time></trkpt><trkpt lat="43.7728515" lon="12.6381629"><ele>236.0</ele><time>2026-04-11T07:38:11.456Z</time></trkpt><trkpt lat="43.7727222" lon="12.6380746"><ele>236.0</ele><time>2026-04-11T07:38:12.455Z</time></trkpt><trkpt lat="43.7726126" lon="12.6379645"><ele>236.0</ele><time>2026-04-11T07:38:13.456Z</time></trkpt><trkpt lat="43.7725246" lon="12.6378043"><ele>239.75</ele><time>2026-04-11T07:38:14.455Z</time></trkpt><trkpt lat="43.7724293" lon="12.6376212"><ele>243.5</ele><time>2026-04-11T07:38:15.457Z</time></trkpt><trkpt lat="43.7723211" lon="12.6374823"><ele>247.25</ele><time>2026-04-11T07:38:16.455Z</time></trkpt><trkpt lat="43.7722283" lon="12.6373698"><ele>251.0</ele><time>2026-04-11T07:38:17.455Z</time></trkpt><trkpt lat="43.7721376" lon="12.6373117"><ele>251.0</ele><time>2026-04-11T07:38:18.456Z</time></trkpt><trkpt lat="43.7720471" lon="12.6373203"><ele>251.0</ele><time>2026-04-11T07:38:19.456Z</time></trkpt><trkpt lat="43.7719377" lon="12.6373868"><ele>251.0</ele><time>2026-04-11T07:38:20.455Z</time></trkpt><trkpt lat="43.7718133" lon="12.6375049"><ele>251.0</ele><time>2026-04-11T07:38:21.456Z</time></trkpt><trkpt lat="43.7716829" lon="12.6376199"><ele>253.33333333333334</ele><time>2026-04-11T07:38:22.455Z</time></trkpt><trkpt lat="43.7715524" lon="12.6377031"><ele>255.66666666666669</ele><time>2026-04-11T07:38:23.455Z</time></trkpt><trkpt lat="43.7713897" lon="12.6377808"><ele>258.0</ele><time>2026-04-11T07:38:24.455Z</time></trkpt><trkpt lat="43.7712186" lon="12.6378666"><ele>258.0</ele><time>2026-04-11T07:38:25.455Z</time></trkpt><trkpt lat="43.7710461" lon="12.6379665"><ele>258.0</ele><time>2026-04-11T07:38:26.456Z</time></trkpt><trkpt lat="43.7709066" lon="12.63805"><ele>258.0</ele><time>2026-04-11T07:38:27.455Z</time></trkpt><trkpt lat="43.7707873" lon="12.6381051"><ele>259.6666666666667</ele><time>2026-04-11T07:38:28.455Z</time></trkpt><trkpt lat="43.7706918" lon="12.6381151"><ele>261.3333333333333</ele><time>2026-04-11T07:38:29.455Z</time></trkpt><trkpt lat="43.7706282" lon="12.638073"><ele>263.0</ele><time>2026-04-11T07:38:30.455Z</time></trkpt><trkpt lat="43.7705912" lon="12.6379861"><ele>264.66666666666663</ele><time>2026-04-11T07:38:31.455Z</time></trkpt><trkpt lat="43.7705671" lon="12.6378579"><ele>266.3333333333333</ele><time>2026-04-11T07:38:32.455Z</time></trkpt><trkpt lat="43.7705286" lon="12.6377385"><ele>268.0</ele><time>2026-04-11T07:38:33.455Z</time></trkpt><trkpt lat="43.7704677" lon="12.6376706"><ele>268.75</ele><time>2026-04-11T07:38:34.455Z</time></trkpt><trkpt lat="43.7703858" lon="12.637647"><ele>269.5</ele><time>2026-04-11T07:38:35.455Z</time></trkpt><trkpt lat="43.7702786" lon="12.6376621"><ele>270.25</ele><time>2026-04-11T07:38:36.455Z</time></trkpt><trkpt lat="43.7701501" lon="12.6376954"><ele>271.0</ele><time>2026-04-11T07:38:37.456Z</time></trkpt><trkpt lat="43.770001" lon="12.6377257"><ele>273.0</ele><time>2026-04-11T07:38:38.455Z</time></trkpt><trkpt lat="43.7698268" lon="12.6377627"><ele>275.0</ele><time>2026-04-11T07:38:39.455Z</time></trkpt><trkpt lat="43.7696351" lon="12.6378025"><ele>277.0</ele><time>2026-04-11T07:38:40.456Z</time></trkpt><trkpt lat="43.769442" lon="12.6378493"><ele>281.3333333333333</ele><time>2026-04-11T07:38:41.456Z</time></trkpt><trkpt lat="43.7692469" lon="12.6379082"><ele>285.6666666666667</ele><time>2026-04-11T07:38:42.456Z</time></trkpt><trkpt lat="43.7690924" lon="12.637976"><ele>290.0</ele><time>2026-04-11T07:38:43.455Z</time></trkpt><trkpt lat="43.7689544" lon="12.6380302"><ele>290.0</ele><time>2026-04-11T07:38:44.455Z</time></trkpt><trkpt lat="43.7688379" lon="12.6380757"><ele>290.0</ele><time>2026-04-11T07:38:45.455Z</time></trkpt><trkpt lat="43.7687317" lon="12.6381192"><ele>290.0</ele><time>2026-04-11T07:38:46.455Z</time></trkpt><trkpt lat="43.7686148" lon="12.6381618"><ele>290.0</ele><time>2026-04-11T07:38:47.455Z</time></trkpt><trkpt lat="43.7684862" lon="12.6382074"><ele>292.5</ele><time>2026-04-11T07:38:48.455Z</time></trkpt><trkpt lat="43.7683343" lon="12.6382427"><ele>295.0</ele><time>2026-04-11T07:38:49.455Z</time></trkpt><trkpt lat="43.7681883" lon="12.6382114"><ele>297.5</ele><time>2026-04-11T07:38:50.456Z</time></trkpt><trkpt lat="43.7680624" lon="12.638199"><ele>300.0</ele><time>2026-04-11T07:38:51.455Z</time></trkpt><trkpt lat="43.7679441" lon="12.6381772"><ele>300.0</ele><time>2026-04-11T07:38:52.455Z</time></trkpt><trkpt lat="43.7678324" lon="12.6381718"><ele>300.0</ele><time>2026-04-11T07:38:53.457Z</time></trkpt><trkpt lat="43.7677358" lon="12.638202"><ele>300.0</ele><time>2026-04-11T07:38:54.455Z</time></trkpt><trkpt lat="43.767662" lon="12.6382568"><ele>300.0</ele><time>2026-04-11T07:38:55.457Z</time></trkpt><trkpt lat="43.7676134" lon="12.638345"><ele>300.0</ele><time>2026-04-11T07:38:56.456Z</time></trkpt><trkpt lat="43.7675818" lon="12.6384735"><ele>299.75</ele><time>2026-04-11T07:38:57.455Z</time></trkpt><trkpt lat="43.7675736" lon="12.6386358"><ele>299.5</ele><time>2026-04-11T07:38:58.455Z</time></trkpt><trkpt lat="43.7675819" lon="12.6388377"><ele>299.25</ele><time>2026-04-11T07:38:59.455Z</time></trkpt><trkpt lat="43.7675873" lon="12.6390237"><ele>299.0</ele><time>2026-04-11T07:39:00.455Z</time></trkpt><trkpt lat="43.7675653" lon="12.6392021"><ele>299.0</ele><time>2026-04-11T07:39:01.455Z</time></trkpt><trkpt lat="43.767538" lon="12.6393633"><ele>299.0</ele><time>2026-04-11T07:39:02.455Z</time></trkpt><trkpt lat="43.7675034" lon="12.6395033"><ele>299.0</ele><time>2026-04-11T07:39:03.456Z</time></trkpt><trkpt lat="43.7674725" lon="12.6396176"><ele>299.0</ele><time>2026-04-11T07:39:04.456Z</time></trkpt><trkpt lat="43.7674454" lon="12.6397123"><ele>299.0</ele><time>2026-04-11T07:39:05.456Z</time></trkpt><trkpt lat="43.7673854" lon="12.6398694"><ele>299.4</ele><time>2026-04-11T07:39:07.456Z</time></trkpt><trkpt lat="43.7673615" lon="12.6399565"><ele>299.79999999999995</ele><time>2026-04-11T07:39:08.456Z</time></trkpt><trkpt lat="43.7673293" lon="12.6401409"><ele>300.20000000000005</ele><time>2026-04-11T07:39:10.455Z</time></trkpt><trkpt lat="43.7673126" lon="12.640273"><ele>300.6</ele><time>2026-04-11T07:39:11.455Z</time></trkpt><trkpt lat="43.7672925" lon="12.6404452"><ele>301.0</ele><time>2026-04-11T07:39:12.455Z</time></trkpt><trkpt lat="43.7672528" lon="12.6406279"><ele>300.0</ele><time>2026-04-11T07:39:13.455Z</time></trkpt><trkpt lat="43.7672097" lon="12.6408112"><ele>299.0</ele><time>2026-04-11T07:39:14.455Z</time></trkpt><trkpt lat="43.7671569" lon="12.6409886"><ele>298.0</ele><time>2026-04-11T07:39:15.455Z</time></trkpt><trkpt lat="43.7670983" lon="12.6411499"><ele>297.0</ele><time>2026-04-11T07:39:16.455Z</time></trkpt><trkpt lat="43.7670421" lon="12.6412952"><ele>296.6</ele><time>2026-04-11T07:39:17.455Z</time></trkpt><trkpt lat="43.7669845" lon="12.6414196"><ele>296.2</ele><time>2026-04-11T07:39:18.455Z</time></trkpt><trkpt lat="43.7669187" lon="12.6415312"><ele>295.8</ele><time>2026-04-11T07:39:19.456Z</time></trkpt><trkpt lat="43.7668411" lon="12.6416371"><ele>295.4</ele><time>2026-04-11T07:39:20.455Z</time></trkpt><trkpt lat="43.7667539" lon="12.6417077"><ele>295.0</ele><time>2026-04-11T07:39:21.455Z</time></trkpt><trkpt lat="43.7666738" lon="12.6417826"><ele>295.0</ele><time>2026-04-11T07:39:22.455Z</time></trkpt><trkpt lat="43.7666122" lon="12.6418815"><ele>295.0</ele><time>2026-04-11T07:39:23.455Z</time></trkpt><trkpt lat="43.7665621" lon="12.6420078"><ele>295.0</ele><time>2026-04-11T07:39:24.455Z</time></trkpt><trkpt lat="43.7665223" lon="12.6421665"><ele>295.0</ele><time>2026-04-11T07:39:25.456Z</time></trkpt><trkpt lat="43.7664781" lon="12.6423172"><ele>295.0</ele><time>2026-04-11T07:39:26.457Z</time></trkpt><trkpt lat="43.766425" lon="12.6424646"><ele>295.0</ele><time>2026-04-11T07:39:27.455Z</time></trkpt><trkpt lat="43.7663555" lon="12.6426068"><ele>295.0</ele><time>2026-04-11T07:39:28.456Z</time></trkpt><trkpt lat="43.7662677" lon="12.6427324"><ele>295.0</ele><time>2026-04-11T07:39:29.456Z</time></trkpt><trkpt lat="43.7661674" lon="12.6428487"><ele>295.0</ele><time>2026-04-11T07:39:30.456Z</time></trkpt><trkpt lat="43.7660672" lon="12.6429625"><ele>295.8333333333333</ele><time>2026-04-11T07:39:31.456Z</time></trkpt><trkpt lat="43.765988" lon="12.6430713"><ele>296.66666666666663</ele><time>2026-04-11T07:39:32.456Z</time></trkpt><trkpt lat="43.7659262" lon="12.6431594"><ele>297.5</ele><time>2026-04-11T07:39:33.455Z</time></trkpt><trkpt lat="43.7658714" lon="12.6432372"><ele>298.3333333333333</ele><time>2026-04-11T07:39:34.455Z</time></trkpt><trkpt lat="43.7658261" lon="12.6433092"><ele>299.1666666666667</ele><time>2026-04-11T07:39:35.455Z</time></trkpt><trkpt lat="43.7657817" lon="12.6433865"><ele>300.0</ele><time>2026-04-11T07:39:36.456Z</time></trkpt><trkpt lat="43.7657296" lon="12.6434598"><ele>300.0</ele><time>2026-04-11T07:39:37.455Z</time></trkpt><trkpt lat="43.7656814" lon="12.6435489"><ele>300.0</ele><time>2026-04-11T07:39:38.455Z</time></trkpt><trkpt lat="43.765645" lon="12.643659"><ele>300.0</ele><time>2026-04-11T07:39:39.455Z</time></trkpt><trkpt lat="43.7656289" lon="12.6437992"><ele>300.0</ele><time>2026-04-11T07:39:40.455Z</time></trkpt><trkpt lat="43.7656006" lon="12.6439423"><ele>300.0</ele><time>2026-04-11T07:39:41.455Z</time></trkpt><trkpt lat="43.7655629" lon="12.6440732"><ele>300.6</ele><time>2026-04-11T07:39:42.455Z</time></trkpt><trkpt lat="43.7655226" lon="12.6441851"><ele>301.2</ele><time>2026-04-11T07:39:43.456Z</time></trkpt><trkpt lat="43.7654781" lon="12.6442848"><ele>301.8</ele><time>2026-04-11T07:39:44.455Z</time></trkpt><trkpt lat="43.7654243" lon="12.6443845"><ele>302.4</ele><time>2026-04-11T07:39:45.455Z</time></trkpt><trkpt lat="43.7653687" lon="12.6444955"><ele>303.0</ele><time>2026-04-11T07:39:46.455Z</time></trkpt><trkpt lat="43.7653124" lon="12.6446277"><ele>303.0</ele><time>2026-04-11T07:39:47.455Z</time></trkpt><trkpt lat="43.7652658" lon="12.6447838"><ele>303.0</ele><time>2026-04-11T07:39:48.457Z</time></trkpt><trkpt lat="43.7652374" lon="12.6449373"><ele>303.0</ele><time>2026-04-11T07:39:49.455Z</time></trkpt><trkpt lat="43.7652091" lon="12.6450663"><ele>303.0</ele><time>2026-04-11T07:39:50.455Z</time></trkpt><trkpt lat="43.7651941" lon="12.6451925"><ele>303.0</ele><time>2026-04-11T07:39:51.455Z</time></trkpt><trkpt lat="43.7651729" lon="12.6453113"><ele>304.2</ele><time>2026-04-11T07:39:52.455Z</time></trkpt><trkpt lat="43.7651419" lon="12.6454414"><ele>305.4</ele><time>2026-04-11T07:39:53.455Z</time></trkpt><trkpt lat="43.7651039" lon="12.6455854"><ele>306.59999999999997</ele><time>2026-04-11T07:39:54.455Z</time></trkpt><trkpt lat="43.7650479" lon="12.6457254"><ele>307.8</ele><time>2026-04-11T07:39:55.455Z</time></trkpt><trkpt lat="43.7649752" lon="12.6458521"><ele>309.0</ele><time>2026-04-11T07:39:56.456Z</time></trkpt><trkpt lat="43.7648848" lon="12.6459591"><ele>309.0</ele><time>2026-04-11T07:39:57.455Z</time></trkpt><trkpt lat="43.7647788" lon="12.646048"><ele>309.0</ele><time>2026-04-11T07:39:58.456Z</time></trkpt><trkpt lat="43.7646669" lon="12.6461152"><ele>309.0</ele><time>2026-04-11T07:39:59.456Z</time></trkpt><trkpt lat="43.7645516" lon="12.6461686"><ele>309.0</ele><time>2026-04-11T07:40:00.455Z</time></trkpt><trkpt lat="43.7644412" lon="12.6461945"><ele>313.6</ele><time>2026-04-11T07:40:01.455Z</time></trkpt><trkpt lat="43.7643339" lon="12.646216"><ele>318.2</ele><time>2026-04-11T07:40:02.456Z</time></trkpt><trkpt lat="43.7642343" lon="12.6462347"><ele>322.8</ele><time>2026-04-11T07:40:03.455Z</time></trkpt><trkpt lat="43.7641344" lon="12.646265"><ele>327.40000000000003</ele><time>2026-04-11T07:40:04.455Z</time></trkpt><trkpt lat="43.7640137" lon="12.6463188"><ele>332.0</ele><time>2026-04-11T07:40:05.455Z</time></trkpt><trkpt lat="43.7638789" lon="12.6463765"><ele>332.0</ele><time>2026-04-11T07:40:06.455Z</time></trkpt><trkpt lat="43.7637478" lon="12.646432"><ele>332.0</ele><time>2026-04-11T07:40:07.455Z</time></trkpt><trkpt lat="43.7636051" lon="12.6464903"><ele>332.0</ele><time>2026-04-11T07:40:08.457Z</time></trkpt><trkpt lat="43.7634508" lon="12.6465418"><ele>332.0</ele><time>2026-04-11T07:40:09.455Z</time></trkpt><trkpt lat="43.7632962" lon="12.6465734"><ele>336.0</ele><time>2026-04-11T07:40:10.455Z</time></trkpt><trkpt lat="43.7631539" lon="12.6465828"><ele>340.0</ele><time>2026-04-11T07:40:11.456Z</time></trkpt><trkpt lat="43.7630219" lon="12.6465932"><ele>344.0</ele><time>2026-04-11T07:40:12.455Z</time></trkpt><trkpt lat="43.7629222" lon="12.6465771"><ele>348.0</ele><time>2026-04-11T07:40:13.455Z</time></trkpt><trkpt lat="43.762804" lon="12.6465676"><ele>351.0</ele><time>2026-04-11T07:40:14.457Z</time></trkpt><trkpt lat="43.7626762" lon="12.6465467"><ele>354.0</ele><time>2026-04-11T07:40:15.455Z</time></trkpt><trkpt lat="43.7625443" lon="12.6465181"><ele>357.0</ele><time>2026-04-11T07:40:16.455Z</time></trkpt><trkpt lat="43.7623863" lon="12.6464819"><ele>360.0</ele><time>2026-04-11T07:40:17.456Z</time></trkpt><trkpt lat="43.7622132" lon="12.6464118"><ele>360.0</ele><time>2026-04-11T07:40:18.455Z</time></trkpt><trkpt lat="43.7620422" lon="12.6463274"><ele>360.0</ele><time>2026-04-11T07:40:19.455Z</time></trkpt><trkpt lat="43.7618793" lon="12.6462394"><ele>360.0</ele><time>2026-04-11T07:40:20.456Z</time></trkpt><trkpt lat="43.761746" lon="12.6461843"><ele>360.8</ele><time>2026-04-11T07:40:21.455Z</time></trkpt><trkpt lat="43.761639" lon="12.6461146"><ele>361.6</ele><time>2026-04-11T07:40:22.455Z</time></trkpt><trkpt lat="43.7615465" lon="12.6460563"><ele>362.4</ele><time>2026-04-11T07:40:23.455Z</time></trkpt><trkpt lat="43.7614697" lon="12.6460306"><ele>363.2</ele><time>2026-04-11T07:40:24.456Z</time></trkpt><trkpt lat="43.7614055" lon="12.6460378"><ele>364.0</ele><time>2026-04-11T07:40:25.455Z</time></trkpt><trkpt lat="43.7613537" lon="12.6461481"><ele>366.66666666666663</ele><time>2026-04-11T07:40:27.456Z</time></trkpt><trkpt lat="43.7613653" lon="12.6462376"><ele>369.3333333333333</ele><time>2026-04-11T07:40:28.456Z</time></trkpt><trkpt lat="43.7614145" lon="12.6463134"><ele>372.0</ele><time>2026-04-11T07:40:29.455Z</time></trkpt><trkpt lat="43.7615054" lon="12.6463777"><ele>374.6666666666667</ele><time>2026-04-11T07:40:30.455Z</time></trkpt><trkpt lat="43.7615818" lon="12.6464432"><ele>377.33333333333337</ele><time>2026-04-11T07:40:31.455Z</time></trkpt><trkpt lat="43.7616213" lon="12.646525"><ele>380.0</ele><time>2026-04-11T07:40:32.456Z</time></trkpt><trkpt lat="43.7615961" lon="12.6466633"><ele>380.0</ele><time>2026-04-11T07:40:34.455Z</time></trkpt><trkpt lat="43.7614854" lon="12.6467267"><ele>380.0</ele><time>2026-04-11T07:40:36.455Z</time></trkpt><trkpt lat="43.7614133" lon="12.6467496"><ele>380.0</ele><time>2026-04-11T07:40:37.456Z</time></trkpt><trkpt lat="43.7613459" lon="12.6468158"><ele>380.0</ele><time>2026-04-11T07:40:40.455Z</time></trkpt><trkpt lat="43.7613677" lon="12.6469269"><ele>380.0</ele><time>2026-04-11T07:40:42.456Z</time></trkpt><trkpt lat="43.7614085" lon="12.6470173"><ele>380.0</ele><time>2026-04-11T07:40:43.456Z</time></trkpt><trkpt lat="43.7614476" lon="12.6471115"><ele>382.5</ele><time>2026-04-11T07:40:44.455Z</time></trkpt><trkpt lat="43.7614925" lon="12.6472244"><ele>385.0</ele><time>2026-04-11T07:40:45.455Z</time></trkpt><trkpt lat="43.7615438" lon="12.6473518"><ele>387.5</ele><time>2026-04-11T07:40:46.456Z</time></trkpt><trkpt lat="43.7616057" lon="12.6475008"><ele>390.0</ele><time>2026-04-11T07:40:47.455Z</time></trkpt><trkpt lat="43.7616671" lon="12.6476569"><ele>390.0</ele><time>2026-04-11T07:40:48.455Z</time></trkpt><trkpt lat="43.7617204" lon="12.6477986"><ele>390.0</ele><time>2026-04-11T07:40:49.455Z</time></trkpt><trkpt lat="43.76175" lon="12.6479393"><ele>390.0</ele><time>2026-04-11T07:40:50.456Z</time></trkpt><trkpt lat="43.7617561" lon="12.6480963"><ele>390.0</ele><time>2026-04-11T07:40:51.455Z</time></trkpt><trkpt lat="43.7617444" lon="12.6482802"><ele>390.0</ele><time>2026-04-11T07:40:52.456Z</time></trkpt><trkpt lat="43.7617101" lon="12.6484758"><ele>390.0</ele><time>2026-04-11T07:40:53.455Z</time></trkpt><trkpt lat="43.7616436" lon="12.6487079"><ele>390.0</ele><time>2026-04-11T07:40:54.456Z</time></trkpt><trkpt lat="43.7615475" lon="12.6489732"><ele>385.0</ele><time>2026-04-11T07:40:55.455Z</time></trkpt><trkpt lat="43.761443" lon="12.6492584"><ele>380.0</ele><time>2026-04-11T07:40:56.455Z</time></trkpt><trkpt lat="43.7613342" lon="12.6495452"><ele>375.0</ele><time>2026-04-11T07:40:57.457Z</time></trkpt><trkpt lat="43.761236" lon="12.6498089"><ele>370.0</ele><time>2026-04-11T07:40:58.456Z</time></trkpt><trkpt lat="43.7611474" lon="12.6500556"><ele>365.0</ele><time>2026-04-11T07:40:59.456Z</time></trkpt><trkpt lat="43.7610672" lon="12.6502905"><ele>368.6666666666667</ele><time>2026-04-11T07:41:00.455Z</time></trkpt><trkpt lat="43.7610023" lon="12.6505209"><ele>372.3333333333333</ele><time>2026-04-11T07:41:01.457Z</time></trkpt><trkpt lat="43.7609577" lon="12.6507533"><ele>376.0</ele><time>2026-04-11T07:41:02.455Z</time></trkpt><trkpt lat="43.760937" lon="12.6510109"><ele>376.66666666666663</ele><time>2026-04-11T07:41:03.455Z</time></trkpt><trkpt lat="43.7609277" lon="12.6512993"><ele>377.3333333333333</ele><time>2026-04-11T07:41:04.456Z</time></trkpt><trkpt lat="43.7609168" lon="12.651583"><ele>378.0</ele><time>2026-04-11T07:41:05.456Z</time></trkpt><trkpt lat="43.7609109" lon="12.6518496"><ele>376.6666666666667</ele><time>2026-04-11T07:41:06.455Z</time></trkpt><trkpt lat="43.7609133" lon="12.6521098"><ele>375.33333333333337</ele><time>2026-04-11T07:41:07.455Z</time></trkpt><trkpt lat="43.7609288" lon="12.6523497"><ele>374.0</ele><time>2026-04-11T07:41:08.456Z</time></trkpt><trkpt lat="43.7609566" lon="12.6525753"><ele>372.33333333333337</ele><time>2026-04-11T07:41:09.455Z</time></trkpt><trkpt lat="43.7609829" lon="12.6527938"><ele>370.6666666666667</ele><time>2026-04-11T07:41:10.455Z</time></trkpt><trkpt lat="43.7610027" lon="12.6530114"><ele>369.0</ele><time>2026-04-11T07:41:11.456Z</time></trkpt><trkpt lat="43.761008" lon="12.6532282"><ele>369.0</ele><time>2026-04-11T07:41:12.455Z</time></trkpt><trkpt lat="43.7609812" lon="12.6534237"><ele>369.0</ele><time>2026-04-11T07:41:13.455Z</time></trkpt><trkpt lat="43.7609159" lon="12.6536046"><ele>369.0</ele><time>2026-04-11T07:41:14.456Z</time></trkpt><trkpt lat="43.7608114" lon="12.6537742"><ele>370.6666666666667</ele><time>2026-04-11T07:41:15.455Z</time></trkpt><trkpt lat="43.7606824" lon="12.6539478"><ele>372.33333333333337</ele><time>2026-04-11T07:41:16.455Z</time></trkpt><trkpt lat="43.7605631" lon="12.6541178"><ele>374.0</ele><time>2026-04-11T07:41:17.457Z</time></trkpt><trkpt lat="43.760452" lon="12.6542808"><ele>374.0</ele><time>2026-04-11T07:41:18.455Z</time></trkpt><trkpt lat="43.7603558" lon="12.6544383"><ele>374.0</ele><time>2026-04-11T07:41:19.456Z</time></trkpt><trkpt lat="43.7602741" lon="12.6546001"><ele>374.0</ele><time>2026-04-11T07:41:20.455Z</time></trkpt><trkpt lat="43.7602096" lon="12.6547624"><ele>374.0</ele><time>2026-04-11T07:41:21.455Z</time></trkpt><trkpt lat="43.7601555" lon="12.6549105"><ele>372.4</ele><time>2026-04-11T07:41:22.455Z</time></trkpt><trkpt lat="43.7601121" lon="12.6550422"><ele>370.79999999999995</ele><time>2026-04-11T07:41:23.456Z</time></trkpt><trkpt lat="43.7600807" lon="12.6551685"><ele>369.20000000000005</ele><time>2026-04-11T07:41:24.456Z</time></trkpt><trkpt lat="43.7600744" lon="12.6552986"><ele>367.6</ele><time>2026-04-11T07:41:25.455Z</time></trkpt><trkpt lat="43.7600883" lon="12.6554268"><ele>366.0</ele><time>2026-04-11T07:41:26.455Z</time></trkpt><trkpt lat="43.7601141" lon="12.655555"><ele>364.8</ele><time>2026-04-11T07:41:27.456Z</time></trkpt><trkpt lat="43.7601501" lon="12.6556807"><ele>363.6</ele><time>2026-04-11T07:41:28.455Z</time></trkpt><trkpt lat="43.760183" lon="12.6558103"><ele>362.4</ele><time>2026-04-11T07:41:29.455Z</time></trkpt><trkpt lat="43.7602191" lon="12.6559394"><ele>361.2</ele><time>2026-04-11T07:41:30.457Z</time></trkpt><trkpt lat="43.7602559" lon="12.6560611"><ele>360.0</ele><time>2026-04-11T07:41:31.455Z</time></trkpt><trkpt lat="43.760289" lon="12.6561654"><ele>357.8333333333333</ele><time>2026-04-11T07:41:32.455Z</time></trkpt><trkpt lat="43.760325" lon="12.6562487"><ele>355.6666666666667</ele><time>2026-04-11T07:41:33.456Z</time></trkpt><trkpt lat="43.7603656" lon="12.6563213"><ele>353.5</ele><time>2026-04-11T07:41:34.455Z</time></trkpt><trkpt lat="43.7604509" lon="12.6564085"><ele>351.33333333333337</ele><time>2026-04-11T07:41:36.456Z</time></trkpt><trkpt lat="43.7604966" lon="12.6564739"><ele>349.1666666666667</ele><time>2026-04-11T07:41:38.455Z</time></trkpt><trkpt lat="43.7604833" lon="12.6563762"><ele>347.0</ele><time>2026-04-11T07:41:45.455Z</time></trkpt><trkpt lat="43.7604157" lon="12.6563195"><ele>347.0</ele><time>2026-04-11T07:41:46.455Z</time></trkpt><trkpt lat="43.7603531" lon="12.6562194"><ele>347.0</ele><time>2026-04-11T07:41:47.455Z</time></trkpt><trkpt lat="43.7602952" lon="12.6560685"><ele>347.0</ele><time>2026-04-11T07:41:48.455Z</time></trkpt><trkpt lat="43.760229" lon="12.6558748"><ele>347.0</ele><time>2026-04-11T07:41:49.456Z</time></trkpt><trkpt lat="43.7601703" lon="12.655688"><ele>349.40000000000003</ele><time>2026-04-11T07:41:50.455Z</time></trkpt><trkpt lat="43.7601265" lon="12.6555278"><ele>351.8</ele><time>2026-04-11T07:41:51.455Z</time></trkpt><trkpt lat="43.7600983" lon="12.6553814"><ele>354.2</ele><time>2026-04-11T07:41:52.455Z</time></trkpt><trkpt lat="43.760093" lon="12.6552563"><ele>356.6</ele><time>2026-04-11T07:41:53.455Z</time></trkpt><trkpt lat="43.7601106" lon="12.6551573"><ele>359.0</ele><time>2026-04-11T07:41:54.455Z</time></trkpt><trkpt lat="43.7601147" lon="12.6550073"><ele>360.1666666666667</ele><time>2026-04-11T07:41:56.455Z</time></trkpt><trkpt lat="43.760043" lon="12.6549683"><ele>361.33333333333337</ele><time>2026-04-11T07:41:58.455Z</time></trkpt><trkpt lat="43.7599542" lon="12.6549889"><ele>362.5</ele><time>2026-04-11T07:42:00.456Z</time></trkpt><trkpt lat="43.7598397" lon="12.6550371"><ele>363.6666666666667</ele><time>2026-04-11T07:42:02.456Z</time></trkpt><trkpt lat="43.7597746" lon="12.655056"><ele>364.8333333333333</ele><time>2026-04-11T07:42:03.455Z</time></trkpt><trkpt lat="43.7597065" lon="12.655074"><ele>366.0</ele><time>2026-04-11T07:42:04.455Z</time></trkpt><trkpt lat="43.7596423" lon="12.6550949"><ele>366.0</ele><time>2026-04-11T07:42:05.456Z</time></trkpt><trkpt lat="43.7595528" lon="12.6551463"><ele>366.0</ele><time>2026-04-11T07:42:07.456Z</time></trkpt><trkpt lat="43.7594838" lon="12.6552155"><ele>366.0</ele><time>2026-04-11T07:42:09.455Z</time></trkpt><trkpt lat="43.7594019" lon="12.6552701"><ele>366.0</ele><time>2026-04-11T07:42:11.455Z</time></trkpt><trkpt lat="43.7593174" lon="12.6552972"><ele>366.0</ele><time>2026-04-11T07:42:13.457Z</time></trkpt><trkpt lat="43.7592207" lon="12.6552895"><ele>363.6666666666667</ele><time>2026-04-11T07:42:15.457Z</time></trkpt><trkpt lat="43.759104" lon="12.6552748"><ele>361.3333333333333</ele><time>2026-04-11T07:42:17.455Z</time></trkpt><trkpt lat="43.7590373" lon="12.6552693"><ele>359.0</ele><time>2026-04-11T07:42:18.455Z</time></trkpt><trkpt lat="43.758966" lon="12.6552668"><ele>356.66666666666663</ele><time>2026-04-11T07:42:19.455Z</time></trkpt><trkpt lat="43.7588912" lon="12.6552694"><ele>354.3333333333333</ele><time>2026-04-11T07:42:20.455Z</time></trkpt><trkpt lat="43.7588174" lon="12.6552771"><ele>352.0</ele><time>2026-04-11T07:42:21.455Z</time></trkpt><trkpt lat="43.7587443" lon="12.6552935"><ele>350.8571428571429</ele><time>2026-04-11T07:42:22.455Z</time></trkpt><trkpt lat="43.758675" lon="12.6553128"><ele>349.7142857142857</ele><time>2026-04-11T07:42:23.455Z</time></trkpt><trkpt lat="43.7586015" lon="12.6553373"><ele>348.57142857142856</ele><time>2026-04-11T07:42:24.457Z</time></trkpt><trkpt lat="43.7585302" lon="12.6553662"><ele>347.42857142857144</ele><time>2026-04-11T07:42:25.455Z</time></trkpt><trkpt lat="43.7584584" lon="12.6553951"><ele>346.2857142857143</ele><time>2026-04-11T07:42:26.456Z</time></trkpt><trkpt lat="43.7583914" lon="12.6554215"><ele>345.14285714285717</ele><time>2026-04-11T07:42:27.456Z</time></trkpt><trkpt lat="43.7583257" lon="12.6554444"><ele>344.0</ele><time>2026-04-11T07:42:28.455Z</time></trkpt><trkpt lat="43.7582614" lon="12.6554609"><ele>342.2</ele><time>2026-04-11T07:42:29.455Z</time></trkpt><trkpt lat="43.7581397" lon="12.6554794"><ele>340.4</ele><time>2026-04-11T07:42:31.455Z</time></trkpt><trkpt lat="43.7580192" lon="12.6554527"><ele>338.6</ele><time>2026-04-11T07:42:33.456Z</time></trkpt><trkpt lat="43.7579563" lon="12.6554179"><ele>336.8</ele><time>2026-04-11T07:42:34.456Z</time></trkpt><trkpt lat="43.7578915" lon="12.6553663"><ele>335.0</ele><time>2026-04-11T07:42:35.455Z</time></trkpt><trkpt lat="43.7578299" lon="12.6553014"><ele>334.8</ele><time>2026-04-11T07:42:36.455Z</time></trkpt><trkpt lat="43.7577723" lon="12.6552322"><ele>334.6</ele><time>2026-04-11T07:42:37.455Z</time></trkpt><trkpt lat="43.7577148" lon="12.6551781"><ele>334.4</ele><time>2026-04-11T07:42:38.455Z</time></trkpt><trkpt lat="43.7575997" lon="12.6551508"><ele>334.2</ele><time>2026-04-11T07:42:40.455Z</time></trkpt><trkpt lat="43.7575222" lon="12.6552748"><ele>334.0</ele><time>2026-04-11T07:42:42.456Z</time></trkpt><trkpt lat="43.7575106" lon="12.655377"><ele>332.2</ele><time>2026-04-11T07:42:43.455Z</time></trkpt><trkpt lat="43.7574995" lon="12.6554998"><ele>330.4</ele><time>2026-04-11T07:42:44.455Z</time></trkpt><trkpt lat="43.7574742" lon="12.6556305"><ele>328.6</ele><time>2026-04-11T07:42:45.455Z</time></trkpt><trkpt lat="43.7574252" lon="12.655753"><ele>326.8</ele><time>2026-04-11T07:42:46.455Z</time></trkpt><trkpt lat="43.7573664" lon="12.6558598"><ele>325.0</ele><time>2026-04-11T07:42:47.456Z</time></trkpt><trkpt lat="43.7573087" lon="12.655935"><ele>325.0</ele><time>2026-04-11T07:42:48.456Z</time></trkpt><trkpt lat="43.7572571" lon="12.6559995"><ele>325.0</ele><time>2026-04-11T07:42:49.456Z</time></trkpt><trkpt lat="43.757171" lon="12.656106"><ele>325.0</ele><time>2026-04-11T07:42:51.455Z</time></trkpt><trkpt lat="43.7571549" lon="12.6562508"><ele>325.0</ele><time>2026-04-11T07:42:53.455Z</time></trkpt><trkpt lat="43.7572154" lon="12.6564173"><ele>325.0</ele><time>2026-04-11T07:42:55.456Z</time></trkpt><trkpt lat="43.7572515" lon="12.6565174"><ele>322.0</ele><time>2026-04-11T07:42:56.455Z</time></trkpt><trkpt lat="43.7572815" lon="12.6566341"><ele>319.0</ele><time>2026-04-11T07:42:57.456Z</time></trkpt><trkpt lat="43.7573044" lon="12.6567655"><ele>316.0</ele><time>2026-04-11T07:42:58.456Z</time></trkpt><trkpt lat="43.7573168" lon="12.6569031"><ele>313.0</ele><time>2026-04-11T07:42:59.455Z</time></trkpt><trkpt lat="43.7573201" lon="12.6570455"><ele>310.0</ele><time>2026-04-11T07:43:00.455Z</time></trkpt><trkpt lat="43.7573221" lon="12.6571923"><ele>307.0</ele><time>2026-04-11T07:43:01.455Z</time></trkpt><trkpt lat="43.7573246" lon="12.6573338"><ele>304.0</ele><time>2026-04-11T07:43:02.455Z</time></trkpt><trkpt lat="43.7573232" lon="12.6574551"><ele>301.0</ele><time>2026-04-11T07:43:03.457Z</time></trkpt><trkpt lat="43.7573036" lon="12.657556"><ele>298.0</ele><time>2026-04-11T07:43:04.456Z</time></trkpt><trkpt lat="43.7572585" lon="12.6576349"><ele>295.0</ele><time>2026-04-11T07:43:05.455Z</time></trkpt><trkpt lat="43.7571913" lon="12.6576832"><ele>292.0</ele><time>2026-04-11T07:43:06.456Z</time></trkpt><trkpt lat="43.757117" lon="12.6577137"><ele>292.0</ele><time>2026-04-11T07:43:07.455Z</time></trkpt><trkpt lat="43.7570314" lon="12.6577513"><ele>292.0</ele><time>2026-04-11T07:43:08.456Z</time></trkpt><trkpt lat="43.7569424" lon="12.6577906"><ele>292.0</ele><time>2026-04-11T07:43:09.456Z</time></trkpt><trkpt lat="43.7568438" lon="12.6578225"><ele>292.0</ele><time>2026-04-11T07:43:10.455Z</time></trkpt><trkpt lat="43.756748" lon="12.6578448"><ele>292.0</ele><time>2026-04-11T07:43:11.456Z</time></trkpt><trkpt lat="43.7566539" lon="12.6578646"><ele>288.66666666666663</ele><time>2026-04-11T07:43:12.455Z</time></trkpt><trkpt lat="43.7565662" lon="12.6578875"><ele>285.3333333333333</ele><time>2026-04-11T07:43:13.455Z</time></trkpt><trkpt lat="43.7564824" lon="12.6579129"><ele>282.0</ele><time>2026-04-11T07:43:14.457Z</time></trkpt><trkpt lat="43.756396" lon="12.6579436"><ele>278.6666666666667</ele><time>2026-04-11T07:43:15.456Z</time></trkpt><trkpt lat="43.7563093" lon="12.6579754"><ele>275.33333333333337</ele><time>2026-04-11T07:43:16.455Z</time></trkpt><trkpt lat="43.7562229" lon="12.6580081"><ele>272.0</ele><time>2026-04-11T07:43:17.455Z</time></trkpt><trkpt lat="43.7561426" lon="12.6580392"><ele>272.0</ele><time>2026-04-11T07:43:18.455Z</time></trkpt><trkpt lat="43.7560835" lon="12.658076"><ele>272.0</ele><time>2026-04-11T07:43:19.455Z</time></trkpt><trkpt lat="43.7560195" lon="12.6582064"><ele>272.0</ele><time>2026-04-11T07:43:21.456Z</time></trkpt><trkpt lat="43.7560452" lon="12.6583817"><ele>272.0</ele><time>2026-04-11T07:43:23.455Z</time></trkpt><trkpt lat="43.7560753" lon="12.6584885"><ele>272.0</ele><time>2026-04-11T07:43:24.455Z</time></trkpt><trkpt lat="43.7561046" lon="12.6586057"><ele>270.1666666666667</ele><time>2026-04-11T07:43:25.455Z</time></trkpt><trkpt lat="43.7561249" lon="12.658715"><ele>268.33333333333337</ele><time>2026-04-11T07:43:26.455Z</time></trkpt><trkpt lat="43.7561375" lon="12.6588187"><ele>266.5</ele><time>2026-04-11T07:43:27.455Z</time></trkpt><trkpt lat="43.7561268" lon="12.6589142"><ele>264.6666666666667</ele><time>2026-04-11T07:43:28.455Z</time></trkpt><trkpt lat="43.7560916" lon="12.6590059"><ele>262.8333333333333</ele><time>2026-04-11T07:43:29.457Z</time></trkpt><trkpt lat="43.7560419" lon="12.6590881"><ele>261.0</ele><time>2026-04-11T07:43:30.455Z</time></trkpt><trkpt lat="43.7559929" lon="12.659177"><ele>259.5</ele><time>2026-04-11T07:43:31.455Z</time></trkpt><trkpt lat="43.7559425" lon="12.6592751"><ele>258.0</ele><time>2026-04-11T07:43:32.455Z</time></trkpt><trkpt lat="43.7559078" lon="12.6593711"><ele>256.5</ele><time>2026-04-11T07:43:33.456Z</time></trkpt><trkpt lat="43.7558945" lon="12.6594663"><ele>255.0</ele><time>2026-04-11T07:43:34.455Z</time></trkpt><trkpt lat="43.7559109" lon="12.659566"><ele>253.5</ele><time>2026-04-11T07:43:35.456Z</time></trkpt><trkpt lat="43.7559363" lon="12.6596577"><ele>252.0</ele><time>2026-04-11T07:43:36.455Z</time></trkpt><trkpt lat="43.7559165" lon="12.6597757"><ele>252.0</ele><time>2026-04-11T07:43:38.455Z</time></trkpt><trkpt lat="43.7558457" lon="12.6597446"><ele>252.0</ele><time>2026-04-11T07:43:40.456Z</time></trkpt><trkpt lat="43.7557845" lon="12.6596128"><ele>252.0</ele><time>2026-04-11T07:43:42.455Z</time></trkpt><trkpt lat="43.7557549" lon="12.6595128"><ele>252.0</ele><time>2026-04-11T07:43:43.455Z</time></trkpt><trkpt lat="43.7557441" lon="12.6593952"><ele>252.0</ele><time>2026-04-11T07:43:44.456Z</time></trkpt><trkpt lat="43.7557537" lon="12.6592469"><ele>252.0</ele><time>2026-04-11T07:43:45.455Z</time></trkpt><trkpt lat="43.7557531" lon="12.6590971"><ele>252.0</ele><time>2026-04-11T07:43:46.455Z</time></trkpt><trkpt lat="43.75571" lon="12.6589572"><ele>252.0</ele><time>2026-04-11T07:43:47.455Z</time></trkpt><trkpt lat="43.7556495" lon="12.6588362"><ele>252.0</ele><time>2026-04-11T07:43:48.456Z</time></trkpt><trkpt lat="43.755552" lon="12.6587222"><ele>252.0</ele><time>2026-04-11T07:43:49.456Z</time></trkpt><trkpt lat="43.7554485" lon="12.6586353"><ele>252.0</ele><time>2026-04-11T07:43:50.455Z</time></trkpt><trkpt lat="43.7553609" lon="12.6585312"><ele>252.0</ele><time>2026-04-11T07:43:51.456Z</time></trkpt><trkpt lat="43.7552925" lon="12.6584142"><ele>252.0</ele><time>2026-04-11T07:43:52.455Z</time></trkpt><trkpt lat="43.7552357" lon="12.6583063"><ele>252.0</ele><time>2026-04-11T07:43:53.455Z</time></trkpt><trkpt lat="43.7551927" lon="12.6582243"><ele>246.8</ele><time>2026-04-11T07:43:54.455Z</time></trkpt><trkpt lat="43.7550921" lon="12.6581931"><ele>241.6</ele><time>2026-04-11T07:43:56.455Z</time></trkpt><trkpt lat="43.7550809" lon="12.6583407"><ele>236.40000000000003</ele><time>2026-04-11T07:43:58.455Z</time></trkpt><trkpt lat="43.7551056" lon="12.6584603"><ele>231.20000000000002</ele><time>2026-04-11T07:43:59.455Z</time></trkpt><trkpt lat="43.7551279" lon="12.6586219"><ele>226.0</ele><time>2026-04-11T07:44:00.455Z</time></trkpt><trkpt lat="43.7551553" lon="12.6587937"><ele>224.5</ele><time>2026-04-11T07:44:01.455Z</time></trkpt><trkpt lat="43.7551805" lon="12.6589523"><ele>223.0</ele><time>2026-04-11T07:44:02.456Z</time></trkpt><trkpt lat="43.7551964" lon="12.6591303"><ele>221.5</ele><time>2026-04-11T07:44:03.455Z</time></trkpt><trkpt lat="43.7551879" lon="12.6593005"><ele>220.0</ele><time>2026-04-11T07:44:04.455Z</time></trkpt><trkpt lat="43.7551804" lon="12.6594683"><ele>218.0</ele><time>2026-04-11T07:44:05.455Z</time></trkpt><trkpt lat="43.75519" lon="12.659643"><ele>216.0</ele><time>2026-04-11T07:44:06.455Z</time></trkpt><trkpt lat="43.7552079" lon="12.6598203"><ele>214.0</ele><time>2026-04-11T07:44:07.455Z</time></trkpt><trkpt lat="43.7552277" lon="12.6599867"><ele>212.0</ele><time>2026-04-11T07:44:08.454Z</time></trkpt><trkpt lat="43.7552637" lon="12.6601407"><ele>213.5</ele><time>2026-04-11T07:44:09.455Z</time></trkpt><trkpt lat="43.7553054" lon="12.6602928"><ele>215.0</ele><time>2026-04-11T07:44:10.456Z</time></trkpt><trkpt lat="43.7553862" lon="12.6604262"><ele>216.5</ele><time>2026-04-11T07:44:11.457Z</time></trkpt><trkpt lat="43.7554458" lon="12.6605618"><ele>218.0</ele><time>2026-04-11T07:44:12.455Z</time></trkpt><trkpt lat="43.7554984" lon="12.660676"><ele>218.00000000000003</ele><time>2026-04-11T07:44:13.456Z</time></trkpt><trkpt lat="43.7555492" lon="12.6607779"><ele>218.0</ele><time>2026-04-11T07:44:14.455Z</time></trkpt><trkpt lat="43.7555839" lon="12.660862"><ele>218.0</ele><time>2026-04-11T07:44:15.455Z</time></trkpt><trkpt lat="43.7555949" lon="12.6609505"><ele>218.0</ele><time>2026-04-11T07:44:16.457Z</time></trkpt><trkpt lat="43.7555203" lon="12.6610114"><ele>218.00000000000003</ele><time>2026-04-11T07:44:18.456Z</time></trkpt><trkpt lat="43.7554598" lon="12.6609688"><ele>218.0</ele><time>2026-04-11T07:44:19.455Z</time></trkpt><trkpt lat="43.7553959" lon="12.6609045"><ele>218.00000000000003</ele><time>2026-04-11T07:44:20.455Z</time></trkpt><trkpt lat="43.7553171" lon="12.6607773"><ele>218.0</ele><time>2026-04-11T07:44:21.455Z</time></trkpt><trkpt lat="43.7552588" lon="12.6607225"><ele>218.0</ele><time>2026-04-11T07:44:22.455Z</time></trkpt><trkpt lat="43.7552022" lon="12.6606659"><ele>218.0</ele><time>2026-04-11T07:44:23.456Z</time></trkpt><trkpt lat="43.755153" lon="12.6607278"><ele>218.00000000000003</ele><time>2026-04-11T07:44:24.455Z</time></trkpt><trkpt lat="43.7551387" lon="12.6608599"><ele>218.0</ele><time>2026-04-11T07:44:26.455Z</time></trkpt><trkpt lat="43.7551751" lon="12.6609492"><ele>218.00000000000003</ele><time>2026-04-11T07:44:27.456Z</time></trkpt><trkpt lat="43.7552109" lon="12.6610552"><ele>218.0</ele><time>2026-04-11T07:44:28.455Z</time></trkpt><trkpt lat="43.7552352" lon="12.6611713"><ele>218.0</ele><time>2026-04-11T07:44:29.456Z</time></trkpt><trkpt lat="43.7552429" lon="12.6612782"><ele>218.0</ele><time>2026-04-11T07:44:30.455Z</time></trkpt><trkpt lat="43.7552254" lon="12.6613874"><ele>218.00000000000003</ele><time>2026-04-11T07:44:31.455Z</time></trkpt><trkpt lat="43.7551769" lon="12.6614991"><ele>218.0</ele><time>2026-04-11T07:44:32.455Z</time></trkpt><trkpt lat="43.7551469" lon="12.6616168"><ele>214.2</ele><time>2026-04-11T07:44:33.455Z</time></trkpt><trkpt lat="43.7551354" lon="12.6617524"><ele>210.4</ele><time>2026-04-11T07:44:34.455Z</time></trkpt><trkpt lat="43.7551354" lon="12.6618978"><ele>206.6</ele><time>2026-04-11T07:44:35.456Z</time></trkpt><trkpt lat="43.75514" lon="12.6620532"><ele>202.79999999999998</ele><time>2026-04-11T07:44:36.456Z</time></trkpt><trkpt lat="43.755151" lon="12.6622245"><ele>199.0</ele><time>2026-04-11T07:44:37.455Z</time></trkpt><trkpt lat="43.7551628" lon="12.6624042"><ele>199.0</ele><time>2026-04-11T07:44:38.455Z</time></trkpt><trkpt lat="43.7551927" lon="12.6626141"><ele>199.0</ele><time>2026-04-11T07:44:39.455Z</time></trkpt><trkpt lat="43.7552328" lon="12.6628212"><ele>199.0</ele><time>2026-04-11T07:44:40.455Z</time></trkpt><trkpt lat="43.7552748" lon="12.6629871"><ele>199.0</ele><time>2026-04-11T07:44:41.455Z</time></trkpt><trkpt lat="43.7553163" lon="12.6631267"><ele>198.16666666666666</ele><time>2026-04-11T07:44:42.455Z</time></trkpt><trkpt lat="43.7553468" lon="12.6632431"><ele>197.33333333333331</ele><time>2026-04-11T07:44:43.455Z</time></trkpt><trkpt lat="43.7553587" lon="12.6633457"><ele>196.5</ele><time>2026-04-11T07:44:44.455Z</time></trkpt><trkpt lat="43.7553582" lon="12.6634567"><ele>195.66666666666669</ele><time>2026-04-11T07:44:45.455Z</time></trkpt><trkpt lat="43.7553582" lon="12.6635774"><ele>194.83333333333334</ele><time>2026-04-11T07:44:46.455Z</time></trkpt><trkpt lat="43.7553576" lon="12.6637187"><ele>194.0</ele><time>2026-04-11T07:44:47.455Z</time></trkpt><trkpt lat="43.755353" lon="12.6638725"><ele>193.0</ele><time>2026-04-11T07:44:48.456Z</time></trkpt><trkpt lat="43.7553493" lon="12.6640194"><ele>192.0</ele><time>2026-04-11T07:44:49.456Z</time></trkpt><trkpt lat="43.7553508" lon="12.6641553"><ele>191.0</ele><time>2026-04-11T07:44:50.455Z</time></trkpt><trkpt lat="43.755356" lon="12.664283"><ele>190.0</ele><time>2026-04-11T07:44:51.456Z</time></trkpt><trkpt lat="43.7553643" lon="12.6644015"><ele>189.0</ele><time>2026-04-11T07:44:52.455Z</time></trkpt><trkpt lat="43.7553793" lon="12.6645172"><ele>188.66666666666666</ele><time>2026-04-11T07:44:53.455Z</time></trkpt><trkpt lat="43.7553998" lon="12.6646296"><ele>188.33333333333334</ele><time>2026-04-11T07:44:54.455Z</time></trkpt><trkpt lat="43.7554155" lon="12.6647396"><ele>188.0</ele><time>2026-04-11T07:44:55.457Z</time></trkpt><trkpt lat="43.7554229" lon="12.6648511"><ele>187.66666666666669</ele><time>2026-04-11T07:44:56.456Z</time></trkpt><trkpt lat="43.7554251" lon="12.6649602"><ele>187.33333333333334</ele><time>2026-04-11T07:44:57.455Z</time></trkpt><trkpt lat="43.7554198" lon="12.6650669"><ele>187.0</ele><time>2026-04-11T07:44:58.455Z</time></trkpt><trkpt lat="43.7554131" lon="12.6651614"><ele>187.16666666666669</ele><time>2026-04-11T07:44:59.455Z</time></trkpt><trkpt lat="43.7553927" lon="12.665311"><ele>187.33333333333334</ele><time>2026-04-11T07:45:01.455Z</time></trkpt><trkpt lat="43.7553779" lon="12.6654029"><ele>187.5</ele><time>2026-04-11T07:45:03.455Z</time></trkpt><trkpt lat="43.7554455" lon="12.6654889"><ele>187.66666666666666</ele><time>2026-04-11T07:45:08.455Z</time></trkpt><trkpt lat="43.7555097" lon="12.6655435"><ele>187.83333333333331</ele><time>2026-04-11T07:45:10.456Z</time></trkpt><trkpt lat="43.7554597" lon="12.6654483"><ele>188.0</ele><time>2026-04-11T07:45:18.455Z</time></trkpt><trkpt lat="43.7553949" lon="12.6654548"><ele>188.0</ele><time>2026-04-11T07:45:19.455Z</time></trkpt><trkpt lat="43.7553236" lon="12.6654612"><ele>188.0</ele><time>2026-04-11T07:45:20.456Z</time></trkpt><trkpt lat="43.7552422" lon="12.6654619"><ele>188.0</ele><time>2026-04-11T07:45:21.456Z</time></trkpt><trkpt lat="43.7551663" lon="12.6654513"><ele>188.0</ele><time>2026-04-11T07:45:22.455Z</time></trkpt><trkpt lat="43.7550938" lon="12.6654264"><ele>188.0</ele><time>2026-04-11T07:45:23.456Z</time></trkpt><trkpt lat="43.7550301" lon="12.6653835"><ele>188.0</ele><time>2026-04-11T07:45:24.457Z</time></trkpt><trkpt lat="43.7549739" lon="12.6653229"><ele>188.0</ele><time>2026-04-11T07:45:25.455Z</time></trkpt><trkpt lat="43.7549304" lon="12.6652507"><ele>188.60000000000002</ele><time>2026-04-11T07:45:26.455Z</time></trkpt><trkpt lat="43.7548697" lon="12.6651337"><ele>189.20000000000002</ele><time>2026-04-11T07:45:28.455Z</time></trkpt><trkpt lat="43.7548165" lon="12.665234"><ele>189.8</ele><time>2026-04-11T07:45:34.455Z</time></trkpt><trkpt lat="43.7548328" lon="12.6653455"><ele>190.4</ele><time>2026-04-11T07:45:35.456Z</time></trkpt><trkpt lat="43.7548781" lon="12.6654761"><ele>191.0</ele><time>2026-04-11T07:45:36.455Z</time></trkpt><trkpt lat="43.754944" lon="12.6656479"><ele>188.75</ele><time>2026-04-11T07:45:37.456Z</time></trkpt><trkpt lat="43.7550225" lon="12.6658282"><ele>186.5</ele><time>2026-04-11T07:45:38.455Z</time></trkpt><trkpt lat="43.7551092" lon="12.665981"><ele>184.25</ele><time>2026-04-11T07:45:39.455Z</time></trkpt><trkpt lat="43.7552058" lon="12.6661195"><ele>182.0</ele><time>2026-04-11T07:45:40.456Z</time></trkpt><trkpt lat="43.7553226" lon="12.6662449"><ele>181.33333333333331</ele><time>2026-04-11T07:45:41.455Z</time></trkpt><trkpt lat="43.7554661" lon="12.666355"><ele>180.66666666666666</ele><time>2026-04-11T07:45:42.455Z</time></trkpt><trkpt lat="43.7556163" lon="12.6664465"><ele>180.0</ele><time>2026-04-11T07:45:43.456Z</time></trkpt><trkpt lat="43.7557586" lon="12.6665206"><ele>180.0</ele><time>2026-04-11T07:45:44.455Z</time></trkpt><trkpt lat="43.7558974" lon="12.6665853"><ele>180.0</ele><time>2026-04-11T07:45:45.455Z</time></trkpt><trkpt lat="43.7560296" lon="12.6666401"><ele>180.0</ele><time>2026-04-11T07:45:46.455Z</time></trkpt><trkpt lat="43.7561579" lon="12.6666841"><ele>180.0</ele><time>2026-04-11T07:45:47.455Z</time></trkpt><trkpt lat="43.756277" lon="12.6667245"><ele>180.0</ele><time>2026-04-11T07:45:48.457Z</time></trkpt><trkpt lat="43.7563833" lon="12.6667587"><ele>180.0</ele><time>2026-04-11T07:45:49.455Z</time></trkpt><trkpt lat="43.7564798" lon="12.6667824"><ele>180.0</ele><time>2026-04-11T07:45:50.455Z</time></trkpt><trkpt lat="43.7565631" lon="12.666809"><ele>180.0</ele><time>2026-04-11T07:45:51.455Z</time></trkpt><trkpt lat="43.75662" lon="12.6668648"><ele>180.0</ele><time>2026-04-11T07:45:52.456Z</time></trkpt><trkpt lat="43.7566507" lon="12.6669417"><ele>180.0</ele><time>2026-04-11T07:45:53.455Z</time></trkpt><trkpt lat="43.7566214" lon="12.6671115"><ele>180.0</ele><time>2026-04-11T07:45:55.455Z</time></trkpt><trkpt lat="43.7565657" lon="12.6671762"><ele>180.0</ele><time>2026-04-11T07:45:56.456Z</time></trkpt><trkpt lat="43.756489" lon="12.6672398"><ele>180.0</ele><time>2026-04-11T07:45:57.455Z</time></trkpt><trkpt lat="43.7563982" lon="12.6673119"><ele>180.0</ele><time>2026-04-11T07:45:58.456Z</time></trkpt><trkpt lat="43.7562934" lon="12.6673738"><ele>180.0</ele><time>2026-04-11T07:45:59.455Z</time></trkpt><trkpt lat="43.756169" lon="12.6674102"><ele>179.5</ele><time>2026-04-11T07:46:00.455Z</time></trkpt><trkpt lat="43.7560324" lon="12.6674098"><ele>179.0</ele><time>2026-04-11T07:46:01.455Z</time></trkpt><trkpt lat="43.7558955" lon="12.6673823"><ele>178.5</ele><time>2026-04-11T07:46:02.455Z</time></trkpt><trkpt lat="43.7557718" lon="12.6673542"><ele>178.0</ele><time>2026-04-11T07:46:03.455Z</time></trkpt><trkpt lat="43.7556528" lon="12.6673313"><ele>178.0</ele><time>2026-04-11T07:46:04.455Z</time></trkpt><trkpt lat="43.7555306" lon="12.6673108"><ele>178.0</ele><time>2026-04-11T07:46:05.455Z</time></trkpt><trkpt lat="43.7554034" lon="12.6672908"><ele>178.0</ele><time>2026-04-11T07:46:06.455Z</time></trkpt><trkpt lat="43.7552719" lon="12.6672748"><ele>178.0</ele><time>2026-04-11T07:46:07.455Z</time></trkpt><trkpt lat="43.7551528" lon="12.6672503"><ele>178.0</ele><time>2026-04-11T07:46:08.456Z</time></trkpt><trkpt lat="43.7550498" lon="12.6672221"><ele>178.0</ele><time>2026-04-11T07:46:09.455Z</time></trkpt><trkpt lat="43.754965" lon="12.6671875"><ele>178.0</ele><time>2026-04-11T07:46:10.455Z</time></trkpt><trkpt lat="43.7549011" lon="12.6671542"><ele>178.0</ele><time>2026-04-11T07:46:11.455Z</time></trkpt><trkpt lat="43.7548127" lon="12.6671263"><ele>178.0</ele><time>2026-04-11T07:46:13.455Z</time></trkpt><trkpt lat="43.7547176" lon="12.6671726"><ele>178.0</ele><time>2026-04-11T07:46:15.456Z</time></trkpt><trkpt lat="43.7546637" lon="12.6672377"><ele>178.0</ele><time>2026-04-11T07:46:16.454Z</time></trkpt><trkpt lat="43.754612" lon="12.6673304"><ele>178.0</ele><time>2026-04-11T07:46:17.454Z</time></trkpt><trkpt lat="43.7545604" lon="12.6674337"><ele>178.0</ele><time>2026-04-11T07:46:18.455Z</time></trkpt><trkpt lat="43.7545059" lon="12.6675413"><ele>178.0</ele><time>2026-04-11T07:46:19.454Z</time></trkpt><trkpt lat="43.754446" lon="12.6676425"><ele>178.0</ele><time>2026-04-11T07:46:20.455Z</time></trkpt><trkpt lat="43.7543899" lon="12.6677467"><ele>178.2</ele><time>2026-04-11T07:46:21.455Z</time></trkpt><trkpt lat="43.7543415" lon="12.6678528"><ele>178.4</ele><time>2026-04-11T07:46:22.455Z</time></trkpt><trkpt lat="43.7543106" lon="12.6679772"><ele>178.6</ele><time>2026-04-11T07:46:23.455Z</time></trkpt><trkpt lat="43.754284" lon="12.6681306"><ele>178.79999999999998</ele><time>2026-04-11T07:46:24.454Z</time></trkpt><trkpt lat="43.7542643" lon="12.6683093"><ele>179.0</ele><time>2026-04-11T07:46:25.454Z</time></trkpt><trkpt lat="43.7542299" lon="12.6684571"><ele>179.0</ele><time>2026-04-11T07:46:26.455Z</time></trkpt><trkpt lat="43.754172" lon="12.668574"><ele>179.0</ele><time>2026-04-11T07:46:27.455Z</time></trkpt><trkpt lat="43.754094" lon="12.6686516"><ele>179.0</ele><time>2026-04-11T07:46:28.455Z</time></trkpt><trkpt lat="43.753997" lon="12.6686873"><ele>179.0</ele><time>2026-04-11T07:46:29.454Z</time></trkpt><trkpt lat="43.7538979" lon="12.6686793"><ele>179.0</ele><time>2026-04-11T07:46:30.454Z</time></trkpt><trkpt lat="43.7538045" lon="12.6686168"><ele>179.0</ele><time>2026-04-11T07:46:31.454Z</time></trkpt><trkpt lat="43.7537209" lon="12.6685277"><ele>179.0</ele><time>2026-04-11T07:46:32.454Z</time></trkpt><trkpt lat="43.7536439" lon="12.6684593"><ele>179.0</ele><time>2026-04-11T07:46:33.454Z</time></trkpt><trkpt lat="43.7535639" lon="12.6684397"><ele>179.0</ele><time>2026-04-11T07:46:34.454Z</time></trkpt><trkpt lat="43.753488" lon="12.6684752"><ele>179.0</ele><time>2026-04-11T07:46:35.454Z</time></trkpt><trkpt lat="43.7534132" lon="12.668567"><ele>180.0</ele><time>2026-04-11T07:46:36.454Z</time></trkpt><trkpt lat="43.7533325" lon="12.6687179"><ele>181.0</ele><time>2026-04-11T07:46:37.454Z</time></trkpt><trkpt lat="43.7532554" lon="12.6688487"><ele>182.0</ele><time>2026-04-11T07:46:38.454Z</time></trkpt><trkpt lat="43.7531909" lon="12.6689555"><ele>183.0</ele><time>2026-04-11T07:46:39.454Z</time></trkpt><trkpt lat="43.7531369" lon="12.6690543"><ele>184.0</ele><time>2026-04-11T07:46:40.454Z</time></trkpt><trkpt lat="43.7531191" lon="12.6691515"><ele>184.0</ele><time>2026-04-11T07:46:41.455Z</time></trkpt><trkpt lat="43.753176" lon="12.6692709"><ele>184.0</ele><time>2026-04-11T07:46:43.454Z</time></trkpt><trkpt lat="43.7533126" lon="12.6692111"><ele>184.0</ele><time>2026-04-11T07:46:45.455Z</time></trkpt><trkpt lat="43.7533896" lon="12.6691384"><ele>184.0</ele><time>2026-04-11T07:46:46.455Z</time></trkpt><trkpt lat="43.7534705" lon="12.6690985"><ele>184.0</ele><time>2026-04-11T07:46:47.454Z</time></trkpt><trkpt lat="43.7535665" lon="12.66909"><ele>183.79999999999998</ele><time>2026-04-11T07:46:48.455Z</time></trkpt><trkpt lat="43.7536546" lon="12.6691188"><ele>183.6</ele><time>2026-04-11T07:46:49.454Z</time></trkpt><trkpt lat="43.7537315" lon="12.6691869"><ele>183.4</ele><time>2026-04-11T07:46:50.455Z</time></trkpt><trkpt lat="43.753801" lon="12.6692961"><ele>183.2</ele><time>2026-04-11T07:46:51.454Z</time></trkpt><trkpt lat="43.75387" lon="12.6694181"><ele>183.0</ele><time>2026-04-11T07:46:52.454Z</time></trkpt><trkpt lat="43.7539356" lon="12.6695421"><ele>184.60000000000002</ele><time>2026-04-11T07:46:53.454Z</time></trkpt><trkpt lat="43.7539838" lon="12.6696686"><ele>186.20000000000002</ele><time>2026-04-11T07:46:54.454Z</time></trkpt><trkpt lat="43.7540066" lon="12.6697945"><ele>187.8</ele><time>2026-04-11T07:46:55.454Z</time></trkpt><trkpt lat="43.7540048" lon="12.6699327"><ele>189.4</ele><time>2026-04-11T07:46:56.454Z</time></trkpt><trkpt lat="43.7539762" lon="12.6700803"><ele>191.0</ele><time>2026-04-11T07:46:57.454Z</time></trkpt><trkpt lat="43.75392" lon="12.6702376"><ele>191.0</ele><time>2026-04-11T07:46:58.454Z</time></trkpt><trkpt lat="43.7538496" lon="12.6703926"><ele>191.0</ele><time>2026-04-11T07:46:59.454Z</time></trkpt><trkpt lat="43.753792" lon="12.6705646"><ele>191.0</ele><time>2026-04-11T07:47:00.454Z</time></trkpt><trkpt lat="43.7537669" lon="12.6707293"><ele>191.0</ele><time>2026-04-11T07:47:01.456Z</time></trkpt><trkpt lat="43.7537613" lon="12.6708795"><ele>191.0</ele><time>2026-04-11T07:47:02.454Z</time></trkpt><trkpt lat="43.7537668" lon="12.6710074"><ele>191.0</ele><time>2026-04-11T07:47:03.454Z</time></trkpt><trkpt lat="43.7537635" lon="12.6711004"><ele>191.0</ele><time>2026-04-11T07:47:04.455Z</time></trkpt><trkpt lat="43.7537147" lon="12.6711822"><ele>191.0</ele><time>2026-04-11T07:47:06.454Z</time></trkpt><trkpt lat="43.7536582" lon="12.6710465"><ele>191.0</ele><time>2026-04-11T07:47:09.454Z</time></trkpt><trkpt lat="43.7536311" lon="12.6709294"><ele>191.0</ele><time>2026-04-11T07:47:10.455Z</time></trkpt><trkpt lat="43.7536071" lon="12.6707932"><ele>191.0</ele><time>2026-04-11T07:47:11.455Z</time></trkpt><trkpt lat="43.7535913" lon="12.670644"><ele>191.0</ele><time>2026-04-11T07:47:12.454Z</time></trkpt><trkpt lat="43.7535943" lon="12.670467"><ele>191.0</ele><time>2026-04-11T07:47:13.454Z</time></trkpt><trkpt lat="43.7536278" lon="12.6703077"><ele>191.0</ele><time>2026-04-11T07:47:14.455Z</time></trkpt><trkpt lat="43.7536806" lon="12.6701822"><ele>191.0</ele><time>2026-04-11T07:47:15.454Z</time></trkpt><trkpt lat="43.7537284" lon="12.6700741"><ele>191.0</ele><time>2026-04-11T07:47:16.454Z</time></trkpt><trkpt lat="43.753746" lon="12.6699807"><ele>191.0</ele><time>2026-04-11T07:47:17.454Z</time></trkpt><trkpt lat="43.7536867" lon="12.6698831"><ele>191.0</ele><time>2026-04-11T07:47:19.454Z</time></trkpt><trkpt lat="43.7535595" lon="12.6699582"><ele>191.0</ele><time>2026-04-11T07:47:21.455Z</time></trkpt><trkpt lat="43.7534776" lon="12.6700306"><ele>193.25</ele><time>2026-04-11T07:47:22.454Z</time></trkpt><trkpt lat="43.7533823" lon="12.6701099"><ele>195.5</ele><time>2026-04-11T07:47:23.454Z</time></trkpt><trkpt lat="43.7532565" lon="12.6701838"><ele>197.75</ele><time>2026-04-11T07:47:24.454Z</time></trkpt><trkpt lat="43.7531053" lon="12.6702443"><ele>200.0</ele><time>2026-04-11T07:47:25.455Z</time></trkpt><trkpt lat="43.7529418" lon="12.6703162"><ele>203.25</ele><time>2026-04-11T07:47:26.455Z</time></trkpt><trkpt lat="43.7528078" lon="12.6703759"><ele>206.5</ele><time>2026-04-11T07:47:27.454Z</time></trkpt><trkpt lat="43.7526845" lon="12.6704366"><ele>209.75</ele><time>2026-04-11T07:47:28.454Z</time></trkpt><trkpt lat="43.7525662" lon="12.670488"><ele>213.0</ele><time>2026-04-11T07:47:29.454Z</time></trkpt><trkpt lat="43.7524643" lon="12.6705389"><ele>215.5</ele><time>2026-04-11T07:47:30.454Z</time></trkpt><trkpt lat="43.7523809" lon="12.6706013"><ele>218.0</ele><time>2026-04-11T07:47:31.455Z</time></trkpt><trkpt lat="43.7523082" lon="12.6707075"><ele>220.5</ele><time>2026-04-11T07:47:32.455Z</time></trkpt><trkpt lat="43.7522262" lon="12.6708466"><ele>223.0</ele><time>2026-04-11T07:47:33.454Z</time></trkpt><trkpt lat="43.7521375" lon="12.6710063"><ele>224.75</ele><time>2026-04-11T07:47:34.454Z</time></trkpt><trkpt lat="43.752044" lon="12.671142"><ele>226.5</ele><time>2026-04-11T07:47:35.454Z</time></trkpt><trkpt lat="43.7519241" lon="12.6712657"><ele>228.25</ele><time>2026-04-11T07:47:36.454Z</time></trkpt><trkpt lat="43.7517878" lon="12.6713675"><ele>230.0</ele><time>2026-04-11T07:47:37.454Z</time></trkpt><trkpt lat="43.7516744" lon="12.6714586"><ele>230.00000000000003</ele><time>2026-04-11T07:47:38.454Z</time></trkpt><trkpt lat="43.7515756" lon="12.6715386"><ele>230.0</ele><time>2026-04-11T07:47:39.454Z</time></trkpt><trkpt lat="43.7514893" lon="12.6716009"><ele>230.0</ele><time>2026-04-11T07:47:40.456Z</time></trkpt><trkpt lat="43.751409" lon="12.6716479"><ele>230.0</ele><time>2026-04-11T07:47:41.454Z</time></trkpt><trkpt lat="43.7513404" lon="12.6716969"><ele>230.00000000000003</ele><time>2026-04-11T07:47:42.455Z</time></trkpt><trkpt lat="43.7512915" lon="12.671764"><ele>230.0</ele><time>2026-04-11T07:47:43.454Z</time></trkpt><trkpt lat="43.7512956" lon="12.6719159"><ele>230.0</ele><time>2026-04-11T07:47:45.455Z</time></trkpt><trkpt lat="43.7514154" lon="12.6719645"><ele>230.0</ele><time>2026-04-11T07:47:47.456Z</time></trkpt><trkpt lat="43.7515201" lon="12.6719384"><ele>230.0</ele><time>2026-04-11T07:47:48.454Z</time></trkpt><trkpt lat="43.7516559" lon="12.6718855"><ele>230.0</ele><time>2026-04-11T07:47:49.455Z</time></trkpt><trkpt lat="43.7518049" lon="12.6718256"><ele>231.0</ele><time>2026-04-11T07:47:50.455Z</time></trkpt><trkpt lat="43.7519464" lon="12.6717688"><ele>232.0</ele><time>2026-04-11T07:47:51.455Z</time></trkpt><trkpt lat="43.7520733" lon="12.6717276"><ele>233.0</ele><time>2026-04-11T07:47:52.454Z</time></trkpt><trkpt lat="43.7521889" lon="12.6717077"><ele>234.0</ele><time>2026-04-11T07:47:53.456Z</time></trkpt><trkpt lat="43.7522874" lon="12.6717167"><ele>234.0</ele><time>2026-04-11T07:47:54.454Z</time></trkpt><trkpt lat="43.7523727" lon="12.67177"><ele>233.99999999999997</ele><time>2026-04-11T07:47:55.454Z</time></trkpt><trkpt lat="43.7524391" lon="12.6718658"><ele>233.99999999999997</ele><time>2026-04-11T07:47:56.454Z</time></trkpt><trkpt lat="43.752491" lon="12.6720159"><ele>234.0</ele><time>2026-04-11T07:47:57.454Z</time></trkpt><trkpt lat="43.7525146" lon="12.6721709"><ele>234.0</ele><time>2026-04-11T07:47:58.456Z</time></trkpt><trkpt lat="43.7525015" lon="12.6723225"><ele>236.75</ele><time>2026-04-11T07:47:59.454Z</time></trkpt><trkpt lat="43.7524491" lon="12.6724897"><ele>239.5</ele><time>2026-04-11T07:48:00.454Z</time></trkpt><trkpt lat="43.7523677" lon="12.6726646"><ele>242.25</ele><time>2026-04-11T07:48:01.455Z</time></trkpt><trkpt lat="43.7523057" lon="12.6728009"><ele>245.0</ele><time>2026-04-11T07:48:02.455Z</time></trkpt><trkpt lat="43.7522534" lon="12.6729387"><ele>246.75</ele><time>2026-04-11T07:48:03.455Z</time></trkpt><trkpt lat="43.7522221" lon="12.6730819"><ele>248.5</ele><time>2026-04-11T07:48:04.454Z</time></trkpt><trkpt lat="43.752222" lon="12.6732454"><ele>250.25</ele><time>2026-04-11T07:48:05.454Z</time></trkpt><trkpt lat="43.7522508" lon="12.6734322"><ele>252.0</ele><time>2026-04-11T07:48:06.455Z</time></trkpt><trkpt lat="43.7522989" lon="12.6736414"><ele>253.75</ele><time>2026-04-11T07:48:07.454Z</time></trkpt><trkpt lat="43.7523424" lon="12.6738425"><ele>255.5</ele><time>2026-04-11T07:48:08.454Z</time></trkpt><trkpt lat="43.7523746" lon="12.6740101"><ele>257.25</ele><time>2026-04-11T07:48:09.454Z</time></trkpt><trkpt lat="43.7523932" lon="12.6741676"><ele>259.0</ele><time>2026-04-11T07:48:10.454Z</time></trkpt><trkpt lat="43.7524046" lon="12.6743394"><ele>261.66666666666663</ele><time>2026-04-11T07:48:11.455Z</time></trkpt><trkpt lat="43.7524083" lon="12.6745377"><ele>264.3333333333333</ele><time>2026-04-11T07:48:12.455Z</time></trkpt><trkpt lat="43.7524124" lon="12.6747616"><ele>267.0</ele><time>2026-04-11T07:48:13.454Z</time></trkpt><trkpt lat="43.7524138" lon="12.6749839"><ele>267.0</ele><time>2026-04-11T07:48:14.454Z</time></trkpt><trkpt lat="43.7524125" lon="12.6752371"><ele>267.0</ele><time>2026-04-11T07:48:15.454Z</time></trkpt><trkpt lat="43.7524094" lon="12.6755052"><ele>267.0</ele><time>2026-04-11T07:48:16.454Z</time></trkpt><trkpt lat="43.7524016" lon="12.6757824"><ele>269.6666666666667</ele><time>2026-04-11T07:48:17.454Z</time></trkpt><trkpt lat="43.7524006" lon="12.6760643"><ele>272.33333333333337</ele><time>2026-04-11T07:48:18.454Z</time></trkpt><trkpt lat="43.7524079" lon="12.6763179"><ele>275.0</ele><time>2026-04-11T07:48:19.455Z</time></trkpt><trkpt lat="43.7524124" lon="12.6765427"><ele>276.0</ele><time>2026-04-11T07:48:20.454Z</time></trkpt><trkpt lat="43.7524151" lon="12.6767538"><ele>277.0</ele><time>2026-04-11T07:48:21.454Z</time></trkpt><trkpt lat="43.7524109" lon="12.6769554"><ele>278.0</ele><time>2026-04-11T07:48:22.454Z</time></trkpt><trkpt lat="43.7523992" lon="12.6771354"><ele>279.0</ele><time>2026-04-11T07:48:23.454Z</time></trkpt><trkpt lat="43.7523803" lon="12.6773152"><ele>279.5</ele><time>2026-04-11T07:48:24.454Z</time></trkpt><trkpt lat="43.7523532" lon="12.6775013"><ele>280.0</ele><time>2026-04-11T07:48:25.454Z</time></trkpt><trkpt lat="43.7523235" lon="12.6776984"><ele>280.5</ele><time>2026-04-11T07:48:26.456Z</time></trkpt><trkpt lat="43.7522963" lon="12.6779067"><ele>281.0</ele><time>2026-04-11T07:48:27.455Z</time></trkpt><trkpt lat="43.7522672" lon="12.6781156"><ele>281.33333333333337</ele><time>2026-04-11T07:48:28.454Z</time></trkpt><trkpt lat="43.752239" lon="12.6783319"><ele>281.6666666666667</ele><time>2026-04-11T07:48:29.454Z</time></trkpt><trkpt lat="43.7522115" lon="12.6785467"><ele>282.0</ele><time>2026-04-11T07:48:30.455Z</time></trkpt><trkpt lat="43.7521858" lon="12.6787473"><ele>281.5</ele><time>2026-04-11T07:48:31.455Z</time></trkpt><trkpt lat="43.7521523" lon="12.6789255"><ele>281.0</ele><time>2026-04-11T07:48:32.454Z</time></trkpt><trkpt lat="43.7521163" lon="12.6790981"><ele>280.5</ele><time>2026-04-11T07:48:33.454Z</time></trkpt><trkpt lat="43.7520751" lon="12.679271"><ele>280.0</ele><time>2026-04-11T07:48:34.454Z</time></trkpt><trkpt lat="43.7520216" lon="12.679441"><ele>278.5</ele><time>2026-04-11T07:48:35.454Z</time></trkpt><trkpt lat="43.7519608" lon="12.6796115"><ele>277.0</ele><time>2026-04-11T07:48:36.454Z</time></trkpt><trkpt lat="43.7518989" lon="12.6797917"><ele>275.5</ele><time>2026-04-11T07:48:37.455Z</time></trkpt><trkpt lat="43.7518374" lon="12.6799793"><ele>274.0</ele><time>2026-04-11T07:48:38.456Z</time></trkpt><trkpt lat="43.7517735" lon="12.6801771"><ele>281.0</ele><time>2026-04-11T07:48:39.454Z</time></trkpt><trkpt lat="43.7517073" lon="12.680379"><ele>288.0</ele><time>2026-04-11T07:48:40.455Z</time></trkpt><trkpt lat="43.7516423" lon="12.6805854"><ele>295.0</ele><time>2026-04-11T07:48:41.454Z</time></trkpt><trkpt lat="43.7515773" lon="12.6807917"><ele>295.0</ele><time>2026-04-11T07:48:42.455Z</time></trkpt><trkpt lat="43.7515117" lon="12.6809994"><ele>295.0</ele><time>2026-04-11T07:48:43.454Z</time></trkpt><trkpt lat="43.751448" lon="12.6812088"><ele>295.0</ele><time>2026-04-11T07:48:44.455Z</time></trkpt><trkpt lat="43.7513805" lon="12.6814202"><ele>296.3333333333333</ele><time>2026-04-11T07:48:45.454Z</time></trkpt><trkpt lat="43.7513156" lon="12.6816328"><ele>297.6666666666667</ele><time>2026-04-11T07:48:46.454Z</time></trkpt><trkpt lat="43.7512509" lon="12.6818432"><ele>299.0</ele><time>2026-04-11T07:48:47.454Z</time></trkpt><trkpt lat="43.7511856" lon="12.6820502"><ele>299.75</ele><time>2026-04-11T07:48:48.454Z</time></trkpt><trkpt lat="43.7511274" lon="12.6822323"><ele>300.5</ele><time>2026-04-11T07:48:49.455Z</time></trkpt><trkpt lat="43.7510645" lon="12.6823883"><ele>301.25</ele><time>2026-04-11T07:48:50.454Z</time></trkpt><trkpt lat="43.750974" lon="12.6825283"><ele>302.0</ele><time>2026-04-11T07:48:51.454Z</time></trkpt><trkpt lat="43.7508611" lon="12.6826587"><ele>306.25</ele><time>2026-04-11T07:48:52.455Z</time></trkpt><trkpt lat="43.7507486" lon="12.6827922"><ele>310.5</ele><time>2026-04-11T07:48:53.454Z</time></trkpt><trkpt lat="43.7506634" lon="12.682907"><ele>314.75</ele><time>2026-04-11T07:48:54.454Z</time></trkpt><trkpt lat="43.7505886" lon="12.6830376"><ele>319.0</ele><time>2026-04-11T07:48:55.454Z</time></trkpt><trkpt lat="43.7505244" lon="12.6831995"><ele>319.0</ele><time>2026-04-11T07:48:56.454Z</time></trkpt><trkpt lat="43.7504627" lon="12.6833893"><ele>319.0</ele><time>2026-04-11T07:48:57.454Z</time></trkpt><trkpt lat="43.7504029" lon="12.6835919"><ele>319.0</ele><time>2026-04-11T07:48:58.454Z</time></trkpt><trkpt lat="43.7503434" lon="12.6837934"><ele>318.5</ele><time>2026-04-11T07:48:59.454Z</time></trkpt><trkpt lat="43.7502828" lon="12.6839788"><ele>318.0</ele><time>2026-04-11T07:49:00.455Z</time></trkpt><trkpt lat="43.7502219" lon="12.6841509"><ele>317.5</ele><time>2026-04-11T07:49:01.455Z</time></trkpt><trkpt lat="43.7501597" lon="12.6843088"><ele>317.0</ele><time>2026-04-11T07:49:02.454Z</time></trkpt><trkpt lat="43.7500941" lon="12.6844489"><ele>318.0</ele><time>2026-04-11T07:49:03.454Z</time></trkpt><trkpt lat="43.7500284" lon="12.6845663"><ele>319.0</ele><time>2026-04-11T07:49:04.455Z</time></trkpt><trkpt lat="43.7499535" lon="12.6846557"><ele>320.0</ele><time>2026-04-11T07:49:05.454Z</time></trkpt><trkpt lat="43.7498695" lon="12.6847073"><ele>321.0</ele><time>2026-04-11T07:49:06.454Z</time></trkpt><trkpt lat="43.7497802" lon="12.6847174"><ele>322.0</ele><time>2026-04-11T07:49:07.454Z</time></trkpt><trkpt lat="43.7496799" lon="12.6846962"><ele>322.0</ele><time>2026-04-11T07:49:08.454Z</time></trkpt><trkpt lat="43.7495756" lon="12.6846605"><ele>322.0</ele><time>2026-04-11T07:49:09.454Z</time></trkpt><trkpt lat="43.7494714" lon="12.6846451"><ele>322.0</ele><time>2026-04-11T07:49:10.454Z</time></trkpt><trkpt lat="43.7493715" lon="12.6846411"><ele>322.0</ele><time>2026-04-11T07:49:11.454Z</time></trkpt><trkpt lat="43.7492798" lon="12.6846561"><ele>322.0</ele><time>2026-04-11T07:49:12.455Z</time></trkpt><trkpt lat="43.7491976" lon="12.6846997"><ele>322.0</ele><time>2026-04-11T07:49:13.454Z</time></trkpt><trkpt lat="43.7491231" lon="12.6847734"><ele>322.0</ele><time>2026-04-11T07:49:14.456Z</time></trkpt><trkpt lat="43.7490639" lon="12.684883"><ele>322.0</ele><time>2026-04-11T07:49:15.455Z</time></trkpt><trkpt lat="43.7490076" lon="12.6850063"><ele>322.0</ele><time>2026-04-11T07:49:16.454Z</time></trkpt><trkpt lat="43.7489523" lon="12.6851234"><ele>322.0</ele><time>2026-04-11T07:49:17.455Z</time></trkpt><trkpt lat="43.7488946" lon="12.685218"><ele>322.0</ele><time>2026-04-11T07:49:18.454Z</time></trkpt><trkpt lat="43.7488377" lon="12.6852923"><ele>322.0</ele><time>2026-04-11T07:49:19.454Z</time></trkpt><trkpt lat="43.7487526" lon="12.6853841"><ele>322.0</ele><time>2026-04-11T07:49:21.454Z</time></trkpt><trkpt lat="43.7486949" lon="12.6854683"><ele>322.0</ele><time>2026-04-11T07:49:25.456Z</time></trkpt><trkpt lat="43.7486427" lon="12.6855522"><ele>322.0</ele><time>2026-04-11T07:49:27.454Z</time></trkpt><trkpt lat="43.7485844" lon="12.6856054"><ele>322.0</ele><time>2026-04-11T07:49:28.454Z</time></trkpt><trkpt lat="43.7485074" lon="12.6856474"><ele>321.6</ele><time>2026-04-11T07:49:29.455Z</time></trkpt><trkpt lat="43.7484253" lon="12.6856688"><ele>321.20000000000005</ele><time>2026-04-11T07:49:30.454Z</time></trkpt><trkpt lat="43.7483191" lon="12.6856812"><ele>320.8</ele><time>2026-04-11T07:49:31.456Z</time></trkpt><trkpt lat="43.7482044" lon="12.6856793"><ele>320.4</ele><time>2026-04-11T07:49:32.454Z</time></trkpt><trkpt lat="43.7480805" lon="12.6856833"><ele>320.0</ele><time>2026-04-11T07:49:33.454Z</time></trkpt><trkpt lat="43.7479499" lon="12.6857107"><ele>320.0</ele><time>2026-04-11T07:49:34.454Z</time></trkpt><trkpt lat="43.7478107" lon="12.6857653"><ele>320.0</ele><time>2026-04-11T07:49:35.454Z</time></trkpt><trkpt lat="43.747662" lon="12.6858435"><ele>320.0</ele><time>2026-04-11T07:49:36.454Z</time></trkpt><trkpt lat="43.7475055" lon="12.685925"><ele>323.6666666666667</ele><time>2026-04-11T07:49:37.454Z</time></trkpt><trkpt lat="43.7473595" lon="12.6859888"><ele>327.3333333333333</ele><time>2026-04-11T07:49:38.454Z</time></trkpt><trkpt lat="43.7472206" lon="12.6860515"><ele>331.0</ele><time>2026-04-11T07:49:39.454Z</time></trkpt><trkpt lat="43.7470764" lon="12.6861235"><ele>331.3333333333333</ele><time>2026-04-11T07:49:40.454Z</time></trkpt><trkpt lat="43.7469164" lon="12.6862018"><ele>331.6666666666667</ele><time>2026-04-11T07:49:41.455Z</time></trkpt><trkpt lat="43.7467489" lon="12.6862781"><ele>332.0</ele><time>2026-04-11T07:49:42.454Z</time></trkpt><trkpt lat="43.7466002" lon="12.686348"><ele>336.0</ele><time>2026-04-11T07:49:43.454Z</time></trkpt><trkpt lat="43.7464722" lon="12.686406"><ele>340.0</ele><time>2026-04-11T07:49:44.454Z</time></trkpt><trkpt lat="43.7463601" lon="12.6864665"><ele>344.0</ele><time>2026-04-11T07:49:45.454Z</time></trkpt><trkpt lat="43.7462509" lon="12.6865397"><ele>348.0</ele><time>2026-04-11T07:49:46.454Z</time></trkpt><trkpt lat="43.7461308" lon="12.6866229"><ele>348.75</ele><time>2026-04-11T07:49:47.454Z</time></trkpt><trkpt lat="43.7460068" lon="12.6866984"><ele>349.5</ele><time>2026-04-11T07:49:48.454Z</time></trkpt><trkpt lat="43.7458791" lon="12.6867642"><ele>350.25</ele><time>2026-04-11T07:49:49.454Z</time></trkpt><trkpt lat="43.7457634" lon="12.6868221"><ele>351.0</ele><time>2026-04-11T07:49:50.454Z</time></trkpt><trkpt lat="43.7456592" lon="12.6868824"><ele>351.6</ele><time>2026-04-11T07:49:51.455Z</time></trkpt><trkpt lat="43.7455631" lon="12.6869375"><ele>352.20000000000005</ele><time>2026-04-11T07:49:52.455Z</time></trkpt><trkpt lat="43.7454634" lon="12.6869805"><ele>352.79999999999995</ele><time>2026-04-11T07:49:53.454Z</time></trkpt><trkpt lat="43.7453563" lon="12.6870104"><ele>353.4</ele><time>2026-04-11T07:49:54.456Z</time></trkpt><trkpt lat="43.745239" lon="12.6870338"><ele>354.0</ele><time>2026-04-11T07:49:55.454Z</time></trkpt><trkpt lat="43.745111" lon="12.6870412"><ele>354.0</ele><time>2026-04-11T07:49:56.454Z</time></trkpt><trkpt lat="43.744968" lon="12.6870299"><ele>354.0</ele><time>2026-04-11T07:49:57.454Z</time></trkpt><trkpt lat="43.744813" lon="12.6870099"><ele>354.0</ele><time>2026-04-11T07:49:58.455Z</time></trkpt><trkpt lat="43.7446538" lon="12.6869776"><ele>354.0</ele><time>2026-04-11T07:49:59.454Z</time></trkpt><trkpt lat="43.7444917" lon="12.6869241"><ele>354.0</ele><time>2026-04-11T07:50:00.454Z</time></trkpt><trkpt lat="43.7443354" lon="12.6868485"><ele>354.0</ele><time>2026-04-11T07:50:01.454Z</time></trkpt><trkpt lat="43.7441963" lon="12.6867766"><ele>354.0</ele><time>2026-04-11T07:50:02.455Z</time></trkpt><trkpt lat="43.7440689" lon="12.686705"><ele>354.0</ele><time>2026-04-11T07:50:03.454Z</time></trkpt><trkpt lat="43.7439571" lon="12.6866233"><ele>354.0</ele><time>2026-04-11T07:50:04.454Z</time></trkpt><trkpt lat="43.7438749" lon="12.686511"><ele>354.0</ele><time>2026-04-11T07:50:05.454Z</time></trkpt><trkpt lat="43.7438181" lon="12.6863726"><ele>354.0</ele><time>2026-04-11T07:50:06.456Z</time></trkpt><trkpt lat="43.7437597" lon="12.6862377"><ele>354.0</ele><time>2026-04-11T07:50:07.454Z</time></trkpt><trkpt lat="43.743689" lon="12.6861265"><ele>354.0</ele><time>2026-04-11T07:50:08.455Z</time></trkpt><trkpt lat="43.7436078" lon="12.6860274"><ele>354.0</ele><time>2026-04-11T07:50:09.455Z</time></trkpt><trkpt lat="43.7435204" lon="12.6859571"><ele>354.0</ele><time>2026-04-11T07:50:10.454Z</time></trkpt><trkpt lat="43.7434127" lon="12.6859092"><ele>355.25</ele><time>2026-04-11T07:50:11.455Z</time></trkpt><trkpt lat="43.7432915" lon="12.6858731"><ele>356.5</ele><time>2026-04-11T07:50:12.454Z</time></trkpt><trkpt lat="43.7431656" lon="12.6858595"><ele>357.75</ele><time>2026-04-11T07:50:13.454Z</time></trkpt><trkpt lat="43.7430538" lon="12.6858745"><ele>359.0</ele><time>2026-04-11T07:50:14.454Z</time></trkpt><trkpt lat="43.742961" lon="12.6858931"><ele>359.0</ele><time>2026-04-11T07:50:15.455Z</time></trkpt><trkpt lat="43.7428791" lon="12.6858886"><ele>359.0</ele><time>2026-04-11T07:50:16.454Z</time></trkpt><trkpt lat="43.7427921" lon="12.685862"><ele>359.0</ele><time>2026-04-11T07:50:17.454Z</time></trkpt><trkpt lat="43.7427011" lon="12.6858198"><ele>359.0</ele><time>2026-04-11T07:50:18.455Z</time></trkpt><trkpt lat="43.7426022" lon="12.6857683"><ele>359.0</ele><time>2026-04-11T07:50:19.455Z</time></trkpt><trkpt lat="43.7424937" lon="12.6857093"><ele>359.4</ele><time>2026-04-11T07:50:20.455Z</time></trkpt><trkpt lat="43.7423922" lon="12.6856499"><ele>359.79999999999995</ele><time>2026-04-11T07:50:21.454Z</time></trkpt><trkpt lat="43.7423039" lon="12.6855833"><ele>360.20000000000005</ele><time>2026-04-11T07:50:22.455Z</time></trkpt><trkpt lat="43.7422179" lon="12.6855268"><ele>360.6</ele><time>2026-04-11T07:50:23.454Z</time></trkpt><trkpt lat="43.742128" lon="12.6854903"><ele>361.0</ele><time>2026-04-11T07:50:24.454Z</time></trkpt><trkpt lat="43.7420358" lon="12.6854836"><ele>361.0</ele><time>2026-04-11T07:50:25.455Z</time></trkpt><trkpt lat="43.741948" lon="12.6855081"><ele>361.0</ele><time>2026-04-11T07:50:26.454Z</time></trkpt><trkpt lat="43.7418604" lon="12.6855602"><ele>361.0</ele><time>2026-04-11T07:50:27.454Z</time></trkpt><trkpt lat="43.7417687" lon="12.6856427"><ele>361.0</ele><time>2026-04-11T07:50:28.454Z</time></trkpt><trkpt lat="43.7416727" lon="12.685747"><ele>361.0</ele><time>2026-04-11T07:50:29.455Z</time></trkpt><trkpt lat="43.7415743" lon="12.6858506"><ele>362.0</ele><time>2026-04-11T07:50:30.454Z</time></trkpt><trkpt lat="43.7414825" lon="12.6859406"><ele>363.0</ele><time>2026-04-11T07:50:31.455Z</time></trkpt><trkpt lat="43.7414013" lon="12.6860126"><ele>364.0</ele><time>2026-04-11T07:50:32.455Z</time></trkpt><trkpt lat="43.7413256" lon="12.6860697"><ele>365.0</ele><time>2026-04-11T07:50:33.454Z</time></trkpt><trkpt lat="43.7412503" lon="12.6861066"><ele>366.0</ele><time>2026-04-11T07:50:34.455Z</time></trkpt><trkpt lat="43.7411807" lon="12.6861118"><ele>367.0</ele><time>2026-04-11T07:50:35.454Z</time></trkpt><trkpt lat="43.7411169" lon="12.6860856"><ele>367.0</ele><time>2026-04-11T07:50:36.454Z</time></trkpt><trkpt lat="43.7410588" lon="12.6860414"><ele>367.0</ele><time>2026-04-11T07:50:37.454Z</time></trkpt><trkpt lat="43.7410032" lon="12.6859859"><ele>367.0</ele><time>2026-04-11T07:50:38.454Z</time></trkpt><trkpt lat="43.7409408" lon="12.6859494"><ele>367.0</ele><time>2026-04-11T07:50:39.455Z</time></trkpt><trkpt lat="43.7408677" lon="12.6859379"><ele>367.0</ele><time>2026-04-11T07:50:40.455Z</time></trkpt><trkpt lat="43.7407756" lon="12.6859432"><ele>367.0</ele><time>2026-04-11T07:50:41.454Z</time></trkpt><trkpt lat="43.7406732" lon="12.6859594"><ele>370.0</ele><time>2026-04-11T07:50:42.454Z</time></trkpt><trkpt lat="43.7405601" lon="12.6859802"><ele>373.0</ele><time>2026-04-11T07:50:43.454Z</time></trkpt><trkpt lat="43.7404391" lon="12.6860006"><ele>376.0</ele><time>2026-04-11T07:50:44.454Z</time></trkpt><trkpt lat="43.7403116" lon="12.6860239"><ele>379.0</ele><time>2026-04-11T07:50:45.454Z</time></trkpt><trkpt lat="43.7401773" lon="12.6860575"><ele>381.0</ele><time>2026-04-11T07:50:46.455Z</time></trkpt><trkpt lat="43.7400413" lon="12.6860807"><ele>383.0</ele><time>2026-04-11T07:50:47.454Z</time></trkpt><trkpt lat="43.7399024" lon="12.6860998"><ele>385.0</ele><time>2026-04-11T07:50:48.454Z</time></trkpt><trkpt lat="43.7397623" lon="12.6861362"><ele>387.0</ele><time>2026-04-11T07:50:49.454Z</time></trkpt><trkpt lat="43.7396265" lon="12.6861713"><ele>387.0</ele><time>2026-04-11T07:50:50.454Z</time></trkpt><trkpt lat="43.7394897" lon="12.6861988"><ele>387.0</ele><time>2026-04-11T07:50:51.454Z</time></trkpt><trkpt lat="43.7393608" lon="12.6862244"><ele>387.0</ele><time>2026-04-11T07:50:52.454Z</time></trkpt><trkpt lat="43.7392473" lon="12.6862459"><ele>387.0</ele><time>2026-04-11T07:50:53.454Z</time></trkpt><trkpt lat="43.7391435" lon="12.6862676"><ele>389.40000000000003</ele><time>2026-04-11T07:50:54.455Z</time></trkpt><trkpt lat="43.7390576" lon="12.6862886"><ele>391.8</ele><time>2026-04-11T07:50:55.454Z</time></trkpt><trkpt lat="43.7389748" lon="12.6863001"><ele>394.2</ele><time>2026-04-11T07:50:56.454Z</time></trkpt><trkpt lat="43.7388726" lon="12.6862944"><ele>396.6</ele><time>2026-04-11T07:50:57.454Z</time></trkpt><trkpt lat="43.7387503" lon="12.686275"><ele>399.0</ele><time>2026-04-11T07:50:58.455Z</time></trkpt><trkpt lat="43.7386135" lon="12.6862547"><ele>400.33333333333337</ele><time>2026-04-11T07:50:59.455Z</time></trkpt><trkpt lat="43.7384651" lon="12.6862174"><ele>401.6666666666667</ele><time>2026-04-11T07:51:00.454Z</time></trkpt><trkpt lat="43.7383053" lon="12.6861759"><ele>403.0</ele><time>2026-04-11T07:51:01.454Z</time></trkpt><trkpt lat="43.7381568" lon="12.6861463"><ele>403.0</ele><time>2026-04-11T07:51:02.454Z</time></trkpt><trkpt lat="43.7380269" lon="12.6861291"><ele>403.0</ele><time>2026-04-11T07:51:03.455Z</time></trkpt><trkpt lat="43.7378981" lon="12.6861268"><ele>403.0</ele><time>2026-04-11T07:51:04.454Z</time></trkpt><trkpt lat="43.7377527" lon="12.6861384"><ele>403.0</ele><time>2026-04-11T07:51:05.455Z</time></trkpt><trkpt lat="43.7376295" lon="12.6861436"><ele>404.0</ele><time>2026-04-11T07:51:06.454Z</time></trkpt><trkpt lat="43.7375277" lon="12.6861344"><ele>405.0</ele><time>2026-04-11T07:51:07.454Z</time></trkpt><trkpt lat="43.7374352" lon="12.6860933"><ele>406.0</ele><time>2026-04-11T07:51:08.454Z</time></trkpt><trkpt lat="43.7373508" lon="12.6860189"><ele>407.0</ele><time>2026-04-11T07:51:09.455Z</time></trkpt><trkpt lat="43.7372815" lon="12.6859583"><ele>408.0</ele><time>2026-04-11T07:51:10.454Z</time></trkpt><trkpt lat="43.7372157" lon="12.6859284"><ele>408.0</ele><time>2026-04-11T07:51:11.456Z</time></trkpt><trkpt lat="43.7371523" lon="12.6859339"><ele>408.0</ele><time>2026-04-11T07:51:12.454Z</time></trkpt><trkpt lat="43.7370654" lon="12.6860597"><ele>408.0</ele><time>2026-04-11T07:51:14.455Z</time></trkpt><trkpt lat="43.737035" lon="12.6861655"><ele>408.0</ele><time>2026-04-11T07:51:15.454Z</time></trkpt><trkpt lat="43.7369999" lon="12.6863027"><ele>408.0</ele><time>2026-04-11T07:51:16.454Z</time></trkpt><trkpt lat="43.7369624" lon="12.686435"><ele>408.8333333333333</ele><time>2026-04-11T07:51:17.454Z</time></trkpt><trkpt lat="43.7369158" lon="12.6865577"><ele>409.66666666666663</ele><time>2026-04-11T07:51:18.454Z</time></trkpt><trkpt lat="43.7368594" lon="12.6866617"><ele>410.5</ele><time>2026-04-11T07:51:19.454Z</time></trkpt><trkpt lat="43.7367924" lon="12.6867396"><ele>411.3333333333333</ele><time>2026-04-11T07:51:20.454Z</time></trkpt><trkpt lat="43.7367218" lon="12.6867746"><ele>412.16666666666663</ele><time>2026-04-11T07:51:21.454Z</time></trkpt><trkpt lat="43.7366476" lon="12.6867785"><ele>413.0</ele><time>2026-04-11T07:51:22.454Z</time></trkpt><trkpt lat="43.7365632" lon="12.6867515"><ele>418.25</ele><time>2026-04-11T07:51:23.454Z</time></trkpt><trkpt lat="43.7364682" lon="12.6866933"><ele>423.5</ele><time>2026-04-11T07:51:24.455Z</time></trkpt><trkpt lat="43.7363588" lon="12.6866232"><ele>428.75</ele><time>2026-04-11T07:51:25.454Z</time></trkpt><trkpt lat="43.7362429" lon="12.6865369"><ele>434.0</ele><time>2026-04-11T07:51:26.454Z</time></trkpt><trkpt lat="43.7361252" lon="12.6864453"><ele>437.79999999999995</ele><time>2026-04-11T07:51:27.454Z</time></trkpt><trkpt lat="43.7360178" lon="12.6863637"><ele>441.59999999999997</ele><time>2026-04-11T07:51:28.454Z</time></trkpt><trkpt lat="43.7359204" lon="12.6863"><ele>445.4</ele><time>2026-04-11T07:51:29.454Z</time></trkpt><trkpt lat="43.735833" lon="12.6862483"><ele>449.2</ele><time>2026-04-11T07:51:30.454Z</time></trkpt><trkpt lat="43.7357582" lon="12.6862189"><ele>453.0</ele><time>2026-04-11T07:51:31.455Z</time></trkpt><trkpt lat="43.735681" lon="12.686231"><ele>453.0</ele><time>2026-04-11T07:51:32.454Z</time></trkpt><trkpt lat="43.7356099" lon="12.6862615"><ele>452.99999999999994</ele><time>2026-04-11T07:51:33.455Z</time></trkpt><trkpt lat="43.7355305" lon="12.6863063"><ele>452.99999999999994</ele><time>2026-04-11T07:51:34.454Z</time></trkpt><trkpt lat="43.7354442" lon="12.6863343"><ele>453.0</ele><time>2026-04-11T07:51:35.455Z</time></trkpt><trkpt lat="43.7353439" lon="12.6863364"><ele>453.0</ele><time>2026-04-11T07:51:36.454Z</time></trkpt><trkpt lat="43.7352217" lon="12.6863327"><ele>456.4</ele><time>2026-04-11T07:51:37.455Z</time></trkpt><trkpt lat="43.7350964" lon="12.6863296"><ele>459.79999999999995</ele><time>2026-04-11T07:51:38.455Z</time></trkpt><trkpt lat="43.7349887" lon="12.6863107"><ele>463.2</ele><time>2026-04-11T07:51:39.454Z</time></trkpt><trkpt lat="43.7348948" lon="12.6862747"><ele>466.6</ele><time>2026-04-11T07:51:40.456Z</time></trkpt><trkpt lat="43.7348217" lon="12.6862524"><ele>470.0</ele><time>2026-04-11T07:51:41.454Z</time></trkpt><trkpt lat="43.734754" lon="12.6862623"><ele>470.0</ele><time>2026-04-11T07:51:42.454Z</time></trkpt><trkpt lat="43.734677" lon="12.6863833"><ele>470.0</ele><time>2026-04-11T07:51:44.455Z</time></trkpt><trkpt lat="43.7346646" lon="12.6864906"><ele>470.0</ele><time>2026-04-11T07:51:45.454Z</time></trkpt><trkpt lat="43.7346675" lon="12.6866186"><ele>470.0</ele><time>2026-04-11T07:51:46.454Z</time></trkpt><trkpt lat="43.7346701" lon="12.6867898"><ele>470.0</ele><time>2026-04-11T07:51:47.455Z</time></trkpt><trkpt lat="43.7346621" lon="12.686973"><ele>469.6</ele><time>2026-04-11T07:51:48.455Z</time></trkpt><trkpt lat="43.7346482" lon="12.6871299"><ele>469.2</ele><time>2026-04-11T07:51:49.454Z</time></trkpt><trkpt lat="43.7346337" lon="12.6872548"><ele>468.79999999999995</ele><time>2026-04-11T07:51:50.454Z</time></trkpt><trkpt lat="43.734611" lon="12.6873514"><ele>468.4</ele><time>2026-04-11T07:51:51.454Z</time></trkpt><trkpt lat="43.7345714" lon="12.6874269"><ele>468.0</ele><time>2026-04-11T07:51:52.455Z</time></trkpt><trkpt lat="43.7344593" lon="12.6874805"><ele>471.6666666666667</ele><time>2026-04-11T07:51:54.454Z</time></trkpt><trkpt lat="43.7343836" lon="12.6874926"><ele>475.33333333333337</ele><time>2026-04-11T07:51:55.455Z</time></trkpt><trkpt lat="43.7343087" lon="12.6874956"><ele>479.0</ele><time>2026-04-11T08:07:59.452Z</time></trkpt><trkpt lat="43.7342064" lon="12.687504"><ele>482.6666666666667</ele><time>2026-04-11T08:08:02.452Z</time></trkpt><trkpt lat="43.7341403" lon="12.6875115"><ele>486.33333333333337</ele><time>2026-04-11T08:08:03.451Z</time></trkpt><trkpt lat="43.7340627" lon="12.6875303"><ele>490.0</ele><time>2026-04-11T08:08:04.451Z</time></trkpt><trkpt lat="43.7339781" lon="12.6875581"><ele>490.0</ele><time>2026-04-11T08:08:05.452Z</time></trkpt><trkpt lat="43.7339021" lon="12.6875873"><ele>490.0</ele><time>2026-04-11T08:08:06.452Z</time></trkpt><trkpt lat="43.7338136" lon="12.6876898"><ele>490.0</ele><time>2026-04-11T08:08:08.453Z</time></trkpt><trkpt lat="43.7337579" lon="12.6878528"><ele>490.0</ele><time>2026-04-11T08:08:10.451Z</time></trkpt><trkpt lat="43.7337322" lon="12.6879463"><ele>490.0</ele><time>2026-04-11T08:08:11.452Z</time></trkpt><trkpt lat="43.7336638" lon="12.688072"><ele>489.1666666666667</ele><time>2026-04-11T08:08:13.451Z</time></trkpt><trkpt lat="43.7336008" lon="12.6881169"><ele>488.33333333333337</ele><time>2026-04-11T08:08:15.451Z</time></trkpt><trkpt lat="43.7335349" lon="12.688105"><ele>487.5</ele><time>2026-04-11T08:08:17.451Z</time></trkpt><trkpt lat="43.7334699" lon="12.6879775"><ele>486.66666666666663</ele><time>2026-04-11T08:08:19.451Z</time></trkpt><trkpt lat="43.7334383" lon="12.6878842"><ele>485.8333333333333</ele><time>2026-04-11T08:08:20.451Z</time></trkpt><trkpt lat="43.7333955" lon="12.6877703"><ele>485.0</ele><time>2026-04-11T08:08:21.451Z</time></trkpt><trkpt lat="43.7333436" lon="12.6876474"><ele>488.3333333333333</ele><time>2026-04-11T08:08:22.451Z</time></trkpt><trkpt lat="43.7332983" lon="12.6875347"><ele>491.66666666666663</ele><time>2026-04-11T08:08:23.451Z</time></trkpt><trkpt lat="43.7332712" lon="12.687444"><ele>495.0</ele><time>2026-04-11T08:08:24.451Z</time></trkpt><trkpt lat="43.7332204" lon="12.6873447"><ele>498.33333333333337</ele><time>2026-04-11T08:08:26.451Z</time></trkpt><trkpt lat="43.7331577" lon="12.6873578"><ele>501.6666666666667</ele><time>2026-04-11T08:08:28.451Z</time></trkpt><trkpt lat="43.7331016" lon="12.6875109"><ele>505.0</ele><time>2026-04-11T08:08:30.452Z</time></trkpt><trkpt lat="43.7330888" lon="12.6876615"><ele>505.33333333333337</ele><time>2026-04-11T08:08:31.452Z</time></trkpt><trkpt lat="43.7330764" lon="12.6878465"><ele>505.66666666666663</ele><time>2026-04-11T08:08:32.451Z</time></trkpt><trkpt lat="43.7330574" lon="12.6880637"><ele>506.0</ele><time>2026-04-11T08:08:33.451Z</time></trkpt><trkpt lat="43.733033" lon="12.6883251"><ele>508.0</ele><time>2026-04-11T08:08:34.451Z</time></trkpt><trkpt lat="43.7330088" lon="12.6886218"><ele>510.0</ele><time>2026-04-11T08:08:35.451Z</time></trkpt><trkpt lat="43.7329777" lon="12.6889427"><ele>510.0</ele><time>2026-04-11T08:08:36.452Z</time></trkpt><trkpt lat="43.7329494" lon="12.689267"><ele>510.0</ele><time>2026-04-11T08:08:37.452Z</time></trkpt><trkpt lat="43.7329235" lon="12.6895605"><ele>510.33333333333337</ele><time>2026-04-11T08:08:38.451Z</time></trkpt><trkpt lat="43.7328965" lon="12.6898315"><ele>510.6666666666667</ele><time>2026-04-11T08:08:39.452Z</time></trkpt><trkpt lat="43.7328629" lon="12.6901023"><ele>511.0</ele><time>2026-04-11T08:08:40.453Z</time></trkpt><trkpt lat="43.7328172" lon="12.690377"><ele>511.0</ele><time>2026-04-11T08:08:41.453Z</time></trkpt><trkpt lat="43.7327593" lon="12.6906574"><ele>511.0</ele><time>2026-04-11T08:08:42.451Z</time></trkpt><trkpt lat="43.7327019" lon="12.6909237"><ele>511.0</ele><time>2026-04-11T08:08:43.451Z</time></trkpt><trkpt lat="43.7326413" lon="12.6911734"><ele>514.6666666666667</ele><time>2026-04-11T08:08:44.452Z</time></trkpt><trkpt lat="43.7325831" lon="12.6914243"><ele>518.3333333333334</ele><time>2026-04-11T08:08:45.452Z</time></trkpt><trkpt lat="43.7325369" lon="12.6916826"><ele>522.0</ele><time>2026-04-11T08:08:46.452Z</time></trkpt><trkpt lat="43.732504" lon="12.6919788"><ele>523.0</ele><time>2026-04-11T08:08:47.451Z</time></trkpt><trkpt lat="43.732477" lon="12.6923105"><ele>524.0</ele><time>2026-04-11T08:08:48.451Z</time></trkpt><trkpt lat="43.7324531" lon="12.6926771"><ele>524.5</ele><time>2026-04-11T08:08:49.451Z</time></trkpt><trkpt lat="43.7324337" lon="12.6930708"><ele>525.0</ele><time>2026-04-11T08:08:50.451Z</time></trkpt><trkpt lat="43.7324117" lon="12.693434"><ele>528.0</ele><time>2026-04-11T08:08:51.452Z</time></trkpt><trkpt lat="43.7323836" lon="12.6937692"><ele>531.0</ele><time>2026-04-11T08:08:52.451Z</time></trkpt><trkpt lat="43.7323413" lon="12.6940775"><ele>531.0</ele><time>2026-04-11T08:08:53.451Z</time></trkpt><trkpt lat="43.7322643" lon="12.6943631"><ele>531.0</ele><time>2026-04-11T08:08:54.451Z</time></trkpt><trkpt lat="43.7321888" lon="12.6946224"><ele>531.0</ele><time>2026-04-11T08:08:55.451Z</time></trkpt><trkpt lat="43.732122" lon="12.6948599"><ele>532.3333333333334</ele><time>2026-04-11T08:08:56.452Z</time></trkpt><trkpt lat="43.7320582" lon="12.6950799"><ele>533.6666666666667</ele><time>2026-04-11T08:08:57.451Z</time></trkpt><trkpt lat="43.7320016" lon="12.6952772"><ele>535.0</ele><time>2026-04-11T08:08:58.452Z</time></trkpt><trkpt lat="43.731953" lon="12.695456"><ele>535.0</ele><time>2026-04-11T08:08:59.451Z</time></trkpt><trkpt lat="43.7319063" lon="12.6956164"><ele>535.0</ele><time>2026-04-11T08:09:00.451Z</time></trkpt><trkpt lat="43.7318623" lon="12.6957681"><ele>535.0</ele><time>2026-04-11T08:09:01.452Z</time></trkpt><trkpt lat="43.7318241" lon="12.6959375"><ele>535.0</ele><time>2026-04-11T08:09:02.451Z</time></trkpt><trkpt lat="43.7317987" lon="12.6961529"><ele>537.0</ele><time>2026-04-11T08:09:03.451Z</time></trkpt><trkpt lat="43.7317727" lon="12.6963998"><ele>539.0</ele><time>2026-04-11T08:09:04.451Z</time></trkpt><trkpt lat="43.7317415" lon="12.6966776"><ele>541.0</ele><time>2026-04-11T08:09:05.451Z</time></trkpt><trkpt lat="43.7317195" lon="12.6969217"><ele>542.6</ele><time>2026-04-11T08:09:06.452Z</time></trkpt><trkpt lat="43.7317044" lon="12.6971203"><ele>544.2</ele><time>2026-04-11T08:09:07.452Z</time></trkpt><trkpt lat="43.7316979" lon="12.6972752"><ele>545.8</ele><time>2026-04-11T08:09:08.451Z</time></trkpt><trkpt lat="43.7317077" lon="12.6973754"><ele>547.4</ele><time>2026-04-11T08:09:09.451Z</time></trkpt><trkpt lat="43.7317698" lon="12.697443"><ele>549.0</ele><time>2026-04-11T08:09:18.451Z</time></trkpt><trkpt lat="43.7318772" lon="12.6975487"><ele>545.75</ele><time>2026-04-11T08:09:20.451Z</time></trkpt><trkpt lat="43.731941" lon="12.6976497"><ele>542.5</ele><time>2026-04-11T08:09:21.452Z</time></trkpt><trkpt lat="43.7319954" lon="12.6977884"><ele>539.25</ele><time>2026-04-11T08:09:22.451Z</time></trkpt><trkpt lat="43.7320426" lon="12.6979814"><ele>536.0</ele><time>2026-04-11T08:09:23.451Z</time></trkpt><trkpt lat="43.7320629" lon="12.6981659"><ele>536.0</ele><time>2026-04-11T08:09:24.451Z</time></trkpt><trkpt lat="43.7320715" lon="12.6983256"><ele>536.0</ele><time>2026-04-11T08:09:25.451Z</time></trkpt><trkpt lat="43.7320794" lon="12.6984712"><ele>536.0</ele><time>2026-04-11T08:09:26.452Z</time></trkpt><trkpt lat="43.7321136" lon="12.6985966"><ele>536.0</ele><time>2026-04-11T08:09:27.452Z</time></trkpt><trkpt lat="43.7321741" lon="12.6986712"><ele>536.0</ele><time>2026-04-11T08:09:28.451Z</time></trkpt><trkpt lat="43.7322632" lon="12.6987098"><ele>537.2</ele><time>2026-04-11T08:09:29.452Z</time></trkpt><trkpt lat="43.7323825" lon="12.6987312"><ele>538.4000000000001</ele><time>2026-04-11T08:09:30.451Z</time></trkpt><trkpt lat="43.7324842" lon="12.6987567"><ele>539.6</ele><time>2026-04-11T08:09:31.452Z</time></trkpt><trkpt lat="43.7325762" lon="12.698785"><ele>540.8000000000001</ele><time>2026-04-11T08:09:32.451Z</time></trkpt><trkpt lat="43.7326576" lon="12.6988292"><ele>542.0</ele><time>2026-04-11T08:09:33.452Z</time></trkpt><trkpt lat="43.732715" lon="12.6989"><ele>542.0</ele><time>2026-04-11T08:09:34.451Z</time></trkpt><trkpt lat="43.7327393" lon="12.6989999"><ele>542.0</ele><time>2026-04-11T08:09:35.451Z</time></trkpt><trkpt lat="43.7327219" lon="12.6991327"><ele>542.0</ele><time>2026-04-11T08:09:36.451Z</time></trkpt><trkpt lat="43.7326716" lon="12.6993066"><ele>542.0</ele><time>2026-04-11T08:09:37.452Z</time></trkpt><trkpt lat="43.7326391" lon="12.6995287"><ele>541.0</ele><time>2026-04-11T08:09:38.451Z</time></trkpt><trkpt lat="43.7326326" lon="12.6997412"><ele>540.0</ele><time>2026-04-11T08:09:39.451Z</time></trkpt><trkpt lat="43.7326338" lon="12.6999251"><ele>539.0</ele><time>2026-04-11T08:09:40.451Z</time></trkpt><trkpt lat="43.7326554" lon="12.7000906"><ele>538.0</ele><time>2026-04-11T08:09:41.452Z</time></trkpt><trkpt lat="43.7326972" lon="12.7002341"><ele>535.0</ele><time>2026-04-11T08:09:42.453Z</time></trkpt><trkpt lat="43.7327867" lon="12.700341"><ele>532.0</ele><time>2026-04-11T08:09:43.451Z</time></trkpt><trkpt lat="43.7328879" lon="12.7004135"><ele>529.0</ele><time>2026-04-11T08:09:44.451Z</time></trkpt><trkpt lat="43.73299" lon="12.7004385"><ele>526.0</ele><time>2026-04-11T08:09:45.451Z</time></trkpt><trkpt lat="43.7330899" lon="12.7004444"><ele>523.0</ele><time>2026-04-11T08:09:46.452Z</time></trkpt><trkpt lat="43.7331795" lon="12.7004697"><ele>523.0</ele><time>2026-04-11T08:09:47.451Z</time></trkpt><trkpt lat="43.7332485" lon="12.7005272"><ele>523.0</ele><time>2026-04-11T08:09:48.452Z</time></trkpt><trkpt lat="43.7332974" lon="12.7006367"><ele>523.0</ele><time>2026-04-11T08:09:49.451Z</time></trkpt><trkpt lat="43.7333344" lon="12.7008023"><ele>523.0</ele><time>2026-04-11T08:09:50.451Z</time></trkpt><trkpt lat="43.7333799" lon="12.7010078"><ele>521.0</ele><time>2026-04-11T08:09:51.452Z</time></trkpt><trkpt lat="43.7334257" lon="12.7012059"><ele>519.0</ele><time>2026-04-11T08:09:52.451Z</time></trkpt><trkpt lat="43.733475" lon="12.701402"><ele>517.0</ele><time>2026-04-11T08:09:53.451Z</time></trkpt><trkpt lat="43.7335262" lon="12.7015875"><ele>515.0</ele><time>2026-04-11T08:09:54.452Z</time></trkpt><trkpt lat="43.7335779" lon="12.7017422"><ele>513.25</ele><time>2026-04-11T08:09:55.452Z</time></trkpt><trkpt lat="43.7336097" lon="12.7018901"><ele>511.5</ele><time>2026-04-11T08:09:56.451Z</time></trkpt><trkpt lat="43.7336427" lon="12.7020491"><ele>509.75</ele><time>2026-04-11T08:09:57.451Z</time></trkpt><trkpt lat="43.7336004" lon="12.7022252"><ele>508.0</ele><time>2026-04-11T08:09:58.451Z</time></trkpt><trkpt lat="43.7335656" lon="12.7023997"><ele>508.2</ele><time>2026-04-11T08:09:59.451Z</time></trkpt><trkpt lat="43.7335282" lon="12.7025714"><ele>508.4</ele><time>2026-04-11T08:10:00.452Z</time></trkpt><trkpt lat="43.7335107" lon="12.7027067"><ele>508.59999999999997</ele><time>2026-04-11T08:10:01.451Z</time></trkpt><trkpt lat="43.7335224" lon="12.7028477"><ele>508.79999999999995</ele><time>2026-04-11T08:10:02.452Z</time></trkpt><trkpt lat="43.7335697" lon="12.7029712"><ele>509.0</ele><time>2026-04-11T08:10:03.451Z</time></trkpt><trkpt lat="43.7336519" lon="12.7030917"><ele>503.5</ele><time>2026-04-11T08:10:04.452Z</time></trkpt><trkpt lat="43.7337214" lon="12.7031968"><ele>498.0</ele><time>2026-04-11T08:10:05.451Z</time></trkpt><trkpt lat="43.7337514" lon="12.7033192"><ele>492.5</ele><time>2026-04-11T08:10:06.451Z</time></trkpt><trkpt lat="43.7337764" lon="12.7034705"><ele>487.0</ele><time>2026-04-11T08:10:07.451Z</time></trkpt><trkpt lat="43.7337096" lon="12.7036775"><ele>485.75</ele><time>2026-04-11T08:10:08.451Z</time></trkpt><trkpt lat="43.73369" lon="12.7038961"><ele>484.5</ele><time>2026-04-11T08:10:09.451Z</time></trkpt><trkpt lat="43.7336579" lon="12.7040891"><ele>483.25</ele><time>2026-04-11T08:10:10.451Z</time></trkpt><trkpt lat="43.7336314" lon="12.7042704"><ele>482.0</ele><time>2026-04-11T08:10:11.451Z</time></trkpt><trkpt lat="43.733619" lon="12.704454"><ele>480.75</ele><time>2026-04-11T08:10:12.451Z</time></trkpt><trkpt lat="43.7336326" lon="12.7046612"><ele>479.5</ele><time>2026-04-11T08:10:13.451Z</time></trkpt><trkpt lat="43.7336447" lon="12.704826"><ele>478.25</ele><time>2026-04-11T08:10:14.451Z</time></trkpt><trkpt lat="43.7336497" lon="12.7049625"><ele>477.0</ele><time>2026-04-11T08:10:15.451Z</time></trkpt><trkpt lat="43.7336511" lon="12.7050744"><ele>477.0</ele><time>2026-04-11T08:10:16.451Z</time></trkpt><trkpt lat="43.7336293" lon="12.7051832"><ele>477.00000000000006</ele><time>2026-04-11T08:10:17.451Z</time></trkpt><trkpt lat="43.7335745" lon="12.7053066"><ele>477.00000000000006</ele><time>2026-04-11T08:10:18.452Z</time></trkpt><trkpt lat="43.7334852" lon="12.7054393"><ele>477.0</ele><time>2026-04-11T08:10:19.451Z</time></trkpt><trkpt lat="43.7333915" lon="12.7055318"><ele>477.0</ele><time>2026-04-11T08:10:20.452Z</time></trkpt><trkpt lat="43.7333054" lon="12.7056215"><ele>477.1666666666667</ele><time>2026-04-11T08:10:21.451Z</time></trkpt><trkpt lat="43.7332395" lon="12.7057078"><ele>477.33333333333337</ele><time>2026-04-11T08:10:22.451Z</time></trkpt><trkpt lat="43.7331977" lon="12.7058071"><ele>477.5</ele><time>2026-04-11T08:10:23.452Z</time></trkpt><trkpt lat="43.7331931" lon="12.7059057"><ele>477.6666666666667</ele><time>2026-04-11T08:10:24.452Z</time></trkpt><trkpt lat="43.7332224" lon="12.7059859"><ele>477.83333333333337</ele><time>2026-04-11T08:10:25.451Z</time></trkpt><trkpt lat="43.7332933" lon="12.7060445"><ele>478.0</ele><time>2026-04-11T08:10:26.451Z</time></trkpt><trkpt lat="43.733408" lon="12.7060865"><ele>478.0</ele><time>2026-04-11T08:10:27.452Z</time></trkpt><trkpt lat="43.7335409" lon="12.706131"><ele>477.99999999999994</ele><time>2026-04-11T08:10:28.451Z</time></trkpt><trkpt lat="43.7336511" lon="12.7061739"><ele>477.99999999999994</ele><time>2026-04-11T08:10:29.452Z</time></trkpt><trkpt lat="43.7337427" lon="12.706222"><ele>478.0</ele><time>2026-04-11T08:10:30.452Z</time></trkpt><trkpt lat="43.7338083" lon="12.7063022"><ele>478.0</ele><time>2026-04-11T08:10:31.452Z</time></trkpt><trkpt lat="43.7338387" lon="12.7064181"><ele>475.59999999999997</ele><time>2026-04-11T08:10:32.452Z</time></trkpt><trkpt lat="43.7338349" lon="12.7065445"><ele>473.19999999999993</ele><time>2026-04-11T08:10:33.452Z</time></trkpt><trkpt lat="43.733791" lon="12.7066677"><ele>470.8</ele><time>2026-04-11T08:10:34.451Z</time></trkpt><trkpt lat="43.733705" lon="12.7067717"><ele>468.4</ele><time>2026-04-11T08:10:35.451Z</time></trkpt><trkpt lat="43.7336452" lon="12.7068859"><ele>466.0</ele><time>2026-04-11T08:10:36.452Z</time></trkpt><trkpt lat="43.7336229" lon="12.7070253"><ele>464.75</ele><time>2026-04-11T08:10:37.451Z</time></trkpt><trkpt lat="43.7336352" lon="12.7072015"><ele>463.5</ele><time>2026-04-11T08:10:38.451Z</time></trkpt><trkpt lat="43.7336643" lon="12.7073973"><ele>462.25</ele><time>2026-04-11T08:10:39.451Z</time></trkpt><trkpt lat="43.7336822" lon="12.7075876"><ele>461.0</ele><time>2026-04-11T08:10:40.451Z</time></trkpt><trkpt lat="43.7336843" lon="12.7077751"><ele>459.3333333333333</ele><time>2026-04-11T08:10:41.451Z</time></trkpt><trkpt lat="43.733688" lon="12.7079928"><ele>457.66666666666663</ele><time>2026-04-11T08:10:42.451Z</time></trkpt><trkpt lat="43.7336818" lon="12.7082088"><ele>456.0</ele><time>2026-04-11T08:10:43.451Z</time></trkpt><trkpt lat="43.7336712" lon="12.7084013"><ele>456.0</ele><time>2026-04-11T08:10:44.451Z</time></trkpt><trkpt lat="43.7336601" lon="12.708573"><ele>456.0</ele><time>2026-04-11T08:10:45.452Z</time></trkpt><trkpt lat="43.7336348" lon="12.7087367"><ele>456.0</ele><time>2026-04-11T08:10:46.451Z</time></trkpt><trkpt lat="43.7335957" lon="12.7088759"><ele>456.0</ele><time>2026-04-11T08:10:47.451Z</time></trkpt><trkpt lat="43.7335613" lon="12.7089838"><ele>456.0</ele><time>2026-04-11T08:10:48.451Z</time></trkpt><trkpt lat="43.7335487" lon="12.7090756"><ele>456.20000000000005</ele><time>2026-04-11T08:10:49.451Z</time></trkpt><trkpt lat="43.7335349" lon="12.7091804"><ele>456.40000000000003</ele><time>2026-04-11T08:10:50.451Z</time></trkpt><trkpt lat="43.7335091" lon="12.7093002"><ele>456.6</ele><time>2026-04-11T08:10:51.451Z</time></trkpt><trkpt lat="43.7334746" lon="12.7094392"><ele>456.8</ele><time>2026-04-11T08:10:52.451Z</time></trkpt><trkpt lat="43.7334283" lon="12.7095874"><ele>457.0</ele><time>2026-04-11T08:10:53.452Z</time></trkpt><trkpt lat="43.7333855" lon="12.709727"><ele>457.00000000000006</ele><time>2026-04-11T08:10:54.451Z</time></trkpt><trkpt lat="43.7333522" lon="12.70985"><ele>457.0</ele><time>2026-04-11T08:10:55.452Z</time></trkpt><trkpt lat="43.7333363" lon="12.7099622"><ele>457.0</ele><time>2026-04-11T08:10:56.452Z</time></trkpt><trkpt lat="43.7333345" lon="12.7100646"><ele>457.0</ele><time>2026-04-11T08:10:57.451Z</time></trkpt><trkpt lat="43.7333607" lon="12.7101507"><ele>457.00000000000006</ele><time>2026-04-11T08:10:58.452Z</time></trkpt><trkpt lat="43.7334104" lon="12.7102169"><ele>457.0</ele><time>2026-04-11T08:10:59.451Z</time></trkpt><trkpt lat="43.733469" lon="12.7102579"><ele>457.20000000000005</ele><time>2026-04-11T08:11:00.451Z</time></trkpt><trkpt lat="43.7335845" lon="12.710292"><ele>457.40000000000003</ele><time>2026-04-11T08:11:02.451Z</time></trkpt><trkpt lat="43.7336737" lon="12.7103303"><ele>457.59999999999997</ele><time>2026-04-11T08:11:04.452Z</time></trkpt><trkpt lat="43.7337496" lon="12.7103937"><ele>457.79999999999995</ele><time>2026-04-11T08:11:06.451Z</time></trkpt><trkpt lat="43.7336525" lon="12.7103308"><ele>458.0</ele><time>2026-04-11T08:11:12.452Z</time></trkpt><trkpt lat="43.7335553" lon="12.7102879"><ele>457.8333333333333</ele><time>2026-04-11T08:11:14.451Z</time></trkpt><trkpt lat="43.733459" lon="12.7102358"><ele>457.66666666666663</ele><time>2026-04-11T08:11:16.452Z</time></trkpt><trkpt lat="43.733371" lon="12.71014"><ele>457.5</ele><time>2026-04-11T08:11:18.453Z</time></trkpt><trkpt lat="43.7333473" lon="12.7100496"><ele>457.33333333333337</ele><time>2026-04-11T08:11:19.451Z</time></trkpt><trkpt lat="43.7333484" lon="12.7099594"><ele>457.1666666666667</ele><time>2026-04-11T08:11:20.451Z</time></trkpt><trkpt lat="43.7333642" lon="12.7098679"><ele>457.0</ele><time>2026-04-11T08:11:21.452Z</time></trkpt><trkpt lat="43.7333967" lon="12.7097381"><ele>457.0</ele><time>2026-04-11T08:11:22.451Z</time></trkpt><trkpt lat="43.7334431" lon="12.7095799"><ele>457.00000000000006</ele><time>2026-04-11T08:11:23.452Z</time></trkpt><trkpt lat="43.7334779" lon="12.7094489"><ele>457.00000000000006</ele><time>2026-04-11T08:11:24.452Z</time></trkpt><trkpt lat="43.7335061" lon="12.7093328"><ele>457.0</ele><time>2026-04-11T08:11:25.451Z</time></trkpt><trkpt lat="43.7335291" lon="12.7092407"><ele>457.0</ele><time>2026-04-11T08:11:26.451Z</time></trkpt><trkpt lat="43.7335511" lon="12.7091295"><ele>457.0</ele><time>2026-04-11T08:11:28.451Z</time></trkpt><trkpt lat="43.7334791" lon="12.709158"><ele>457.00000000000006</ele><time>2026-04-11T08:11:32.451Z</time></trkpt><trkpt lat="43.733438" lon="12.7092648"><ele>457.00000000000006</ele><time>2026-04-11T08:11:33.452Z</time></trkpt><trkpt lat="43.733388" lon="12.7093929"><ele>457.0</ele><time>2026-04-11T08:11:34.451Z</time></trkpt><trkpt lat="43.7333298" lon="12.7095264"><ele>457.0</ele><time>2026-04-11T08:11:35.451Z</time></trkpt><trkpt lat="43.7332721" lon="12.7096508"><ele>457.0</ele><time>2026-04-11T08:11:36.452Z</time></trkpt><trkpt lat="43.7332154" lon="12.7097726"><ele>457.00000000000006</ele><time>2026-04-11T08:11:37.451Z</time></trkpt><trkpt lat="43.733163" lon="12.709894"><ele>457.00000000000006</ele><time>2026-04-11T08:11:38.451Z</time></trkpt><trkpt lat="43.733111" lon="12.7100125"><ele>457.0</ele><time>2026-04-11T08:11:39.451Z</time></trkpt><trkpt lat="43.7330633" lon="12.7101297"><ele>457.0</ele><time>2026-04-11T08:11:40.451Z</time></trkpt><trkpt lat="43.7330406" lon="12.7102504"><ele>455.0</ele><time>2026-04-11T08:11:41.451Z</time></trkpt><trkpt lat="43.7330509" lon="12.7103865"><ele>453.0</ele><time>2026-04-11T08:11:42.451Z</time></trkpt><trkpt lat="43.733101" lon="12.7105439"><ele>451.0</ele><time>2026-04-11T08:11:43.451Z</time></trkpt><trkpt lat="43.7331748" lon="12.7107448"><ele>449.0</ele><time>2026-04-11T08:11:44.451Z</time></trkpt><trkpt lat="43.7332645" lon="12.7109879"><ele>443.3333333333333</ele><time>2026-04-11T08:11:45.451Z</time></trkpt><trkpt lat="43.7333557" lon="12.7112459"><ele>437.66666666666663</ele><time>2026-04-11T08:11:46.451Z</time></trkpt><trkpt lat="43.7334331" lon="12.7114786"><ele>432.0</ele><time>2026-04-11T08:11:47.451Z</time></trkpt><trkpt lat="43.7335047" lon="12.7116847"><ele>429.5</ele><time>2026-04-11T08:11:48.451Z</time></trkpt><trkpt lat="43.7335619" lon="12.7118586"><ele>427.0</ele><time>2026-04-11T08:11:49.451Z</time></trkpt><trkpt lat="43.7336237" lon="12.7120174"><ele>424.5</ele><time>2026-04-11T08:11:50.452Z</time></trkpt><trkpt lat="43.7337113" lon="12.7121527"><ele>422.0</ele><time>2026-04-11T08:11:51.452Z</time></trkpt><trkpt lat="43.7338329" lon="12.7122784"><ele>422.0</ele><time>2026-04-11T08:11:52.451Z</time></trkpt><trkpt lat="43.7339856" lon="12.712381"><ele>422.0</ele><time>2026-04-11T08:11:53.451Z</time></trkpt><trkpt lat="43.7341369" lon="12.7124829"><ele>422.0</ele><time>2026-04-11T08:11:54.451Z</time></trkpt><trkpt lat="43.7342802" lon="12.7125834"><ele>423.25</ele><time>2026-04-11T08:11:55.451Z</time></trkpt><trkpt lat="43.7344195" lon="12.7126706"><ele>424.5</ele><time>2026-04-11T08:11:56.451Z</time></trkpt><trkpt lat="43.7345476" lon="12.7127681"><ele>425.75</ele><time>2026-04-11T08:11:57.452Z</time></trkpt><trkpt lat="43.7346503" lon="12.712896"><ele>427.0</ele><time>2026-04-11T08:11:58.45Z</time></trkpt><trkpt lat="43.7347295" lon="12.7130777"><ele>421.6666666666667</ele><time>2026-04-11T08:11:59.45Z</time></trkpt><trkpt lat="43.7347922" lon="12.7133081"><ele>416.33333333333337</ele><time>2026-04-11T08:12:00.451Z</time></trkpt><trkpt lat="43.7348628" lon="12.7135114"><ele>411.0</ele><time>2026-04-11T08:12:01.45Z</time></trkpt><trkpt lat="43.7349656" lon="12.7137024"><ele>405.33333333333337</ele><time>2026-04-11T08:12:02.451Z</time></trkpt><trkpt lat="43.7350727" lon="12.713899"><ele>399.6666666666667</ele><time>2026-04-11T08:12:03.45Z</time></trkpt><trkpt lat="43.7351487" lon="12.714087"><ele>394.0</ele><time>2026-04-11T08:12:04.45Z</time></trkpt><trkpt lat="43.7352043" lon="12.7142831"><ele>392.75</ele><time>2026-04-11T08:12:05.451Z</time></trkpt><trkpt lat="43.735254" lon="12.714456"><ele>391.5</ele><time>2026-04-11T08:12:06.452Z</time></trkpt><trkpt lat="43.735299" lon="12.7146133"><ele>390.25</ele><time>2026-04-11T08:12:07.45Z</time></trkpt><trkpt lat="43.7353456" lon="12.7147577"><ele>389.0</ele><time>2026-04-11T08:12:08.451Z</time></trkpt><trkpt lat="43.7354074" lon="12.7148795"><ele>389.0</ele><time>2026-04-11T08:12:09.45Z</time></trkpt><trkpt lat="43.735492" lon="12.7149825"><ele>389.0</ele><time>2026-04-11T08:12:10.45Z</time></trkpt><trkpt lat="43.7356083" lon="12.7150703"><ele>389.0</ele><time>2026-04-11T08:12:11.45Z</time></trkpt><trkpt lat="43.7357491" lon="12.7151462"><ele>389.0</ele><time>2026-04-11T08:12:12.451Z</time></trkpt><trkpt lat="43.7359135" lon="12.7152232"><ele>385.3333333333333</ele><time>2026-04-11T08:12:13.451Z</time></trkpt><trkpt lat="43.7360878" lon="12.7153029"><ele>381.66666666666663</ele><time>2026-04-11T08:12:14.451Z</time></trkpt><trkpt lat="43.7362497" lon="12.7153738"><ele>378.0</ele><time>2026-04-11T08:12:15.45Z</time></trkpt><trkpt lat="43.7364018" lon="12.7154478"><ele>378.0</ele><time>2026-04-11T08:12:16.451Z</time></trkpt><trkpt lat="43.7365434" lon="12.7155209"><ele>378.0</ele><time>2026-04-11T08:12:17.45Z</time></trkpt><trkpt lat="43.7366717" lon="12.7155999"><ele>378.0</ele><time>2026-04-11T08:12:18.451Z</time></trkpt><trkpt lat="43.7367797" lon="12.7157045"><ele>378.0</ele><time>2026-04-11T08:12:19.45Z</time></trkpt><trkpt lat="43.7368758" lon="12.7158529"><ele>375.5</ele><time>2026-04-11T08:12:20.45Z</time></trkpt><trkpt lat="43.7369666" lon="12.7160304"><ele>373.0</ele><time>2026-04-11T08:12:21.451Z</time></trkpt><trkpt lat="43.7370483" lon="12.7162036"><ele>370.5</ele><time>2026-04-11T08:12:22.45Z</time></trkpt><trkpt lat="43.7371151" lon="12.7163675"><ele>368.0</ele><time>2026-04-11T08:12:23.45Z</time></trkpt><trkpt lat="43.737165" lon="12.7165259"><ele>365.75</ele><time>2026-04-11T08:12:24.452Z</time></trkpt><trkpt lat="43.7371956" lon="12.7166817"><ele>363.5</ele><time>2026-04-11T08:12:25.45Z</time></trkpt><trkpt lat="43.7371989" lon="12.7168399"><ele>361.25</ele><time>2026-04-11T08:12:26.451Z</time></trkpt><trkpt lat="43.737185" lon="12.717022"><ele>359.0</ele><time>2026-04-11T08:12:27.45Z</time></trkpt><trkpt lat="43.737159" lon="12.7172315"><ele>357.6666666666667</ele><time>2026-04-11T08:12:28.451Z</time></trkpt><trkpt lat="43.7371326" lon="12.7174593"><ele>356.3333333333333</ele><time>2026-04-11T08:12:29.45Z</time></trkpt><trkpt lat="43.7371025" lon="12.717709"><ele>355.0</ele><time>2026-04-11T08:12:30.451Z</time></trkpt><trkpt lat="43.7370652" lon="12.7179765"><ele>352.0</ele><time>2026-04-11T08:12:31.45Z</time></trkpt><trkpt lat="43.7370206" lon="12.7182641"><ele>349.0</ele><time>2026-04-11T08:12:32.451Z</time></trkpt><trkpt lat="43.7369728" lon="12.7185591"><ele>346.0</ele><time>2026-04-11T08:12:33.45Z</time></trkpt><trkpt lat="43.7369232" lon="12.7188345"><ele>345.3333333333333</ele><time>2026-04-11T08:12:34.45Z</time></trkpt><trkpt lat="43.7368679" lon="12.7190972"><ele>344.6666666666667</ele><time>2026-04-11T08:12:35.451Z</time></trkpt><trkpt lat="43.7368166" lon="12.7193482"><ele>344.0</ele><time>2026-04-11T08:12:36.451Z</time></trkpt><trkpt lat="43.7367768" lon="12.7195895"><ele>343.33333333333337</ele><time>2026-04-11T08:12:37.45Z</time></trkpt><trkpt lat="43.73674" lon="12.7198406"><ele>342.6666666666667</ele><time>2026-04-11T08:12:38.45Z</time></trkpt><trkpt lat="43.7366907" lon="12.720101"><ele>342.0</ele><time>2026-04-11T08:12:39.451Z</time></trkpt><trkpt lat="43.7366336" lon="12.7203552"><ele>340.3333333333333</ele><time>2026-04-11T08:12:40.452Z</time></trkpt><trkpt lat="43.7365833" lon="12.720592"><ele>338.66666666666663</ele><time>2026-04-11T08:12:41.451Z</time></trkpt><trkpt lat="43.7365431" lon="12.7207987"><ele>337.0</ele><time>2026-04-11T08:12:42.451Z</time></trkpt><trkpt lat="43.7365094" lon="12.7209747"><ele>335.0</ele><time>2026-04-11T08:12:43.45Z</time></trkpt><trkpt lat="43.7364957" lon="12.7211369"><ele>333.0</ele><time>2026-04-11T08:12:44.451Z</time></trkpt><trkpt lat="43.7365164" lon="12.7213125"><ele>331.0</ele><time>2026-04-11T08:12:45.451Z</time></trkpt><trkpt lat="43.7365773" lon="12.7215126"><ele>329.0</ele><time>2026-04-11T08:12:46.45Z</time></trkpt><trkpt lat="43.7366475" lon="12.7217408"><ele>327.33333333333337</ele><time>2026-04-11T08:12:47.45Z</time></trkpt><trkpt lat="43.7367186" lon="12.7219569"><ele>325.6666666666667</ele><time>2026-04-11T08:12:48.451Z</time></trkpt><trkpt lat="43.7367922" lon="12.7221659"><ele>324.0</ele><time>2026-04-11T08:12:49.45Z</time></trkpt><trkpt lat="43.7368866" lon="12.7223709"><ele>322.3333333333333</ele><time>2026-04-11T08:12:50.451Z</time></trkpt><trkpt lat="43.7370155" lon="12.7225765"><ele>320.66666666666663</ele><time>2026-04-11T08:12:51.45Z</time></trkpt><trkpt lat="43.7371567" lon="12.7228099"><ele>319.0</ele><time>2026-04-11T08:12:52.45Z</time></trkpt><trkpt lat="43.737307" lon="12.7230978"><ele>318.5</ele><time>2026-04-11T08:12:53.45Z</time></trkpt><trkpt lat="43.7374644" lon="12.7234119"><ele>318.0</ele><time>2026-04-11T08:12:54.45Z</time></trkpt><trkpt lat="43.7376103" lon="12.7236957"><ele>313.5</ele><time>2026-04-11T08:12:55.45Z</time></trkpt><trkpt lat="43.7377504" lon="12.7239717"><ele>309.0</ele><time>2026-04-11T08:12:56.45Z</time></trkpt><trkpt lat="43.737882" lon="12.7242357"><ele>308.6666666666667</ele><time>2026-04-11T08:12:57.451Z</time></trkpt><trkpt lat="43.7380055" lon="12.7244873"><ele>308.33333333333337</ele><time>2026-04-11T08:12:58.45Z</time></trkpt><trkpt lat="43.7381209" lon="12.7247307"><ele>308.0</ele><time>2026-04-11T08:12:59.451Z</time></trkpt><trkpt lat="43.7382285" lon="12.7249626"><ele>308.0</ele><time>2026-04-11T08:13:00.45Z</time></trkpt><trkpt lat="43.7383223" lon="12.7251964"><ele>308.0</ele><time>2026-04-11T08:13:01.45Z</time></trkpt><trkpt lat="43.7383973" lon="12.7254522"><ele>308.0</ele><time>2026-04-11T08:13:02.452Z</time></trkpt><trkpt lat="43.7384651" lon="12.7257274"><ele>306.33333333333337</ele><time>2026-04-11T08:13:03.45Z</time></trkpt><trkpt lat="43.738539" lon="12.7260212"><ele>304.6666666666667</ele><time>2026-04-11T08:13:04.45Z</time></trkpt><trkpt lat="43.7386034" lon="12.7262966"><ele>303.0</ele><time>2026-04-11T08:13:05.45Z</time></trkpt><trkpt lat="43.738663" lon="12.7265596"><ele>299.6666666666667</ele><time>2026-04-11T08:13:06.451Z</time></trkpt><trkpt lat="43.7387173" lon="12.7268024"><ele>296.33333333333337</ele><time>2026-04-11T08:13:07.45Z</time></trkpt><trkpt lat="43.738769" lon="12.7270224"><ele>293.0</ele><time>2026-04-11T08:13:08.451Z</time></trkpt><trkpt lat="43.7388183" lon="12.7272251"><ele>291.75</ele><time>2026-04-11T08:13:09.45Z</time></trkpt><trkpt lat="43.7388585" lon="12.7274195"><ele>290.5</ele><time>2026-04-11T08:13:10.45Z</time></trkpt><trkpt lat="43.7388839" lon="12.7276029"><ele>289.25</ele><time>2026-04-11T08:13:11.451Z</time></trkpt><trkpt lat="43.7388866" lon="12.7277647"><ele>288.0</ele><time>2026-04-11T08:13:12.451Z</time></trkpt><trkpt lat="43.7388643" lon="12.7279016"><ele>285.5</ele><time>2026-04-11T08:13:13.45Z</time></trkpt><trkpt lat="43.7388119" lon="12.7280157"><ele>283.0</ele><time>2026-04-11T08:13:14.45Z</time></trkpt><trkpt lat="43.7387205" lon="12.728111"><ele>280.5</ele><time>2026-04-11T08:13:15.45Z</time></trkpt><trkpt lat="43.738595" lon="12.7281839"><ele>278.0</ele><time>2026-04-11T08:13:16.451Z</time></trkpt><trkpt lat="43.7384569" lon="12.7282245"><ele>278.0</ele><time>2026-04-11T08:13:17.451Z</time></trkpt><trkpt lat="43.7383275" lon="12.7282445"><ele>278.0</ele><time>2026-04-11T08:13:18.452Z</time></trkpt><trkpt lat="43.7382116" lon="12.7282018"><ele>278.0</ele><time>2026-04-11T08:13:19.45Z</time></trkpt><trkpt lat="43.7381051" lon="12.7281321"><ele>278.0</ele><time>2026-04-11T08:13:20.45Z</time></trkpt><trkpt lat="43.7380091" lon="12.7280444"><ele>278.0</ele><time>2026-04-11T08:13:21.451Z</time></trkpt><trkpt lat="43.7379013" lon="12.7279779"><ele>278.0</ele><time>2026-04-11T08:13:22.45Z</time></trkpt><trkpt lat="43.7377778" lon="12.7279367"><ele>278.0</ele><time>2026-04-11T08:13:23.45Z</time></trkpt><trkpt lat="43.7376642" lon="12.7279337"><ele>278.0</ele><time>2026-04-11T08:13:24.451Z</time></trkpt><trkpt lat="43.7375666" lon="12.7279721"><ele>278.0</ele><time>2026-04-11T08:13:25.45Z</time></trkpt><trkpt lat="43.7374914" lon="12.7280496"><ele>278.0</ele><time>2026-04-11T08:13:26.451Z</time></trkpt><trkpt lat="43.7374492" lon="12.7281496"><ele>278.0</ele><time>2026-04-11T08:13:27.452Z</time></trkpt><trkpt lat="43.7374525" lon="12.7282481"><ele>278.0</ele><time>2026-04-11T08:13:28.451Z</time></trkpt><trkpt lat="43.7375005" lon="12.7283319"><ele>278.0</ele><time>2026-04-11T08:13:29.45Z</time></trkpt><trkpt lat="43.7375925" lon="12.7284033"><ele>278.0</ele><time>2026-04-11T08:13:30.451Z</time></trkpt><trkpt lat="43.7377243" lon="12.7284745"><ele>271.33333333333337</ele><time>2026-04-11T08:13:31.45Z</time></trkpt><trkpt lat="43.7378882" lon="12.7285627"><ele>264.6666666666667</ele><time>2026-04-11T08:13:32.45Z</time></trkpt><trkpt lat="43.7380687" lon="12.7286754"><ele>258.0</ele><time>2026-04-11T08:13:33.451Z</time></trkpt><trkpt lat="43.7382233" lon="12.7287997"><ele>258.0</ele><time>2026-04-11T08:13:34.45Z</time></trkpt><trkpt lat="43.7383546" lon="12.7289195"><ele>258.0</ele><time>2026-04-11T08:13:35.45Z</time></trkpt><trkpt lat="43.7384484" lon="12.7290189"><ele>258.0</ele><time>2026-04-11T08:13:36.45Z</time></trkpt><trkpt lat="43.7385135" lon="12.7291089"><ele>258.0</ele><time>2026-04-11T08:13:37.45Z</time></trkpt><trkpt lat="43.7385519" lon="12.7292119"><ele>258.0</ele><time>2026-04-11T08:13:38.45Z</time></trkpt><trkpt lat="43.7385511" lon="12.7293293"><ele>258.0</ele><time>2026-04-11T08:13:39.451Z</time></trkpt><trkpt lat="43.7385052" lon="12.7294282"><ele>258.0</ele><time>2026-04-11T08:13:40.45Z</time></trkpt><trkpt lat="43.7384268" lon="12.7294902"><ele>258.0</ele><time>2026-04-11T08:13:41.451Z</time></trkpt><trkpt lat="43.7383153" lon="12.7294901"><ele>258.0</ele><time>2026-04-11T08:13:42.45Z</time></trkpt><trkpt lat="43.7381786" lon="12.7294389"><ele>258.0</ele><time>2026-04-11T08:13:43.45Z</time></trkpt><trkpt lat="43.7380138" lon="12.7293805"><ele>258.0</ele><time>2026-04-11T08:13:44.451Z</time></trkpt><trkpt lat="43.7378421" lon="12.7293172"><ele>258.0</ele><time>2026-04-11T08:13:45.451Z</time></trkpt><trkpt lat="43.7376909" lon="12.729262"><ele>256.8</ele><time>2026-04-11T08:13:46.45Z</time></trkpt><trkpt lat="43.7375545" lon="12.7292224"><ele>255.60000000000002</ele><time>2026-04-11T08:13:47.451Z</time></trkpt><trkpt lat="43.7374522" lon="12.7292066"><ele>254.39999999999998</ele><time>2026-04-11T08:13:48.45Z</time></trkpt><trkpt lat="43.7373687" lon="12.72922"><ele>253.2</ele><time>2026-04-11T08:13:49.451Z</time></trkpt><trkpt lat="43.7373061" lon="12.7292763"><ele>252.0</ele><time>2026-04-11T08:13:50.451Z</time></trkpt><trkpt lat="43.7372829" lon="12.7293743"><ele>249.8</ele><time>2026-04-11T08:13:51.45Z</time></trkpt><trkpt lat="43.7373076" lon="12.7294827"><ele>247.6</ele><time>2026-04-11T08:13:52.45Z</time></trkpt><trkpt lat="43.7373762" lon="12.729579"><ele>245.40000000000003</ele><time>2026-04-11T08:13:53.45Z</time></trkpt><trkpt lat="43.7374877" lon="12.7296512"><ele>243.20000000000002</ele><time>2026-04-11T08:13:54.45Z</time></trkpt><trkpt lat="43.737626" lon="12.7297002"><ele>241.0</ele><time>2026-04-11T08:13:55.45Z</time></trkpt><trkpt lat="43.7377592" lon="12.7297624"><ele>241.0</ele><time>2026-04-11T08:13:56.451Z</time></trkpt><trkpt lat="43.7378931" lon="12.7298744"><ele>241.0</ele><time>2026-04-11T08:13:57.45Z</time></trkpt><trkpt lat="43.7380482" lon="12.7300208"><ele>241.0</ele><time>2026-04-11T08:13:58.451Z</time></trkpt><trkpt lat="43.7382316" lon="12.7301812"><ele>239.0</ele><time>2026-04-11T08:13:59.451Z</time></trkpt><trkpt lat="43.7384352" lon="12.7303392"><ele>237.0</ele><time>2026-04-11T08:14:00.451Z</time></trkpt><trkpt lat="43.7386195" lon="12.7304871"><ele>235.0</ele><time>2026-04-11T08:14:01.451Z</time></trkpt><trkpt lat="43.7387998" lon="12.7306303"><ele>234.0</ele><time>2026-04-11T08:14:02.45Z</time></trkpt><trkpt lat="43.7389699" lon="12.7307558"><ele>233.0</ele><time>2026-04-11T08:14:03.45Z</time></trkpt><trkpt lat="43.7391276" lon="12.73087"><ele>232.0</ele><time>2026-04-11T08:14:04.451Z</time></trkpt><trkpt lat="43.7392675" lon="12.7309693"><ele>233.0</ele><time>2026-04-11T08:14:05.451Z</time></trkpt><trkpt lat="43.7394187" lon="12.731045"><ele>234.0</ele><time>2026-04-11T08:14:06.45Z</time></trkpt><trkpt lat="43.7395754" lon="12.7310756"><ele>235.0</ele><time>2026-04-11T08:14:07.451Z</time></trkpt><trkpt lat="43.7397057" lon="12.7310862"><ele>238.4</ele><time>2026-04-11T08:14:08.45Z</time></trkpt><trkpt lat="43.7398105" lon="12.7311117"><ele>241.8</ele><time>2026-04-11T08:14:09.451Z</time></trkpt><trkpt lat="43.7398851" lon="12.7311723"><ele>245.2</ele><time>2026-04-11T08:14:10.45Z</time></trkpt><trkpt lat="43.7399182" lon="12.7312604"><ele>248.6</ele><time>2026-04-11T08:14:11.45Z</time></trkpt><trkpt lat="43.7398557" lon="12.7313826"><ele>252.0</ele><time>2026-04-11T08:14:13.45Z</time></trkpt><trkpt lat="43.7397803" lon="12.7314141"><ele>252.0</ele><time>2026-04-11T08:14:14.45Z</time></trkpt><trkpt lat="43.7396693" lon="12.731424"><ele>252.0</ele><time>2026-04-11T08:14:15.451Z</time></trkpt><trkpt lat="43.7395294" lon="12.7314275"><ele>252.0</ele><time>2026-04-11T08:14:16.45Z</time></trkpt><trkpt lat="43.7393724" lon="12.7314175"><ele>252.0</ele><time>2026-04-11T08:14:17.451Z</time></trkpt><trkpt lat="43.7392479" lon="12.7314174"><ele>252.2</ele><time>2026-04-11T08:14:18.45Z</time></trkpt><trkpt lat="43.7391362" lon="12.7314142"><ele>252.39999999999998</ele><time>2026-04-11T08:14:19.451Z</time></trkpt><trkpt lat="43.7390463" lon="12.7314291"><ele>252.60000000000002</ele><time>2026-04-11T08:14:20.451Z</time></trkpt><trkpt lat="43.7389841" lon="12.7314882"><ele>252.8</ele><time>2026-04-11T08:14:21.451Z</time></trkpt><trkpt lat="43.7389771" lon="12.7316472"><ele>253.0</ele><time>2026-04-11T08:14:23.45Z</time></trkpt><trkpt lat="43.7390217" lon="12.7317168"><ele>253.0</ele><time>2026-04-11T08:14:24.45Z</time></trkpt><trkpt lat="43.7390905" lon="12.7317605"><ele>253.0</ele><time>2026-04-11T08:14:25.451Z</time></trkpt><trkpt lat="43.7391873" lon="12.7317791"><ele>253.0</ele><time>2026-04-11T08:14:26.45Z</time></trkpt><trkpt lat="43.7393126" lon="12.7317856"><ele>253.0</ele><time>2026-04-11T08:14:27.45Z</time></trkpt><trkpt lat="43.7394684" lon="12.7318011"><ele>252.75</ele><time>2026-04-11T08:14:28.451Z</time></trkpt><trkpt lat="43.7396265" lon="12.7318145"><ele>252.5</ele><time>2026-04-11T08:14:29.45Z</time></trkpt><trkpt lat="43.7397487" lon="12.7318483"><ele>252.25</ele><time>2026-04-11T08:14:30.45Z</time></trkpt><trkpt lat="43.7398573" lon="12.7319035"><ele>252.0</ele><time>2026-04-11T08:14:31.45Z</time></trkpt><trkpt lat="43.7399547" lon="12.7320009"><ele>255.6</ele><time>2026-04-11T08:14:32.45Z</time></trkpt><trkpt lat="43.7400121" lon="12.7320949"><ele>259.2</ele><time>2026-04-11T08:14:33.45Z</time></trkpt><trkpt lat="43.7400428" lon="12.7322043"><ele>262.8</ele><time>2026-04-11T08:14:34.45Z</time></trkpt><trkpt lat="43.7400503" lon="12.732357"><ele>266.4</ele><time>2026-04-11T08:14:35.451Z</time></trkpt><trkpt lat="43.7400816" lon="12.7325277"><ele>270.0</ele><time>2026-04-11T08:14:36.45Z</time></trkpt><trkpt lat="43.740132" lon="12.7326889"><ele>273.8</ele><time>2026-04-11T08:14:37.45Z</time></trkpt><trkpt lat="43.7402034" lon="12.7328178"><ele>277.6</ele><time>2026-04-11T08:14:38.452Z</time></trkpt><trkpt lat="43.7403" lon="12.7329138"><ele>281.4</ele><time>2026-04-11T08:14:39.45Z</time></trkpt><trkpt lat="43.7403976" lon="12.732975"><ele>285.2</ele><time>2026-04-11T08:14:40.45Z</time></trkpt><trkpt lat="43.7404743" lon="12.7330244"><ele>289.0</ele><time>2026-04-11T08:14:41.45Z</time></trkpt><trkpt lat="43.7405389" lon="12.733046"><ele>289.25</ele><time>2026-04-11T08:14:42.45Z</time></trkpt><trkpt lat="43.7406636" lon="12.7329851"><ele>289.5</ele><time>2026-04-11T08:14:44.45Z</time></trkpt><trkpt lat="43.7407554" lon="12.7329092"><ele>289.75</ele><time>2026-04-11T08:14:45.45Z</time></trkpt><trkpt lat="43.7408687" lon="12.7327899"><ele>290.0</ele><time>2026-04-11T08:14:46.45Z</time></trkpt><trkpt lat="43.7409754" lon="12.7326697"><ele>287.2</ele><time>2026-04-11T08:14:47.45Z</time></trkpt><trkpt lat="43.7410609" lon="12.7325718"><ele>284.4</ele><time>2026-04-11T08:14:48.45Z</time></trkpt><trkpt lat="43.741149" lon="12.7325091"><ele>281.6</ele><time>2026-04-11T08:14:49.45Z</time></trkpt><trkpt lat="43.7412351" lon="12.7324982"><ele>278.8</ele><time>2026-04-11T08:14:50.451Z</time></trkpt><trkpt lat="43.7413377" lon="12.7325308"><ele>276.0</ele><time>2026-04-11T08:14:51.45Z</time></trkpt><trkpt lat="43.7414683" lon="12.7325762"><ele>276.0</ele><time>2026-04-11T08:14:52.45Z</time></trkpt><trkpt lat="43.7416381" lon="12.7326172"><ele>276.0</ele><time>2026-04-11T08:14:53.45Z</time></trkpt><trkpt lat="43.7418226" lon="12.7326641"><ele>276.0</ele><time>2026-04-11T08:14:54.45Z</time></trkpt><trkpt lat="43.7420146" lon="12.7327078"><ele>273.6666666666667</ele><time>2026-04-11T08:14:55.451Z</time></trkpt><trkpt lat="43.7421947" lon="12.7327164"><ele>271.33333333333337</ele><time>2026-04-11T08:14:56.451Z</time></trkpt><trkpt lat="43.7423588" lon="12.732702"><ele>269.0</ele><time>2026-04-11T08:14:57.45Z</time></trkpt><trkpt lat="43.7424987" lon="12.7326954"><ele>269.0</ele><time>2026-04-11T08:14:58.45Z</time></trkpt><trkpt lat="43.742631" lon="12.7327064"><ele>269.0</ele><time>2026-04-11T08:14:59.45Z</time></trkpt><trkpt lat="43.7427683" lon="12.7327413"><ele>269.0</ele><time>2026-04-11T08:15:00.451Z</time></trkpt><trkpt lat="43.7429181" lon="12.7327724"><ele>269.0</ele><time>2026-04-11T08:15:01.45Z</time></trkpt><trkpt lat="43.7430852" lon="12.7328103"><ele>267.6666666666667</ele><time>2026-04-11T08:15:02.45Z</time></trkpt><trkpt lat="43.7432685" lon="12.7328492"><ele>266.3333333333333</ele><time>2026-04-11T08:15:03.45Z</time></trkpt><trkpt lat="43.7434664" lon="12.7328822"><ele>265.0</ele><time>2026-04-11T08:15:04.45Z</time></trkpt><trkpt lat="43.7436752" lon="12.7329034"><ele>260.3333333333333</ele><time>2026-04-11T08:15:05.451Z</time></trkpt><trkpt lat="43.7438718" lon="12.7329227"><ele>255.66666666666669</ele><time>2026-04-11T08:15:06.45Z</time></trkpt><trkpt lat="43.7440611" lon="12.7329512"><ele>251.0</ele><time>2026-04-11T08:15:07.45Z</time></trkpt><trkpt lat="43.7442293" lon="12.7329916"><ele>251.0</ele><time>2026-04-11T08:15:08.452Z</time></trkpt><trkpt lat="43.7443776" lon="12.7330425"><ele>251.0</ele><time>2026-04-11T08:15:09.451Z</time></trkpt><trkpt lat="43.7445114" lon="12.7330897"><ele>251.0</ele><time>2026-04-11T08:15:10.45Z</time></trkpt><trkpt lat="43.7446276" lon="12.7331279"><ele>251.0</ele><time>2026-04-11T08:15:11.45Z</time></trkpt><trkpt lat="43.7447297" lon="12.7331693"><ele>249.33333333333334</ele><time>2026-04-11T08:15:12.451Z</time></trkpt><trkpt lat="43.744818" lon="12.7332135"><ele>247.66666666666669</ele><time>2026-04-11T08:15:13.45Z</time></trkpt><trkpt lat="43.744888" lon="12.7332693"><ele>246.0</ele><time>2026-04-11T08:15:14.45Z</time></trkpt><trkpt lat="43.7449507" lon="12.7333"><ele>244.33333333333331</ele><time>2026-04-11T08:15:15.451Z</time></trkpt><trkpt lat="43.7450426" lon="12.7332094"><ele>242.66666666666666</ele><time>2026-04-11T08:15:17.45Z</time></trkpt><trkpt lat="43.7450636" lon="12.7330818"><ele>241.0</ele><time>2026-04-11T08:15:18.452Z</time></trkpt><trkpt lat="43.7450763" lon="12.732903"><ele>239.5</ele><time>2026-04-11T08:15:19.451Z</time></trkpt><trkpt lat="43.7450853" lon="12.7326985"><ele>238.0</ele><time>2026-04-11T08:15:20.45Z</time></trkpt><trkpt lat="43.7450763" lon="12.7325067"><ele>236.5</ele><time>2026-04-11T08:15:21.45Z</time></trkpt><trkpt lat="43.745051" lon="12.7323157"><ele>235.0</ele><time>2026-04-11T08:15:22.452Z</time></trkpt><trkpt lat="43.7450225" lon="12.7321304"><ele>235.0</ele><time>2026-04-11T08:15:23.45Z</time></trkpt><trkpt lat="43.7449979" lon="12.7319634"><ele>235.0</ele><time>2026-04-11T08:15:24.451Z</time></trkpt><trkpt lat="43.7449775" lon="12.7318171"><ele>235.0</ele><time>2026-04-11T08:15:25.451Z</time></trkpt><trkpt lat="43.7449591" lon="12.7316881"><ele>235.0</ele><time>2026-04-11T08:15:26.45Z</time></trkpt><trkpt lat="43.7449434" lon="12.7315843"><ele>235.0</ele><time>2026-04-11T08:15:27.451Z</time></trkpt><trkpt lat="43.744946" lon="12.7314186"><ele>233.6</ele><time>2026-04-11T08:15:29.45Z</time></trkpt><trkpt lat="43.74502" lon="12.7312965"><ele>232.2</ele><time>2026-04-11T08:15:31.451Z</time></trkpt><trkpt lat="43.7450914" lon="12.7313022"><ele>230.8</ele><time>2026-04-11T08:15:32.451Z</time></trkpt><trkpt lat="43.7451858" lon="12.7313548"><ele>229.4</ele><time>2026-04-11T08:15:33.45Z</time></trkpt><trkpt lat="43.7453072" lon="12.7314594"><ele>228.0</ele><time>2026-04-11T08:15:34.451Z</time></trkpt><trkpt lat="43.7454627" lon="12.7315937"><ele>225.66666666666669</ele><time>2026-04-11T08:15:35.451Z</time></trkpt><trkpt lat="43.7456304" lon="12.7317386"><ele>223.33333333333334</ele><time>2026-04-11T08:15:36.451Z</time></trkpt><trkpt lat="43.7458232" lon="12.7319128"><ele>221.0</ele><time>2026-04-11T08:15:37.45Z</time></trkpt><trkpt lat="43.7460086" lon="12.7320838"><ele>219.0</ele><time>2026-04-11T08:15:38.451Z</time></trkpt><trkpt lat="43.7461776" lon="12.7322488"><ele>217.0</ele><time>2026-04-11T08:15:39.452Z</time></trkpt><trkpt lat="43.7463354" lon="12.7324122"><ele>215.0</ele><time>2026-04-11T08:15:40.45Z</time></trkpt><trkpt lat="43.7464862" lon="12.7325642"><ele>215.0</ele><time>2026-04-11T08:15:41.451Z</time></trkpt><trkpt lat="43.7466351" lon="12.7327136"><ele>215.0</ele><time>2026-04-11T08:15:42.451Z</time></trkpt><trkpt lat="43.7467736" lon="12.732866"><ele>215.0</ele><time>2026-04-11T08:15:43.45Z</time></trkpt><trkpt lat="43.7468852" lon="12.7330103"><ele>211.0</ele><time>2026-04-11T08:15:44.451Z</time></trkpt><trkpt lat="43.7469728" lon="12.7331486"><ele>207.0</ele><time>2026-04-11T08:15:45.452Z</time></trkpt><trkpt lat="43.7470344" lon="12.7332916"><ele>203.0</ele><time>2026-04-11T08:15:46.45Z</time></trkpt><trkpt lat="43.7470806" lon="12.7334501"><ele>199.0</ele><time>2026-04-11T08:15:47.45Z</time></trkpt><trkpt lat="43.7471367" lon="12.7336153"><ele>198.25</ele><time>2026-04-11T08:15:48.45Z</time></trkpt><trkpt lat="43.7471973" lon="12.733778"><ele>197.5</ele><time>2026-04-11T08:15:49.45Z</time></trkpt><trkpt lat="43.7472483" lon="12.7339297"><ele>196.75</ele><time>2026-04-11T08:15:50.45Z</time></trkpt><trkpt lat="43.7472799" lon="12.7340871"><ele>196.0</ele><time>2026-04-11T08:15:51.451Z</time></trkpt><trkpt lat="43.747286" lon="12.7342407"><ele>194.25</ele><time>2026-04-11T08:15:52.45Z</time></trkpt><trkpt lat="43.7472733" lon="12.7343952"><ele>192.5</ele><time>2026-04-11T08:15:53.451Z</time></trkpt><trkpt lat="43.7472306" lon="12.7345579"><ele>190.75</ele><time>2026-04-11T08:15:54.451Z</time></trkpt><trkpt lat="43.7471749" lon="12.7347348"><ele>189.0</ele><time>2026-04-11T08:15:55.45Z</time></trkpt><trkpt lat="43.7471326" lon="12.7348956"><ele>189.0</ele><time>2026-04-11T08:15:56.451Z</time></trkpt><trkpt lat="43.7470976" lon="12.73503"><ele>189.0</ele><time>2026-04-11T08:15:57.45Z</time></trkpt><trkpt lat="43.747071" lon="12.7351307"><ele>189.0</ele><time>2026-04-11T08:15:58.451Z</time></trkpt><trkpt lat="43.7470696" lon="12.7352214"><ele>189.0</ele><time>2026-04-11T08:15:59.45Z</time></trkpt><trkpt lat="43.747103" lon="12.7352959"><ele>189.0</ele><time>2026-04-11T08:16:00.45Z</time></trkpt><trkpt lat="43.7472469" lon="12.7353025"><ele>189.0</ele><time>2026-04-11T08:16:02.452Z</time></trkpt><trkpt lat="43.7473563" lon="12.7352636"><ele>189.0</ele><time>2026-04-11T08:16:03.451Z</time></trkpt><trkpt lat="43.7474564" lon="12.7352308"><ele>189.0</ele><time>2026-04-11T08:16:04.45Z</time></trkpt><trkpt lat="43.7475428" lon="12.7352199"><ele>189.0</ele><time>2026-04-11T08:16:05.451Z</time></trkpt><trkpt lat="43.7476159" lon="12.73524"><ele>189.0</ele><time>2026-04-11T08:16:06.451Z</time></trkpt><trkpt lat="43.7476878" lon="12.7352846"><ele>186.75</ele><time>2026-04-11T08:16:07.45Z</time></trkpt><trkpt lat="43.747754" lon="12.735363"><ele>184.5</ele><time>2026-04-11T08:16:08.45Z</time></trkpt><trkpt lat="43.747811" lon="12.735479"><ele>182.25</ele><time>2026-04-11T08:16:09.45Z</time></trkpt><trkpt lat="43.7478672" lon="12.7356365"><ele>180.0</ele><time>2026-04-11T08:16:10.45Z</time></trkpt><trkpt lat="43.7479385" lon="12.735825"><ele>180.0</ele><time>2026-04-11T08:16:11.451Z</time></trkpt><trkpt lat="43.7480183" lon="12.7360161"><ele>180.0</ele><time>2026-04-11T08:16:12.451Z</time></trkpt><trkpt lat="43.7480929" lon="12.7361864"><ele>180.0</ele><time>2026-04-11T08:16:13.451Z</time></trkpt><trkpt lat="43.7481776" lon="12.7363354"><ele>180.0</ele><time>2026-04-11T08:16:14.45Z</time></trkpt><trkpt lat="43.7482766" lon="12.7364495"><ele>180.0</ele><time>2026-04-11T08:16:15.45Z</time></trkpt><trkpt lat="43.74838" lon="12.7365317"><ele>180.0</ele><time>2026-04-11T08:16:16.45Z</time></trkpt><trkpt lat="43.7484705" lon="12.7365949"><ele>180.0</ele><time>2026-04-11T08:16:17.45Z</time></trkpt><trkpt lat="43.7485404" lon="12.7366588"><ele>180.0</ele><time>2026-04-11T08:16:18.45Z</time></trkpt><trkpt lat="43.7485882" lon="12.7367451"><ele>180.0</ele><time>2026-04-11T08:16:19.451Z</time></trkpt><trkpt lat="43.7486041" lon="12.7368571"><ele>180.25</ele><time>2026-04-11T08:16:20.45Z</time></trkpt><trkpt lat="43.7486335" lon="12.7369727"><ele>180.5</ele><time>2026-04-11T08:16:21.451Z</time></trkpt><trkpt lat="43.7487052" lon="12.7370655"><ele>180.75</ele><time>2026-04-11T08:16:22.45Z</time></trkpt><trkpt lat="43.7488077" lon="12.7371479"><ele>181.0</ele><time>2026-04-11T08:16:23.45Z</time></trkpt><trkpt lat="43.7489403" lon="12.7372384"><ele>181.0</ele><time>2026-04-11T08:16:24.451Z</time></trkpt><trkpt lat="43.7490902" lon="12.7373547"><ele>181.0</ele><time>2026-04-11T08:16:25.45Z</time></trkpt><trkpt lat="43.7492483" lon="12.7374881"><ele>181.0</ele><time>2026-04-11T08:16:26.451Z</time></trkpt><trkpt lat="43.7494071" lon="12.7376186"><ele>180.33333333333334</ele><time>2026-04-11T08:16:27.451Z</time></trkpt><trkpt lat="43.7495553" lon="12.7377387"><ele>179.66666666666666</ele><time>2026-04-11T08:16:28.45Z</time></trkpt><trkpt lat="43.7496947" lon="12.7378515"><ele>179.0</ele><time>2026-04-11T08:16:29.45Z</time></trkpt><trkpt lat="43.7498328" lon="12.7379573"><ele>179.0</ele><time>2026-04-11T08:16:30.45Z</time></trkpt><trkpt lat="43.7499715" lon="12.7380695"><ele>179.0</ele><time>2026-04-11T08:16:31.45Z</time></trkpt><trkpt lat="43.7501163" lon="12.7381747"><ele>179.0</ele><time>2026-04-11T08:16:32.451Z</time></trkpt><trkpt lat="43.7502681" lon="12.7382689"><ele>178.5</ele><time>2026-04-11T08:16:33.451Z</time></trkpt><trkpt lat="43.7504232" lon="12.738341"><ele>178.0</ele><time>2026-04-11T08:16:34.451Z</time></trkpt><trkpt lat="43.7505654" lon="12.7383953"><ele>177.5</ele><time>2026-04-11T08:16:35.451Z</time></trkpt><trkpt lat="43.750698" lon="12.7384434"><ele>177.0</ele><time>2026-04-11T08:16:36.451Z</time></trkpt><trkpt lat="43.750826" lon="12.7384618"><ele>177.0</ele><time>2026-04-11T08:16:37.45Z</time></trkpt><trkpt lat="43.7509534" lon="12.7384439"><ele>177.0</ele><time>2026-04-11T08:16:38.451Z</time></trkpt><trkpt lat="43.7510822" lon="12.7383934"><ele>177.0</ele><time>2026-04-11T08:16:39.45Z</time></trkpt><trkpt lat="43.7512103" lon="12.7383138"><ele>177.0</ele><time>2026-04-11T08:16:40.45Z</time></trkpt><trkpt lat="43.7513495" lon="12.7382072"><ele>177.33333333333334</ele><time>2026-04-11T08:16:41.451Z</time></trkpt><trkpt lat="43.7514932" lon="12.7380939"><ele>177.66666666666669</ele><time>2026-04-11T08:16:42.45Z</time></trkpt><trkpt lat="43.751625" lon="12.7379909"><ele>178.0</ele><time>2026-04-11T08:16:43.451Z</time></trkpt><trkpt lat="43.7517501" lon="12.7378876"><ele>178.0</ele><time>2026-04-11T08:16:44.45Z</time></trkpt><trkpt lat="43.7518695" lon="12.7377829"><ele>178.0</ele><time>2026-04-11T08:16:45.451Z</time></trkpt><trkpt lat="43.7519928" lon="12.737691"><ele>178.0</ele><time>2026-04-11T08:16:46.45Z</time></trkpt><trkpt lat="43.7521325" lon="12.7376216"><ele>178.0</ele><time>2026-04-11T08:16:47.45Z</time></trkpt><trkpt lat="43.7522794" lon="12.7375806"><ele>175.33333333333334</ele><time>2026-04-11T08:16:48.451Z</time></trkpt><trkpt lat="43.7524348" lon="12.7375783"><ele>172.66666666666666</ele><time>2026-04-11T08:16:49.45Z</time></trkpt><trkpt lat="43.7526022" lon="12.7376177"><ele>170.0</ele><time>2026-04-11T08:16:50.45Z</time></trkpt><trkpt lat="43.7527831" lon="12.7376794"><ele>172.0</ele><time>2026-04-11T08:16:51.45Z</time></trkpt><trkpt lat="43.7529722" lon="12.7377412"><ele>174.0</ele><time>2026-04-11T08:16:52.45Z</time></trkpt><trkpt lat="43.7531723" lon="12.7377726"><ele>176.0</ele><time>2026-04-11T08:16:53.45Z</time></trkpt><trkpt lat="43.7533555" lon="12.7377932"><ele>176.0</ele><time>2026-04-11T08:16:54.451Z</time></trkpt><trkpt lat="43.7535187" lon="12.7378257"><ele>176.0</ele><time>2026-04-11T08:16:55.451Z</time></trkpt><trkpt lat="43.7536621" lon="12.7378594"><ele>176.0</ele><time>2026-04-11T08:16:56.451Z</time></trkpt><trkpt lat="43.7537945" lon="12.73789"><ele>176.0</ele><time>2026-04-11T08:16:57.45Z</time></trkpt><trkpt lat="43.7539317" lon="12.7379217"><ele>175.5</ele><time>2026-04-11T08:16:58.45Z</time></trkpt><trkpt lat="43.7540757" lon="12.7379456"><ele>175.0</ele><time>2026-04-11T08:16:59.45Z</time></trkpt><trkpt lat="43.7542193" lon="12.7379845"><ele>174.5</ele><time>2026-04-11T08:17:00.451Z</time></trkpt><trkpt lat="43.7543528" lon="12.738041"><ele>174.0</ele><time>2026-04-11T08:17:01.451Z</time></trkpt><trkpt lat="43.7544924" lon="12.7381092"><ele>174.0</ele><time>2026-04-11T08:17:02.45Z</time></trkpt><trkpt lat="43.7546417" lon="12.7381499"><ele>174.0</ele><time>2026-04-11T08:17:03.45Z</time></trkpt><trkpt lat="43.7547844" lon="12.7381794"><ele>174.0</ele><time>2026-04-11T08:17:04.451Z</time></trkpt><trkpt lat="43.7549182" lon="12.738205"><ele>174.0</ele><time>2026-04-11T08:17:05.45Z</time></trkpt><trkpt lat="43.755055" lon="12.7381978"><ele>175.33333333333334</ele><time>2026-04-11T08:17:06.451Z</time></trkpt><trkpt lat="43.7552125" lon="12.7381666"><ele>176.66666666666669</ele><time>2026-04-11T08:17:07.451Z</time></trkpt><trkpt lat="43.75539" lon="12.7381069"><ele>178.0</ele><time>2026-04-11T08:17:08.45Z</time></trkpt><trkpt lat="43.755559" lon="12.7380614"><ele>178.0</ele><time>2026-04-11T08:17:09.45Z</time></trkpt><trkpt lat="43.7557191" lon="12.7380283"><ele>178.0</ele><time>2026-04-11T08:17:10.45Z</time></trkpt><trkpt lat="43.755879" lon="12.7380116"><ele>178.0</ele><time>2026-04-11T08:17:11.45Z</time></trkpt><trkpt lat="43.7560197" lon="12.7380053"><ele>175.5</ele><time>2026-04-11T08:17:12.45Z</time></trkpt><trkpt lat="43.7561391" lon="12.7380344"><ele>173.0</ele><time>2026-04-11T08:17:13.45Z</time></trkpt><trkpt lat="43.7562296" lon="12.7380872"><ele>170.5</ele><time>2026-04-11T08:17:14.45Z</time></trkpt><trkpt lat="43.7563224" lon="12.7381868"><ele>168.0</ele><time>2026-04-11T08:17:15.451Z</time></trkpt><trkpt lat="43.7564025" lon="12.7383157"><ele>168.0</ele><time>2026-04-11T08:17:16.45Z</time></trkpt><trkpt lat="43.7564708" lon="12.7384413"><ele>168.0</ele><time>2026-04-11T08:17:17.451Z</time></trkpt><trkpt lat="43.756529" lon="12.738546"><ele>168.0</ele><time>2026-04-11T08:17:18.45Z</time></trkpt><trkpt lat="43.7565844" lon="12.7386121"><ele>168.0</ele><time>2026-04-11T08:17:19.45Z</time></trkpt><trkpt lat="43.7566485" lon="12.7386905"><ele>168.0</ele><time>2026-04-11T08:17:38.45Z</time></trkpt><trkpt lat="43.7566437" lon="12.7388211"><ele>169.2</ele><time>2026-04-11T08:17:40.451Z</time></trkpt><trkpt lat="43.7566244" lon="12.7389174"><ele>170.4</ele><time>2026-04-11T08:17:41.45Z</time></trkpt><trkpt lat="43.7565877" lon="12.7390258"><ele>171.6</ele><time>2026-04-11T08:17:42.451Z</time></trkpt><trkpt lat="43.7565449" lon="12.7391563"><ele>172.79999999999998</ele><time>2026-04-11T08:17:43.45Z</time></trkpt><trkpt lat="43.7564919" lon="12.7392907"><ele>174.0</ele><time>2026-04-11T08:17:44.45Z</time></trkpt><trkpt lat="43.7564506" lon="12.739405"><ele>174.16666666666666</ele><time>2026-04-11T08:17:45.45Z</time></trkpt><trkpt lat="43.7564258" lon="12.7395163"><ele>174.33333333333334</ele><time>2026-04-11T08:17:46.451Z</time></trkpt><trkpt lat="43.7564053" lon="12.7396255"><ele>174.5</ele><time>2026-04-11T08:17:47.452Z</time></trkpt><trkpt lat="43.756429" lon="12.7397169"><ele>174.66666666666669</ele><time>2026-04-11T08:17:48.451Z</time></trkpt><trkpt lat="43.7564804" lon="12.7397852"><ele>174.83333333333334</ele><time>2026-04-11T08:17:49.45Z</time></trkpt><trkpt lat="43.7565726" lon="12.7398431"><ele>175.0</ele><time>2026-04-11T08:17:51.451Z</time></trkpt><trkpt lat="43.7566913" lon="12.7397955"><ele>175.0</ele><time>2026-04-11T08:17:53.45Z</time></trkpt><trkpt lat="43.7567613" lon="12.7397387"><ele>175.0</ele><time>2026-04-11T08:17:54.452Z</time></trkpt><trkpt lat="43.7568355" lon="12.7396583"><ele>175.0</ele><time>2026-04-11T08:17:55.45Z</time></trkpt><trkpt lat="43.7568933" lon="12.7395655"><ele>175.0</ele><time>2026-04-11T08:17:56.45Z</time></trkpt><trkpt lat="43.75695" lon="12.739461"><ele>175.0</ele><time>2026-04-11T08:17:57.45Z</time></trkpt><trkpt lat="43.7569465" lon="12.7393186"><ele>176.83333333333334</ele><time>2026-04-11T08:17:58.45Z</time></trkpt><trkpt lat="43.7569744" lon="12.7391954"><ele>178.66666666666669</ele><time>2026-04-11T08:17:59.45Z</time></trkpt><trkpt lat="43.7570127" lon="12.7390962"><ele>180.5</ele><time>2026-04-11T08:18:00.45Z</time></trkpt><trkpt lat="43.7570577" lon="12.7390123"><ele>182.33333333333334</ele><time>2026-04-11T08:18:01.45Z</time></trkpt><trkpt lat="43.7571074" lon="12.7389266"><ele>184.16666666666666</ele><time>2026-04-11T08:18:02.45Z</time></trkpt><trkpt lat="43.7571682" lon="12.7388686"><ele>186.0</ele><time>2026-04-11T08:18:03.451Z</time></trkpt><trkpt lat="43.7572567" lon="12.7388643"><ele>186.0</ele><time>2026-04-11T08:18:04.45Z</time></trkpt><trkpt lat="43.7573396" lon="12.7388826"><ele>186.0</ele><time>2026-04-11T08:18:05.45Z</time></trkpt><trkpt lat="43.7574304" lon="12.738929"><ele>186.0</ele><time>2026-04-11T08:18:06.451Z</time></trkpt><trkpt lat="43.7575208" lon="12.7390014"><ele>186.0</ele><time>2026-04-11T08:18:07.45Z</time></trkpt><trkpt lat="43.7576076" lon="12.7390958"><ele>186.0</ele><time>2026-04-11T08:18:08.45Z</time></trkpt><trkpt lat="43.7576931" lon="12.7392107"><ele>185.0</ele><time>2026-04-11T08:18:09.45Z</time></trkpt><trkpt lat="43.7577812" lon="12.7393273"><ele>184.0</ele><time>2026-04-11T08:18:10.45Z</time></trkpt><trkpt lat="43.7578853" lon="12.7394394"><ele>183.0</ele><time>2026-04-11T08:18:11.451Z</time></trkpt><trkpt lat="43.7579894" lon="12.7395525"><ele>182.0</ele><time>2026-04-11T08:18:12.451Z</time></trkpt><trkpt lat="43.7580806" lon="12.739657"><ele>184.2</ele><time>2026-04-11T08:18:13.45Z</time></trkpt><trkpt lat="43.7581529" lon="12.7397465"><ele>186.39999999999998</ele><time>2026-04-11T08:18:14.45Z</time></trkpt><trkpt lat="43.7582127" lon="12.7398578"><ele>188.60000000000002</ele><time>2026-04-11T08:18:15.451Z</time></trkpt><trkpt lat="43.7582767" lon="12.7399624"><ele>190.8</ele><time>2026-04-11T08:18:16.451Z</time></trkpt><trkpt lat="43.7583607" lon="12.7400403"><ele>193.0</ele><time>2026-04-11T08:18:17.451Z</time></trkpt><trkpt lat="43.7584537" lon="12.7400957"><ele>192.49999999999997</ele><time>2026-04-11T08:18:18.452Z</time></trkpt><trkpt lat="43.7585361" lon="12.7401675"><ele>192.0</ele><time>2026-04-11T08:18:19.45Z</time></trkpt><trkpt lat="43.758596" lon="12.7402363"><ele>191.5</ele><time>2026-04-11T08:18:20.45Z</time></trkpt><trkpt lat="43.7586392" lon="12.740314"><ele>191.0</ele><time>2026-04-11T08:18:21.45Z</time></trkpt><trkpt lat="43.7586242" lon="12.7404367"><ele>190.5</ele><time>2026-04-11T08:18:23.45Z</time></trkpt><trkpt lat="43.7585369" lon="12.7404989"><ele>190.0</ele><time>2026-04-11T08:18:25.45Z</time></trkpt><trkpt lat="43.7584667" lon="12.7405246"><ele>193.5</ele><time>2026-04-11T08:18:26.45Z</time></trkpt><trkpt lat="43.7583782" lon="12.7405714"><ele>197.0</ele><time>2026-04-11T08:18:27.45Z</time></trkpt><trkpt lat="43.7582982" lon="12.7406309"><ele>200.5</ele><time>2026-04-11T08:18:28.451Z</time></trkpt><trkpt lat="43.7582306" lon="12.7407049"><ele>204.0</ele><time>2026-04-11T08:18:29.449Z</time></trkpt><trkpt lat="43.7581781" lon="12.7408059"><ele>207.49999999999997</ele><time>2026-04-11T08:18:30.45Z</time></trkpt><trkpt lat="43.7581353" lon="12.7409108"><ele>211.0</ele><time>2026-04-11T08:18:31.45Z</time></trkpt><trkpt lat="43.7581053" lon="12.7410015"><ele>214.20000000000002</ele><time>2026-04-11T08:18:32.45Z</time></trkpt><trkpt lat="43.7580921" lon="12.7410897"><ele>217.4</ele><time>2026-04-11T08:18:33.449Z</time></trkpt><trkpt lat="43.7581486" lon="12.7412155"><ele>220.6</ele><time>2026-04-11T08:18:35.449Z</time></trkpt><trkpt lat="43.7582864" lon="12.7412571"><ele>223.8</ele><time>2026-04-11T08:18:37.45Z</time></trkpt><trkpt lat="43.758377" lon="12.7412751"><ele>227.0</ele><time>2026-04-11T08:18:38.45Z</time></trkpt><trkpt lat="43.7584433" lon="12.7413292"><ele>227.00000000000003</ele><time>2026-04-11T08:18:39.449Z</time></trkpt><trkpt lat="43.7584915" lon="12.7414116"><ele>227.0</ele><time>2026-04-11T08:18:40.45Z</time></trkpt><trkpt lat="43.7585139" lon="12.741516"><ele>227.0</ele><time>2026-04-11T08:18:41.449Z</time></trkpt><trkpt lat="43.7585262" lon="12.7416344"><ele>227.0</ele><time>2026-04-11T08:18:42.451Z</time></trkpt><trkpt lat="43.7585192" lon="12.7417417"><ele>227.00000000000003</ele><time>2026-04-11T08:18:43.449Z</time></trkpt><trkpt lat="43.7585079" lon="12.7418349"><ele>227.0</ele><time>2026-04-11T08:18:44.449Z</time></trkpt><trkpt lat="43.7585126" lon="12.7419304"><ele>227.6</ele><time>2026-04-11T08:18:45.449Z</time></trkpt><trkpt lat="43.758544" lon="12.7420198"><ele>228.2</ele><time>2026-04-11T08:18:46.449Z</time></trkpt><trkpt lat="43.7586019" lon="12.7420995"><ele>228.8</ele><time>2026-04-11T08:18:47.449Z</time></trkpt><trkpt lat="43.7586915" lon="12.7421834"><ele>229.4</ele><time>2026-04-11T08:18:48.449Z</time></trkpt><trkpt lat="43.7587988" lon="12.7422804"><ele>230.0</ele><time>2026-04-11T08:18:49.449Z</time></trkpt><trkpt lat="43.7588868" lon="12.7423794"><ele>230.0</ele><time>2026-04-11T08:18:50.45Z</time></trkpt><trkpt lat="43.7589714" lon="12.7424663"><ele>230.0</ele><time>2026-04-11T08:18:51.449Z</time></trkpt><trkpt lat="43.7590566" lon="12.742532"><ele>230.0</ele><time>2026-04-11T08:18:52.449Z</time></trkpt><trkpt lat="43.7591513" lon="12.7425995"><ele>230.0</ele><time>2026-04-11T08:18:53.449Z</time></trkpt><trkpt lat="43.7592557" lon="12.7426704"><ele>230.0</ele><time>2026-04-11T08:18:54.449Z</time></trkpt><trkpt lat="43.7593717" lon="12.7427454"><ele>233.0</ele><time>2026-04-11T08:18:55.449Z</time></trkpt><trkpt lat="43.7594996" lon="12.7428114"><ele>236.0</ele><time>2026-04-11T08:18:56.449Z</time></trkpt><trkpt lat="43.7596294" lon="12.742859"><ele>239.0</ele><time>2026-04-11T08:18:57.45Z</time></trkpt><trkpt lat="43.7597525" lon="12.7428955"><ele>242.0</ele><time>2026-04-11T08:18:58.449Z</time></trkpt><trkpt lat="43.7598599" lon="12.7429394"><ele>242.0</ele><time>2026-04-11T08:18:59.449Z</time></trkpt><trkpt lat="43.7599591" lon="12.7430111"><ele>242.0</ele><time>2026-04-11T08:19:00.45Z</time></trkpt><trkpt lat="43.760059" lon="12.7430929"><ele>242.0</ele><time>2026-04-11T08:19:01.449Z</time></trkpt><trkpt lat="43.7601728" lon="12.7431575"><ele>242.0</ele><time>2026-04-11T08:19:02.449Z</time></trkpt><trkpt lat="43.7602952" lon="12.7432085"><ele>244.25</ele><time>2026-04-11T08:19:03.449Z</time></trkpt><trkpt lat="43.7604238" lon="12.7432515"><ele>246.5</ele><time>2026-04-11T08:19:04.449Z</time></trkpt><trkpt lat="43.7605521" lon="12.7432919"><ele>248.75</ele><time>2026-04-11T08:19:05.449Z</time></trkpt><trkpt lat="43.7606726" lon="12.7433286"><ele>251.0</ele><time>2026-04-11T08:19:06.449Z</time></trkpt><trkpt lat="43.7607876" lon="12.7433637"><ele>251.0</ele><time>2026-04-11T08:19:07.449Z</time></trkpt><trkpt lat="43.7608917" lon="12.7433995"><ele>251.00000000000003</ele><time>2026-04-11T08:19:08.45Z</time></trkpt><trkpt lat="43.7609814" lon="12.7434424"><ele>251.00000000000003</ele><time>2026-04-11T08:19:09.449Z</time></trkpt><trkpt lat="43.761048" lon="12.7434938"><ele>251.0</ele><time>2026-04-11T08:19:10.449Z</time></trkpt><trkpt lat="43.7610912" lon="12.7435597"><ele>251.0</ele><time>2026-04-11T08:19:11.45Z</time></trkpt><trkpt lat="43.7610717" lon="12.743717"><ele>252.8</ele><time>2026-04-11T08:19:13.449Z</time></trkpt><trkpt lat="43.7610223" lon="12.7437888"><ele>254.60000000000002</ele><time>2026-04-11T08:19:14.45Z</time></trkpt><trkpt lat="43.7609808" lon="12.7438716"><ele>256.4</ele><time>2026-04-11T08:19:15.45Z</time></trkpt><trkpt lat="43.7609863" lon="12.7440034"><ele>258.2</ele><time>2026-04-11T08:19:17.449Z</time></trkpt><trkpt lat="43.7610968" lon="12.744058"><ele>260.0</ele><time>2026-04-11T08:19:19.449Z</time></trkpt><trkpt lat="43.7611965" lon="12.7440763"><ele>261.75</ele><time>2026-04-11T08:19:20.45Z</time></trkpt><trkpt lat="43.7612971" lon="12.7441193"><ele>263.5</ele><time>2026-04-11T08:19:21.449Z</time></trkpt><trkpt lat="43.7613969" lon="12.744192"><ele>265.25</ele><time>2026-04-11T08:19:22.449Z</time></trkpt><trkpt lat="43.7614908" lon="12.7442899"><ele>267.0</ele><time>2026-04-11T08:19:23.449Z</time></trkpt><trkpt lat="43.7615815" lon="12.744393"><ele>267.5</ele><time>2026-04-11T08:19:24.45Z</time></trkpt><trkpt lat="43.7616727" lon="12.7444749"><ele>268.0</ele><time>2026-04-11T08:19:25.45Z</time></trkpt><trkpt lat="43.7617764" lon="12.7445451"><ele>268.5</ele><time>2026-04-11T08:19:26.45Z</time></trkpt><trkpt lat="43.7618945" lon="12.744596"><ele>269.0</ele><time>2026-04-11T08:19:27.449Z</time></trkpt><trkpt lat="43.762031" lon="12.7446302"><ele>272.25</ele><time>2026-04-11T08:19:28.449Z</time></trkpt><trkpt lat="43.7621682" lon="12.7446529"><ele>275.5</ele><time>2026-04-11T08:19:29.449Z</time></trkpt><trkpt lat="43.7622915" lon="12.7446746"><ele>278.75</ele><time>2026-04-11T08:19:30.449Z</time></trkpt><trkpt lat="43.7623974" lon="12.744696"><ele>282.0</ele><time>2026-04-11T08:19:31.449Z</time></trkpt><trkpt lat="43.7624781" lon="12.7447309"><ele>282.0</ele><time>2026-04-11T08:19:32.449Z</time></trkpt><trkpt lat="43.7625459" lon="12.7447915"><ele>282.0</ele><time>2026-04-11T08:19:33.449Z</time></trkpt><trkpt lat="43.7625856" lon="12.7448856"><ele>282.0</ele><time>2026-04-11T08:19:34.449Z</time></trkpt><trkpt lat="43.7626131" lon="12.7449925"><ele>282.0</ele><time>2026-04-11T08:19:35.45Z</time></trkpt><trkpt lat="43.7626519" lon="12.7450783"><ele>282.0</ele><time>2026-04-11T08:19:36.449Z</time></trkpt><trkpt lat="43.7627105" lon="12.7451443"><ele>282.0</ele><time>2026-04-11T08:19:37.449Z</time></trkpt><trkpt lat="43.7627858" lon="12.7451872"><ele>285.0</ele><time>2026-04-11T08:19:38.449Z</time></trkpt><trkpt lat="43.7628749" lon="12.7452069"><ele>288.0</ele><time>2026-04-11T08:19:39.449Z</time></trkpt><trkpt lat="43.7629779" lon="12.7452097"><ele>291.0</ele><time>2026-04-11T08:19:40.45Z</time></trkpt><trkpt lat="43.7631019" lon="12.7452329"><ele>294.0</ele><time>2026-04-11T08:19:41.449Z</time></trkpt><trkpt lat="43.763233" lon="12.7452945"><ele>294.8</ele><time>2026-04-11T08:19:42.449Z</time></trkpt><trkpt lat="43.7633398" lon="12.7453521"><ele>295.59999999999997</ele><time>2026-04-11T08:19:43.449Z</time></trkpt><trkpt lat="43.7634297" lon="12.7454071"><ele>296.4</ele><time>2026-04-11T08:19:44.449Z</time></trkpt><trkpt lat="43.7635132" lon="12.7454831"><ele>297.2</ele><time>2026-04-11T08:19:45.449Z</time></trkpt><trkpt lat="43.7635918" lon="12.7455763"><ele>298.0</ele><time>2026-04-11T08:19:46.449Z</time></trkpt><trkpt lat="43.7636699" lon="12.745675"><ele>298.16666666666663</ele><time>2026-04-11T08:19:47.449Z</time></trkpt><trkpt lat="43.763735" lon="12.7457666"><ele>298.3333333333333</ele><time>2026-04-11T08:19:48.449Z</time></trkpt><trkpt lat="43.7637856" lon="12.7458466"><ele>298.5</ele><time>2026-04-11T08:19:49.449Z</time></trkpt><trkpt lat="43.763826" lon="12.7459155"><ele>298.6666666666667</ele><time>2026-04-11T08:19:50.449Z</time></trkpt><trkpt lat="43.763881" lon="12.7460188"><ele>298.83333333333337</ele><time>2026-04-11T08:19:52.45Z</time></trkpt><trkpt lat="43.7638751" lon="12.7461692"><ele>299.0</ele><time>2026-04-11T08:19:54.449Z</time></trkpt><trkpt lat="43.7638306" lon="12.7462645"><ele>299.0</ele><time>2026-04-11T08:19:55.449Z</time></trkpt><trkpt lat="43.7637804" lon="12.7463826"><ele>299.0</ele><time>2026-04-11T08:19:56.449Z</time></trkpt><trkpt lat="43.7637239" lon="12.7465231"><ele>299.0</ele><time>2026-04-11T08:19:57.449Z</time></trkpt><trkpt lat="43.7636684" lon="12.7466805"><ele>299.0</ele><time>2026-04-11T08:19:58.45Z</time></trkpt><trkpt lat="43.763625" lon="12.7468541"><ele>296.75</ele><time>2026-04-11T08:19:59.449Z</time></trkpt><trkpt lat="43.7635938" lon="12.7470432"><ele>294.5</ele><time>2026-04-11T08:20:00.45Z</time></trkpt><trkpt lat="43.7635782" lon="12.7472277"><ele>292.25</ele><time>2026-04-11T08:20:01.449Z</time></trkpt><trkpt lat="43.7635777" lon="12.7474177"><ele>290.0</ele><time>2026-04-11T08:20:02.45Z</time></trkpt><trkpt lat="43.7635945" lon="12.7476164"><ele>290.0</ele><time>2026-04-11T08:20:03.45Z</time></trkpt><trkpt lat="43.7636173" lon="12.7478212"><ele>290.0</ele><time>2026-04-11T08:20:04.449Z</time></trkpt><trkpt lat="43.7636449" lon="12.7480321"><ele>290.0</ele><time>2026-04-11T08:20:05.449Z</time></trkpt><trkpt lat="43.763676" lon="12.7482528"><ele>290.0</ele><time>2026-04-11T08:20:06.45Z</time></trkpt><trkpt lat="43.7637005" lon="12.7484619"><ele>290.0</ele><time>2026-04-11T08:20:07.449Z</time></trkpt><trkpt lat="43.7637113" lon="12.7486702"><ele>290.0</ele><time>2026-04-11T08:20:08.45Z</time></trkpt><trkpt lat="43.7637047" lon="12.7489013"><ele>289.6666666666667</ele><time>2026-04-11T08:20:09.449Z</time></trkpt><trkpt lat="43.7636866" lon="12.7491323"><ele>289.3333333333333</ele><time>2026-04-11T08:20:10.451Z</time></trkpt><trkpt lat="43.7636604" lon="12.7493982"><ele>289.0</ele><time>2026-04-11T08:20:11.449Z</time></trkpt><trkpt lat="43.7636275" lon="12.7496648"><ele>290.66666666666663</ele><time>2026-04-11T08:20:12.449Z</time></trkpt><trkpt lat="43.763601" lon="12.7498993"><ele>292.3333333333333</ele><time>2026-04-11T08:20:13.449Z</time></trkpt><trkpt lat="43.7635691" lon="12.7501295"><ele>294.0</ele><time>2026-04-11T08:20:14.449Z</time></trkpt><trkpt lat="43.7635058" lon="12.7503734"><ele>299.3333333333333</ele><time>2026-04-11T08:20:15.449Z</time></trkpt><trkpt lat="43.7634045" lon="12.7506279"><ele>304.66666666666663</ele><time>2026-04-11T08:20:16.449Z</time></trkpt><trkpt lat="43.7632866" lon="12.7509038"><ele>310.0</ele><time>2026-04-11T08:20:17.45Z</time></trkpt><trkpt lat="43.7631586" lon="12.7512116"><ele>310.5</ele><time>2026-04-11T08:20:18.449Z</time></trkpt><trkpt lat="43.7630336" lon="12.7515052"><ele>311.0</ele><time>2026-04-11T08:20:19.449Z</time></trkpt><trkpt lat="43.7629193" lon="12.7517694"><ele>310.6666666666667</ele><time>2026-04-11T08:20:20.449Z</time></trkpt><trkpt lat="43.7628112" lon="12.752034"><ele>310.3333333333333</ele><time>2026-04-11T08:20:21.449Z</time></trkpt><trkpt lat="43.7627181" lon="12.7523194"><ele>310.0</ele><time>2026-04-11T08:20:22.449Z</time></trkpt><trkpt lat="43.7626327" lon="12.7526079"><ele>315.3333333333333</ele><time>2026-04-11T08:20:23.45Z</time></trkpt><trkpt lat="43.7625566" lon="12.7528593"><ele>320.6666666666667</ele><time>2026-04-11T08:20:24.449Z</time></trkpt><trkpt lat="43.7624715" lon="12.7530875"><ele>326.0</ele><time>2026-04-11T08:20:25.451Z</time></trkpt><trkpt lat="43.762365" lon="12.7532998"><ele>326.0</ele><time>2026-04-11T08:20:26.449Z</time></trkpt><trkpt lat="43.7622452" lon="12.7534726"><ele>326.0</ele><time>2026-04-11T08:20:27.449Z</time></trkpt><trkpt lat="43.7621365" lon="12.7536514"><ele>326.0</ele><time>2026-04-11T08:20:28.45Z</time></trkpt><trkpt lat="43.7620546" lon="12.7538308"><ele>325.25</ele><time>2026-04-11T08:20:29.449Z</time></trkpt><trkpt lat="43.7620018" lon="12.753999"><ele>324.5</ele><time>2026-04-11T08:20:30.449Z</time></trkpt><trkpt lat="43.7619883" lon="12.7541498"><ele>323.75</ele><time>2026-04-11T08:20:31.449Z</time></trkpt><trkpt lat="43.7620228" lon="12.7543008"><ele>323.0</ele><time>2026-04-11T08:20:32.449Z</time></trkpt><trkpt lat="43.7620992" lon="12.7544195"><ele>323.0</ele><time>2026-04-11T08:20:33.449Z</time></trkpt><trkpt lat="43.7622122" lon="12.7544938"><ele>323.0</ele><time>2026-04-11T08:20:34.45Z</time></trkpt><trkpt lat="43.7623607" lon="12.7545313"><ele>323.0</ele><time>2026-04-11T08:20:35.451Z</time></trkpt><trkpt lat="43.762528" lon="12.7545541"><ele>323.0</ele><time>2026-04-11T08:20:36.449Z</time></trkpt><trkpt lat="43.7626717" lon="12.7545985"><ele>329.25</ele><time>2026-04-11T08:20:37.449Z</time></trkpt><trkpt lat="43.7628011" lon="12.7546658"><ele>335.5</ele><time>2026-04-11T08:20:38.449Z</time></trkpt><trkpt lat="43.7629159" lon="12.7547694"><ele>341.75</ele><time>2026-04-11T08:20:39.45Z</time></trkpt><trkpt lat="43.7629989" lon="12.7549246"><ele>348.0</ele><time>2026-04-11T08:20:40.449Z</time></trkpt><trkpt lat="43.7630622" lon="12.7551301"><ele>347.6666666666667</ele><time>2026-04-11T08:20:41.449Z</time></trkpt><trkpt lat="43.7631208" lon="12.7553725"><ele>347.33333333333337</ele><time>2026-04-11T08:20:42.449Z</time></trkpt><trkpt lat="43.7631857" lon="12.7556441"><ele>347.0</ele><time>2026-04-11T08:20:43.449Z</time></trkpt><trkpt lat="43.7632443" lon="12.7558836"><ele>348.0</ele><time>2026-04-11T08:20:44.449Z</time></trkpt><trkpt lat="43.7632885" lon="12.7561007"><ele>349.0</ele><time>2026-04-11T08:20:45.45Z</time></trkpt><trkpt lat="43.7633094" lon="12.7563118"><ele>350.0</ele><time>2026-04-11T08:20:46.449Z</time></trkpt><trkpt lat="43.7632952" lon="12.7565481"><ele>350.0</ele><time>2026-04-11T08:20:47.45Z</time></trkpt><trkpt lat="43.7632595" lon="12.756812"><ele>350.0</ele><time>2026-04-11T08:20:48.449Z</time></trkpt><trkpt lat="43.7632222" lon="12.7570663"><ele>350.0</ele><time>2026-04-11T08:20:49.449Z</time></trkpt><trkpt lat="43.7631734" lon="12.7572766"><ele>352.75</ele><time>2026-04-11T08:20:50.449Z</time></trkpt><trkpt lat="43.763102" lon="12.7574284"><ele>355.5</ele><time>2026-04-11T08:20:51.449Z</time></trkpt><trkpt lat="43.7630038" lon="12.757526"><ele>358.25</ele><time>2026-04-11T08:20:52.449Z</time></trkpt><trkpt lat="43.7628926" lon="12.757585"><ele>361.0</ele><time>2026-04-11T08:20:53.449Z</time></trkpt><trkpt lat="43.7627803" lon="12.757656"><ele>360.0</ele><time>2026-04-11T08:20:54.449Z</time></trkpt><trkpt lat="43.7626925" lon="12.7577609"><ele>359.0</ele><time>2026-04-11T08:20:55.449Z</time></trkpt><trkpt lat="43.7626431" lon="12.7578931"><ele>358.0</ele><time>2026-04-11T08:20:56.449Z</time></trkpt><trkpt lat="43.7626396" lon="12.7580348"><ele>357.0</ele><time>2026-04-11T08:20:57.449Z</time></trkpt><trkpt lat="43.7626736" lon="12.7581826"><ele>356.0</ele><time>2026-04-11T08:20:58.45Z</time></trkpt><trkpt lat="43.7627448" lon="12.7583367"><ele>361.25</ele><time>2026-04-11T08:20:59.449Z</time></trkpt><trkpt lat="43.762809" lon="12.7584851"><ele>366.5</ele><time>2026-04-11T08:21:00.449Z</time></trkpt><trkpt lat="43.7628257" lon="12.758651"><ele>371.75</ele><time>2026-04-11T08:21:01.45Z</time></trkpt><trkpt lat="43.7628082" lon="12.7588523"><ele>377.0</ele><time>2026-04-11T08:21:02.449Z</time></trkpt><trkpt lat="43.7627713" lon="12.7590788"><ele>378.0</ele><time>2026-04-11T08:21:03.449Z</time></trkpt><trkpt lat="43.762729" lon="12.7593371"><ele>379.0</ele><time>2026-04-11T08:21:04.449Z</time></trkpt><trkpt lat="43.7626877" lon="12.759596"><ele>380.0</ele><time>2026-04-11T08:21:05.449Z</time></trkpt><trkpt lat="43.7626467" lon="12.759818"><ele>378.5</ele><time>2026-04-11T08:21:06.449Z</time></trkpt><trkpt lat="43.7625923" lon="12.7600077"><ele>377.0</ele><time>2026-04-11T08:21:07.449Z</time></trkpt><trkpt lat="43.7625121" lon="12.7601492"><ele>375.5</ele><time>2026-04-11T08:21:08.449Z</time></trkpt><trkpt lat="43.7624134" lon="12.7602244"><ele>374.0</ele><time>2026-04-11T08:21:09.45Z</time></trkpt><trkpt lat="43.7623026" lon="12.7602327"><ele>374.0</ele><time>2026-04-11T08:21:10.449Z</time></trkpt><trkpt lat="43.7621825" lon="12.7601707"><ele>374.0</ele><time>2026-04-11T08:21:11.449Z</time></trkpt><trkpt lat="43.7620655" lon="12.7600501"><ele>374.0</ele><time>2026-04-11T08:21:12.45Z</time></trkpt><trkpt lat="43.761953" lon="12.7598817"><ele>374.0</ele><time>2026-04-11T08:21:13.45Z</time></trkpt><trkpt lat="43.7618436" lon="12.7596962"><ele>376.0</ele><time>2026-04-11T08:21:14.449Z</time></trkpt><trkpt lat="43.7617291" lon="12.7595587"><ele>378.0</ele><time>2026-04-11T08:21:15.449Z</time></trkpt><trkpt lat="43.7616036" lon="12.7594535"><ele>380.0</ele><time>2026-04-11T08:21:16.449Z</time></trkpt><trkpt lat="43.7614672" lon="12.759392"><ele>382.0</ele><time>2026-04-11T08:21:17.451Z</time></trkpt><trkpt lat="43.7613278" lon="12.7593881"><ele>382.0</ele><time>2026-04-11T08:21:18.449Z</time></trkpt><trkpt lat="43.761186" lon="12.759442"><ele>382.0</ele><time>2026-04-11T08:21:19.449Z</time></trkpt><trkpt lat="43.7610586" lon="12.7595074"><ele>382.0</ele><time>2026-04-11T08:21:20.449Z</time></trkpt><trkpt lat="43.7609268" lon="12.7595353"><ele>382.0</ele><time>2026-04-11T08:21:21.449Z</time></trkpt><trkpt lat="43.7607946" lon="12.7594976"><ele>379.3333333333333</ele><time>2026-04-11T08:21:22.45Z</time></trkpt><trkpt lat="43.7606554" lon="12.7593903"><ele>376.6666666666667</ele><time>2026-04-11T08:21:23.449Z</time></trkpt><trkpt lat="43.7605096" lon="12.7592295"><ele>374.0</ele><time>2026-04-11T08:21:24.449Z</time></trkpt><trkpt lat="43.7603453" lon="12.759057"><ele>372.0</ele><time>2026-04-11T08:21:25.45Z</time></trkpt><trkpt lat="43.7601967" lon="12.758915"><ele>370.0</ele><time>2026-04-11T08:21:26.45Z</time></trkpt><trkpt lat="43.760062" lon="12.7587912"><ele>368.0</ele><time>2026-04-11T08:21:27.449Z</time></trkpt><trkpt lat="43.7599449" lon="12.7586824"><ele>368.0</ele><time>2026-04-11T08:21:28.449Z</time></trkpt><trkpt lat="43.7598223" lon="12.7586009"><ele>368.0</ele><time>2026-04-11T08:21:29.451Z</time></trkpt><trkpt lat="43.7596848" lon="12.7585693"><ele>368.0</ele><time>2026-04-11T08:21:30.449Z</time></trkpt><trkpt lat="43.7595215" lon="12.7585907"><ele>368.0</ele><time>2026-04-11T08:21:31.449Z</time></trkpt><trkpt lat="43.7593336" lon="12.7586543"><ele>369.0</ele><time>2026-04-11T08:21:32.449Z</time></trkpt><trkpt lat="43.7591384" lon="12.7587233"><ele>370.0</ele><time>2026-04-11T08:21:33.449Z</time></trkpt><trkpt lat="43.7589588" lon="12.7587752"><ele>371.0</ele><time>2026-04-11T08:21:34.449Z</time></trkpt><trkpt lat="43.7587754" lon="12.7587998"><ele>371.0</ele><time>2026-04-11T08:21:35.449Z</time></trkpt><trkpt lat="43.7585999" lon="12.7587902"><ele>371.0</ele><time>2026-04-11T08:21:36.449Z</time></trkpt><trkpt lat="43.75844" lon="12.7587524"><ele>371.0</ele><time>2026-04-11T08:21:37.451Z</time></trkpt><trkpt lat="43.7582751" lon="12.7586684"><ele>372.0</ele><time>2026-04-11T08:21:38.45Z</time></trkpt><trkpt lat="43.7581333" lon="12.7585362"><ele>373.0</ele><time>2026-04-11T08:21:39.449Z</time></trkpt><trkpt lat="43.7579905" lon="12.758409"><ele>374.0</ele><time>2026-04-11T08:21:40.449Z</time></trkpt><trkpt lat="43.7578484" lon="12.7583064"><ele>372.0</ele><time>2026-04-11T08:21:41.449Z</time></trkpt><trkpt lat="43.7577059" lon="12.7582343"><ele>370.0</ele><time>2026-04-11T08:21:42.449Z</time></trkpt><trkpt lat="43.7575455" lon="12.7582089"><ele>368.0</ele><time>2026-04-11T08:21:43.449Z</time></trkpt><trkpt lat="43.7573814" lon="12.7582305"><ele>368.0</ele><time>2026-04-11T08:21:44.45Z</time></trkpt><trkpt lat="43.7572363" lon="12.7582786"><ele>368.0</ele><time>2026-04-11T08:21:45.449Z</time></trkpt><trkpt lat="43.7570794" lon="12.7583767"><ele>368.0</ele><time>2026-04-11T08:21:46.449Z</time></trkpt><trkpt lat="43.7569012" lon="12.7584948"><ele>369.0</ele><time>2026-04-11T08:21:47.45Z</time></trkpt><trkpt lat="43.7567024" lon="12.7586204"><ele>370.0</ele><time>2026-04-11T08:21:48.45Z</time></trkpt><trkpt lat="43.7565156" lon="12.7587359"><ele>371.0</ele><time>2026-04-11T08:21:49.45Z</time></trkpt><trkpt lat="43.7563408" lon="12.7588401"><ele>371.0</ele><time>2026-04-11T08:21:50.45Z</time></trkpt><trkpt lat="43.7561767" lon="12.7589346"><ele>371.0</ele><time>2026-04-11T08:21:51.449Z</time></trkpt><trkpt lat="43.7560206" lon="12.7590248"><ele>371.0</ele><time>2026-04-11T08:21:52.449Z</time></trkpt><trkpt lat="43.7558609" lon="12.7591089"><ele>369.33333333333337</ele><time>2026-04-11T08:21:53.45Z</time></trkpt><trkpt lat="43.7556972" lon="12.7591771"><ele>367.6666666666667</ele><time>2026-04-11T08:21:54.449Z</time></trkpt><trkpt lat="43.7555082" lon="12.759222"><ele>366.0</ele><time>2026-04-11T08:21:55.449Z</time></trkpt><trkpt lat="43.7553345" lon="12.7592583"><ele>366.25</ele><time>2026-04-11T08:21:56.449Z</time></trkpt><trkpt lat="43.7551881" lon="12.7593004"><ele>366.5</ele><time>2026-04-11T08:21:57.451Z</time></trkpt><trkpt lat="43.7550503" lon="12.75935"><ele>366.75</ele><time>2026-04-11T08:21:58.45Z</time></trkpt><trkpt lat="43.7549175" lon="12.7594407"><ele>367.0</ele><time>2026-04-11T08:21:59.45Z</time></trkpt><trkpt lat="43.7547838" lon="12.7595863"><ele>369.66666666666663</ele><time>2026-04-11T08:22:00.45Z</time></trkpt><trkpt lat="43.7546613" lon="12.7597967"><ele>372.3333333333333</ele><time>2026-04-11T08:22:01.449Z</time></trkpt><trkpt lat="43.7545312" lon="12.7600034"><ele>375.0</ele><time>2026-04-11T08:22:02.449Z</time></trkpt><trkpt lat="43.7543977" lon="12.7602994"><ele>372.6666666666667</ele><time>2026-04-11T08:22:03.45Z</time></trkpt><trkpt lat="43.7542752" lon="12.7605241"><ele>370.33333333333337</ele><time>2026-04-11T08:22:04.449Z</time></trkpt><trkpt lat="43.7541643" lon="12.76075"><ele>368.0</ele><time>2026-04-11T08:22:05.449Z</time></trkpt><trkpt lat="43.7540623" lon="12.7609579"><ele>367.33333333333337</ele><time>2026-04-11T08:22:06.449Z</time></trkpt><trkpt lat="43.7539656" lon="12.7611465"><ele>366.6666666666667</ele><time>2026-04-11T08:22:07.45Z</time></trkpt><trkpt lat="43.7538803" lon="12.7613321"><ele>366.0</ele><time>2026-04-11T08:22:08.449Z</time></trkpt><trkpt lat="43.7538148" lon="12.761525"><ele>366.0</ele><time>2026-04-11T08:22:09.449Z</time></trkpt><trkpt lat="43.7537668" lon="12.761744"><ele>366.0</ele><time>2026-04-11T08:22:10.449Z</time></trkpt><trkpt lat="43.7537442" lon="12.7619992"><ele>366.0</ele><time>2026-04-11T08:22:11.449Z</time></trkpt><trkpt lat="43.7537366" lon="12.7622935"><ele>364.5</ele><time>2026-04-11T08:22:12.45Z</time></trkpt><trkpt lat="43.7537352" lon="12.7626178"><ele>363.0</ele><time>2026-04-11T08:22:13.45Z</time></trkpt><trkpt lat="43.7537327" lon="12.762956"><ele>359.0</ele><time>2026-04-11T08:22:14.449Z</time></trkpt><trkpt lat="43.7537316" lon="12.7632996"><ele>355.0</ele><time>2026-04-11T08:22:15.45Z</time></trkpt><trkpt lat="43.7537406" lon="12.763634"><ele>354.3333333333333</ele><time>2026-04-11T08:22:16.45Z</time></trkpt><trkpt lat="43.7537431" lon="12.76392"><ele>353.6666666666667</ele><time>2026-04-11T08:22:17.449Z</time></trkpt><trkpt lat="43.7537433" lon="12.7641474"><ele>353.0</ele><time>2026-04-11T08:22:18.449Z</time></trkpt><trkpt lat="43.7537456" lon="12.7643474"><ele>352.79999999999995</ele><time>2026-04-11T08:22:19.449Z</time></trkpt><trkpt lat="43.7537458" lon="12.7645045"><ele>352.6</ele><time>2026-04-11T08:22:20.449Z</time></trkpt><trkpt lat="43.7537471" lon="12.7646502"><ele>352.4</ele><time>2026-04-11T08:22:21.449Z</time></trkpt><trkpt lat="43.7537284" lon="12.7647336"><ele>352.20000000000005</ele><time>2026-04-11T08:22:22.45Z</time></trkpt><trkpt lat="43.7537293" lon="12.7648444"><ele>352.0</ele><time>2026-04-11T08:22:24.449Z</time></trkpt><trkpt lat="43.7537949" lon="12.7647399"><ele>352.0</ele><time>2026-04-11T08:22:28.45Z</time></trkpt><trkpt lat="43.7537912" lon="12.7645325"><ele>352.0</ele><time>2026-04-11T08:22:30.45Z</time></trkpt><trkpt lat="43.7537818" lon="12.7643933"><ele>352.0</ele><time>2026-04-11T08:22:31.449Z</time></trkpt><trkpt lat="43.7537706" lon="12.7642157"><ele>352.0</ele><time>2026-04-11T08:22:32.449Z</time></trkpt><trkpt lat="43.7537626" lon="12.7640163"><ele>352.25</ele><time>2026-04-11T08:22:33.449Z</time></trkpt><trkpt lat="43.7537582" lon="12.7638129"><ele>352.5</ele><time>2026-04-11T08:22:34.45Z</time></trkpt><trkpt lat="43.7537559" lon="12.7636195"><ele>352.75</ele><time>2026-04-11T08:22:35.449Z</time></trkpt><trkpt lat="43.7537532" lon="12.7634468"><ele>353.0</ele><time>2026-04-11T08:22:36.45Z</time></trkpt><trkpt lat="43.7537515" lon="12.7632892"><ele>353.5</ele><time>2026-04-11T08:22:37.45Z</time></trkpt><trkpt lat="43.7537535" lon="12.7631383"><ele>354.0</ele><time>2026-04-11T08:22:38.449Z</time></trkpt><trkpt lat="43.7537511" lon="12.7629795"><ele>354.5</ele><time>2026-04-11T08:22:39.449Z</time></trkpt><trkpt lat="43.7537474" lon="12.7628165"><ele>355.0</ele><time>2026-04-11T08:22:40.449Z</time></trkpt><trkpt lat="43.7537452" lon="12.7626499"><ele>357.0</ele><time>2026-04-11T08:22:41.449Z</time></trkpt><trkpt lat="43.7537472" lon="12.7624788"><ele>359.0</ele><time>2026-04-11T08:22:42.449Z</time></trkpt><trkpt lat="43.7537698" lon="12.7623148"><ele>361.0</ele><time>2026-04-11T08:22:43.45Z</time></trkpt><trkpt lat="43.7538196" lon="12.7621671"><ele>363.0</ele><time>2026-04-11T08:22:44.449Z</time></trkpt><trkpt lat="43.7539024" lon="12.7620618"><ele>363.0</ele><time>2026-04-11T08:22:45.449Z</time></trkpt><trkpt lat="43.7540049" lon="12.762009"><ele>363.0</ele><time>2026-04-11T08:22:46.449Z</time></trkpt><trkpt lat="43.7541191" lon="12.7620115"><ele>363.0</ele><time>2026-04-11T08:22:47.449Z</time></trkpt><trkpt lat="43.7542324" lon="12.7620697"><ele>363.0</ele><time>2026-04-11T08:22:48.45Z</time></trkpt><trkpt lat="43.7543471" lon="12.7621901"><ele>365.0</ele><time>2026-04-11T08:22:49.449Z</time></trkpt><trkpt lat="43.7544751" lon="12.7623387"><ele>367.0</ele><time>2026-04-11T08:22:50.45Z</time></trkpt><trkpt lat="43.7546207" lon="12.7624648"><ele>369.0</ele><time>2026-04-11T08:22:51.449Z</time></trkpt><trkpt lat="43.7547997" lon="12.7625783"><ele>369.0</ele><time>2026-04-11T08:22:52.45Z</time></trkpt><trkpt lat="43.7549977" lon="12.7626786"><ele>369.0</ele><time>2026-04-11T08:22:53.45Z</time></trkpt><trkpt lat="43.7551959" lon="12.7627679"><ele>369.0</ele><time>2026-04-11T08:22:54.45Z</time></trkpt><trkpt lat="43.7553686" lon="12.762852"><ele>367.6666666666667</ele><time>2026-04-11T08:22:55.449Z</time></trkpt><trkpt lat="43.7555279" lon="12.762933"><ele>366.33333333333337</ele><time>2026-04-11T08:22:56.449Z</time></trkpt><trkpt lat="43.7556783" lon="12.7629992"><ele>365.0</ele><time>2026-04-11T08:22:57.45Z</time></trkpt><trkpt lat="43.7558292" lon="12.7630532"><ele>365.0</ele><time>2026-04-11T08:22:58.449Z</time></trkpt><trkpt lat="43.7559806" lon="12.7630978"><ele>365.0</ele><time>2026-04-11T08:22:59.449Z</time></trkpt><trkpt lat="43.7561374" lon="12.7631366"><ele>365.0</ele><time>2026-04-11T08:23:00.45Z</time></trkpt><trkpt lat="43.7563014" lon="12.7631683"><ele>365.33333333333337</ele><time>2026-04-11T08:23:01.45Z</time></trkpt><trkpt lat="43.7564722" lon="12.7631874"><ele>365.6666666666667</ele><time>2026-04-11T08:23:02.449Z</time></trkpt><trkpt lat="43.7566535" lon="12.7631973"><ele>366.0</ele><time>2026-04-11T08:23:03.449Z</time></trkpt><trkpt lat="43.7568429" lon="12.7632139"><ele>368.3333333333333</ele><time>2026-04-11T08:23:04.449Z</time></trkpt><trkpt lat="43.7570393" lon="12.7632549"><ele>370.66666666666663</ele><time>2026-04-11T08:23:05.449Z</time></trkpt><trkpt lat="43.7572437" lon="12.7633282"><ele>373.0</ele><time>2026-04-11T08:23:06.449Z</time></trkpt><trkpt lat="43.757429" lon="12.7634193"><ele>373.0</ele><time>2026-04-11T08:23:07.449Z</time></trkpt><trkpt lat="43.7576112" lon="12.7635022"><ele>373.0</ele><time>2026-04-11T08:23:08.449Z</time></trkpt><trkpt lat="43.7577803" lon="12.7635687"><ele>373.0</ele><time>2026-04-11T08:23:09.449Z</time></trkpt><trkpt lat="43.7579413" lon="12.7635996"><ele>374.3333333333333</ele><time>2026-04-11T08:23:10.449Z</time></trkpt><trkpt lat="43.7581043" lon="12.7635997"><ele>375.6666666666667</ele><time>2026-04-11T08:23:11.45Z</time></trkpt><trkpt lat="43.7582786" lon="12.7635667"><ele>377.0</ele><time>2026-04-11T08:23:12.45Z</time></trkpt><trkpt lat="43.7584707" lon="12.7634844"><ele>376.33333333333337</ele><time>2026-04-11T08:23:13.449Z</time></trkpt><trkpt lat="43.7586644" lon="12.763401"><ele>375.6666666666667</ele><time>2026-04-11T08:23:14.45Z</time></trkpt><trkpt lat="43.7588427" lon="12.7633419"><ele>375.0</ele><time>2026-04-11T08:23:15.45Z</time></trkpt><trkpt lat="43.759019" lon="12.7633064"><ele>375.0</ele><time>2026-04-11T08:23:16.451Z</time></trkpt><trkpt lat="43.7592025" lon="12.7633"><ele>375.0</ele><time>2026-04-11T08:23:17.45Z</time></trkpt><trkpt lat="43.759388" lon="12.7633249"><ele>375.0</ele><time>2026-04-11T08:23:18.449Z</time></trkpt><trkpt lat="43.7595633" lon="12.763377"><ele>375.0</ele><time>2026-04-11T08:23:19.45Z</time></trkpt><trkpt lat="43.7597128" lon="12.7634565"><ele>375.0</ele><time>2026-04-11T08:23:20.449Z</time></trkpt><trkpt lat="43.7598406" lon="12.7635635"><ele>375.0</ele><time>2026-04-11T08:23:21.449Z</time></trkpt><trkpt lat="43.7599462" lon="12.7636948"><ele>375.0</ele><time>2026-04-11T08:23:22.449Z</time></trkpt><trkpt lat="43.7600266" lon="12.763857"><ele>375.0</ele><time>2026-04-11T08:23:23.449Z</time></trkpt><trkpt lat="43.7600726" lon="12.7640464"><ele>375.0</ele><time>2026-04-11T08:23:24.451Z</time></trkpt><trkpt lat="43.7600909" lon="12.764267"><ele>375.0</ele><time>2026-04-11T08:23:25.45Z</time></trkpt><trkpt lat="43.7600988" lon="12.7645212"><ele>374.0</ele><time>2026-04-11T08:23:26.449Z</time></trkpt><trkpt lat="43.7601144" lon="12.7647858"><ele>373.0</ele><time>2026-04-11T08:23:27.451Z</time></trkpt><trkpt lat="43.760129" lon="12.765019"><ele>372.0</ele><time>2026-04-11T08:23:28.449Z</time></trkpt><trkpt lat="43.7601468" lon="12.765232"><ele>370.5</ele><time>2026-04-11T08:23:29.45Z</time></trkpt><trkpt lat="43.7601847" lon="12.7654166"><ele>369.0</ele><time>2026-04-11T08:23:30.45Z</time></trkpt><trkpt lat="43.760243" lon="12.7655913"><ele>367.5</ele><time>2026-04-11T08:23:31.45Z</time></trkpt><trkpt lat="43.7603364" lon="12.7657509"><ele>366.0</ele><time>2026-04-11T08:23:32.45Z</time></trkpt><trkpt lat="43.7604627" lon="12.7659076"><ele>369.0</ele><time>2026-04-11T08:23:33.45Z</time></trkpt><trkpt lat="43.7606081" lon="12.7660786"><ele>372.0</ele><time>2026-04-11T08:23:34.451Z</time></trkpt><trkpt lat="43.760737" lon="12.7662471"><ele>375.0</ele><time>2026-04-11T08:23:35.449Z</time></trkpt><trkpt lat="43.7608419" lon="12.7663842"><ele>375.0</ele><time>2026-04-11T08:23:36.45Z</time></trkpt><trkpt lat="43.7609467" lon="12.7665021"><ele>375.0</ele><time>2026-04-11T08:23:37.449Z</time></trkpt><trkpt lat="43.7610537" lon="12.7665892"><ele>375.0</ele><time>2026-04-11T08:23:38.449Z</time></trkpt><trkpt lat="43.7611904" lon="12.7666476"><ele>375.0</ele><time>2026-04-11T08:23:39.449Z</time></trkpt><trkpt lat="43.7613445" lon="12.7666945"><ele>376.6666666666667</ele><time>2026-04-11T08:23:40.45Z</time></trkpt><trkpt lat="43.7615385" lon="12.766675"><ele>378.33333333333337</ele><time>2026-04-11T08:23:41.449Z</time></trkpt><trkpt lat="43.7616865" lon="12.7666859"><ele>380.0</ele><time>2026-04-11T08:23:42.451Z</time></trkpt><trkpt lat="43.7618335" lon="12.7666671"><ele>377.6666666666667</ele><time>2026-04-11T08:23:43.449Z</time></trkpt><trkpt lat="43.7619905" lon="12.7666026"><ele>375.3333333333333</ele><time>2026-04-11T08:23:44.449Z</time></trkpt><trkpt lat="43.7621576" lon="12.7664982"><ele>373.0</ele><time>2026-04-11T08:23:45.45Z</time></trkpt><trkpt lat="43.7623134" lon="12.7663947"><ele>373.0</ele><time>2026-04-11T08:23:46.449Z</time></trkpt><trkpt lat="43.7624467" lon="12.7662922"><ele>373.0</ele><time>2026-04-11T08:23:47.449Z</time></trkpt><trkpt lat="43.7625552" lon="12.7661758"><ele>373.0</ele><time>2026-04-11T08:23:48.45Z</time></trkpt><trkpt lat="43.762645" lon="12.7660644"><ele>373.0</ele><time>2026-04-11T08:23:49.451Z</time></trkpt><trkpt lat="43.7627368" lon="12.7659957"><ele>376.5</ele><time>2026-04-11T08:23:50.449Z</time></trkpt><trkpt lat="43.7628323" lon="12.7659904"><ele>380.0</ele><time>2026-04-11T08:23:51.449Z</time></trkpt><trkpt lat="43.7629196" lon="12.7660508"><ele>383.5</ele><time>2026-04-11T08:23:52.449Z</time></trkpt><trkpt lat="43.7629912" lon="12.766184"><ele>387.0</ele><time>2026-04-11T08:23:53.45Z</time></trkpt><trkpt lat="43.763063" lon="12.7663645"><ele>387.0</ele><time>2026-04-11T08:23:54.449Z</time></trkpt><trkpt lat="43.7631474" lon="12.7665751"><ele>387.0</ele><time>2026-04-11T08:23:55.449Z</time></trkpt><trkpt lat="43.7632166" lon="12.7667876"><ele>387.0</ele><time>2026-04-11T08:23:56.449Z</time></trkpt><trkpt lat="43.7632753" lon="12.7669663"><ele>385.25</ele><time>2026-04-11T08:23:57.45Z</time></trkpt><trkpt lat="43.7633422" lon="12.767118"><ele>383.5</ele><time>2026-04-11T08:23:58.449Z</time></trkpt><trkpt lat="43.7634265" lon="12.7672388"><ele>381.75</ele><time>2026-04-11T08:23:59.449Z</time></trkpt><trkpt lat="43.7635304" lon="12.7673124"><ele>380.0</ele><time>2026-04-11T08:24:00.449Z</time></trkpt><trkpt lat="43.7636499" lon="12.7673306"><ele>380.0</ele><time>2026-04-11T08:24:01.45Z</time></trkpt><trkpt lat="43.7637799" lon="12.7673092"><ele>380.0</ele><time>2026-04-11T08:24:02.45Z</time></trkpt><trkpt lat="43.7639275" lon="12.76726"><ele>380.0</ele><time>2026-04-11T08:24:03.449Z</time></trkpt><trkpt lat="43.7640883" lon="12.7671955"><ele>380.0</ele><time>2026-04-11T08:24:04.449Z</time></trkpt><trkpt lat="43.7642651" lon="12.767133"><ele>380.0</ele><time>2026-04-11T08:24:05.449Z</time></trkpt><trkpt lat="43.7644411" lon="12.7671082"><ele>380.0</ele><time>2026-04-11T08:24:06.449Z</time></trkpt><trkpt lat="43.7646015" lon="12.76712"><ele>383.33333333333337</ele><time>2026-04-11T08:24:07.45Z</time></trkpt><trkpt lat="43.7647461" lon="12.7671817"><ele>386.6666666666667</ele><time>2026-04-11T08:24:08.45Z</time></trkpt><trkpt lat="43.7648892" lon="12.7672925"><ele>390.0</ele><time>2026-04-11T08:24:09.45Z</time></trkpt><trkpt lat="43.7650351" lon="12.7674258"><ele>390.0</ele><time>2026-04-11T08:24:10.449Z</time></trkpt><trkpt lat="43.7651692" lon="12.7675389"><ele>390.0</ele><time>2026-04-11T08:24:11.45Z</time></trkpt><trkpt lat="43.7652923" lon="12.7676464"><ele>390.0</ele><time>2026-04-11T08:24:12.449Z</time></trkpt><trkpt lat="43.765389" lon="12.7677689"><ele>390.0</ele><time>2026-04-11T08:24:13.449Z</time></trkpt><trkpt lat="43.7654428" lon="12.7679093"><ele>392.25</ele><time>2026-04-11T08:24:14.45Z</time></trkpt><trkpt lat="43.7654473" lon="12.7680615"><ele>394.5</ele><time>2026-04-11T08:24:15.45Z</time></trkpt><trkpt lat="43.7654206" lon="12.7682283"><ele>396.75</ele><time>2026-04-11T08:24:16.449Z</time></trkpt><trkpt lat="43.7654073" lon="12.7683885"><ele>399.0</ele><time>2026-04-11T08:24:17.449Z</time></trkpt><trkpt lat="43.7654268" lon="12.7685618"><ele>399.33333333333337</ele><time>2026-04-11T08:24:18.449Z</time></trkpt><trkpt lat="43.765493" lon="12.7687541"><ele>399.6666666666667</ele><time>2026-04-11T08:24:19.45Z</time></trkpt><trkpt lat="43.7655921" lon="12.7689534"><ele>400.0</ele><time>2026-04-11T08:24:20.45Z</time></trkpt><trkpt lat="43.7656854" lon="12.7691232"><ele>400.0</ele><time>2026-04-11T08:24:21.449Z</time></trkpt><trkpt lat="43.7657509" lon="12.7692779"><ele>400.0</ele><time>2026-04-11T08:24:22.449Z</time></trkpt><trkpt lat="43.7657858" lon="12.7694335"><ele>400.0</ele><time>2026-04-11T08:24:23.45Z</time></trkpt><trkpt lat="43.7657767" lon="12.7695911"><ele>400.0</ele><time>2026-04-11T08:24:24.449Z</time></trkpt><trkpt lat="43.7657217" lon="12.7697483"><ele>400.75</ele><time>2026-04-11T08:24:25.449Z</time></trkpt><trkpt lat="43.7656288" lon="12.7698991"><ele>401.5</ele><time>2026-04-11T08:24:26.449Z</time></trkpt><trkpt lat="43.7655128" lon="12.7700022"><ele>402.25</ele><time>2026-04-11T08:24:27.449Z</time></trkpt><trkpt lat="43.7653892" lon="12.7700593"><ele>403.0</ele><time>2026-04-11T08:24:28.449Z</time></trkpt><trkpt lat="43.7652708" lon="12.7700907"><ele>402.2</ele><time>2026-04-11T08:24:29.45Z</time></trkpt><trkpt lat="43.7651733" lon="12.7701339"><ele>401.4</ele><time>2026-04-11T08:24:30.45Z</time></trkpt><trkpt lat="43.7650924" lon="12.7702017"><ele>400.59999999999997</ele><time>2026-04-11T08:24:31.449Z</time></trkpt><trkpt lat="43.7650242" lon="12.7703066"><ele>399.79999999999995</ele><time>2026-04-11T08:24:32.45Z</time></trkpt><trkpt lat="43.7649744" lon="12.7704347"><ele>399.0</ele><time>2026-04-11T08:24:33.449Z</time></trkpt><trkpt lat="43.7649487" lon="12.7705849"><ele>399.0</ele><time>2026-04-11T08:24:34.449Z</time></trkpt><trkpt lat="43.7649541" lon="12.7707213"><ele>399.0</ele><time>2026-04-11T08:24:35.449Z</time></trkpt><trkpt lat="43.7649645" lon="12.7708416"><ele>399.0</ele><time>2026-04-11T08:24:36.449Z</time></trkpt><trkpt lat="43.7650137" lon="12.7709566"><ele>399.0</ele><time>2026-04-11T08:24:37.451Z</time></trkpt><trkpt lat="43.7650429" lon="12.7710836"><ele>399.0</ele><time>2026-04-11T08:24:38.45Z</time></trkpt><trkpt lat="43.7650741" lon="12.7712175"><ele>398.5</ele><time>2026-04-11T08:24:39.449Z</time></trkpt><trkpt lat="43.7651088" lon="12.7713545"><ele>398.0</ele><time>2026-04-11T08:24:40.449Z</time></trkpt><trkpt lat="43.7651458" lon="12.7715057"><ele>397.5</ele><time>2026-04-11T08:24:41.45Z</time></trkpt><trkpt lat="43.7651833" lon="12.7716651"><ele>397.0</ele><time>2026-04-11T08:24:42.449Z</time></trkpt><trkpt lat="43.7652235" lon="12.771831"><ele>395.8</ele><time>2026-04-11T08:24:43.449Z</time></trkpt><trkpt lat="43.7652606" lon="12.7720024"><ele>394.6</ele><time>2026-04-11T08:24:44.449Z</time></trkpt><trkpt lat="43.7652871" lon="12.772155"><ele>393.40000000000003</ele><time>2026-04-11T08:24:45.449Z</time></trkpt><trkpt lat="43.7652915" lon="12.7723082"><ele>392.20000000000005</ele><time>2026-04-11T08:24:46.45Z</time></trkpt><trkpt lat="43.7652501" lon="12.7724208"><ele>391.0</ele><time>2026-04-11T08:24:47.449Z</time></trkpt><trkpt lat="43.7652241" lon="12.7725382"><ele>391.00000000000006</ele><time>2026-04-11T08:24:48.45Z</time></trkpt><trkpt lat="43.7652334" lon="12.7726438"><ele>391.0</ele><time>2026-04-11T08:24:49.449Z</time></trkpt><trkpt lat="43.7652687" lon="12.7727252"><ele>391.0</ele><time>2026-04-11T08:24:50.449Z</time></trkpt><trkpt lat="43.765324" lon="12.7727807"><ele>391.0</ele><time>2026-04-11T08:24:51.449Z</time></trkpt><trkpt lat="43.7653673" lon="12.7729264"><ele>391.00000000000006</ele><time>2026-04-11T08:24:53.45Z</time></trkpt><trkpt lat="43.7653666" lon="12.7730217"><ele>391.0</ele><time>2026-04-11T08:24:54.45Z</time></trkpt><trkpt lat="43.7653631" lon="12.7731448"><ele>388.0</ele><time>2026-04-11T08:24:55.45Z</time></trkpt><trkpt lat="43.7653436" lon="12.7732988"><ele>385.0</ele><time>2026-04-11T08:24:56.449Z</time></trkpt><trkpt lat="43.7653312" lon="12.7734841"><ele>382.0</ele><time>2026-04-11T08:24:57.449Z</time></trkpt><trkpt lat="43.7653065" lon="12.7736608"><ele>379.0</ele><time>2026-04-11T08:24:58.449Z</time></trkpt><trkpt lat="43.7652624" lon="12.7738268"><ele>384.66666666666663</ele><time>2026-04-11T08:24:59.451Z</time></trkpt><trkpt lat="43.7651758" lon="12.7739929"><ele>390.3333333333333</ele><time>2026-04-11T08:25:00.45Z</time></trkpt><trkpt lat="43.7650893" lon="12.774188"><ele>396.0</ele><time>2026-04-11T08:25:01.449Z</time></trkpt><trkpt lat="43.7650194" lon="12.7744132"><ele>396.0</ele><time>2026-04-11T08:25:02.449Z</time></trkpt><trkpt lat="43.764956" lon="12.7746451"><ele>396.0</ele><time>2026-04-11T08:25:03.448Z</time></trkpt><trkpt lat="43.7649068" lon="12.7748536"><ele>396.0</ele><time>2026-04-11T08:25:04.448Z</time></trkpt><trkpt lat="43.7648673" lon="12.7750675"><ele>393.33333333333337</ele><time>2026-04-11T08:25:05.448Z</time></trkpt><trkpt lat="43.7648292" lon="12.7752859"><ele>390.6666666666667</ele><time>2026-04-11T08:25:06.449Z</time></trkpt><trkpt lat="43.7647811" lon="12.7755029"><ele>388.0</ele><time>2026-04-11T08:25:07.448Z</time></trkpt><trkpt lat="43.7647233" lon="12.7756958"><ele>388.0</ele><time>2026-04-11T08:25:08.449Z</time></trkpt><trkpt lat="43.7646778" lon="12.7758747"><ele>388.0</ele><time>2026-04-11T08:25:09.448Z</time></trkpt><trkpt lat="43.7646572" lon="12.7760417"><ele>388.0</ele><time>2026-04-11T08:25:10.448Z</time></trkpt><trkpt lat="43.764665" lon="12.7762016"><ele>388.0</ele><time>2026-04-11T08:25:11.448Z</time></trkpt><trkpt lat="43.7647141" lon="12.7763622"><ele>388.25</ele><time>2026-04-11T08:25:12.449Z</time></trkpt><trkpt lat="43.7647852" lon="12.7765354"><ele>388.5</ele><time>2026-04-11T08:25:13.449Z</time></trkpt><trkpt lat="43.7648312" lon="12.7767133"><ele>388.75</ele><time>2026-04-11T08:25:14.449Z</time></trkpt><trkpt lat="43.7648464" lon="12.7769083"><ele>389.0</ele><time>2026-04-11T08:25:15.448Z</time></trkpt><trkpt lat="43.7648325" lon="12.7771439"><ele>389.0</ele><time>2026-04-11T08:25:16.448Z</time></trkpt><trkpt lat="43.7648067" lon="12.7774095"><ele>389.0</ele><time>2026-04-11T08:25:17.448Z</time></trkpt><trkpt lat="43.7647803" lon="12.7776588"><ele>389.0</ele><time>2026-04-11T08:25:18.448Z</time></trkpt><trkpt lat="43.7647506" lon="12.7778915"><ele>389.75</ele><time>2026-04-11T08:25:19.448Z</time></trkpt><trkpt lat="43.7647242" lon="12.7780975"><ele>390.5</ele><time>2026-04-11T08:25:20.448Z</time></trkpt><trkpt lat="43.7647017" lon="12.7782837"><ele>391.25</ele><time>2026-04-11T08:25:21.449Z</time></trkpt><trkpt lat="43.764698" lon="12.7784469"><ele>392.0</ele><time>2026-04-11T08:25:22.448Z</time></trkpt><trkpt lat="43.7647088" lon="12.7785898"><ele>392.0</ele><time>2026-04-11T08:25:23.449Z</time></trkpt><trkpt lat="43.7647331" lon="12.778725"><ele>392.0</ele><time>2026-04-11T08:25:24.449Z</time></trkpt><trkpt lat="43.7647709" lon="12.7788496"><ele>392.0</ele><time>2026-04-11T08:25:25.448Z</time></trkpt><trkpt lat="43.764819" lon="12.7789592"><ele>392.0</ele><time>2026-04-11T08:25:26.448Z</time></trkpt><trkpt lat="43.7648836" lon="12.7790492"><ele>392.0</ele><time>2026-04-11T08:25:27.449Z</time></trkpt><trkpt lat="43.7649606" lon="12.7791118"><ele>392.0</ele><time>2026-04-11T08:25:28.449Z</time></trkpt><trkpt lat="43.7650611" lon="12.7791571"><ele>392.0</ele><time>2026-04-11T08:25:29.448Z</time></trkpt><trkpt lat="43.7651828" lon="12.7791884"><ele>392.0</ele><time>2026-04-11T08:25:30.448Z</time></trkpt><trkpt lat="43.7652927" lon="12.7792079"><ele>392.0</ele><time>2026-04-11T08:25:31.448Z</time></trkpt><trkpt lat="43.7653758" lon="12.7792182"><ele>392.0</ele><time>2026-04-11T08:25:32.448Z</time></trkpt><trkpt lat="43.7654555" lon="12.7792495"><ele>392.0</ele><time>2026-04-11T08:25:34.449Z</time></trkpt><trkpt lat="43.7653335" lon="12.779192"><ele>392.0</ele><time>2026-04-11T08:25:42.448Z</time></trkpt><trkpt lat="43.7652315" lon="12.7791791"><ele>392.0</ele><time>2026-04-11T08:25:43.449Z</time></trkpt><trkpt lat="43.765111" lon="12.7791414"><ele>392.0</ele><time>2026-04-11T08:25:44.448Z</time></trkpt><trkpt lat="43.7649701" lon="12.7790663"><ele>392.0</ele><time>2026-04-11T08:25:45.449Z</time></trkpt><trkpt lat="43.7648557" lon="12.7789511"><ele>392.0</ele><time>2026-04-11T08:25:46.448Z</time></trkpt><trkpt lat="43.7647811" lon="12.7787974"><ele>392.0</ele><time>2026-04-11T08:25:47.448Z</time></trkpt><trkpt lat="43.764736" lon="12.7785958"><ele>392.0</ele><time>2026-04-11T08:25:48.448Z</time></trkpt><trkpt lat="43.7647212" lon="12.7783677"><ele>391.25</ele><time>2026-04-11T08:25:49.449Z</time></trkpt><trkpt lat="43.7647408" lon="12.7781627"><ele>390.5</ele><time>2026-04-11T08:25:50.449Z</time></trkpt><trkpt lat="43.7647714" lon="12.77798"><ele>389.75</ele><time>2026-04-11T08:25:51.448Z</time></trkpt><trkpt lat="43.7647928" lon="12.7778183"><ele>389.0</ele><time>2026-04-11T08:25:52.448Z</time></trkpt><trkpt lat="43.7648077" lon="12.7776718"><ele>389.0</ele><time>2026-04-11T08:25:53.448Z</time></trkpt><trkpt lat="43.7648241" lon="12.7775516"><ele>389.0</ele><time>2026-04-11T08:25:54.449Z</time></trkpt><trkpt lat="43.7648301" lon="12.7774583"><ele>389.0</ele><time>2026-04-11T08:25:55.449Z</time></trkpt><trkpt lat="43.7647762" lon="12.7773918"><ele>389.0</ele><time>2026-04-11T08:25:57.448Z</time></trkpt><trkpt lat="43.764716" lon="12.7775"><ele>389.0</ele><time>2026-04-11T08:26:00.449Z</time></trkpt><trkpt lat="43.7646656" lon="12.7776834"><ele>388.0</ele><time>2026-04-11T08:26:02.448Z</time></trkpt><trkpt lat="43.7646258" lon="12.7778179"><ele>387.0</ele><time>2026-04-11T08:26:03.448Z</time></trkpt><trkpt lat="43.7645731" lon="12.7779839"><ele>386.0</ele><time>2026-04-11T08:26:04.448Z</time></trkpt><trkpt lat="43.7644921" lon="12.7781653"><ele>385.0</ele><time>2026-04-11T08:26:05.449Z</time></trkpt><trkpt lat="43.7644023" lon="12.7783524"><ele>389.75</ele><time>2026-04-11T08:26:06.448Z</time></trkpt><trkpt lat="43.7643205" lon="12.7785281"><ele>394.5</ele><time>2026-04-11T08:26:07.45Z</time></trkpt><trkpt lat="43.7642489" lon="12.7787024"><ele>399.25</ele><time>2026-04-11T08:26:08.449Z</time></trkpt><trkpt lat="43.7641945" lon="12.7788771"><ele>404.0</ele><time>2026-04-11T08:26:09.448Z</time></trkpt><trkpt lat="43.7641492" lon="12.7790449"><ele>404.0</ele><time>2026-04-11T08:26:10.448Z</time></trkpt><trkpt lat="43.7641033" lon="12.7792062"><ele>404.0</ele><time>2026-04-11T08:26:11.448Z</time></trkpt><trkpt lat="43.7640562" lon="12.7793687"><ele>404.0</ele><time>2026-04-11T08:26:12.449Z</time></trkpt><trkpt lat="43.7640046" lon="12.7795345"><ele>404.0</ele><time>2026-04-11T08:26:13.449Z</time></trkpt><trkpt lat="43.7639384" lon="12.7796966"><ele>404.0</ele><time>2026-04-11T08:26:14.448Z</time></trkpt><trkpt lat="43.7638519" lon="12.7798509"><ele>404.0</ele><time>2026-04-11T08:26:15.448Z</time></trkpt><trkpt lat="43.7637637" lon="12.7799674"><ele>404.0</ele><time>2026-04-11T08:26:16.449Z</time></trkpt><trkpt lat="43.7636617" lon="12.7800444"><ele>404.0</ele><time>2026-04-11T08:26:17.448Z</time></trkpt><trkpt lat="43.7635525" lon="12.7801223"><ele>403.6</ele><time>2026-04-11T08:26:18.448Z</time></trkpt><trkpt lat="43.7634437" lon="12.7801921"><ele>403.2</ele><time>2026-04-11T08:26:19.448Z</time></trkpt><trkpt lat="43.7633417" lon="12.7802574"><ele>402.8</ele><time>2026-04-11T08:26:20.448Z</time></trkpt><trkpt lat="43.7632387" lon="12.780307"><ele>402.40000000000003</ele><time>2026-04-11T08:26:21.448Z</time></trkpt><trkpt lat="43.7631358" lon="12.7803394"><ele>402.0</ele><time>2026-04-11T08:26:22.448Z</time></trkpt><trkpt lat="43.7630249" lon="12.7803602"><ele>402.0</ele><time>2026-04-11T08:26:23.449Z</time></trkpt><trkpt lat="43.7629088" lon="12.7803759"><ele>402.0</ele><time>2026-04-11T08:26:24.449Z</time></trkpt><trkpt lat="43.7628017" lon="12.7804056"><ele>402.0</ele><time>2026-04-11T08:26:25.449Z</time></trkpt><trkpt lat="43.762705" lon="12.7804172"><ele>402.0</ele><time>2026-04-11T08:26:26.448Z</time></trkpt><trkpt lat="43.7626118" lon="12.7804169"><ele>402.0</ele><time>2026-04-11T08:26:27.448Z</time></trkpt><trkpt lat="43.7625365" lon="12.780336"><ele>399.20000000000005</ele><time>2026-04-11T08:26:28.448Z</time></trkpt><trkpt lat="43.7624808" lon="12.7802494"><ele>396.4</ele><time>2026-04-11T08:26:29.448Z</time></trkpt><trkpt lat="43.7624497" lon="12.780105"><ele>393.6</ele><time>2026-04-11T08:26:30.448Z</time></trkpt><trkpt lat="43.7624477" lon="12.7799439"><ele>390.79999999999995</ele><time>2026-04-11T08:26:31.449Z</time></trkpt><trkpt lat="43.7624703" lon="12.7798108"><ele>388.0</ele><time>2026-04-11T08:26:32.448Z</time></trkpt><trkpt lat="43.7625044" lon="12.7796956"><ele>388.00000000000006</ele><time>2026-04-11T08:26:33.448Z</time></trkpt><trkpt lat="43.7625213" lon="12.7795968"><ele>388.0</ele><time>2026-04-11T08:26:34.449Z</time></trkpt><trkpt lat="43.7625081" lon="12.7795021"><ele>388.0</ele><time>2026-04-11T08:26:35.448Z</time></trkpt><trkpt lat="43.7624573" lon="12.7794453"><ele>388.0</ele><time>2026-04-11T08:26:36.448Z</time></trkpt><trkpt lat="43.7623899" lon="12.7794553"><ele>388.00000000000006</ele><time>2026-04-11T08:26:37.448Z</time></trkpt><trkpt lat="43.7622967" lon="12.7795207"><ele>388.0</ele><time>2026-04-11T08:26:39.448Z</time></trkpt><trkpt lat="43.7622131" lon="12.7795948"><ele>388.00000000000006</ele><time>2026-04-11T08:26:41.449Z</time></trkpt><trkpt lat="43.7621538" lon="12.7796397"><ele>388.0</ele><time>2026-04-11T08:26:42.448Z</time></trkpt><trkpt lat="43.7620765" lon="12.7796876"><ele>388.0</ele><time>2026-04-11T08:26:43.448Z</time></trkpt><trkpt lat="43.7619907" lon="12.7797493"><ele>388.0</ele><time>2026-04-11T08:26:44.448Z</time></trkpt><trkpt lat="43.7619241" lon="12.7798317"><ele>388.00000000000006</ele><time>2026-04-11T08:26:45.448Z</time></trkpt><trkpt lat="43.7618854" lon="12.7799425"><ele>388.0</ele><time>2026-04-11T08:26:46.449Z</time></trkpt><trkpt lat="43.7618777" lon="12.7800646"><ele>387.0</ele><time>2026-04-11T08:26:47.449Z</time></trkpt><trkpt lat="43.761899" lon="12.7802116"><ele>386.0</ele><time>2026-04-11T08:26:48.448Z</time></trkpt><trkpt lat="43.7619573" lon="12.7803693"><ele>385.0</ele><time>2026-04-11T08:26:49.448Z</time></trkpt><trkpt lat="43.7620417" lon="12.7805405"><ele>384.0</ele><time>2026-04-11T08:26:50.448Z</time></trkpt><trkpt lat="43.7621375" lon="12.7807261"><ele>384.0</ele><time>2026-04-11T08:26:51.449Z</time></trkpt><trkpt lat="43.7622253" lon="12.7809065"><ele>384.0</ele><time>2026-04-11T08:26:52.448Z</time></trkpt><trkpt lat="43.7623047" lon="12.7810713"><ele>384.0</ele><time>2026-04-11T08:26:53.448Z</time></trkpt><trkpt lat="43.7623791" lon="12.7812188"><ele>384.0</ele><time>2026-04-11T08:26:54.45Z</time></trkpt><trkpt lat="43.7624495" lon="12.7813498"><ele>381.4</ele><time>2026-04-11T08:26:55.449Z</time></trkpt><trkpt lat="43.762509" lon="12.7814691"><ele>378.79999999999995</ele><time>2026-04-11T08:26:56.448Z</time></trkpt><trkpt lat="43.762561" lon="12.781585"><ele>376.20000000000005</ele><time>2026-04-11T08:26:57.449Z</time></trkpt><trkpt lat="43.7626152" lon="12.7816997"><ele>373.6</ele><time>2026-04-11T08:26:58.448Z</time></trkpt><trkpt lat="43.7626627" lon="12.781824"><ele>371.0</ele><time>2026-04-11T08:26:59.449Z</time></trkpt><trkpt lat="43.7626716" lon="12.7819604"><ele>371.0</ele><time>2026-04-11T08:27:00.45Z</time></trkpt><trkpt lat="43.762675" lon="12.7821056"><ele>371.0</ele><time>2026-04-11T08:27:01.449Z</time></trkpt><trkpt lat="43.7626336" lon="12.7822777"><ele>371.0</ele><time>2026-04-11T08:27:02.448Z</time></trkpt><trkpt lat="43.7624807" lon="12.7824405"><ele>371.0</ele><time>2026-04-11T08:27:03.448Z</time></trkpt><trkpt lat="43.7623784" lon="12.7826031"><ele>367.33333333333337</ele><time>2026-04-11T08:27:04.449Z</time></trkpt><trkpt lat="43.7622549" lon="12.7827399"><ele>363.6666666666667</ele><time>2026-04-11T08:27:05.448Z</time></trkpt><trkpt lat="43.7621184" lon="12.7828814"><ele>360.0</ele><time>2026-04-11T08:27:06.448Z</time></trkpt><trkpt lat="43.7619842" lon="12.783049"><ele>360.0</ele><time>2026-04-11T08:27:07.449Z</time></trkpt><trkpt lat="43.7618696" lon="12.7831939"><ele>360.0</ele><time>2026-04-11T08:27:08.45Z</time></trkpt><trkpt lat="43.7617649" lon="12.7833364"><ele>360.0</ele><time>2026-04-11T08:27:09.449Z</time></trkpt><trkpt lat="43.7616671" lon="12.7834902"><ele>360.5</ele><time>2026-04-11T08:27:10.448Z</time></trkpt><trkpt lat="43.7615764" lon="12.7836552"><ele>361.0</ele><time>2026-04-11T08:27:11.448Z</time></trkpt><trkpt lat="43.7614894" lon="12.7838099"><ele>361.5</ele><time>2026-04-11T08:27:12.449Z</time></trkpt><trkpt lat="43.7614092" lon="12.7839466"><ele>362.0</ele><time>2026-04-11T08:27:13.449Z</time></trkpt><trkpt lat="43.761329" lon="12.7840737"><ele>362.0</ele><time>2026-04-11T08:27:14.449Z</time></trkpt><trkpt lat="43.7612573" lon="12.7842018"><ele>362.0</ele><time>2026-04-11T08:27:15.449Z</time></trkpt><trkpt lat="43.761199" lon="12.7843376"><ele>362.0</ele><time>2026-04-11T08:27:16.448Z</time></trkpt><trkpt lat="43.761163" lon="12.7844745"><ele>362.0</ele><time>2026-04-11T08:27:17.448Z</time></trkpt><trkpt lat="43.7611547" lon="12.784618"><ele>362.0</ele><time>2026-04-11T08:27:18.448Z</time></trkpt><trkpt lat="43.7611614" lon="12.7847819"><ele>359.25</ele><time>2026-04-11T08:27:19.448Z</time></trkpt><trkpt lat="43.7611636" lon="12.7849522"><ele>356.5</ele><time>2026-04-11T08:27:20.449Z</time></trkpt><trkpt lat="43.761159" lon="12.7851149"><ele>353.75</ele><time>2026-04-11T08:27:21.449Z</time></trkpt><trkpt lat="43.7611388" lon="12.7852699"><ele>351.0</ele><time>2026-04-11T08:27:22.449Z</time></trkpt><trkpt lat="43.7610996" lon="12.7854228"><ele>352.0</ele><time>2026-04-11T08:27:23.449Z</time></trkpt><trkpt lat="43.7610479" lon="12.7855874"><ele>353.0</ele><time>2026-04-11T08:27:24.45Z</time></trkpt><trkpt lat="43.7609762" lon="12.7857759"><ele>354.0</ele><time>2026-04-11T08:27:25.448Z</time></trkpt><trkpt lat="43.7608625" lon="12.7859678"><ele>347.6666666666667</ele><time>2026-04-11T08:27:26.448Z</time></trkpt><trkpt lat="43.7607583" lon="12.7861868"><ele>341.33333333333337</ele><time>2026-04-11T08:27:27.448Z</time></trkpt><trkpt lat="43.7606496" lon="12.7864454"><ele>335.0</ele><time>2026-04-11T08:27:28.448Z</time></trkpt><trkpt lat="43.7605501" lon="12.7867041"><ele>329.33333333333337</ele><time>2026-04-11T08:27:29.449Z</time></trkpt><trkpt lat="43.7604522" lon="12.7869438"><ele>323.6666666666667</ele><time>2026-04-11T08:27:30.45Z</time></trkpt><trkpt lat="43.7603512" lon="12.7871516"><ele>318.0</ele><time>2026-04-11T08:27:31.448Z</time></trkpt><trkpt lat="43.760248" lon="12.7873304"><ele>318.6666666666667</ele><time>2026-04-11T08:27:32.448Z</time></trkpt><trkpt lat="43.7601431" lon="12.7874892"><ele>319.33333333333337</ele><time>2026-04-11T08:27:33.449Z</time></trkpt><trkpt lat="43.7600352" lon="12.7876291"><ele>320.0</ele><time>2026-04-11T08:27:34.448Z</time></trkpt><trkpt lat="43.7599118" lon="12.7877686"><ele>320.0</ele><time>2026-04-11T08:27:35.449Z</time></trkpt><trkpt lat="43.7597656" lon="12.7879228"><ele>320.0</ele><time>2026-04-11T08:27:36.449Z</time></trkpt><trkpt lat="43.7596039" lon="12.788077"><ele>320.0</ele><time>2026-04-11T08:27:37.449Z</time></trkpt><trkpt lat="43.7594487" lon="12.788211"><ele>321.6666666666667</ele><time>2026-04-11T08:27:38.448Z</time></trkpt><trkpt lat="43.7592869" lon="12.7883198"><ele>323.3333333333333</ele><time>2026-04-11T08:27:39.449Z</time></trkpt><trkpt lat="43.7590974" lon="12.7884163"><ele>325.0</ele><time>2026-04-11T08:27:40.448Z</time></trkpt><trkpt lat="43.7588941" lon="12.7885248"><ele>323.66666666666663</ele><time>2026-04-11T08:27:41.449Z</time></trkpt><trkpt lat="43.7587182" lon="12.7886613"><ele>322.3333333333333</ele><time>2026-04-11T08:27:42.448Z</time></trkpt><trkpt lat="43.7585671" lon="12.7888291"><ele>321.0</ele><time>2026-04-11T08:27:43.448Z</time></trkpt><trkpt lat="43.7584349" lon="12.7889983"><ele>321.0</ele><time>2026-04-11T08:27:44.449Z</time></trkpt><trkpt lat="43.7583181" lon="12.7891547"><ele>321.0</ele><time>2026-04-11T08:27:45.448Z</time></trkpt><trkpt lat="43.7581989" lon="12.7893002"><ele>321.0</ele><time>2026-04-11T08:27:46.449Z</time></trkpt><trkpt lat="43.7580742" lon="12.7894427"><ele>320.75</ele><time>2026-04-11T08:27:47.449Z</time></trkpt><trkpt lat="43.7579541" lon="12.7895835"><ele>320.5</ele><time>2026-04-11T08:27:48.448Z</time></trkpt><trkpt lat="43.7578437" lon="12.7897133"><ele>320.25</ele><time>2026-04-11T08:27:49.449Z</time></trkpt><trkpt lat="43.7577473" lon="12.7898286"><ele>320.0</ele><time>2026-04-11T08:27:50.449Z</time></trkpt><trkpt lat="43.7576649" lon="12.7899602"><ele>320.0</ele><time>2026-04-11T08:27:51.449Z</time></trkpt><trkpt lat="43.7576045" lon="12.7901219"><ele>320.0</ele><time>2026-04-11T08:27:52.448Z</time></trkpt><trkpt lat="43.7575578" lon="12.7903208"><ele>320.0</ele><time>2026-04-11T08:27:53.448Z</time></trkpt><trkpt lat="43.7575063" lon="12.7904832"><ele>320.0</ele><time>2026-04-11T08:27:54.448Z</time></trkpt><trkpt lat="43.7574482" lon="12.7906117"><ele>317.0</ele><time>2026-04-11T08:27:55.448Z</time></trkpt><trkpt lat="43.7573791" lon="12.7906881"><ele>314.0</ele><time>2026-04-11T08:27:56.449Z</time></trkpt><trkpt lat="43.7572871" lon="12.7907233"><ele>311.0</ele><time>2026-04-11T08:27:57.448Z</time></trkpt><trkpt lat="43.7571639" lon="12.7907183"><ele>308.0</ele><time>2026-04-11T08:27:58.449Z</time></trkpt><trkpt lat="43.7570114" lon="12.7907101"><ele>307.5</ele><time>2026-04-11T08:27:59.448Z</time></trkpt><trkpt lat="43.7568578" lon="12.7907187"><ele>307.0</ele><time>2026-04-11T08:28:00.449Z</time></trkpt><trkpt lat="43.7567169" lon="12.7907351"><ele>306.5</ele><time>2026-04-11T08:28:01.448Z</time></trkpt><trkpt lat="43.7565797" lon="12.7907324"><ele>306.0</ele><time>2026-04-11T08:28:02.448Z</time></trkpt><trkpt lat="43.7564546" lon="12.7907033"><ele>306.0</ele><time>2026-04-11T08:28:03.448Z</time></trkpt><trkpt lat="43.7563478" lon="12.7906508"><ele>306.0</ele><time>2026-04-11T08:28:04.448Z</time></trkpt><trkpt lat="43.7562553" lon="12.7905768"><ele>306.0</ele><time>2026-04-11T08:28:05.448Z</time></trkpt><trkpt lat="43.7561684" lon="12.7904658"><ele>306.0</ele><time>2026-04-11T08:28:06.448Z</time></trkpt><trkpt lat="43.7560856" lon="12.790316"><ele>302.75</ele><time>2026-04-11T08:28:07.45Z</time></trkpt><trkpt lat="43.7560095" lon="12.7901487"><ele>299.5</ele><time>2026-04-11T08:28:08.448Z</time></trkpt><trkpt lat="43.7559491" lon="12.7899776"><ele>296.25</ele><time>2026-04-11T08:28:09.449Z</time></trkpt><trkpt lat="43.7558954" lon="12.7898179"><ele>293.0</ele><time>2026-04-11T08:28:10.448Z</time></trkpt><trkpt lat="43.7558416" lon="12.7896782"><ele>293.0</ele><time>2026-04-11T08:28:11.448Z</time></trkpt><trkpt lat="43.7557903" lon="12.7895536"><ele>293.0</ele><time>2026-04-11T08:28:12.449Z</time></trkpt><trkpt lat="43.755735" lon="12.7894504"><ele>293.0</ele><time>2026-04-11T08:28:13.449Z</time></trkpt><trkpt lat="43.7556658" lon="12.7893718"><ele>293.0</ele><time>2026-04-11T08:28:14.449Z</time></trkpt><trkpt lat="43.7555812" lon="12.7893406"><ele>293.0</ele><time>2026-04-11T08:28:15.448Z</time></trkpt><trkpt lat="43.7554902" lon="12.7893755"><ele>293.0</ele><time>2026-04-11T08:28:16.448Z</time></trkpt><trkpt lat="43.7553926" lon="12.789463"><ele>293.0</ele><time>2026-04-11T08:28:17.449Z</time></trkpt><trkpt lat="43.7553003" lon="12.7895671"><ele>293.0</ele><time>2026-04-11T08:28:18.448Z</time></trkpt><trkpt lat="43.7552343" lon="12.7896733"><ele>293.0</ele><time>2026-04-11T08:28:19.449Z</time></trkpt><trkpt lat="43.7551909" lon="12.7898016"><ele>293.0</ele><time>2026-04-11T08:28:20.449Z</time></trkpt><trkpt lat="43.7551726" lon="12.7899624"><ele>292.25</ele><time>2026-04-11T08:28:21.448Z</time></trkpt><trkpt lat="43.7551733" lon="12.7901396"><ele>291.5</ele><time>2026-04-11T08:28:22.448Z</time></trkpt><trkpt lat="43.7551957" lon="12.7903158"><ele>290.75</ele><time>2026-04-11T08:28:23.448Z</time></trkpt><trkpt lat="43.7552421" lon="12.790522"><ele>290.0</ele><time>2026-04-11T08:28:24.448Z</time></trkpt><trkpt lat="43.7552793" lon="12.7907242"><ele>290.0</ele><time>2026-04-11T08:28:25.448Z</time></trkpt><trkpt lat="43.7552893" lon="12.790936"><ele>290.0</ele><time>2026-04-11T08:28:26.449Z</time></trkpt><trkpt lat="43.7552882" lon="12.791139"><ele>290.0</ele><time>2026-04-11T08:28:27.449Z</time></trkpt><trkpt lat="43.7552725" lon="12.7913429"><ele>290.0</ele><time>2026-04-11T08:28:28.448Z</time></trkpt><trkpt lat="43.755251" lon="12.7915391"><ele>287.0</ele><time>2026-04-11T08:28:29.448Z</time></trkpt><trkpt lat="43.7552405" lon="12.7917139"><ele>284.0</ele><time>2026-04-11T08:28:30.448Z</time></trkpt><trkpt lat="43.7552428" lon="12.7918679"><ele>281.0</ele><time>2026-04-11T08:28:31.448Z</time></trkpt><trkpt lat="43.7552629" lon="12.7919917"><ele>278.0</ele><time>2026-04-11T08:28:32.448Z</time></trkpt><trkpt lat="43.755318" lon="12.792097"><ele>275.0</ele><time>2026-04-11T08:28:33.449Z</time></trkpt><trkpt lat="43.7553862" lon="12.7921643"><ele>270.6666666666667</ele><time>2026-04-11T08:28:34.449Z</time></trkpt><trkpt lat="43.7554622" lon="12.7922045"><ele>266.33333333333337</ele><time>2026-04-11T08:28:35.448Z</time></trkpt><trkpt lat="43.7555193" lon="12.7922641"><ele>262.0</ele><time>2026-04-11T08:28:36.449Z</time></trkpt><trkpt lat="43.755576" lon="12.7923209"><ele>257.6666666666667</ele><time>2026-04-11T08:28:37.448Z</time></trkpt><trkpt lat="43.7555352" lon="12.7924042"><ele>253.33333333333334</ele><time>2026-04-11T08:28:38.449Z</time></trkpt><trkpt lat="43.7554242" lon="12.7924889"><ele>249.0</ele><time>2026-04-11T08:28:40.448Z</time></trkpt><trkpt lat="43.7553091" lon="12.7925256"><ele>247.5</ele><time>2026-04-11T08:28:41.45Z</time></trkpt><trkpt lat="43.7551879" lon="12.7925592"><ele>246.0</ele><time>2026-04-11T08:28:42.448Z</time></trkpt><trkpt lat="43.7550918" lon="12.7925788"><ele>244.5</ele><time>2026-04-11T08:28:43.448Z</time></trkpt><trkpt lat="43.7550099" lon="12.7925967"><ele>243.0</ele><time>2026-04-11T08:28:44.448Z</time></trkpt><trkpt lat="43.7549496" lon="12.7926411"><ele>241.5</ele><time>2026-04-11T08:28:45.448Z</time></trkpt><trkpt lat="43.7549189" lon="12.7927316"><ele>240.0</ele><time>2026-04-11T08:28:46.448Z</time></trkpt><trkpt lat="43.7549154" lon="12.7928504"><ele>237.0</ele><time>2026-04-11T08:28:47.449Z</time></trkpt><trkpt lat="43.7549402" lon="12.7929593"><ele>234.0</ele><time>2026-04-11T08:28:48.448Z</time></trkpt><trkpt lat="43.7549913" lon="12.7930334"><ele>231.0</ele><time>2026-04-11T08:28:49.448Z</time></trkpt><trkpt lat="43.7550653" lon="12.7930587"><ele>228.0</ele><time>2026-04-11T08:28:50.448Z</time></trkpt><trkpt lat="43.7551638" lon="12.793044"><ele>225.0</ele><time>2026-04-11T08:28:51.448Z</time></trkpt><trkpt lat="43.7552742" lon="12.7929895"><ele>222.0</ele><time>2026-04-11T08:28:52.448Z</time></trkpt><trkpt lat="43.7553566" lon="12.7929603"><ele>221.39999999999998</ele><time>2026-04-11T08:28:53.448Z</time></trkpt><trkpt lat="43.7554234" lon="12.7929585"><ele>220.79999999999998</ele><time>2026-04-11T08:28:54.448Z</time></trkpt><trkpt lat="43.7554737" lon="12.7930863"><ele>220.2</ele><time>2026-04-11T08:28:56.448Z</time></trkpt><trkpt lat="43.7554388" lon="12.7931717"><ele>219.6</ele><time>2026-04-11T08:28:57.448Z</time></trkpt><trkpt lat="43.7553695" lon="12.7932632"><ele>219.0</ele><time>2026-04-11T08:28:58.448Z</time></trkpt><trkpt lat="43.7552741" lon="12.7933638"><ele>219.75</ele><time>2026-04-11T08:28:59.448Z</time></trkpt><trkpt lat="43.7551574" lon="12.7934797"><ele>220.5</ele><time>2026-04-11T08:29:00.448Z</time></trkpt><trkpt lat="43.7550452" lon="12.7935716"><ele>221.25</ele><time>2026-04-11T08:29:01.448Z</time></trkpt><trkpt lat="43.7549296" lon="12.7936518"><ele>222.0</ele><time>2026-04-11T08:29:02.449Z</time></trkpt><trkpt lat="43.7548133" lon="12.7937243"><ele>219.6</ele><time>2026-04-11T08:29:03.448Z</time></trkpt><trkpt lat="43.7546996" lon="12.7937898"><ele>217.2</ele><time>2026-04-11T08:29:04.449Z</time></trkpt><trkpt lat="43.7545818" lon="12.7938378"><ele>214.8</ele><time>2026-04-11T08:29:05.449Z</time></trkpt><trkpt lat="43.754477" lon="12.7938655"><ele>212.4</ele><time>2026-04-11T08:29:06.448Z</time></trkpt><trkpt lat="43.7543815" lon="12.793887"><ele>210.0</ele><time>2026-04-11T08:29:07.449Z</time></trkpt><trkpt lat="43.7543108" lon="12.7939271"><ele>210.0</ele><time>2026-04-11T08:29:08.448Z</time></trkpt><trkpt lat="43.7542683" lon="12.7940076"><ele>210.0</ele><time>2026-04-11T08:29:09.448Z</time></trkpt><trkpt lat="43.7542656" lon="12.7941027"><ele>210.0</ele><time>2026-04-11T08:29:10.449Z</time></trkpt><trkpt lat="43.7543088" lon="12.7941786"><ele>210.0</ele><time>2026-04-11T08:29:11.448Z</time></trkpt><trkpt lat="43.7543784" lon="12.7942058"><ele>210.0</ele><time>2026-04-11T08:29:12.449Z</time></trkpt><trkpt lat="43.7544706" lon="12.7941956"><ele>210.0</ele><time>2026-04-11T08:29:13.448Z</time></trkpt><trkpt lat="43.75455" lon="12.7942079"><ele>210.0</ele><time>2026-04-11T08:29:14.449Z</time></trkpt><trkpt lat="43.7546194" lon="12.7942717"><ele>210.0</ele><time>2026-04-11T08:29:15.448Z</time></trkpt><trkpt lat="43.7546833" lon="12.7943766"><ele>210.0</ele><time>2026-04-11T08:29:16.448Z</time></trkpt><trkpt lat="43.7547362" lon="12.7944988"><ele>210.0</ele><time>2026-04-11T08:29:17.449Z</time></trkpt><trkpt lat="43.754754" lon="12.7946159"><ele>210.0</ele><time>2026-04-11T08:29:18.448Z</time></trkpt><trkpt lat="43.7547397" lon="12.7947434"><ele>211.25</ele><time>2026-04-11T08:29:19.448Z</time></trkpt><trkpt lat="43.7546883" lon="12.7948579"><ele>212.5</ele><time>2026-04-11T08:29:20.448Z</time></trkpt><trkpt lat="43.7546165" lon="12.7949826"><ele>213.75</ele><time>2026-04-11T08:29:21.448Z</time></trkpt><trkpt lat="43.7545428" lon="12.7951512"><ele>215.0</ele><time>2026-04-11T08:29:22.449Z</time></trkpt><trkpt lat="43.7544707" lon="12.7953443"><ele>213.75</ele><time>2026-04-11T08:29:23.448Z</time></trkpt><trkpt lat="43.7544177" lon="12.7955091"><ele>212.5</ele><time>2026-04-11T08:29:24.448Z</time></trkpt><trkpt lat="43.7543911" lon="12.7956803"><ele>211.25</ele><time>2026-04-11T08:29:25.448Z</time></trkpt><trkpt lat="43.7543746" lon="12.7958875"><ele>210.0</ele><time>2026-04-11T08:29:26.448Z</time></trkpt><trkpt lat="43.7543671" lon="12.7961428"><ele>210.0</ele><time>2026-04-11T08:29:27.448Z</time></trkpt><trkpt lat="43.7543669" lon="12.7964268"><ele>210.0</ele><time>2026-04-11T08:29:28.45Z</time></trkpt><trkpt lat="43.7543621" lon="12.7966636"><ele>210.0</ele><time>2026-04-11T08:29:29.448Z</time></trkpt><trkpt lat="43.7543318" lon="12.7968708"><ele>211.0</ele><time>2026-04-11T08:29:30.448Z</time></trkpt><trkpt lat="43.7543015" lon="12.7970458"><ele>212.0</ele><time>2026-04-11T08:29:31.448Z</time></trkpt><trkpt lat="43.7542802" lon="12.7972051"><ele>213.0</ele><time>2026-04-11T08:29:32.449Z</time></trkpt><trkpt lat="43.754254" lon="12.7973565"><ele>214.0</ele><time>2026-04-11T08:29:33.448Z</time></trkpt><trkpt lat="43.7542485" lon="12.7975391"><ele>215.25</ele><time>2026-04-11T08:29:34.448Z</time></trkpt><trkpt lat="43.7542607" lon="12.7977402"><ele>216.5</ele><time>2026-04-11T08:29:35.448Z</time></trkpt><trkpt lat="43.7542809" lon="12.7979372"><ele>217.75</ele><time>2026-04-11T08:29:36.448Z</time></trkpt><trkpt lat="43.7542999" lon="12.7981051"><ele>219.0</ele><time>2026-04-11T08:29:37.448Z</time></trkpt><trkpt lat="43.7543347" lon="12.7982438"><ele>223.0</ele><time>2026-04-11T08:29:38.448Z</time></trkpt><trkpt lat="43.7543947" lon="12.7983405"><ele>227.0</ele><time>2026-04-11T08:29:39.448Z</time></trkpt><trkpt lat="43.75449" lon="12.7984172"><ele>231.0</ele><time>2026-04-11T08:29:40.448Z</time></trkpt><trkpt lat="43.7546076" lon="12.7984958"><ele>235.0</ele><time>2026-04-11T08:29:41.449Z</time></trkpt><trkpt lat="43.7547219" lon="12.7985896"><ele>235.0</ele><time>2026-04-11T08:29:42.448Z</time></trkpt><trkpt lat="43.7548178" lon="12.7986659"><ele>235.0</ele><time>2026-04-11T08:29:43.448Z</time></trkpt><trkpt lat="43.7549055" lon="12.7987305"><ele>235.0</ele><time>2026-04-11T08:29:44.449Z</time></trkpt><trkpt lat="43.7549978" lon="12.7987874"><ele>235.0</ele><time>2026-04-11T08:29:45.45Z</time></trkpt><trkpt lat="43.7550734" lon="12.7988362"><ele>235.0</ele><time>2026-04-11T08:29:46.449Z</time></trkpt><trkpt lat="43.7551542" lon="12.7989184"><ele>235.0</ele><time>2026-04-11T08:29:48.449Z</time></trkpt><trkpt lat="43.7551689" lon="12.7991033"><ele>235.0</ele><time>2026-04-11T08:29:50.448Z</time></trkpt><trkpt lat="43.755182" lon="12.7992353"><ele>235.0</ele><time>2026-04-11T08:29:51.449Z</time></trkpt><trkpt lat="43.7552061" lon="12.7993997"><ele>235.0</ele><time>2026-04-11T08:29:52.448Z</time></trkpt><trkpt lat="43.7552216" lon="12.7995993"><ele>242.0</ele><time>2026-04-11T08:29:53.449Z</time></trkpt><trkpt lat="43.7552335" lon="12.7997983"><ele>249.0</ele><time>2026-04-11T08:29:54.448Z</time></trkpt><trkpt lat="43.7552337" lon="12.8000312"><ele>256.0</ele><time>2026-04-11T08:29:55.448Z</time></trkpt><trkpt lat="43.7552131" lon="12.8002956"><ele>246.33333333333331</ele><time>2026-04-11T08:29:56.448Z</time></trkpt><trkpt lat="43.7551948" lon="12.8005354"><ele>236.66666666666669</ele><time>2026-04-11T08:29:57.45Z</time></trkpt><trkpt lat="43.7551916" lon="12.8007615"><ele>227.0</ele><time>2026-04-11T08:29:58.449Z</time></trkpt><trkpt lat="43.7552028" lon="12.8009881"><ele>226.0</ele><time>2026-04-11T08:29:59.448Z</time></trkpt><trkpt lat="43.7552052" lon="12.8012236"><ele>225.0</ele><time>2026-04-11T08:30:00.448Z</time></trkpt><trkpt lat="43.7551961" lon="12.801444"><ele>224.0</ele><time>2026-04-11T08:30:01.448Z</time></trkpt><trkpt lat="43.755175" lon="12.8016547"><ele>223.0</ele><time>2026-04-11T08:30:02.448Z</time></trkpt><trkpt lat="43.7551419" lon="12.8018651"><ele>222.0</ele><time>2026-04-11T08:30:03.449Z</time></trkpt><trkpt lat="43.7551049" lon="12.8020914"><ele>221.0</ele><time>2026-04-11T08:30:04.448Z</time></trkpt><trkpt lat="43.7550601" lon="12.8023257"><ele>221.0</ele><time>2026-04-11T08:30:05.448Z</time></trkpt><trkpt lat="43.7549975" lon="12.8025541"><ele>221.0</ele><time>2026-04-11T08:30:06.448Z</time></trkpt><trkpt lat="43.7549282" lon="12.8027605"><ele>221.0</ele><time>2026-04-11T08:30:07.449Z</time></trkpt><trkpt lat="43.7548563" lon="12.8029417"><ele>220.75</ele><time>2026-04-11T08:30:08.448Z</time></trkpt><trkpt lat="43.754791" lon="12.8030996"><ele>220.5</ele><time>2026-04-11T08:30:09.448Z</time></trkpt><trkpt lat="43.754737" lon="12.8032463"><ele>220.25</ele><time>2026-04-11T08:30:10.448Z</time></trkpt><trkpt lat="43.7547121" lon="12.8034109"><ele>220.0</ele><time>2026-04-11T08:30:11.45Z</time></trkpt><trkpt lat="43.7547076" lon="12.8036073"><ele>219.66666666666666</ele><time>2026-04-11T08:30:12.448Z</time></trkpt><trkpt lat="43.7547156" lon="12.8038297"><ele>219.33333333333331</ele><time>2026-04-11T08:30:13.45Z</time></trkpt><trkpt lat="43.7547282" lon="12.8040833"><ele>219.0</ele><time>2026-04-11T08:30:14.448Z</time></trkpt><trkpt lat="43.7547464" lon="12.8043699"><ele>216.33333333333331</ele><time>2026-04-11T08:30:15.448Z</time></trkpt><trkpt lat="43.7547589" lon="12.8046318"><ele>213.66666666666666</ele><time>2026-04-11T08:30:16.448Z</time></trkpt><trkpt lat="43.7547688" lon="12.8048922"><ele>211.0</ele><time>2026-04-11T08:30:17.449Z</time></trkpt><trkpt lat="43.7547805" lon="12.805138"><ele>209.0</ele><time>2026-04-11T08:30:18.448Z</time></trkpt><trkpt lat="43.7547893" lon="12.805372"><ele>207.0</ele><time>2026-04-11T08:30:19.448Z</time></trkpt><trkpt lat="43.7547963" lon="12.8055794"><ele>205.0</ele><time>2026-04-11T08:30:20.449Z</time></trkpt><trkpt lat="43.7548008" lon="12.8057594"><ele>203.0</ele><time>2026-04-11T08:30:21.448Z</time></trkpt><trkpt lat="43.7548051" lon="12.8059127"><ele>202.66666666666669</ele><time>2026-04-11T08:30:22.449Z</time></trkpt><trkpt lat="43.7548072" lon="12.8060331"><ele>202.33333333333334</ele><time>2026-04-11T08:30:23.448Z</time></trkpt><trkpt lat="43.75479" lon="12.8061373"><ele>202.0</ele><time>2026-04-11T08:30:24.449Z</time></trkpt><trkpt lat="43.754737" lon="12.8062111"><ele>201.66666666666669</ele><time>2026-04-11T08:30:25.448Z</time></trkpt><trkpt lat="43.7546634" lon="12.8062254"><ele>201.33333333333334</ele><time>2026-04-11T08:30:26.449Z</time></trkpt><trkpt lat="43.7545888" lon="12.8062333"><ele>201.0</ele><time>2026-04-11T08:30:27.449Z</time></trkpt><trkpt lat="43.7544526" lon="12.806101"><ele>198.25</ele><time>2026-04-11T08:30:28.448Z</time></trkpt><trkpt lat="43.7543325" lon="12.8060572"><ele>195.5</ele><time>2026-04-11T08:30:29.448Z</time></trkpt><trkpt lat="43.7541961" lon="12.8060402"><ele>192.75</ele><time>2026-04-11T08:30:30.448Z</time></trkpt><trkpt lat="43.7540581" lon="12.8060405"><ele>190.0</ele><time>2026-04-11T08:30:31.449Z</time></trkpt><trkpt lat="43.7539248" lon="12.8061099"><ele>190.0</ele><time>2026-04-11T08:30:32.448Z</time></trkpt><trkpt lat="43.7537914" lon="12.8062175"><ele>190.0</ele><time>2026-04-11T08:30:33.449Z</time></trkpt><trkpt lat="43.7536419" lon="12.8063783"><ele>190.0</ele><time>2026-04-11T08:30:34.448Z</time></trkpt><trkpt lat="43.7534813" lon="12.8065753"><ele>189.66666666666669</ele><time>2026-04-11T08:30:35.448Z</time></trkpt><trkpt lat="43.7533194" lon="12.8067947"><ele>189.33333333333334</ele><time>2026-04-11T08:30:36.448Z</time></trkpt><trkpt lat="43.7531837" lon="12.8070119"><ele>189.0</ele><time>2026-04-11T08:30:37.449Z</time></trkpt><trkpt lat="43.7530609" lon="12.8072244"><ele>188.66666666666666</ele><time>2026-04-11T08:30:38.448Z</time></trkpt><trkpt lat="43.7529526" lon="12.8074423"><ele>188.33333333333331</ele><time>2026-04-11T08:30:39.449Z</time></trkpt><trkpt lat="43.7528674" lon="12.8076577"><ele>188.0</ele><time>2026-04-11T08:30:40.448Z</time></trkpt><trkpt lat="43.7528137" lon="12.8078776"><ele>188.66666666666666</ele><time>2026-04-11T08:30:41.449Z</time></trkpt><trkpt lat="43.7527796" lon="12.8081123"><ele>189.33333333333334</ele><time>2026-04-11T08:30:42.449Z</time></trkpt><trkpt lat="43.7527601" lon="12.8083293"><ele>190.0</ele><time>2026-04-11T08:30:43.449Z</time></trkpt><trkpt lat="43.7527408" lon="12.8085232"><ele>190.0</ele><time>2026-04-11T08:30:44.448Z</time></trkpt><trkpt lat="43.7527065" lon="12.8086932"><ele>190.0</ele><time>2026-04-11T08:30:45.448Z</time></trkpt><trkpt lat="43.7526537" lon="12.8088315"><ele>190.0</ele><time>2026-04-11T08:30:46.448Z</time></trkpt><trkpt lat="43.7525694" lon="12.8089386"><ele>190.0</ele><time>2026-04-11T08:30:47.448Z</time></trkpt><trkpt lat="43.7524618" lon="12.8090124"><ele>194.0</ele><time>2026-04-11T08:30:48.449Z</time></trkpt><trkpt lat="43.7523204" lon="12.8090796"><ele>198.0</ele><time>2026-04-11T08:30:49.448Z</time></trkpt><trkpt lat="43.7521598" lon="12.8091537"><ele>202.0</ele><time>2026-04-11T08:30:50.45Z</time></trkpt><trkpt lat="43.7519764" lon="12.8092375"><ele>205.0</ele><time>2026-04-11T08:30:51.448Z</time></trkpt><trkpt lat="43.7518132" lon="12.8093262"><ele>208.0</ele><time>2026-04-11T08:30:52.448Z</time></trkpt><trkpt lat="43.7516639" lon="12.8094014"><ele>211.0</ele><time>2026-04-11T08:30:53.448Z</time></trkpt><trkpt lat="43.7515263" lon="12.8094655"><ele>211.0</ele><time>2026-04-11T08:30:54.45Z</time></trkpt><trkpt lat="43.7513841" lon="12.8095266"><ele>211.0</ele><time>2026-04-11T08:30:55.448Z</time></trkpt><trkpt lat="43.7512361" lon="12.8095699"><ele>211.0</ele><time>2026-04-11T08:30:56.448Z</time></trkpt><trkpt lat="43.7510781" lon="12.8095886"><ele>212.25</ele><time>2026-04-11T08:30:57.449Z</time></trkpt><trkpt lat="43.7509257" lon="12.8095803"><ele>213.5</ele><time>2026-04-11T08:30:58.448Z</time></trkpt><trkpt lat="43.7507945" lon="12.8095605"><ele>214.75</ele><time>2026-04-11T08:30:59.448Z</time></trkpt><trkpt lat="43.7506763" lon="12.8095464"><ele>216.0</ele><time>2026-04-11T08:31:00.448Z</time></trkpt><trkpt lat="43.7505719" lon="12.8095673"><ele>216.0</ele><time>2026-04-11T08:31:01.448Z</time></trkpt><trkpt lat="43.7505005" lon="12.8096411"><ele>216.00000000000003</ele><time>2026-04-11T08:31:02.448Z</time></trkpt><trkpt lat="43.7504624" lon="12.8097496"><ele>216.00000000000003</ele><time>2026-04-11T08:31:03.449Z</time></trkpt><trkpt lat="43.7504575" lon="12.8098829"><ele>216.0</ele><time>2026-04-11T08:31:04.448Z</time></trkpt><trkpt lat="43.7504843" lon="12.8100185"><ele>216.0</ele><time>2026-04-11T08:31:05.448Z</time></trkpt><trkpt lat="43.7505377" lon="12.8101428"><ele>218.25</ele><time>2026-04-11T08:31:06.448Z</time></trkpt><trkpt lat="43.7506221" lon="12.8102472"><ele>220.5</ele><time>2026-04-11T08:31:07.448Z</time></trkpt><trkpt lat="43.7507394" lon="12.8103382"><ele>222.75</ele><time>2026-04-11T08:31:08.449Z</time></trkpt><trkpt lat="43.7508808" lon="12.8104275"><ele>225.0</ele><time>2026-04-11T08:31:09.448Z</time></trkpt><trkpt lat="43.7510511" lon="12.8105058"><ele>225.0</ele><time>2026-04-11T08:31:10.448Z</time></trkpt><trkpt lat="43.7512419" lon="12.8105716"><ele>225.0</ele><time>2026-04-11T08:31:11.448Z</time></trkpt><trkpt lat="43.7514095" lon="12.8106387"><ele>225.0</ele><time>2026-04-11T08:31:12.448Z</time></trkpt><trkpt lat="43.7515602" lon="12.8106966"><ele>225.0</ele><time>2026-04-11T08:31:13.448Z</time></trkpt><trkpt lat="43.7516925" lon="12.8107539"><ele>225.0</ele><time>2026-04-11T08:31:14.448Z</time></trkpt><trkpt lat="43.7517979" lon="12.810815"><ele>225.0</ele><time>2026-04-11T08:31:15.448Z</time></trkpt><trkpt lat="43.7518623" lon="12.8108996"><ele>225.0</ele><time>2026-04-11T08:31:16.448Z</time></trkpt><trkpt lat="43.7518817" lon="12.8110122"><ele>225.0</ele><time>2026-04-11T08:31:17.449Z</time></trkpt><trkpt lat="43.7518622" lon="12.8111336"><ele>226.33333333333331</ele><time>2026-04-11T08:31:18.448Z</time></trkpt><trkpt lat="43.7518114" lon="12.8112921"><ele>227.66666666666666</ele><time>2026-04-11T08:31:19.448Z</time></trkpt><trkpt lat="43.7517373" lon="12.811497"><ele>229.0</ele><time>2026-04-11T08:31:20.45Z</time></trkpt><trkpt lat="43.7516461" lon="12.8117504"><ele>226.66666666666666</ele><time>2026-04-11T08:31:21.448Z</time></trkpt><trkpt lat="43.7515443" lon="12.8120327"><ele>224.33333333333331</ele><time>2026-04-11T08:31:22.448Z</time></trkpt><trkpt lat="43.7514591" lon="12.8122724"><ele>222.0</ele><time>2026-04-11T08:31:23.448Z</time></trkpt><trkpt lat="43.7513803" lon="12.8124804"><ele>222.0</ele><time>2026-04-11T08:31:24.448Z</time></trkpt><trkpt lat="43.7513075" lon="12.8126557"><ele>222.0</ele><time>2026-04-11T08:31:25.448Z</time></trkpt><trkpt lat="43.7512249" lon="12.8127903"><ele>222.0</ele><time>2026-04-11T08:31:26.449Z</time></trkpt><trkpt lat="43.7511308" lon="12.8128694"><ele>222.0</ele><time>2026-04-11T08:31:27.448Z</time></trkpt><trkpt lat="43.751008" lon="12.8129087"><ele>225.0</ele><time>2026-04-11T08:31:28.448Z</time></trkpt><trkpt lat="43.7508589" lon="12.8129245"><ele>228.0</ele><time>2026-04-11T08:31:29.448Z</time></trkpt><trkpt lat="43.750701" lon="12.8129505"><ele>231.0</ele><time>2026-04-11T08:31:30.448Z</time></trkpt><trkpt lat="43.7505373" lon="12.8130181"><ele>231.0</ele><time>2026-04-11T08:31:31.448Z</time></trkpt><trkpt lat="43.7503622" lon="12.813133"><ele>231.0</ele><time>2026-04-11T08:31:32.448Z</time></trkpt><trkpt lat="43.7502" lon="12.8132927"><ele>231.0</ele><time>2026-04-11T08:31:33.448Z</time></trkpt><trkpt lat="43.7500365" lon="12.8134955"><ele>236.5</ele><time>2026-04-11T08:31:34.448Z</time></trkpt><trkpt lat="43.7498736" lon="12.8137426"><ele>242.0</ele><time>2026-04-11T08:31:35.449Z</time></trkpt><trkpt lat="43.749732" lon="12.8139811"><ele>242.0</ele><time>2026-04-11T08:31:36.45Z</time></trkpt><trkpt lat="43.7496059" lon="12.8142013"><ele>242.0</ele><time>2026-04-11T08:31:37.448Z</time></trkpt><trkpt lat="43.7495" lon="12.814406"><ele>242.0</ele><time>2026-04-11T08:31:38.449Z</time></trkpt><trkpt lat="43.7494165" lon="12.8146099"><ele>246.0</ele><time>2026-04-11T08:31:39.448Z</time></trkpt><trkpt lat="43.7493409" lon="12.814844"><ele>250.0</ele><time>2026-04-11T08:31:40.448Z</time></trkpt><trkpt lat="43.7492635" lon="12.8150659"><ele>254.0</ele><time>2026-04-11T08:31:41.448Z</time></trkpt><trkpt lat="43.7491578" lon="12.8152801"><ele>254.0</ele><time>2026-04-11T08:31:42.448Z</time></trkpt><trkpt lat="43.7490292" lon="12.8154868"><ele>254.0</ele><time>2026-04-11T08:31:43.448Z</time></trkpt><trkpt lat="43.7489195" lon="12.8156546"><ele>254.0</ele><time>2026-04-11T08:31:44.45Z</time></trkpt><trkpt lat="43.7488137" lon="12.8157916"><ele>254.0</ele><time>2026-04-11T08:31:45.448Z</time></trkpt><trkpt lat="43.7487092" lon="12.815886"><ele>254.0</ele><time>2026-04-11T08:31:46.448Z</time></trkpt><trkpt lat="43.7486023" lon="12.8159309"><ele>254.0</ele><time>2026-04-11T08:31:47.448Z</time></trkpt><trkpt lat="43.7484821" lon="12.8159235"><ele>254.0</ele><time>2026-04-11T08:31:48.448Z</time></trkpt><trkpt lat="43.7483562" lon="12.815912"><ele>257.33333333333337</ele><time>2026-04-11T08:31:49.449Z</time></trkpt><trkpt lat="43.7481903" lon="12.815756"><ele>260.6666666666667</ele><time>2026-04-11T08:31:50.449Z</time></trkpt><trkpt lat="43.7480189" lon="12.8156529"><ele>264.0</ele><time>2026-04-11T08:31:51.448Z</time></trkpt><trkpt lat="43.7478419" lon="12.8155468"><ele>263.0</ele><time>2026-04-11T08:31:52.449Z</time></trkpt><trkpt lat="43.7476758" lon="12.8154706"><ele>262.0</ele><time>2026-04-11T08:31:53.449Z</time></trkpt><trkpt lat="43.7475036" lon="12.8154123"><ele>261.0</ele><time>2026-04-11T08:31:54.449Z</time></trkpt><trkpt lat="43.7473469" lon="12.8153835"><ele>261.0</ele><time>2026-04-11T08:31:55.448Z</time></trkpt><trkpt lat="43.7472046" lon="12.8153579"><ele>261.0</ele><time>2026-04-11T08:31:56.448Z</time></trkpt><trkpt lat="43.747074" lon="12.8153277"><ele>261.0</ele><time>2026-04-11T08:31:57.448Z</time></trkpt><trkpt lat="43.7469484" lon="12.8153098"><ele>261.0</ele><time>2026-04-11T08:31:58.449Z</time></trkpt><trkpt lat="43.7468125" lon="12.8153266"><ele>263.25</ele><time>2026-04-11T08:31:59.448Z</time></trkpt><trkpt lat="43.7466855" lon="12.8154041"><ele>265.5</ele><time>2026-04-11T08:32:00.448Z</time></trkpt><trkpt lat="43.7465928" lon="12.8155278"><ele>267.75</ele><time>2026-04-11T08:32:01.448Z</time></trkpt><trkpt lat="43.7465234" lon="12.8156939"><ele>270.0</ele><time>2026-04-11T08:32:02.448Z</time></trkpt><trkpt lat="43.7464795" lon="12.8159003"><ele>269.6666666666667</ele><time>2026-04-11T08:32:03.448Z</time></trkpt><trkpt lat="43.7464677" lon="12.8161435"><ele>269.33333333333337</ele><time>2026-04-11T08:32:04.449Z</time></trkpt><trkpt lat="43.746465" lon="12.8164315"><ele>269.0</ele><time>2026-04-11T08:32:05.449Z</time></trkpt><trkpt lat="43.7464623" lon="12.8167637"><ele>270.5</ele><time>2026-04-11T08:32:06.448Z</time></trkpt><trkpt lat="43.7464589" lon="12.8171031"><ele>272.0</ele><time>2026-04-11T08:32:07.448Z</time></trkpt><trkpt lat="43.7464557" lon="12.8174025"><ele>272.6666666666667</ele><time>2026-04-11T08:32:08.449Z</time></trkpt><trkpt lat="43.7464608" lon="12.8176844"><ele>273.3333333333333</ele><time>2026-04-11T08:32:09.448Z</time></trkpt><trkpt lat="43.7464741" lon="12.8179412"><ele>274.0</ele><time>2026-04-11T08:32:10.449Z</time></trkpt><trkpt lat="43.7465031" lon="12.8181747"><ele>274.0</ele><time>2026-04-11T08:32:11.448Z</time></trkpt><trkpt lat="43.746569" lon="12.8184046"><ele>274.0</ele><time>2026-04-11T08:32:12.448Z</time></trkpt><trkpt lat="43.7466777" lon="12.8186502"><ele>274.0</ele><time>2026-04-11T08:32:13.448Z</time></trkpt><trkpt lat="43.7468026" lon="12.8189"><ele>271.0</ele><time>2026-04-11T08:32:14.449Z</time></trkpt><trkpt lat="43.7469099" lon="12.8191164"><ele>268.0</ele><time>2026-04-11T08:32:15.447Z</time></trkpt><trkpt lat="43.7470052" lon="12.8193106"><ele>265.0</ele><time>2026-04-11T08:32:16.447Z</time></trkpt><trkpt lat="43.7470874" lon="12.8194826"><ele>265.0</ele><time>2026-04-11T08:32:17.448Z</time></trkpt><trkpt lat="43.7471465" lon="12.8196481"><ele>265.0</ele><time>2026-04-11T08:32:18.447Z</time></trkpt><trkpt lat="43.7471734" lon="12.8198148"><ele>265.0</ele><time>2026-04-11T08:32:19.448Z</time></trkpt><trkpt lat="43.7471646" lon="12.8199935"><ele>265.0</ele><time>2026-04-11T08:32:20.449Z</time></trkpt><trkpt lat="43.747116" lon="12.8201853"><ele>263.3333333333333</ele><time>2026-04-11T08:32:21.449Z</time></trkpt><trkpt lat="43.7470256" lon="12.8203935"><ele>261.6666666666667</ele><time>2026-04-11T08:32:22.447Z</time></trkpt><trkpt lat="43.7469156" lon="12.8206236"><ele>260.0</ele><time>2026-04-11T08:32:23.447Z</time></trkpt><trkpt lat="43.7468069" lon="12.8208711"><ele>266.33333333333337</ele><time>2026-04-11T08:32:24.447Z</time></trkpt><trkpt lat="43.7467131" lon="12.8210903"><ele>272.6666666666667</ele><time>2026-04-11T08:32:25.448Z</time></trkpt><trkpt lat="43.7466395" lon="12.8213086"><ele>279.0</ele><time>2026-04-11T08:32:26.447Z</time></trkpt><trkpt lat="43.7465981" lon="12.8215548"><ele>277.3333333333333</ele><time>2026-04-11T08:32:27.448Z</time></trkpt><trkpt lat="43.7465727" lon="12.8218466"><ele>275.66666666666663</ele><time>2026-04-11T08:32:28.448Z</time></trkpt><trkpt lat="43.7465519" lon="12.8221708"><ele>274.0</ele><time>2026-04-11T08:32:29.447Z</time></trkpt><trkpt lat="43.7465342" lon="12.8225125"><ele>272.66666666666663</ele><time>2026-04-11T08:32:30.448Z</time></trkpt><trkpt lat="43.746514" lon="12.822813"><ele>271.3333333333333</ele><time>2026-04-11T08:32:31.447Z</time></trkpt><trkpt lat="43.746495" lon="12.8230851"><ele>270.0</ele><time>2026-04-11T08:32:32.447Z</time></trkpt><trkpt lat="43.7464716" lon="12.8233248"><ele>268.6666666666667</ele><time>2026-04-11T08:32:33.447Z</time></trkpt><trkpt lat="43.7464268" lon="12.8235375"><ele>267.33333333333337</ele><time>2026-04-11T08:32:34.447Z</time></trkpt><trkpt lat="43.7463476" lon="12.8237563"><ele>266.0</ele><time>2026-04-11T08:32:35.448Z</time></trkpt><trkpt lat="43.7462501" lon="12.8239994"><ele>266.0</ele><time>2026-04-11T08:32:36.447Z</time></trkpt><trkpt lat="43.7461429" lon="12.8242681"><ele>266.0</ele><time>2026-04-11T08:32:37.447Z</time></trkpt><trkpt lat="43.7460228" lon="12.8245696"><ele>270.0</ele><time>2026-04-11T08:32:38.447Z</time></trkpt><trkpt lat="43.7458931" lon="12.8248764"><ele>274.0</ele><time>2026-04-11T08:32:39.448Z</time></trkpt><trkpt lat="43.7457565" lon="12.825197"><ele>274.0</ele><time>2026-04-11T08:32:40.447Z</time></trkpt><trkpt lat="43.7456338" lon="12.8254844"><ele>274.0</ele><time>2026-04-11T08:32:41.447Z</time></trkpt><trkpt lat="43.7455222" lon="12.825747"><ele>272.0</ele><time>2026-04-11T08:32:42.447Z</time></trkpt><trkpt lat="43.7454253" lon="12.8259826"><ele>270.0</ele><time>2026-04-11T08:32:43.448Z</time></trkpt><trkpt lat="43.7453396" lon="12.8261924"><ele>268.0</ele><time>2026-04-11T08:32:44.447Z</time></trkpt><trkpt lat="43.7452669" lon="12.8263701"><ele>268.8</ele><time>2026-04-11T08:32:45.447Z</time></trkpt><trkpt lat="43.7452003" lon="12.8265199"><ele>269.6</ele><time>2026-04-11T08:32:46.447Z</time></trkpt><trkpt lat="43.7451431" lon="12.8266433"><ele>270.4</ele><time>2026-04-11T08:32:47.448Z</time></trkpt><trkpt lat="43.7450859" lon="12.8267364"><ele>271.2</ele><time>2026-04-11T08:32:48.447Z</time></trkpt><trkpt lat="43.7450273" lon="12.8267835"><ele>272.0</ele><time>2026-04-11T08:32:49.447Z</time></trkpt><trkpt lat="43.7449442" lon="12.8269114"><ele>272.0</ele><time>2026-04-11T08:32:51.448Z</time></trkpt><trkpt lat="43.7449136" lon="12.8270481"><ele>272.0</ele><time>2026-04-11T08:32:52.447Z</time></trkpt><trkpt lat="43.7448868" lon="12.8272272"><ele>272.0</ele><time>2026-04-11T08:32:53.447Z</time></trkpt><trkpt lat="43.7448531" lon="12.8274401"><ele>272.0</ele><time>2026-04-11T08:32:54.448Z</time></trkpt><trkpt lat="43.7448235" lon="12.82767"><ele>271.6666666666667</ele><time>2026-04-11T08:32:55.447Z</time></trkpt><trkpt lat="43.7447849" lon="12.8279277"><ele>271.3333333333333</ele><time>2026-04-11T08:32:56.448Z</time></trkpt><trkpt lat="43.7447495" lon="12.8281854"><ele>271.0</ele><time>2026-04-11T08:32:57.447Z</time></trkpt><trkpt lat="43.7447133" lon="12.8284268"><ele>271.5</ele><time>2026-04-11T08:32:58.447Z</time></trkpt><trkpt lat="43.7446754" lon="12.8286531"><ele>272.0</ele><time>2026-04-11T08:32:59.447Z</time></trkpt><trkpt lat="43.7446413" lon="12.8288413"><ele>272.5</ele><time>2026-04-11T08:33:00.448Z</time></trkpt><trkpt lat="43.7446105" lon="12.828999"><ele>273.0</ele><time>2026-04-11T08:33:01.447Z</time></trkpt><trkpt lat="43.7445717" lon="12.8291427"><ele>273.0</ele><time>2026-04-11T08:33:02.447Z</time></trkpt><trkpt lat="43.7445138" lon="12.8292713"><ele>273.0</ele><time>2026-04-11T08:33:03.447Z</time></trkpt><trkpt lat="43.7444442" lon="12.829398"><ele>273.0</ele><time>2026-04-11T08:33:04.447Z</time></trkpt><trkpt lat="43.7443786" lon="12.8295401"><ele>273.0</ele><time>2026-04-11T08:33:05.449Z</time></trkpt><trkpt lat="43.7443101" lon="12.8296976"><ele>273.6666666666667</ele><time>2026-04-11T08:33:06.448Z</time></trkpt><trkpt lat="43.7442341" lon="12.8298648"><ele>274.33333333333337</ele><time>2026-04-11T08:33:07.447Z</time></trkpt><trkpt lat="43.7441534" lon="12.8300458"><ele>275.0</ele><time>2026-04-11T08:33:08.447Z</time></trkpt><trkpt lat="43.7440489" lon="12.8302501"><ele>275.0</ele><time>2026-04-11T08:33:09.448Z</time></trkpt><trkpt lat="43.7439343" lon="12.8304427"><ele>275.0</ele><time>2026-04-11T08:33:10.447Z</time></trkpt><trkpt lat="43.7438271" lon="12.8306164"><ele>275.0</ele><time>2026-04-11T08:33:11.447Z</time></trkpt><trkpt lat="43.7437355" lon="12.8307907"><ele>275.6666666666667</ele><time>2026-04-11T08:33:12.447Z</time></trkpt><trkpt lat="43.7436659" lon="12.8309742"><ele>276.3333333333333</ele><time>2026-04-11T08:33:13.447Z</time></trkpt><trkpt lat="43.7436018" lon="12.8311671"><ele>277.0</ele><time>2026-04-11T08:33:14.447Z</time></trkpt><trkpt lat="43.7435422" lon="12.8313622"><ele>274.25</ele><time>2026-04-11T08:33:15.447Z</time></trkpt><trkpt lat="43.7434813" lon="12.831555"><ele>271.5</ele><time>2026-04-11T08:33:16.447Z</time></trkpt><trkpt lat="43.74342" lon="12.8317406"><ele>268.75</ele><time>2026-04-11T08:33:17.449Z</time></trkpt><trkpt lat="43.7433576" lon="12.8319014"><ele>266.0</ele><time>2026-04-11T08:33:18.448Z</time></trkpt><trkpt lat="43.7433172" lon="12.8320692"><ele>265.75</ele><time>2026-04-11T08:33:19.448Z</time></trkpt><trkpt lat="43.7432889" lon="12.8322531"><ele>265.5</ele><time>2026-04-11T08:33:20.447Z</time></trkpt><trkpt lat="43.7432733" lon="12.8324668"><ele>265.25</ele><time>2026-04-11T08:33:21.447Z</time></trkpt><trkpt lat="43.7432737" lon="12.8326805"><ele>265.0</ele><time>2026-04-11T08:33:22.447Z</time></trkpt><trkpt lat="43.7432798" lon="12.8328573"><ele>265.0</ele><time>2026-04-11T08:33:23.447Z</time></trkpt><trkpt lat="43.7432779" lon="12.8330151"><ele>265.0</ele><time>2026-04-11T08:33:24.448Z</time></trkpt><trkpt lat="43.7432708" lon="12.8331549"><ele>265.0</ele><time>2026-04-11T08:33:25.448Z</time></trkpt><trkpt lat="43.7432618" lon="12.8332749"><ele>265.0</ele><time>2026-04-11T08:33:26.447Z</time></trkpt><trkpt lat="43.7432512" lon="12.8333684"><ele>265.0</ele><time>2026-04-11T08:33:27.447Z</time></trkpt><trkpt lat="43.7432966" lon="12.8335459"><ele>265.0</ele><time>2026-04-11T08:33:29.448Z</time></trkpt><trkpt lat="43.7433498" lon="12.8336238"><ele>265.0</ele><time>2026-04-11T08:33:30.447Z</time></trkpt><trkpt lat="43.7434144" lon="12.8337022"><ele>265.0</ele><time>2026-04-11T08:33:31.447Z</time></trkpt><trkpt lat="43.7434693" lon="12.8337881"><ele>265.0</ele><time>2026-04-11T08:33:32.447Z</time></trkpt><trkpt lat="43.7435119" lon="12.8338907"><ele>265.0</ele><time>2026-04-11T08:33:33.447Z</time></trkpt><trkpt lat="43.7435625" lon="12.8340175"><ele>265.0</ele><time>2026-04-11T08:33:34.448Z</time></trkpt><trkpt lat="43.7436187" lon="12.8341616"><ele>262.0</ele><time>2026-04-11T08:33:35.447Z</time></trkpt><trkpt lat="43.7436773" lon="12.8343062"><ele>259.0</ele><time>2026-04-11T08:33:36.447Z</time></trkpt><trkpt lat="43.7437216" lon="12.8344452"><ele>256.0</ele><time>2026-04-11T08:33:37.448Z</time></trkpt><trkpt lat="43.7437504" lon="12.8346106"><ele>253.0</ele><time>2026-04-11T08:33:38.447Z</time></trkpt><trkpt lat="43.7437647" lon="12.8348246"><ele>253.0</ele><time>2026-04-11T08:33:39.447Z</time></trkpt><trkpt lat="43.7437594" lon="12.835061"><ele>253.0</ele><time>2026-04-11T08:33:40.448Z</time></trkpt><trkpt lat="43.7437327" lon="12.8352702"><ele>253.0</ele><time>2026-04-11T08:33:41.448Z</time></trkpt><trkpt lat="43.7436954" lon="12.8354832"><ele>254.25</ele><time>2026-04-11T08:33:42.448Z</time></trkpt><trkpt lat="43.7436546" lon="12.8356932"><ele>255.5</ele><time>2026-04-11T08:33:43.447Z</time></trkpt><trkpt lat="43.7436226" lon="12.8358737"><ele>256.75</ele><time>2026-04-11T08:33:44.447Z</time></trkpt><trkpt lat="43.7435905" lon="12.8360388"><ele>258.0</ele><time>2026-04-11T08:33:45.447Z</time></trkpt><trkpt lat="43.743534" lon="12.8362023"><ele>258.0</ele><time>2026-04-11T08:33:46.447Z</time></trkpt><trkpt lat="43.7434514" lon="12.8363767"><ele>258.0</ele><time>2026-04-11T08:33:47.447Z</time></trkpt><trkpt lat="43.7433482" lon="12.8365575"><ele>258.0</ele><time>2026-04-11T08:33:48.448Z</time></trkpt><trkpt lat="43.7432264" lon="12.8367472"><ele>253.0</ele><time>2026-04-11T08:33:49.447Z</time></trkpt><trkpt lat="43.7430792" lon="12.8369688"><ele>248.0</ele><time>2026-04-11T08:33:50.447Z</time></trkpt><trkpt lat="43.7429071" lon="12.8372056"><ele>248.0</ele><time>2026-04-11T08:33:51.447Z</time></trkpt><trkpt lat="43.7427535" lon="12.8374043"><ele>248.0</ele><time>2026-04-11T08:33:52.447Z</time></trkpt><trkpt lat="43.7426111" lon="12.8375859"><ele>248.0</ele><time>2026-04-11T08:33:53.447Z</time></trkpt><trkpt lat="43.742479" lon="12.8377455"><ele>248.33333333333334</ele><time>2026-04-11T08:33:54.448Z</time></trkpt><trkpt lat="43.7423538" lon="12.837892"><ele>248.66666666666669</ele><time>2026-04-11T08:33:55.448Z</time></trkpt><trkpt lat="43.7422391" lon="12.8380297"><ele>249.0</ele><time>2026-04-11T08:33:56.447Z</time></trkpt><trkpt lat="43.7421393" lon="12.8381854"><ele>249.0</ele><time>2026-04-11T08:33:57.447Z</time></trkpt><trkpt lat="43.7420639" lon="12.8383767"><ele>249.0</ele><time>2026-04-11T08:33:58.447Z</time></trkpt><trkpt lat="43.742009" lon="12.8386024"><ele>249.0</ele><time>2026-04-11T08:33:59.445Z</time></trkpt><trkpt lat="43.7419525" lon="12.8388541"><ele>248.0</ele><time>2026-04-11T08:34:00.447Z</time></trkpt><trkpt lat="43.7418941" lon="12.839085"><ele>247.0</ele><time>2026-04-11T08:34:01.448Z</time></trkpt><trkpt lat="43.7418364" lon="12.8393135"><ele>246.0</ele><time>2026-04-11T08:34:02.447Z</time></trkpt><trkpt lat="43.7417878" lon="12.8395707"><ele>246.0</ele><time>2026-04-11T08:34:03.448Z</time></trkpt><trkpt lat="43.7417555" lon="12.8398351"><ele>246.0</ele><time>2026-04-11T08:34:04.447Z</time></trkpt><trkpt lat="43.7417358" lon="12.8400762"><ele>246.0</ele><time>2026-04-11T08:34:05.448Z</time></trkpt><trkpt lat="43.7417207" lon="12.8403105"><ele>244.33333333333331</ele><time>2026-04-11T08:34:06.447Z</time></trkpt><trkpt lat="43.7417051" lon="12.8405524"><ele>242.66666666666666</ele><time>2026-04-11T08:34:07.447Z</time></trkpt><trkpt lat="43.7416684" lon="12.8408036"><ele>241.0</ele><time>2026-04-11T08:34:08.447Z</time></trkpt><trkpt lat="43.7415968" lon="12.8410682"><ele>239.33333333333331</ele><time>2026-04-11T08:34:09.447Z</time></trkpt><trkpt lat="43.7414954" lon="12.8413421"><ele>237.66666666666669</ele><time>2026-04-11T08:34:10.447Z</time></trkpt><trkpt lat="43.7414004" lon="12.8415816"><ele>236.0</ele><time>2026-04-11T08:34:11.449Z</time></trkpt><trkpt lat="43.7413104" lon="12.8418041"><ele>236.0</ele><time>2026-04-11T08:34:12.447Z</time></trkpt><trkpt lat="43.7412197" lon="12.8419967"><ele>236.0</ele><time>2026-04-11T08:34:13.447Z</time></trkpt><trkpt lat="43.7411271" lon="12.8421505"><ele>236.0</ele><time>2026-04-11T08:34:14.448Z</time></trkpt><trkpt lat="43.7410298" lon="12.8422859"><ele>236.0</ele><time>2026-04-11T08:34:15.447Z</time></trkpt><trkpt lat="43.7409381" lon="12.8424098"><ele>236.0</ele><time>2026-04-11T08:34:16.448Z</time></trkpt><trkpt lat="43.7408669" lon="12.8425516"><ele>236.0</ele><time>2026-04-11T08:34:17.447Z</time></trkpt><trkpt lat="43.7408097" lon="12.8427321"><ele>236.0</ele><time>2026-04-11T08:34:18.448Z</time></trkpt><trkpt lat="43.7407564" lon="12.8428938"><ele>236.0</ele><time>2026-04-11T08:34:19.447Z</time></trkpt><trkpt lat="43.7406905" lon="12.8430612"><ele>234.25</ele><time>2026-04-11T08:34:20.447Z</time></trkpt><trkpt lat="43.7406264" lon="12.8432255"><ele>232.5</ele><time>2026-04-11T08:34:21.448Z</time></trkpt><trkpt lat="43.740582" lon="12.8434004"><ele>230.75</ele><time>2026-04-11T08:34:22.447Z</time></trkpt><trkpt lat="43.7405463" lon="12.8435723"><ele>229.0</ele><time>2026-04-11T08:34:23.447Z</time></trkpt><trkpt lat="43.7404983" lon="12.843752"><ele>226.0</ele><time>2026-04-11T08:34:24.448Z</time></trkpt><trkpt lat="43.7404384" lon="12.8439546"><ele>223.0</ele><time>2026-04-11T08:34:25.448Z</time></trkpt><trkpt lat="43.7403703" lon="12.8441536"><ele>220.0</ele><time>2026-04-11T08:34:26.448Z</time></trkpt><trkpt lat="43.7403067" lon="12.8443408"><ele>220.25</ele><time>2026-04-11T08:34:27.447Z</time></trkpt><trkpt lat="43.7402483" lon="12.8445228"><ele>220.5</ele><time>2026-04-11T08:34:28.447Z</time></trkpt><trkpt lat="43.7401874" lon="12.8446983"><ele>220.75</ele><time>2026-04-11T08:34:29.448Z</time></trkpt><trkpt lat="43.7401098" lon="12.8448675"><ele>221.0</ele><time>2026-04-11T08:34:30.447Z</time></trkpt><trkpt lat="43.740031" lon="12.845021"><ele>218.75</ele><time>2026-04-11T08:34:31.447Z</time></trkpt><trkpt lat="43.7399552" lon="12.8451737"><ele>216.5</ele><time>2026-04-11T08:34:32.448Z</time></trkpt><trkpt lat="43.7398835" lon="12.8453424"><ele>214.25</ele><time>2026-04-11T08:34:33.449Z</time></trkpt><trkpt lat="43.7398066" lon="12.845556"><ele>212.0</ele><time>2026-04-11T08:34:34.448Z</time></trkpt><trkpt lat="43.7397239" lon="12.8457991"><ele>211.0</ele><time>2026-04-11T08:34:35.447Z</time></trkpt><trkpt lat="43.7396508" lon="12.8460202"><ele>210.0</ele><time>2026-04-11T08:34:36.447Z</time></trkpt><trkpt lat="43.7395752" lon="12.8462347"><ele>209.0</ele><time>2026-04-11T08:34:37.447Z</time></trkpt><trkpt lat="43.7394956" lon="12.8464303"><ele>209.0</ele><time>2026-04-11T08:34:38.447Z</time></trkpt><trkpt lat="43.7393988" lon="12.8466287"><ele>209.0</ele><time>2026-04-11T08:34:39.447Z</time></trkpt><trkpt lat="43.73929" lon="12.8468258"><ele>209.0</ele><time>2026-04-11T08:34:40.447Z</time></trkpt><trkpt lat="43.7391854" lon="12.8470088"><ele>208.0</ele><time>2026-04-11T08:34:41.447Z</time></trkpt><trkpt lat="43.7390886" lon="12.8471867"><ele>207.0</ele><time>2026-04-11T08:34:42.448Z</time></trkpt><trkpt lat="43.7389985" lon="12.8473455"><ele>206.0</ele><time>2026-04-11T08:34:43.447Z</time></trkpt><trkpt lat="43.7389113" lon="12.8474852"><ele>205.0</ele><time>2026-04-11T08:34:44.447Z</time></trkpt><trkpt lat="43.7388344" lon="12.8476055"><ele>203.0</ele><time>2026-04-11T08:34:45.448Z</time></trkpt><trkpt lat="43.7387648" lon="12.8477126"><ele>201.0</ele><time>2026-04-11T08:34:46.447Z</time></trkpt><trkpt lat="43.7387102" lon="12.8478309"><ele>199.0</ele><time>2026-04-11T08:34:47.447Z</time></trkpt><trkpt lat="43.7386701" lon="12.8479866"><ele>197.0</ele><time>2026-04-11T08:34:48.448Z</time></trkpt><trkpt lat="43.7386359" lon="12.8481647"><ele>197.0</ele><time>2026-04-11T08:34:49.447Z</time></trkpt><trkpt lat="43.7385928" lon="12.8483284"><ele>197.0</ele><time>2026-04-11T08:34:50.448Z</time></trkpt><trkpt lat="43.738524" lon="12.8484777"><ele>197.0</ele><time>2026-04-11T08:34:51.448Z</time></trkpt><trkpt lat="43.7384382" lon="12.8486116"><ele>197.0</ele><time>2026-04-11T08:34:52.447Z</time></trkpt><trkpt lat="43.7383507" lon="12.8487374"><ele>196.0</ele><time>2026-04-11T08:34:53.447Z</time></trkpt><trkpt lat="43.7382709" lon="12.8488647"><ele>195.0</ele><time>2026-04-11T08:34:54.447Z</time></trkpt><trkpt lat="43.7382032" lon="12.8490034"><ele>194.0</ele><time>2026-04-11T08:34:55.449Z</time></trkpt><trkpt lat="43.7381564" lon="12.8491647"><ele>193.0</ele><time>2026-04-11T08:34:56.447Z</time></trkpt><trkpt lat="43.738112" lon="12.8493691"><ele>189.66666666666666</ele><time>2026-04-11T08:34:57.447Z</time></trkpt><trkpt lat="43.7380458" lon="12.8496155"><ele>186.33333333333331</ele><time>2026-04-11T08:34:58.447Z</time></trkpt><trkpt lat="43.7379628" lon="12.8498801"><ele>183.0</ele><time>2026-04-11T08:34:59.449Z</time></trkpt><trkpt lat="43.737888" lon="12.8501225"><ele>181.0</ele><time>2026-04-11T08:35:00.448Z</time></trkpt><trkpt lat="43.7378177" lon="12.850359"><ele>179.0</ele><time>2026-04-11T08:35:01.448Z</time></trkpt><trkpt lat="43.7377473" lon="12.8505838"><ele>177.0</ele><time>2026-04-11T08:35:02.447Z</time></trkpt><trkpt lat="43.7376806" lon="12.8507993"><ele>176.75</ele><time>2026-04-11T08:35:03.447Z</time></trkpt><trkpt lat="43.7376221" lon="12.8509979"><ele>176.5</ele><time>2026-04-11T08:35:04.447Z</time></trkpt><trkpt lat="43.7375653" lon="12.8511824"><ele>176.25</ele><time>2026-04-11T08:35:05.447Z</time></trkpt><trkpt lat="43.7375056" lon="12.8513669"><ele>176.0</ele><time>2026-04-11T08:35:06.447Z</time></trkpt><trkpt lat="43.737437" lon="12.8515725"><ele>173.66666666666666</ele><time>2026-04-11T08:35:07.447Z</time></trkpt><trkpt lat="43.7373655" lon="12.8517992"><ele>171.33333333333334</ele><time>2026-04-11T08:35:08.447Z</time></trkpt><trkpt lat="43.7372941" lon="12.8520563"><ele>169.0</ele><time>2026-04-11T08:35:09.449Z</time></trkpt><trkpt lat="43.7372227" lon="12.8523294"><ele>169.0</ele><time>2026-04-11T08:35:10.447Z</time></trkpt><trkpt lat="43.737149" lon="12.8526124"><ele>169.0</ele><time>2026-04-11T08:35:11.447Z</time></trkpt><trkpt lat="43.7370804" lon="12.8528805"><ele>169.0</ele><time>2026-04-11T08:35:12.447Z</time></trkpt><trkpt lat="43.7370134" lon="12.853132"><ele>166.33333333333334</ele><time>2026-04-11T08:35:13.447Z</time></trkpt><trkpt lat="43.7369508" lon="12.853368"><ele>163.66666666666666</ele><time>2026-04-11T08:35:14.448Z</time></trkpt><trkpt lat="43.7368832" lon="12.853607"><ele>161.0</ele><time>2026-04-11T08:35:15.447Z</time></trkpt><trkpt lat="43.7367989" lon="12.8538442"><ele>159.33333333333331</ele><time>2026-04-11T08:35:16.448Z</time></trkpt><trkpt lat="43.7367102" lon="12.8540846"><ele>157.66666666666666</ele><time>2026-04-11T08:35:17.447Z</time></trkpt><trkpt lat="43.7366261" lon="12.8543195"><ele>156.0</ele><time>2026-04-11T08:35:18.448Z</time></trkpt><trkpt lat="43.7365472" lon="12.8545222"><ele>156.0</ele><time>2026-04-11T08:35:19.447Z</time></trkpt><trkpt lat="43.7364737" lon="12.8547113"><ele>156.0</ele><time>2026-04-11T08:35:20.447Z</time></trkpt><trkpt lat="43.736403" lon="12.8548855"><ele>156.0</ele><time>2026-04-11T08:35:21.447Z</time></trkpt><trkpt lat="43.7363441" lon="12.8550564"><ele>156.0</ele><time>2026-04-11T08:35:22.448Z</time></trkpt><trkpt lat="43.7362941" lon="12.8552488"><ele>155.33333333333334</ele><time>2026-04-11T08:35:23.449Z</time></trkpt><trkpt lat="43.7362514" lon="12.8554559"><ele>154.66666666666669</ele><time>2026-04-11T08:35:24.447Z</time></trkpt><trkpt lat="43.7362212" lon="12.855673"><ele>154.0</ele><time>2026-04-11T08:35:25.448Z</time></trkpt><trkpt lat="43.7362054" lon="12.8559027"><ele>152.33333333333334</ele><time>2026-04-11T08:35:26.447Z</time></trkpt><trkpt lat="43.7361958" lon="12.856123"><ele>150.66666666666666</ele><time>2026-04-11T08:35:27.447Z</time></trkpt><trkpt lat="43.7361838" lon="12.8563292"><ele>149.0</ele><time>2026-04-11T08:35:28.449Z</time></trkpt><trkpt lat="43.7361713" lon="12.8565235"><ele>149.0</ele><time>2026-04-11T08:35:29.447Z</time></trkpt><trkpt lat="43.7361464" lon="12.8567078"><ele>149.0</ele><time>2026-04-11T08:35:30.447Z</time></trkpt><trkpt lat="43.7361011" lon="12.8568949"><ele>149.0</ele><time>2026-04-11T08:35:31.447Z</time></trkpt><trkpt lat="43.7360264" lon="12.8570793"><ele>149.0</ele><time>2026-04-11T08:35:32.448Z</time></trkpt><trkpt lat="43.735921" lon="12.8572738"><ele>147.66666666666666</ele><time>2026-04-11T08:35:33.448Z</time></trkpt><trkpt lat="43.7358236" lon="12.8574407"><ele>146.33333333333334</ele><time>2026-04-11T08:35:34.447Z</time></trkpt><trkpt lat="43.7357382" lon="12.8576215"><ele>145.0</ele><time>2026-04-11T08:35:35.447Z</time></trkpt><trkpt lat="43.7356542" lon="12.8578245"><ele>144.33333333333334</ele><time>2026-04-11T08:35:36.448Z</time></trkpt><trkpt lat="43.7355758" lon="12.8580465"><ele>143.66666666666666</ele><time>2026-04-11T08:35:37.448Z</time></trkpt><trkpt lat="43.7354999" lon="12.8582938"><ele>143.0</ele><time>2026-04-11T08:35:38.447Z</time></trkpt><trkpt lat="43.7354358" lon="12.8585172"><ele>141.33333333333331</ele><time>2026-04-11T08:35:39.449Z</time></trkpt><trkpt lat="43.7353771" lon="12.8587335"><ele>139.66666666666666</ele><time>2026-04-11T08:35:40.448Z</time></trkpt><trkpt lat="43.7353267" lon="12.8589392"><ele>138.0</ele><time>2026-04-11T08:35:41.448Z</time></trkpt><trkpt lat="43.7352852" lon="12.8591345"><ele>137.75</ele><time>2026-04-11T08:35:42.448Z</time></trkpt><trkpt lat="43.7352465" lon="12.8593143"><ele>137.5</ele><time>2026-04-11T08:35:43.447Z</time></trkpt><trkpt lat="43.7351919" lon="12.8594827"><ele>137.25</ele><time>2026-04-11T08:35:44.447Z</time></trkpt><trkpt lat="43.7351125" lon="12.8596588"><ele>137.0</ele><time>2026-04-11T08:35:45.447Z</time></trkpt><trkpt lat="43.7350127" lon="12.8598397"><ele>137.0</ele><time>2026-04-11T08:35:46.448Z</time></trkpt><trkpt lat="43.7348989" lon="12.8600424"><ele>137.0</ele><time>2026-04-11T08:35:47.447Z</time></trkpt><trkpt lat="43.7347656" lon="12.8602679"><ele>137.0</ele><time>2026-04-11T08:35:48.447Z</time></trkpt><trkpt lat="43.7346163" lon="12.8605163"><ele>134.33333333333331</ele><time>2026-04-11T08:35:49.447Z</time></trkpt><trkpt lat="43.7344773" lon="12.860756"><ele>131.66666666666666</ele><time>2026-04-11T08:35:50.448Z</time></trkpt><trkpt lat="43.7343524" lon="12.8609856"><ele>129.0</ele><time>2026-04-11T08:35:51.447Z</time></trkpt><trkpt lat="43.7342499" lon="12.8611961"><ele>128.33333333333334</ele><time>2026-04-11T08:35:52.447Z</time></trkpt><trkpt lat="43.7341618" lon="12.8613888"><ele>127.66666666666667</ele><time>2026-04-11T08:35:53.448Z</time></trkpt><trkpt lat="43.7340773" lon="12.8615638"><ele>127.0</ele><time>2026-04-11T08:35:54.447Z</time></trkpt><trkpt lat="43.7339901" lon="12.8617334"><ele>123.33333333333334</ele><time>2026-04-11T08:35:55.447Z</time></trkpt><trkpt lat="43.7338986" lon="12.8619094"><ele>119.66666666666666</ele><time>2026-04-11T08:35:56.447Z</time></trkpt><trkpt lat="43.7337994" lon="12.8620958"><ele>116.0</ele><time>2026-04-11T08:35:57.447Z</time></trkpt><trkpt lat="43.7336869" lon="12.8622929"><ele>116.0</ele><time>2026-04-11T08:35:58.447Z</time></trkpt><trkpt lat="43.7335615" lon="12.8625028"><ele>116.0</ele><time>2026-04-11T08:35:59.448Z</time></trkpt><trkpt lat="43.7334195" lon="12.862728"><ele>116.0</ele><time>2026-04-11T08:36:00.447Z</time></trkpt><trkpt lat="43.7332673" lon="12.8629728"><ele>115.66666666666666</ele><time>2026-04-11T08:36:01.448Z</time></trkpt><trkpt lat="43.7331369" lon="12.863198"><ele>115.33333333333334</ele><time>2026-04-11T08:36:02.447Z</time></trkpt><trkpt lat="43.7330158" lon="12.8634143"><ele>115.0</ele><time>2026-04-11T08:36:03.447Z</time></trkpt><trkpt lat="43.7328983" lon="12.8636119"><ele>115.33333333333334</ele><time>2026-04-11T08:36:04.448Z</time></trkpt><trkpt lat="43.732781" lon="12.8637892"><ele>115.66666666666666</ele><time>2026-04-11T08:36:05.447Z</time></trkpt><trkpt lat="43.7326659" lon="12.8639431"><ele>116.0</ele><time>2026-04-11T08:36:06.447Z</time></trkpt><trkpt lat="43.7325553" lon="12.8640779"><ele>116.0</ele><time>2026-04-11T08:36:07.447Z</time></trkpt><trkpt lat="43.7324384" lon="12.8642274"><ele>116.0</ele><time>2026-04-11T08:36:08.447Z</time></trkpt><trkpt lat="43.7323209" lon="12.8644055"><ele>116.0</ele><time>2026-04-11T08:36:09.448Z</time></trkpt><trkpt lat="43.7321919" lon="12.8646187"><ele>115.33333333333333</ele><time>2026-04-11T08:36:10.448Z</time></trkpt><trkpt lat="43.7320466" lon="12.864855"><ele>114.66666666666666</ele><time>2026-04-11T08:36:11.449Z</time></trkpt><trkpt lat="43.7318997" lon="12.8650902"><ele>114.0</ele><time>2026-04-11T08:36:12.448Z</time></trkpt><trkpt lat="43.7317612" lon="12.8652964"><ele>114.0</ele><time>2026-04-11T08:36:13.447Z</time></trkpt><trkpt lat="43.731629" lon="12.8654867"><ele>114.0</ele><time>2026-04-11T08:36:14.447Z</time></trkpt><trkpt lat="43.7315086" lon="12.8656643"><ele>114.0</ele><time>2026-04-11T08:36:15.447Z</time></trkpt><trkpt lat="43.7313968" lon="12.865824"><ele>113.66666666666666</ele><time>2026-04-11T08:36:16.447Z</time></trkpt><trkpt lat="43.7312842" lon="12.8659827"><ele>113.33333333333333</ele><time>2026-04-11T08:36:17.447Z</time></trkpt><trkpt lat="43.7311688" lon="12.8661491"><ele>113.0</ele><time>2026-04-11T08:36:18.448Z</time></trkpt><trkpt lat="43.7310491" lon="12.8663218"><ele>113.0</ele><time>2026-04-11T08:36:19.447Z</time></trkpt><trkpt lat="43.730916" lon="12.8665051"><ele>113.0</ele><time>2026-04-11T08:36:20.448Z</time></trkpt><trkpt lat="43.7307782" lon="12.8666904"><ele>113.0</ele><time>2026-04-11T08:36:21.448Z</time></trkpt><trkpt lat="43.7306531" lon="12.8668561"><ele>111.0</ele><time>2026-04-11T08:36:22.447Z</time></trkpt><trkpt lat="43.7305299" lon="12.8670148"><ele>109.0</ele><time>2026-04-11T08:36:23.448Z</time></trkpt><trkpt lat="43.730394" lon="12.8671771"><ele>107.0</ele><time>2026-04-11T08:36:24.447Z</time></trkpt><trkpt lat="43.7302468" lon="12.8673337"><ele>108.0</ele><time>2026-04-11T08:36:25.447Z</time></trkpt><trkpt lat="43.7300918" lon="12.8674933"><ele>109.0</ele><time>2026-04-11T08:36:26.448Z</time></trkpt><trkpt lat="43.7299398" lon="12.8676327"><ele>110.0</ele><time>2026-04-11T08:36:27.447Z</time></trkpt><trkpt lat="43.7297924" lon="12.8677479"><ele>110.0</ele><time>2026-04-11T08:36:28.448Z</time></trkpt><trkpt lat="43.7296523" lon="12.8678483"><ele>110.0</ele><time>2026-04-11T08:36:29.447Z</time></trkpt><trkpt lat="43.7295135" lon="12.8679629"><ele>110.0</ele><time>2026-04-11T08:36:30.447Z</time></trkpt><trkpt lat="43.7293703" lon="12.868107"><ele>110.0</ele><time>2026-04-11T08:36:31.448Z</time></trkpt><trkpt lat="43.7292287" lon="12.8682756"><ele>110.0</ele><time>2026-04-11T08:36:32.447Z</time></trkpt><trkpt lat="43.7290912" lon="12.8684608"><ele>110.0</ele><time>2026-04-11T08:36:33.448Z</time></trkpt><trkpt lat="43.7289781" lon="12.8686395"><ele>108.0</ele><time>2026-04-11T08:36:34.447Z</time></trkpt><trkpt lat="43.7288848" lon="12.8688067"><ele>106.0</ele><time>2026-04-11T08:36:35.447Z</time></trkpt><trkpt lat="43.7288152" lon="12.8689368"><ele>104.0</ele><time>2026-04-11T08:36:36.447Z</time></trkpt><trkpt lat="43.7287586" lon="12.8690533"><ele>102.0</ele><time>2026-04-11T08:36:37.448Z</time></trkpt><trkpt lat="43.7287192" lon="12.8691654"><ele>100.19999999999999</ele><time>2026-04-11T08:36:38.447Z</time></trkpt><trkpt lat="43.7286952" lon="12.8693006"><ele>98.4</ele><time>2026-04-11T08:36:39.447Z</time></trkpt><trkpt lat="43.7286748" lon="12.8694593"><ele>96.6</ele><time>2026-04-11T08:36:40.448Z</time></trkpt><trkpt lat="43.7286543" lon="12.8695996"><ele>94.80000000000001</ele><time>2026-04-11T08:36:41.448Z</time></trkpt><trkpt lat="43.7286221" lon="12.8697287"><ele>93.0</ele><time>2026-04-11T08:36:42.448Z</time></trkpt><trkpt lat="43.7285722" lon="12.8698399"><ele>94.2</ele><time>2026-04-11T08:36:43.447Z</time></trkpt><trkpt lat="43.7285022" lon="12.8699359"><ele>95.4</ele><time>2026-04-11T08:36:44.448Z</time></trkpt><trkpt lat="43.7284213" lon="12.87001"><ele>96.60000000000001</ele><time>2026-04-11T08:36:45.447Z</time></trkpt><trkpt lat="43.7283412" lon="12.8700901"><ele>97.80000000000001</ele><time>2026-04-11T08:36:46.447Z</time></trkpt><trkpt lat="43.7282579" lon="12.8701976"><ele>99.0</ele><time>2026-04-11T08:36:47.448Z</time></trkpt><trkpt lat="43.7281853" lon="12.8703174"><ele>99.0</ele><time>2026-04-11T08:36:48.448Z</time></trkpt><trkpt lat="43.728124" lon="12.8704401"><ele>99.0</ele><time>2026-04-11T08:36:49.447Z</time></trkpt><trkpt lat="43.7280814" lon="12.8705672"><ele>99.0</ele><time>2026-04-11T08:36:50.447Z</time></trkpt><trkpt lat="43.7280608" lon="12.870702"><ele>99.0</ele><time>2026-04-11T08:36:51.447Z</time></trkpt><trkpt lat="43.728063" lon="12.8708368"><ele>99.0</ele><time>2026-04-11T08:36:52.447Z</time></trkpt><trkpt lat="43.72809" lon="12.8709833"><ele>97.25</ele><time>2026-04-11T08:36:53.448Z</time></trkpt><trkpt lat="43.7281334" lon="12.8711545"><ele>95.5</ele><time>2026-04-11T08:36:54.448Z</time></trkpt><trkpt lat="43.7281716" lon="12.8713214"><ele>93.75</ele><time>2026-04-11T08:36:55.447Z</time></trkpt><trkpt lat="43.7282074" lon="12.8714877"><ele>92.0</ele><time>2026-04-11T08:36:56.447Z</time></trkpt><trkpt lat="43.7282353" lon="12.871647"><ele>90.39999999999999</ele><time>2026-04-11T08:36:57.448Z</time></trkpt><trkpt lat="43.7282556" lon="12.8717883"><ele>88.8</ele><time>2026-04-11T08:36:58.448Z</time></trkpt><trkpt lat="43.7282687" lon="12.8719236"><ele>87.2</ele><time>2026-04-11T08:36:59.448Z</time></trkpt><trkpt lat="43.7282642" lon="12.8720734"><ele>85.6</ele><time>2026-04-11T08:37:00.447Z</time></trkpt><trkpt lat="43.7282409" lon="12.8722526"><ele>84.0</ele><time>2026-04-11T08:37:01.447Z</time></trkpt><trkpt lat="43.7282231" lon="12.872462"><ele>83.0</ele><time>2026-04-11T08:37:02.448Z</time></trkpt><trkpt lat="43.7282149" lon="12.8726936"><ele>82.0</ele><time>2026-04-11T08:37:03.449Z</time></trkpt><trkpt lat="43.7281975" lon="12.8729237"><ele>81.0</ele><time>2026-04-11T08:37:04.447Z</time></trkpt><trkpt lat="43.7281693" lon="12.8731393"><ele>81.0</ele><time>2026-04-11T08:37:05.448Z</time></trkpt><trkpt lat="43.728143" lon="12.8733339"><ele>81.0</ele><time>2026-04-11T08:37:06.447Z</time></trkpt><trkpt lat="43.7281295" lon="12.8735103"><ele>81.0</ele><time>2026-04-11T08:37:07.448Z</time></trkpt><trkpt lat="43.7281133" lon="12.8736735"><ele>81.0</ele><time>2026-04-11T08:37:08.448Z</time></trkpt><trkpt lat="43.7280917" lon="12.8738279"><ele>80.0</ele><time>2026-04-11T08:37:09.448Z</time></trkpt><trkpt lat="43.7280634" lon="12.8739675"><ele>79.0</ele><time>2026-04-11T08:37:10.447Z</time></trkpt><trkpt lat="43.7280195" lon="12.8740953"><ele>78.0</ele><time>2026-04-11T08:37:11.448Z</time></trkpt><trkpt lat="43.7279628" lon="12.8742187"><ele>77.0</ele><time>2026-04-11T08:37:12.447Z</time></trkpt><trkpt lat="43.7279017" lon="12.8743528"><ele>76.0</ele><time>2026-04-11T08:37:13.448Z</time></trkpt><trkpt lat="43.7278511" lon="12.8745154"><ele>75.25</ele><time>2026-04-11T08:37:14.447Z</time></trkpt><trkpt lat="43.7278144" lon="12.8746992"><ele>74.5</ele><time>2026-04-11T08:37:15.447Z</time></trkpt><trkpt lat="43.7277709" lon="12.8748802"><ele>73.75</ele><time>2026-04-11T08:37:16.447Z</time></trkpt><trkpt lat="43.7277277" lon="12.8750835"><ele>73.0</ele><time>2026-04-11T08:37:17.447Z</time></trkpt><trkpt lat="43.7276845" lon="12.8753142"><ele>73.0</ele><time>2026-04-11T08:37:18.447Z</time></trkpt><trkpt lat="43.7276606" lon="12.875529"><ele>73.0</ele><time>2026-04-11T08:37:19.448Z</time></trkpt><trkpt lat="43.7276537" lon="12.8757657"><ele>73.0</ele><time>2026-04-11T08:37:20.447Z</time></trkpt><trkpt lat="43.7276524" lon="12.8759915"><ele>72.33333333333333</ele><time>2026-04-11T08:37:21.447Z</time></trkpt><trkpt lat="43.727636" lon="12.8761939"><ele>71.66666666666667</ele><time>2026-04-11T08:37:22.447Z</time></trkpt><trkpt lat="43.7275961" lon="12.8763885"><ele>71.0</ele><time>2026-04-11T08:37:23.448Z</time></trkpt><trkpt lat="43.727519" lon="12.8765864"><ele>70.0</ele><time>2026-04-11T08:37:24.447Z</time></trkpt><trkpt lat="43.7274076" lon="12.8768069"><ele>69.0</ele><time>2026-04-11T08:37:25.448Z</time></trkpt><trkpt lat="43.7273008" lon="12.8770075"><ele>68.0</ele><time>2026-04-11T08:37:26.447Z</time></trkpt><trkpt lat="43.7272053" lon="12.8771876"><ele>68.0</ele><time>2026-04-11T08:37:27.447Z</time></trkpt><trkpt lat="43.7271151" lon="12.8773332"><ele>68.0</ele><time>2026-04-11T08:37:28.447Z</time></trkpt><trkpt lat="43.727027" lon="12.8774261"><ele>68.0</ele><time>2026-04-11T08:37:29.447Z</time></trkpt><trkpt lat="43.7269461" lon="12.8774611"><ele>68.0</ele><time>2026-04-11T08:37:30.447Z</time></trkpt><trkpt lat="43.7268823" lon="12.8774752"><ele>68.0</ele><time>2026-04-11T08:37:31.447Z</time></trkpt><trkpt lat="43.726774" lon="12.8774189"><ele>68.5</ele><time>2026-04-11T08:37:33.447Z</time></trkpt><trkpt lat="43.7267221" lon="12.8773285"><ele>69.0</ele><time>2026-04-11T08:37:34.447Z</time></trkpt><trkpt lat="43.7266762" lon="12.8771911"><ele>69.5</ele><time>2026-04-11T08:37:35.447Z</time></trkpt><trkpt lat="43.7266211" lon="12.877007"><ele>70.0</ele><time>2026-04-11T08:37:36.448Z</time></trkpt><trkpt lat="43.7265487" lon="12.8767738"><ele>71.66666666666666</ele><time>2026-04-11T08:37:37.448Z</time></trkpt><trkpt lat="43.7264692" lon="12.876523"><ele>73.33333333333333</ele><time>2026-04-11T08:37:38.447Z</time></trkpt><trkpt lat="43.7263831" lon="12.8762405"><ele>75.0</ele><time>2026-04-11T08:37:39.447Z</time></trkpt><trkpt lat="43.7262919" lon="12.8759419"><ele>75.66666666666667</ele><time>2026-04-11T08:37:40.447Z</time></trkpt><trkpt lat="43.7262107" lon="12.8756595"><ele>76.33333333333334</ele><time>2026-04-11T08:37:41.448Z</time></trkpt><trkpt lat="43.7261323" lon="12.8753986"><ele>77.0</ele><time>2026-04-11T08:37:42.447Z</time></trkpt><trkpt lat="43.7260521" lon="12.875146"><ele>78.66666666666667</ele><time>2026-04-11T08:37:43.447Z</time></trkpt><trkpt lat="43.7259717" lon="12.8748929"><ele>80.33333333333333</ele><time>2026-04-11T08:37:44.449Z</time></trkpt><trkpt lat="43.7258911" lon="12.8746385"><ele>82.0</ele><time>2026-04-11T08:37:45.447Z</time></trkpt><trkpt lat="43.7258042" lon="12.8743758"><ele>84.5</ele><time>2026-04-11T08:37:46.447Z</time></trkpt><trkpt lat="43.7257104" lon="12.8740965"><ele>87.0</ele><time>2026-04-11T08:37:47.447Z</time></trkpt><trkpt lat="43.7256138" lon="12.8738035"><ele>87.0</ele><time>2026-04-11T08:37:48.447Z</time></trkpt><trkpt lat="43.7255062" lon="12.8735036"><ele>87.0</ele><time>2026-04-11T08:37:49.447Z</time></trkpt><trkpt lat="43.7253901" lon="12.8731917"><ele>89.0</ele><time>2026-04-11T08:37:50.448Z</time></trkpt><trkpt lat="43.7252658" lon="12.8728647"><ele>91.0</ele><time>2026-04-11T08:37:51.449Z</time></trkpt><trkpt lat="43.7251537" lon="12.872566"><ele>87.66666666666666</ele><time>2026-04-11T08:37:52.448Z</time></trkpt><trkpt lat="43.7250482" lon="12.8722855"><ele>84.33333333333333</ele><time>2026-04-11T08:37:53.447Z</time></trkpt><trkpt lat="43.7249465" lon="12.8720211"><ele>81.0</ele><time>2026-04-11T08:37:54.447Z</time></trkpt><trkpt lat="43.7248344" lon="12.8717691"><ele>81.0</ele><time>2026-04-11T08:37:55.448Z</time></trkpt><trkpt lat="43.7246931" lon="12.8715376"><ele>81.0</ele><time>2026-04-11T08:37:56.448Z</time></trkpt><trkpt lat="43.7245399" lon="12.8713035"><ele>81.0</ele><time>2026-04-11T08:37:57.447Z</time></trkpt><trkpt lat="43.7243758" lon="12.8710667"><ele>80.5</ele><time>2026-04-11T08:37:58.447Z</time></trkpt><trkpt lat="43.7241983" lon="12.8708251"><ele>80.0</ele><time>2026-04-11T08:37:59.447Z</time></trkpt><trkpt lat="43.7240129" lon="12.8705686"><ele>80.0</ele><time>2026-04-11T08:38:00.447Z</time></trkpt><trkpt lat="43.723818" lon="12.8702907"><ele>80.0</ele><time>2026-04-11T08:38:01.447Z</time></trkpt><trkpt lat="43.7236213" lon="12.8700182"><ele>80.0</ele><time>2026-04-11T08:38:02.448Z</time></trkpt><trkpt lat="43.7234397" lon="12.8697712"><ele>80.0</ele><time>2026-04-11T08:38:03.447Z</time></trkpt><trkpt lat="43.7232688" lon="12.8695353"><ele>80.0</ele><time>2026-04-11T08:38:04.448Z</time></trkpt><trkpt lat="43.7231109" lon="12.869316"><ele>80.0</ele><time>2026-04-11T08:38:05.448Z</time></trkpt><trkpt lat="43.7229604" lon="12.8691108"><ele>80.0</ele><time>2026-04-11T08:38:06.448Z</time></trkpt><trkpt lat="43.7228158" lon="12.8689161"><ele>80.33333333333334</ele><time>2026-04-11T08:38:07.447Z</time></trkpt><trkpt lat="43.7226689" lon="12.8687203"><ele>80.66666666666667</ele><time>2026-04-11T08:38:08.448Z</time></trkpt><trkpt lat="43.7225285" lon="12.8685336"><ele>81.0</ele><time>2026-04-11T08:38:09.447Z</time></trkpt><trkpt lat="43.7224005" lon="12.8683606"><ele>81.33333333333333</ele><time>2026-04-11T08:38:10.447Z</time></trkpt><trkpt lat="43.7222792" lon="12.8681993"><ele>81.66666666666666</ele><time>2026-04-11T08:38:11.447Z</time></trkpt><trkpt lat="43.7221646" lon="12.868048"><ele>82.0</ele><time>2026-04-11T08:38:12.448Z</time></trkpt><trkpt lat="43.7220583" lon="12.8679048"><ele>82.0</ele><time>2026-04-11T08:38:13.448Z</time></trkpt><trkpt lat="43.7219618" lon="12.8677734"><ele>82.0</ele><time>2026-04-11T08:38:14.447Z</time></trkpt><trkpt lat="43.7218781" lon="12.8676634"><ele>82.0</ele><time>2026-04-11T08:38:15.448Z</time></trkpt><trkpt lat="43.721814" lon="12.8675749"><ele>82.0</ele><time>2026-04-11T08:38:16.447Z</time></trkpt><trkpt lat="43.7217778" lon="12.8674315"><ele>82.25</ele><time>2026-04-11T08:38:18.447Z</time></trkpt><trkpt lat="43.7218205" lon="12.867249"><ele>82.5</ele><time>2026-04-11T08:38:20.447Z</time></trkpt><trkpt lat="43.7218479" lon="12.867089"><ele>82.75</ele><time>2026-04-11T08:38:21.447Z</time></trkpt><trkpt lat="43.7218809" lon="12.8668926"><ele>83.0</ele><time>2026-04-11T08:38:22.447Z</time></trkpt><trkpt lat="43.7219118" lon="12.8666783"><ele>84.2</ele><time>2026-04-11T08:38:23.448Z</time></trkpt><trkpt lat="43.7219394" lon="12.8665104"><ele>85.4</ele><time>2026-04-11T08:38:24.447Z</time></trkpt><trkpt lat="43.721968" lon="12.8663719"><ele>86.60000000000001</ele><time>2026-04-11T08:38:25.447Z</time></trkpt><trkpt lat="43.7220056" lon="12.8662567"><ele>87.80000000000001</ele><time>2026-04-11T08:38:26.448Z</time></trkpt><trkpt lat="43.7220643" lon="12.8661409"><ele>89.0</ele><time>2026-04-11T08:38:27.447Z</time></trkpt><trkpt lat="43.7221446" lon="12.86601"><ele>90.0</ele><time>2026-04-11T08:38:28.447Z</time></trkpt><trkpt lat="43.7222376" lon="12.8658505"><ele>91.0</ele><time>2026-04-11T08:38:29.448Z</time></trkpt><trkpt lat="43.7223425" lon="12.8656866"><ele>92.0</ele><time>2026-04-11T08:38:30.447Z</time></trkpt><trkpt lat="43.7224515" lon="12.8655176"><ele>92.0</ele><time>2026-04-11T08:38:31.447Z</time></trkpt><trkpt lat="43.7225534" lon="12.8653546"><ele>92.0</ele><time>2026-04-11T08:38:32.447Z</time></trkpt><trkpt lat="43.7226713" lon="12.8651652"><ele>92.0</ele><time>2026-04-11T08:38:33.448Z</time></trkpt><trkpt lat="43.7228127" lon="12.8649472"><ele>92.66666666666667</ele><time>2026-04-11T08:38:34.447Z</time></trkpt><trkpt lat="43.722968" lon="12.8647287"><ele>93.33333333333333</ele><time>2026-04-11T08:38:35.447Z</time></trkpt><trkpt lat="43.7230999" lon="12.8645408"><ele>94.0</ele><time>2026-04-11T08:38:36.448Z</time></trkpt><trkpt lat="43.7232225" lon="12.864363"><ele>96.0</ele><time>2026-04-11T08:38:37.447Z</time></trkpt><trkpt lat="43.7233478" lon="12.8641862"><ele>98.0</ele><time>2026-04-11T08:38:38.447Z</time></trkpt><trkpt lat="43.7234739" lon="12.8640116"><ele>100.0</ele><time>2026-04-11T08:38:39.447Z</time></trkpt><trkpt lat="43.723602" lon="12.863844"><ele>100.5</ele><time>2026-04-11T08:38:40.447Z</time></trkpt><trkpt lat="43.7237211" lon="12.863683"><ele>101.0</ele><time>2026-04-11T08:38:41.447Z</time></trkpt><trkpt lat="43.7238245" lon="12.8635315"><ele>101.5</ele><time>2026-04-11T08:38:42.448Z</time></trkpt><trkpt lat="43.723909" lon="12.8633977"><ele>102.0</ele><time>2026-04-11T08:38:43.448Z</time></trkpt><trkpt lat="43.7239805" lon="12.8632595"><ele>104.25</ele><time>2026-04-11T08:38:44.448Z</time></trkpt><trkpt lat="43.7240388" lon="12.8631113"><ele>106.5</ele><time>2026-04-11T08:38:45.447Z</time></trkpt><trkpt lat="43.7240809" lon="12.8629415"><ele>108.75</ele><time>2026-04-11T08:38:46.448Z</time></trkpt><trkpt lat="43.7241171" lon="12.8627456"><ele>111.0</ele><time>2026-04-11T08:38:47.447Z</time></trkpt><trkpt lat="43.7241583" lon="12.8625441"><ele>113.0</ele><time>2026-04-11T08:38:48.447Z</time></trkpt><trkpt lat="43.7241968" lon="12.862378"><ele>115.0</ele><time>2026-04-11T08:38:49.448Z</time></trkpt><trkpt lat="43.7242203" lon="12.8622197"><ele>117.0</ele><time>2026-04-11T08:38:50.447Z</time></trkpt><trkpt lat="43.7242202" lon="12.8620622"><ele>119.0</ele><time>2026-04-11T08:38:51.448Z</time></trkpt><trkpt lat="43.7241832" lon="12.8619172"><ele>120.25</ele><time>2026-04-11T08:38:52.447Z</time></trkpt><trkpt lat="43.7241152" lon="12.8617787"><ele>121.5</ele><time>2026-04-11T08:38:53.448Z</time></trkpt><trkpt lat="43.7240266" lon="12.8616617"><ele>122.75</ele><time>2026-04-11T08:38:54.447Z</time></trkpt><trkpt lat="43.7239463" lon="12.8615504"><ele>124.0</ele><time>2026-04-11T08:38:55.447Z</time></trkpt><trkpt lat="43.7238864" lon="12.8614302"><ele>124.0</ele><time>2026-04-11T08:38:56.447Z</time></trkpt><trkpt lat="43.7238591" lon="12.8613091"><ele>124.0</ele><time>2026-04-11T08:38:57.447Z</time></trkpt><trkpt lat="43.7238724" lon="12.8611656"><ele>124.0</ele><time>2026-04-11T08:38:58.448Z</time></trkpt><trkpt lat="43.7239222" lon="12.8609945"><ele>124.0</ele><time>2026-04-11T08:38:59.447Z</time></trkpt><trkpt lat="43.723987" lon="12.8607919"><ele>125.33333333333334</ele><time>2026-04-11T08:39:00.448Z</time></trkpt><trkpt lat="43.7240385" lon="12.8605567"><ele>126.66666666666666</ele><time>2026-04-11T08:39:01.447Z</time></trkpt><trkpt lat="43.7240873" lon="12.8603044"><ele>128.0</ele><time>2026-04-11T08:39:02.448Z</time></trkpt><trkpt lat="43.7241436" lon="12.8600155"><ele>130.33333333333331</ele><time>2026-04-11T08:39:03.448Z</time></trkpt><trkpt lat="43.7241903" lon="12.8597361"><ele>132.66666666666666</ele><time>2026-04-11T08:39:04.447Z</time></trkpt><trkpt lat="43.7242368" lon="12.8594884"><ele>135.0</ele><time>2026-04-11T08:39:05.448Z</time></trkpt><trkpt lat="43.7243035" lon="12.85926"><ele>135.33333333333334</ele><time>2026-04-11T08:39:06.447Z</time></trkpt><trkpt lat="43.7243899" lon="12.8590288"><ele>135.66666666666669</ele><time>2026-04-11T08:39:07.447Z</time></trkpt><trkpt lat="43.7244824" lon="12.8588146"><ele>136.0</ele><time>2026-04-11T08:39:08.447Z</time></trkpt><trkpt lat="43.7245732" lon="12.8586137"><ele>135.33333333333334</ele><time>2026-04-11T08:39:09.447Z</time></trkpt><trkpt lat="43.724657" lon="12.8583967"><ele>134.66666666666666</ele><time>2026-04-11T08:39:10.448Z</time></trkpt><trkpt lat="43.724753" lon="12.8581457"><ele>134.0</ele><time>2026-04-11T08:39:11.447Z</time></trkpt><trkpt lat="43.7248388" lon="12.8579085"><ele>134.0</ele><time>2026-04-11T08:39:12.447Z</time></trkpt><trkpt lat="43.72492" lon="12.8576965"><ele>134.0</ele><time>2026-04-11T08:39:13.447Z</time></trkpt><trkpt lat="43.7249912" lon="12.8574993"><ele>134.0</ele><time>2026-04-11T08:39:14.448Z</time></trkpt><trkpt lat="43.7250403" lon="12.8572986"><ele>135.0</ele><time>2026-04-11T08:39:15.448Z</time></trkpt><trkpt lat="43.7250779" lon="12.8570751"><ele>136.0</ele><time>2026-04-11T08:39:16.447Z</time></trkpt><trkpt lat="43.7251124" lon="12.8568383"><ele>137.0</ele><time>2026-04-11T08:39:17.448Z</time></trkpt><trkpt lat="43.7251557" lon="12.8566039"><ele>137.0</ele><time>2026-04-11T08:39:18.447Z</time></trkpt><trkpt lat="43.7252193" lon="12.8563605"><ele>137.0</ele><time>2026-04-11T08:39:19.447Z</time></trkpt><trkpt lat="43.7252968" lon="12.8561136"><ele>137.0</ele><time>2026-04-11T08:39:20.447Z</time></trkpt><trkpt lat="43.7253838" lon="12.8558596"><ele>137.0</ele><time>2026-04-11T08:39:21.447Z</time></trkpt><trkpt lat="43.7254785" lon="12.8556031"><ele>137.0</ele><time>2026-04-11T08:39:22.447Z</time></trkpt><trkpt lat="43.7255736" lon="12.8553398"><ele>137.0</ele><time>2026-04-11T08:39:23.447Z</time></trkpt><trkpt lat="43.7256768" lon="12.8550712"><ele>139.66666666666666</ele><time>2026-04-11T08:39:24.448Z</time></trkpt><trkpt lat="43.7257954" lon="12.8548019"><ele>142.33333333333334</ele><time>2026-04-11T08:39:25.448Z</time></trkpt><trkpt lat="43.7259122" lon="12.8545435"><ele>145.0</ele><time>2026-04-11T08:39:26.448Z</time></trkpt><trkpt lat="43.7260043" lon="12.8543193"><ele>147.0</ele><time>2026-04-11T08:39:27.447Z</time></trkpt><trkpt lat="43.7260822" lon="12.854079"><ele>149.0</ele><time>2026-04-11T08:39:28.447Z</time></trkpt><trkpt lat="43.7261608" lon="12.8538205"><ele>151.0</ele><time>2026-04-11T08:39:29.448Z</time></trkpt><trkpt lat="43.7262422" lon="12.8535806"><ele>152.75</ele><time>2026-04-11T08:39:30.447Z</time></trkpt><trkpt lat="43.7263215" lon="12.853372"><ele>154.5</ele><time>2026-04-11T08:39:31.447Z</time></trkpt><trkpt lat="43.7263918" lon="12.8531921"><ele>156.25</ele><time>2026-04-11T08:39:32.447Z</time></trkpt><trkpt lat="43.7264569" lon="12.8530432"><ele>158.0</ele><time>2026-04-11T08:39:33.448Z</time></trkpt><trkpt lat="43.7265294" lon="12.8529283"><ele>158.0</ele><time>2026-04-11T08:39:34.448Z</time></trkpt><trkpt lat="43.7266132" lon="12.852832"><ele>158.0</ele><time>2026-04-11T08:39:35.447Z</time></trkpt><trkpt lat="43.7267021" lon="12.8527309"><ele>158.0</ele><time>2026-04-11T08:39:36.447Z</time></trkpt><trkpt lat="43.7267928" lon="12.8526264"><ele>158.0</ele><time>2026-04-11T08:39:37.447Z</time></trkpt><trkpt lat="43.7268815" lon="12.8525065"><ele>158.0</ele><time>2026-04-11T08:39:38.447Z</time></trkpt><trkpt lat="43.7269646" lon="12.852378"><ele>158.0</ele><time>2026-04-11T08:39:39.447Z</time></trkpt><trkpt lat="43.7270459" lon="12.8522558"><ele>158.0</ele><time>2026-04-11T08:39:40.448Z</time></trkpt><trkpt lat="43.7271289" lon="12.852123"><ele>158.0</ele><time>2026-04-11T08:39:41.448Z</time></trkpt><trkpt lat="43.7272191" lon="12.8519847"><ele>158.0</ele><time>2026-04-11T08:39:42.448Z</time></trkpt><trkpt lat="43.7273043" lon="12.8518614"><ele>158.0</ele><time>2026-04-11T08:39:43.446Z</time></trkpt><trkpt lat="43.7273929" lon="12.851754"><ele>158.0</ele><time>2026-04-11T08:39:44.446Z</time></trkpt><trkpt lat="43.7274819" lon="12.8516571"><ele>158.0</ele><time>2026-04-11T08:39:45.447Z</time></trkpt><trkpt lat="43.727559" lon="12.8515618"><ele>158.8</ele><time>2026-04-11T08:39:46.447Z</time></trkpt><trkpt lat="43.7276231" lon="12.8514741"><ele>159.60000000000002</ele><time>2026-04-11T08:39:47.446Z</time></trkpt><trkpt lat="43.727676" lon="12.8513707"><ele>160.39999999999998</ele><time>2026-04-11T08:39:48.447Z</time></trkpt><trkpt lat="43.7277117" lon="12.8512442"><ele>161.2</ele><time>2026-04-11T08:39:49.446Z</time></trkpt><trkpt lat="43.7277261" lon="12.8510984"><ele>162.0</ele><time>2026-04-11T08:39:50.446Z</time></trkpt><trkpt lat="43.7277247" lon="12.8509312"><ele>162.5</ele><time>2026-04-11T08:39:51.447Z</time></trkpt><trkpt lat="43.7277147" lon="12.8507512"><ele>163.0</ele><time>2026-04-11T08:39:52.446Z</time></trkpt><trkpt lat="43.7276987" lon="12.8505739"><ele>163.5</ele><time>2026-04-11T08:39:53.447Z</time></trkpt><trkpt lat="43.727686" lon="12.8503841"><ele>164.0</ele><time>2026-04-11T08:39:54.446Z</time></trkpt><trkpt lat="43.7276819" lon="12.8501659"><ele>165.0</ele><time>2026-04-11T08:39:55.446Z</time></trkpt><trkpt lat="43.7276763" lon="12.8499187"><ele>166.0</ele><time>2026-04-11T08:39:56.446Z</time></trkpt><trkpt lat="43.7276752" lon="12.8497017"><ele>167.0</ele><time>2026-04-11T08:39:57.447Z</time></trkpt><trkpt lat="43.7276794" lon="12.8494919"><ele>167.75</ele><time>2026-04-11T08:39:58.446Z</time></trkpt><trkpt lat="43.7276763" lon="12.8492722"><ele>168.5</ele><time>2026-04-11T08:39:59.446Z</time></trkpt><trkpt lat="43.7276711" lon="12.8490715"><ele>169.25</ele><time>2026-04-11T08:40:00.447Z</time></trkpt><trkpt lat="43.7276657" lon="12.8488884"><ele>170.0</ele><time>2026-04-11T08:40:01.447Z</time></trkpt><trkpt lat="43.7276511" lon="12.8487136"><ele>170.0</ele><time>2026-04-11T08:40:02.447Z</time></trkpt><trkpt lat="43.7276393" lon="12.8485432"><ele>170.0</ele><time>2026-04-11T08:40:03.447Z</time></trkpt><trkpt lat="43.7276313" lon="12.8483965"><ele>170.0</ele><time>2026-04-11T08:40:04.446Z</time></trkpt><trkpt lat="43.727617" lon="12.8482532"><ele>170.0</ele><time>2026-04-11T08:40:05.446Z</time></trkpt><trkpt lat="43.7276038" lon="12.8481111"><ele>170.0</ele><time>2026-04-11T08:40:06.446Z</time></trkpt><trkpt lat="43.7275952" lon="12.8479734"><ele>171.0</ele><time>2026-04-11T08:40:07.447Z</time></trkpt><trkpt lat="43.7276097" lon="12.847848"><ele>172.0</ele><time>2026-04-11T08:40:08.446Z</time></trkpt><trkpt lat="43.7276403" lon="12.8477021"><ele>173.0</ele><time>2026-04-11T08:40:09.446Z</time></trkpt><trkpt lat="43.7276834" lon="12.8475438"><ele>174.0</ele><time>2026-04-11T08:40:10.446Z</time></trkpt><trkpt lat="43.7277423" lon="12.8473918"><ele>175.0</ele><time>2026-04-11T08:40:11.446Z</time></trkpt><trkpt lat="43.7277937" lon="12.8472646"><ele>176.8</ele><time>2026-04-11T08:40:12.447Z</time></trkpt><trkpt lat="43.7278382" lon="12.847134"><ele>178.6</ele><time>2026-04-11T08:40:13.446Z</time></trkpt><trkpt lat="43.7278594" lon="12.8469959"><ele>180.39999999999998</ele><time>2026-04-11T08:40:14.446Z</time></trkpt><trkpt lat="43.7278835" lon="12.8468499"><ele>182.2</ele><time>2026-04-11T08:40:15.447Z</time></trkpt><trkpt lat="43.7278863" lon="12.8466805"><ele>184.0</ele><time>2026-04-11T08:40:16.446Z</time></trkpt><trkpt lat="43.7279079" lon="12.8464977"><ele>184.75</ele><time>2026-04-11T08:40:17.447Z</time></trkpt><trkpt lat="43.7279189" lon="12.8463235"><ele>185.5</ele><time>2026-04-11T08:40:18.446Z</time></trkpt><trkpt lat="43.7279019" lon="12.8461765"><ele>186.25</ele><time>2026-04-11T08:40:19.446Z</time></trkpt><trkpt lat="43.7278839" lon="12.8460202"><ele>187.0</ele><time>2026-04-11T08:40:20.446Z</time></trkpt><trkpt lat="43.7278742" lon="12.8458792"><ele>188.0</ele><time>2026-04-11T08:40:21.447Z</time></trkpt><trkpt lat="43.7278749" lon="12.845765"><ele>189.0</ele><time>2026-04-11T08:40:22.447Z</time></trkpt><trkpt lat="43.7278772" lon="12.8456531"><ele>190.0</ele><time>2026-04-11T08:40:23.446Z</time></trkpt><trkpt lat="43.7278847" lon="12.845535"><ele>191.0</ele><time>2026-04-11T08:40:24.447Z</time></trkpt><trkpt lat="43.7279046" lon="12.8454143"><ele>191.99999999999997</ele><time>2026-04-11T08:40:25.448Z</time></trkpt><trkpt lat="43.727921" lon="12.8452969"><ele>193.0</ele><time>2026-04-11T08:40:26.446Z</time></trkpt><trkpt lat="43.7279305" lon="12.8451815"><ele>193.60000000000002</ele><time>2026-04-11T08:40:27.447Z</time></trkpt><trkpt lat="43.7279265" lon="12.8450844"><ele>194.20000000000002</ele><time>2026-04-11T08:40:28.446Z</time></trkpt><trkpt lat="43.7279322" lon="12.8449786"><ele>194.8</ele><time>2026-04-11T08:40:29.447Z</time></trkpt><trkpt lat="43.727949" lon="12.8448542"><ele>195.4</ele><time>2026-04-11T08:40:30.446Z</time></trkpt><trkpt lat="43.7279755" lon="12.844701"><ele>196.0</ele><time>2026-04-11T08:40:31.446Z</time></trkpt><trkpt lat="43.7280056" lon="12.844516"><ele>197.33333333333331</ele><time>2026-04-11T08:40:32.447Z</time></trkpt><trkpt lat="43.7280251" lon="12.8442932"><ele>198.66666666666669</ele><time>2026-04-11T08:40:33.447Z</time></trkpt><trkpt lat="43.7280524" lon="12.8440485"><ele>200.0</ele><time>2026-04-11T08:40:34.446Z</time></trkpt><trkpt lat="43.728084" lon="12.8438403"><ele>200.0</ele><time>2026-04-11T08:40:35.446Z</time></trkpt><trkpt lat="43.7281257" lon="12.8436392"><ele>200.0</ele><time>2026-04-11T08:40:36.446Z</time></trkpt><trkpt lat="43.7281858" lon="12.8434326"><ele>200.0</ele><time>2026-04-11T08:40:37.446Z</time></trkpt><trkpt lat="43.7282573" lon="12.8432224"><ele>200.75</ele><time>2026-04-11T08:40:38.447Z</time></trkpt><trkpt lat="43.7283337" lon="12.8430288"><ele>201.5</ele><time>2026-04-11T08:40:39.446Z</time></trkpt><trkpt lat="43.7284104" lon="12.8428644"><ele>202.25</ele><time>2026-04-11T08:40:40.446Z</time></trkpt><trkpt lat="43.7284905" lon="12.8427045"><ele>203.0</ele><time>2026-04-11T08:40:41.447Z</time></trkpt><trkpt lat="43.7285742" lon="12.8425286"><ele>205.0</ele><time>2026-04-11T08:40:42.446Z</time></trkpt><trkpt lat="43.728664" lon="12.8423361"><ele>207.0</ele><time>2026-04-11T08:40:43.446Z</time></trkpt><trkpt lat="43.7287615" lon="12.8421153"><ele>209.0</ele><time>2026-04-11T08:40:44.446Z</time></trkpt><trkpt lat="43.7288582" lon="12.8418452"><ele>208.66666666666669</ele><time>2026-04-11T08:40:45.446Z</time></trkpt><trkpt lat="43.7289649" lon="12.8415796"><ele>208.33333333333331</ele><time>2026-04-11T08:40:46.447Z</time></trkpt><trkpt lat="43.7290572" lon="12.8413497"><ele>208.0</ele><time>2026-04-11T08:40:47.446Z</time></trkpt><trkpt lat="43.7291423" lon="12.8411411"><ele>205.33333333333331</ele><time>2026-04-11T08:40:48.447Z</time></trkpt><trkpt lat="43.729226" lon="12.8409538"><ele>202.66666666666669</ele><time>2026-04-11T08:40:49.446Z</time></trkpt><trkpt lat="43.7293298" lon="12.8407758"><ele>200.0</ele><time>2026-04-11T08:40:50.447Z</time></trkpt><trkpt lat="43.7294597" lon="12.8406014"><ele>203.66666666666669</ele><time>2026-04-11T08:40:51.447Z</time></trkpt><trkpt lat="43.7296034" lon="12.8404039"><ele>207.33333333333331</ele><time>2026-04-11T08:40:52.446Z</time></trkpt><trkpt lat="43.7297261" lon="12.8401902"><ele>211.0</ele><time>2026-04-11T08:40:53.447Z</time></trkpt><trkpt lat="43.7298261" lon="12.8400017"><ele>211.0</ele><time>2026-04-11T08:40:54.446Z</time></trkpt><trkpt lat="43.7299093" lon="12.8398611"><ele>211.0</ele><time>2026-04-11T08:40:55.446Z</time></trkpt><trkpt lat="43.7299806" lon="12.8397496"><ele>211.0</ele><time>2026-04-11T08:40:56.447Z</time></trkpt><trkpt lat="43.7300407" lon="12.8396603"><ele>211.0</ele><time>2026-04-11T08:40:57.446Z</time></trkpt><trkpt lat="43.7300949" lon="12.8395898"><ele>211.0</ele><time>2026-04-11T08:40:58.447Z</time></trkpt><trkpt lat="43.7301473" lon="12.8395352"><ele>211.49999999999997</ele><time>2026-04-11T08:40:59.446Z</time></trkpt><trkpt lat="43.7302579" lon="12.8394529"><ele>212.0</ele><time>2026-04-11T08:41:01.446Z</time></trkpt><trkpt lat="43.7303292" lon="12.8394237"><ele>212.5</ele><time>2026-04-11T08:41:02.446Z</time></trkpt><trkpt lat="43.7304032" lon="12.8394112"><ele>213.0</ele><time>2026-04-11T08:41:03.446Z</time></trkpt><trkpt lat="43.730474" lon="12.8394079"><ele>213.49999999999997</ele><time>2026-04-11T08:41:04.446Z</time></trkpt><trkpt lat="43.7305447" lon="12.8394148"><ele>214.0</ele><time>2026-04-11T08:41:05.446Z</time></trkpt><trkpt lat="43.7306145" lon="12.8394168"><ele>213.99999999999997</ele><time>2026-04-11T08:41:06.446Z</time></trkpt><trkpt lat="43.7306964" lon="12.8394182"><ele>214.0</ele><time>2026-04-11T08:41:07.446Z</time></trkpt><trkpt lat="43.7307856" lon="12.839428"><ele>214.0</ele><time>2026-04-11T08:41:08.447Z</time></trkpt><trkpt lat="43.7308798" lon="12.839439"><ele>214.0</ele><time>2026-04-11T08:41:09.446Z</time></trkpt><trkpt lat="43.7309708" lon="12.83944"><ele>213.99999999999997</ele><time>2026-04-11T08:41:10.446Z</time></trkpt><trkpt lat="43.7310582" lon="12.839428"><ele>214.0</ele><time>2026-04-11T08:41:11.447Z</time></trkpt><trkpt lat="43.7311393" lon="12.8394117"><ele>214.0</ele><time>2026-04-11T08:41:12.446Z</time></trkpt><trkpt lat="43.7312163" lon="12.8393939"><ele>213.99999999999997</ele><time>2026-04-11T08:41:13.446Z</time></trkpt><trkpt lat="43.7312902" lon="12.8393548"><ele>213.99999999999997</ele><time>2026-04-11T08:41:14.446Z</time></trkpt><trkpt lat="43.7313715" lon="12.8392943"><ele>214.0</ele><time>2026-04-11T08:41:15.446Z</time></trkpt><trkpt lat="43.7314602" lon="12.8392229"><ele>214.0</ele><time>2026-04-11T08:41:16.446Z</time></trkpt><trkpt lat="43.731552" lon="12.8391423"><ele>214.5</ele><time>2026-04-11T08:41:17.446Z</time></trkpt><trkpt lat="43.7316541" lon="12.8390572"><ele>215.0</ele><time>2026-04-11T08:41:18.447Z</time></trkpt><trkpt lat="43.7317625" lon="12.8389636"><ele>215.5</ele><time>2026-04-11T08:41:19.446Z</time></trkpt><trkpt lat="43.7318812" lon="12.8388624"><ele>216.0</ele><time>2026-04-11T08:41:20.446Z</time></trkpt><trkpt lat="43.7320194" lon="12.8387852"><ele>216.0</ele><time>2026-04-11T08:41:21.448Z</time></trkpt><trkpt lat="43.7321877" lon="12.8387397"><ele>216.0</ele><time>2026-04-11T08:41:22.446Z</time></trkpt><trkpt lat="43.7323481" lon="12.8387136"><ele>216.0</ele><time>2026-04-11T08:41:23.446Z</time></trkpt><trkpt lat="43.7324882" lon="12.8386651"><ele>216.0</ele><time>2026-04-11T08:41:24.447Z</time></trkpt><trkpt lat="43.732611" lon="12.8385962"><ele>216.0</ele><time>2026-04-11T08:41:25.446Z</time></trkpt><trkpt lat="43.7327279" lon="12.8384972"><ele>216.0</ele><time>2026-04-11T08:41:26.446Z</time></trkpt><trkpt lat="43.7328361" lon="12.8383486"><ele>216.0</ele><time>2026-04-11T08:41:27.446Z</time></trkpt><trkpt lat="43.7329353" lon="12.8381471"><ele>216.66666666666669</ele><time>2026-04-11T08:41:28.446Z</time></trkpt><trkpt lat="43.7330262" lon="12.8379068"><ele>217.33333333333334</ele><time>2026-04-11T08:41:29.446Z</time></trkpt><trkpt lat="43.7331047" lon="12.8377061"><ele>218.0</ele><time>2026-04-11T08:41:30.446Z</time></trkpt><trkpt lat="43.733177" lon="12.83753"><ele>220.0</ele><time>2026-04-11T08:41:31.446Z</time></trkpt><trkpt lat="43.7332259" lon="12.8373683"><ele>222.0</ele><time>2026-04-11T08:41:32.447Z</time></trkpt><trkpt lat="43.7332349" lon="12.8372046"><ele>224.0</ele><time>2026-04-11T08:41:33.446Z</time></trkpt><trkpt lat="43.733205" lon="12.8370211"><ele>226.0</ele><time>2026-04-11T08:41:34.447Z</time></trkpt><trkpt lat="43.7331384" lon="12.8368274"><ele>229.0</ele><time>2026-04-11T08:41:35.446Z</time></trkpt><trkpt lat="43.7330474" lon="12.8366216"><ele>232.0</ele><time>2026-04-11T08:41:36.446Z</time></trkpt><trkpt lat="43.732948" lon="12.8364341"><ele>235.0</ele><time>2026-04-11T08:41:37.447Z</time></trkpt><trkpt lat="43.7328397" lon="12.8362831"><ele>235.0</ele><time>2026-04-11T08:41:38.446Z</time></trkpt><trkpt lat="43.732735" lon="12.8361599"><ele>235.0</ele><time>2026-04-11T08:41:39.447Z</time></trkpt><trkpt lat="43.7326396" lon="12.8360527"><ele>235.0</ele><time>2026-04-11T08:41:40.446Z</time></trkpt><trkpt lat="43.7325648" lon="12.8359471"><ele>235.0</ele><time>2026-04-11T08:41:41.446Z</time></trkpt><trkpt lat="43.732513" lon="12.8358426"><ele>234.2</ele><time>2026-04-11T08:41:42.447Z</time></trkpt><trkpt lat="43.7324819" lon="12.8357517"><ele>233.4</ele><time>2026-04-11T08:41:43.446Z</time></trkpt><trkpt lat="43.732443" lon="12.8356321"><ele>232.60000000000002</ele><time>2026-04-11T08:41:45.446Z</time></trkpt><trkpt lat="43.7323326" lon="12.8355985"><ele>231.8</ele><time>2026-04-11T08:41:47.447Z</time></trkpt><trkpt lat="43.7322455" lon="12.8356051"><ele>231.0</ele><time>2026-04-11T08:41:48.446Z</time></trkpt><trkpt lat="43.7321521" lon="12.8356047"><ele>231.0</ele><time>2026-04-11T08:41:49.446Z</time></trkpt><trkpt lat="43.732057" lon="12.8355708"><ele>231.0</ele><time>2026-04-11T08:41:50.446Z</time></trkpt><trkpt lat="43.7319398" lon="12.8355006"><ele>231.0</ele><time>2026-04-11T08:41:51.446Z</time></trkpt><trkpt lat="43.7318205" lon="12.8353953"><ele>231.0</ele><time>2026-04-11T08:41:52.446Z</time></trkpt><trkpt lat="43.7316841" lon="12.8352528"><ele>226.33333333333331</ele><time>2026-04-11T08:41:53.446Z</time></trkpt><trkpt lat="43.7315511" lon="12.8350873"><ele>221.66666666666666</ele><time>2026-04-11T08:41:54.446Z</time></trkpt><trkpt lat="43.7314248" lon="12.8349269"><ele>217.0</ele><time>2026-04-11T08:41:55.446Z</time></trkpt><trkpt lat="43.7312928" lon="12.8347855"><ele>217.0</ele><time>2026-04-11T08:41:56.446Z</time></trkpt><trkpt lat="43.7311641" lon="12.8346636"><ele>217.0</ele><time>2026-04-11T08:41:57.446Z</time></trkpt><trkpt lat="43.7310407" lon="12.8345514"><ele>217.0</ele><time>2026-04-11T08:41:58.447Z</time></trkpt><trkpt lat="43.7309183" lon="12.8344443"><ele>217.0</ele><time>2026-04-11T08:41:59.446Z</time></trkpt><trkpt lat="43.7308047" lon="12.8343562"><ele>213.0</ele><time>2026-04-11T08:42:00.447Z</time></trkpt><trkpt lat="43.7306909" lon="12.8342803"><ele>209.0</ele><time>2026-04-11T08:42:01.447Z</time></trkpt><trkpt lat="43.7305671" lon="12.8342228"><ele>205.0</ele><time>2026-04-11T08:42:02.447Z</time></trkpt><trkpt lat="43.7304433" lon="12.8341728"><ele>201.0</ele><time>2026-04-11T08:42:03.447Z</time></trkpt><trkpt lat="43.7303205" lon="12.8341148"><ele>197.25</ele><time>2026-04-11T08:42:04.447Z</time></trkpt><trkpt lat="43.7301959" lon="12.8340446"><ele>193.5</ele><time>2026-04-11T08:42:05.446Z</time></trkpt><trkpt lat="43.7300564" lon="12.8339813"><ele>189.75</ele><time>2026-04-11T08:42:06.447Z</time></trkpt><trkpt lat="43.7299047" lon="12.8339158"><ele>186.0</ele><time>2026-04-11T08:42:07.446Z</time></trkpt><trkpt lat="43.7297531" lon="12.83385"><ele>186.0</ele><time>2026-04-11T08:42:08.446Z</time></trkpt><trkpt lat="43.7295916" lon="12.8337826"><ele>186.0</ele><time>2026-04-11T08:42:09.446Z</time></trkpt><trkpt lat="43.7294277" lon="12.8336772"><ele>186.0</ele><time>2026-04-11T08:42:10.446Z</time></trkpt><trkpt lat="43.7292703" lon="12.8335179"><ele>183.0</ele><time>2026-04-11T08:42:11.448Z</time></trkpt><trkpt lat="43.7291269" lon="12.833361"><ele>180.0</ele><time>2026-04-11T08:42:12.446Z</time></trkpt><trkpt lat="43.7289864" lon="12.8332129"><ele>177.0</ele><time>2026-04-11T08:42:13.447Z</time></trkpt><trkpt lat="43.7288588" lon="12.833064"><ele>177.0</ele><time>2026-04-11T08:42:14.446Z</time></trkpt><trkpt lat="43.7287331" lon="12.8329217"><ele>177.0</ele><time>2026-04-11T08:42:15.446Z</time></trkpt><trkpt lat="43.7285987" lon="12.8327817"><ele>177.0</ele><time>2026-04-11T08:42:16.446Z</time></trkpt><trkpt lat="43.7284384" lon="12.8326317"><ele>172.5</ele><time>2026-04-11T08:42:17.446Z</time></trkpt><trkpt lat="43.7282343" lon="12.8324746"><ele>168.0</ele><time>2026-04-11T08:42:18.447Z</time></trkpt><trkpt lat="43.7280316" lon="12.8323277"><ele>168.0</ele><time>2026-04-11T08:42:19.447Z</time></trkpt><trkpt lat="43.7278468" lon="12.8321935"><ele>168.0</ele><time>2026-04-11T08:42:20.446Z</time></trkpt><trkpt lat="43.7276757" lon="12.8320771"><ele>168.0</ele><time>2026-04-11T08:42:21.446Z</time></trkpt><trkpt lat="43.7275192" lon="12.8319874"><ele>165.0</ele><time>2026-04-11T08:42:22.446Z</time></trkpt><trkpt lat="43.7273626" lon="12.8319095"><ele>162.0</ele><time>2026-04-11T08:42:23.446Z</time></trkpt><trkpt lat="43.7272124" lon="12.831849"><ele>159.0</ele><time>2026-04-11T08:42:24.446Z</time></trkpt><trkpt lat="43.7270698" lon="12.831792"><ele>158.25</ele><time>2026-04-11T08:42:25.446Z</time></trkpt><trkpt lat="43.7269371" lon="12.8317403"><ele>157.5</ele><time>2026-04-11T08:42:26.446Z</time></trkpt><trkpt lat="43.7268124" lon="12.8317101"><ele>156.75</ele><time>2026-04-11T08:42:27.446Z</time></trkpt><trkpt lat="43.7266935" lon="12.8316947"><ele>156.0</ele><time>2026-04-11T08:42:28.447Z</time></trkpt><trkpt lat="43.726572" lon="12.8316956"><ele>154.0</ele><time>2026-04-11T08:42:29.446Z</time></trkpt><trkpt lat="43.7264563" lon="12.8317119"><ele>152.0</ele><time>2026-04-11T08:42:30.447Z</time></trkpt><trkpt lat="43.7263538" lon="12.8317319"><ele>150.0</ele><time>2026-04-11T08:42:31.447Z</time></trkpt><trkpt lat="43.7262654" lon="12.831758"><ele>148.0</ele><time>2026-04-11T08:42:32.446Z</time></trkpt><trkpt lat="43.7261903" lon="12.8317849"><ele>146.0</ele><time>2026-04-11T08:42:33.446Z</time></trkpt><trkpt lat="43.7261241" lon="12.8318092"><ele>142.5</ele><time>2026-04-11T08:42:34.447Z</time></trkpt><trkpt lat="43.7260387" lon="12.8317788"><ele>139.0</ele><time>2026-04-11T08:42:36.447Z</time></trkpt><trkpt lat="43.7259746" lon="12.8315957"><ele>135.5</ele><time>2026-04-11T08:42:38.446Z</time></trkpt><trkpt lat="43.7259483" lon="12.8314393"><ele>132.0</ele><time>2026-04-11T08:42:39.446Z</time></trkpt><trkpt lat="43.7259069" lon="12.8312402"><ele>132.0</ele><time>2026-04-11T08:42:40.447Z</time></trkpt><trkpt lat="43.7258568" lon="12.8310045"><ele>132.0</ele><time>2026-04-11T08:42:41.447Z</time></trkpt><trkpt lat="43.7258044" lon="12.8307561"><ele>132.0</ele><time>2026-04-11T08:42:42.447Z</time></trkpt><trkpt lat="43.72575" lon="12.83048"><ele>132.66666666666666</ele><time>2026-04-11T08:42:43.447Z</time></trkpt><trkpt lat="43.7256926" lon="12.8301983"><ele>133.33333333333331</ele><time>2026-04-11T08:42:44.446Z</time></trkpt><trkpt lat="43.7256409" lon="12.8299445"><ele>134.0</ele><time>2026-04-11T08:42:45.446Z</time></trkpt><trkpt lat="43.7256046" lon="12.8297045"><ele>134.0</ele><time>2026-04-11T08:42:46.446Z</time></trkpt><trkpt lat="43.7255981" lon="12.8294783"><ele>134.0</ele><time>2026-04-11T08:42:47.447Z</time></trkpt><trkpt lat="43.7256304" lon="12.8292401"><ele>134.0</ele><time>2026-04-11T08:42:48.446Z</time></trkpt><trkpt lat="43.7256945" lon="12.8289737"><ele>134.0</ele><time>2026-04-11T08:42:49.446Z</time></trkpt><trkpt lat="43.7257659" lon="12.8286779"><ele>134.0</ele><time>2026-04-11T08:42:50.446Z</time></trkpt><trkpt lat="43.7258402" lon="12.8283683"><ele>132.5</ele><time>2026-04-11T08:42:51.447Z</time></trkpt><trkpt lat="43.7259266" lon="12.8280393"><ele>131.0</ele><time>2026-04-11T08:42:52.446Z</time></trkpt><trkpt lat="43.72603" lon="12.8277068"><ele>133.5</ele><time>2026-04-11T08:42:53.447Z</time></trkpt><trkpt lat="43.7261502" lon="12.8274129"><ele>136.0</ele><time>2026-04-11T08:42:54.446Z</time></trkpt><trkpt lat="43.7262745" lon="12.827152"><ele>136.0</ele><time>2026-04-11T08:42:55.446Z</time></trkpt><trkpt lat="43.7263884" lon="12.8269102"><ele>136.0</ele><time>2026-04-11T08:42:56.447Z</time></trkpt><trkpt lat="43.7264983" lon="12.8266879"><ele>136.0</ele><time>2026-04-11T08:42:57.447Z</time></trkpt><trkpt lat="43.7265985" lon="12.8264877"><ele>136.5</ele><time>2026-04-11T08:42:58.446Z</time></trkpt><trkpt lat="43.726686" lon="12.8263109"><ele>137.0</ele><time>2026-04-11T08:42:59.447Z</time></trkpt><trkpt lat="43.7267601" lon="12.8261581"><ele>137.5</ele><time>2026-04-11T08:43:00.446Z</time></trkpt><trkpt lat="43.7268166" lon="12.8260187"><ele>138.0</ele><time>2026-04-11T08:43:01.446Z</time></trkpt><trkpt lat="43.7268401" lon="12.8258773"><ele>138.0</ele><time>2026-04-11T08:43:02.446Z</time></trkpt><trkpt lat="43.7268245" lon="12.8257293"><ele>138.0</ele><time>2026-04-11T08:43:03.446Z</time></trkpt><trkpt lat="43.7267558" lon="12.8255934"><ele>138.0</ele><time>2026-04-11T08:43:04.446Z</time></trkpt><trkpt lat="43.7266432" lon="12.8254842"><ele>138.0</ele><time>2026-04-11T08:43:05.446Z</time></trkpt><trkpt lat="43.7264945" lon="12.8253793"><ele>138.0</ele><time>2026-04-11T08:43:06.446Z</time></trkpt><trkpt lat="43.7263215" lon="12.8252522"><ele>138.0</ele><time>2026-04-11T08:43:07.447Z</time></trkpt><trkpt lat="43.7261623" lon="12.8251191"><ele>138.0</ele><time>2026-04-11T08:43:08.446Z</time></trkpt><trkpt lat="43.7260052" lon="12.8249976"><ele>134.66666666666666</ele><time>2026-04-11T08:43:09.446Z</time></trkpt><trkpt lat="43.7258588" lon="12.8248821"><ele>131.33333333333331</ele><time>2026-04-11T08:43:10.446Z</time></trkpt><trkpt lat="43.7257279" lon="12.8247586"><ele>128.0</ele><time>2026-04-11T08:43:11.446Z</time></trkpt><trkpt lat="43.7256313" lon="12.8246017"><ele>128.0</ele><time>2026-04-11T08:43:12.446Z</time></trkpt><trkpt lat="43.7255619" lon="12.8244221"><ele>128.0</ele><time>2026-04-11T08:43:13.446Z</time></trkpt><trkpt lat="43.725533" lon="12.8241741"><ele>128.0</ele><time>2026-04-11T08:43:14.447Z</time></trkpt><trkpt lat="43.7254971" lon="12.8238989"><ele>126.0</ele><time>2026-04-11T08:43:15.446Z</time></trkpt><trkpt lat="43.7254579" lon="12.8235931"><ele>124.0</ele><time>2026-04-11T08:43:16.446Z</time></trkpt><trkpt lat="43.7254222" lon="12.8232569"><ele>124.0</ele><time>2026-04-11T08:43:17.447Z</time></trkpt><trkpt lat="43.7253824" lon="12.8229141"><ele>124.0</ele><time>2026-04-11T08:43:18.447Z</time></trkpt><trkpt lat="43.7253332" lon="12.8225468"><ele>124.5</ele><time>2026-04-11T08:43:19.446Z</time></trkpt><trkpt lat="43.7252911" lon="12.8221987"><ele>125.0</ele><time>2026-04-11T08:43:20.447Z</time></trkpt><trkpt lat="43.7252548" lon="12.8218745"><ele>122.33333333333333</ele><time>2026-04-11T08:43:21.446Z</time></trkpt><trkpt lat="43.7252187" lon="12.8215697"><ele>119.66666666666666</ele><time>2026-04-11T08:43:22.447Z</time></trkpt><trkpt lat="43.725185" lon="12.8212738"><ele>117.0</ele><time>2026-04-11T08:43:23.446Z</time></trkpt><trkpt lat="43.7251593" lon="12.8209727"><ele>117.0</ele><time>2026-04-11T08:43:24.446Z</time></trkpt><trkpt lat="43.7251381" lon="12.8206696"><ele>117.0</ele><time>2026-04-11T08:43:25.447Z</time></trkpt><trkpt lat="43.7251169" lon="12.8203609"><ele>117.0</ele><time>2026-04-11T08:43:26.446Z</time></trkpt><trkpt lat="43.7250961" lon="12.820046"><ele>117.5</ele><time>2026-04-11T08:43:27.447Z</time></trkpt><trkpt lat="43.7250735" lon="12.8197189"><ele>118.0</ele><time>2026-04-11T08:43:28.447Z</time></trkpt><trkpt lat="43.7250505" lon="12.8193868"><ele>119.5</ele><time>2026-04-11T08:43:29.446Z</time></trkpt><trkpt lat="43.7250281" lon="12.8190584"><ele>121.0</ele><time>2026-04-11T08:43:30.446Z</time></trkpt><trkpt lat="43.725009" lon="12.818758"><ele>121.0</ele><time>2026-04-11T08:43:31.446Z</time></trkpt><trkpt lat="43.7249927" lon="12.818488"><ele>121.0</ele><time>2026-04-11T08:43:32.448Z</time></trkpt><trkpt lat="43.7249802" lon="12.8182523"><ele>121.0</ele><time>2026-04-11T08:43:33.448Z</time></trkpt><trkpt lat="43.7249763" lon="12.8180297"><ele>121.0</ele><time>2026-04-11T08:43:34.447Z</time></trkpt><trkpt lat="43.7250001" lon="12.8178009"><ele>121.0</ele><time>2026-04-11T08:43:35.446Z</time></trkpt><trkpt lat="43.7250618" lon="12.8175546"><ele>121.0</ele><time>2026-04-11T08:43:36.446Z</time></trkpt><trkpt lat="43.7251496" lon="12.8172925"><ele>123.5</ele><time>2026-04-11T08:43:37.447Z</time></trkpt><trkpt lat="43.7252482" lon="12.8170056"><ele>126.0</ele><time>2026-04-11T08:43:38.446Z</time></trkpt><trkpt lat="43.7253519" lon="12.8166904"><ele>126.0</ele><time>2026-04-11T08:43:39.446Z</time></trkpt><trkpt lat="43.725466" lon="12.8163516"><ele>126.0</ele><time>2026-04-11T08:43:40.447Z</time></trkpt><trkpt lat="43.7255949" lon="12.8159826"><ele>125.5</ele><time>2026-04-11T08:43:41.446Z</time></trkpt><trkpt lat="43.7257285" lon="12.8155856"><ele>125.0</ele><time>2026-04-11T08:43:42.446Z</time></trkpt><trkpt lat="43.7258557" lon="12.8152088"><ele>125.5</ele><time>2026-04-11T08:43:43.446Z</time></trkpt><trkpt lat="43.7259709" lon="12.8148768"><ele>126.0</ele><time>2026-04-11T08:43:44.446Z</time></trkpt><trkpt lat="43.7260757" lon="12.8145778"><ele>129.0</ele><time>2026-04-11T08:43:45.446Z</time></trkpt><trkpt lat="43.726173" lon="12.8143014"><ele>132.0</ele><time>2026-04-11T08:43:46.446Z</time></trkpt><trkpt lat="43.7262578" lon="12.8140349"><ele>135.0</ele><time>2026-04-11T08:43:47.447Z</time></trkpt><trkpt lat="43.7263261" lon="12.8137394"><ele>133.0</ele><time>2026-04-11T08:43:48.447Z</time></trkpt><trkpt lat="43.7263849" lon="12.8134131"><ele>131.0</ele><time>2026-04-11T08:43:49.446Z</time></trkpt><trkpt lat="43.7264352" lon="12.813059"><ele>131.0</ele><time>2026-04-11T08:43:50.447Z</time></trkpt><trkpt lat="43.7264885" lon="12.8126789"><ele>131.0</ele><time>2026-04-11T08:43:51.446Z</time></trkpt><trkpt lat="43.7265397" lon="12.8122994"><ele>131.0</ele><time>2026-04-11T08:43:52.447Z</time></trkpt><trkpt lat="43.7265893" lon="12.8119567"><ele>131.0</ele><time>2026-04-11T08:43:53.446Z</time></trkpt><trkpt lat="43.7266358" lon="12.8116316"><ele>129.5</ele><time>2026-04-11T08:43:54.447Z</time></trkpt><trkpt lat="43.72668" lon="12.811307"><ele>128.0</ele><time>2026-04-11T08:43:55.446Z</time></trkpt><trkpt lat="43.7267349" lon="12.8109802"><ele>127.5</ele><time>2026-04-11T08:43:56.446Z</time></trkpt><trkpt lat="43.7268042" lon="12.8106497"><ele>127.0</ele><time>2026-04-11T08:43:57.446Z</time></trkpt><trkpt lat="43.7268786" lon="12.8103097"><ele>130.5</ele><time>2026-04-11T08:43:58.447Z</time></trkpt><trkpt lat="43.7269512" lon="12.8099497"><ele>134.0</ele><time>2026-04-11T08:43:59.448Z</time></trkpt><trkpt lat="43.7270316" lon="12.8095754"><ele>135.0</ele><time>2026-04-11T08:44:00.446Z</time></trkpt><trkpt lat="43.7271097" lon="12.8092416"><ele>136.0</ele><time>2026-04-11T08:44:01.447Z</time></trkpt><trkpt lat="43.7271971" lon="12.8089126"><ele>136.0</ele><time>2026-04-11T08:44:02.446Z</time></trkpt><trkpt lat="43.7273007" lon="12.808587"><ele>136.0</ele><time>2026-04-11T08:44:03.447Z</time></trkpt><trkpt lat="43.7274144" lon="12.808254"><ele>134.0</ele><time>2026-04-11T08:44:04.447Z</time></trkpt><trkpt lat="43.727527" lon="12.8079158"><ele>132.0</ele><time>2026-04-11T08:44:05.447Z</time></trkpt><trkpt lat="43.7276324" lon="12.8076062"><ele>136.0</ele><time>2026-04-11T08:44:06.447Z</time></trkpt><trkpt lat="43.727736" lon="12.8073155"><ele>140.0</ele><time>2026-04-11T08:44:07.446Z</time></trkpt><trkpt lat="43.7278371" lon="12.807032"><ele>138.0</ele><time>2026-04-11T08:44:08.446Z</time></trkpt><trkpt lat="43.7279381" lon="12.8067444"><ele>136.0</ele><time>2026-04-11T08:44:09.446Z</time></trkpt><trkpt lat="43.728042" lon="12.8064558"><ele>136.0</ele><time>2026-04-11T08:44:10.447Z</time></trkpt><trkpt lat="43.7281492" lon="12.8061647"><ele>136.0</ele><time>2026-04-11T08:44:11.446Z</time></trkpt><trkpt lat="43.7282708" lon="12.8058736"><ele>135.0</ele><time>2026-04-11T08:44:12.446Z</time></trkpt><trkpt lat="43.7284201" lon="12.8055814"><ele>134.0</ele><time>2026-04-11T08:44:13.446Z</time></trkpt><trkpt lat="43.7285936" lon="12.8052968"><ele>134.66666666666666</ele><time>2026-04-11T08:44:14.446Z</time></trkpt><trkpt lat="43.7287582" lon="12.8050652"><ele>135.33333333333334</ele><time>2026-04-11T08:44:15.447Z</time></trkpt><trkpt lat="43.7289136" lon="12.8048804"><ele>136.0</ele><time>2026-04-11T08:44:16.446Z</time></trkpt><trkpt lat="43.729058" lon="12.8047479"><ele>136.0</ele><time>2026-04-11T08:44:17.447Z</time></trkpt><trkpt lat="43.7292134" lon="12.8046578"><ele>136.0</ele><time>2026-04-11T08:44:18.447Z</time></trkpt><trkpt lat="43.7293961" lon="12.8046"><ele>136.0</ele><time>2026-04-11T08:44:19.446Z</time></trkpt><trkpt lat="43.7295961" lon="12.804568"><ele>140.33333333333334</ele><time>2026-04-11T08:44:20.446Z</time></trkpt><trkpt lat="43.729776" lon="12.804544"><ele>144.66666666666666</ele><time>2026-04-11T08:44:21.447Z</time></trkpt><trkpt lat="43.7299446" lon="12.8044819"><ele>149.0</ele><time>2026-04-11T08:44:22.446Z</time></trkpt><trkpt lat="43.7301141" lon="12.8043703"><ele>149.0</ele><time>2026-04-11T08:44:23.447Z</time></trkpt><trkpt lat="43.7302782" lon="12.8042018"><ele>149.0</ele><time>2026-04-11T08:44:24.446Z</time></trkpt><trkpt lat="43.7304474" lon="12.8039889"><ele>149.0</ele><time>2026-04-11T08:44:25.447Z</time></trkpt><trkpt lat="43.7306371" lon="12.8037577"><ele>149.0</ele><time>2026-04-11T08:44:26.446Z</time></trkpt><trkpt lat="43.7308355" lon="12.8035273"><ele>149.0</ele><time>2026-04-11T08:44:27.447Z</time></trkpt><trkpt lat="43.7310151" lon="12.8033145"><ele>147.5</ele><time>2026-04-11T08:44:28.446Z</time></trkpt><trkpt lat="43.731182" lon="12.8031027"><ele>146.0</ele><time>2026-04-11T08:44:29.447Z</time></trkpt><trkpt lat="43.7313319" lon="12.8028689"><ele>146.0</ele><time>2026-04-11T08:44:30.446Z</time></trkpt><trkpt lat="43.7314435" lon="12.8026021"><ele>146.0</ele><time>2026-04-11T08:44:31.447Z</time></trkpt><trkpt lat="43.731529" lon="12.8023052"><ele>146.0</ele><time>2026-04-11T08:44:32.447Z</time></trkpt><trkpt lat="43.7315971" lon="12.8020303"><ele>146.0</ele><time>2026-04-11T08:44:33.446Z</time></trkpt><trkpt lat="43.7316578" lon="12.8017706"><ele>146.0</ele><time>2026-04-11T08:44:34.445Z</time></trkpt><trkpt lat="43.7317134" lon="12.8015254"><ele>146.0</ele><time>2026-04-11T08:44:35.445Z</time></trkpt><trkpt lat="43.7317661" lon="12.8013028"><ele>146.0</ele><time>2026-04-11T08:44:36.446Z</time></trkpt><trkpt lat="43.7318292" lon="12.801097"><ele>146.0</ele><time>2026-04-11T08:44:37.445Z</time></trkpt><trkpt lat="43.7319262" lon="12.8008917"><ele>150.0</ele><time>2026-04-11T08:44:38.445Z</time></trkpt><trkpt lat="43.7320638" lon="12.8007025"><ele>154.0</ele><time>2026-04-11T08:44:39.447Z</time></trkpt><trkpt lat="43.7322269" lon="12.8005169"><ele>158.0</ele><time>2026-04-11T08:44:40.445Z</time></trkpt><trkpt lat="43.7324062" lon="12.8003151"><ele>155.5</ele><time>2026-04-11T08:44:41.446Z</time></trkpt><trkpt lat="43.7325943" lon="12.8001084"><ele>153.0</ele><time>2026-04-11T08:44:42.445Z</time></trkpt><trkpt lat="43.7327979" lon="12.7998956"><ele>158.0</ele><time>2026-04-11T08:44:43.445Z</time></trkpt><trkpt lat="43.7330123" lon="12.7996727"><ele>163.0</ele><time>2026-04-11T08:44:44.445Z</time></trkpt><trkpt lat="43.7332275" lon="12.7994396"><ele>160.5</ele><time>2026-04-11T08:44:45.445Z</time></trkpt><trkpt lat="43.7334569" lon="12.7991893"><ele>158.0</ele><time>2026-04-11T08:44:46.445Z</time></trkpt><trkpt lat="43.7336984" lon="12.7989249"><ele>163.0</ele><time>2026-04-11T08:44:47.446Z</time></trkpt><trkpt lat="43.7339498" lon="12.7986456"><ele>168.0</ele><time>2026-04-11T08:44:48.445Z</time></trkpt><trkpt lat="43.7342018" lon="12.7983652"><ele>174.5</ele><time>2026-04-11T08:44:49.446Z</time></trkpt><trkpt lat="43.7344612" lon="12.7980728"><ele>181.0</ele><time>2026-04-11T08:44:50.445Z</time></trkpt><trkpt lat="43.7347219" lon="12.7977673"><ele>180.5</ele><time>2026-04-11T08:44:51.445Z</time></trkpt><trkpt lat="43.7349824" lon="12.7974522"><ele>180.0</ele><time>2026-04-11T08:44:52.445Z</time></trkpt><trkpt lat="43.7352224" lon="12.7971552"><ele>180.0</ele><time>2026-04-11T08:44:53.446Z</time></trkpt><trkpt lat="43.7354452" lon="12.7968791"><ele>180.0</ele><time>2026-04-11T08:44:54.445Z</time></trkpt><trkpt lat="43.7356505" lon="12.7966226"><ele>179.5</ele><time>2026-04-11T08:44:55.445Z</time></trkpt><trkpt lat="43.7358407" lon="12.7963837"><ele>179.0</ele><time>2026-04-11T08:44:56.445Z</time></trkpt><trkpt lat="43.7360227" lon="12.7961507"><ele>182.5</ele><time>2026-04-11T08:44:57.445Z</time></trkpt><trkpt lat="43.7361987" lon="12.7959246"><ele>186.0</ele><time>2026-04-11T08:44:58.445Z</time></trkpt><trkpt lat="43.7363671" lon="12.7957066"><ele>186.0</ele><time>2026-04-11T08:44:59.445Z</time></trkpt><trkpt lat="43.7365254" lon="12.7955105"><ele>186.0</ele><time>2026-04-11T08:45:00.446Z</time></trkpt><trkpt lat="43.736673" lon="12.7953256"><ele>186.0</ele><time>2026-04-11T08:45:01.445Z</time></trkpt><trkpt lat="43.7368184" lon="12.7951497"><ele>188.0</ele><time>2026-04-11T08:45:02.446Z</time></trkpt><trkpt lat="43.7369527" lon="12.7949851"><ele>190.0</ele><time>2026-04-11T08:45:03.445Z</time></trkpt><trkpt lat="43.737076" lon="12.7948172"><ele>192.0</ele><time>2026-04-11T08:45:04.446Z</time></trkpt><trkpt lat="43.7371742" lon="12.7946132"><ele>192.0</ele><time>2026-04-11T08:45:05.445Z</time></trkpt><trkpt lat="43.737248" lon="12.7943713"><ele>192.0</ele><time>2026-04-11T08:45:06.445Z</time></trkpt><trkpt lat="43.7372911" lon="12.7941037"><ele>192.0</ele><time>2026-04-11T08:45:07.445Z</time></trkpt><trkpt lat="43.737311" lon="12.793846"><ele>191.33333333333334</ele><time>2026-04-11T08:45:08.446Z</time></trkpt><trkpt lat="43.7373331" lon="12.7936001"><ele>190.66666666666669</ele><time>2026-04-11T08:45:09.445Z</time></trkpt><trkpt lat="43.7373582" lon="12.7933678"><ele>190.0</ele><time>2026-04-11T08:45:10.446Z</time></trkpt><trkpt lat="43.7373948" lon="12.7931459"><ele>189.0</ele><time>2026-04-11T08:45:11.446Z</time></trkpt><trkpt lat="43.7374602" lon="12.7929226"><ele>188.0</ele><time>2026-04-11T08:45:12.446Z</time></trkpt><trkpt lat="43.7375575" lon="12.7927043"><ele>187.0</ele><time>2026-04-11T08:45:13.445Z</time></trkpt><trkpt lat="43.7376931" lon="12.7924899"><ele>187.0</ele><time>2026-04-11T08:45:14.446Z</time></trkpt><trkpt lat="43.7378454" lon="12.7922746"><ele>187.0</ele><time>2026-04-11T08:45:15.445Z</time></trkpt><trkpt lat="43.7379882" lon="12.7920768"><ele>187.0</ele><time>2026-04-11T08:45:16.445Z</time></trkpt><trkpt lat="43.7381143" lon="12.7918878"><ele>183.33333333333334</ele><time>2026-04-11T08:45:17.446Z</time></trkpt><trkpt lat="43.7382198" lon="12.791697"><ele>179.66666666666666</ele><time>2026-04-11T08:45:18.446Z</time></trkpt><trkpt lat="43.7382974" lon="12.7914915"><ele>176.0</ele><time>2026-04-11T08:45:19.445Z</time></trkpt><trkpt lat="43.7383503" lon="12.791252"><ele>173.0</ele><time>2026-04-11T08:45:20.447Z</time></trkpt><trkpt lat="43.7383747" lon="12.7909856"><ele>170.0</ele><time>2026-04-11T08:45:21.445Z</time></trkpt><trkpt lat="43.7383683" lon="12.7906871"><ele>167.0</ele><time>2026-04-11T08:45:22.445Z</time></trkpt><trkpt lat="43.7383349" lon="12.790356"><ele>166.0</ele><time>2026-04-11T08:45:23.446Z</time></trkpt><trkpt lat="43.738303" lon="12.7900321"><ele>165.0</ele><time>2026-04-11T08:45:24.445Z</time></trkpt><trkpt lat="43.7382765" lon="12.7897207"><ele>165.0</ele><time>2026-04-11T08:45:25.445Z</time></trkpt><trkpt lat="43.7382582" lon="12.7894409"><ele>165.0</ele><time>2026-04-11T08:45:26.445Z</time></trkpt><trkpt lat="43.738256" lon="12.7892007"><ele>165.0</ele><time>2026-04-11T08:45:27.446Z</time></trkpt><trkpt lat="43.738281" lon="12.7889747"><ele>165.66666666666666</ele><time>2026-04-11T08:45:28.445Z</time></trkpt><trkpt lat="43.7383438" lon="12.7887542"><ele>166.33333333333331</ele><time>2026-04-11T08:45:29.446Z</time></trkpt><trkpt lat="43.7384408" lon="12.7885313"><ele>167.0</ele><time>2026-04-11T08:45:30.445Z</time></trkpt><trkpt lat="43.7385344" lon="12.7883031"><ele>173.33333333333331</ele><time>2026-04-11T08:45:31.445Z</time></trkpt><trkpt lat="43.7385862" lon="12.788068"><ele>179.66666666666666</ele><time>2026-04-11T08:45:32.445Z</time></trkpt><trkpt lat="43.7386097" lon="12.787794"><ele>186.0</ele><time>2026-04-11T08:45:33.447Z</time></trkpt><trkpt lat="43.7386096" lon="12.7874952"><ele>186.0</ele><time>2026-04-11T08:45:34.446Z</time></trkpt><trkpt lat="43.7385878" lon="12.7871741"><ele>186.0</ele><time>2026-04-11T08:45:35.445Z</time></trkpt><trkpt lat="43.7385592" lon="12.7868786"><ele>186.0</ele><time>2026-04-11T08:45:36.446Z</time></trkpt><trkpt lat="43.7385383" lon="12.7866034"><ele>185.0</ele><time>2026-04-11T08:45:37.446Z</time></trkpt><trkpt lat="43.7385293" lon="12.7863342"><ele>184.0</ele><time>2026-04-11T08:45:38.446Z</time></trkpt><trkpt lat="43.7385456" lon="12.7860631"><ele>183.0</ele><time>2026-04-11T08:45:39.445Z</time></trkpt><trkpt lat="43.7385823" lon="12.7858175"><ele>183.0</ele><time>2026-04-11T08:45:40.447Z</time></trkpt><trkpt lat="43.7386145" lon="12.7855946"><ele>183.0</ele><time>2026-04-11T08:45:41.445Z</time></trkpt><trkpt lat="43.7386408" lon="12.7854002"><ele>183.0</ele><time>2026-04-11T08:45:42.445Z</time></trkpt><trkpt lat="43.7386554" lon="12.7852484"><ele>183.0</ele><time>2026-04-11T08:45:43.445Z</time></trkpt><trkpt lat="43.7386435" lon="12.785122"><ele>181.5</ele><time>2026-04-11T08:45:44.445Z</time></trkpt><trkpt lat="43.7385981" lon="12.7850228"><ele>180.0</ele><time>2026-04-11T08:45:45.446Z</time></trkpt><trkpt lat="43.7385172" lon="12.7849576"><ele>178.5</ele><time>2026-04-11T08:45:46.445Z</time></trkpt><trkpt lat="43.7384274" lon="12.7849196"><ele>177.0</ele><time>2026-04-11T08:45:47.445Z</time></trkpt><trkpt lat="43.7383387" lon="12.7848404"><ele>175.5</ele><time>2026-04-11T08:45:49.445Z</time></trkpt><trkpt lat="43.7383211" lon="12.7847518"><ele>174.0</ele><time>2026-04-11T08:45:51.445Z</time></trkpt><trkpt lat="43.7383758" lon="12.7845813"><ele>173.75</ele><time>2026-04-11T08:45:53.445Z</time></trkpt><trkpt lat="43.7384386" lon="12.7844466"><ele>173.5</ele><time>2026-04-11T08:45:54.445Z</time></trkpt><trkpt lat="43.7385171" lon="12.7842822"><ele>173.25</ele><time>2026-04-11T08:45:55.445Z</time></trkpt><trkpt lat="43.7385978" lon="12.7840941"><ele>173.0</ele><time>2026-04-11T08:45:56.447Z</time></trkpt><trkpt lat="43.7386735" lon="12.7839193"><ele>172.75</ele><time>2026-04-11T08:45:57.445Z</time></trkpt><trkpt lat="43.7387376" lon="12.7837587"><ele>172.5</ele><time>2026-04-11T08:45:58.446Z</time></trkpt><trkpt lat="43.738785" lon="12.7835931"><ele>172.25</ele><time>2026-04-11T08:45:59.446Z</time></trkpt><trkpt lat="43.7388082" lon="12.7834086"><ele>172.0</ele><time>2026-04-11T08:46:00.445Z</time></trkpt><trkpt lat="43.7388098" lon="12.7831972"><ele>172.0</ele><time>2026-04-11T08:46:01.445Z</time></trkpt><trkpt lat="43.7387828" lon="12.7829548"><ele>172.0</ele><time>2026-04-11T08:46:02.445Z</time></trkpt><trkpt lat="43.7387336" lon="12.7826906"><ele>172.0</ele><time>2026-04-11T08:46:03.446Z</time></trkpt><trkpt lat="43.7386655" lon="12.7824214"><ele>172.0</ele><time>2026-04-11T08:46:04.446Z</time></trkpt><trkpt lat="43.7385954" lon="12.7821961"><ele>172.0</ele><time>2026-04-11T08:46:05.445Z</time></trkpt><trkpt lat="43.7385415" lon="12.7819921"><ele>172.0</ele><time>2026-04-11T08:46:06.445Z</time></trkpt><trkpt lat="43.7385241" lon="12.7818003"><ele>172.66666666666669</ele><time>2026-04-11T08:46:07.447Z</time></trkpt><trkpt lat="43.7385486" lon="12.7816095"><ele>173.33333333333334</ele><time>2026-04-11T08:46:08.447Z</time></trkpt><trkpt lat="43.738617" lon="12.7814165"><ele>174.0</ele><time>2026-04-11T08:46:09.446Z</time></trkpt><trkpt lat="43.7387137" lon="12.7812111"><ele>175.33333333333334</ele><time>2026-04-11T08:46:10.445Z</time></trkpt><trkpt lat="43.7388107" lon="12.7809825"><ele>176.66666666666669</ele><time>2026-04-11T08:46:11.445Z</time></trkpt><trkpt lat="43.7388847" lon="12.7807463"><ele>178.0</ele><time>2026-04-11T08:46:12.445Z</time></trkpt><trkpt lat="43.7389479" lon="12.7804652"><ele>180.5</ele><time>2026-04-11T08:46:13.445Z</time></trkpt><trkpt lat="43.7390195" lon="12.7801662"><ele>183.0</ele><time>2026-04-11T08:46:14.445Z</time></trkpt><trkpt lat="43.7390927" lon="12.7798722"><ele>183.0</ele><time>2026-04-11T08:46:15.446Z</time></trkpt><trkpt lat="43.7391518" lon="12.7796312"><ele>183.0</ele><time>2026-04-11T08:46:16.445Z</time></trkpt><trkpt lat="43.7391983" lon="12.7794243"><ele>183.0</ele><time>2026-04-11T08:46:17.446Z</time></trkpt><trkpt lat="43.7392286" lon="12.779228"><ele>186.0</ele><time>2026-04-11T08:46:18.445Z</time></trkpt><trkpt lat="43.7392343" lon="12.7790073"><ele>189.0</ele><time>2026-04-11T08:46:19.445Z</time></trkpt><trkpt lat="43.7392368" lon="12.7787607"><ele>192.0</ele><time>2026-04-11T08:46:20.446Z</time></trkpt><trkpt lat="43.7392434" lon="12.7784852"><ele>193.66666666666669</ele><time>2026-04-11T08:46:21.445Z</time></trkpt><trkpt lat="43.7392416" lon="12.7782102"><ele>195.33333333333334</ele><time>2026-04-11T08:46:22.445Z</time></trkpt><trkpt lat="43.7392364" lon="12.7779729"><ele>197.0</ele><time>2026-04-11T08:46:23.446Z</time></trkpt><trkpt lat="43.7392378" lon="12.7777715"><ele>198.6</ele><time>2026-04-11T08:46:24.446Z</time></trkpt><trkpt lat="43.7392337" lon="12.7776063"><ele>200.2</ele><time>2026-04-11T08:46:25.446Z</time></trkpt><trkpt lat="43.739205" lon="12.7774748"><ele>201.8</ele><time>2026-04-11T08:46:26.445Z</time></trkpt><trkpt lat="43.7391512" lon="12.777396"><ele>203.4</ele><time>2026-04-11T08:46:27.445Z</time></trkpt><trkpt lat="43.7390706" lon="12.7773786"><ele>205.0</ele><time>2026-04-11T08:46:28.446Z</time></trkpt><trkpt lat="43.7389723" lon="12.7773976"><ele>205.0</ele><time>2026-04-11T08:46:29.445Z</time></trkpt><trkpt lat="43.7388515" lon="12.7774344"><ele>205.0</ele><time>2026-04-11T08:46:30.445Z</time></trkpt><trkpt lat="43.7387302" lon="12.7774922"><ele>205.0</ele><time>2026-04-11T08:46:31.446Z</time></trkpt><trkpt lat="43.7386066" lon="12.7776094"><ele>205.0</ele><time>2026-04-11T08:46:32.446Z</time></trkpt><trkpt lat="43.7384786" lon="12.7777732"><ele>207.0</ele><time>2026-04-11T08:46:33.445Z</time></trkpt><trkpt lat="43.7383506" lon="12.7779839"><ele>209.0</ele><time>2026-04-11T08:46:34.445Z</time></trkpt><trkpt lat="43.7382307" lon="12.7782337"><ele>211.0</ele><time>2026-04-11T08:46:35.445Z</time></trkpt><trkpt lat="43.7381363" lon="12.7784627"><ele>209.33333333333331</ele><time>2026-04-11T08:46:36.445Z</time></trkpt><trkpt lat="43.7380484" lon="12.7786789"><ele>207.66666666666669</ele><time>2026-04-11T08:46:37.445Z</time></trkpt><trkpt lat="43.7379521" lon="12.7788959"><ele>206.0</ele><time>2026-04-11T08:46:38.445Z</time></trkpt><trkpt lat="43.7378528" lon="12.7790827"><ele>206.0</ele><time>2026-04-11T08:46:39.445Z</time></trkpt><trkpt lat="43.7377595" lon="12.7792419"><ele>206.0</ele><time>2026-04-11T08:46:40.446Z</time></trkpt><trkpt lat="43.737676" lon="12.7793833"><ele>206.0</ele><time>2026-04-11T08:46:41.446Z</time></trkpt><trkpt lat="43.7376002" lon="12.779494"><ele>206.0</ele><time>2026-04-11T08:46:42.445Z</time></trkpt><trkpt lat="43.7375241" lon="12.779551"><ele>207.75</ele><time>2026-04-11T08:46:43.446Z</time></trkpt><trkpt lat="43.7374606" lon="12.7795448"><ele>209.5</ele><time>2026-04-11T08:46:44.445Z</time></trkpt><trkpt lat="43.7374032" lon="12.7793803"><ele>211.25</ele><time>2026-04-11T08:46:46.445Z</time></trkpt><trkpt lat="43.7374088" lon="12.779218"><ele>213.0</ele><time>2026-04-11T08:46:47.445Z</time></trkpt><trkpt lat="43.7374151" lon="12.7790186"><ele>215.66666666666669</ele><time>2026-04-11T08:46:48.445Z</time></trkpt><trkpt lat="43.7374181" lon="12.7787881"><ele>218.33333333333334</ele><time>2026-04-11T08:46:49.446Z</time></trkpt><trkpt lat="43.7374102" lon="12.7785369"><ele>221.0</ele><time>2026-04-11T08:46:50.445Z</time></trkpt><trkpt lat="43.7373881" lon="12.7782788"><ele>222.66666666666669</ele><time>2026-04-11T08:46:51.445Z</time></trkpt><trkpt lat="43.737344" lon="12.7779953"><ele>224.33333333333331</ele><time>2026-04-11T08:46:52.445Z</time></trkpt><trkpt lat="43.7372905" lon="12.7776789"><ele>226.0</ele><time>2026-04-11T08:46:53.446Z</time></trkpt><trkpt lat="43.7372361" lon="12.7773534"><ele>226.0</ele><time>2026-04-11T08:46:54.445Z</time></trkpt><trkpt lat="43.7371866" lon="12.7770678"><ele>226.0</ele><time>2026-04-11T08:46:55.445Z</time></trkpt><trkpt lat="43.7371384" lon="12.7768026"><ele>226.0</ele><time>2026-04-11T08:46:56.445Z</time></trkpt><trkpt lat="43.7370909" lon="12.7765471"><ele>226.0</ele><time>2026-04-11T08:46:57.446Z</time></trkpt><trkpt lat="43.7370481" lon="12.7762919"><ele>226.0</ele><time>2026-04-11T08:46:58.445Z</time></trkpt><trkpt lat="43.737014" lon="12.776021"><ele>226.0</ele><time>2026-04-11T08:46:59.446Z</time></trkpt><trkpt lat="43.7370001" lon="12.775717"><ele>228.33333333333331</ele><time>2026-04-11T08:47:00.445Z</time></trkpt><trkpt lat="43.7370203" lon="12.7754032"><ele>230.66666666666669</ele><time>2026-04-11T08:47:01.446Z</time></trkpt><trkpt lat="43.7370619" lon="12.7751265"><ele>233.0</ele><time>2026-04-11T08:47:02.447Z</time></trkpt><trkpt lat="43.7370965" lon="12.7748701"><ele>235.0</ele><time>2026-04-11T08:47:03.445Z</time></trkpt><trkpt lat="43.7371323" lon="12.7746487"><ele>237.0</ele><time>2026-04-11T08:47:04.445Z</time></trkpt><trkpt lat="43.737182" lon="12.7744907"><ele>239.0</ele><time>2026-04-11T08:47:05.445Z</time></trkpt><trkpt lat="43.7372449" lon="12.7743933"><ele>241.0</ele><time>2026-04-11T08:47:06.446Z</time></trkpt><trkpt lat="43.7373375" lon="12.7743408"><ele>241.0</ele><time>2026-04-11T08:47:07.445Z</time></trkpt><trkpt lat="43.7374515" lon="12.7743449"><ele>241.0</ele><time>2026-04-11T08:47:08.446Z</time></trkpt><trkpt lat="43.7375825" lon="12.7743744"><ele>241.0</ele><time>2026-04-11T08:47:09.445Z</time></trkpt><trkpt lat="43.7377244" lon="12.7743675"><ele>241.0</ele><time>2026-04-11T08:47:10.445Z</time></trkpt><trkpt lat="43.7378874" lon="12.774323"><ele>244.0</ele><time>2026-04-11T08:47:11.446Z</time></trkpt><trkpt lat="43.7380378" lon="12.7742506"><ele>247.0</ele><time>2026-04-11T08:47:12.445Z</time></trkpt><trkpt lat="43.7381658" lon="12.7741892"><ele>250.0</ele><time>2026-04-11T08:47:13.446Z</time></trkpt><trkpt lat="43.7382716" lon="12.7741123"><ele>253.0</ele><time>2026-04-11T08:47:14.446Z</time></trkpt><trkpt lat="43.7383649" lon="12.7739906"><ele>253.0</ele><time>2026-04-11T08:47:15.446Z</time></trkpt><trkpt lat="43.7384505" lon="12.7738257"><ele>253.0</ele><time>2026-04-11T08:47:16.445Z</time></trkpt><trkpt lat="43.7385339" lon="12.7736227"><ele>253.0</ele><time>2026-04-11T08:47:17.446Z</time></trkpt><trkpt lat="43.7386134" lon="12.7733823"><ele>252.25</ele><time>2026-04-11T08:47:18.445Z</time></trkpt><trkpt lat="43.7386803" lon="12.7731789"><ele>251.5</ele><time>2026-04-11T08:47:19.445Z</time></trkpt><trkpt lat="43.7387431" lon="12.7729966"><ele>250.75</ele><time>2026-04-11T08:47:20.445Z</time></trkpt><trkpt lat="43.7387909" lon="12.7728142"><ele>250.0</ele><time>2026-04-11T08:47:21.445Z</time></trkpt><trkpt lat="43.7388141" lon="12.7726112"><ele>253.0</ele><time>2026-04-11T08:47:22.446Z</time></trkpt><trkpt lat="43.7388096" lon="12.7723797"><ele>256.0</ele><time>2026-04-11T08:47:23.445Z</time></trkpt><trkpt lat="43.7387861" lon="12.772114"><ele>259.0</ele><time>2026-04-11T08:47:24.445Z</time></trkpt><trkpt lat="43.738764" lon="12.7718366"><ele>259.66666666666663</ele><time>2026-04-11T08:47:25.445Z</time></trkpt><trkpt lat="43.7387525" lon="12.7716044"><ele>260.3333333333333</ele><time>2026-04-11T08:47:26.445Z</time></trkpt><trkpt lat="43.7387377" lon="12.7713933"><ele>261.0</ele><time>2026-04-11T08:47:27.445Z</time></trkpt><trkpt lat="43.738715" lon="12.7711979"><ele>263.6666666666667</ele><time>2026-04-11T08:47:28.446Z</time></trkpt><trkpt lat="43.738671" lon="12.770994"><ele>266.33333333333337</ele><time>2026-04-11T08:47:29.445Z</time></trkpt><trkpt lat="43.7385973" lon="12.7707749"><ele>269.0</ele><time>2026-04-11T08:47:30.445Z</time></trkpt><trkpt lat="43.7385073" lon="12.7705506"><ele>270.33333333333337</ele><time>2026-04-11T08:47:31.446Z</time></trkpt><trkpt lat="43.7383985" lon="12.7703017"><ele>271.6666666666667</ele><time>2026-04-11T08:47:32.445Z</time></trkpt><trkpt lat="43.738277" lon="12.7700321"><ele>273.0</ele><time>2026-04-11T08:47:33.445Z</time></trkpt><trkpt lat="43.7381297" lon="12.7697557"><ele>273.0</ele><time>2026-04-11T08:47:34.446Z</time></trkpt><trkpt lat="43.7379632" lon="12.7694848"><ele>273.0</ele><time>2026-04-11T08:47:35.445Z</time></trkpt><trkpt lat="43.7377756" lon="12.7691942"><ele>275.0</ele><time>2026-04-11T08:47:36.445Z</time></trkpt><trkpt lat="43.7375754" lon="12.7688954"><ele>277.0</ele><time>2026-04-11T08:47:37.445Z</time></trkpt><trkpt lat="43.7373674" lon="12.7685951"><ele>278.0</ele><time>2026-04-11T08:47:38.445Z</time></trkpt><trkpt lat="43.7371788" lon="12.7683264"><ele>279.0</ele><time>2026-04-11T08:47:39.445Z</time></trkpt><trkpt lat="43.7370001" lon="12.7680762"><ele>281.0</ele><time>2026-04-11T08:47:40.445Z</time></trkpt><trkpt lat="43.7368347" lon="12.7678399"><ele>283.0</ele><time>2026-04-11T08:47:41.445Z</time></trkpt><trkpt lat="43.7366771" lon="12.7676017"><ele>284.66666666666663</ele><time>2026-04-11T08:47:42.445Z</time></trkpt><trkpt lat="43.7365314" lon="12.7673625"><ele>286.3333333333333</ele><time>2026-04-11T08:47:43.445Z</time></trkpt><trkpt lat="43.7363891" lon="12.7671333"><ele>288.0</ele><time>2026-04-11T08:47:44.445Z</time></trkpt><trkpt lat="43.7362326" lon="12.7669165"><ele>289.0</ele><time>2026-04-11T08:47:45.446Z</time></trkpt><trkpt lat="43.7360815" lon="12.7667124"><ele>290.0</ele><time>2026-04-11T08:47:46.445Z</time></trkpt><trkpt lat="43.7359465" lon="12.7665273"><ele>291.0</ele><time>2026-04-11T08:47:47.445Z</time></trkpt><trkpt lat="43.735821" lon="12.7663585"><ele>293.0</ele><time>2026-04-11T08:47:48.446Z</time></trkpt><trkpt lat="43.7356978" lon="12.7662115"><ele>295.0</ele><time>2026-04-11T08:47:49.445Z</time></trkpt><trkpt lat="43.7355566" lon="12.7660976"><ele>297.0</ele><time>2026-04-11T08:47:50.445Z</time></trkpt><trkpt lat="43.7353876" lon="12.7660129"><ele>298.0</ele><time>2026-04-11T08:47:51.446Z</time></trkpt><trkpt lat="43.7352404" lon="12.7659636"><ele>299.0</ele><time>2026-04-11T08:47:52.445Z</time></trkpt><trkpt lat="43.7351123" lon="12.7659045"><ele>300.0</ele><time>2026-04-11T08:47:53.446Z</time></trkpt><trkpt lat="43.7349984" lon="12.7658133"><ele>301.0</ele><time>2026-04-11T08:47:54.446Z</time></trkpt><trkpt lat="43.734892" lon="12.7656763"><ele>303.0</ele><time>2026-04-11T08:47:55.445Z</time></trkpt><trkpt lat="43.7347903" lon="12.7655071"><ele>305.0</ele><time>2026-04-11T08:47:56.446Z</time></trkpt><trkpt lat="43.7346911" lon="12.7652959"><ele>307.0</ele><time>2026-04-11T08:47:57.446Z</time></trkpt><trkpt lat="43.7345904" lon="12.7650495"><ele>307.0</ele><time>2026-04-11T08:47:58.446Z</time></trkpt><trkpt lat="43.734472" lon="12.764785"><ele>307.0</ele><time>2026-04-11T08:47:59.445Z</time></trkpt><trkpt lat="43.7343328" lon="12.7645224"><ele>311.5</ele><time>2026-04-11T08:48:00.445Z</time></trkpt><trkpt lat="43.7341672" lon="12.7642759"><ele>316.0</ele><time>2026-04-11T08:48:01.446Z</time></trkpt><trkpt lat="43.7340094" lon="12.7640764"><ele>316.0</ele><time>2026-04-11T08:48:02.445Z</time></trkpt><trkpt lat="43.7338625" lon="12.7639059"><ele>316.0</ele><time>2026-04-11T08:48:03.445Z</time></trkpt><trkpt lat="43.7337257" lon="12.7637524"><ele>316.0</ele><time>2026-04-11T08:48:04.445Z</time></trkpt><trkpt lat="43.7336038" lon="12.7636099"><ele>317.0</ele><time>2026-04-11T08:48:05.445Z</time></trkpt><trkpt lat="43.7334976" lon="12.763479"><ele>318.0</ele><time>2026-04-11T08:48:06.445Z</time></trkpt><trkpt lat="43.7334053" lon="12.7633495"><ele>319.0</ele><time>2026-04-11T08:48:07.446Z</time></trkpt><trkpt lat="43.7333298" lon="12.7632002"><ele>320.0</ele><time>2026-04-11T08:48:08.445Z</time></trkpt><trkpt lat="43.7332724" lon="12.763018"><ele>320.0</ele><time>2026-04-11T08:48:09.447Z</time></trkpt><trkpt lat="43.7332233" lon="12.7628075"><ele>320.0</ele><time>2026-04-11T08:48:10.446Z</time></trkpt><trkpt lat="43.7331813" lon="12.7625775"><ele>320.0</ele><time>2026-04-11T08:48:11.445Z</time></trkpt><trkpt lat="43.7331493" lon="12.7623322"><ele>322.0</ele><time>2026-04-11T08:48:12.445Z</time></trkpt><trkpt lat="43.7331189" lon="12.7620663"><ele>324.0</ele><time>2026-04-11T08:48:13.445Z</time></trkpt><trkpt lat="43.7330901" lon="12.7617945"><ele>326.0</ele><time>2026-04-11T08:48:14.445Z</time></trkpt><trkpt lat="43.7330692" lon="12.7615493"><ele>326.33333333333337</ele><time>2026-04-11T08:48:15.446Z</time></trkpt><trkpt lat="43.7330535" lon="12.7613231"><ele>326.6666666666667</ele><time>2026-04-11T08:48:16.445Z</time></trkpt><trkpt lat="43.7330458" lon="12.7611189"><ele>327.0</ele><time>2026-04-11T08:48:17.445Z</time></trkpt><trkpt lat="43.7330387" lon="12.760928"><ele>327.75</ele><time>2026-04-11T08:48:18.445Z</time></trkpt><trkpt lat="43.7330231" lon="12.7607532"><ele>328.5</ele><time>2026-04-11T08:48:19.445Z</time></trkpt><trkpt lat="43.7330004" lon="12.7605711"><ele>329.25</ele><time>2026-04-11T08:48:20.445Z</time></trkpt><trkpt lat="43.7329781" lon="12.7603818"><ele>330.0</ele><time>2026-04-11T08:48:21.445Z</time></trkpt><trkpt lat="43.7329619" lon="12.7601855"><ele>330.3333333333333</ele><time>2026-04-11T08:48:22.445Z</time></trkpt><trkpt lat="43.7329502" lon="12.759985"><ele>330.66666666666663</ele><time>2026-04-11T08:48:23.446Z</time></trkpt><trkpt lat="43.7329347" lon="12.7597758"><ele>331.0</ele><time>2026-04-11T08:48:24.447Z</time></trkpt><trkpt lat="43.7329241" lon="12.7595622"><ele>332.3333333333333</ele><time>2026-04-11T08:48:25.445Z</time></trkpt><trkpt lat="43.732925" lon="12.7593385"><ele>333.6666666666667</ele><time>2026-04-11T08:48:26.445Z</time></trkpt><trkpt lat="43.7329495" lon="12.7591139"><ele>335.0</ele><time>2026-04-11T08:48:27.445Z</time></trkpt><trkpt lat="43.7329946" lon="12.7589113"><ele>335.0</ele><time>2026-04-11T08:48:28.446Z</time></trkpt><trkpt lat="43.7330426" lon="12.758726"><ele>335.0</ele><time>2026-04-11T08:48:29.446Z</time></trkpt><trkpt lat="43.7330813" lon="12.75855"><ele>335.0</ele><time>2026-04-11T08:48:30.445Z</time></trkpt><trkpt lat="43.7331171" lon="12.7583997"><ele>335.0</ele><time>2026-04-11T08:48:31.445Z</time></trkpt><trkpt lat="43.7331459" lon="12.7582702"><ele>336.1666666666667</ele><time>2026-04-11T08:48:32.445Z</time></trkpt><trkpt lat="43.7331689" lon="12.7581653"><ele>337.33333333333337</ele><time>2026-04-11T08:48:33.445Z</time></trkpt><trkpt lat="43.7332035" lon="12.758016"><ele>338.5</ele><time>2026-04-11T08:48:35.445Z</time></trkpt><trkpt lat="43.7332174" lon="12.7579197"><ele>339.6666666666667</ele><time>2026-04-11T08:48:37.446Z</time></trkpt><trkpt lat="43.7332404" lon="12.7578147"><ele>340.8333333333333</ele><time>2026-04-11T08:48:40.445Z</time></trkpt><trkpt lat="43.7332821" lon="12.7577159"><ele>342.0</ele><time>2026-04-11T08:48:42.445Z</time></trkpt><trkpt lat="43.7333315" lon="12.7576303"><ele>339.25</ele><time>2026-04-11T08:48:43.445Z</time></trkpt><trkpt lat="43.7333924" lon="12.7575394"><ele>336.5</ele><time>2026-04-11T08:48:44.446Z</time></trkpt><trkpt lat="43.7334677" lon="12.7574338"><ele>333.75</ele><time>2026-04-11T08:48:45.445Z</time></trkpt><trkpt lat="43.7335502" lon="12.7573048"><ele>331.0</ele><time>2026-04-11T08:48:46.445Z</time></trkpt><trkpt lat="43.7336369" lon="12.7571602"><ele>331.0</ele><time>2026-04-11T08:48:47.445Z</time></trkpt><trkpt lat="43.7336983" lon="12.7569933"><ele>331.0</ele><time>2026-04-11T08:48:48.446Z</time></trkpt><trkpt lat="43.7337309" lon="12.7568154"><ele>331.0</ele><time>2026-04-11T08:48:49.446Z</time></trkpt><trkpt lat="43.7337362" lon="12.756627"><ele>331.0</ele><time>2026-04-11T08:48:50.445Z</time></trkpt><trkpt lat="43.7337194" lon="12.7564546"><ele>333.20000000000005</ele><time>2026-04-11T08:48:51.446Z</time></trkpt><trkpt lat="43.7337069" lon="12.7563201"><ele>335.40000000000003</ele><time>2026-04-11T08:48:52.445Z</time></trkpt><trkpt lat="43.7336945" lon="12.7562083"><ele>337.6</ele><time>2026-04-11T08:48:53.445Z</time></trkpt><trkpt lat="43.7336853" lon="12.7560539"><ele>339.8</ele><time>2026-04-11T08:48:55.445Z</time></trkpt><trkpt lat="43.7336215" lon="12.7559651"><ele>342.0</ele><time>2026-04-11T08:48:57.446Z</time></trkpt><trkpt lat="43.7335554" lon="12.7559466"><ele>345.20000000000005</ele><time>2026-04-11T08:48:58.445Z</time></trkpt><trkpt lat="43.7334685" lon="12.7559325"><ele>348.4</ele><time>2026-04-11T08:48:59.445Z</time></trkpt><trkpt lat="43.7333782" lon="12.7559098"><ele>351.6</ele><time>2026-04-11T08:49:00.445Z</time></trkpt><trkpt lat="43.7332587" lon="12.7558594"><ele>354.79999999999995</ele><time>2026-04-11T08:49:01.445Z</time></trkpt><trkpt lat="43.733139" lon="12.7558114"><ele>358.0</ele><time>2026-04-11T08:49:02.446Z</time></trkpt><trkpt lat="43.733006" lon="12.7557795"><ele>358.0</ele><time>2026-04-11T08:49:03.446Z</time></trkpt><trkpt lat="43.7328832" lon="12.7557728"><ele>358.0</ele><time>2026-04-11T08:49:04.445Z</time></trkpt><trkpt lat="43.7327528" lon="12.7557983"><ele>358.0</ele><time>2026-04-11T08:49:05.445Z</time></trkpt><trkpt lat="43.7326046" lon="12.755864"><ele>358.0</ele><time>2026-04-11T08:49:06.445Z</time></trkpt><trkpt lat="43.7324446" lon="12.7559415"><ele>358.75</ele><time>2026-04-11T08:49:07.445Z</time></trkpt><trkpt lat="43.7323017" lon="12.7559958"><ele>359.5</ele><time>2026-04-11T08:49:08.445Z</time></trkpt><trkpt lat="43.7321665" lon="12.7560337"><ele>360.25</ele><time>2026-04-11T08:49:09.445Z</time></trkpt><trkpt lat="43.7320458" lon="12.756062"><ele>361.0</ele><time>2026-04-11T08:49:10.445Z</time></trkpt><trkpt lat="43.7319467" lon="12.756082"><ele>362.8333333333333</ele><time>2026-04-11T08:49:11.445Z</time></trkpt><trkpt lat="43.7318631" lon="12.7561076"><ele>364.66666666666663</ele><time>2026-04-11T08:49:12.446Z</time></trkpt><trkpt lat="43.7318096" lon="12.7561806"><ele>366.5</ele><time>2026-04-11T08:49:13.446Z</time></trkpt><trkpt lat="43.7317906" lon="12.7562796"><ele>368.3333333333333</ele><time>2026-04-11T08:49:14.445Z</time></trkpt><trkpt lat="43.7318116" lon="12.7563759"><ele>370.1666666666667</ele><time>2026-04-11T08:49:15.446Z</time></trkpt><trkpt lat="43.7318709" lon="12.756433"><ele>372.0</ele><time>2026-04-11T08:49:16.445Z</time></trkpt><trkpt lat="43.7319504" lon="12.756445"><ele>372.0</ele><time>2026-04-11T08:49:17.446Z</time></trkpt><trkpt lat="43.7320314" lon="12.7564459"><ele>372.0</ele><time>2026-04-11T08:49:18.445Z</time></trkpt><trkpt lat="43.7321716" lon="12.7563826"><ele>372.0</ele><time>2026-04-11T08:49:19.445Z</time></trkpt><trkpt lat="43.7323526" lon="12.7562792"><ele>372.0</ele><time>2026-04-11T08:49:20.445Z</time></trkpt><trkpt lat="43.7324764" lon="12.7562234"><ele>372.0</ele><time>2026-04-11T08:49:21.445Z</time></trkpt><trkpt lat="43.7325864" lon="12.7561729"><ele>372.0</ele><time>2026-04-11T08:49:22.446Z</time></trkpt><trkpt lat="43.7326867" lon="12.7561773"><ele>372.0</ele><time>2026-04-11T08:49:23.445Z</time></trkpt><trkpt lat="43.7327494" lon="12.7562311"><ele>372.0</ele><time>2026-04-11T08:49:24.446Z</time></trkpt><trkpt lat="43.7327475" lon="12.756396"><ele>372.0</ele><time>2026-04-11T08:49:26.446Z</time></trkpt><trkpt lat="43.7326879" lon="12.7564564"><ele>372.0</ele><time>2026-04-11T08:49:27.445Z</time></trkpt><trkpt lat="43.7326029" lon="12.7564737"><ele>372.0</ele><time>2026-04-11T08:49:28.445Z</time></trkpt><trkpt lat="43.7324916" lon="12.7564772"><ele>372.0</ele><time>2026-04-11T08:49:29.446Z</time></trkpt><trkpt lat="43.7323536" lon="12.7565116"><ele>372.0</ele><time>2026-04-11T08:49:30.446Z</time></trkpt><trkpt lat="43.7321903" lon="12.7565897"><ele>372.0</ele><time>2026-04-11T08:49:31.446Z</time></trkpt><trkpt lat="43.7320536" lon="12.7566583"><ele>372.0</ele><time>2026-04-11T08:49:32.446Z</time></trkpt><trkpt lat="43.7319238" lon="12.7567021"><ele>372.0</ele><time>2026-04-11T08:49:33.445Z</time></trkpt><trkpt lat="43.7317939" lon="12.7567007"><ele>372.0</ele><time>2026-04-11T08:49:34.446Z</time></trkpt><trkpt lat="43.7316747" lon="12.7566366"><ele>373.0</ele><time>2026-04-11T08:49:35.447Z</time></trkpt><trkpt lat="43.7315619" lon="12.7565065"><ele>374.0</ele><time>2026-04-11T08:49:36.445Z</time></trkpt><trkpt lat="43.7314605" lon="12.7563174"><ele>375.0</ele><time>2026-04-11T08:49:37.446Z</time></trkpt><trkpt lat="43.73137" lon="12.7561184"><ele>376.0</ele><time>2026-04-11T08:49:38.446Z</time></trkpt><trkpt lat="43.7312835" lon="12.7559678"><ele>377.0</ele><time>2026-04-11T08:49:39.445Z</time></trkpt><trkpt lat="43.7311752" lon="12.7558546"><ele>378.0</ele><time>2026-04-11T08:49:40.445Z</time></trkpt><trkpt lat="43.7310347" lon="12.7557625"><ele>379.0</ele><time>2026-04-11T08:49:41.445Z</time></trkpt><trkpt lat="43.7308926" lon="12.7556444"><ele>379.0</ele><time>2026-04-11T08:49:42.446Z</time></trkpt><trkpt lat="43.7307602" lon="12.7554727"><ele>379.0</ele><time>2026-04-11T08:49:43.445Z</time></trkpt><trkpt lat="43.7306412" lon="12.7552636"><ele>379.0</ele><time>2026-04-11T08:49:44.445Z</time></trkpt><trkpt lat="43.730516" lon="12.7550253"><ele>378.5</ele><time>2026-04-11T08:49:45.445Z</time></trkpt><trkpt lat="43.7303622" lon="12.7547769"><ele>378.0</ele><time>2026-04-11T08:49:46.445Z</time></trkpt><trkpt lat="43.7301775" lon="12.7545156"><ele>383.0</ele><time>2026-04-11T08:49:47.447Z</time></trkpt><trkpt lat="43.7299825" lon="12.7542357"><ele>388.0</ele><time>2026-04-11T08:49:48.445Z</time></trkpt><trkpt lat="43.7298227" lon="12.7539797"><ele>388.0</ele><time>2026-04-11T08:49:49.445Z</time></trkpt><trkpt lat="43.729675" lon="12.7537422"><ele>388.0</ele><time>2026-04-11T08:49:50.447Z</time></trkpt><trkpt lat="43.7295334" lon="12.7535368"><ele>388.0</ele><time>2026-04-11T08:49:51.445Z</time></trkpt><trkpt lat="43.7293916" lon="12.7533544"><ele>392.0</ele><time>2026-04-11T08:49:52.446Z</time></trkpt><trkpt lat="43.7292525" lon="12.7531745"><ele>396.0</ele><time>2026-04-11T08:49:53.446Z</time></trkpt><trkpt lat="43.7291152" lon="12.7530092"><ele>400.0</ele><time>2026-04-11T08:49:54.445Z</time></trkpt><trkpt lat="43.7289677" lon="12.7528813"><ele>400.0</ele><time>2026-04-11T08:49:55.445Z</time></trkpt><trkpt lat="43.7288" lon="12.7527913"><ele>400.0</ele><time>2026-04-11T08:49:56.445Z</time></trkpt><trkpt lat="43.7286228" lon="12.7527151"><ele>400.0</ele><time>2026-04-11T08:49:57.445Z</time></trkpt><trkpt lat="43.7284844" lon="12.7526276"><ele>404.0</ele><time>2026-04-11T08:49:58.445Z</time></trkpt><trkpt lat="43.7283698" lon="12.7525032"><ele>408.0</ele><time>2026-04-11T08:49:59.446Z</time></trkpt><trkpt lat="43.728292" lon="12.752347"><ele>412.0</ele><time>2026-04-11T08:50:00.446Z</time></trkpt><trkpt lat="43.7282567" lon="12.7521618"><ele>416.0</ele><time>2026-04-11T08:50:01.445Z</time></trkpt><trkpt lat="43.7282523" lon="12.7519419"><ele>415.25</ele><time>2026-04-11T08:50:02.446Z</time></trkpt><trkpt lat="43.7282436" lon="12.7517181"><ele>414.5</ele><time>2026-04-11T08:50:03.445Z</time></trkpt><trkpt lat="43.7282183" lon="12.7515251"><ele>413.75</ele><time>2026-04-11T08:50:04.445Z</time></trkpt><trkpt lat="43.7281685" lon="12.7513553"><ele>413.0</ele><time>2026-04-11T08:50:05.445Z</time></trkpt><trkpt lat="43.7280788" lon="12.7511838"><ele>412.0</ele><time>2026-04-11T08:50:06.445Z</time></trkpt><trkpt lat="43.7279678" lon="12.7510248"><ele>411.0</ele><time>2026-04-11T08:50:07.445Z</time></trkpt><trkpt lat="43.7278317" lon="12.7508956"><ele>410.0</ele><time>2026-04-11T08:50:08.445Z</time></trkpt><trkpt lat="43.7276696" lon="12.7507961"><ele>416.0</ele><time>2026-04-11T08:50:09.445Z</time></trkpt><trkpt lat="43.7275273" lon="12.7507259"><ele>422.0</ele><time>2026-04-11T08:50:10.445Z</time></trkpt><trkpt lat="43.7274161" lon="12.7506469"><ele>428.0</ele><time>2026-04-11T08:50:11.445Z</time></trkpt><trkpt lat="43.7273398" lon="12.7505308"><ele>434.0</ele><time>2026-04-11T08:50:12.445Z</time></trkpt><trkpt lat="43.7273026" lon="12.7503824"><ele>432.66666666666663</ele><time>2026-04-11T08:50:13.446Z</time></trkpt><trkpt lat="43.7273096" lon="12.7502061"><ele>431.33333333333337</ele><time>2026-04-11T08:50:14.446Z</time></trkpt><trkpt lat="43.7273555" lon="12.7500049"><ele>430.0</ele><time>2026-04-11T08:50:15.446Z</time></trkpt><trkpt lat="43.7274168" lon="12.7497731"><ele>430.0</ele><time>2026-04-11T08:50:16.445Z</time></trkpt><trkpt lat="43.727478" lon="12.7495214"><ele>430.0</ele><time>2026-04-11T08:50:17.445Z</time></trkpt><trkpt lat="43.7275333" lon="12.7493057"><ele>430.0</ele><time>2026-04-11T08:50:18.445Z</time></trkpt><trkpt lat="43.7275753" lon="12.7491193"><ele>432.0</ele><time>2026-04-11T08:50:19.445Z</time></trkpt><trkpt lat="43.7275876" lon="12.7489438"><ele>434.0</ele><time>2026-04-11T08:50:20.445Z</time></trkpt><trkpt lat="43.7275708" lon="12.7487467"><ele>436.0</ele><time>2026-04-11T08:50:21.445Z</time></trkpt><trkpt lat="43.7275574" lon="12.7485418"><ele>438.0</ele><time>2026-04-11T08:50:22.445Z</time></trkpt><trkpt lat="43.7275842" lon="12.7483494"><ele>438.4</ele><time>2026-04-11T08:50:23.446Z</time></trkpt><trkpt lat="43.7276348" lon="12.7481831"><ele>438.79999999999995</ele><time>2026-04-11T08:50:24.446Z</time></trkpt><trkpt lat="43.727675" lon="12.7480266"><ele>439.2</ele><time>2026-04-11T08:50:25.445Z</time></trkpt><trkpt lat="43.7276756" lon="12.7478882"><ele>439.6</ele><time>2026-04-11T08:50:26.445Z</time></trkpt><trkpt lat="43.7276406" lon="12.7477775"><ele>440.0</ele><time>2026-04-11T08:50:27.446Z</time></trkpt><trkpt lat="43.7275636" lon="12.747698"><ele>440.0</ele><time>2026-04-11T08:50:28.446Z</time></trkpt><trkpt lat="43.7274716" lon="12.7476739"><ele>440.0</ele><time>2026-04-11T08:50:29.445Z</time></trkpt><trkpt lat="43.7273803" lon="12.7477123"><ele>440.0</ele><time>2026-04-11T08:50:30.445Z</time></trkpt><trkpt lat="43.7272774" lon="12.7478051"><ele>440.0</ele><time>2026-04-11T08:50:31.445Z</time></trkpt><trkpt lat="43.7271607" lon="12.7479281"><ele>440.0</ele><time>2026-04-11T08:50:32.444Z</time></trkpt><trkpt lat="43.7270191" lon="12.7480583"><ele>440.0</ele><time>2026-04-11T08:50:33.444Z</time></trkpt><trkpt lat="43.7268639" lon="12.7481643"><ele>440.0</ele><time>2026-04-11T08:50:34.445Z</time></trkpt><trkpt lat="43.7267143" lon="12.7482335"><ele>442.8</ele><time>2026-04-11T08:50:35.444Z</time></trkpt><trkpt lat="43.7265804" lon="12.7482737"><ele>445.6</ele><time>2026-04-11T08:50:36.444Z</time></trkpt><trkpt lat="43.7264594" lon="12.7482716"><ele>448.4</ele><time>2026-04-11T08:50:37.444Z</time></trkpt><trkpt lat="43.7263689" lon="12.7482157"><ele>451.2</ele><time>2026-04-11T08:50:38.445Z</time></trkpt><trkpt lat="43.7263119" lon="12.7481206"><ele>454.0</ele><time>2026-04-11T08:50:39.445Z</time></trkpt><trkpt lat="43.7262908" lon="12.7479803"><ele>454.0</ele><time>2026-04-11T08:50:40.444Z</time></trkpt><trkpt lat="43.7262929" lon="12.7478168"><ele>454.0</ele><time>2026-04-11T08:50:41.445Z</time></trkpt><trkpt lat="43.7262779" lon="12.7476783"><ele>454.0</ele><time>2026-04-11T08:50:42.444Z</time></trkpt><trkpt lat="43.726231" lon="12.7475744"><ele>454.0</ele><time>2026-04-11T08:50:43.444Z</time></trkpt><trkpt lat="43.7261597" lon="12.7475302"><ele>454.0</ele><time>2026-04-11T08:50:44.445Z</time></trkpt><trkpt lat="43.7260707" lon="12.7475335"><ele>452.75</ele><time>2026-04-11T08:50:45.444Z</time></trkpt><trkpt lat="43.7259583" lon="12.7475761"><ele>451.5</ele><time>2026-04-11T08:50:46.445Z</time></trkpt><trkpt lat="43.7258138" lon="12.7476176"><ele>450.25</ele><time>2026-04-11T08:50:47.444Z</time></trkpt><trkpt lat="43.7256435" lon="12.7476648"><ele>449.0</ele><time>2026-04-11T08:50:48.444Z</time></trkpt><trkpt lat="43.725452" lon="12.7477244"><ele>456.3333333333333</ele><time>2026-04-11T08:50:49.444Z</time></trkpt><trkpt lat="43.725257" lon="12.7477848"><ele>463.66666666666663</ele><time>2026-04-11T08:50:50.444Z</time></trkpt><trkpt lat="43.7250398" lon="12.7478472"><ele>471.0</ele><time>2026-04-11T08:50:51.445Z</time></trkpt><trkpt lat="43.7248198" lon="12.7479104"><ele>472.0</ele><time>2026-04-11T08:50:52.444Z</time></trkpt><trkpt lat="43.7246327" lon="12.747968"><ele>473.0</ele><time>2026-04-11T08:50:53.445Z</time></trkpt><trkpt lat="43.7244633" lon="12.7480224"><ele>474.0</ele><time>2026-04-11T08:50:54.444Z</time></trkpt><trkpt lat="43.724311" lon="12.7480876"><ele>474.0</ele><time>2026-04-11T08:50:55.445Z</time></trkpt><trkpt lat="43.724151" lon="12.7481978"><ele>474.0</ele><time>2026-04-11T08:50:56.445Z</time></trkpt><trkpt lat="43.723979" lon="12.7483357"><ele>474.0</ele><time>2026-04-11T08:50:57.444Z</time></trkpt><trkpt lat="43.7238244" lon="12.7484372"><ele>474.0</ele><time>2026-04-11T08:50:58.444Z</time></trkpt><trkpt lat="43.7236697" lon="12.748507"><ele>474.0</ele><time>2026-04-11T08:50:59.444Z</time></trkpt><trkpt lat="43.7235225" lon="12.7485612"><ele>474.0</ele><time>2026-04-11T08:51:00.444Z</time></trkpt><trkpt lat="43.7233899" lon="12.7485954"><ele>473.0</ele><time>2026-04-11T08:51:01.445Z</time></trkpt><trkpt lat="43.7232597" lon="12.7486012"><ele>472.0</ele><time>2026-04-11T08:51:02.445Z</time></trkpt><trkpt lat="43.7231192" lon="12.7485739"><ele>471.0</ele><time>2026-04-11T08:51:03.445Z</time></trkpt><trkpt lat="43.7229682" lon="12.7485289"><ele>470.0</ele><time>2026-04-11T08:51:04.444Z</time></trkpt><trkpt lat="43.7228008" lon="12.7484769"><ele>472.66666666666663</ele><time>2026-04-11T08:51:05.445Z</time></trkpt><trkpt lat="43.7226089" lon="12.7484149"><ele>475.33333333333337</ele><time>2026-04-11T08:51:06.444Z</time></trkpt><trkpt lat="43.7224123" lon="12.748346"><ele>478.0</ele><time>2026-04-11T08:51:07.444Z</time></trkpt><trkpt lat="43.7222398" lon="12.7482833"><ele>478.0</ele><time>2026-04-11T08:51:08.444Z</time></trkpt><trkpt lat="43.722081" lon="12.7482252"><ele>478.0</ele><time>2026-04-11T08:51:09.444Z</time></trkpt><trkpt lat="43.721934" lon="12.7481455"><ele>478.0</ele><time>2026-04-11T08:51:10.445Z</time></trkpt><trkpt lat="43.7218054" lon="12.748016"><ele>480.2</ele><time>2026-04-11T08:51:11.445Z</time></trkpt><trkpt lat="43.7217028" lon="12.7478734"><ele>482.4</ele><time>2026-04-11T08:51:12.444Z</time></trkpt><trkpt lat="43.7216129" lon="12.747767"><ele>484.59999999999997</ele><time>2026-04-11T08:51:13.444Z</time></trkpt><trkpt lat="43.7215302" lon="12.7477153"><ele>486.79999999999995</ele><time>2026-04-11T08:51:14.444Z</time></trkpt><trkpt lat="43.721454" lon="12.7477182"><ele>489.0</ele><time>2026-04-11T08:51:15.444Z</time></trkpt><trkpt lat="43.7213931" lon="12.7477821"><ele>489.0</ele><time>2026-04-11T08:51:16.445Z</time></trkpt><trkpt lat="43.7213708" lon="12.7478902"><ele>489.0</ele><time>2026-04-11T08:51:17.444Z</time></trkpt><trkpt lat="43.7213939" lon="12.7480152"><ele>489.0</ele><time>2026-04-11T08:51:18.444Z</time></trkpt><trkpt lat="43.7214585" lon="12.7481494"><ele>489.0</ele><time>2026-04-11T08:51:19.444Z</time></trkpt><trkpt lat="43.7215576" lon="12.7483085"><ele>489.0</ele><time>2026-04-11T08:51:20.444Z</time></trkpt><trkpt lat="43.7216716" lon="12.7485049"><ele>490.0</ele><time>2026-04-11T08:51:21.444Z</time></trkpt><trkpt lat="43.7217983" lon="12.7486923"><ele>491.0</ele><time>2026-04-11T08:51:22.445Z</time></trkpt><trkpt lat="43.72191" lon="12.7488462"><ele>492.0</ele><time>2026-04-11T08:51:23.444Z</time></trkpt><trkpt lat="43.7220183" lon="12.7489746"><ele>492.0</ele><time>2026-04-11T08:51:24.444Z</time></trkpt><trkpt lat="43.7221176" lon="12.7490771"><ele>492.00000000000006</ele><time>2026-04-11T08:51:25.445Z</time></trkpt><trkpt lat="43.7222032" lon="12.7491728"><ele>492.00000000000006</ele><time>2026-04-11T08:51:26.444Z</time></trkpt><trkpt lat="43.722264" lon="12.7492818"><ele>492.0</ele><time>2026-04-11T08:51:27.445Z</time></trkpt><trkpt lat="43.7222847" lon="12.7494037"><ele>492.0</ele><time>2026-04-11T08:51:28.444Z</time></trkpt><trkpt lat="43.7222601" lon="12.749501"><ele>494.6</ele><time>2026-04-11T08:51:29.444Z</time></trkpt><trkpt lat="43.7222034" lon="12.7495552"><ele>497.20000000000005</ele><time>2026-04-11T08:51:30.444Z</time></trkpt><trkpt lat="43.7221257" lon="12.7495531"><ele>499.8</ele><time>2026-04-11T08:51:31.444Z</time></trkpt><trkpt lat="43.7220383" lon="12.7494966"><ele>502.4</ele><time>2026-04-11T08:51:32.444Z</time></trkpt><trkpt lat="43.7219328" lon="12.7494007"><ele>505.0</ele><time>2026-04-11T08:51:33.444Z</time></trkpt><trkpt lat="43.7218016" lon="12.7492852"><ele>505.0</ele><time>2026-04-11T08:51:34.445Z</time></trkpt><trkpt lat="43.7216484" lon="12.7491945"><ele>505.0</ele><time>2026-04-11T08:51:35.444Z</time></trkpt><trkpt lat="43.7214703" lon="12.7491183"><ele>505.0</ele><time>2026-04-11T08:51:36.444Z</time></trkpt><trkpt lat="43.7212727" lon="12.7490407"><ele>507.6666666666667</ele><time>2026-04-11T08:51:37.444Z</time></trkpt><trkpt lat="43.721064" lon="12.7489505"><ele>510.33333333333337</ele><time>2026-04-11T08:51:38.444Z</time></trkpt><trkpt lat="43.7208501" lon="12.7488553"><ele>513.0</ele><time>2026-04-11T08:51:39.445Z</time></trkpt><trkpt lat="43.720663" lon="12.7487678"><ele>513.0</ele><time>2026-04-11T08:51:40.445Z</time></trkpt><trkpt lat="43.7204937" lon="12.7486776"><ele>513.0</ele><time>2026-04-11T08:51:41.444Z</time></trkpt><trkpt lat="43.7203389" lon="12.7485885"><ele>513.0</ele><time>2026-04-11T08:51:42.444Z</time></trkpt><trkpt lat="43.7202052" lon="12.7484937"><ele>514.25</ele><time>2026-04-11T08:51:43.445Z</time></trkpt><trkpt lat="43.7200993" lon="12.7483732"><ele>515.5</ele><time>2026-04-11T08:51:44.444Z</time></trkpt><trkpt lat="43.7200132" lon="12.7482105"><ele>516.75</ele><time>2026-04-11T08:51:45.444Z</time></trkpt><trkpt lat="43.7199453" lon="12.7480059"><ele>518.0</ele><time>2026-04-11T08:51:46.445Z</time></trkpt><trkpt lat="43.7198771" lon="12.7477657"><ele>516.0</ele><time>2026-04-11T08:51:47.444Z</time></trkpt><trkpt lat="43.7198121" lon="12.7475506"><ele>514.0</ele><time>2026-04-11T08:51:48.445Z</time></trkpt><trkpt lat="43.7197459" lon="12.7473675"><ele>512.0</ele><time>2026-04-11T08:51:49.444Z</time></trkpt><trkpt lat="43.7196641" lon="12.747222"><ele>512.0</ele><time>2026-04-11T08:51:50.445Z</time></trkpt><trkpt lat="43.719549" lon="12.7471067"><ele>512.0</ele><time>2026-04-11T08:51:51.444Z</time></trkpt><trkpt lat="43.7194041" lon="12.7470037"><ele>512.0</ele><time>2026-04-11T08:51:52.444Z</time></trkpt><trkpt lat="43.7192407" lon="12.7469051"><ele>515.6666666666666</ele><time>2026-04-11T08:51:53.445Z</time></trkpt><trkpt lat="43.7190621" lon="12.7468136"><ele>519.3333333333334</ele><time>2026-04-11T08:51:54.444Z</time></trkpt><trkpt lat="43.7188577" lon="12.7467381"><ele>523.0</ele><time>2026-04-11T08:51:55.445Z</time></trkpt><trkpt lat="43.7186677" lon="12.746661"><ele>526.0</ele><time>2026-04-11T08:51:56.444Z</time></trkpt><trkpt lat="43.7185001" lon="12.7465826"><ele>529.0</ele><time>2026-04-11T08:51:57.445Z</time></trkpt><trkpt lat="43.7183456" lon="12.7465141"><ele>532.0</ele><time>2026-04-11T08:51:58.444Z</time></trkpt><trkpt lat="43.7181925" lon="12.7464725"><ele>532.0</ele><time>2026-04-11T08:51:59.444Z</time></trkpt><trkpt lat="43.7180424" lon="12.7464753"><ele>532.0</ele><time>2026-04-11T08:52:00.445Z</time></trkpt><trkpt lat="43.7179096" lon="12.7465125"><ele>532.0</ele><time>2026-04-11T08:52:01.445Z</time></trkpt><trkpt lat="43.7177963" lon="12.7465725"><ele>532.0</ele><time>2026-04-11T08:52:02.445Z</time></trkpt><trkpt lat="43.7176947" lon="12.7466732"><ele>533.3333333333334</ele><time>2026-04-11T08:52:03.444Z</time></trkpt><trkpt lat="43.7176138" lon="12.7468257"><ele>534.6666666666666</ele><time>2026-04-11T08:52:04.444Z</time></trkpt><trkpt lat="43.7175397" lon="12.7470171"><ele>536.0</ele><time>2026-04-11T08:52:05.444Z</time></trkpt><trkpt lat="43.7174629" lon="12.7472092"><ele>538.5</ele><time>2026-04-11T08:52:06.444Z</time></trkpt><trkpt lat="43.7174121" lon="12.7473813"><ele>541.0</ele><time>2026-04-11T08:52:07.444Z</time></trkpt><trkpt lat="43.7173875" lon="12.7475798"><ele>543.5</ele><time>2026-04-11T08:52:08.444Z</time></trkpt><trkpt lat="43.7173857" lon="12.7478079"><ele>546.0</ele><time>2026-04-11T08:52:09.444Z</time></trkpt><trkpt lat="43.7173888" lon="12.7480622"><ele>547.25</ele><time>2026-04-11T08:52:10.444Z</time></trkpt><trkpt lat="43.7173862" lon="12.7482903"><ele>548.5</ele><time>2026-04-11T08:52:11.444Z</time></trkpt><trkpt lat="43.7173845" lon="12.7484936"><ele>549.75</ele><time>2026-04-11T08:52:12.444Z</time></trkpt><trkpt lat="43.7173847" lon="12.748676"><ele>551.0</ele><time>2026-04-11T08:52:13.444Z</time></trkpt><trkpt lat="43.7173879" lon="12.7488446"><ele>551.0</ele><time>2026-04-11T08:52:14.444Z</time></trkpt><trkpt lat="43.7173907" lon="12.7490097"><ele>551.0</ele><time>2026-04-11T08:52:15.445Z</time></trkpt><trkpt lat="43.7173914" lon="12.7491688"><ele>551.0</ele><time>2026-04-11T08:52:16.445Z</time></trkpt><trkpt lat="43.7173758" lon="12.7493198"><ele>551.0</ele><time>2026-04-11T08:52:17.445Z</time></trkpt><trkpt lat="43.7173235" lon="12.7494717"><ele>550.2</ele><time>2026-04-11T08:52:18.445Z</time></trkpt><trkpt lat="43.7172456" lon="12.7495784"><ele>549.4000000000001</ele><time>2026-04-11T08:52:19.444Z</time></trkpt><trkpt lat="43.7171577" lon="12.7496155"><ele>548.6</ele><time>2026-04-11T08:52:20.446Z</time></trkpt><trkpt lat="43.7170743" lon="12.7495854"><ele>547.8000000000001</ele><time>2026-04-11T08:52:21.444Z</time></trkpt><trkpt lat="43.7169922" lon="12.7494931"><ele>547.0</ele><time>2026-04-11T08:52:22.445Z</time></trkpt><trkpt lat="43.716898" lon="12.7493687"><ele>549.6666666666667</ele><time>2026-04-11T08:52:23.444Z</time></trkpt><trkpt lat="43.7167824" lon="12.7492287"><ele>552.3333333333334</ele><time>2026-04-11T08:52:24.444Z</time></trkpt><trkpt lat="43.7166489" lon="12.7490668"><ele>555.0</ele><time>2026-04-11T08:52:25.445Z</time></trkpt><trkpt lat="43.7165006" lon="12.748877"><ele>555.0</ele><time>2026-04-11T08:52:26.444Z</time></trkpt><trkpt lat="43.7163497" lon="12.7486876"><ele>555.0</ele><time>2026-04-11T08:52:27.444Z</time></trkpt><trkpt lat="43.7161902" lon="12.7484919"><ele>555.0</ele><time>2026-04-11T08:52:28.444Z</time></trkpt><trkpt lat="43.7160342" lon="12.7482994"><ele>555.6666666666666</ele><time>2026-04-11T08:52:29.444Z</time></trkpt><trkpt lat="43.7158942" lon="12.7481188"><ele>556.3333333333333</ele><time>2026-04-11T08:52:30.446Z</time></trkpt><trkpt lat="43.7157651" lon="12.7479494"><ele>557.0</ele><time>2026-04-11T08:52:31.445Z</time></trkpt><trkpt lat="43.7156421" lon="12.7477924"><ele>557.6666666666666</ele><time>2026-04-11T08:52:32.445Z</time></trkpt><trkpt lat="43.7155251" lon="12.7476471"><ele>558.3333333333334</ele><time>2026-04-11T08:52:33.444Z</time></trkpt><trkpt lat="43.7154097" lon="12.7475075"><ele>559.0</ele><time>2026-04-11T08:52:34.444Z</time></trkpt><trkpt lat="43.715296" lon="12.747364"><ele>561.0</ele><time>2026-04-11T08:52:35.444Z</time></trkpt><trkpt lat="43.7151836" lon="12.7472196"><ele>563.0</ele><time>2026-04-11T08:52:36.444Z</time></trkpt><trkpt lat="43.7150665" lon="12.7470792"><ele>565.0</ele><time>2026-04-11T08:52:37.444Z</time></trkpt><trkpt lat="43.7149484" lon="12.7469363"><ele>565.75</ele><time>2026-04-11T08:52:38.444Z</time></trkpt><trkpt lat="43.7148361" lon="12.7468009"><ele>566.5</ele><time>2026-04-11T08:52:39.445Z</time></trkpt><trkpt lat="43.714736" lon="12.746678"><ele>567.25</ele><time>2026-04-11T08:52:40.444Z</time></trkpt><trkpt lat="43.7146403" lon="12.7465591"><ele>568.0</ele><time>2026-04-11T08:52:41.445Z</time></trkpt><trkpt lat="43.7145389" lon="12.7464389"><ele>568.0</ele><time>2026-04-11T08:52:42.445Z</time></trkpt><trkpt lat="43.7144512" lon="12.7463099"><ele>568.0</ele><time>2026-04-11T08:52:43.444Z</time></trkpt><trkpt lat="43.7143749" lon="12.7461491"><ele>568.0</ele><time>2026-04-11T08:52:44.444Z</time></trkpt><trkpt lat="43.7143117" lon="12.7459546"><ele>568.0</ele><time>2026-04-11T08:52:45.445Z</time></trkpt><trkpt lat="43.7142498" lon="12.7457339"><ele>570.3333333333334</ele><time>2026-04-11T08:52:46.445Z</time></trkpt><trkpt lat="43.7141801" lon="12.7454959"><ele>572.6666666666666</ele><time>2026-04-11T08:52:47.445Z</time></trkpt><trkpt lat="43.714108" lon="12.745233"><ele>575.0</ele><time>2026-04-11T08:52:48.446Z</time></trkpt><trkpt lat="43.7140304" lon="12.7449529"><ele>575.0</ele><time>2026-04-11T08:52:49.445Z</time></trkpt><trkpt lat="43.713953" lon="12.7446712"><ele>575.0</ele><time>2026-04-11T08:52:50.444Z</time></trkpt><trkpt lat="43.713879" lon="12.7443914"><ele>575.0</ele><time>2026-04-11T08:52:51.444Z</time></trkpt><trkpt lat="43.7138072" lon="12.7441191"><ele>574.3333333333333</ele><time>2026-04-11T08:52:52.444Z</time></trkpt><trkpt lat="43.7137328" lon="12.7438541"><ele>573.6666666666666</ele><time>2026-04-11T08:52:53.445Z</time></trkpt><trkpt lat="43.7136595" lon="12.7435898"><ele>573.0</ele><time>2026-04-11T08:52:54.444Z</time></trkpt><trkpt lat="43.7135891" lon="12.7433259"><ele>576.6666666666666</ele><time>2026-04-11T08:52:55.444Z</time></trkpt><trkpt lat="43.7135183" lon="12.7430674"><ele>580.3333333333333</ele><time>2026-04-11T08:52:56.445Z</time></trkpt><trkpt lat="43.7134457" lon="12.7428152"><ele>584.0</ele><time>2026-04-11T08:52:57.445Z</time></trkpt><trkpt lat="43.7133648" lon="12.7425635"><ele>584.0</ele><time>2026-04-11T08:52:58.445Z</time></trkpt><trkpt lat="43.7132612" lon="12.7423012"><ele>584.0</ele><time>2026-04-11T08:52:59.444Z</time></trkpt><trkpt lat="43.7131407" lon="12.7420369"><ele>584.0</ele><time>2026-04-11T08:53:00.444Z</time></trkpt><trkpt lat="43.7130343" lon="12.7417989"><ele>582.0</ele><time>2026-04-11T08:53:01.444Z</time></trkpt><trkpt lat="43.7129357" lon="12.7415684"><ele>580.0</ele><time>2026-04-11T08:53:02.445Z</time></trkpt><trkpt lat="43.7128367" lon="12.7413505"><ele>578.0</ele><time>2026-04-11T08:53:03.444Z</time></trkpt><trkpt lat="43.7127348" lon="12.7411315"><ele>581.6666666666666</ele><time>2026-04-11T08:53:04.444Z</time></trkpt><trkpt lat="43.712622" lon="12.740893"><ele>585.3333333333334</ele><time>2026-04-11T08:53:05.444Z</time></trkpt><trkpt lat="43.71252" lon="12.7406525"><ele>589.0</ele><time>2026-04-11T08:53:06.444Z</time></trkpt><trkpt lat="43.71243" lon="12.7404304"><ele>589.0</ele><time>2026-04-11T08:53:07.444Z</time></trkpt><trkpt lat="43.71234" lon="12.7402237"><ele>589.0</ele><time>2026-04-11T08:53:08.444Z</time></trkpt><trkpt lat="43.7122484" lon="12.7400242"><ele>589.0</ele><time>2026-04-11T08:53:09.444Z</time></trkpt><trkpt lat="43.712161" lon="12.7398183"><ele>588.3333333333334</ele><time>2026-04-11T08:53:10.445Z</time></trkpt><trkpt lat="43.712081" lon="12.7396166"><ele>587.6666666666666</ele><time>2026-04-11T08:53:11.445Z</time></trkpt><trkpt lat="43.7120014" lon="12.7394471"><ele>587.0</ele><time>2026-04-11T08:53:12.445Z</time></trkpt><trkpt lat="43.7118994" lon="12.7392619"><ele>588.6666666666666</ele><time>2026-04-11T08:53:13.444Z</time></trkpt><trkpt lat="43.7117794" lon="12.739052"><ele>590.3333333333334</ele><time>2026-04-11T08:53:14.445Z</time></trkpt><trkpt lat="43.7116524" lon="12.738823"><ele>592.0</ele><time>2026-04-11T08:53:15.444Z</time></trkpt><trkpt lat="43.7115379" lon="12.7386164"><ele>587.0</ele><time>2026-04-11T08:53:16.444Z</time></trkpt><trkpt lat="43.7114322" lon="12.7384117"><ele>582.0</ele><time>2026-04-11T08:53:17.445Z</time></trkpt><trkpt lat="43.7113469" lon="12.7382252"><ele>577.0</ele><time>2026-04-11T08:53:18.444Z</time></trkpt><trkpt lat="43.7112826" lon="12.7380373"><ele>577.0</ele><time>2026-04-11T08:53:19.444Z</time></trkpt><trkpt lat="43.7112413" lon="12.7378267"><ele>577.0</ele><time>2026-04-11T08:53:20.444Z</time></trkpt><trkpt lat="43.7112135" lon="12.7375901"><ele>577.0</ele><time>2026-04-11T08:53:21.445Z</time></trkpt><trkpt lat="43.7111858" lon="12.7373584"><ele>573.6666666666667</ele><time>2026-04-11T08:53:22.444Z</time></trkpt><trkpt lat="43.7111778" lon="12.7371344"><ele>570.3333333333334</ele><time>2026-04-11T08:53:23.444Z</time></trkpt><trkpt lat="43.7111953" lon="12.7369216"><ele>567.0</ele><time>2026-04-11T08:53:24.445Z</time></trkpt><trkpt lat="43.7112383" lon="12.7367105"><ele>567.0</ele><time>2026-04-11T08:53:25.444Z</time></trkpt><trkpt lat="43.7113016" lon="12.7364997"><ele>567.0</ele><time>2026-04-11T08:53:26.445Z</time></trkpt><trkpt lat="43.7113809" lon="12.7363091"><ele>567.0</ele><time>2026-04-11T08:53:27.444Z</time></trkpt><trkpt lat="43.7114776" lon="12.7361572"><ele>569.25</ele><time>2026-04-11T08:53:28.444Z</time></trkpt><trkpt lat="43.7115889" lon="12.7360507"><ele>571.5</ele><time>2026-04-11T08:53:29.444Z</time></trkpt><trkpt lat="43.7117115" lon="12.7360073"><ele>573.75</ele><time>2026-04-11T08:53:30.444Z</time></trkpt><trkpt lat="43.7118568" lon="12.7360119"><ele>576.0</ele><time>2026-04-11T08:53:31.445Z</time></trkpt><trkpt lat="43.7120178" lon="12.7360516"><ele>572.3333333333334</ele><time>2026-04-11T08:53:32.444Z</time></trkpt><trkpt lat="43.7121952" lon="12.7360927"><ele>568.6666666666667</ele><time>2026-04-11T08:53:33.444Z</time></trkpt><trkpt lat="43.7123859" lon="12.7361348"><ele>565.0</ele><time>2026-04-11T08:53:34.444Z</time></trkpt><trkpt lat="43.7125633" lon="12.7361669"><ele>565.3333333333334</ele><time>2026-04-11T08:53:35.445Z</time></trkpt><trkpt lat="43.7127555" lon="12.7361782"><ele>565.6666666666666</ele><time>2026-04-11T08:53:36.444Z</time></trkpt><trkpt lat="43.7129769" lon="12.7361843"><ele>566.0</ele><time>2026-04-11T08:53:37.446Z</time></trkpt><trkpt lat="43.7131949" lon="12.7362005"><ele>566.0</ele><time>2026-04-11T08:53:38.446Z</time></trkpt><trkpt lat="43.7133953" lon="12.7362245"><ele>566.0</ele><time>2026-04-11T08:53:39.445Z</time></trkpt><trkpt lat="43.7135812" lon="12.7362631"><ele>566.0</ele><time>2026-04-11T08:53:40.444Z</time></trkpt><trkpt lat="43.7137435" lon="12.7363096"><ele>567.3333333333333</ele><time>2026-04-11T08:53:41.444Z</time></trkpt><trkpt lat="43.7138973" lon="12.7363598"><ele>568.6666666666666</ele><time>2026-04-11T08:53:42.444Z</time></trkpt><trkpt lat="43.7140465" lon="12.736415"><ele>570.0</ele><time>2026-04-11T08:53:43.445Z</time></trkpt><trkpt lat="43.714201" lon="12.7364668"><ele>570.0</ele><time>2026-04-11T08:53:44.445Z</time></trkpt><trkpt lat="43.714364" lon="12.7364939"><ele>570.0</ele><time>2026-04-11T08:53:45.444Z</time></trkpt><trkpt lat="43.7145233" lon="12.7364948"><ele>570.0</ele><time>2026-04-11T08:53:46.445Z</time></trkpt><trkpt lat="43.7146727" lon="12.7364798"><ele>569.25</ele><time>2026-04-11T08:53:47.445Z</time></trkpt><trkpt lat="43.7147945" lon="12.7364337"><ele>568.5</ele><time>2026-04-11T08:53:48.444Z</time></trkpt><trkpt lat="43.7148867" lon="12.7363578"><ele>567.75</ele><time>2026-04-11T08:53:49.444Z</time></trkpt><trkpt lat="43.7149545" lon="12.7362437"><ele>567.0</ele><time>2026-04-11T08:53:50.444Z</time></trkpt><trkpt lat="43.7149833" lon="12.736097"><ele>569.25</ele><time>2026-04-11T08:53:51.444Z</time></trkpt><trkpt lat="43.7149818" lon="12.7359261"><ele>571.5</ele><time>2026-04-11T08:53:52.444Z</time></trkpt><trkpt lat="43.7149243" lon="12.7357368"><ele>573.75</ele><time>2026-04-11T08:53:53.444Z</time></trkpt><trkpt lat="43.7148422" lon="12.7355311"><ele>576.0</ele><time>2026-04-11T08:53:54.444Z</time></trkpt><trkpt lat="43.7147414" lon="12.7352975"><ele>573.3333333333334</ele><time>2026-04-11T08:53:55.444Z</time></trkpt><trkpt lat="43.7146529" lon="12.7350809"><ele>570.6666666666667</ele><time>2026-04-11T08:53:56.444Z</time></trkpt><trkpt lat="43.7145627" lon="12.7348744"><ele>568.0</ele><time>2026-04-11T08:53:57.444Z</time></trkpt><trkpt lat="43.7144775" lon="12.7346837"><ele>571.6666666666667</ele><time>2026-04-11T08:53:58.444Z</time></trkpt><trkpt lat="43.7143909" lon="12.7344924"><ele>575.3333333333334</ele><time>2026-04-11T08:53:59.445Z</time></trkpt><trkpt lat="43.7142922" lon="12.7342759"><ele>579.0</ele><time>2026-04-11T08:54:00.444Z</time></trkpt><trkpt lat="43.7141985" lon="12.7340636"><ele>579.0</ele><time>2026-04-11T08:54:01.445Z</time></trkpt><trkpt lat="43.7141125" lon="12.7338559"><ele>579.0</ele><time>2026-04-11T08:54:02.444Z</time></trkpt><trkpt lat="43.7140423" lon="12.733647"><ele>579.0</ele><time>2026-04-11T08:54:03.445Z</time></trkpt><trkpt lat="43.7139842" lon="12.7334217"><ele>575.6666666666666</ele><time>2026-04-11T08:54:04.444Z</time></trkpt><trkpt lat="43.7139332" lon="12.7331929"><ele>572.3333333333333</ele><time>2026-04-11T08:54:05.445Z</time></trkpt><trkpt lat="43.7138841" lon="12.7329836"><ele>569.0</ele><time>2026-04-11T08:54:06.444Z</time></trkpt><trkpt lat="43.713841" lon="12.7327934"><ele>568.5</ele><time>2026-04-11T08:54:07.445Z</time></trkpt><trkpt lat="43.7137993" lon="12.7326219"><ele>568.0</ele><time>2026-04-11T08:54:08.445Z</time></trkpt><trkpt lat="43.7137545" lon="12.7324567"><ele>567.5</ele><time>2026-04-11T08:54:09.445Z</time></trkpt><trkpt lat="43.7137107" lon="12.7322719"><ele>567.0</ele><time>2026-04-11T08:54:10.445Z</time></trkpt><trkpt lat="43.7136954" lon="12.7320777"><ele>567.0</ele><time>2026-04-11T08:54:11.444Z</time></trkpt><trkpt lat="43.7137032" lon="12.7318562"><ele>567.0</ele><time>2026-04-11T08:54:12.444Z</time></trkpt><trkpt lat="43.7137186" lon="12.7316087"><ele>567.0</ele><time>2026-04-11T08:54:13.444Z</time></trkpt><trkpt lat="43.7137306" lon="12.731339"><ele>567.0</ele><time>2026-04-11T08:54:14.444Z</time></trkpt><trkpt lat="43.7137458" lon="12.7310917"><ele>567.0</ele><time>2026-04-11T08:54:15.444Z</time></trkpt><trkpt lat="43.7137715" lon="12.7308559"><ele>567.0</ele><time>2026-04-11T08:54:16.445Z</time></trkpt><trkpt lat="43.7138259" lon="12.7306252"><ele>567.0</ele><time>2026-04-11T08:54:17.444Z</time></trkpt><trkpt lat="43.713918" lon="12.7304011"><ele>567.0</ele><time>2026-04-11T08:54:18.445Z</time></trkpt><trkpt lat="43.7140356" lon="12.7301961"><ele>567.0</ele><time>2026-04-11T08:54:19.445Z</time></trkpt><trkpt lat="43.7141416" lon="12.7300085"><ele>567.0</ele><time>2026-04-11T08:54:20.444Z</time></trkpt><trkpt lat="43.7142397" lon="12.7298348"><ele>567.0</ele><time>2026-04-11T08:54:21.444Z</time></trkpt><trkpt lat="43.7143512" lon="12.7296947"><ele>567.0</ele><time>2026-04-11T08:54:22.444Z</time></trkpt><trkpt lat="43.7144853" lon="12.7295997"><ele>564.3333333333334</ele><time>2026-04-11T08:54:23.444Z</time></trkpt><trkpt lat="43.7146465" lon="12.729558"><ele>561.6666666666667</ele><time>2026-04-11T08:54:24.445Z</time></trkpt><trkpt lat="43.7148263" lon="12.7295509"><ele>559.0</ele><time>2026-04-11T08:54:25.444Z</time></trkpt><trkpt lat="43.7149978" lon="12.7295482"><ele>559.0</ele><time>2026-04-11T08:54:26.444Z</time></trkpt><trkpt lat="43.7151527" lon="12.7295356"><ele>559.0</ele><time>2026-04-11T08:54:27.444Z</time></trkpt><trkpt lat="43.7152854" lon="12.7294997"><ele>559.0</ele><time>2026-04-11T08:54:28.445Z</time></trkpt><trkpt lat="43.7153908" lon="12.7294137"><ele>559.0</ele><time>2026-04-11T08:54:29.444Z</time></trkpt><trkpt lat="43.7154836" lon="12.7292777"><ele>562.3333333333334</ele><time>2026-04-11T08:54:30.444Z</time></trkpt><trkpt lat="43.7155608" lon="12.7291011"><ele>565.6666666666666</ele><time>2026-04-11T08:54:31.444Z</time></trkpt><trkpt lat="43.7156099" lon="12.7288879"><ele>569.0</ele><time>2026-04-11T08:54:32.444Z</time></trkpt><trkpt lat="43.7156489" lon="12.7286884"><ele>570.25</ele><time>2026-04-11T08:54:33.444Z</time></trkpt><trkpt lat="43.71573" lon="12.7285226"><ele>571.5</ele><time>2026-04-11T08:54:34.444Z</time></trkpt><trkpt lat="43.7158375" lon="12.7284005"><ele>572.75</ele><time>2026-04-11T08:54:35.444Z</time></trkpt><trkpt lat="43.7159451" lon="12.7283011"><ele>574.0</ele><time>2026-04-11T08:54:36.444Z</time></trkpt><trkpt lat="43.7160382" lon="12.728154"><ele>574.25</ele><time>2026-04-11T08:54:37.445Z</time></trkpt><trkpt lat="43.7161055" lon="12.7279732"><ele>574.5</ele><time>2026-04-11T08:54:38.446Z</time></trkpt><trkpt lat="43.7161247" lon="12.7277767"><ele>574.75</ele><time>2026-04-11T08:54:39.444Z</time></trkpt><trkpt lat="43.7161022" lon="12.7275736"><ele>575.0</ele><time>2026-04-11T08:54:40.446Z</time></trkpt><trkpt lat="43.7160383" lon="12.7273828"><ele>575.0</ele><time>2026-04-11T08:54:41.444Z</time></trkpt><trkpt lat="43.7159307" lon="12.727194"><ele>575.0</ele><time>2026-04-11T08:54:42.444Z</time></trkpt><trkpt lat="43.7157835" lon="12.7270113"><ele>575.0</ele><time>2026-04-11T08:54:43.444Z</time></trkpt><trkpt lat="43.7156156" lon="12.7268257"><ele>575.6666666666666</ele><time>2026-04-11T08:54:44.445Z</time></trkpt><trkpt lat="43.7154644" lon="12.7266497"><ele>576.3333333333334</ele><time>2026-04-11T08:54:45.444Z</time></trkpt><trkpt lat="43.7153305" lon="12.7264708"><ele>577.0</ele><time>2026-04-11T08:54:46.444Z</time></trkpt><trkpt lat="43.715219" lon="12.7262964"><ele>577.0</ele><time>2026-04-11T08:54:47.444Z</time></trkpt><trkpt lat="43.7151287" lon="12.7261047"><ele>577.0</ele><time>2026-04-11T08:54:48.445Z</time></trkpt><trkpt lat="43.7150583" lon="12.7258678"><ele>577.0</ele><time>2026-04-11T08:54:49.445Z</time></trkpt><trkpt lat="43.7150055" lon="12.7256017"><ele>575.6666666666667</ele><time>2026-04-11T08:54:50.444Z</time></trkpt><trkpt lat="43.714954" lon="12.7253205"><ele>574.3333333333334</ele><time>2026-04-11T08:54:51.444Z</time></trkpt><trkpt lat="43.7148894" lon="12.7250107"><ele>573.0</ele><time>2026-04-11T08:54:52.444Z</time></trkpt><trkpt lat="43.7148144" lon="12.7246902"><ele>573.0</ele><time>2026-04-11T08:54:53.444Z</time></trkpt><trkpt lat="43.7147386" lon="12.7244028"><ele>573.0</ele><time>2026-04-11T08:54:54.444Z</time></trkpt><trkpt lat="43.7146588" lon="12.7241349"><ele>573.0</ele><time>2026-04-11T08:54:55.444Z</time></trkpt><trkpt lat="43.7145927" lon="12.7238946"><ele>574.6666666666666</ele><time>2026-04-11T08:54:56.444Z</time></trkpt><trkpt lat="43.7145447" lon="12.7236836"><ele>576.3333333333333</ele><time>2026-04-11T08:54:57.445Z</time></trkpt><trkpt lat="43.7145286" lon="12.723474"><ele>578.0</ele><time>2026-04-11T08:54:58.444Z</time></trkpt><trkpt lat="43.7145543" lon="12.72324"><ele>578.0</ele><time>2026-04-11T08:54:59.444Z</time></trkpt><trkpt lat="43.7146045" lon="12.7229857"><ele>578.0</ele><time>2026-04-11T08:55:00.445Z</time></trkpt><trkpt lat="43.7146445" lon="12.7227055"><ele>578.0</ele><time>2026-04-11T08:55:01.445Z</time></trkpt><trkpt lat="43.714687" lon="12.7224507"><ele>577.5</ele><time>2026-04-11T08:55:02.444Z</time></trkpt><trkpt lat="43.7147429" lon="12.7222332"><ele>577.0</ele><time>2026-04-11T08:55:03.445Z</time></trkpt><trkpt lat="43.7148086" lon="12.7220606"><ele>576.5</ele><time>2026-04-11T08:55:04.444Z</time></trkpt><trkpt lat="43.7148948" lon="12.721963"><ele>576.0</ele><time>2026-04-11T08:55:05.444Z</time></trkpt><trkpt lat="43.7150204" lon="12.7218912"><ele>574.6666666666666</ele><time>2026-04-11T08:55:06.444Z</time></trkpt><trkpt lat="43.7151655" lon="12.7218353"><ele>573.3333333333333</ele><time>2026-04-11T08:55:07.444Z</time></trkpt><trkpt lat="43.7152894" lon="12.7217298"><ele>572.0</ele><time>2026-04-11T08:55:08.445Z</time></trkpt><trkpt lat="43.7154022" lon="12.7215723"><ele>572.0</ele><time>2026-04-11T08:55:09.445Z</time></trkpt><trkpt lat="43.7154836" lon="12.7213788"><ele>572.0</ele><time>2026-04-11T08:55:10.444Z</time></trkpt><trkpt lat="43.7155322" lon="12.7211441"><ele>572.0</ele><time>2026-04-11T08:55:11.445Z</time></trkpt><trkpt lat="43.7155712" lon="12.7208639"><ele>570.0</ele><time>2026-04-11T08:55:12.444Z</time></trkpt><trkpt lat="43.7156152" lon="12.7205627"><ele>568.0</ele><time>2026-04-11T08:55:13.444Z</time></trkpt><trkpt lat="43.7156644" lon="12.720239"><ele>565.0</ele><time>2026-04-11T08:55:14.444Z</time></trkpt><trkpt lat="43.7157183" lon="12.7198891"><ele>562.0</ele><time>2026-04-11T08:55:15.444Z</time></trkpt><trkpt lat="43.7157688" lon="12.7195265"><ele>561.5</ele><time>2026-04-11T08:55:16.444Z</time></trkpt><trkpt lat="43.7158175" lon="12.7191465"><ele>561.0</ele><time>2026-04-11T08:55:17.444Z</time></trkpt><trkpt lat="43.7158662" lon="12.7187972"><ele>561.5</ele><time>2026-04-11T08:55:18.444Z</time></trkpt><trkpt lat="43.7159144" lon="12.7184646"><ele>562.0</ele><time>2026-04-11T08:55:19.444Z</time></trkpt><trkpt lat="43.7159615" lon="12.718151"><ele>562.0</ele><time>2026-04-11T08:55:20.445Z</time></trkpt><trkpt lat="43.716008" lon="12.7178545"><ele>562.0</ele><time>2026-04-11T08:55:21.445Z</time></trkpt><trkpt lat="43.7160473" lon="12.7175658"><ele>562.0</ele><time>2026-04-11T08:55:22.445Z</time></trkpt><trkpt lat="43.7160862" lon="12.7172762"><ele>560.3333333333334</ele><time>2026-04-11T08:55:23.444Z</time></trkpt><trkpt lat="43.7161243" lon="12.7170254"><ele>558.6666666666666</ele><time>2026-04-11T08:55:24.444Z</time></trkpt><trkpt lat="43.716179" lon="12.7168004"><ele>557.0</ele><time>2026-04-11T08:55:25.444Z</time></trkpt><trkpt lat="43.7162649" lon="12.7166105"><ele>557.0</ele><time>2026-04-11T08:55:26.444Z</time></trkpt><trkpt lat="43.7163804" lon="12.7164852"><ele>557.0</ele><time>2026-04-11T08:55:27.445Z</time></trkpt><trkpt lat="43.7165182" lon="12.7164258"><ele>557.0</ele><time>2026-04-11T08:55:28.444Z</time></trkpt><trkpt lat="43.7166791" lon="12.7164092"><ele>557.0</ele><time>2026-04-11T08:55:29.444Z</time></trkpt><trkpt lat="43.7168574" lon="12.716432"><ele>557.0</ele><time>2026-04-11T08:55:30.444Z</time></trkpt><trkpt lat="43.7170546" lon="12.7164768"><ele>557.0</ele><time>2026-04-11T08:55:31.445Z</time></trkpt><trkpt lat="43.7172449" lon="12.7165117"><ele>554.6666666666666</ele><time>2026-04-11T08:55:32.445Z</time></trkpt><trkpt lat="43.7174196" lon="12.7165381"><ele>552.3333333333334</ele><time>2026-04-11T08:55:33.444Z</time></trkpt><trkpt lat="43.7175725" lon="12.7165489"><ele>550.0</ele><time>2026-04-11T08:55:34.445Z</time></trkpt><trkpt lat="43.7177065" lon="12.7165312"><ele>548.2</ele><time>2026-04-11T08:55:35.445Z</time></trkpt><trkpt lat="43.7178156" lon="12.7164602"><ele>546.4</ele><time>2026-04-11T08:55:36.444Z</time></trkpt><trkpt lat="43.7178822" lon="12.7163541"><ele>544.6</ele><time>2026-04-11T08:55:37.444Z</time></trkpt><trkpt lat="43.717909" lon="12.7162201"><ele>542.8</ele><time>2026-04-11T08:55:38.444Z</time></trkpt><trkpt lat="43.717912" lon="12.716045"><ele>541.0</ele><time>2026-04-11T08:55:39.444Z</time></trkpt><trkpt lat="43.7179146" lon="12.7158416"><ele>541.0</ele><time>2026-04-11T08:55:40.444Z</time></trkpt><trkpt lat="43.7179571" lon="12.7156462"><ele>541.0</ele><time>2026-04-11T08:55:41.445Z</time></trkpt><trkpt lat="43.718043" lon="12.7154871"><ele>541.0</ele><time>2026-04-11T08:55:42.444Z</time></trkpt><trkpt lat="43.7181773" lon="12.7153522"><ele>541.0</ele><time>2026-04-11T08:55:43.444Z</time></trkpt><trkpt lat="43.7183244" lon="12.7152601"><ele>541.0</ele><time>2026-04-11T08:55:44.445Z</time></trkpt><trkpt lat="43.7184734" lon="12.71521"><ele>541.0</ele><time>2026-04-11T08:55:45.444Z</time></trkpt><trkpt lat="43.718614" lon="12.7152107"><ele>539.0</ele><time>2026-04-11T08:55:46.445Z</time></trkpt><trkpt lat="43.7187399" lon="12.7152026"><ele>537.0</ele><time>2026-04-11T08:55:47.445Z</time></trkpt><trkpt lat="43.7188519" lon="12.7151404"><ele>535.0</ele><time>2026-04-11T08:55:48.445Z</time></trkpt><trkpt lat="43.7189376" lon="12.7150217"><ele>533.0</ele><time>2026-04-11T08:55:49.444Z</time></trkpt><trkpt lat="43.7190016" lon="12.7148469"><ele>533.0</ele><time>2026-04-11T08:55:50.445Z</time></trkpt><trkpt lat="43.7190445" lon="12.7146241"><ele>533.0</ele><time>2026-04-11T08:55:51.445Z</time></trkpt><trkpt lat="43.7190606" lon="12.7143594"><ele>533.0</ele><time>2026-04-11T08:55:52.445Z</time></trkpt><trkpt lat="43.7190498" lon="12.7140557"><ele>532.0</ele><time>2026-04-11T08:55:53.445Z</time></trkpt><trkpt lat="43.7190224" lon="12.7137257"><ele>531.0</ele><time>2026-04-11T08:55:54.445Z</time></trkpt><trkpt lat="43.7189967" lon="12.7134241"><ele>529.0</ele><time>2026-04-11T08:55:55.444Z</time></trkpt><trkpt lat="43.7189734" lon="12.7131329"><ele>527.0</ele><time>2026-04-11T08:55:56.445Z</time></trkpt><trkpt lat="43.7189477" lon="12.7128577"><ele>525.0</ele><time>2026-04-11T08:55:57.444Z</time></trkpt><trkpt lat="43.7189195" lon="12.7125959"><ele>524.3333333333334</ele><time>2026-04-11T08:55:58.444Z</time></trkpt><trkpt lat="43.7188928" lon="12.7123476"><ele>523.6666666666667</ele><time>2026-04-11T08:55:59.445Z</time></trkpt><trkpt lat="43.7188708" lon="12.7121088"><ele>523.0</ele><time>2026-04-11T08:56:00.444Z</time></trkpt><trkpt lat="43.7188488" lon="12.7118808"><ele>521.0</ele><time>2026-04-11T08:56:01.445Z</time></trkpt><trkpt lat="43.7188207" lon="12.711661"><ele>519.0</ele><time>2026-04-11T08:56:02.444Z</time></trkpt><trkpt lat="43.7187941" lon="12.7114475"><ele>517.0</ele><time>2026-04-11T08:56:03.445Z</time></trkpt><trkpt lat="43.7187717" lon="12.7112529"><ele>516.25</ele><time>2026-04-11T08:56:04.445Z</time></trkpt><trkpt lat="43.7187586" lon="12.711067"><ele>515.5</ele><time>2026-04-11T08:56:05.444Z</time></trkpt><trkpt lat="43.7187668" lon="12.7108834"><ele>514.75</ele><time>2026-04-11T08:56:06.444Z</time></trkpt><trkpt lat="43.7188068" lon="12.7107048"><ele>514.0</ele><time>2026-04-11T08:56:07.444Z</time></trkpt><trkpt lat="43.7188864" lon="12.7105373"><ele>514.0</ele><time>2026-04-11T08:56:08.444Z</time></trkpt><trkpt lat="43.7190163" lon="12.7103952"><ele>514.0</ele><time>2026-04-11T08:56:09.444Z</time></trkpt><trkpt lat="43.7191738" lon="12.7102685"><ele>514.0</ele><time>2026-04-11T08:56:10.446Z</time></trkpt><trkpt lat="43.7193437" lon="12.7101343"><ele>512.6666666666667</ele><time>2026-04-11T08:56:11.444Z</time></trkpt><trkpt lat="43.7195036" lon="12.7100088"><ele>511.33333333333337</ele><time>2026-04-11T08:56:12.444Z</time></trkpt><trkpt lat="43.7196571" lon="12.7098863"><ele>510.0</ele><time>2026-04-11T08:56:13.445Z</time></trkpt><trkpt lat="43.7198038" lon="12.7097724"><ele>510.0</ele><time>2026-04-11T08:56:14.444Z</time></trkpt><trkpt lat="43.7199426" lon="12.7096658"><ele>510.0</ele><time>2026-04-11T08:56:15.445Z</time></trkpt><trkpt lat="43.720073" lon="12.7095658"><ele>510.0</ele><time>2026-04-11T08:56:16.445Z</time></trkpt><trkpt lat="43.7201862" lon="12.7094838"><ele>510.0</ele><time>2026-04-11T08:56:17.444Z</time></trkpt><trkpt lat="43.7202744" lon="12.7094213"><ele>510.6</ele><time>2026-04-11T08:56:18.444Z</time></trkpt><trkpt lat="43.7203263" lon="12.7093627"><ele>511.2</ele><time>2026-04-11T08:56:19.444Z</time></trkpt><trkpt lat="43.720347" lon="12.7092341"><ele>511.79999999999995</ele><time>2026-04-11T08:56:21.445Z</time></trkpt><trkpt lat="43.720272" lon="12.7091157"><ele>512.4</ele><time>2026-04-11T08:56:23.444Z</time></trkpt><trkpt lat="43.720216" lon="12.7090372"><ele>513.0</ele><time>2026-04-11T08:56:24.444Z</time></trkpt><trkpt lat="43.7201499" lon="12.7089396"><ele>513.0</ele><time>2026-04-11T08:56:25.444Z</time></trkpt><trkpt lat="43.7200757" lon="12.7088241"><ele>513.0</ele><time>2026-04-11T08:56:26.444Z</time></trkpt><trkpt lat="43.7199806" lon="12.7086839"><ele>513.0</ele><time>2026-04-11T08:56:27.444Z</time></trkpt><trkpt lat="43.7198653" lon="12.7085112"><ele>513.0</ele><time>2026-04-11T08:56:28.444Z</time></trkpt><trkpt lat="43.7197335" lon="12.7083131"><ele>514.0</ele><time>2026-04-11T08:56:29.444Z</time></trkpt><trkpt lat="43.7195771" lon="12.7080966"><ele>515.0</ele><time>2026-04-11T08:56:30.444Z</time></trkpt><trkpt lat="43.7194018" lon="12.707865"><ele>514.5</ele><time>2026-04-11T08:56:31.445Z</time></trkpt><trkpt lat="43.7192152" lon="12.7076304"><ele>514.0</ele><time>2026-04-11T08:56:32.445Z</time></trkpt><trkpt lat="43.7190108" lon="12.7073793"><ele>514.0</ele><time>2026-04-11T08:56:33.445Z</time></trkpt><trkpt lat="43.718805" lon="12.7071295"><ele>514.0</ele><time>2026-04-11T08:56:34.444Z</time></trkpt><trkpt lat="43.7186198" lon="12.7069008"><ele>516.0</ele><time>2026-04-11T08:56:35.444Z</time></trkpt><trkpt lat="43.7184375" lon="12.7066992"><ele>518.0</ele><time>2026-04-11T08:56:36.444Z</time></trkpt><trkpt lat="43.7182481" lon="12.7065331"><ele>518.0</ele><time>2026-04-11T08:56:37.444Z</time></trkpt><trkpt lat="43.7180676" lon="12.7063813"><ele>518.0</ele><time>2026-04-11T08:56:38.444Z</time></trkpt><trkpt lat="43.7179029" lon="12.7062388"><ele>518.0</ele><time>2026-04-11T08:56:39.446Z</time></trkpt><trkpt lat="43.7177462" lon="12.7061134"><ele>520.6666666666666</ele><time>2026-04-11T08:56:40.444Z</time></trkpt><trkpt lat="43.7175756" lon="12.706025"><ele>523.3333333333334</ele><time>2026-04-11T08:56:41.445Z</time></trkpt><trkpt lat="43.7173987" lon="12.7059631"><ele>526.0</ele><time>2026-04-11T08:56:42.444Z</time></trkpt><trkpt lat="43.7172401" lon="12.7059053"><ele>526.0</ele><time>2026-04-11T08:56:43.444Z</time></trkpt><trkpt lat="43.7170931" lon="12.705841"><ele>526.0</ele><time>2026-04-11T08:56:44.445Z</time></trkpt><trkpt lat="43.716966" lon="12.7057744"><ele>526.0</ele><time>2026-04-11T08:56:45.444Z</time></trkpt><trkpt lat="43.7168576" lon="12.7056774"><ele>526.0</ele><time>2026-04-11T08:56:46.444Z</time></trkpt><trkpt lat="43.7167704" lon="12.7055313"><ele>522.3333333333334</ele><time>2026-04-11T08:56:47.445Z</time></trkpt><trkpt lat="43.7166879" lon="12.7053457"><ele>518.6666666666666</ele><time>2026-04-11T08:56:48.444Z</time></trkpt><trkpt lat="43.7165901" lon="12.7051647"><ele>515.0</ele><time>2026-04-11T08:56:49.444Z</time></trkpt><trkpt lat="43.7164776" lon="12.7050144"><ele>515.0</ele><time>2026-04-11T08:56:50.444Z</time></trkpt><trkpt lat="43.7163495" lon="12.7049062"><ele>515.0</ele><time>2026-04-11T08:56:51.444Z</time></trkpt><trkpt lat="43.7162148" lon="12.7048277"><ele>515.0</ele><time>2026-04-11T08:56:52.445Z</time></trkpt><trkpt lat="43.716069" lon="12.7048019"><ele>515.0</ele><time>2026-04-11T08:56:53.445Z</time></trkpt><trkpt lat="43.7159099" lon="12.7048244"><ele>512.0</ele><time>2026-04-11T08:56:54.446Z</time></trkpt><trkpt lat="43.7157718" lon="12.7048736"><ele>509.0</ele><time>2026-04-11T08:56:55.444Z</time></trkpt><trkpt lat="43.7156526" lon="12.7048912"><ele>506.0</ele><time>2026-04-11T08:56:56.445Z</time></trkpt><trkpt lat="43.715547" lon="12.7048598"><ele>503.0</ele><time>2026-04-11T08:56:57.444Z</time></trkpt><trkpt lat="43.7154289" lon="12.704817"><ele>503.0</ele><time>2026-04-11T08:56:58.445Z</time></trkpt><trkpt lat="43.7153297" lon="12.7046519"><ele>503.0</ele><time>2026-04-11T08:56:59.444Z</time></trkpt><trkpt lat="43.7152217" lon="12.7044886"><ele>503.0</ele><time>2026-04-11T08:57:00.444Z</time></trkpt><trkpt lat="43.7151141" lon="12.7042852"><ele>499.0</ele><time>2026-04-11T08:57:01.445Z</time></trkpt><trkpt lat="43.7150124" lon="12.7040832"><ele>495.0</ele><time>2026-04-11T08:57:02.445Z</time></trkpt><trkpt lat="43.7149135" lon="12.7038855"><ele>491.0</ele><time>2026-04-11T08:57:03.445Z</time></trkpt><trkpt lat="43.7148268" lon="12.7036946"><ele>491.0</ele><time>2026-04-11T08:57:04.444Z</time></trkpt><trkpt lat="43.7147494" lon="12.7035136"><ele>491.0</ele><time>2026-04-11T08:57:05.445Z</time></trkpt><trkpt lat="43.7146784" lon="12.7033496"><ele>491.0</ele><time>2026-04-11T08:57:06.444Z</time></trkpt><trkpt lat="43.714619" lon="12.7032021"><ele>491.0</ele><time>2026-04-11T08:57:07.444Z</time></trkpt><trkpt lat="43.7145521" lon="12.7030704"><ele>491.0</ele><time>2026-04-11T08:57:08.444Z</time></trkpt><trkpt lat="43.7144485" lon="12.7029661"><ele>491.0</ele><time>2026-04-11T08:57:09.445Z</time></trkpt><trkpt lat="43.7143026" lon="12.7028852"><ele>491.0</ele><time>2026-04-11T08:57:10.445Z</time></trkpt><trkpt lat="43.7141406" lon="12.7028425"><ele>486.0</ele><time>2026-04-11T08:57:11.445Z</time></trkpt><trkpt lat="43.7139533" lon="12.7028409"><ele>481.0</ele><time>2026-04-11T08:57:12.444Z</time></trkpt><trkpt lat="43.7137703" lon="12.7028459"><ele>476.0</ele><time>2026-04-11T08:57:13.444Z</time></trkpt><trkpt lat="43.7136003" lon="12.702837"><ele>474.75</ele><time>2026-04-11T08:57:14.445Z</time></trkpt><trkpt lat="43.7134493" lon="12.7028073"><ele>473.5</ele><time>2026-04-11T08:57:15.444Z</time></trkpt><trkpt lat="43.7133252" lon="12.7027538"><ele>472.25</ele><time>2026-04-11T08:57:16.443Z</time></trkpt><trkpt lat="43.7132368" lon="12.7026823"><ele>471.0</ele><time>2026-04-11T08:57:17.443Z</time></trkpt><trkpt lat="43.7131853" lon="12.7025906"><ele>471.0</ele><time>2026-04-11T08:57:18.444Z</time></trkpt><trkpt lat="43.7131693" lon="12.7024632"><ele>471.0</ele><time>2026-04-11T08:57:19.444Z</time></trkpt><trkpt lat="43.7131814" lon="12.7022987"><ele>471.0</ele><time>2026-04-11T08:57:20.443Z</time></trkpt><trkpt lat="43.7132206" lon="12.7021306"><ele>471.0</ele><time>2026-04-11T08:57:21.443Z</time></trkpt><trkpt lat="43.7132758" lon="12.7020099"><ele>471.0</ele><time>2026-04-11T08:57:22.444Z</time></trkpt><trkpt lat="43.7133622" lon="12.7019419"><ele>468.20000000000005</ele><time>2026-04-11T08:57:23.443Z</time></trkpt><trkpt lat="43.7134838" lon="12.7019089"><ele>465.40000000000003</ele><time>2026-04-11T08:57:24.443Z</time></trkpt><trkpt lat="43.7135968" lon="12.7018904"><ele>462.6</ele><time>2026-04-11T08:57:25.443Z</time></trkpt><trkpt lat="43.7136828" lon="12.701841"><ele>459.8</ele><time>2026-04-11T08:57:26.444Z</time></trkpt><trkpt lat="43.7137335" lon="12.7017624"><ele>457.0</ele><time>2026-04-11T08:57:27.443Z</time></trkpt><trkpt lat="43.7137405" lon="12.7016672"><ele>457.0</ele><time>2026-04-11T08:57:28.443Z</time></trkpt><trkpt lat="43.7136985" lon="12.7015726"><ele>457.0</ele><time>2026-04-11T08:57:29.443Z</time></trkpt><trkpt lat="43.7136121" lon="12.7014798"><ele>457.0</ele><time>2026-04-11T08:57:30.443Z</time></trkpt><trkpt lat="43.7134829" lon="12.7013826"><ele>457.0</ele><time>2026-04-11T08:57:31.443Z</time></trkpt><trkpt lat="43.7133296" lon="12.7012685"><ele>457.0</ele><time>2026-04-11T08:57:32.443Z</time></trkpt><trkpt lat="43.7132021" lon="12.7011667"><ele>457.0</ele><time>2026-04-11T08:57:33.443Z</time></trkpt><trkpt lat="43.7130873" lon="12.7010881"><ele>457.0</ele><time>2026-04-11T08:57:34.444Z</time></trkpt><trkpt lat="43.7129776" lon="12.7010391"><ele>457.0</ele><time>2026-04-11T08:57:35.443Z</time></trkpt><trkpt lat="43.7128714" lon="12.7010382"><ele>457.0</ele><time>2026-04-11T08:57:36.443Z</time></trkpt><trkpt lat="43.712765" lon="12.7010962"><ele>457.0</ele><time>2026-04-11T08:57:37.443Z</time></trkpt><trkpt lat="43.7126467" lon="12.7012013"><ele>457.0</ele><time>2026-04-11T08:57:38.444Z</time></trkpt><trkpt lat="43.7125076" lon="12.7013218"><ele>457.0</ele><time>2026-04-11T08:57:39.444Z</time></trkpt><trkpt lat="43.7123386" lon="12.7014466"><ele>453.6666666666667</ele><time>2026-04-11T08:57:40.443Z</time></trkpt><trkpt lat="43.7121732" lon="12.7015633"><ele>450.33333333333337</ele><time>2026-04-11T08:57:41.443Z</time></trkpt><trkpt lat="43.7120088" lon="12.701672"><ele>447.0</ele><time>2026-04-11T08:57:42.444Z</time></trkpt><trkpt lat="43.7118518" lon="12.7017615"><ele>442.5</ele><time>2026-04-11T08:57:43.443Z</time></trkpt><trkpt lat="43.7117056" lon="12.7018389"><ele>438.0</ele><time>2026-04-11T08:57:44.443Z</time></trkpt><trkpt lat="43.7115764" lon="12.7019172"><ele>433.5</ele><time>2026-04-11T08:57:45.444Z</time></trkpt><trkpt lat="43.7114698" lon="12.7020201"><ele>429.0</ele><time>2026-04-11T08:57:46.444Z</time></trkpt><trkpt lat="43.7113921" lon="12.7021432"><ele>429.0</ele><time>2026-04-11T08:57:47.443Z</time></trkpt><trkpt lat="43.7113305" lon="12.7022571"><ele>429.0</ele><time>2026-04-11T08:57:48.443Z</time></trkpt><trkpt lat="43.7112651" lon="12.702338"><ele>429.0</ele><time>2026-04-11T08:57:49.444Z</time></trkpt><trkpt lat="43.711193" lon="12.7023814"><ele>429.0</ele><time>2026-04-11T08:57:50.443Z</time></trkpt><trkpt lat="43.7111145" lon="12.7023618"><ele>429.0</ele><time>2026-04-11T08:57:51.443Z</time></trkpt><trkpt lat="43.7110562" lon="12.7022857"><ele>429.0</ele><time>2026-04-11T08:57:52.444Z</time></trkpt><trkpt lat="43.7110417" lon="12.7021744"><ele>428.5</ele><time>2026-04-11T08:57:53.444Z</time></trkpt><trkpt lat="43.7110651" lon="12.7020445"><ele>428.0</ele><time>2026-04-11T08:57:54.443Z</time></trkpt><trkpt lat="43.711126" lon="12.7018938"><ele>427.5</ele><time>2026-04-11T08:57:55.443Z</time></trkpt><trkpt lat="43.7112001" lon="12.7017032"><ele>427.0</ele><time>2026-04-11T08:57:56.444Z</time></trkpt><trkpt lat="43.711279" lon="12.701496"><ele>427.0</ele><time>2026-04-11T08:57:57.443Z</time></trkpt><trkpt lat="43.7113585" lon="12.7013119"><ele>427.0</ele><time>2026-04-11T08:57:58.443Z</time></trkpt><trkpt lat="43.7114431" lon="12.7011384"><ele>427.0</ele><time>2026-04-11T08:57:59.444Z</time></trkpt><trkpt lat="43.7115164" lon="12.7009912"><ele>427.0</ele><time>2026-04-11T08:58:00.443Z</time></trkpt><trkpt lat="43.7115726" lon="12.70087"><ele>425.1666666666667</ele><time>2026-04-11T08:58:01.444Z</time></trkpt><trkpt lat="43.7116035" lon="12.7007528"><ele>423.33333333333337</ele><time>2026-04-11T08:58:02.444Z</time></trkpt><trkpt lat="43.7115928" lon="12.7006368"><ele>421.5</ele><time>2026-04-11T08:58:03.443Z</time></trkpt><trkpt lat="43.7115372" lon="12.7005525"><ele>419.66666666666663</ele><time>2026-04-11T08:58:04.444Z</time></trkpt><trkpt lat="43.7114518" lon="12.7005208"><ele>417.8333333333333</ele><time>2026-04-11T08:58:05.443Z</time></trkpt><trkpt lat="43.7113558" lon="12.7004857"><ele>416.0</ele><time>2026-04-11T08:58:06.444Z</time></trkpt><trkpt lat="43.7112438" lon="12.7005364"><ele>411.66666666666663</ele><time>2026-04-11T08:58:07.443Z</time></trkpt><trkpt lat="43.7110654" lon="12.7006801"><ele>407.33333333333337</ele><time>2026-04-11T08:58:08.443Z</time></trkpt><trkpt lat="43.7109127" lon="12.7007032"><ele>403.0</ele><time>2026-04-11T08:58:09.443Z</time></trkpt><trkpt lat="43.7107715" lon="12.7007188"><ele>403.0</ele><time>2026-04-11T08:58:10.443Z</time></trkpt><trkpt lat="43.7106445" lon="12.7007545"><ele>403.0</ele><time>2026-04-11T08:58:11.443Z</time></trkpt><trkpt lat="43.7105448" lon="12.7008336"><ele>403.0</ele><time>2026-04-11T08:58:12.444Z</time></trkpt><trkpt lat="43.7104731" lon="12.7009555"><ele>403.0</ele><time>2026-04-11T08:58:13.444Z</time></trkpt><trkpt lat="43.7104" lon="12.701115"><ele>404.79999999999995</ele><time>2026-04-11T08:58:14.443Z</time></trkpt><trkpt lat="43.7103905" lon="12.7013205"><ele>406.6</ele><time>2026-04-11T08:58:15.443Z</time></trkpt><trkpt lat="43.7103532" lon="12.7014527"><ele>408.4</ele><time>2026-04-11T08:58:16.444Z</time></trkpt><trkpt lat="43.7103121" lon="12.701589"><ele>410.20000000000005</ele><time>2026-04-11T08:58:17.443Z</time></trkpt><trkpt lat="43.7102426" lon="12.7016565"><ele>412.0</ele><time>2026-04-11T08:58:18.443Z</time></trkpt><trkpt lat="43.7101309" lon="12.7016401"><ele>407.8</ele><time>2026-04-11T08:58:19.444Z</time></trkpt><trkpt lat="43.7100565" lon="12.701587"><ele>403.6</ele><time>2026-04-11T08:58:20.443Z</time></trkpt><trkpt lat="43.7100009" lon="12.7015126"><ele>399.40000000000003</ele><time>2026-04-11T08:58:21.443Z</time></trkpt><trkpt lat="43.7099927" lon="12.701322"><ele>395.20000000000005</ele><time>2026-04-11T08:58:22.443Z</time></trkpt><trkpt lat="43.7099799" lon="12.7011373"><ele>391.0</ele><time>2026-04-11T08:58:23.443Z</time></trkpt><trkpt lat="43.7100099" lon="12.7009526"><ele>389.0</ele><time>2026-04-11T08:58:24.443Z</time></trkpt><trkpt lat="43.710068" lon="12.7007419"><ele>387.0</ele><time>2026-04-11T08:58:25.443Z</time></trkpt><trkpt lat="43.7101395" lon="12.7005228"><ele>385.0</ele><time>2026-04-11T08:58:26.443Z</time></trkpt><trkpt lat="43.7102329" lon="12.7003086"><ele>386.6666666666667</ele><time>2026-04-11T08:58:27.444Z</time></trkpt><trkpt lat="43.7103113" lon="12.7001006"><ele>388.33333333333337</ele><time>2026-04-11T08:58:28.443Z</time></trkpt><trkpt lat="43.7103864" lon="12.6999121"><ele>390.0</ele><time>2026-04-11T08:58:29.443Z</time></trkpt><trkpt lat="43.7104536" lon="12.6997587"><ele>390.0</ele><time>2026-04-11T08:58:30.443Z</time></trkpt><trkpt lat="43.7104974" lon="12.6996293"><ele>390.0</ele><time>2026-04-11T08:58:31.444Z</time></trkpt><trkpt lat="43.7105267" lon="12.6995141"><ele>390.0</ele><time>2026-04-11T08:58:32.443Z</time></trkpt><trkpt lat="43.7105196" lon="12.6993889"><ele>390.0</ele><time>2026-04-11T08:58:33.443Z</time></trkpt><trkpt lat="43.7104875" lon="12.6992819"><ele>390.0</ele><time>2026-04-11T08:58:34.444Z</time></trkpt><trkpt lat="43.7104167" lon="12.6992086"><ele>387.8</ele><time>2026-04-11T08:58:35.443Z</time></trkpt><trkpt lat="43.7103413" lon="12.6991904"><ele>385.6</ele><time>2026-04-11T08:58:36.443Z</time></trkpt><trkpt lat="43.710266" lon="12.6991996"><ele>383.4</ele><time>2026-04-11T08:58:37.444Z</time></trkpt><trkpt lat="43.7101823" lon="12.699308"><ele>381.2</ele><time>2026-04-11T08:58:38.444Z</time></trkpt><trkpt lat="43.7100899" lon="12.6993958"><ele>379.0</ele><time>2026-04-11T08:58:39.443Z</time></trkpt><trkpt lat="43.7099599" lon="12.6995739"><ele>377.66666666666663</ele><time>2026-04-11T08:58:40.443Z</time></trkpt><trkpt lat="43.709783" lon="12.699728"><ele>376.3333333333333</ele><time>2026-04-11T08:58:41.444Z</time></trkpt><trkpt lat="43.7096306" lon="12.6998707"><ele>375.0</ele><time>2026-04-11T08:58:42.443Z</time></trkpt><trkpt lat="43.7094904" lon="12.7000232"><ele>370.3333333333333</ele><time>2026-04-11T08:58:43.444Z</time></trkpt><trkpt lat="43.7093471" lon="12.7002146"><ele>365.66666666666663</ele><time>2026-04-11T08:58:44.445Z</time></trkpt><trkpt lat="43.7092167" lon="12.7004083"><ele>361.0</ele><time>2026-04-11T08:58:45.444Z</time></trkpt><trkpt lat="43.7090955" lon="12.700597"><ele>361.0</ele><time>2026-04-11T08:58:46.443Z</time></trkpt><trkpt lat="43.7089842" lon="12.7007856"><ele>361.0</ele><time>2026-04-11T08:58:47.443Z</time></trkpt><trkpt lat="43.7088834" lon="12.7009755"><ele>361.0</ele><time>2026-04-11T08:58:48.443Z</time></trkpt><trkpt lat="43.7087947" lon="12.7011602"><ele>362.3333333333333</ele><time>2026-04-11T08:58:49.443Z</time></trkpt><trkpt lat="43.7087149" lon="12.7013505"><ele>363.6666666666667</ele><time>2026-04-11T08:58:50.443Z</time></trkpt><trkpt lat="43.708655" lon="12.7015328"><ele>365.0</ele><time>2026-04-11T08:58:51.444Z</time></trkpt><trkpt lat="43.7086284" lon="12.7017375"><ele>363.6666666666667</ele><time>2026-04-11T08:58:52.443Z</time></trkpt><trkpt lat="43.7086167" lon="12.7019725"><ele>362.3333333333333</ele><time>2026-04-11T08:58:53.443Z</time></trkpt><trkpt lat="43.7085978" lon="12.7022168"><ele>361.0</ele><time>2026-04-11T08:58:54.443Z</time></trkpt><trkpt lat="43.7085668" lon="12.702442"><ele>351.0</ele><time>2026-04-11T08:58:55.443Z</time></trkpt><trkpt lat="43.7085347" lon="12.702662"><ele>341.0</ele><time>2026-04-11T08:58:56.444Z</time></trkpt><trkpt lat="43.7084944" lon="12.7028717"><ele>331.0</ele><time>2026-04-11T08:58:57.444Z</time></trkpt><trkpt lat="43.7084363" lon="12.7030654"><ele>331.0</ele><time>2026-04-11T08:58:58.443Z</time></trkpt><trkpt lat="43.7083668" lon="12.7032472"><ele>331.0</ele><time>2026-04-11T08:58:59.443Z</time></trkpt><trkpt lat="43.7082991" lon="12.7034243"><ele>331.0</ele><time>2026-04-11T08:59:00.443Z</time></trkpt><trkpt lat="43.7082288" lon="12.703595"><ele>331.0</ele><time>2026-04-11T08:59:01.443Z</time></trkpt><trkpt lat="43.7081621" lon="12.703764"><ele>330.25</ele><time>2026-04-11T08:59:02.444Z</time></trkpt><trkpt lat="43.7080945" lon="12.7039284"><ele>329.5</ele><time>2026-04-11T08:59:03.443Z</time></trkpt><trkpt lat="43.7080289" lon="12.704091"><ele>328.75</ele><time>2026-04-11T08:59:04.444Z</time></trkpt><trkpt lat="43.7079613" lon="12.7042465"><ele>328.0</ele><time>2026-04-11T08:59:05.443Z</time></trkpt><trkpt lat="43.7079004" lon="12.7044032"><ele>326.0</ele><time>2026-04-11T08:59:06.443Z</time></trkpt><trkpt lat="43.7078589" lon="12.7045674"><ele>324.0</ele><time>2026-04-11T08:59:07.444Z</time></trkpt><trkpt lat="43.7078349" lon="12.7047307"><ele>322.0</ele><time>2026-04-11T08:59:08.443Z</time></trkpt><trkpt lat="43.7078077" lon="12.7048718"><ele>320.0</ele><time>2026-04-11T08:59:09.443Z</time></trkpt><trkpt lat="43.7077584" lon="12.7049755"><ele>318.0</ele><time>2026-04-11T08:59:10.443Z</time></trkpt><trkpt lat="43.7076938" lon="12.7050262"><ele>315.8</ele><time>2026-04-11T08:59:11.443Z</time></trkpt><trkpt lat="43.7076196" lon="12.7050188"><ele>313.6</ele><time>2026-04-11T08:59:12.443Z</time></trkpt><trkpt lat="43.7075675" lon="12.7049509"><ele>311.4</ele><time>2026-04-11T08:59:13.443Z</time></trkpt><trkpt lat="43.7075434" lon="12.7048429"><ele>309.2</ele><time>2026-04-11T08:59:14.444Z</time></trkpt><trkpt lat="43.7075482" lon="12.704676"><ele>307.0</ele><time>2026-04-11T08:59:15.443Z</time></trkpt><trkpt lat="43.7075771" lon="12.7044973"><ele>306.8</ele><time>2026-04-11T08:59:16.444Z</time></trkpt><trkpt lat="43.7075891" lon="12.7043426"><ele>306.6</ele><time>2026-04-11T08:59:17.444Z</time></trkpt><trkpt lat="43.7075812" lon="12.7042051"><ele>306.40000000000003</ele><time>2026-04-11T08:59:18.444Z</time></trkpt><trkpt lat="43.7075428" lon="12.7040957"><ele>306.2</ele><time>2026-04-11T08:59:19.443Z</time></trkpt><trkpt lat="43.7074729" lon="12.7040311"><ele>306.0</ele><time>2026-04-11T08:59:20.443Z</time></trkpt><trkpt lat="43.707396" lon="12.7040261"><ele>306.0</ele><time>2026-04-11T08:59:21.443Z</time></trkpt><trkpt lat="43.7073237" lon="12.7040832"><ele>306.0</ele><time>2026-04-11T08:59:22.443Z</time></trkpt><trkpt lat="43.7072607" lon="12.7041962"><ele>306.0</ele><time>2026-04-11T08:59:23.444Z</time></trkpt><trkpt lat="43.707204" lon="12.7043662"><ele>306.0</ele><time>2026-04-11T08:59:24.443Z</time></trkpt><trkpt lat="43.7071284" lon="12.7045734"><ele>306.3333333333333</ele><time>2026-04-11T08:59:25.443Z</time></trkpt><trkpt lat="43.7070336" lon="12.704821"><ele>306.66666666666663</ele><time>2026-04-11T08:59:26.444Z</time></trkpt><trkpt lat="43.7069329" lon="12.7050546"><ele>307.0</ele><time>2026-04-11T08:59:27.443Z</time></trkpt><trkpt lat="43.7068202" lon="12.7052704"><ele>300.66666666666663</ele><time>2026-04-11T08:59:28.443Z</time></trkpt><trkpt lat="43.7066957" lon="12.7054799"><ele>294.3333333333333</ele><time>2026-04-11T08:59:29.443Z</time></trkpt><trkpt lat="43.7065704" lon="12.7056699"><ele>288.0</ele><time>2026-04-11T08:59:30.443Z</time></trkpt><trkpt lat="43.7064464" lon="12.7058522"><ele>288.0</ele><time>2026-04-11T08:59:31.443Z</time></trkpt><trkpt lat="43.7063194" lon="12.7060197"><ele>288.0</ele><time>2026-04-11T08:59:32.444Z</time></trkpt><trkpt lat="43.7061886" lon="12.7061749"><ele>288.0</ele><time>2026-04-11T08:59:33.444Z</time></trkpt><trkpt lat="43.7060467" lon="12.7063345"><ele>283.3333333333333</ele><time>2026-04-11T08:59:34.443Z</time></trkpt><trkpt lat="43.7058974" lon="12.7065043"><ele>278.66666666666663</ele><time>2026-04-11T08:59:35.444Z</time></trkpt><trkpt lat="43.7057557" lon="12.7066678"><ele>274.0</ele><time>2026-04-11T08:59:36.443Z</time></trkpt><trkpt lat="43.7056123" lon="12.7068178"><ele>276.3333333333333</ele><time>2026-04-11T08:59:37.443Z</time></trkpt><trkpt lat="43.7054708" lon="12.7069406"><ele>278.6666666666667</ele><time>2026-04-11T08:59:38.443Z</time></trkpt><trkpt lat="43.7053216" lon="12.7070295"><ele>281.0</ele><time>2026-04-11T08:59:39.444Z</time></trkpt><trkpt lat="43.7051478" lon="12.7071142"><ele>273.5</ele><time>2026-04-11T08:59:40.443Z</time></trkpt><trkpt lat="43.7049343" lon="12.707207"><ele>266.0</ele><time>2026-04-11T08:59:41.443Z</time></trkpt><trkpt lat="43.7047135" lon="12.7073238"><ele>266.0</ele><time>2026-04-11T08:59:42.443Z</time></trkpt><trkpt lat="43.7045044" lon="12.7074218"><ele>266.0</ele><time>2026-04-11T08:59:43.443Z</time></trkpt><trkpt lat="43.7043062" lon="12.7075006"><ele>266.0</ele><time>2026-04-11T08:59:44.443Z</time></trkpt><trkpt lat="43.7041435" lon="12.7075501"><ele>262.33333333333337</ele><time>2026-04-11T08:59:45.444Z</time></trkpt><trkpt lat="43.7039969" lon="12.7075534"><ele>258.6666666666667</ele><time>2026-04-11T08:59:46.443Z</time></trkpt><trkpt lat="43.7038358" lon="12.7075307"><ele>255.0</ele><time>2026-04-11T08:59:47.444Z</time></trkpt><trkpt lat="43.7036538" lon="12.7075278"><ele>252.0</ele><time>2026-04-11T08:59:48.443Z</time></trkpt><trkpt lat="43.7034626" lon="12.7075101"><ele>249.0</ele><time>2026-04-11T08:59:49.444Z</time></trkpt><trkpt lat="43.7032888" lon="12.7074863"><ele>246.0</ele><time>2026-04-11T08:59:50.444Z</time></trkpt><trkpt lat="43.7031254" lon="12.7074778"><ele>246.0</ele><time>2026-04-11T08:59:51.444Z</time></trkpt><trkpt lat="43.7029478" lon="12.7074933"><ele>246.0</ele><time>2026-04-11T08:59:52.444Z</time></trkpt><trkpt lat="43.7027568" lon="12.7075525"><ele>246.0</ele><time>2026-04-11T08:59:53.444Z</time></trkpt><trkpt lat="43.702593" lon="12.7076338"><ele>245.0</ele><time>2026-04-11T08:59:54.443Z</time></trkpt><trkpt lat="43.7024379" lon="12.7077053"><ele>244.0</ele><time>2026-04-11T08:59:55.443Z</time></trkpt><trkpt lat="43.7022843" lon="12.7077507"><ele>243.0</ele><time>2026-04-11T08:59:56.444Z</time></trkpt><trkpt lat="43.7021274" lon="12.70777"><ele>243.0</ele><time>2026-04-11T08:59:57.443Z</time></trkpt><trkpt lat="43.7019636" lon="12.7077861"><ele>243.0</ele><time>2026-04-11T08:59:58.443Z</time></trkpt><trkpt lat="43.7018164" lon="12.7077855"><ele>243.0</ele><time>2026-04-11T08:59:59.443Z</time></trkpt><trkpt lat="43.7016891" lon="12.7077633"><ele>243.0</ele><time>2026-04-11T09:00:00.443Z</time></trkpt><trkpt lat="43.7015745" lon="12.707683"><ele>241.25</ele><time>2026-04-11T09:00:01.443Z</time></trkpt><trkpt lat="43.7014624" lon="12.7075605"><ele>239.5</ele><time>2026-04-11T09:00:02.443Z</time></trkpt><trkpt lat="43.7013613" lon="12.7074154"><ele>237.75</ele><time>2026-04-11T09:00:03.443Z</time></trkpt><trkpt lat="43.701278" lon="12.7072816"><ele>236.0</ele><time>2026-04-11T09:00:04.443Z</time></trkpt><trkpt lat="43.7011413" lon="12.7071892"><ele>236.66666666666669</ele><time>2026-04-11T09:00:05.443Z</time></trkpt><trkpt lat="43.7009817" lon="12.7071043"><ele>237.33333333333331</ele><time>2026-04-11T09:00:06.443Z</time></trkpt><trkpt lat="43.7008091" lon="12.7069872"><ele>238.0</ele><time>2026-04-11T09:00:07.444Z</time></trkpt><trkpt lat="43.7006467" lon="12.7068476"><ele>238.0</ele><time>2026-04-11T09:00:08.443Z</time></trkpt><trkpt lat="43.7005151" lon="12.7067109"><ele>238.0</ele><time>2026-04-11T09:00:09.443Z</time></trkpt><trkpt lat="43.7003987" lon="12.7065368"><ele>238.0</ele><time>2026-04-11T09:00:10.443Z</time></trkpt><trkpt lat="43.7002909" lon="12.706318"><ele>232.66666666666666</ele><time>2026-04-11T09:00:11.443Z</time></trkpt><trkpt lat="43.7001797" lon="12.7060874"><ele>227.33333333333331</ele><time>2026-04-11T09:00:12.443Z</time></trkpt><trkpt lat="43.7000719" lon="12.7058793"><ele>222.0</ele><time>2026-04-11T09:00:13.443Z</time></trkpt><trkpt lat="43.6999737" lon="12.7056739"><ele>221.33333333333331</ele><time>2026-04-11T09:00:14.443Z</time></trkpt><trkpt lat="43.699879" lon="12.7054817"><ele>220.66666666666666</ele><time>2026-04-11T09:00:15.444Z</time></trkpt><trkpt lat="43.6997715" lon="12.7053127"><ele>220.0</ele><time>2026-04-11T09:00:16.443Z</time></trkpt><trkpt lat="43.6996527" lon="12.7051553"><ele>221.33333333333331</ele><time>2026-04-11T09:00:17.443Z</time></trkpt><trkpt lat="43.6995254" lon="12.7049971"><ele>222.66666666666669</ele><time>2026-04-11T09:00:18.443Z</time></trkpt><trkpt lat="43.6993949" lon="12.7048276"><ele>224.0</ele><time>2026-04-11T09:00:19.444Z</time></trkpt><trkpt lat="43.69926" lon="12.7046471"><ele>219.0</ele><time>2026-04-11T09:00:20.444Z</time></trkpt><trkpt lat="43.6991158" lon="12.7044594"><ele>214.0</ele><time>2026-04-11T09:00:21.443Z</time></trkpt><trkpt lat="43.6989694" lon="12.7042747"><ele>209.0</ele><time>2026-04-11T09:00:22.443Z</time></trkpt><trkpt lat="43.6988317" lon="12.7041003"><ele>208.66666666666669</ele><time>2026-04-11T09:00:23.444Z</time></trkpt><trkpt lat="43.6986977" lon="12.7039347"><ele>208.33333333333331</ele><time>2026-04-11T09:00:24.443Z</time></trkpt><trkpt lat="43.6985667" lon="12.7037819"><ele>208.0</ele><time>2026-04-11T09:00:25.444Z</time></trkpt><trkpt lat="43.6984359" lon="12.7036463"><ele>206.0</ele><time>2026-04-11T09:00:26.443Z</time></trkpt><trkpt lat="43.6983089" lon="12.7035218"><ele>204.0</ele><time>2026-04-11T09:00:27.444Z</time></trkpt><trkpt lat="43.6981842" lon="12.7034126"><ele>202.0</ele><time>2026-04-11T09:00:28.443Z</time></trkpt><trkpt lat="43.6980575" lon="12.7033331"><ele>200.0</ele><time>2026-04-11T09:00:29.443Z</time></trkpt><trkpt lat="43.6979285" lon="12.7033055"><ele>200.0</ele><time>2026-04-11T09:00:30.443Z</time></trkpt><trkpt lat="43.6977785" lon="12.7033157"><ele>200.0</ele><time>2026-04-11T09:00:31.443Z</time></trkpt><trkpt lat="43.6976317" lon="12.7033063"><ele>200.0</ele><time>2026-04-11T09:00:32.443Z</time></trkpt><trkpt lat="43.6974917" lon="12.7032472"><ele>200.0</ele><time>2026-04-11T09:00:33.443Z</time></trkpt><trkpt lat="43.6973807" lon="12.7031464"><ele>198.0</ele><time>2026-04-11T09:00:34.443Z</time></trkpt><trkpt lat="43.6972734" lon="12.7029983"><ele>196.0</ele><time>2026-04-11T09:00:35.443Z</time></trkpt><trkpt lat="43.6971563" lon="12.7028301"><ele>194.0</ele><time>2026-04-11T09:00:36.445Z</time></trkpt><trkpt lat="43.6970448" lon="12.702653"><ele>193.5</ele><time>2026-04-11T09:00:37.443Z</time></trkpt><trkpt lat="43.696948" lon="12.702484"><ele>193.0</ele><time>2026-04-11T09:00:38.443Z</time></trkpt><trkpt lat="43.6968649" lon="12.7023277"><ele>192.5</ele><time>2026-04-11T09:00:39.443Z</time></trkpt><trkpt lat="43.6967924" lon="12.7021887"><ele>192.0</ele><time>2026-04-11T09:00:40.443Z</time></trkpt><trkpt lat="43.6967308" lon="12.7020624"><ele>191.6</ele><time>2026-04-11T09:00:41.444Z</time></trkpt><trkpt lat="43.6966805" lon="12.7019478"><ele>191.2</ele><time>2026-04-11T09:00:42.443Z</time></trkpt><trkpt lat="43.6966445" lon="12.7018581"><ele>190.8</ele><time>2026-04-11T09:00:43.444Z</time></trkpt><trkpt lat="43.696578" lon="12.7017542"><ele>190.4</ele><time>2026-04-11T09:00:45.444Z</time></trkpt><trkpt lat="43.6964582" lon="12.701724"><ele>190.0</ele><time>2026-04-11T09:00:47.443Z</time></trkpt><trkpt lat="43.6963496" lon="12.7016759"><ele>189.4</ele><time>2026-04-11T09:00:49.444Z</time></trkpt><trkpt lat="43.6962675" lon="12.7015755"><ele>188.8</ele><time>2026-04-11T09:00:51.443Z</time></trkpt><trkpt lat="43.6961784" lon="12.7014891"><ele>188.2</ele><time>2026-04-11T09:00:53.443Z</time></trkpt><trkpt lat="43.6960668" lon="12.7014118"><ele>187.6</ele><time>2026-04-11T09:00:55.444Z</time></trkpt><trkpt lat="43.696007" lon="12.7013643"><ele>187.0</ele><time>2026-04-11T09:00:56.445Z</time></trkpt><trkpt lat="43.6959427" lon="12.7013093"><ele>186.5</ele><time>2026-04-11T09:00:57.443Z</time></trkpt><trkpt lat="43.695876" lon="12.7012551"><ele>186.0</ele><time>2026-04-11T09:00:58.443Z</time></trkpt><trkpt lat="43.695801" lon="12.7011989"><ele>185.5</ele><time>2026-04-11T09:00:59.443Z</time></trkpt><trkpt lat="43.6957222" lon="12.7011465"><ele>185.0</ele><time>2026-04-11T09:01:00.443Z</time></trkpt><trkpt lat="43.6956453" lon="12.7010841"><ele>184.5</ele><time>2026-04-11T09:01:01.443Z</time></trkpt><trkpt lat="43.6955586" lon="12.7010168"><ele>184.0</ele><time>2026-04-11T09:01:02.443Z</time></trkpt><trkpt lat="43.6954707" lon="12.7009498"><ele>183.79999999999998</ele><time>2026-04-11T09:01:03.444Z</time></trkpt><trkpt lat="43.6953767" lon="12.7008798"><ele>183.6</ele><time>2026-04-11T09:01:04.443Z</time></trkpt><trkpt lat="43.6952829" lon="12.7008229"><ele>183.4</ele><time>2026-04-11T09:01:05.443Z</time></trkpt><trkpt lat="43.6951946" lon="12.7007661"><ele>183.2</ele><time>2026-04-11T09:01:06.443Z</time></trkpt><trkpt lat="43.6951128" lon="12.7007076"><ele>183.0</ele><time>2026-04-11T09:01:07.443Z</time></trkpt><trkpt lat="43.6950338" lon="12.700661"><ele>182.16666666666666</ele><time>2026-04-11T09:01:08.443Z</time></trkpt><trkpt lat="43.6949552" lon="12.7006075"><ele>181.33333333333334</ele><time>2026-04-11T09:01:09.443Z</time></trkpt><trkpt lat="43.6948797" lon="12.7005465"><ele>180.5</ele><time>2026-04-11T09:01:10.443Z</time></trkpt><trkpt lat="43.6947956" lon="12.7005002"><ele>179.66666666666669</ele><time>2026-04-11T09:01:11.444Z</time></trkpt><trkpt lat="43.6947142" lon="12.7004382"><ele>178.83333333333334</ele><time>2026-04-11T09:01:12.443Z</time></trkpt><trkpt lat="43.6946421" lon="12.7003663"><ele>178.0</ele><time>2026-04-11T09:01:13.444Z</time></trkpt><trkpt lat="43.6945716" lon="12.7003102"><ele>177.5</ele><time>2026-04-11T09:01:14.443Z</time></trkpt><trkpt lat="43.6945089" lon="12.7002478"><ele>177.0</ele><time>2026-04-11T09:01:15.444Z</time></trkpt><trkpt lat="43.6944531" lon="12.7001913"><ele>176.5</ele><time>2026-04-11T09:01:16.443Z</time></trkpt><trkpt lat="43.6943615" lon="12.7001119"><ele>176.0</ele><time>2026-04-11T09:01:18.443Z</time></trkpt><trkpt lat="43.6943077" lon="12.7000588"><ele>175.5</ele><time>2026-04-11T09:01:20.443Z</time></trkpt><trkpt lat="43.6942444" lon="12.7000061"><ele>175.0</ele><time>2026-04-11T09:01:27.445Z</time></trkpt><trkpt lat="43.6941408" lon="12.7000912"><ele>174.6</ele><time>2026-04-11T09:01:30.444Z</time></trkpt><trkpt lat="43.6941094" lon="12.7001877"><ele>174.2</ele><time>2026-04-11T09:01:31.444Z</time></trkpt><trkpt lat="43.6940837" lon="12.7003039"><ele>173.8</ele><time>2026-04-11T09:01:32.443Z</time></trkpt><trkpt lat="43.6940407" lon="12.7004364"><ele>173.4</ele><time>2026-04-11T09:01:33.443Z</time></trkpt><trkpt lat="43.694" lon="12.7005764"><ele>173.0</ele><time>2026-04-11T09:01:34.444Z</time></trkpt><trkpt lat="43.6939574" lon="12.7007184"><ele>173.0</ele><time>2026-04-11T09:01:35.443Z</time></trkpt><trkpt lat="43.6939163" lon="12.7008595"><ele>173.0</ele><time>2026-04-11T09:01:36.443Z</time></trkpt><trkpt lat="43.6938745" lon="12.7009937"><ele>173.0</ele><time>2026-04-11T09:01:37.445Z</time></trkpt><trkpt lat="43.6938334" lon="12.7011254"><ele>173.0</ele><time>2026-04-11T09:01:38.444Z</time></trkpt><trkpt lat="43.6937897" lon="12.7012617"><ele>173.0</ele><time>2026-04-11T09:01:39.443Z</time></trkpt><trkpt lat="43.6937396" lon="12.7014028"><ele>173.0</ele><time>2026-04-11T09:01:40.444Z</time></trkpt><trkpt lat="43.6936867" lon="12.7015558"><ele>173.0</ele><time>2026-04-11T09:01:41.444Z</time></trkpt><trkpt lat="43.6936337" lon="12.7017212"><ele>173.0</ele><time>2026-04-11T09:01:42.444Z</time></trkpt><trkpt lat="43.6935718" lon="12.7018907"><ele>173.0</ele><time>2026-04-11T09:01:43.444Z</time></trkpt><trkpt lat="43.693506" lon="12.7020655"><ele>172.0</ele><time>2026-04-11T09:01:44.444Z</time></trkpt><trkpt lat="43.6934429" lon="12.7022326"><ele>171.0</ele><time>2026-04-11T09:01:45.443Z</time></trkpt><trkpt lat="43.6933846" lon="12.702391"><ele>170.0</ele><time>2026-04-11T09:01:46.443Z</time></trkpt><trkpt lat="43.6933301" lon="12.7025409"><ele>169.0</ele><time>2026-04-11T09:01:47.444Z</time></trkpt><trkpt lat="43.693278" lon="12.7026856"><ele>168.5</ele><time>2026-04-11T09:01:48.444Z</time></trkpt><trkpt lat="43.6932294" lon="12.702819"><ele>168.0</ele><time>2026-04-11T09:01:49.443Z</time></trkpt><trkpt lat="43.6931792" lon="12.7029548"><ele>167.5</ele><time>2026-04-11T09:01:50.444Z</time></trkpt><trkpt lat="43.693125" lon="12.7031008"><ele>167.0</ele><time>2026-04-11T09:01:51.444Z</time></trkpt><trkpt lat="43.6930691" lon="12.7032547"><ele>167.0</ele><time>2026-04-11T09:01:52.443Z</time></trkpt><trkpt lat="43.6930079" lon="12.7034188"><ele>167.0</ele><time>2026-04-11T09:01:53.443Z</time></trkpt><trkpt lat="43.692942" lon="12.7035951"><ele>167.0</ele><time>2026-04-11T09:01:54.443Z</time></trkpt><trkpt lat="43.6928741" lon="12.7037847"><ele>167.0</ele><time>2026-04-11T09:01:55.444Z</time></trkpt><trkpt lat="43.6928053" lon="12.7039714"><ele>166.33333333333331</ele><time>2026-04-11T09:01:56.443Z</time></trkpt><trkpt lat="43.6927323" lon="12.7041687"><ele>165.66666666666666</ele><time>2026-04-11T09:01:57.444Z</time></trkpt><trkpt lat="43.6926572" lon="12.7043869"><ele>165.0</ele><time>2026-04-11T09:01:58.443Z</time></trkpt><trkpt lat="43.6925711" lon="12.7046523"><ele>165.0</ele><time>2026-04-11T09:01:59.443Z</time></trkpt><trkpt lat="43.6924718" lon="12.704919"><ele>165.0</ele><time>2026-04-11T09:02:00.444Z</time></trkpt><trkpt lat="43.6923731" lon="12.7051503"><ele>165.0</ele><time>2026-04-11T09:02:01.443Z</time></trkpt><trkpt lat="43.692287" lon="12.7053749"><ele>164.0</ele><time>2026-04-11T09:02:02.443Z</time></trkpt><trkpt lat="43.6922098" lon="12.7055894"><ele>163.0</ele><time>2026-04-11T09:02:03.444Z</time></trkpt><trkpt lat="43.6921288" lon="12.7058112"><ele>162.0</ele><time>2026-04-11T09:02:04.443Z</time></trkpt><trkpt lat="43.692046" lon="12.7060367"><ele>161.66666666666666</ele><time>2026-04-11T09:02:05.444Z</time></trkpt><trkpt lat="43.691963" lon="12.7062776"><ele>161.33333333333331</ele><time>2026-04-11T09:02:06.443Z</time></trkpt><trkpt lat="43.691899" lon="12.7065559"><ele>161.0</ele><time>2026-04-11T09:02:07.443Z</time></trkpt><trkpt lat="43.6918629" lon="12.706859"><ele>160.66666666666666</ele><time>2026-04-11T09:02:08.443Z</time></trkpt><trkpt lat="43.691844" lon="12.7071301"><ele>160.33333333333334</ele><time>2026-04-11T09:02:09.444Z</time></trkpt><trkpt lat="43.6918223" lon="12.7073737"><ele>160.0</ele><time>2026-04-11T09:02:10.443Z</time></trkpt><trkpt lat="43.6917944" lon="12.7075913"><ele>159.66666666666669</ele><time>2026-04-11T09:02:11.444Z</time></trkpt><trkpt lat="43.6917478" lon="12.707789"><ele>159.33333333333334</ele><time>2026-04-11T09:02:12.443Z</time></trkpt><trkpt lat="43.6916704" lon="12.7079706"><ele>159.0</ele><time>2026-04-11T09:02:13.443Z</time></trkpt><trkpt lat="43.6915712" lon="12.7081575"><ele>159.0</ele><time>2026-04-11T09:02:14.444Z</time></trkpt><trkpt lat="43.6914857" lon="12.7083123"><ele>159.0</ele><time>2026-04-11T09:02:15.444Z</time></trkpt><trkpt lat="43.6914068" lon="12.7084433"><ele>159.0</ele><time>2026-04-11T09:02:16.444Z</time></trkpt><trkpt lat="43.6913202" lon="12.7085438"><ele>159.0</ele><time>2026-04-11T09:02:17.444Z</time></trkpt><trkpt lat="43.6912213" lon="12.7086095"><ele>159.5</ele><time>2026-04-11T09:02:18.443Z</time></trkpt><trkpt lat="43.6911311" lon="12.7086857"><ele>160.0</ele><time>2026-04-11T09:02:19.443Z</time></trkpt><trkpt lat="43.6910639" lon="12.7088032"><ele>160.5</ele><time>2026-04-11T09:02:20.443Z</time></trkpt><trkpt lat="43.6910049" lon="12.7089681"><ele>161.0</ele><time>2026-04-11T09:02:21.444Z</time></trkpt><trkpt lat="43.6909438" lon="12.709177"><ele>158.66666666666666</ele><time>2026-04-11T09:02:22.444Z</time></trkpt><trkpt lat="43.6908393" lon="12.7093996"><ele>156.33333333333334</ele><time>2026-04-11T09:02:23.443Z</time></trkpt><trkpt lat="43.6907017" lon="12.709643"><ele>154.0</ele><time>2026-04-11T09:02:24.445Z</time></trkpt><trkpt lat="43.6905463" lon="12.7099086"><ele>154.0</ele><time>2026-04-11T09:02:25.444Z</time></trkpt><trkpt lat="43.6903938" lon="12.7101751"><ele>154.0</ele><time>2026-04-11T09:02:26.443Z</time></trkpt><trkpt lat="43.6902415" lon="12.7104336"><ele>153.66666666666669</ele><time>2026-04-11T09:02:27.443Z</time></trkpt><trkpt lat="43.6900988" lon="12.7106707"><ele>153.33333333333334</ele><time>2026-04-11T09:02:28.444Z</time></trkpt><trkpt lat="43.6899647" lon="12.7108958"><ele>153.0</ele><time>2026-04-11T09:02:29.444Z</time></trkpt><trkpt lat="43.689837" lon="12.7111128"><ele>154.33333333333334</ele><time>2026-04-11T09:02:30.443Z</time></trkpt><trkpt lat="43.6896988" lon="12.7113305"><ele>155.66666666666669</ele><time>2026-04-11T09:02:31.443Z</time></trkpt><trkpt lat="43.6895558" lon="12.7115331"><ele>157.0</ele><time>2026-04-11T09:02:32.443Z</time></trkpt><trkpt lat="43.6894176" lon="12.7117176"><ele>154.33333333333334</ele><time>2026-04-11T09:02:33.443Z</time></trkpt><trkpt lat="43.6892874" lon="12.7118985"><ele>151.66666666666666</ele><time>2026-04-11T09:02:34.444Z</time></trkpt><trkpt lat="43.6891601" lon="12.7120835"><ele>149.0</ele><time>2026-04-11T09:02:35.443Z</time></trkpt><trkpt lat="43.6890305" lon="12.7122544"><ele>149.0</ele><time>2026-04-11T09:02:36.443Z</time></trkpt><trkpt lat="43.6889112" lon="12.7124035"><ele>149.0</ele><time>2026-04-11T09:02:37.443Z</time></trkpt><trkpt lat="43.6888081" lon="12.7125388"><ele>149.0</ele><time>2026-04-11T09:02:38.443Z</time></trkpt><trkpt lat="43.6887198" lon="12.7126565"><ele>149.0</ele><time>2026-04-11T09:02:39.443Z</time></trkpt><trkpt lat="43.6886465" lon="12.7127628"><ele>148.8</ele><time>2026-04-11T09:02:40.443Z</time></trkpt><trkpt lat="43.6886088" lon="12.7128792"><ele>148.60000000000002</ele><time>2026-04-11T09:02:41.443Z</time></trkpt><trkpt lat="43.6886101" lon="12.7130244"><ele>148.4</ele><time>2026-04-11T09:02:42.443Z</time></trkpt><trkpt lat="43.6886464" lon="12.7131881"><ele>148.20000000000002</ele><time>2026-04-11T09:02:43.444Z</time></trkpt><trkpt lat="43.6887033" lon="12.7133334"><ele>148.0</ele><time>2026-04-11T09:02:44.443Z</time></trkpt><trkpt lat="43.6887468" lon="12.7134629"><ele>147.25</ele><time>2026-04-11T09:02:45.443Z</time></trkpt><trkpt lat="43.6887556" lon="12.7135907"><ele>146.5</ele><time>2026-04-11T09:02:46.443Z</time></trkpt><trkpt lat="43.6887354" lon="12.7137202"><ele>145.75</ele><time>2026-04-11T09:02:47.443Z</time></trkpt><trkpt lat="43.6886809" lon="12.7138743"><ele>145.0</ele><time>2026-04-11T09:02:48.443Z</time></trkpt><trkpt lat="43.6885989" lon="12.7140478"><ele>145.0</ele><time>2026-04-11T09:02:49.443Z</time></trkpt><trkpt lat="43.6885033" lon="12.7142619"><ele>145.0</ele><time>2026-04-11T09:02:50.443Z</time></trkpt><trkpt lat="43.6883937" lon="12.7145024"><ele>145.0</ele><time>2026-04-11T09:02:51.444Z</time></trkpt><trkpt lat="43.6883024" lon="12.71473"><ele>145.0</ele><time>2026-04-11T09:02:52.443Z</time></trkpt><trkpt lat="43.6882173" lon="12.7149457"><ele>145.0</ele><time>2026-04-11T09:02:53.443Z</time></trkpt><trkpt lat="43.6881451" lon="12.7151472"><ele>145.0</ele><time>2026-04-11T09:02:54.444Z</time></trkpt><trkpt lat="43.6880869" lon="12.7153413"><ele>145.25</ele><time>2026-04-11T09:02:55.443Z</time></trkpt><trkpt lat="43.6880349" lon="12.7155282"><ele>145.5</ele><time>2026-04-11T09:02:56.443Z</time></trkpt><trkpt lat="43.6879844" lon="12.7157152"><ele>145.75</ele><time>2026-04-11T09:02:57.444Z</time></trkpt><trkpt lat="43.687939" lon="12.7159042"><ele>146.0</ele><time>2026-04-11T09:02:58.443Z</time></trkpt><trkpt lat="43.6878978" lon="12.7160777"><ele>146.0</ele><time>2026-04-11T09:02:59.443Z</time></trkpt><trkpt lat="43.6878576" lon="12.7162204"><ele>146.0</ele><time>2026-04-11T09:03:00.443Z</time></trkpt><trkpt lat="43.687833" lon="12.716345"><ele>146.0</ele><time>2026-04-11T09:03:01.443Z</time></trkpt><trkpt lat="43.6878312" lon="12.7164508"><ele>146.0</ele><time>2026-04-11T09:03:02.443Z</time></trkpt><trkpt lat="43.6878586" lon="12.716538"><ele>146.0</ele><time>2026-04-11T09:03:03.443Z</time></trkpt><trkpt lat="43.6879733" lon="12.7166349"><ele>146.0</ele><time>2026-04-11T09:03:05.443Z</time></trkpt><trkpt lat="43.6880938" lon="12.7166611"><ele>146.0</ele><time>2026-04-11T09:03:06.443Z</time></trkpt><trkpt lat="43.6882175" lon="12.7166842"><ele>146.0</ele><time>2026-04-11T09:03:07.443Z</time></trkpt><trkpt lat="43.6883257" lon="12.7166905"><ele>146.0</ele><time>2026-04-11T09:03:08.443Z</time></trkpt><trkpt lat="43.6884506" lon="12.7166575"><ele>146.0</ele><time>2026-04-11T09:03:09.443Z</time></trkpt><trkpt lat="43.6885662" lon="12.7165638"><ele>146.0</ele><time>2026-04-11T09:03:10.444Z</time></trkpt><trkpt lat="43.6886591" lon="12.7164226"><ele>146.0</ele><time>2026-04-11T09:03:11.443Z</time></trkpt><trkpt lat="43.6887114" lon="12.716252"><ele>146.0</ele><time>2026-04-11T09:03:12.443Z</time></trkpt><trkpt lat="43.688717" lon="12.7160816"><ele>146.0</ele><time>2026-04-11T09:03:13.443Z</time></trkpt><trkpt lat="43.6886834" lon="12.7159081"><ele>146.0</ele><time>2026-04-11T09:03:14.444Z</time></trkpt><trkpt lat="43.6886129" lon="12.7157558"><ele>146.0</ele><time>2026-04-11T09:03:15.443Z</time></trkpt><trkpt lat="43.6885123" lon="12.7156456"><ele>146.0</ele><time>2026-04-11T09:03:16.443Z</time></trkpt><trkpt lat="43.6883834" lon="12.7155686"><ele>146.0</ele><time>2026-04-11T09:03:17.444Z</time></trkpt><trkpt lat="43.6882274" lon="12.7155141"><ele>146.0</ele><time>2026-04-11T09:03:18.444Z</time></trkpt><trkpt lat="43.6880745" lon="12.7154556"><ele>146.0</ele><time>2026-04-11T09:03:19.444Z</time></trkpt><trkpt lat="43.6879161" lon="12.7153914"><ele>146.0</ele><time>2026-04-11T09:03:20.443Z</time></trkpt><trkpt lat="43.6877653" lon="12.7153323"><ele>146.0</ele><time>2026-04-11T09:03:21.444Z</time></trkpt><trkpt lat="43.6876149" lon="12.7152702"><ele>146.0</ele><time>2026-04-11T09:03:22.443Z</time></trkpt><trkpt lat="43.6874853" lon="12.7152154"><ele>146.0</ele><time>2026-04-11T09:03:23.444Z</time></trkpt><trkpt lat="43.6873479" lon="12.71517"><ele>145.66666666666666</ele><time>2026-04-11T09:03:24.443Z</time></trkpt><trkpt lat="43.6871916" lon="12.7151387"><ele>145.33333333333334</ele><time>2026-04-11T09:03:25.443Z</time></trkpt><trkpt lat="43.6870118" lon="12.7151308"><ele>145.0</ele><time>2026-04-11T09:03:26.443Z</time></trkpt><trkpt lat="43.6868109" lon="12.7151475"><ele>142.5</ele><time>2026-04-11T09:03:27.442Z</time></trkpt><trkpt lat="43.6865724" lon="12.7151706"><ele>140.0</ele><time>2026-04-11T09:03:28.443Z</time></trkpt><trkpt lat="43.6863554" lon="12.7151978"><ele>140.0</ele><time>2026-04-11T09:03:29.443Z</time></trkpt><trkpt lat="43.6861511" lon="12.7152229"><ele>140.0</ele><time>2026-04-11T09:03:30.442Z</time></trkpt><trkpt lat="43.685952" lon="12.7152403"><ele>140.0</ele><time>2026-04-11T09:03:31.442Z</time></trkpt><trkpt lat="43.6857875" lon="12.7152577"><ele>141.66666666666666</ele><time>2026-04-11T09:03:32.443Z</time></trkpt><trkpt lat="43.6856281" lon="12.7152887"><ele>143.33333333333334</ele><time>2026-04-11T09:03:33.442Z</time></trkpt><trkpt lat="43.6854858" lon="12.7153429"><ele>145.0</ele><time>2026-04-11T09:03:34.442Z</time></trkpt><trkpt lat="43.6853522" lon="12.7154117"><ele>146.75</ele><time>2026-04-11T09:03:35.443Z</time></trkpt><trkpt lat="43.6852308" lon="12.7154811"><ele>148.5</ele><time>2026-04-11T09:03:36.442Z</time></trkpt><trkpt lat="43.6851138" lon="12.7155385"><ele>150.25</ele><time>2026-04-11T09:03:37.443Z</time></trkpt><trkpt lat="43.684983" lon="12.7155813"><ele>152.0</ele><time>2026-04-11T09:03:38.442Z</time></trkpt><trkpt lat="43.6848412" lon="12.7156027"><ele>152.0</ele><time>2026-04-11T09:03:39.442Z</time></trkpt><trkpt lat="43.6846812" lon="12.7156117"><ele>152.0</ele><time>2026-04-11T09:03:40.442Z</time></trkpt><trkpt lat="43.6844952" lon="12.7156178"><ele>152.0</ele><time>2026-04-11T09:03:41.443Z</time></trkpt><trkpt lat="43.6842949" lon="12.7156126"><ele>153.33333333333331</ele><time>2026-04-11T09:03:42.442Z</time></trkpt><trkpt lat="43.6841155" lon="12.7156033"><ele>154.66666666666666</ele><time>2026-04-11T09:03:43.442Z</time></trkpt><trkpt lat="43.6839491" lon="12.7155869"><ele>156.0</ele><time>2026-04-11T09:03:44.442Z</time></trkpt><trkpt lat="43.6837942" lon="12.7155652"><ele>156.0</ele><time>2026-04-11T09:03:45.442Z</time></trkpt><trkpt lat="43.6836475" lon="12.7155464"><ele>156.0</ele><time>2026-04-11T09:03:46.443Z</time></trkpt><trkpt lat="43.6834961" lon="12.7155117"><ele>156.0</ele><time>2026-04-11T09:03:47.442Z</time></trkpt><trkpt lat="43.6833359" lon="12.7154641"><ele>160.0</ele><time>2026-04-11T09:03:48.443Z</time></trkpt><trkpt lat="43.6831916" lon="12.7154111"><ele>164.0</ele><time>2026-04-11T09:03:49.442Z</time></trkpt><trkpt lat="43.6830496" lon="12.7153372"><ele>168.0</ele><time>2026-04-11T09:03:50.443Z</time></trkpt><trkpt lat="43.6829163" lon="12.7152408"><ele>167.75</ele><time>2026-04-11T09:03:51.443Z</time></trkpt><trkpt lat="43.6827957" lon="12.7151334"><ele>167.5</ele><time>2026-04-11T09:03:52.443Z</time></trkpt><trkpt lat="43.6826957" lon="12.7150169"><ele>167.25</ele><time>2026-04-11T09:03:53.442Z</time></trkpt><trkpt lat="43.6826027" lon="12.7148923"><ele>167.0</ele><time>2026-04-11T09:03:54.442Z</time></trkpt><trkpt lat="43.6825184" lon="12.7147629"><ele>169.25</ele><time>2026-04-11T09:03:55.442Z</time></trkpt><trkpt lat="43.6824393" lon="12.714628"><ele>171.5</ele><time>2026-04-11T09:03:56.443Z</time></trkpt><trkpt lat="43.6823635" lon="12.7144903"><ele>173.75</ele><time>2026-04-11T09:03:57.442Z</time></trkpt><trkpt lat="43.6822873" lon="12.7143472"><ele>176.0</ele><time>2026-04-11T09:03:58.443Z</time></trkpt><trkpt lat="43.6821983" lon="12.7141844"><ele>176.25</ele><time>2026-04-11T09:03:59.443Z</time></trkpt><trkpt lat="43.6821072" lon="12.7140275"><ele>176.5</ele><time>2026-04-11T09:04:00.442Z</time></trkpt><trkpt lat="43.6820155" lon="12.7138735"><ele>176.75</ele><time>2026-04-11T09:04:01.443Z</time></trkpt><trkpt lat="43.6819297" lon="12.7137373"><ele>177.0</ele><time>2026-04-11T09:04:02.442Z</time></trkpt><trkpt lat="43.6818484" lon="12.7136193"><ele>178.39999999999998</ele><time>2026-04-11T09:04:03.442Z</time></trkpt><trkpt lat="43.681775" lon="12.7135212"><ele>179.79999999999998</ele><time>2026-04-11T09:04:04.443Z</time></trkpt><trkpt lat="43.6817081" lon="12.7134279"><ele>181.2</ele><time>2026-04-11T09:04:05.442Z</time></trkpt><trkpt lat="43.6816621" lon="12.7133347"><ele>182.6</ele><time>2026-04-11T09:04:06.442Z</time></trkpt><trkpt lat="43.6816334" lon="12.7132269"><ele>184.0</ele><time>2026-04-11T09:04:07.443Z</time></trkpt><trkpt lat="43.6816282" lon="12.7130963"><ele>184.0</ele><time>2026-04-11T09:04:08.442Z</time></trkpt><trkpt lat="43.6816465" lon="12.7129377"><ele>184.0</ele><time>2026-04-11T09:04:09.442Z</time></trkpt><trkpt lat="43.6816811" lon="12.7127375"><ele>184.0</ele><time>2026-04-11T09:04:10.443Z</time></trkpt><trkpt lat="43.6817152" lon="12.7125231"><ele>184.0</ele><time>2026-04-11T09:04:11.442Z</time></trkpt><trkpt lat="43.6817477" lon="12.7123322"><ele>184.25</ele><time>2026-04-11T09:04:12.443Z</time></trkpt><trkpt lat="43.6817825" lon="12.7121556"><ele>184.5</ele><time>2026-04-11T09:04:13.442Z</time></trkpt><trkpt lat="43.6818306" lon="12.7119784"><ele>184.75</ele><time>2026-04-11T09:04:14.442Z</time></trkpt><trkpt lat="43.6819049" lon="12.7118126"><ele>185.0</ele><time>2026-04-11T09:04:15.443Z</time></trkpt><trkpt lat="43.6820066" lon="12.7116575"><ele>181.66666666666666</ele><time>2026-04-11T09:04:16.442Z</time></trkpt><trkpt lat="43.6821289" lon="12.7114969"><ele>178.33333333333334</ele><time>2026-04-11T09:04:17.442Z</time></trkpt><trkpt lat="43.6822478" lon="12.7113481"><ele>175.0</ele><time>2026-04-11T09:04:18.444Z</time></trkpt><trkpt lat="43.6823625" lon="12.7112048"><ele>176.33333333333334</ele><time>2026-04-11T09:04:19.442Z</time></trkpt><trkpt lat="43.6824823" lon="12.7110532"><ele>177.66666666666666</ele><time>2026-04-11T09:04:20.442Z</time></trkpt><trkpt lat="43.68259" lon="12.7109059"><ele>179.0</ele><time>2026-04-11T09:04:21.444Z</time></trkpt><trkpt lat="43.6826866" lon="12.7107707"><ele>177.5</ele><time>2026-04-11T09:04:22.442Z</time></trkpt><trkpt lat="43.682778" lon="12.7106279"><ele>176.0</ele><time>2026-04-11T09:04:23.442Z</time></trkpt><trkpt lat="43.6828714" lon="12.7104873"><ele>174.5</ele><time>2026-04-11T09:04:24.444Z</time></trkpt><trkpt lat="43.682967" lon="12.7103534"><ele>173.0</ele><time>2026-04-11T09:04:25.442Z</time></trkpt><trkpt lat="43.68306" lon="12.710219"><ele>173.0</ele><time>2026-04-11T09:04:26.443Z</time></trkpt><trkpt lat="43.6831496" lon="12.7100915"><ele>173.0</ele><time>2026-04-11T09:04:27.443Z</time></trkpt><trkpt lat="43.6832341" lon="12.709962"><ele>173.0</ele><time>2026-04-11T09:04:28.444Z</time></trkpt><trkpt lat="43.6833147" lon="12.7098325"><ele>173.0</ele><time>2026-04-11T09:04:29.443Z</time></trkpt><trkpt lat="43.6833891" lon="12.7096984"><ele>173.0</ele><time>2026-04-11T09:04:30.442Z</time></trkpt><trkpt lat="43.6834598" lon="12.7095444"><ele>173.0</ele><time>2026-04-11T09:04:31.442Z</time></trkpt><trkpt lat="43.6835259" lon="12.7093703"><ele>173.0</ele><time>2026-04-11T09:04:32.442Z</time></trkpt><trkpt lat="43.6835921" lon="12.7091792"><ele>173.0</ele><time>2026-04-11T09:04:33.442Z</time></trkpt><trkpt lat="43.6836617" lon="12.708975"><ele>170.66666666666666</ele><time>2026-04-11T09:04:34.442Z</time></trkpt><trkpt lat="43.6837324" lon="12.7087594"><ele>168.33333333333334</ele><time>2026-04-11T09:04:35.442Z</time></trkpt><trkpt lat="43.683801" lon="12.7085419"><ele>166.0</ele><time>2026-04-11T09:04:36.443Z</time></trkpt><trkpt lat="43.6838638" lon="12.7083455"><ele>166.0</ele><time>2026-04-11T09:04:37.443Z</time></trkpt><trkpt lat="43.6839316" lon="12.7081553"><ele>166.0</ele><time>2026-04-11T09:04:38.442Z</time></trkpt><trkpt lat="43.6839999" lon="12.7079742"><ele>166.0</ele><time>2026-04-11T09:04:39.443Z</time></trkpt><trkpt lat="43.6840711" lon="12.7077956"><ele>166.0</ele><time>2026-04-11T09:04:40.442Z</time></trkpt><trkpt lat="43.6841423" lon="12.7076251"><ele>167.25</ele><time>2026-04-11T09:04:41.442Z</time></trkpt><trkpt lat="43.6842086" lon="12.7074715"><ele>168.5</ele><time>2026-04-11T09:04:42.442Z</time></trkpt><trkpt lat="43.6842729" lon="12.707327"><ele>169.75</ele><time>2026-04-11T09:04:43.442Z</time></trkpt><trkpt lat="43.6843345" lon="12.7071896"><ele>171.0</ele><time>2026-04-11T09:04:44.443Z</time></trkpt><trkpt lat="43.6844011" lon="12.7070575"><ele>170.25</ele><time>2026-04-11T09:04:45.443Z</time></trkpt><trkpt lat="43.6844749" lon="12.7069267"><ele>169.5</ele><time>2026-04-11T09:04:46.442Z</time></trkpt><trkpt lat="43.6845533" lon="12.7067941"><ele>168.75</ele><time>2026-04-11T09:04:47.442Z</time></trkpt><trkpt lat="43.6846358" lon="12.7066646"><ele>168.0</ele><time>2026-04-11T09:04:48.443Z</time></trkpt><trkpt lat="43.684723" lon="12.7065365"><ele>168.0</ele><time>2026-04-11T09:04:49.442Z</time></trkpt><trkpt lat="43.6848123" lon="12.706417"><ele>168.0</ele><time>2026-04-11T09:04:50.443Z</time></trkpt><trkpt lat="43.6848956" lon="12.7063087"><ele>168.0</ele><time>2026-04-11T09:04:51.443Z</time></trkpt><trkpt lat="43.6849722" lon="12.7062131"><ele>168.0</ele><time>2026-04-11T09:04:52.443Z</time></trkpt><trkpt lat="43.6850393" lon="12.7061296"><ele>168.0</ele><time>2026-04-11T09:04:53.442Z</time></trkpt><trkpt lat="43.6851036" lon="12.7060563"><ele>168.83333333333334</ele><time>2026-04-11T09:04:54.442Z</time></trkpt><trkpt lat="43.6851561" lon="12.7059899"><ele>169.66666666666666</ele><time>2026-04-11T09:04:55.442Z</time></trkpt><trkpt lat="43.6852373" lon="12.7058904"><ele>170.5</ele><time>2026-04-11T09:04:57.442Z</time></trkpt><trkpt lat="43.6853028" lon="12.7057753"><ele>171.33333333333331</ele><time>2026-04-11T09:04:59.442Z</time></trkpt><trkpt lat="43.6853204" lon="12.7056894"><ele>172.16666666666666</ele><time>2026-04-11T09:05:00.442Z</time></trkpt><trkpt lat="43.6853121" lon="12.7055944"><ele>173.0</ele><time>2026-04-11T09:05:01.442Z</time></trkpt><trkpt lat="43.6852843" lon="12.7054941"><ele>173.2</ele><time>2026-04-11T09:05:02.442Z</time></trkpt><trkpt lat="43.6852399" lon="12.7053834"><ele>173.4</ele><time>2026-04-11T09:05:03.442Z</time></trkpt><trkpt lat="43.6851806" lon="12.7052571"><ele>173.6</ele><time>2026-04-11T09:05:04.442Z</time></trkpt><trkpt lat="43.6851103" lon="12.7051212"><ele>173.79999999999998</ele><time>2026-04-11T09:05:05.443Z</time></trkpt><trkpt lat="43.6850355" lon="12.7049812"><ele>174.0</ele><time>2026-04-11T09:05:06.442Z</time></trkpt><trkpt lat="43.6849582" lon="12.704828"><ele>175.25</ele><time>2026-04-11T09:05:07.442Z</time></trkpt><trkpt lat="43.6848802" lon="12.7046721"><ele>176.5</ele><time>2026-04-11T09:05:08.443Z</time></trkpt><trkpt lat="43.6848154" lon="12.7045341"><ele>177.75</ele><time>2026-04-11T09:05:09.442Z</time></trkpt><trkpt lat="43.6847595" lon="12.704397"><ele>179.0</ele><time>2026-04-11T09:05:10.442Z</time></trkpt><trkpt lat="43.6847173" lon="12.7042453"><ele>179.75</ele><time>2026-04-11T09:05:11.442Z</time></trkpt><trkpt lat="43.6846954" lon="12.7040897"><ele>180.5</ele><time>2026-04-11T09:05:12.444Z</time></trkpt><trkpt lat="43.6846896" lon="12.7039251"><ele>181.25</ele><time>2026-04-11T09:05:13.444Z</time></trkpt><trkpt lat="43.6846939" lon="12.7037462"><ele>182.0</ele><time>2026-04-11T09:05:14.442Z</time></trkpt><trkpt lat="43.6846931" lon="12.7035699"><ele>182.6</ele><time>2026-04-11T09:05:15.442Z</time></trkpt><trkpt lat="43.684686" lon="12.703407"><ele>183.2</ele><time>2026-04-11T09:05:16.442Z</time></trkpt><trkpt lat="43.6846706" lon="12.7032587"><ele>183.8</ele><time>2026-04-11T09:05:17.442Z</time></trkpt><trkpt lat="43.6846395" lon="12.7031334"><ele>184.4</ele><time>2026-04-11T09:05:18.442Z</time></trkpt><trkpt lat="43.6845949" lon="12.7030128"><ele>185.0</ele><time>2026-04-11T09:05:19.442Z</time></trkpt><trkpt lat="43.6845338" lon="12.7028884"><ele>186.0</ele><time>2026-04-11T09:05:20.443Z</time></trkpt><trkpt lat="43.6844526" lon="12.7027421"><ele>187.0</ele><time>2026-04-11T09:05:21.442Z</time></trkpt><trkpt lat="43.6843574" lon="12.7025722"><ele>188.0</ele><time>2026-04-11T09:05:22.442Z</time></trkpt><trkpt lat="43.6842783" lon="12.7024257"><ele>189.0</ele><time>2026-04-11T09:05:23.442Z</time></trkpt><trkpt lat="43.6842057" lon="12.702291"><ele>191.0</ele><time>2026-04-11T09:05:24.442Z</time></trkpt><trkpt lat="43.6841454" lon="12.7021791"><ele>193.0</ele><time>2026-04-11T09:05:25.443Z</time></trkpt><trkpt lat="43.6840885" lon="12.7020887"><ele>195.0</ele><time>2026-04-11T09:05:26.443Z</time></trkpt><trkpt lat="43.6840284" lon="12.7020295"><ele>197.0</ele><time>2026-04-11T09:05:27.442Z</time></trkpt><trkpt lat="43.6839631" lon="12.7020038"><ele>199.0</ele><time>2026-04-11T09:05:28.442Z</time></trkpt><trkpt lat="43.6838997" lon="12.7020195"><ele>201.0</ele><time>2026-04-11T09:05:29.442Z</time></trkpt><trkpt lat="43.6838052" lon="12.7021779"><ele>201.0</ele><time>2026-04-11T09:05:31.442Z</time></trkpt><trkpt lat="43.6837704" lon="12.7023059"><ele>201.0</ele><time>2026-04-11T09:05:32.444Z</time></trkpt><trkpt lat="43.6837351" lon="12.7024749"><ele>201.0</ele><time>2026-04-11T09:05:33.442Z</time></trkpt><trkpt lat="43.6837054" lon="12.7026541"><ele>201.0</ele><time>2026-04-11T09:05:34.443Z</time></trkpt><trkpt lat="43.6836741" lon="12.7028383"><ele>200.4</ele><time>2026-04-11T09:05:35.442Z</time></trkpt><trkpt lat="43.6836369" lon="12.7029976"><ele>199.8</ele><time>2026-04-11T09:05:36.442Z</time></trkpt><trkpt lat="43.6835905" lon="12.70314"><ele>199.20000000000002</ele><time>2026-04-11T09:05:37.443Z</time></trkpt><trkpt lat="43.68353" lon="12.7032606"><ele>198.60000000000002</ele><time>2026-04-11T09:05:38.442Z</time></trkpt><trkpt lat="43.6834582" lon="12.7033572"><ele>198.0</ele><time>2026-04-11T09:05:39.443Z</time></trkpt><trkpt lat="43.6833872" lon="12.7034265"><ele>200.16666666666666</ele><time>2026-04-11T09:05:40.443Z</time></trkpt><trkpt lat="43.6833172" lon="12.7034687"><ele>202.33333333333331</ele><time>2026-04-11T09:05:41.443Z</time></trkpt><trkpt lat="43.6832352" lon="12.703487"><ele>204.5</ele><time>2026-04-11T09:05:42.443Z</time></trkpt><trkpt lat="43.6831432" lon="12.7034795"><ele>206.66666666666666</ele><time>2026-04-11T09:05:43.442Z</time></trkpt><trkpt lat="43.6830506" lon="12.7034493"><ele>208.83333333333331</ele><time>2026-04-11T09:05:44.442Z</time></trkpt><trkpt lat="43.6829661" lon="12.7034057"><ele>211.0</ele><time>2026-04-11T09:05:45.442Z</time></trkpt><trkpt lat="43.6828845" lon="12.7033456"><ele>211.0</ele><time>2026-04-11T09:05:46.443Z</time></trkpt><trkpt lat="43.6828254" lon="12.7032834"><ele>211.0</ele><time>2026-04-11T09:05:47.442Z</time></trkpt><trkpt lat="43.6827611" lon="12.7031935"><ele>211.0</ele><time>2026-04-11T09:05:48.442Z</time></trkpt><trkpt lat="43.6827009" lon="12.7030796"><ele>211.0</ele><time>2026-04-11T09:05:49.442Z</time></trkpt><trkpt lat="43.6826462" lon="12.7029461"><ele>211.0</ele><time>2026-04-11T09:05:50.442Z</time></trkpt><trkpt lat="43.6826009" lon="12.7027958"><ele>215.5</ele><time>2026-04-11T09:05:51.443Z</time></trkpt><trkpt lat="43.68256" lon="12.7026307"><ele>220.0</ele><time>2026-04-11T09:05:52.442Z</time></trkpt><trkpt lat="43.6825192" lon="12.7024443"><ele>224.5</ele><time>2026-04-11T09:05:53.442Z</time></trkpt><trkpt lat="43.682496" lon="12.7022965"><ele>229.0</ele><time>2026-04-11T09:05:54.442Z</time></trkpt><trkpt lat="43.6824819" lon="12.7021642"><ele>228.99999999999997</ele><time>2026-04-11T09:05:55.443Z</time></trkpt><trkpt lat="43.6824653" lon="12.7020534"><ele>229.0</ele><time>2026-04-11T09:05:56.442Z</time></trkpt><trkpt lat="43.6824384" lon="12.7019662"><ele>229.0</ele><time>2026-04-11T09:05:57.442Z</time></trkpt><trkpt lat="43.6823549" lon="12.7018773"><ele>229.0</ele><time>2026-04-11T09:05:59.443Z</time></trkpt><trkpt lat="43.6822599" lon="12.7019174"><ele>228.99999999999997</ele><time>2026-04-11T09:06:01.443Z</time></trkpt><trkpt lat="43.6822112" lon="12.7019919"><ele>229.0</ele><time>2026-04-11T09:06:02.443Z</time></trkpt><trkpt lat="43.6821644" lon="12.7020991"><ele>229.0</ele><time>2026-04-11T09:06:03.442Z</time></trkpt><trkpt lat="43.6821171" lon="12.7022416"><ele>228.99999999999997</ele><time>2026-04-11T09:06:04.443Z</time></trkpt><trkpt lat="43.6820659" lon="12.7023945"><ele>228.99999999999997</ele><time>2026-04-11T09:06:05.443Z</time></trkpt><trkpt lat="43.6820154" lon="12.7025279"><ele>229.0</ele><time>2026-04-11T09:06:06.442Z</time></trkpt><trkpt lat="43.6819672" lon="12.7026275"><ele>229.0</ele><time>2026-04-11T09:06:07.443Z</time></trkpt><trkpt lat="43.6819157" lon="12.702681"><ele>233.0</ele><time>2026-04-11T09:06:08.443Z</time></trkpt><trkpt lat="43.6818214" lon="12.7026586"><ele>236.99999999999997</ele><time>2026-04-11T09:06:10.442Z</time></trkpt><trkpt lat="43.6817811" lon="12.7025052"><ele>240.99999999999997</ele><time>2026-04-11T09:06:12.443Z</time></trkpt><trkpt lat="43.6817752" lon="12.7023712"><ele>245.0</ele><time>2026-04-11T09:06:13.442Z</time></trkpt><trkpt lat="43.6817748" lon="12.7022197"><ele>249.0</ele><time>2026-04-11T09:06:14.442Z</time></trkpt><trkpt lat="43.6817895" lon="12.7020619"><ele>251.75</ele><time>2026-04-11T09:06:15.442Z</time></trkpt><trkpt lat="43.6818275" lon="12.7019029"><ele>254.5</ele><time>2026-04-11T09:06:16.443Z</time></trkpt><trkpt lat="43.681887" lon="12.7017479"><ele>257.25</ele><time>2026-04-11T09:06:17.442Z</time></trkpt><trkpt lat="43.6819639" lon="12.7015897"><ele>260.0</ele><time>2026-04-11T09:06:18.442Z</time></trkpt><trkpt lat="43.6820529" lon="12.7014431"><ele>258.75</ele><time>2026-04-11T09:06:19.442Z</time></trkpt><trkpt lat="43.6821446" lon="12.7013082"><ele>257.5</ele><time>2026-04-11T09:06:20.442Z</time></trkpt><trkpt lat="43.6822239" lon="12.7011936"><ele>256.25</ele><time>2026-04-11T09:06:21.443Z</time></trkpt><trkpt lat="43.6822983" lon="12.701084"><ele>255.0</ele><time>2026-04-11T09:06:22.443Z</time></trkpt><trkpt lat="43.6823563" lon="12.7009821"><ele>255.0</ele><time>2026-04-11T09:06:23.444Z</time></trkpt><trkpt lat="43.6824017" lon="12.7008777"><ele>255.0</ele><time>2026-04-11T09:06:24.444Z</time></trkpt><trkpt lat="43.6824427" lon="12.7007688"><ele>255.0</ele><time>2026-04-11T09:06:25.442Z</time></trkpt><trkpt lat="43.6824717" lon="12.7006687"><ele>255.0</ele><time>2026-04-11T09:06:26.442Z</time></trkpt><trkpt lat="43.6825043" lon="12.700567"><ele>255.0</ele><time>2026-04-11T09:06:27.444Z</time></trkpt><trkpt lat="43.6825293" lon="12.7004549"><ele>255.0</ele><time>2026-04-11T09:06:28.442Z</time></trkpt><trkpt lat="43.6825527" lon="12.7003211"><ele>256.8333333333333</ele><time>2026-04-11T09:06:29.443Z</time></trkpt><trkpt lat="43.6825721" lon="12.700202"><ele>258.6666666666667</ele><time>2026-04-11T09:06:30.442Z</time></trkpt><trkpt lat="43.6825644" lon="12.7000702"><ele>260.5</ele><time>2026-04-11T09:06:31.443Z</time></trkpt><trkpt lat="43.6825439" lon="12.6999661"><ele>262.33333333333337</ele><time>2026-04-11T09:06:32.443Z</time></trkpt><trkpt lat="43.6825073" lon="12.6998612"><ele>264.1666666666667</ele><time>2026-04-11T09:06:33.442Z</time></trkpt><trkpt lat="43.6824555" lon="12.6997586"><ele>266.0</ele><time>2026-04-11T09:06:34.442Z</time></trkpt><trkpt lat="43.6823832" lon="12.6996362"><ele>266.0</ele><time>2026-04-11T09:06:35.442Z</time></trkpt><trkpt lat="43.6823087" lon="12.6995448"><ele>266.0</ele><time>2026-04-11T09:06:36.443Z</time></trkpt><trkpt lat="43.6822175" lon="12.6994652"><ele>266.0</ele><time>2026-04-11T09:06:37.442Z</time></trkpt><trkpt lat="43.6821183" lon="12.6993994"><ele>266.0</ele><time>2026-04-11T09:06:38.444Z</time></trkpt><trkpt lat="43.6820401" lon="12.6993469"><ele>266.0</ele><time>2026-04-11T09:06:39.442Z</time></trkpt><trkpt lat="43.6819668" lon="12.6993102"><ele>267.6</ele><time>2026-04-11T09:06:40.442Z</time></trkpt><trkpt lat="43.6818758" lon="12.6993009"><ele>269.20000000000005</ele><time>2026-04-11T09:06:41.442Z</time></trkpt><trkpt lat="43.6817629" lon="12.6993009"><ele>270.79999999999995</ele><time>2026-04-11T09:06:42.442Z</time></trkpt><trkpt lat="43.6816517" lon="12.6993043"><ele>272.4</ele><time>2026-04-11T09:06:43.442Z</time></trkpt><trkpt lat="43.6815419" lon="12.6993002"><ele>274.0</ele><time>2026-04-11T09:06:44.442Z</time></trkpt><trkpt lat="43.6814443" lon="12.6992745"><ele>274.0</ele><time>2026-04-11T09:06:45.442Z</time></trkpt><trkpt lat="43.6813465" lon="12.6992229"><ele>274.0</ele><time>2026-04-11T09:06:46.444Z</time></trkpt><trkpt lat="43.6812432" lon="12.699125"><ele>274.0</ele><time>2026-04-11T09:06:47.443Z</time></trkpt><trkpt lat="43.6811296" lon="12.6990137"><ele>274.0</ele><time>2026-04-11T09:06:48.442Z</time></trkpt><trkpt lat="43.6810342" lon="12.6989283"><ele>273.66666666666663</ele><time>2026-04-11T09:06:49.442Z</time></trkpt><trkpt lat="43.6809464" lon="12.6988498"><ele>273.3333333333333</ele><time>2026-04-11T09:06:50.443Z</time></trkpt><trkpt lat="43.6808704" lon="12.6987734"><ele>273.0</ele><time>2026-04-11T09:06:51.443Z</time></trkpt><trkpt lat="43.6808062" lon="12.6986874"><ele>272.6666666666667</ele><time>2026-04-11T09:06:52.442Z</time></trkpt><trkpt lat="43.6807544" lon="12.6986048"><ele>272.33333333333337</ele><time>2026-04-11T09:06:53.443Z</time></trkpt><trkpt lat="43.6807164" lon="12.6985308"><ele>272.0</ele><time>2026-04-11T09:06:54.442Z</time></trkpt><trkpt lat="43.6806662" lon="12.6984631"><ele>272.0</ele><time>2026-04-11T09:06:55.442Z</time></trkpt><trkpt lat="43.6806" lon="12.6983828"><ele>272.0</ele><time>2026-04-11T09:06:56.442Z</time></trkpt><trkpt lat="43.6805427" lon="12.6983138"><ele>272.0</ele><time>2026-04-11T09:06:57.443Z</time></trkpt><trkpt lat="43.680486" lon="12.6981908"><ele>272.0</ele><time>2026-04-11T09:06:59.442Z</time></trkpt><trkpt lat="43.6805099" lon="12.69806"><ele>272.0</ele><time>2026-04-11T09:07:01.443Z</time></trkpt><trkpt lat="43.6806031" lon="12.6979857"><ele>272.0</ele><time>2026-04-11T09:07:03.442Z</time></trkpt><trkpt lat="43.6806693" lon="12.6979562"><ele>272.0</ele><time>2026-04-11T09:07:04.442Z</time></trkpt><trkpt lat="43.6807848" lon="12.6979278"><ele>272.0</ele><time>2026-04-11T09:07:06.442Z</time></trkpt><trkpt lat="43.6809062" lon="12.6979594"><ele>272.0</ele><time>2026-04-11T09:07:08.444Z</time></trkpt><trkpt lat="43.6809651" lon="12.6979956"><ele>272.0</ele><time>2026-04-11T09:07:09.442Z</time></trkpt><trkpt lat="43.6810197" lon="12.6980418"><ele>272.0</ele><time>2026-04-11T09:07:10.443Z</time></trkpt><trkpt lat="43.6810694" lon="12.6981001"><ele>272.33333333333337</ele><time>2026-04-11T09:07:11.443Z</time></trkpt><trkpt lat="43.681111" lon="12.698177"><ele>272.6666666666667</ele><time>2026-04-11T09:07:12.442Z</time></trkpt><trkpt lat="43.6811413" lon="12.698271"><ele>273.0</ele><time>2026-04-11T09:07:13.444Z</time></trkpt><trkpt lat="43.6811618" lon="12.6983588"><ele>273.3333333333333</ele><time>2026-04-11T09:07:14.442Z</time></trkpt><trkpt lat="43.6811957" lon="12.6985144"><ele>273.66666666666663</ele><time>2026-04-11T09:07:16.443Z</time></trkpt><trkpt lat="43.6812431" lon="12.6986075"><ele>274.0</ele><time>2026-04-11T09:07:18.443Z</time></trkpt><trkpt lat="43.6813159" lon="12.69857"><ele>269.3333333333333</ele><time>2026-04-11T09:07:21.443Z</time></trkpt><trkpt lat="43.6813176" lon="12.6984478"><ele>264.66666666666663</ele><time>2026-04-11T09:07:24.442Z</time></trkpt><trkpt lat="43.6812848" lon="12.6982843"><ele>260.0</ele><time>2026-04-11T09:07:26.442Z</time></trkpt><trkpt lat="43.6812697" lon="12.6981739"><ele>255.33333333333331</ele><time>2026-04-11T09:07:27.442Z</time></trkpt><trkpt lat="43.6812529" lon="12.6980747"><ele>250.66666666666666</ele><time>2026-04-11T09:07:28.442Z</time></trkpt><trkpt lat="43.6812338" lon="12.6979778"><ele>246.0</ele><time>2026-04-11T09:07:29.442Z</time></trkpt><trkpt lat="43.6812051" lon="12.6978843"><ele>246.0</ele><time>2026-04-11T09:07:30.442Z</time></trkpt><trkpt lat="43.6811688" lon="12.6977932"><ele>246.0</ele><time>2026-04-11T09:07:31.443Z</time></trkpt><trkpt lat="43.6811245" lon="12.6977035"><ele>246.0</ele><time>2026-04-11T09:07:32.442Z</time></trkpt><trkpt lat="43.6810755" lon="12.6976265"><ele>246.0</ele><time>2026-04-11T09:07:33.442Z</time></trkpt><trkpt lat="43.6810207" lon="12.6975548"><ele>246.0</ele><time>2026-04-11T09:07:34.442Z</time></trkpt><trkpt lat="43.6809551" lon="12.6974956"><ele>246.0</ele><time>2026-04-11T09:07:35.443Z</time></trkpt><trkpt lat="43.6808813" lon="12.6974564"><ele>247.0</ele><time>2026-04-11T09:07:36.443Z</time></trkpt><trkpt lat="43.6807952" lon="12.6974377"><ele>248.00000000000003</ele><time>2026-04-11T09:07:37.442Z</time></trkpt><trkpt lat="43.6806827" lon="12.6974329"><ele>249.00000000000003</ele><time>2026-04-11T09:07:38.444Z</time></trkpt><trkpt lat="43.6805765" lon="12.6974393"><ele>250.0</ele><time>2026-04-11T09:07:39.442Z</time></trkpt><trkpt lat="43.6804796" lon="12.6974488"><ele>251.0</ele><time>2026-04-11T09:07:40.443Z</time></trkpt><trkpt lat="43.6803933" lon="12.697461"><ele>251.00000000000003</ele><time>2026-04-11T09:07:41.443Z</time></trkpt><trkpt lat="43.6803158" lon="12.6974734"><ele>251.0</ele><time>2026-04-11T09:07:42.442Z</time></trkpt><trkpt lat="43.6802477" lon="12.697481"><ele>251.0</ele><time>2026-04-11T09:07:43.442Z</time></trkpt><trkpt lat="43.6801379" lon="12.6974242"><ele>251.0</ele><time>2026-04-11T09:07:45.442Z</time></trkpt><trkpt lat="43.6800834" lon="12.6973506"><ele>251.00000000000003</ele><time>2026-04-11T09:07:46.443Z</time></trkpt><trkpt lat="43.680014" lon="12.69726"><ele>251.0</ele><time>2026-04-11T09:07:47.443Z</time></trkpt><trkpt lat="43.6799236" lon="12.6971914"><ele>251.16666666666669</ele><time>2026-04-11T09:07:48.443Z</time></trkpt><trkpt lat="43.6798393" lon="12.6971382"><ele>251.33333333333334</ele><time>2026-04-11T09:07:49.442Z</time></trkpt><trkpt lat="43.6797724" lon="12.6970841"><ele>251.5</ele><time>2026-04-11T09:07:50.443Z</time></trkpt><trkpt lat="43.6797223" lon="12.6970259"><ele>251.66666666666669</ele><time>2026-04-11T09:07:51.442Z</time></trkpt><trkpt lat="43.6796872" lon="12.6969536"><ele>251.83333333333334</ele><time>2026-04-11T09:07:52.443Z</time></trkpt><trkpt lat="43.6797072" lon="12.6968146"><ele>252.0</ele><time>2026-04-11T09:07:54.442Z</time></trkpt><trkpt lat="43.6797617" lon="12.6967568"><ele>252.0</ele><time>2026-04-11T09:07:55.442Z</time></trkpt><trkpt lat="43.6798234" lon="12.6967156"><ele>252.0</ele><time>2026-04-11T09:07:56.442Z</time></trkpt><trkpt lat="43.6798998" lon="12.6965965"><ele>252.0</ele><time>2026-04-11T09:07:58.442Z</time></trkpt><trkpt lat="43.6799174" lon="12.6965023"><ele>252.0</ele><time>2026-04-11T09:07:59.442Z</time></trkpt><trkpt lat="43.6799308" lon="12.696399"><ele>252.0</ele><time>2026-04-11T09:08:00.442Z</time></trkpt><trkpt lat="43.6799639" lon="12.6963171"><ele>252.0</ele><time>2026-04-11T09:08:01.442Z</time></trkpt><trkpt lat="43.6800158" lon="12.6962438"><ele>252.0</ele><time>2026-04-11T09:08:02.442Z</time></trkpt><trkpt lat="43.6800829" lon="12.6961805"><ele>252.0</ele><time>2026-04-11T09:08:03.442Z</time></trkpt><trkpt lat="43.6801653" lon="12.6961012"><ele>252.0</ele><time>2026-04-11T09:08:04.442Z</time></trkpt><trkpt lat="43.680255" lon="12.6960142"><ele>252.0</ele><time>2026-04-11T09:08:05.442Z</time></trkpt><trkpt lat="43.6803552" lon="12.6959337"><ele>252.0</ele><time>2026-04-11T09:08:06.442Z</time></trkpt><trkpt lat="43.6804699" lon="12.6958659"><ele>257.6666666666667</ele><time>2026-04-11T09:08:07.442Z</time></trkpt><trkpt lat="43.6806128" lon="12.6958075"><ele>263.33333333333337</ele><time>2026-04-11T09:08:08.441Z</time></trkpt><trkpt lat="43.680768" lon="12.6957467"><ele>269.0</ele><time>2026-04-11T09:08:09.441Z</time></trkpt><trkpt lat="43.6809135" lon="12.6956915"><ele>269.0</ele><time>2026-04-11T09:08:10.442Z</time></trkpt><trkpt lat="43.6810504" lon="12.6956332"><ele>269.0</ele><time>2026-04-11T09:08:11.441Z</time></trkpt><trkpt lat="43.6811684" lon="12.6955739"><ele>269.0</ele><time>2026-04-11T09:08:12.441Z</time></trkpt><trkpt lat="43.6812759" lon="12.6955185"><ele>269.0</ele><time>2026-04-11T09:08:13.442Z</time></trkpt><trkpt lat="43.6813653" lon="12.6954934"><ele>270.2</ele><time>2026-04-11T09:08:14.441Z</time></trkpt><trkpt lat="43.6814441" lon="12.6954632"><ele>271.4</ele><time>2026-04-11T09:08:15.441Z</time></trkpt><trkpt lat="43.681512" lon="12.6954261"><ele>272.6</ele><time>2026-04-11T09:08:16.441Z</time></trkpt><trkpt lat="43.6815669" lon="12.6952918"><ele>273.8</ele><time>2026-04-11T09:08:18.441Z</time></trkpt><trkpt lat="43.681563" lon="12.6951782"><ele>275.0</ele><time>2026-04-11T09:08:19.441Z</time></trkpt><trkpt lat="43.6815388" lon="12.695036"><ele>275.0</ele><time>2026-04-11T09:08:20.442Z</time></trkpt><trkpt lat="43.6815013" lon="12.6948628"><ele>275.0</ele><time>2026-04-11T09:08:21.441Z</time></trkpt><trkpt lat="43.6814863" lon="12.6946848"><ele>275.0</ele><time>2026-04-11T09:08:22.442Z</time></trkpt><trkpt lat="43.681501" lon="12.6945487"><ele>275.0</ele><time>2026-04-11T09:08:23.442Z</time></trkpt><trkpt lat="43.6815279" lon="12.6944359"><ele>275.0</ele><time>2026-04-11T09:08:24.441Z</time></trkpt><trkpt lat="43.6815807" lon="12.6943616"><ele>277.0</ele><time>2026-04-11T09:08:25.442Z</time></trkpt><trkpt lat="43.6816536" lon="12.6943227"><ele>279.0</ele><time>2026-04-11T09:08:26.441Z</time></trkpt><trkpt lat="43.6817339" lon="12.6942988"><ele>281.0</ele><time>2026-04-11T09:08:27.442Z</time></trkpt><trkpt lat="43.6817976" lon="12.6942351"><ele>283.0</ele><time>2026-04-11T09:08:28.441Z</time></trkpt><trkpt lat="43.681864" lon="12.6941414"><ele>285.0</ele><time>2026-04-11T09:08:29.443Z</time></trkpt><trkpt lat="43.6819336" lon="12.6940321"><ele>287.0</ele><time>2026-04-11T09:08:30.441Z</time></trkpt><trkpt lat="43.6820063" lon="12.6939572"><ele>287.4</ele><time>2026-04-11T09:08:31.441Z</time></trkpt><trkpt lat="43.6820916" lon="12.6939097"><ele>287.79999999999995</ele><time>2026-04-11T09:08:32.441Z</time></trkpt><trkpt lat="43.6821828" lon="12.6939267"><ele>288.2</ele><time>2026-04-11T09:08:33.442Z</time></trkpt><trkpt lat="43.6822764" lon="12.6939855"><ele>288.59999999999997</ele><time>2026-04-11T09:08:34.443Z</time></trkpt><trkpt lat="43.6823893" lon="12.6940705"><ele>289.0</ele><time>2026-04-11T09:08:35.441Z</time></trkpt><trkpt lat="43.6824978" lon="12.6941398"><ele>289.0</ele><time>2026-04-11T09:08:36.441Z</time></trkpt><trkpt lat="43.6826108" lon="12.6941957"><ele>289.0</ele><time>2026-04-11T09:08:37.441Z</time></trkpt><trkpt lat="43.6827327" lon="12.6942492"><ele>289.0</ele><time>2026-04-11T09:08:38.441Z</time></trkpt><trkpt lat="43.6828635" lon="12.6942857"><ele>289.0</ele><time>2026-04-11T09:08:39.442Z</time></trkpt><trkpt lat="43.6829945" lon="12.6943243"><ele>290.0</ele><time>2026-04-11T09:08:40.441Z</time></trkpt><trkpt lat="43.6830832" lon="12.6943288"><ele>291.0</ele><time>2026-04-11T09:08:41.441Z</time></trkpt><trkpt lat="43.683166" lon="12.6943576"><ele>292.0</ele><time>2026-04-11T09:08:42.442Z</time></trkpt><trkpt lat="43.6832331" lon="12.6943613"><ele>293.0</ele><time>2026-04-11T09:08:43.442Z</time></trkpt><trkpt lat="43.6833059" lon="12.6942527"><ele>294.0</ele><time>2026-04-11T09:08:45.442Z</time></trkpt><trkpt lat="43.6832614" lon="12.6941288"><ele>295.0</ele><time>2026-04-11T09:08:47.441Z</time></trkpt><trkpt lat="43.683133" lon="12.6940592"><ele>295.0</ele><time>2026-04-11T09:08:49.442Z</time></trkpt><trkpt lat="43.68306" lon="12.6940218"><ele>295.0</ele><time>2026-04-11T09:08:50.441Z</time></trkpt><trkpt lat="43.6830006" lon="12.6939817"><ele>295.0</ele><time>2026-04-11T09:08:51.441Z</time></trkpt><trkpt lat="43.6829346" lon="12.6939312"><ele>295.0</ele><time>2026-04-11T09:08:52.441Z</time></trkpt><trkpt lat="43.6828711" lon="12.6938611"><ele>295.0</ele><time>2026-04-11T09:08:53.441Z</time></trkpt><trkpt lat="43.6828087" lon="12.693784"><ele>295.0</ele><time>2026-04-11T09:08:54.441Z</time></trkpt><trkpt lat="43.6827466" lon="12.6936867"><ele>298.5</ele><time>2026-04-11T09:08:55.442Z</time></trkpt><trkpt lat="43.6826918" lon="12.6935707"><ele>302.0</ele><time>2026-04-11T09:08:56.441Z</time></trkpt><trkpt lat="43.6826491" lon="12.6934402"><ele>305.5</ele><time>2026-04-11T09:08:57.441Z</time></trkpt><trkpt lat="43.6826057" lon="12.6932664"><ele>309.0</ele><time>2026-04-11T09:08:58.441Z</time></trkpt><trkpt lat="43.6825616" lon="12.6930551"><ele>309.0</ele><time>2026-04-11T09:08:59.441Z</time></trkpt><trkpt lat="43.682518" lon="12.6928885"><ele>309.0</ele><time>2026-04-11T09:09:00.441Z</time></trkpt><trkpt lat="43.6824733" lon="12.6927432"><ele>309.0</ele><time>2026-04-11T09:09:01.442Z</time></trkpt><trkpt lat="43.6824197" lon="12.692621"><ele>309.0</ele><time>2026-04-11T09:09:02.441Z</time></trkpt><trkpt lat="43.6823435" lon="12.6925154"><ele>311.0</ele><time>2026-04-11T09:09:03.441Z</time></trkpt><trkpt lat="43.6822445" lon="12.6924571"><ele>313.0</ele><time>2026-04-11T09:09:04.441Z</time></trkpt><trkpt lat="43.6821217" lon="12.6924381"><ele>315.0</ele><time>2026-04-11T09:09:05.441Z</time></trkpt><trkpt lat="43.6819734" lon="12.6924559"><ele>317.0</ele><time>2026-04-11T09:09:06.441Z</time></trkpt><trkpt lat="43.6817933" lon="12.6925057"><ele>318.75</ele><time>2026-04-11T09:09:07.441Z</time></trkpt><trkpt lat="43.6816137" lon="12.6925442"><ele>320.5</ele><time>2026-04-11T09:09:08.441Z</time></trkpt><trkpt lat="43.6814766" lon="12.6925544"><ele>322.25</ele><time>2026-04-11T09:09:09.441Z</time></trkpt><trkpt lat="43.681356" lon="12.6925583"><ele>324.0</ele><time>2026-04-11T09:09:10.441Z</time></trkpt><trkpt lat="43.6812561" lon="12.6925723"><ele>324.0</ele><time>2026-04-11T09:09:11.442Z</time></trkpt><trkpt lat="43.6811661" lon="12.6926208"><ele>324.0</ele><time>2026-04-11T09:09:12.441Z</time></trkpt><trkpt lat="43.6810819" lon="12.6927064"><ele>324.0</ele><time>2026-04-11T09:09:13.442Z</time></trkpt><trkpt lat="43.6809979" lon="12.6928244"><ele>324.0</ele><time>2026-04-11T09:09:14.441Z</time></trkpt><trkpt lat="43.6809119" lon="12.6929676"><ele>325.2</ele><time>2026-04-11T09:09:15.441Z</time></trkpt><trkpt lat="43.6808393" lon="12.6930821"><ele>326.4</ele><time>2026-04-11T09:09:16.442Z</time></trkpt><trkpt lat="43.6807549" lon="12.6931936"><ele>327.6</ele><time>2026-04-11T09:09:17.441Z</time></trkpt><trkpt lat="43.6806678" lon="12.693265"><ele>328.8</ele><time>2026-04-11T09:09:18.441Z</time></trkpt><trkpt lat="43.680596" lon="12.6932788"><ele>330.0</ele><time>2026-04-11T09:09:19.442Z</time></trkpt><trkpt lat="43.6805243" lon="12.6932388"><ele>330.0</ele><time>2026-04-11T09:09:21.441Z</time></trkpt><trkpt lat="43.6805537" lon="12.6931007"><ele>330.0</ele><time>2026-04-11T09:09:24.443Z</time></trkpt><trkpt lat="43.6805876" lon="12.6929959"><ele>330.0</ele><time>2026-04-11T09:09:25.442Z</time></trkpt><trkpt lat="43.6806308" lon="12.6928747"><ele>330.0</ele><time>2026-04-11T09:09:26.441Z</time></trkpt><trkpt lat="43.6806781" lon="12.6927385"><ele>330.0</ele><time>2026-04-11T09:09:27.442Z</time></trkpt><trkpt lat="43.6807356" lon="12.6925794"><ele>334.0</ele><time>2026-04-11T09:09:28.441Z</time></trkpt><trkpt lat="43.6807872" lon="12.692444"><ele>338.0</ele><time>2026-04-11T09:09:29.441Z</time></trkpt><trkpt lat="43.6808394" lon="12.6922986"><ele>342.0</ele><time>2026-04-11T09:09:30.441Z</time></trkpt><trkpt lat="43.6808914" lon="12.6921492"><ele>346.0</ele><time>2026-04-11T09:09:31.441Z</time></trkpt><trkpt lat="43.6809273" lon="12.691992"><ele>348.5</ele><time>2026-04-11T09:09:32.441Z</time></trkpt><trkpt lat="43.6809501" lon="12.6918165"><ele>351.0</ele><time>2026-04-11T09:09:33.442Z</time></trkpt><trkpt lat="43.680974" lon="12.6916266"><ele>353.5</ele><time>2026-04-11T09:09:34.441Z</time></trkpt><trkpt lat="43.680996" lon="12.6914553"><ele>356.0</ele><time>2026-04-11T09:09:35.441Z</time></trkpt><trkpt lat="43.6810229" lon="12.6912897"><ele>356.0</ele><time>2026-04-11T09:09:36.442Z</time></trkpt><trkpt lat="43.6810508" lon="12.6911199"><ele>356.0</ele><time>2026-04-11T09:09:37.442Z</time></trkpt><trkpt lat="43.6810782" lon="12.6909371"><ele>356.0</ele><time>2026-04-11T09:09:38.441Z</time></trkpt><trkpt lat="43.6811099" lon="12.690779"><ele>356.0</ele><time>2026-04-11T09:09:39.441Z</time></trkpt><trkpt lat="43.6811312" lon="12.6906335"><ele>357.0</ele><time>2026-04-11T09:09:40.441Z</time></trkpt><trkpt lat="43.6811506" lon="12.6905077"><ele>358.0</ele><time>2026-04-11T09:09:41.441Z</time></trkpt><trkpt lat="43.6811649" lon="12.6904003"><ele>359.0</ele><time>2026-04-11T09:09:42.442Z</time></trkpt><trkpt lat="43.6811542" lon="12.6902977"><ele>360.0</ele><time>2026-04-11T09:09:43.441Z</time></trkpt><trkpt lat="43.6811145" lon="12.6901946"><ele>361.0</ele><time>2026-04-11T09:09:44.441Z</time></trkpt><trkpt lat="43.6810578" lon="12.690098"><ele>362.0</ele><time>2026-04-11T09:09:45.441Z</time></trkpt><trkpt lat="43.6810187" lon="12.689999"><ele>362.0</ele><time>2026-04-11T09:09:46.443Z</time></trkpt><trkpt lat="43.6809977" lon="12.6898802"><ele>362.0</ele><time>2026-04-11T09:09:47.442Z</time></trkpt><trkpt lat="43.6810036" lon="12.6897174"><ele>362.0</ele><time>2026-04-11T09:09:48.442Z</time></trkpt><trkpt lat="43.6810258" lon="12.6895208"><ele>362.0</ele><time>2026-04-11T09:09:49.441Z</time></trkpt><trkpt lat="43.6810567" lon="12.6893493"><ele>360.6</ele><time>2026-04-11T09:09:50.441Z</time></trkpt><trkpt lat="43.6810979" lon="12.6891832"><ele>359.20000000000005</ele><time>2026-04-11T09:09:51.441Z</time></trkpt><trkpt lat="43.6811437" lon="12.6890328"><ele>357.8</ele><time>2026-04-11T09:09:52.441Z</time></trkpt><trkpt lat="43.6811863" lon="12.6889024"><ele>356.4</ele><time>2026-04-11T09:09:53.441Z</time></trkpt><trkpt lat="43.6812172" lon="12.6887761"><ele>355.0</ele><time>2026-04-11T09:09:54.441Z</time></trkpt><trkpt lat="43.6812238" lon="12.6886421"><ele>352.6</ele><time>2026-04-11T09:09:55.441Z</time></trkpt><trkpt lat="43.6812109" lon="12.6885104"><ele>350.2</ele><time>2026-04-11T09:09:56.441Z</time></trkpt><trkpt lat="43.681181" lon="12.6883828"><ele>347.79999999999995</ele><time>2026-04-11T09:09:57.441Z</time></trkpt><trkpt lat="43.68113" lon="12.6882365"><ele>345.4</ele><time>2026-04-11T09:09:58.441Z</time></trkpt><trkpt lat="43.6810923" lon="12.6880988"><ele>343.0</ele><time>2026-04-11T09:09:59.441Z</time></trkpt><trkpt lat="43.6810627" lon="12.6879876"><ele>343.0</ele><time>2026-04-11T09:10:00.442Z</time></trkpt><trkpt lat="43.6810195" lon="12.6879076"><ele>343.0</ele><time>2026-04-11T09:10:01.442Z</time></trkpt><trkpt lat="43.6809523" lon="12.6878601"><ele>343.0</ele><time>2026-04-11T09:10:02.441Z</time></trkpt><trkpt lat="43.6808685" lon="12.687841"><ele>343.0</ele><time>2026-04-11T09:10:03.442Z</time></trkpt><trkpt lat="43.6807567" lon="12.687846"><ele>343.0</ele><time>2026-04-11T09:10:04.442Z</time></trkpt><trkpt lat="43.6806086" lon="12.6878499"><ele>343.0</ele><time>2026-04-11T09:10:05.441Z</time></trkpt><trkpt lat="43.6804357" lon="12.6878373"><ele>343.0</ele><time>2026-04-11T09:10:06.442Z</time></trkpt><trkpt lat="43.6802857" lon="12.6878151"><ele>343.0</ele><time>2026-04-11T09:10:07.441Z</time></trkpt><trkpt lat="43.6801437" lon="12.6878056"><ele>339.75</ele><time>2026-04-11T09:10:08.442Z</time></trkpt><trkpt lat="43.6800159" lon="12.6878045"><ele>336.5</ele><time>2026-04-11T09:10:09.442Z</time></trkpt><trkpt lat="43.6799024" lon="12.6877941"><ele>333.25</ele><time>2026-04-11T09:10:10.442Z</time></trkpt><trkpt lat="43.6797855" lon="12.6877501"><ele>330.0</ele><time>2026-04-11T09:10:11.442Z</time></trkpt><trkpt lat="43.679682" lon="12.687668"><ele>330.0</ele><time>2026-04-11T09:10:12.441Z</time></trkpt><trkpt lat="43.6795587" lon="12.6875379"><ele>330.0</ele><time>2026-04-11T09:10:13.441Z</time></trkpt><trkpt lat="43.6794571" lon="12.6874077"><ele>330.0</ele><time>2026-04-11T09:10:14.442Z</time></trkpt><trkpt lat="43.6793789" lon="12.6872933"><ele>330.0</ele><time>2026-04-11T09:10:15.442Z</time></trkpt><trkpt lat="43.6793188" lon="12.6871792"><ele>330.1666666666667</ele><time>2026-04-11T09:10:16.441Z</time></trkpt><trkpt lat="43.6792845" lon="12.6870631"><ele>330.3333333333333</ele><time>2026-04-11T09:10:17.441Z</time></trkpt><trkpt lat="43.6792751" lon="12.6869505"><ele>330.5</ele><time>2026-04-11T09:10:18.441Z</time></trkpt><trkpt lat="43.6792937" lon="12.6868428"><ele>330.66666666666663</ele><time>2026-04-11T09:10:19.441Z</time></trkpt><trkpt lat="43.6793426" lon="12.6867487"><ele>330.8333333333333</ele><time>2026-04-11T09:10:20.442Z</time></trkpt><trkpt lat="43.6794248" lon="12.686663"><ele>331.0</ele><time>2026-04-11T09:10:21.441Z</time></trkpt><trkpt lat="43.6795141" lon="12.6865728"><ele>331.0</ele><time>2026-04-11T09:10:22.442Z</time></trkpt><trkpt lat="43.6795948" lon="12.686487"><ele>331.0</ele><time>2026-04-11T09:10:23.442Z</time></trkpt><trkpt lat="43.6796756" lon="12.6864321"><ele>331.0</ele><time>2026-04-11T09:10:24.441Z</time></trkpt><trkpt lat="43.679756" lon="12.6864344"><ele>331.0</ele><time>2026-04-11T09:10:25.441Z</time></trkpt><trkpt lat="43.679849" lon="12.6864886"><ele>331.0</ele><time>2026-04-11T09:10:26.441Z</time></trkpt><trkpt lat="43.6799345" lon="12.6865392"><ele>331.0</ele><time>2026-04-11T09:10:27.442Z</time></trkpt><trkpt lat="43.6800145" lon="12.6865542"><ele>331.0</ele><time>2026-04-11T09:10:28.441Z</time></trkpt><trkpt lat="43.6801042" lon="12.686531"><ele>331.0</ele><time>2026-04-11T09:10:29.442Z</time></trkpt><trkpt lat="43.6802049" lon="12.6864639"><ele>331.0</ele><time>2026-04-11T09:10:30.441Z</time></trkpt><trkpt lat="43.6803094" lon="12.6863609"><ele>331.0</ele><time>2026-04-11T09:10:31.441Z</time></trkpt><trkpt lat="43.6804385" lon="12.6862295"><ele>335.66666666666663</ele><time>2026-04-11T09:10:32.441Z</time></trkpt><trkpt lat="43.6805971" lon="12.6860891"><ele>340.3333333333333</ele><time>2026-04-11T09:10:33.443Z</time></trkpt><trkpt lat="43.680762" lon="12.6859401"><ele>345.0</ele><time>2026-04-11T09:10:34.441Z</time></trkpt><trkpt lat="43.6809094" lon="12.6858088"><ele>345.0</ele><time>2026-04-11T09:10:35.441Z</time></trkpt><trkpt lat="43.6810321" lon="12.6856867"><ele>345.0</ele><time>2026-04-11T09:10:36.441Z</time></trkpt><trkpt lat="43.6811452" lon="12.6855804"><ele>345.0</ele><time>2026-04-11T09:10:37.441Z</time></trkpt><trkpt lat="43.6812457" lon="12.6854984"><ele>345.0</ele><time>2026-04-11T09:10:38.441Z</time></trkpt><trkpt lat="43.6813327" lon="12.6854281"><ele>345.0</ele><time>2026-04-11T09:10:39.441Z</time></trkpt><trkpt lat="43.6814023" lon="12.685368"><ele>345.0</ele><time>2026-04-11T09:10:40.441Z</time></trkpt><trkpt lat="43.6814537" lon="12.6853078"><ele>345.0</ele><time>2026-04-11T09:10:41.441Z</time></trkpt><trkpt lat="43.681493" lon="12.6852267"><ele>345.0</ele><time>2026-04-11T09:10:42.441Z</time></trkpt><trkpt lat="43.6815249" lon="12.6851072"><ele>345.0</ele><time>2026-04-11T09:10:43.441Z</time></trkpt><trkpt lat="43.681547" lon="12.6849629"><ele>345.0</ele><time>2026-04-11T09:10:44.442Z</time></trkpt><trkpt lat="43.6815691" lon="12.684802"><ele>345.0</ele><time>2026-04-11T09:10:45.441Z</time></trkpt><trkpt lat="43.6816164" lon="12.6846755"><ele>345.0</ele><time>2026-04-11T09:10:46.442Z</time></trkpt><trkpt lat="43.6816859" lon="12.6845685"><ele>345.0</ele><time>2026-04-11T09:10:47.442Z</time></trkpt><trkpt lat="43.6817693" lon="12.6844579"><ele>345.0</ele><time>2026-04-11T09:10:48.441Z</time></trkpt><trkpt lat="43.6818287" lon="12.684356"><ele>345.0</ele><time>2026-04-11T09:10:49.441Z</time></trkpt><trkpt lat="43.6818756" lon="12.6842488"><ele>346.0</ele><time>2026-04-11T09:10:50.441Z</time></trkpt><trkpt lat="43.6819156" lon="12.6841106"><ele>347.0</ele><time>2026-04-11T09:10:51.441Z</time></trkpt><trkpt lat="43.6819611" lon="12.683934"><ele>348.0</ele><time>2026-04-11T09:10:52.442Z</time></trkpt><trkpt lat="43.6820207" lon="12.6837313"><ele>349.0</ele><time>2026-04-11T09:10:53.441Z</time></trkpt><trkpt lat="43.6820822" lon="12.6835372"><ele>353.5</ele><time>2026-04-11T09:10:54.441Z</time></trkpt><trkpt lat="43.682144" lon="12.6833785"><ele>358.0</ele><time>2026-04-11T09:10:55.441Z</time></trkpt><trkpt lat="43.6822062" lon="12.6832457"><ele>362.5</ele><time>2026-04-11T09:10:56.441Z</time></trkpt><trkpt lat="43.6822752" lon="12.6831296"><ele>367.0</ele><time>2026-04-11T09:10:57.441Z</time></trkpt><trkpt lat="43.6823543" lon="12.6830284"><ele>367.0</ele><time>2026-04-11T09:10:58.443Z</time></trkpt><trkpt lat="43.6824365" lon="12.6829316"><ele>367.0</ele><time>2026-04-11T09:10:59.442Z</time></trkpt><trkpt lat="43.6825279" lon="12.6829043"><ele>367.0</ele><time>2026-04-11T09:11:00.442Z</time></trkpt><trkpt lat="43.6826139" lon="12.6828491"><ele>367.0</ele><time>2026-04-11T09:11:02.441Z</time></trkpt><trkpt lat="43.6826051" lon="12.6827015"><ele>367.0</ele><time>2026-04-11T09:11:11.442Z</time></trkpt><trkpt lat="43.6825607" lon="12.6826053"><ele>368.25</ele><time>2026-04-11T09:11:12.441Z</time></trkpt><trkpt lat="43.6825091" lon="12.682486"><ele>369.5</ele><time>2026-04-11T09:11:13.442Z</time></trkpt><trkpt lat="43.6824571" lon="12.6823347"><ele>370.75</ele><time>2026-04-11T09:11:14.441Z</time></trkpt><trkpt lat="43.6824107" lon="12.6821619"><ele>372.0</ele><time>2026-04-11T09:11:15.441Z</time></trkpt><trkpt lat="43.6823616" lon="12.6819686"><ele>371.0</ele><time>2026-04-11T09:11:16.443Z</time></trkpt><trkpt lat="43.6823117" lon="12.6817541"><ele>370.0</ele><time>2026-04-11T09:11:17.441Z</time></trkpt><trkpt lat="43.6822716" lon="12.6815606"><ele>369.0</ele><time>2026-04-11T09:11:18.441Z</time></trkpt><trkpt lat="43.6822304" lon="12.6813718"><ele>369.0</ele><time>2026-04-11T09:11:19.441Z</time></trkpt><trkpt lat="43.6821824" lon="12.6811664"><ele>369.0</ele><time>2026-04-11T09:11:20.442Z</time></trkpt><trkpt lat="43.6821324" lon="12.6809526"><ele>369.0</ele><time>2026-04-11T09:11:21.441Z</time></trkpt><trkpt lat="43.682094" lon="12.6807706"><ele>368.79999999999995</ele><time>2026-04-11T09:11:22.441Z</time></trkpt><trkpt lat="43.6820607" lon="12.6806111"><ele>368.59999999999997</ele><time>2026-04-11T09:11:23.442Z</time></trkpt><trkpt lat="43.6820413" lon="12.6804689"><ele>368.4</ele><time>2026-04-11T09:11:24.441Z</time></trkpt><trkpt lat="43.6820452" lon="12.6803421"><ele>368.2</ele><time>2026-04-11T09:11:25.443Z</time></trkpt><trkpt lat="43.6820513" lon="12.6802098"><ele>368.0</ele><time>2026-04-11T09:11:26.442Z</time></trkpt><trkpt lat="43.682064" lon="12.6800825"><ele>369.0</ele><time>2026-04-11T09:11:27.441Z</time></trkpt><trkpt lat="43.6820618" lon="12.6799797"><ele>370.0</ele><time>2026-04-11T09:11:28.442Z</time></trkpt><trkpt lat="43.6820867" lon="12.6798112"><ele>371.0</ele><time>2026-04-11T09:11:30.442Z</time></trkpt><trkpt lat="43.6821264" lon="12.679712"><ele>372.0</ele><time>2026-04-11T09:11:31.442Z</time></trkpt><trkpt lat="43.6821749" lon="12.6796299"><ele>373.0</ele><time>2026-04-11T09:11:32.441Z</time></trkpt><trkpt lat="43.6822287" lon="12.6795484"><ele>374.0</ele><time>2026-04-11T09:11:33.441Z</time></trkpt><trkpt lat="43.6822812" lon="12.6794808"><ele>374.0</ele><time>2026-04-11T09:11:34.442Z</time></trkpt><trkpt lat="43.6823321" lon="12.6794258"><ele>374.0</ele><time>2026-04-11T09:11:35.441Z</time></trkpt><trkpt lat="43.6824597" lon="12.6793662"><ele>374.0</ele><time>2026-04-11T09:11:37.442Z</time></trkpt><trkpt lat="43.6825892" lon="12.6793491"><ele>374.0</ele><time>2026-04-11T09:11:38.441Z</time></trkpt><trkpt lat="43.6827017" lon="12.679354"><ele>374.0</ele><time>2026-04-11T09:11:39.441Z</time></trkpt><trkpt lat="43.6828389" lon="12.6793531"><ele>374.0</ele><time>2026-04-11T09:11:40.441Z</time></trkpt><trkpt lat="43.6829481" lon="12.6793532"><ele>374.0</ele><time>2026-04-11T09:11:41.441Z</time></trkpt><trkpt lat="43.6830512" lon="12.6793666"><ele>374.0</ele><time>2026-04-11T09:11:42.442Z</time></trkpt><trkpt lat="43.6831396" lon="12.6793728"><ele>374.0</ele><time>2026-04-11T09:11:43.442Z</time></trkpt><trkpt lat="43.6832107" lon="12.6793964"><ele>374.0</ele><time>2026-04-11T09:11:44.441Z</time></trkpt><trkpt lat="43.6833036" lon="12.679461"><ele>370.79999999999995</ele><time>2026-04-11T09:11:46.442Z</time></trkpt><trkpt lat="43.683283" lon="12.6795821"><ele>367.59999999999997</ele><time>2026-04-11T09:11:48.442Z</time></trkpt><trkpt lat="43.6831914" lon="12.6796809"><ele>364.4</ele><time>2026-04-11T09:11:50.442Z</time></trkpt><trkpt lat="43.6830979" lon="12.6797622"><ele>361.2</ele><time>2026-04-11T09:11:51.441Z</time></trkpt><trkpt lat="43.6830342" lon="12.6798453"><ele>358.0</ele><time>2026-04-11T09:11:52.441Z</time></trkpt><trkpt lat="43.6829916" lon="12.6799605"><ele>358.0</ele><time>2026-04-11T09:11:53.441Z</time></trkpt><trkpt lat="43.6829305" lon="12.6800721"><ele>358.0</ele><time>2026-04-11T09:11:54.441Z</time></trkpt><trkpt lat="43.6828755" lon="12.6801654"><ele>358.0</ele><time>2026-04-11T09:11:55.441Z</time></trkpt><trkpt lat="43.6828154" lon="12.6802309"><ele>358.0</ele><time>2026-04-11T09:11:56.441Z</time></trkpt><trkpt lat="43.6827301" lon="12.6803073"><ele>358.0</ele><time>2026-04-11T09:11:57.441Z</time></trkpt><trkpt lat="43.6826661" lon="12.6803759"><ele>358.0</ele><time>2026-04-11T09:11:58.443Z</time></trkpt><trkpt lat="43.682608" lon="12.6804478"><ele>357.0</ele><time>2026-04-11T09:11:59.442Z</time></trkpt><trkpt lat="43.6825662" lon="12.6805334"><ele>356.0</ele><time>2026-04-11T09:12:00.441Z</time></trkpt><trkpt lat="43.6825647" lon="12.6806353"><ele>355.0</ele><time>2026-04-11T09:12:01.441Z</time></trkpt><trkpt lat="43.6825581" lon="12.6807324"><ele>354.0</ele><time>2026-04-11T09:12:02.441Z</time></trkpt><trkpt lat="43.6826052" lon="12.6808255"><ele>353.0</ele><time>2026-04-11T09:12:04.441Z</time></trkpt><trkpt lat="43.6827186" lon="12.6808012"><ele>352.0</ele><time>2026-04-11T09:12:06.442Z</time></trkpt><trkpt lat="43.6827695" lon="12.6807375"><ele>352.0</ele><time>2026-04-11T09:12:07.441Z</time></trkpt><trkpt lat="43.6828131" lon="12.6806423"><ele>352.0</ele><time>2026-04-11T09:12:08.441Z</time></trkpt><trkpt lat="43.6828672" lon="12.6805604"><ele>352.0</ele><time>2026-04-11T09:12:09.443Z</time></trkpt><trkpt lat="43.6829239" lon="12.6805027"><ele>352.0</ele><time>2026-04-11T09:12:10.442Z</time></trkpt><trkpt lat="43.6829953" lon="12.6804624"><ele>352.0</ele><time>2026-04-11T09:12:11.441Z</time></trkpt><trkpt lat="43.683106" lon="12.6804228"><ele>352.0</ele><time>2026-04-11T09:12:12.441Z</time></trkpt><trkpt lat="43.6832019" lon="12.6803924"><ele>352.0</ele><time>2026-04-11T09:12:13.441Z</time></trkpt><trkpt lat="43.6832861" lon="12.6803609"><ele>352.0</ele><time>2026-04-11T09:12:14.442Z</time></trkpt><trkpt lat="43.683364" lon="12.6802976"><ele>352.0</ele><time>2026-04-11T09:12:15.441Z</time></trkpt><trkpt lat="43.683432" lon="12.680231"><ele>352.0</ele><time>2026-04-11T09:12:16.441Z</time></trkpt><trkpt lat="43.683487" lon="12.6801739"><ele>352.0</ele><time>2026-04-11T09:12:17.441Z</time></trkpt><trkpt lat="43.6835432" lon="12.6801016"><ele>352.0</ele><time>2026-04-11T09:12:18.442Z</time></trkpt><trkpt lat="43.6836026" lon="12.6800128"><ele>349.8333333333333</ele><time>2026-04-11T09:12:19.441Z</time></trkpt><trkpt lat="43.6836561" lon="12.6799292"><ele>347.66666666666663</ele><time>2026-04-11T09:12:20.441Z</time></trkpt><trkpt lat="43.6837068" lon="12.679861"><ele>345.5</ele><time>2026-04-11T09:12:21.441Z</time></trkpt><trkpt lat="43.6837797" lon="12.6797969"><ele>343.3333333333333</ele><time>2026-04-11T09:12:22.441Z</time></trkpt><trkpt lat="43.683871" lon="12.6797221"><ele>341.1666666666667</ele><time>2026-04-11T09:12:23.441Z</time></trkpt><trkpt lat="43.6839578" lon="12.6796561"><ele>339.0</ele><time>2026-04-11T09:12:24.441Z</time></trkpt><trkpt lat="43.6840494" lon="12.6795709"><ele>339.0</ele><time>2026-04-11T09:12:25.441Z</time></trkpt><trkpt lat="43.6841236" lon="12.6794965"><ele>339.0</ele><time>2026-04-11T09:12:26.442Z</time></trkpt><trkpt lat="43.684199" lon="12.6794313"><ele>339.0</ele><time>2026-04-11T09:12:27.441Z</time></trkpt><trkpt lat="43.6842746" lon="12.6793712"><ele>339.0</ele><time>2026-04-11T09:12:28.442Z</time></trkpt><trkpt lat="43.6843814" lon="12.6793016"><ele>339.0</ele><time>2026-04-11T09:12:29.442Z</time></trkpt><trkpt lat="43.6844674" lon="12.6792481"><ele>337.5</ele><time>2026-04-11T09:12:30.442Z</time></trkpt><trkpt lat="43.6845371" lon="12.6791974"><ele>336.0</ele><time>2026-04-11T09:12:31.441Z</time></trkpt><trkpt lat="43.6845954" lon="12.6791463"><ele>334.5</ele><time>2026-04-11T09:12:32.441Z</time></trkpt><trkpt lat="43.6846451" lon="12.6790719"><ele>333.0</ele><time>2026-04-11T09:12:33.441Z</time></trkpt><trkpt lat="43.6846894" lon="12.6789896"><ele>331.5</ele><time>2026-04-11T09:12:34.442Z</time></trkpt><trkpt lat="43.6847325" lon="12.6788813"><ele>330.0</ele><time>2026-04-11T09:12:35.441Z</time></trkpt><trkpt lat="43.6847777" lon="12.6787918"><ele>330.0</ele><time>2026-04-11T09:12:36.441Z</time></trkpt><trkpt lat="43.6848116" lon="12.6787093"><ele>330.0</ele><time>2026-04-11T09:12:37.441Z</time></trkpt><trkpt lat="43.6848779" lon="12.6785609"><ele>330.0</ele><time>2026-04-11T09:12:39.441Z</time></trkpt><trkpt lat="43.6849172" lon="12.6784924"><ele>330.0</ele><time>2026-04-11T09:12:40.443Z</time></trkpt><trkpt lat="43.684994" lon="12.678368"><ele>330.0</ele><time>2026-04-11T09:12:42.442Z</time></trkpt><trkpt lat="43.685111" lon="12.6783184"><ele>329.8333333333333</ele><time>2026-04-11T09:12:44.441Z</time></trkpt><trkpt lat="43.6851841" lon="12.6783304"><ele>329.6666666666667</ele><time>2026-04-11T09:12:45.441Z</time></trkpt><trkpt lat="43.6852605" lon="12.6783607"><ele>329.5</ele><time>2026-04-11T09:12:46.441Z</time></trkpt><trkpt lat="43.68536" lon="12.6783775"><ele>329.33333333333337</ele><time>2026-04-11T09:12:47.441Z</time></trkpt><trkpt lat="43.6854634" lon="12.678391"><ele>329.1666666666667</ele><time>2026-04-11T09:12:48.442Z</time></trkpt><trkpt lat="43.6855492" lon="12.6784019"><ele>329.0</ele><time>2026-04-11T09:12:49.441Z</time></trkpt><trkpt lat="43.6856337" lon="12.678403"><ele>326.6666666666667</ele><time>2026-04-11T09:12:50.441Z</time></trkpt><trkpt lat="43.6857194" lon="12.6784002"><ele>324.33333333333337</ele><time>2026-04-11T09:12:51.442Z</time></trkpt><trkpt lat="43.6858005" lon="12.6783847"><ele>322.0</ele><time>2026-04-11T09:12:52.441Z</time></trkpt><trkpt lat="43.6858766" lon="12.6783341"><ele>319.6666666666667</ele><time>2026-04-11T09:12:53.441Z</time></trkpt><trkpt lat="43.6859474" lon="12.6782739"><ele>317.3333333333333</ele><time>2026-04-11T09:12:54.441Z</time></trkpt><trkpt lat="43.6860127" lon="12.6782133"><ele>315.0</ele><time>2026-04-11T09:12:55.441Z</time></trkpt><trkpt lat="43.6860679" lon="12.6781569"><ele>315.0</ele><time>2026-04-11T09:12:56.442Z</time></trkpt><trkpt lat="43.6861222" lon="12.6781127"><ele>315.0</ele><time>2026-04-11T09:12:57.441Z</time></trkpt><trkpt lat="43.686204" lon="12.6780102"><ele>315.0</ele><time>2026-04-11T09:12:59.44Z</time></trkpt><trkpt lat="43.6861643" lon="12.6778797"><ele>315.0</ele><time>2026-04-11T09:13:01.442Z</time></trkpt><trkpt lat="43.6860437" lon="12.6778304"><ele>315.0</ele><time>2026-04-11T09:13:03.44Z</time></trkpt><trkpt lat="43.6859757" lon="12.6778417"><ele>315.0</ele><time>2026-04-11T09:13:04.441Z</time></trkpt><trkpt lat="43.6858975" lon="12.6778905"><ele>315.0</ele><time>2026-04-11T09:13:05.441Z</time></trkpt><trkpt lat="43.6857942" lon="12.6779247"><ele>315.0</ele><time>2026-04-11T09:13:07.44Z</time></trkpt><trkpt lat="43.6857205" lon="12.677896"><ele>315.0</ele><time>2026-04-11T09:13:08.44Z</time></trkpt><trkpt lat="43.6856153" lon="12.6778619"><ele>315.0</ele><time>2026-04-11T09:13:09.44Z</time></trkpt><trkpt lat="43.6855222" lon="12.6778376"><ele>315.0</ele><time>2026-04-11T09:13:10.44Z</time></trkpt><trkpt lat="43.685428" lon="12.6778121"><ele>315.0</ele><time>2026-04-11T09:13:11.44Z</time></trkpt><trkpt lat="43.6853227" lon="12.6777967"><ele>315.0</ele><time>2026-04-11T09:13:12.441Z</time></trkpt><trkpt lat="43.685221" lon="12.6777835"><ele>315.0</ele><time>2026-04-11T09:13:13.44Z</time></trkpt><trkpt lat="43.6851329" lon="12.6777733"><ele>315.0</ele><time>2026-04-11T09:13:14.44Z</time></trkpt><trkpt lat="43.685059" lon="12.6777473"><ele>314.2</ele><time>2026-04-11T09:13:15.44Z</time></trkpt><trkpt lat="43.6850096" lon="12.6776898"><ele>313.4</ele><time>2026-04-11T09:13:16.441Z</time></trkpt><trkpt lat="43.6849696" lon="12.6776005"><ele>312.6</ele><time>2026-04-11T09:13:17.44Z</time></trkpt><trkpt lat="43.6849322" lon="12.6774739"><ele>311.8</ele><time>2026-04-11T09:13:18.44Z</time></trkpt><trkpt lat="43.6848878" lon="12.6773027"><ele>311.0</ele><time>2026-04-11T09:13:19.44Z</time></trkpt><trkpt lat="43.6848551" lon="12.6771431"><ele>311.0</ele><time>2026-04-11T09:13:20.441Z</time></trkpt><trkpt lat="43.6848325" lon="12.6770013"><ele>311.0</ele><time>2026-04-11T09:13:21.44Z</time></trkpt><trkpt lat="43.6848169" lon="12.6768716"><ele>311.0</ele><time>2026-04-11T09:13:22.44Z</time></trkpt><trkpt lat="43.6848188" lon="12.6767369"><ele>311.0</ele><time>2026-04-11T09:13:23.44Z</time></trkpt><trkpt lat="43.6848309" lon="12.6765948"><ele>311.0</ele><time>2026-04-11T09:13:24.44Z</time></trkpt><trkpt lat="43.6848348" lon="12.6764734"><ele>309.1666666666667</ele><time>2026-04-11T09:13:25.441Z</time></trkpt><trkpt lat="43.6848159" lon="12.6763595"><ele>307.33333333333337</ele><time>2026-04-11T09:13:26.441Z</time></trkpt><trkpt lat="43.6847747" lon="12.6762501"><ele>305.5</ele><time>2026-04-11T09:13:27.44Z</time></trkpt><trkpt lat="43.6847462" lon="12.6761381"><ele>303.6666666666667</ele><time>2026-04-11T09:13:28.44Z</time></trkpt><trkpt lat="43.68473" lon="12.6760234"><ele>301.8333333333333</ele><time>2026-04-11T09:13:29.44Z</time></trkpt><trkpt lat="43.6847281" lon="12.6758984"><ele>300.0</ele><time>2026-04-11T09:13:30.441Z</time></trkpt><trkpt lat="43.6847393" lon="12.6757442"><ele>298.1666666666667</ele><time>2026-04-11T09:13:31.44Z</time></trkpt><trkpt lat="43.6847474" lon="12.6756131"><ele>296.3333333333333</ele><time>2026-04-11T09:13:32.44Z</time></trkpt><trkpt lat="43.6847572" lon="12.6754871"><ele>294.5</ele><time>2026-04-11T09:13:33.44Z</time></trkpt><trkpt lat="43.6847471" lon="12.6753833"><ele>292.66666666666663</ele><time>2026-04-11T09:13:34.44Z</time></trkpt><trkpt lat="43.684697" lon="12.6752412"><ele>290.8333333333333</ele><time>2026-04-11T09:13:36.44Z</time></trkpt><trkpt lat="43.6846415" lon="12.6751933"><ele>289.0</ele><time>2026-04-11T09:13:37.44Z</time></trkpt><trkpt lat="43.6845563" lon="12.6751488"><ele>290.0</ele><time>2026-04-11T09:13:38.44Z</time></trkpt><trkpt lat="43.684441" lon="12.6750862"><ele>291.0</ele><time>2026-04-11T09:13:39.44Z</time></trkpt><trkpt lat="43.6843612" lon="12.6750162"><ele>292.0</ele><time>2026-04-11T09:13:40.44Z</time></trkpt><trkpt lat="43.6842878" lon="12.6749381"><ele>293.0</ele><time>2026-04-11T09:13:41.44Z</time></trkpt><trkpt lat="43.6842168" lon="12.674867"><ele>294.0</ele><time>2026-04-11T09:13:42.44Z</time></trkpt><trkpt lat="43.6841536" lon="12.6747995"><ele>294.0</ele><time>2026-04-11T09:13:43.441Z</time></trkpt><trkpt lat="43.684092" lon="12.6747383"><ele>294.0</ele><time>2026-04-11T09:13:44.441Z</time></trkpt><trkpt lat="43.6840336" lon="12.6746837"><ele>294.0</ele><time>2026-04-11T09:13:45.44Z</time></trkpt><trkpt lat="43.6839801" lon="12.6746293"><ele>294.0</ele><time>2026-04-11T09:13:46.441Z</time></trkpt><trkpt lat="43.6839049" lon="12.6745432"><ele>294.0</ele><time>2026-04-11T09:13:48.441Z</time></trkpt><trkpt lat="43.683891" lon="12.6744386"><ele>294.0</ele><time>2026-04-11T09:13:50.44Z</time></trkpt><trkpt lat="43.6839519" lon="12.6742754"><ele>292.75</ele><time>2026-04-11T09:13:52.442Z</time></trkpt><trkpt lat="43.6839892" lon="12.6741472"><ele>291.5</ele><time>2026-04-11T09:13:53.44Z</time></trkpt><trkpt lat="43.6840295" lon="12.6739911"><ele>290.25</ele><time>2026-04-11T09:13:54.441Z</time></trkpt><trkpt lat="43.6840724" lon="12.6738411"><ele>289.0</ele><time>2026-04-11T09:13:55.44Z</time></trkpt><trkpt lat="43.6841248" lon="12.6736726"><ele>291.0</ele><time>2026-04-11T09:13:56.44Z</time></trkpt><trkpt lat="43.6841933" lon="12.6735303"><ele>293.0</ele><time>2026-04-11T09:13:57.441Z</time></trkpt><trkpt lat="43.6842898" lon="12.6733866"><ele>295.0</ele><time>2026-04-11T09:13:58.441Z</time></trkpt><trkpt lat="43.6843971" lon="12.6732595"><ele>297.0</ele><time>2026-04-11T09:13:59.44Z</time></trkpt><trkpt lat="43.6844848" lon="12.6731326"><ele>294.0</ele><time>2026-04-11T09:14:00.44Z</time></trkpt><trkpt lat="43.6845867" lon="12.6729727"><ele>291.0</ele><time>2026-04-11T09:14:01.44Z</time></trkpt><trkpt lat="43.6846956" lon="12.6728095"><ele>288.0</ele><time>2026-04-11T09:14:02.44Z</time></trkpt><trkpt lat="43.6847865" lon="12.672653"><ele>288.0</ele><time>2026-04-11T09:14:03.44Z</time></trkpt><trkpt lat="43.6848631" lon="12.6725084"><ele>288.0</ele><time>2026-04-11T09:14:04.442Z</time></trkpt><trkpt lat="43.6849169" lon="12.6723612"><ele>288.0</ele><time>2026-04-11T09:14:05.44Z</time></trkpt><trkpt lat="43.6849561" lon="12.6722173"><ele>288.0</ele><time>2026-04-11T09:14:06.44Z</time></trkpt><trkpt lat="43.6850123" lon="12.6720956"><ele>288.0</ele><time>2026-04-11T09:14:07.44Z</time></trkpt><trkpt lat="43.6850802" lon="12.6719696"><ele>288.0</ele><time>2026-04-11T09:14:08.44Z</time></trkpt><trkpt lat="43.6851495" lon="12.6718324"><ele>288.0</ele><time>2026-04-11T09:14:09.441Z</time></trkpt><trkpt lat="43.6851953" lon="12.6717238"><ele>288.0</ele><time>2026-04-11T09:14:10.44Z</time></trkpt><trkpt lat="43.6852301" lon="12.6716319"><ele>288.0</ele><time>2026-04-11T09:14:11.441Z</time></trkpt><trkpt lat="43.6852272" lon="12.6714685"><ele>289.1666666666667</ele><time>2026-04-11T09:14:13.44Z</time></trkpt><trkpt lat="43.6851948" lon="12.6713775"><ele>290.3333333333333</ele><time>2026-04-11T09:14:14.44Z</time></trkpt><trkpt lat="43.6851588" lon="12.6712723"><ele>291.5</ele><time>2026-04-11T09:14:15.44Z</time></trkpt><trkpt lat="43.6851279" lon="12.6711478"><ele>292.66666666666663</ele><time>2026-04-11T09:14:16.44Z</time></trkpt><trkpt lat="43.6850925" lon="12.6710251"><ele>293.8333333333333</ele><time>2026-04-11T09:14:17.44Z</time></trkpt><trkpt lat="43.68506" lon="12.6709042"><ele>295.0</ele><time>2026-04-11T09:14:18.44Z</time></trkpt><trkpt lat="43.6850351" lon="12.6707781"><ele>295.0</ele><time>2026-04-11T09:14:19.44Z</time></trkpt><trkpt lat="43.6850159" lon="12.6706501"><ele>295.0</ele><time>2026-04-11T09:14:20.441Z</time></trkpt><trkpt lat="43.6849853" lon="12.6705182"><ele>295.0</ele><time>2026-04-11T09:14:21.441Z</time></trkpt><trkpt lat="43.6849521" lon="12.6703863"><ele>295.0</ele><time>2026-04-11T09:14:22.44Z</time></trkpt><trkpt lat="43.684901" lon="12.670253"><ele>295.0</ele><time>2026-04-11T09:14:23.441Z</time></trkpt><trkpt lat="43.6848297" lon="12.6701147"><ele>293.5</ele><time>2026-04-11T09:14:24.441Z</time></trkpt><trkpt lat="43.6847424" lon="12.6699847"><ele>292.0</ele><time>2026-04-11T09:14:25.44Z</time></trkpt><trkpt lat="43.6846658" lon="12.6698627"><ele>290.5</ele><time>2026-04-11T09:14:26.441Z</time></trkpt><trkpt lat="43.6845971" lon="12.6697453"><ele>289.0</ele><time>2026-04-11T09:14:27.44Z</time></trkpt><trkpt lat="43.684525" lon="12.6696445"><ele>289.0</ele><time>2026-04-11T09:14:28.44Z</time></trkpt><trkpt lat="43.6844535" lon="12.6695413"><ele>289.0</ele><time>2026-04-11T09:14:29.441Z</time></trkpt><trkpt lat="43.6843832" lon="12.6694357"><ele>289.0</ele><time>2026-04-11T09:14:30.44Z</time></trkpt><trkpt lat="43.6843176" lon="12.669313"><ele>289.0</ele><time>2026-04-11T09:14:31.44Z</time></trkpt><trkpt lat="43.6842608" lon="12.669182"><ele>289.0</ele><time>2026-04-11T09:14:32.441Z</time></trkpt><trkpt lat="43.6842032" lon="12.6690448"><ele>289.4</ele><time>2026-04-11T09:14:33.44Z</time></trkpt><trkpt lat="43.6841427" lon="12.6689058"><ele>289.79999999999995</ele><time>2026-04-11T09:14:34.44Z</time></trkpt><trkpt lat="43.6840784" lon="12.668788"><ele>290.20000000000005</ele><time>2026-04-11T09:14:35.44Z</time></trkpt><trkpt lat="43.683995" lon="12.668681"><ele>290.6</ele><time>2026-04-11T09:14:36.441Z</time></trkpt><trkpt lat="43.6839249" lon="12.6685626"><ele>291.0</ele><time>2026-04-11T09:14:37.44Z</time></trkpt><trkpt lat="43.6838727" lon="12.6684096"><ele>289.5</ele><time>2026-04-11T09:14:38.44Z</time></trkpt><trkpt lat="43.6838395" lon="12.66824"><ele>288.0</ele><time>2026-04-11T09:14:39.441Z</time></trkpt><trkpt lat="43.6838066" lon="12.668094"><ele>286.5</ele><time>2026-04-11T09:14:40.441Z</time></trkpt><trkpt lat="43.6837786" lon="12.6679504"><ele>285.0</ele><time>2026-04-11T09:14:41.44Z</time></trkpt><trkpt lat="43.683759" lon="12.6678076"><ele>285.0</ele><time>2026-04-11T09:14:42.44Z</time></trkpt><trkpt lat="43.6837517" lon="12.6676818"><ele>285.0</ele><time>2026-04-11T09:14:43.441Z</time></trkpt><trkpt lat="43.6837777" lon="12.6675689"><ele>285.0</ele><time>2026-04-11T09:14:44.441Z</time></trkpt><trkpt lat="43.6838339" lon="12.6674672"><ele>285.0</ele><time>2026-04-11T09:14:45.441Z</time></trkpt><trkpt lat="43.6839009" lon="12.6673687"><ele>285.0</ele><time>2026-04-11T09:14:46.44Z</time></trkpt><trkpt lat="43.6839584" lon="12.6672404"><ele>285.0</ele><time>2026-04-11T09:14:47.44Z</time></trkpt><trkpt lat="43.6840122" lon="12.6671151"><ele>285.0</ele><time>2026-04-11T09:14:48.44Z</time></trkpt><trkpt lat="43.6840425" lon="12.6669933"><ele>285.0</ele><time>2026-04-11T09:14:49.44Z</time></trkpt><trkpt lat="43.6840638" lon="12.6668665"><ele>285.0</ele><time>2026-04-11T09:14:50.441Z</time></trkpt><trkpt lat="43.6840712" lon="12.6667348"><ele>285.0</ele><time>2026-04-11T09:14:51.44Z</time></trkpt><trkpt lat="43.6840742" lon="12.6665895"><ele>286.5</ele><time>2026-04-11T09:14:52.44Z</time></trkpt><trkpt lat="43.684071" lon="12.6664303"><ele>288.0</ele><time>2026-04-11T09:14:53.441Z</time></trkpt><trkpt lat="43.684065" lon="12.6662527"><ele>289.5</ele><time>2026-04-11T09:14:54.441Z</time></trkpt><trkpt lat="43.6840628" lon="12.6660733"><ele>291.0</ele><time>2026-04-11T09:14:55.44Z</time></trkpt><trkpt lat="43.684069" lon="12.6659071"><ele>291.2</ele><time>2026-04-11T09:14:56.44Z</time></trkpt><trkpt lat="43.6840813" lon="12.6657478"><ele>291.40000000000003</ele><time>2026-04-11T09:14:57.44Z</time></trkpt><trkpt lat="43.684105" lon="12.6656014"><ele>291.6</ele><time>2026-04-11T09:14:58.441Z</time></trkpt><trkpt lat="43.6841341" lon="12.6654624"><ele>291.8</ele><time>2026-04-11T09:14:59.44Z</time></trkpt><trkpt lat="43.6841772" lon="12.6653133"><ele>292.0</ele><time>2026-04-11T09:15:00.44Z</time></trkpt><trkpt lat="43.6842328" lon="12.6651664"><ele>291.5</ele><time>2026-04-11T09:15:01.442Z</time></trkpt><trkpt lat="43.6842908" lon="12.6650498"><ele>291.0</ele><time>2026-04-11T09:15:02.44Z</time></trkpt><trkpt lat="43.6843443" lon="12.6649454"><ele>290.5</ele><time>2026-04-11T09:15:03.44Z</time></trkpt><trkpt lat="43.6843901" lon="12.6648628"><ele>290.0</ele><time>2026-04-11T09:15:04.44Z</time></trkpt><trkpt lat="43.6844327" lon="12.6647861"><ele>289.5</ele><time>2026-04-11T09:15:05.44Z</time></trkpt><trkpt lat="43.6844547" lon="12.664703"><ele>289.0</ele><time>2026-04-11T09:15:06.44Z</time></trkpt><trkpt lat="43.6844535" lon="12.6645999"><ele>287.59999999999997</ele><time>2026-04-11T09:15:07.44Z</time></trkpt><trkpt lat="43.6844335" lon="12.6644601"><ele>286.2</ele><time>2026-04-11T09:15:08.441Z</time></trkpt><trkpt lat="43.6844063" lon="12.6642939"><ele>284.79999999999995</ele><time>2026-04-11T09:15:09.44Z</time></trkpt><trkpt lat="43.6843929" lon="12.6641689"><ele>283.4</ele><time>2026-04-11T09:15:10.442Z</time></trkpt><trkpt lat="43.6843707" lon="12.664057"><ele>282.0</ele><time>2026-04-11T09:15:11.44Z</time></trkpt><trkpt lat="43.6843239" lon="12.6639747"><ele>282.0</ele><time>2026-04-11T09:15:12.441Z</time></trkpt><trkpt lat="43.6842591" lon="12.6639483"><ele>282.0</ele><time>2026-04-11T09:15:13.442Z</time></trkpt><trkpt lat="43.6841965" lon="12.6639843"><ele>282.0</ele><time>2026-04-11T09:15:14.44Z</time></trkpt><trkpt lat="43.6841148" lon="12.66406"><ele>282.0</ele><time>2026-04-11T09:15:15.44Z</time></trkpt><trkpt lat="43.6840491" lon="12.6641231"><ele>282.0</ele><time>2026-04-11T09:15:16.44Z</time></trkpt><trkpt lat="43.683988" lon="12.664169"><ele>282.0</ele><time>2026-04-11T09:15:17.441Z</time></trkpt><trkpt lat="43.683867" lon="12.6641328"><ele>282.0</ele><time>2026-04-11T09:15:19.44Z</time></trkpt><trkpt lat="43.6837948" lon="12.6640161"><ele>282.0</ele><time>2026-04-11T09:15:20.44Z</time></trkpt><trkpt lat="43.6837206" lon="12.6638496"><ele>282.0</ele><time>2026-04-11T09:15:21.441Z</time></trkpt><trkpt lat="43.683667" lon="12.663679"><ele>282.0</ele><time>2026-04-11T09:15:22.44Z</time></trkpt><trkpt lat="43.6836368" lon="12.6635008"><ele>281.25</ele><time>2026-04-11T09:15:23.44Z</time></trkpt><trkpt lat="43.6836288" lon="12.6632934"><ele>280.5</ele><time>2026-04-11T09:15:24.442Z</time></trkpt><trkpt lat="43.6836305" lon="12.6631056"><ele>279.75</ele><time>2026-04-11T09:15:25.441Z</time></trkpt><trkpt lat="43.6836368" lon="12.6629243"><ele>279.0</ele><time>2026-04-11T09:15:26.441Z</time></trkpt><trkpt lat="43.683654" lon="12.662741"><ele>276.5</ele><time>2026-04-11T09:15:27.44Z</time></trkpt><trkpt lat="43.6836862" lon="12.6625501"><ele>274.0</ele><time>2026-04-11T09:15:28.44Z</time></trkpt><trkpt lat="43.68373" lon="12.6623726"><ele>271.5</ele><time>2026-04-11T09:15:29.441Z</time></trkpt><trkpt lat="43.6837794" lon="12.662218"><ele>269.0</ele><time>2026-04-11T09:15:30.44Z</time></trkpt><trkpt lat="43.6838469" lon="12.6620916"><ele>269.0</ele><time>2026-04-11T09:15:31.44Z</time></trkpt><trkpt lat="43.683943" lon="12.6619842"><ele>269.0</ele><time>2026-04-11T09:15:32.44Z</time></trkpt><trkpt lat="43.6840604" lon="12.6618896"><ele>269.0</ele><time>2026-04-11T09:15:33.441Z</time></trkpt><trkpt lat="43.6841788" lon="12.6618272"><ele>269.0</ele><time>2026-04-11T09:15:34.44Z</time></trkpt><trkpt lat="43.6842989" lon="12.6617852"><ele>265.59999999999997</ele><time>2026-04-11T09:15:35.44Z</time></trkpt><trkpt lat="43.6844061" lon="12.6617524"><ele>262.2</ele><time>2026-04-11T09:15:36.441Z</time></trkpt><trkpt lat="43.6844965" lon="12.6617014"><ele>258.79999999999995</ele><time>2026-04-11T09:15:37.441Z</time></trkpt><trkpt lat="43.6845733" lon="12.6616095"><ele>255.39999999999998</ele><time>2026-04-11T09:15:38.441Z</time></trkpt><trkpt lat="43.6846267" lon="12.6614838"><ele>252.0</ele><time>2026-04-11T09:15:39.44Z</time></trkpt><trkpt lat="43.6846683" lon="12.661336"><ele>251.5</ele><time>2026-04-11T09:15:40.441Z</time></trkpt><trkpt lat="43.6847028" lon="12.6611582"><ele>251.0</ele><time>2026-04-11T09:15:41.441Z</time></trkpt><trkpt lat="43.6847309" lon="12.6609742"><ele>250.5</ele><time>2026-04-11T09:15:42.44Z</time></trkpt><trkpt lat="43.6847537" lon="12.6608143"><ele>250.0</ele><time>2026-04-11T09:15:43.44Z</time></trkpt><trkpt lat="43.6847603" lon="12.6606638"><ele>248.75</ele><time>2026-04-11T09:15:44.441Z</time></trkpt><trkpt lat="43.6847376" lon="12.6604875"><ele>247.5</ele><time>2026-04-11T09:15:45.441Z</time></trkpt><trkpt lat="43.6846918" lon="12.6602978"><ele>246.25</ele><time>2026-04-11T09:15:46.44Z</time></trkpt><trkpt lat="43.6846286" lon="12.6600782"><ele>245.0</ele><time>2026-04-11T09:15:47.44Z</time></trkpt><trkpt lat="43.6845743" lon="12.6598603"><ele>244.5</ele><time>2026-04-11T09:15:48.44Z</time></trkpt><trkpt lat="43.6845196" lon="12.659669"><ele>244.0</ele><time>2026-04-11T09:15:49.44Z</time></trkpt><trkpt lat="43.6844663" lon="12.6594956"><ele>243.5</ele><time>2026-04-11T09:15:50.441Z</time></trkpt><trkpt lat="43.68441" lon="12.6593359"><ele>243.0</ele><time>2026-04-11T09:15:51.44Z</time></trkpt><trkpt lat="43.6843604" lon="12.6591851"><ele>243.0</ele><time>2026-04-11T09:15:52.44Z</time></trkpt><trkpt lat="43.6843177" lon="12.6590453"><ele>243.0</ele><time>2026-04-11T09:15:53.44Z</time></trkpt><trkpt lat="43.6842833" lon="12.658922"><ele>243.0</ele><time>2026-04-11T09:15:54.44Z</time></trkpt><trkpt lat="43.6842552" lon="12.6588257"><ele>243.0</ele><time>2026-04-11T09:15:55.442Z</time></trkpt><trkpt lat="43.6842285" lon="12.6587191"><ele>243.0</ele><time>2026-04-11T09:15:56.44Z</time></trkpt><trkpt lat="43.6841931" lon="12.6585905"><ele>242.2</ele><time>2026-04-11T09:15:57.44Z</time></trkpt><trkpt lat="43.6841511" lon="12.658447"><ele>241.4</ele><time>2026-04-11T09:15:58.44Z</time></trkpt><trkpt lat="43.684119" lon="12.6583019"><ele>240.59999999999997</ele><time>2026-04-11T09:15:59.44Z</time></trkpt><trkpt lat="43.6840974" lon="12.6581644"><ele>239.79999999999998</ele><time>2026-04-11T09:16:00.44Z</time></trkpt><trkpt lat="43.6840846" lon="12.6580268"><ele>239.0</ele><time>2026-04-11T09:16:01.44Z</time></trkpt><trkpt lat="43.6840664" lon="12.657879"><ele>238.75</ele><time>2026-04-11T09:16:02.441Z</time></trkpt><trkpt lat="43.6840482" lon="12.65772"><ele>238.5</ele><time>2026-04-11T09:16:03.44Z</time></trkpt><trkpt lat="43.6840026" lon="12.6575634"><ele>238.25</ele><time>2026-04-11T09:16:04.44Z</time></trkpt><trkpt lat="43.683922" lon="12.657421"><ele>238.0</ele><time>2026-04-11T09:16:05.44Z</time></trkpt><trkpt lat="43.6838409" lon="12.6572971"><ele>238.0</ele><time>2026-04-11T09:16:06.44Z</time></trkpt><trkpt lat="43.6837493" lon="12.6571863"><ele>238.0</ele><time>2026-04-11T09:16:07.441Z</time></trkpt><trkpt lat="43.6836535" lon="12.6570951"><ele>238.0</ele><time>2026-04-11T09:16:08.441Z</time></trkpt><trkpt lat="43.6835297" lon="12.6570294"><ele>238.0</ele><time>2026-04-11T09:16:09.44Z</time></trkpt><trkpt lat="43.6834175" lon="12.6569834"><ele>236.4</ele><time>2026-04-11T09:16:10.44Z</time></trkpt><trkpt lat="43.6833138" lon="12.6569462"><ele>234.8</ele><time>2026-04-11T09:16:11.441Z</time></trkpt><trkpt lat="43.683229" lon="12.6569051"><ele>233.2</ele><time>2026-04-11T09:16:12.44Z</time></trkpt><trkpt lat="43.6831631" lon="12.6568429"><ele>231.6</ele><time>2026-04-11T09:16:13.44Z</time></trkpt><trkpt lat="43.6831179" lon="12.65675"><ele>230.0</ele><time>2026-04-11T09:16:14.441Z</time></trkpt><trkpt lat="43.6830933" lon="12.6566179"><ele>230.0</ele><time>2026-04-11T09:16:15.44Z</time></trkpt><trkpt lat="43.6830661" lon="12.6564693"><ele>230.0</ele><time>2026-04-11T09:16:16.44Z</time></trkpt><trkpt lat="43.6830279" lon="12.6563387"><ele>230.0</ele><time>2026-04-11T09:16:17.441Z</time></trkpt><trkpt lat="43.6829524" lon="12.6562095"><ele>230.0</ele><time>2026-04-11T09:16:18.44Z</time></trkpt><trkpt lat="43.6828777" lon="12.6560772"><ele>232.0</ele><time>2026-04-11T09:16:19.442Z</time></trkpt><trkpt lat="43.6827181" lon="12.6559193"><ele>234.0</ele><time>2026-04-11T09:16:20.44Z</time></trkpt><trkpt lat="43.6825868" lon="12.6557568"><ele>236.0</ele><time>2026-04-11T09:16:21.44Z</time></trkpt><trkpt lat="43.6824408" lon="12.6555858"><ele>236.0</ele><time>2026-04-11T09:16:22.441Z</time></trkpt><trkpt lat="43.6823016" lon="12.6554205"><ele>236.0</ele><time>2026-04-11T09:16:23.44Z</time></trkpt><trkpt lat="43.6821717" lon="12.6552656"><ele>236.0</ele><time>2026-04-11T09:16:24.441Z</time></trkpt><trkpt lat="43.6820567" lon="12.6551208"><ele>234.75</ele><time>2026-04-11T09:16:25.441Z</time></trkpt><trkpt lat="43.6819546" lon="12.654978"><ele>233.5</ele><time>2026-04-11T09:16:26.44Z</time></trkpt><trkpt lat="43.681881" lon="12.6548335"><ele>232.25</ele><time>2026-04-11T09:16:27.44Z</time></trkpt><trkpt lat="43.6818318" lon="12.6546578"><ele>231.0</ele><time>2026-04-11T09:16:28.44Z</time></trkpt><trkpt lat="43.6818014" lon="12.6544966"><ele>234.4</ele><time>2026-04-11T09:16:29.441Z</time></trkpt><trkpt lat="43.6817648" lon="12.6543802"><ele>237.8</ele><time>2026-04-11T09:16:30.44Z</time></trkpt><trkpt lat="43.6817179" lon="12.6543162"><ele>241.20000000000002</ele><time>2026-04-11T09:16:31.44Z</time></trkpt><trkpt lat="43.6816483" lon="12.6543029"><ele>244.60000000000002</ele><time>2026-04-11T09:16:32.44Z</time></trkpt><trkpt lat="43.6815502" lon="12.6543399"><ele>248.0</ele><time>2026-04-11T09:16:33.441Z</time></trkpt><trkpt lat="43.6814236" lon="12.6543706"><ele>248.0</ele><time>2026-04-11T09:16:34.441Z</time></trkpt><trkpt lat="43.6812769" lon="12.6543577"><ele>248.0</ele><time>2026-04-11T09:16:35.44Z</time></trkpt><trkpt lat="43.681139" lon="12.6543303"><ele>248.0</ele><time>2026-04-11T09:16:36.44Z</time></trkpt><trkpt lat="43.6810058" lon="12.6543187"><ele>248.0</ele><time>2026-04-11T09:16:37.44Z</time></trkpt><trkpt lat="43.6808764" lon="12.6543341"><ele>247.75</ele><time>2026-04-11T09:16:38.441Z</time></trkpt><trkpt lat="43.6807427" lon="12.6543681"><ele>247.5</ele><time>2026-04-11T09:16:39.441Z</time></trkpt><trkpt lat="43.6805994" lon="12.6544105"><ele>247.25</ele><time>2026-04-11T09:16:40.44Z</time></trkpt><trkpt lat="43.6804438" lon="12.6544652"><ele>247.0</ele><time>2026-04-11T09:16:41.441Z</time></trkpt><trkpt lat="43.6802988" lon="12.6545071"><ele>244.75</ele><time>2026-04-11T09:16:42.44Z</time></trkpt><trkpt lat="43.6801619" lon="12.6545475"><ele>242.5</ele><time>2026-04-11T09:16:43.44Z</time></trkpt><trkpt lat="43.6800421" lon="12.6545947"><ele>240.25</ele><time>2026-04-11T09:16:44.44Z</time></trkpt><trkpt lat="43.6799354" lon="12.6546356"><ele>238.0</ele><time>2026-04-11T09:16:45.44Z</time></trkpt><trkpt lat="43.6798427" lon="12.6546733"><ele>237.99999999999997</ele><time>2026-04-11T09:16:46.44Z</time></trkpt><trkpt lat="43.6797623" lon="12.6547023"><ele>238.0</ele><time>2026-04-11T09:16:47.441Z</time></trkpt><trkpt lat="43.6796917" lon="12.6547266"><ele>238.0</ele><time>2026-04-11T09:16:48.441Z</time></trkpt><trkpt lat="43.6796199" lon="12.6547171"><ele>238.0</ele><time>2026-04-11T09:16:49.44Z</time></trkpt><trkpt lat="43.6795471" lon="12.6546651"><ele>237.99999999999997</ele><time>2026-04-11T09:16:50.441Z</time></trkpt><trkpt lat="43.6794975" lon="12.6545816"><ele>238.0</ele><time>2026-04-11T09:16:51.441Z</time></trkpt><trkpt lat="43.6794826" lon="12.6544735"><ele>235.75</ele><time>2026-04-11T09:16:52.441Z</time></trkpt><trkpt lat="43.6795" lon="12.6543429"><ele>233.5</ele><time>2026-04-11T09:16:53.441Z</time></trkpt><trkpt lat="43.6795619" lon="12.6541847"><ele>231.25</ele><time>2026-04-11T09:16:54.44Z</time></trkpt><trkpt lat="43.6796454" lon="12.6539862"><ele>229.0</ele><time>2026-04-11T09:16:55.441Z</time></trkpt><trkpt lat="43.679732" lon="12.6537649"><ele>227.0</ele><time>2026-04-11T09:16:56.441Z</time></trkpt><trkpt lat="43.6798269" lon="12.6535326"><ele>225.0</ele><time>2026-04-11T09:16:57.44Z</time></trkpt><trkpt lat="43.6799108" lon="12.653324"><ele>223.0</ele><time>2026-04-11T09:16:58.44Z</time></trkpt><trkpt lat="43.6799851" lon="12.6531309"><ele>223.0</ele><time>2026-04-11T09:16:59.44Z</time></trkpt><trkpt lat="43.6800461" lon="12.6529417"><ele>223.0</ele><time>2026-04-11T09:17:00.44Z</time></trkpt><trkpt lat="43.68011" lon="12.6527439"><ele>223.0</ele><time>2026-04-11T09:17:01.44Z</time></trkpt><trkpt lat="43.6801229" lon="12.6524913"><ele>222.33333333333331</ele><time>2026-04-11T09:17:02.441Z</time></trkpt><trkpt lat="43.6801369" lon="12.6522549"><ele>221.66666666666669</ele><time>2026-04-11T09:17:03.44Z</time></trkpt><trkpt lat="43.6801437" lon="12.6520425"><ele>221.0</ele><time>2026-04-11T09:17:04.44Z</time></trkpt><trkpt lat="43.6801448" lon="12.6518363"><ele>220.0</ele><time>2026-04-11T09:17:05.441Z</time></trkpt><trkpt lat="43.6801436" lon="12.6516446"><ele>219.0</ele><time>2026-04-11T09:17:06.44Z</time></trkpt><trkpt lat="43.6801527" lon="12.6514629"><ele>218.0</ele><time>2026-04-11T09:17:07.44Z</time></trkpt><trkpt lat="43.6801712" lon="12.651284"><ele>217.0</ele><time>2026-04-11T09:17:08.44Z</time></trkpt><trkpt lat="43.6801956" lon="12.6510954"><ele>215.75</ele><time>2026-04-11T09:17:09.44Z</time></trkpt><trkpt lat="43.6802239" lon="12.6508971"><ele>214.5</ele><time>2026-04-11T09:17:10.44Z</time></trkpt><trkpt lat="43.6802307" lon="12.6506889"><ele>213.25</ele><time>2026-04-11T09:17:11.44Z</time></trkpt><trkpt lat="43.6802068" lon="12.6504908"><ele>212.0</ele><time>2026-04-11T09:17:12.441Z</time></trkpt><trkpt lat="43.6801539" lon="12.6502589"><ele>211.0</ele><time>2026-04-11T09:17:13.44Z</time></trkpt><trkpt lat="43.6800843" lon="12.6500174"><ele>210.0</ele><time>2026-04-11T09:17:14.44Z</time></trkpt><trkpt lat="43.6800172" lon="12.6497948"><ele>209.0</ele><time>2026-04-11T09:17:15.441Z</time></trkpt><trkpt lat="43.6799512" lon="12.6495777"><ele>207.33333333333334</ele><time>2026-04-11T09:17:16.44Z</time></trkpt><trkpt lat="43.6798825" lon="12.6493777"><ele>205.66666666666669</ele><time>2026-04-11T09:17:17.44Z</time></trkpt><trkpt lat="43.6798155" lon="12.6491873"><ele>204.0</ele><time>2026-04-11T09:17:18.441Z</time></trkpt><trkpt lat="43.6797571" lon="12.6490105"><ele>204.0</ele><time>2026-04-11T09:17:19.44Z</time></trkpt><trkpt lat="43.6796941" lon="12.6488458"><ele>204.0</ele><time>2026-04-11T09:17:20.44Z</time></trkpt><trkpt lat="43.6796324" lon="12.648693"><ele>204.0</ele><time>2026-04-11T09:17:21.441Z</time></trkpt><trkpt lat="43.679561" lon="12.6485505"><ele>204.0</ele><time>2026-04-11T09:17:22.441Z</time></trkpt><trkpt lat="43.6794819" lon="12.6484093"><ele>204.75</ele><time>2026-04-11T09:17:23.44Z</time></trkpt><trkpt lat="43.6793957" lon="12.6482595"><ele>205.5</ele><time>2026-04-11T09:17:24.44Z</time></trkpt><trkpt lat="43.6792983" lon="12.6481064"><ele>206.25</ele><time>2026-04-11T09:17:25.441Z</time></trkpt><trkpt lat="43.6791906" lon="12.6479727"><ele>207.0</ele><time>2026-04-11T09:17:26.44Z</time></trkpt><trkpt lat="43.6790705" lon="12.6478558"><ele>205.75</ele><time>2026-04-11T09:17:27.44Z</time></trkpt><trkpt lat="43.6789375" lon="12.6477508"><ele>204.5</ele><time>2026-04-11T09:17:28.44Z</time></trkpt><trkpt lat="43.678809" lon="12.6476553"><ele>203.25</ele><time>2026-04-11T09:17:29.44Z</time></trkpt><trkpt lat="43.6786822" lon="12.6475812"><ele>202.0</ele><time>2026-04-11T09:17:30.44Z</time></trkpt><trkpt lat="43.6785567" lon="12.647528"><ele>202.0</ele><time>2026-04-11T09:17:31.44Z</time></trkpt><trkpt lat="43.6784384" lon="12.6474911"><ele>202.0</ele><time>2026-04-11T09:17:32.44Z</time></trkpt><trkpt lat="43.6783081" lon="12.6474997"><ele>202.0</ele><time>2026-04-11T09:17:33.44Z</time></trkpt><trkpt lat="43.6781555" lon="12.6475492"><ele>202.0</ele><time>2026-04-11T09:17:34.44Z</time></trkpt><trkpt lat="43.6779802" lon="12.6476306"><ele>202.0</ele><time>2026-04-11T09:17:35.44Z</time></trkpt><trkpt lat="43.6777789" lon="12.6477437"><ele>202.0</ele><time>2026-04-11T09:17:36.44Z</time></trkpt><trkpt lat="43.6775741" lon="12.6478669"><ele>202.0</ele><time>2026-04-11T09:17:37.44Z</time></trkpt><trkpt lat="43.6773922" lon="12.6479793"><ele>200.33333333333331</ele><time>2026-04-11T09:17:38.441Z</time></trkpt><trkpt lat="43.6772244" lon="12.6480916"><ele>198.66666666666669</ele><time>2026-04-11T09:17:39.44Z</time></trkpt><trkpt lat="43.6770647" lon="12.6481908"><ele>197.0</ele><time>2026-04-11T09:17:40.439Z</time></trkpt><trkpt lat="43.6769113" lon="12.648279"><ele>197.0</ele><time>2026-04-11T09:17:41.439Z</time></trkpt><trkpt lat="43.6767652" lon="12.6483563"><ele>197.0</ele><time>2026-04-11T09:17:42.439Z</time></trkpt><trkpt lat="43.6766256" lon="12.6484179"><ele>197.0</ele><time>2026-04-11T09:17:43.439Z</time></trkpt><trkpt lat="43.6764926" lon="12.648465"><ele>197.0</ele><time>2026-04-11T09:17:44.439Z</time></trkpt><trkpt lat="43.676366" lon="12.6485014"><ele>197.0</ele><time>2026-04-11T09:17:45.439Z</time></trkpt><trkpt lat="43.6762424" lon="12.6485192"><ele>197.0</ele><time>2026-04-11T09:17:46.439Z</time></trkpt><trkpt lat="43.6761174" lon="12.6485232"><ele>197.0</ele><time>2026-04-11T09:17:47.44Z</time></trkpt><trkpt lat="43.675991" lon="12.648505"><ele>197.0</ele><time>2026-04-11T09:17:48.44Z</time></trkpt><trkpt lat="43.6758552" lon="12.6484592"><ele>196.75</ele><time>2026-04-11T09:17:49.439Z</time></trkpt><trkpt lat="43.6757116" lon="12.6483967"><ele>196.5</ele><time>2026-04-11T09:17:50.439Z</time></trkpt><trkpt lat="43.6755858" lon="12.6483588"><ele>196.25</ele><time>2026-04-11T09:17:51.439Z</time></trkpt><trkpt lat="43.6754605" lon="12.648331"><ele>196.0</ele><time>2026-04-11T09:17:52.439Z</time></trkpt><trkpt lat="43.6753474" lon="12.6483114"><ele>196.0</ele><time>2026-04-11T09:17:53.439Z</time></trkpt><trkpt lat="43.6752575" lon="12.6483187"><ele>203.0</ele><time>2026-04-11T09:17:54.439Z</time></trkpt><trkpt lat="43.6751938" lon="12.6483315"><ele>203.0</ele><time>2026-04-11T09:17:55.44Z</time></trkpt><trkpt lat="43.6751176" lon="12.6483042"><ele>203.0</ele><time>2026-04-11T09:17:57.44Z</time></trkpt><trkpt lat="43.6751176" lon="12.6483042"><ele>203.0</ele><time>2026-04-11T09:17:57.44Z</time></trkpt></trkseg></trk></gpx>